<?xml version="1.0" encoding="UTF-8" standalone="no" ?>
<gpx xmlns="http://www.topografix.com/GPX/1/1" xmlns:xsi="http://www.w3.org/2001/XMLSchema-instance" xsi:schemaLocation="http://www.topografix.com/GPX/1/1 http://www.topografix.com/GPX/1/1/gpx.xsd" version="1.1" creator="VisuGPX - https://www.visugpx.com">
  <metadata>
    <name>2015-07-18 Balade avec Will et Marion</name>
    <desc><![CDATA[Découverte du Haut-Biterrois]]></desc>
  </metadata>
  <trk>
    <name><![CDATA[2015-07-18 13:08 Balade avec William et Marion]]></name>
    <trkseg>
      <trkpt lat="43.62272" lon="3.83492">
        <ele>87.14</ele>
        <time>2015-07-18T11:08:52Z</time>
      </trkpt>
      <trkpt lat="43.62277" lon="3.8348">
        <ele>87.62</ele>
        <time>2015-07-18T11:08:53Z</time>
      </trkpt>
      <trkpt lat="43.62299" lon="3.83434">
        <ele>86.66</ele>
        <time>2015-07-18T11:08:57Z</time>
      </trkpt>
      <trkpt lat="43.62307" lon="3.83428">
        <ele>80.41</ele>
        <time>2015-07-18T11:08:58Z</time>
      </trkpt>
      <trkpt lat="43.62316" lon="3.83421">
        <ele>79.45</ele>
        <time>2015-07-18T11:08:59Z</time>
      </trkpt>
      <trkpt lat="43.62327" lon="3.83416">
        <ele>78.48</ele>
        <time>2015-07-18T11:09:00Z</time>
      </trkpt>
      <trkpt lat="43.62339" lon="3.83411">
        <ele>78</ele>
        <time>2015-07-18T11:09:01Z</time>
      </trkpt>
      <trkpt lat="43.62362" lon="3.83405">
        <ele>77.04</ele>
        <time>2015-07-18T11:09:03Z</time>
      </trkpt>
      <trkpt lat="43.62376" lon="3.83409">
        <ele>76.56</ele>
        <time>2015-07-18T11:09:04Z</time>
      </trkpt>
      <trkpt lat="43.62388" lon="3.83413">
        <ele>76.56</ele>
        <time>2015-07-18T11:09:05Z</time>
      </trkpt>
      <trkpt lat="43.62401" lon="3.8342">
        <ele>76.56</ele>
        <time>2015-07-18T11:09:06Z</time>
      </trkpt>
      <trkpt lat="43.62412" lon="3.83427">
        <ele>76.56</ele>
        <time>2015-07-18T11:09:07Z</time>
      </trkpt>
      <trkpt lat="43.62423" lon="3.83435">
        <ele>77.04</ele>
        <time>2015-07-18T11:09:08Z</time>
      </trkpt>
      <trkpt lat="43.62435" lon="3.83444">
        <ele>75.6</ele>
        <time>2015-07-18T11:09:09Z</time>
      </trkpt>
      <trkpt lat="43.62445" lon="3.83454">
        <ele>76.08</ele>
        <time>2015-07-18T11:09:10Z</time>
      </trkpt>
      <trkpt lat="43.62454" lon="3.83465">
        <ele>76.08</ele>
        <time>2015-07-18T11:09:11Z</time>
      </trkpt>
      <trkpt lat="43.62462" lon="3.83475">
        <ele>76.08</ele>
        <time>2015-07-18T11:09:12Z</time>
      </trkpt>
      <trkpt lat="43.6247" lon="3.83487">
        <ele>76.08</ele>
        <time>2015-07-18T11:09:13Z</time>
      </trkpt>
      <trkpt lat="43.62477" lon="3.83498">
        <ele>76.56</ele>
        <time>2015-07-18T11:09:14Z</time>
      </trkpt>
      <trkpt lat="43.62483" lon="3.8351">
        <ele>76.56</ele>
        <time>2015-07-18T11:09:15Z</time>
      </trkpt>
      <trkpt lat="43.62488" lon="3.83522">
        <ele>76.56</ele>
        <time>2015-07-18T11:09:16Z</time>
      </trkpt>
      <trkpt lat="43.62493" lon="3.83534">
        <ele>77.04</ele>
        <time>2015-07-18T11:09:17Z</time>
      </trkpt>
      <trkpt lat="43.625" lon="3.83554">
        <ele>77.04</ele>
        <time>2015-07-18T11:09:19Z</time>
      </trkpt>
      <trkpt lat="43.62497" lon="3.83581">
        <ele>77.04</ele>
        <time>2015-07-18T11:09:25Z</time>
      </trkpt>
      <trkpt lat="43.62494" lon="3.83588">
        <ele>77.04</ele>
        <time>2015-07-18T11:09:26Z</time>
      </trkpt>
      <trkpt lat="43.62489" lon="3.83595">
        <ele>77.04</ele>
        <time>2015-07-18T11:09:27Z</time>
      </trkpt>
      <trkpt lat="43.62485" lon="3.83603">
        <ele>77.04</ele>
        <time>2015-07-18T11:09:28Z</time>
      </trkpt>
      <trkpt lat="43.6248" lon="3.83613">
        <ele>77.04</ele>
        <time>2015-07-18T11:09:29Z</time>
      </trkpt>
      <trkpt lat="43.62476" lon="3.83625">
        <ele>77.04</ele>
        <time>2015-07-18T11:09:30Z</time>
      </trkpt>
      <trkpt lat="43.62471" lon="3.83636">
        <ele>77.04</ele>
        <time>2015-07-18T11:09:31Z</time>
      </trkpt>
      <trkpt lat="43.62464" lon="3.83644">
        <ele>77.52</ele>
        <time>2015-07-18T11:09:32Z</time>
      </trkpt>
      <trkpt lat="43.62456" lon="3.83649">
        <ele>78</ele>
        <time>2015-07-18T11:09:33Z</time>
      </trkpt>
      <trkpt lat="43.62448" lon="3.83649">
        <ele>78.48</ele>
        <time>2015-07-18T11:09:34Z</time>
      </trkpt>
      <trkpt lat="43.6244" lon="3.83649">
        <ele>78.97</ele>
        <time>2015-07-18T11:09:35Z</time>
      </trkpt>
      <trkpt lat="43.62431" lon="3.83649">
        <ele>79.45</ele>
        <time>2015-07-18T11:09:36Z</time>
      </trkpt>
      <trkpt lat="43.62423" lon="3.83651">
        <ele>79.93</ele>
        <time>2015-07-18T11:09:37Z</time>
      </trkpt>
      <trkpt lat="43.62416" lon="3.83656">
        <ele>80.41</ele>
        <time>2015-07-18T11:09:38Z</time>
      </trkpt>
      <trkpt lat="43.62412" lon="3.83664">
        <ele>79.93</ele>
        <time>2015-07-18T11:09:39Z</time>
      </trkpt>
      <trkpt lat="43.6241" lon="3.83672">
        <ele>79.93</ele>
        <time>2015-07-18T11:09:40Z</time>
      </trkpt>
      <trkpt lat="43.62412" lon="3.83681">
        <ele>79.93</ele>
        <time>2015-07-18T11:09:41Z</time>
      </trkpt>
      <trkpt lat="43.62414" lon="3.83688">
        <ele>79.45</ele>
        <time>2015-07-18T11:09:42Z</time>
      </trkpt>
      <trkpt lat="43.62419" lon="3.83694">
        <ele>79.45</ele>
        <time>2015-07-18T11:09:43Z</time>
      </trkpt>
      <trkpt lat="43.62424" lon="3.83699">
        <ele>78.97</ele>
        <time>2015-07-18T11:09:44Z</time>
      </trkpt>
      <trkpt lat="43.62428" lon="3.83705">
        <ele>78.48</ele>
        <time>2015-07-18T11:09:45Z</time>
      </trkpt>
      <trkpt lat="43.62431" lon="3.83715">
        <ele>78.97</ele>
        <time>2015-07-18T11:09:46Z</time>
      </trkpt>
      <trkpt lat="43.62435" lon="3.83727">
        <ele>78.97</ele>
        <time>2015-07-18T11:09:47Z</time>
      </trkpt>
      <trkpt lat="43.62437" lon="3.83739">
        <ele>78.97</ele>
        <time>2015-07-18T11:09:48Z</time>
      </trkpt>
      <trkpt lat="43.62439" lon="3.8375">
        <ele>78.48</ele>
        <time>2015-07-18T11:09:49Z</time>
      </trkpt>
      <trkpt lat="43.6244" lon="3.8376">
        <ele>78.48</ele>
        <time>2015-07-18T11:09:50Z</time>
      </trkpt>
      <trkpt lat="43.6244" lon="3.83769">
        <ele>78.97</ele>
        <time>2015-07-18T11:09:51Z</time>
      </trkpt>
      <trkpt lat="43.62438" lon="3.83776">
        <ele>79.45</ele>
        <time>2015-07-18T11:09:52Z</time>
      </trkpt>
      <trkpt lat="43.6243" lon="3.83793">
        <ele>80.41</ele>
        <time>2015-07-18T11:09:59Z</time>
      </trkpt>
      <trkpt lat="43.62433" lon="3.83794">
        <ele>82.33</ele>
        <time>2015-07-18T11:10:02Z</time>
      </trkpt>
      <trkpt lat="43.62435" lon="3.83795">
        <ele>82.33</ele>
        <time>2015-07-18T11:10:12Z</time>
      </trkpt>
      <trkpt lat="43.62435" lon="3.83789">
        <ele>92.9</ele>
        <time>2015-07-18T11:10:42Z</time>
      </trkpt>
      <trkpt lat="43.62435" lon="3.8379">
        <ele>90.5</ele>
        <time>2015-07-18T11:14:36Z</time>
      </trkpt>
      <trkpt lat="43.62434" lon="3.83789">
        <ele>89.54</ele>
        <time>2015-07-18T11:15:28Z</time>
      </trkpt>
      <trkpt lat="43.62435" lon="3.83787">
        <ele>95.31</ele>
        <time>2015-07-18T11:16:29Z</time>
      </trkpt>
      <trkpt lat="43.62443" lon="3.83775">
        <ele>90.5</ele>
        <time>2015-07-18T11:16:35Z</time>
      </trkpt>
      <trkpt lat="43.62443" lon="3.83769">
        <ele>89.54</ele>
        <time>2015-07-18T11:16:36Z</time>
      </trkpt>
      <trkpt lat="43.62442" lon="3.83761">
        <ele>89.06</ele>
        <time>2015-07-18T11:16:37Z</time>
      </trkpt>
      <trkpt lat="43.6243" lon="3.83703">
        <ele>85.21</ele>
        <time>2015-07-18T11:16:43Z</time>
      </trkpt>
      <trkpt lat="43.62431" lon="3.83695">
        <ele>84.73</ele>
        <time>2015-07-18T11:16:44Z</time>
      </trkpt>
      <trkpt lat="43.62434" lon="3.83689">
        <ele>83.77</ele>
        <time>2015-07-18T11:16:45Z</time>
      </trkpt>
      <trkpt lat="43.6244" lon="3.83683">
        <ele>83.29</ele>
        <time>2015-07-18T11:16:46Z</time>
      </trkpt>
      <trkpt lat="43.62447" lon="3.83677">
        <ele>82.81</ele>
        <time>2015-07-18T11:16:47Z</time>
      </trkpt>
      <trkpt lat="43.62453" lon="3.83672">
        <ele>82.33</ele>
        <time>2015-07-18T11:16:48Z</time>
      </trkpt>
      <trkpt lat="43.6246" lon="3.83669">
        <ele>81.85</ele>
        <time>2015-07-18T11:16:49Z</time>
      </trkpt>
      <trkpt lat="43.62467" lon="3.83668">
        <ele>81.37</ele>
        <time>2015-07-18T11:16:50Z</time>
      </trkpt>
      <trkpt lat="43.62473" lon="3.83668">
        <ele>80.89</ele>
        <time>2015-07-18T11:16:51Z</time>
      </trkpt>
      <trkpt lat="43.6248" lon="3.8367">
        <ele>80.41</ele>
        <time>2015-07-18T11:16:52Z</time>
      </trkpt>
      <trkpt lat="43.62486" lon="3.83675">
        <ele>79.93</ele>
        <time>2015-07-18T11:16:53Z</time>
      </trkpt>
      <trkpt lat="43.62494" lon="3.83681">
        <ele>79.45</ele>
        <time>2015-07-18T11:16:54Z</time>
      </trkpt>
      <trkpt lat="43.62504" lon="3.83687">
        <ele>79.45</ele>
        <time>2015-07-18T11:16:55Z</time>
      </trkpt>
      <trkpt lat="43.62514" lon="3.83691">
        <ele>79.45</ele>
        <time>2015-07-18T11:16:56Z</time>
      </trkpt>
      <trkpt lat="43.62526" lon="3.83692">
        <ele>78.97</ele>
        <time>2015-07-18T11:16:57Z</time>
      </trkpt>
      <trkpt lat="43.62538" lon="3.83688">
        <ele>78.97</ele>
        <time>2015-07-18T11:16:58Z</time>
      </trkpt>
      <trkpt lat="43.62547" lon="3.83679">
        <ele>78.48</ele>
        <time>2015-07-18T11:16:59Z</time>
      </trkpt>
      <trkpt lat="43.62555" lon="3.83666">
        <ele>78.48</ele>
        <time>2015-07-18T11:17:00Z</time>
      </trkpt>
      <trkpt lat="43.6256" lon="3.83651">
        <ele>78.48</ele>
        <time>2015-07-18T11:17:01Z</time>
      </trkpt>
      <trkpt lat="43.62563" lon="3.83636">
        <ele>78.48</ele>
        <time>2015-07-18T11:17:02Z</time>
      </trkpt>
      <trkpt lat="43.62563" lon="3.83619">
        <ele>78.48</ele>
        <time>2015-07-18T11:17:03Z</time>
      </trkpt>
      <trkpt lat="43.62561" lon="3.83603">
        <ele>77.52</ele>
        <time>2015-07-18T11:17:04Z</time>
      </trkpt>
      <trkpt lat="43.62555" lon="3.8359">
        <ele>77.04</ele>
        <time>2015-07-18T11:17:05Z</time>
      </trkpt>
      <trkpt lat="43.62544" lon="3.83577">
        <ele>76.56</ele>
        <time>2015-07-18T11:17:06Z</time>
      </trkpt>
      <trkpt lat="43.62532" lon="3.83567">
        <ele>77.04</ele>
        <time>2015-07-18T11:17:07Z</time>
      </trkpt>
      <trkpt lat="43.6252" lon="3.83555">
        <ele>78</ele>
        <time>2015-07-18T11:17:08Z</time>
      </trkpt>
      <trkpt lat="43.62509" lon="3.8354">
        <ele>78</ele>
        <time>2015-07-18T11:17:09Z</time>
      </trkpt>
      <trkpt lat="43.62501" lon="3.83522">
        <ele>78.48</ele>
        <time>2015-07-18T11:17:10Z</time>
      </trkpt>
      <trkpt lat="43.62493" lon="3.83504">
        <ele>78.48</ele>
        <time>2015-07-18T11:17:11Z</time>
      </trkpt>
      <trkpt lat="43.62463" lon="3.83454">
        <ele>78.48</ele>
        <time>2015-07-18T11:17:14Z</time>
      </trkpt>
      <trkpt lat="43.6245" lon="3.83439">
        <ele>78.97</ele>
        <time>2015-07-18T11:17:15Z</time>
      </trkpt>
      <trkpt lat="43.62437" lon="3.83426">
        <ele>78.97</ele>
        <time>2015-07-18T11:17:16Z</time>
      </trkpt>
      <trkpt lat="43.62425" lon="3.83415">
        <ele>78.48</ele>
        <time>2015-07-18T11:17:17Z</time>
      </trkpt>
      <trkpt lat="43.62411" lon="3.83405">
        <ele>78.48</ele>
        <time>2015-07-18T11:17:18Z</time>
      </trkpt>
      <trkpt lat="43.62397" lon="3.83397">
        <ele>78.48</ele>
        <time>2015-07-18T11:17:19Z</time>
      </trkpt>
      <trkpt lat="43.62384" lon="3.83391">
        <ele>78.48</ele>
        <time>2015-07-18T11:17:20Z</time>
      </trkpt>
      <trkpt lat="43.62361" lon="3.83376">
        <ele>78.97</ele>
        <time>2015-07-18T11:17:22Z</time>
      </trkpt>
      <trkpt lat="43.62354" lon="3.83368">
        <ele>78.97</ele>
        <time>2015-07-18T11:17:23Z</time>
      </trkpt>
      <trkpt lat="43.62349" lon="3.83358">
        <ele>78.97</ele>
        <time>2015-07-18T11:17:24Z</time>
      </trkpt>
      <trkpt lat="43.62345" lon="3.83346">
        <ele>78.97</ele>
        <time>2015-07-18T11:17:25Z</time>
      </trkpt>
      <trkpt lat="43.62341" lon="3.83333">
        <ele>79.45</ele>
        <time>2015-07-18T11:17:26Z</time>
      </trkpt>
      <trkpt lat="43.62332" lon="3.83322">
        <ele>78.97</ele>
        <time>2015-07-18T11:17:27Z</time>
      </trkpt>
      <trkpt lat="43.62323" lon="3.83312">
        <ele>78.97</ele>
        <time>2015-07-18T11:17:28Z</time>
      </trkpt>
      <trkpt lat="43.62314" lon="3.83298">
        <ele>78.97</ele>
        <time>2015-07-18T11:17:29Z</time>
      </trkpt>
      <trkpt lat="43.62308" lon="3.83282">
        <ele>78.48</ele>
        <time>2015-07-18T11:17:30Z</time>
      </trkpt>
      <trkpt lat="43.62304" lon="3.83264">
        <ele>78.48</ele>
        <time>2015-07-18T11:17:31Z</time>
      </trkpt>
      <trkpt lat="43.62303" lon="3.83243">
        <ele>78</ele>
        <time>2015-07-18T11:17:32Z</time>
      </trkpt>
      <trkpt lat="43.62305" lon="3.83219">
        <ele>77.52</ele>
        <time>2015-07-18T11:17:33Z</time>
      </trkpt>
      <trkpt lat="43.62308" lon="3.83196">
        <ele>77.52</ele>
        <time>2015-07-18T11:17:34Z</time>
      </trkpt>
      <trkpt lat="43.62313" lon="3.83173">
        <ele>77.04</ele>
        <time>2015-07-18T11:17:35Z</time>
      </trkpt>
      <trkpt lat="43.62318" lon="3.8315">
        <ele>77.04</ele>
        <time>2015-07-18T11:17:36Z</time>
      </trkpt>
      <trkpt lat="43.62325" lon="3.83127">
        <ele>76.56</ele>
        <time>2015-07-18T11:17:37Z</time>
      </trkpt>
      <trkpt lat="43.62332" lon="3.83105">
        <ele>76.56</ele>
        <time>2015-07-18T11:17:38Z</time>
      </trkpt>
      <trkpt lat="43.62436" lon="3.82826">
        <ele>72.24</ele>
        <time>2015-07-18T11:17:51Z</time>
      </trkpt>
      <trkpt lat="43.62476" lon="3.82738">
        <ele>69.83</ele>
        <time>2015-07-18T11:17:56Z</time>
      </trkpt>
      <trkpt lat="43.62479" lon="3.82721">
        <ele>69.35</ele>
        <time>2015-07-18T11:17:57Z</time>
      </trkpt>
      <trkpt lat="43.62481" lon="3.82705">
        <ele>69.35</ele>
        <time>2015-07-18T11:17:58Z</time>
      </trkpt>
      <trkpt lat="43.62481" lon="3.82686">
        <ele>68.39</ele>
        <time>2015-07-18T11:18:03Z</time>
      </trkpt>
      <trkpt lat="43.6248" lon="3.82684">
        <ele>68.87</ele>
        <time>2015-07-18T11:18:07Z</time>
      </trkpt>
      <trkpt lat="43.62481" lon="3.82672">
        <ele>68.39</ele>
        <time>2015-07-18T11:18:09Z</time>
      </trkpt>
      <trkpt lat="43.62483" lon="3.82662">
        <ele>68.39</ele>
        <time>2015-07-18T11:18:10Z</time>
      </trkpt>
      <trkpt lat="43.62485" lon="3.8265">
        <ele>67.43</ele>
        <time>2015-07-18T11:18:11Z</time>
      </trkpt>
      <trkpt lat="43.62484" lon="3.82638">
        <ele>67.43</ele>
        <time>2015-07-18T11:18:12Z</time>
      </trkpt>
      <trkpt lat="43.62479" lon="3.82628">
        <ele>66.95</ele>
        <time>2015-07-18T11:18:13Z</time>
      </trkpt>
      <trkpt lat="43.62471" lon="3.8262">
        <ele>66.47</ele>
        <time>2015-07-18T11:18:14Z</time>
      </trkpt>
      <trkpt lat="43.62463" lon="3.8261">
        <ele>66.95</ele>
        <time>2015-07-18T11:18:15Z</time>
      </trkpt>
      <trkpt lat="43.62456" lon="3.82597">
        <ele>66.47</ele>
        <time>2015-07-18T11:18:16Z</time>
      </trkpt>
      <trkpt lat="43.62449" lon="3.8258">
        <ele>66.47</ele>
        <time>2015-07-18T11:18:17Z</time>
      </trkpt>
      <trkpt lat="43.62443" lon="3.82562">
        <ele>66.47</ele>
        <time>2015-07-18T11:18:18Z</time>
      </trkpt>
      <trkpt lat="43.62364" lon="3.82431">
        <ele>65.03</ele>
        <time>2015-07-18T11:18:25Z</time>
      </trkpt>
      <trkpt lat="43.62261" lon="3.82292">
        <ele>60.7</ele>
        <time>2015-07-18T11:18:33Z</time>
      </trkpt>
      <trkpt lat="43.62249" lon="3.82281">
        <ele>59.74</ele>
        <time>2015-07-18T11:18:34Z</time>
      </trkpt>
      <trkpt lat="43.62225" lon="3.82264">
        <ele>59.26</ele>
        <time>2015-07-18T11:18:36Z</time>
      </trkpt>
      <trkpt lat="43.62216" lon="3.82256">
        <ele>58.78</ele>
        <time>2015-07-18T11:18:37Z</time>
      </trkpt>
      <trkpt lat="43.62209" lon="3.8225">
        <ele>58.3</ele>
        <time>2015-07-18T11:18:38Z</time>
      </trkpt>
      <trkpt lat="43.62202" lon="3.82251">
        <ele>58.3</ele>
        <time>2015-07-18T11:18:39Z</time>
      </trkpt>
      <trkpt lat="43.62194" lon="3.82256">
        <ele>58.3</ele>
        <time>2015-07-18T11:18:40Z</time>
      </trkpt>
      <trkpt lat="43.62186" lon="3.82262">
        <ele>57.82</ele>
        <time>2015-07-18T11:18:41Z</time>
      </trkpt>
      <trkpt lat="43.62176" lon="3.82267">
        <ele>57.82</ele>
        <time>2015-07-18T11:18:42Z</time>
      </trkpt>
      <trkpt lat="43.62164" lon="3.82269">
        <ele>57.82</ele>
        <time>2015-07-18T11:18:43Z</time>
      </trkpt>
      <trkpt lat="43.62149" lon="3.82269">
        <ele>57.82</ele>
        <time>2015-07-18T11:18:44Z</time>
      </trkpt>
      <trkpt lat="43.62133" lon="3.82266">
        <ele>58.3</ele>
        <time>2015-07-18T11:18:45Z</time>
      </trkpt>
      <trkpt lat="43.62114" lon="3.82263">
        <ele>58.78</ele>
        <time>2015-07-18T11:18:46Z</time>
      </trkpt>
      <trkpt lat="43.62096" lon="3.82257">
        <ele>59.26</ele>
        <time>2015-07-18T11:18:47Z</time>
      </trkpt>
      <trkpt lat="43.61945" lon="3.82186">
        <ele>57.34</ele>
        <time>2015-07-18T11:18:55Z</time>
      </trkpt>
      <trkpt lat="43.61768" lon="3.82044">
        <ele>55.41</ele>
        <time>2015-07-18T11:19:05Z</time>
      </trkpt>
      <trkpt lat="43.61732" lon="3.82021">
        <ele>55.41</ele>
        <time>2015-07-18T11:19:07Z</time>
      </trkpt>
      <trkpt lat="43.61713" lon="3.82013">
        <ele>55.89</ele>
        <time>2015-07-18T11:19:08Z</time>
      </trkpt>
      <trkpt lat="43.61693" lon="3.82008">
        <ele>55.89</ele>
        <time>2015-07-18T11:19:09Z</time>
      </trkpt>
      <trkpt lat="43.61672" lon="3.8201">
        <ele>56.37</ele>
        <time>2015-07-18T11:19:10Z</time>
      </trkpt>
      <trkpt lat="43.61652" lon="3.82016">
        <ele>56.37</ele>
        <time>2015-07-18T11:19:11Z</time>
      </trkpt>
      <trkpt lat="43.61632" lon="3.82025">
        <ele>56.86</ele>
        <time>2015-07-18T11:19:12Z</time>
      </trkpt>
      <trkpt lat="43.61612" lon="3.82036">
        <ele>56.86</ele>
        <time>2015-07-18T11:19:13Z</time>
      </trkpt>
      <trkpt lat="43.61593" lon="3.82048">
        <ele>57.34</ele>
        <time>2015-07-18T11:19:14Z</time>
      </trkpt>
      <trkpt lat="43.61348" lon="3.8222">
        <ele>53.97</ele>
        <time>2015-07-18T11:19:27Z</time>
      </trkpt>
      <trkpt lat="43.61232" lon="3.8228">
        <ele>51.09</ele>
        <time>2015-07-18T11:19:34Z</time>
      </trkpt>
      <trkpt lat="43.61215" lon="3.82276">
        <ele>50.13</ele>
        <time>2015-07-18T11:19:35Z</time>
      </trkpt>
      <trkpt lat="43.61199" lon="3.82271">
        <ele>49.16</ele>
        <time>2015-07-18T11:19:36Z</time>
      </trkpt>
      <trkpt lat="43.6105" lon="3.8225">
        <ele>48.68</ele>
        <time>2015-07-18T11:19:44Z</time>
      </trkpt>
      <trkpt lat="43.60904" lon="3.82185">
        <ele>49.16</ele>
        <time>2015-07-18T11:19:51Z</time>
      </trkpt>
      <trkpt lat="43.60782" lon="3.82052">
        <ele>47.72</ele>
        <time>2015-07-18T11:19:57Z</time>
      </trkpt>
      <trkpt lat="43.60663" lon="3.81836">
        <ele>45.8</ele>
        <time>2015-07-18T11:20:04Z</time>
      </trkpt>
      <trkpt lat="43.60535" lon="3.81524">
        <ele>42.92</ele>
        <time>2015-07-18T11:20:13Z</time>
      </trkpt>
      <trkpt lat="43.60531" lon="3.81317">
        <ele>41.47</ele>
        <time>2015-07-18T11:20:18Z</time>
      </trkpt>
      <trkpt lat="43.6054" lon="3.81276">
        <ele>41.47</ele>
        <time>2015-07-18T11:20:19Z</time>
      </trkpt>
      <trkpt lat="43.60553" lon="3.81237">
        <ele>41.95</ele>
        <time>2015-07-18T11:20:20Z</time>
      </trkpt>
      <trkpt lat="43.60568" lon="3.812">
        <ele>41.95</ele>
        <time>2015-07-18T11:20:21Z</time>
      </trkpt>
      <trkpt lat="43.60585" lon="3.81163">
        <ele>42.92</ele>
        <time>2015-07-18T11:20:22Z</time>
      </trkpt>
      <trkpt lat="43.60604" lon="3.81128">
        <ele>42.92</ele>
        <time>2015-07-18T11:20:23Z</time>
      </trkpt>
      <trkpt lat="43.60745" lon="3.80854">
        <ele>46.76</ele>
        <time>2015-07-18T11:20:31Z</time>
      </trkpt>
      <trkpt lat="43.6086" lon="3.80569">
        <ele>48.2</ele>
        <time>2015-07-18T11:20:39Z</time>
      </trkpt>
      <trkpt lat="43.60995" lon="3.80406">
        <ele>52.53</ele>
        <time>2015-07-18T11:20:45Z</time>
      </trkpt>
      <trkpt lat="43.61196" lon="3.80129">
        <ele>64.07</ele>
        <time>2015-07-18T11:20:55Z</time>
      </trkpt>
      <trkpt lat="43.61336" lon="3.79993">
        <ele>71.76</ele>
        <time>2015-07-18T11:21:01Z</time>
      </trkpt>
      <trkpt lat="43.61598" lon="3.79808">
        <ele>73.2</ele>
        <time>2015-07-18T11:21:11Z</time>
      </trkpt>
      <trkpt lat="43.61711" lon="3.79623">
        <ele>71.27</ele>
        <time>2015-07-18T11:21:17Z</time>
      </trkpt>
      <trkpt lat="43.61915" lon="3.79243">
        <ele>78.97</ele>
        <time>2015-07-18T11:21:29Z</time>
      </trkpt>
      <trkpt lat="43.62039" lon="3.79131">
        <ele>81.85</ele>
        <time>2015-07-18T11:21:34Z</time>
      </trkpt>
      <trkpt lat="43.62275" lon="3.7895">
        <ele>85.21</ele>
        <time>2015-07-18T11:21:43Z</time>
      </trkpt>
      <trkpt lat="43.62456" lon="3.7872">
        <ele>95.31</ele>
        <time>2015-07-18T11:21:51Z</time>
      </trkpt>
      <trkpt lat="43.62695" lon="3.78398">
        <ele>105.88</ele>
        <time>2015-07-18T11:22:02Z</time>
      </trkpt>
      <trkpt lat="43.62875" lon="3.78113">
        <ele>111.17</ele>
        <time>2015-07-18T11:22:11Z</time>
      </trkpt>
      <trkpt lat="43.62889" lon="3.78077">
        <ele>111.17</ele>
        <time>2015-07-18T11:22:12Z</time>
      </trkpt>
      <trkpt lat="43.62901" lon="3.78039">
        <ele>111.65</ele>
        <time>2015-07-18T11:22:13Z</time>
      </trkpt>
      <trkpt lat="43.6291" lon="3.77999">
        <ele>111.65</ele>
        <time>2015-07-18T11:22:14Z</time>
      </trkpt>
      <trkpt lat="43.62918" lon="3.77958">
        <ele>111.65</ele>
        <time>2015-07-18T11:22:15Z</time>
      </trkpt>
      <trkpt lat="43.62924" lon="3.77918">
        <ele>111.65</ele>
        <time>2015-07-18T11:22:16Z</time>
      </trkpt>
      <trkpt lat="43.62927" lon="3.77876">
        <ele>112.13</ele>
        <time>2015-07-18T11:22:17Z</time>
      </trkpt>
      <trkpt lat="43.62928" lon="3.77835">
        <ele>111.65</ele>
        <time>2015-07-18T11:22:18Z</time>
      </trkpt>
      <trkpt lat="43.62927" lon="3.77793">
        <ele>111.65</ele>
        <time>2015-07-18T11:22:19Z</time>
      </trkpt>
      <trkpt lat="43.62924" lon="3.77752">
        <ele>111.17</ele>
        <time>2015-07-18T11:22:20Z</time>
      </trkpt>
      <trkpt lat="43.6292" lon="3.77711">
        <ele>111.17</ele>
        <time>2015-07-18T11:22:21Z</time>
      </trkpt>
      <trkpt lat="43.62906" lon="3.77451">
        <ele>110.21</ele>
        <time>2015-07-18T11:22:27Z</time>
      </trkpt>
      <trkpt lat="43.62949" lon="3.77197">
        <ele>113.57</ele>
        <time>2015-07-18T11:22:33Z</time>
      </trkpt>
      <trkpt lat="43.63077" lon="3.76634">
        <ele>124.15</ele>
        <time>2015-07-18T11:22:47Z</time>
      </trkpt>
      <trkpt lat="43.632" lon="3.76184">
        <ele>132.32</ele>
        <time>2015-07-18T11:22:59Z</time>
      </trkpt>
      <trkpt lat="43.63366" lon="3.75745">
        <ele>140.49</ele>
        <time>2015-07-18T11:23:11Z</time>
      </trkpt>
      <trkpt lat="43.63412" lon="3.75462">
        <ele>147.22</ele>
        <time>2015-07-18T11:23:18Z</time>
      </trkpt>
      <trkpt lat="43.63403" lon="3.75178">
        <ele>152.99</ele>
        <time>2015-07-18T11:23:25Z</time>
      </trkpt>
      <trkpt lat="43.63258" lon="3.74461">
        <ele>163.56</ele>
        <time>2015-07-18T11:23:43Z</time>
      </trkpt>
      <trkpt lat="43.63246" lon="3.74122">
        <ele>165.96</ele>
        <time>2015-07-18T11:23:51Z</time>
      </trkpt>
      <trkpt lat="43.63288" lon="3.73444">
        <ele>166.93</ele>
        <time>2015-07-18T11:24:07Z</time>
      </trkpt>
      <trkpt lat="43.633" lon="3.72878">
        <ele>164.04</ele>
        <time>2015-07-18T11:24:20Z</time>
      </trkpt>
      <trkpt lat="43.63254" lon="3.72487">
        <ele>161.16</ele>
        <time>2015-07-18T11:24:29Z</time>
      </trkpt>
      <trkpt lat="43.63175" lon="3.7215">
        <ele>158.27</ele>
        <time>2015-07-18T11:24:37Z</time>
      </trkpt>
      <trkpt lat="43.6306" lon="3.71703">
        <ele>155.87</ele>
        <time>2015-07-18T11:24:47Z</time>
      </trkpt>
      <trkpt lat="43.6286" lon="3.70899">
        <ele>151.06</ele>
        <time>2015-07-18T11:25:04Z</time>
      </trkpt>
      <trkpt lat="43.62807" lon="3.70532">
        <ele>149.62</ele>
        <time>2015-07-18T11:25:12Z</time>
      </trkpt>
      <trkpt lat="43.62801" lon="3.70207">
        <ele>147.22</ele>
        <time>2015-07-18T11:25:19Z</time>
      </trkpt>
      <trkpt lat="43.62838" lon="3.6982">
        <ele>144.82</ele>
        <time>2015-07-18T11:25:27Z</time>
      </trkpt>
      <trkpt lat="43.62936" lon="3.69345">
        <ele>142.41</ele>
        <time>2015-07-18T11:25:37Z</time>
      </trkpt>
      <trkpt lat="43.63055" lon="3.68803">
        <ele>150.1</ele>
        <time>2015-07-18T11:25:48Z</time>
      </trkpt>
      <trkpt lat="43.63116" lon="3.68432">
        <ele>165.48</ele>
        <time>2015-07-18T11:25:55Z</time>
      </trkpt>
      <trkpt lat="43.63103" lon="3.68163">
        <ele>176.06</ele>
        <time>2015-07-18T11:26:00Z</time>
      </trkpt>
      <trkpt lat="43.63033" lon="3.67851">
        <ele>186.15</ele>
        <time>2015-07-18T11:26:06Z</time>
      </trkpt>
      <trkpt lat="43.62912" lon="3.67553">
        <ele>191.44</ele>
        <time>2015-07-18T11:26:12Z</time>
      </trkpt>
      <trkpt lat="43.62822" lon="3.67212">
        <ele>190.48</ele>
        <time>2015-07-18T11:26:18Z</time>
      </trkpt>
      <trkpt lat="43.62704" lon="3.66655">
        <ele>175.1</ele>
        <time>2015-07-18T11:26:27Z</time>
      </trkpt>
      <trkpt lat="43.62666" lon="3.66311">
        <ele>162.6</ele>
        <time>2015-07-18T11:26:33Z</time>
      </trkpt>
      <trkpt lat="43.62672" lon="3.65959">
        <ele>156.83</ele>
        <time>2015-07-18T11:26:39Z</time>
      </trkpt>
      <trkpt lat="43.62637" lon="3.65668">
        <ele>157.31</ele>
        <time>2015-07-18T11:26:44Z</time>
      </trkpt>
      <trkpt lat="43.62557" lon="3.65273">
        <ele>168.37</ele>
        <time>2015-07-18T11:26:51Z</time>
      </trkpt>
      <trkpt lat="43.62562" lon="3.64971">
        <ele>178.94</ele>
        <time>2015-07-18T11:26:56Z</time>
      </trkpt>
      <trkpt lat="43.62554" lon="3.64607">
        <ele>190.48</ele>
        <time>2015-07-18T11:27:02Z</time>
      </trkpt>
      <trkpt lat="43.62514" lon="3.64283">
        <ele>200.09</ele>
        <time>2015-07-18T11:27:08Z</time>
      </trkpt>
      <trkpt lat="43.62456" lon="3.63832">
        <ele>205.38</ele>
        <time>2015-07-18T11:27:18Z</time>
      </trkpt>
      <trkpt lat="43.62406" lon="3.63444">
        <ele>210.19</ele>
        <time>2015-07-18T11:27:26Z</time>
      </trkpt>
      <trkpt lat="43.62343" lon="3.62861">
        <ele>218.84</ele>
        <time>2015-07-18T11:27:37Z</time>
      </trkpt>
      <trkpt lat="43.62355" lon="3.625">
        <ele>223.64</ele>
        <time>2015-07-18T11:27:44Z</time>
      </trkpt>
      <trkpt lat="43.62412" lon="3.62164">
        <ele>227.97</ele>
        <time>2015-07-18T11:27:51Z</time>
      </trkpt>
      <trkpt lat="43.62511" lon="3.61773">
        <ele>231.81</ele>
        <time>2015-07-18T11:28:00Z</time>
      </trkpt>
      <trkpt lat="43.62545" lon="3.61548">
        <ele>230.37</ele>
        <time>2015-07-18T11:28:06Z</time>
      </trkpt>
      <trkpt lat="43.62566" lon="3.61274">
        <ele>225.57</ele>
        <time>2015-07-18T11:28:12Z</time>
      </trkpt>
      <trkpt lat="43.6261" lon="3.60958">
        <ele>215.47</ele>
        <time>2015-07-18T11:28:18Z</time>
      </trkpt>
      <trkpt lat="43.62679" lon="3.60592">
        <ele>202.98</ele>
        <time>2015-07-18T11:28:25Z</time>
      </trkpt>
      <trkpt lat="43.62686" lon="3.60291">
        <ele>193.36</ele>
        <time>2015-07-18T11:28:31Z</time>
      </trkpt>
      <trkpt lat="43.62699" lon="3.59895">
        <ele>181.83</ele>
        <time>2015-07-18T11:28:39Z</time>
      </trkpt>
      <trkpt lat="43.62771" lon="3.59563">
        <ele>172.69</ele>
        <time>2015-07-18T11:28:46Z</time>
      </trkpt>
      <trkpt lat="43.6288" lon="3.593">
        <ele>162.12</ele>
        <time>2015-07-18T11:28:52Z</time>
      </trkpt>
      <trkpt lat="43.6306" lon="3.59026">
        <ele>146.26</ele>
        <time>2015-07-18T11:28:59Z</time>
      </trkpt>
      <trkpt lat="43.63345" lon="3.58645">
        <ele>129.43</ele>
        <time>2015-07-18T11:29:09Z</time>
      </trkpt>
      <trkpt lat="43.63644" lon="3.5824">
        <ele>119.34</ele>
        <time>2015-07-18T11:29:18Z</time>
      </trkpt>
      <trkpt lat="43.63865" lon="3.57924">
        <ele>118.86</ele>
        <time>2015-07-18T11:29:25Z</time>
      </trkpt>
      <trkpt lat="43.63978" lon="3.57663">
        <ele>120.78</ele>
        <time>2015-07-18T11:29:30Z</time>
      </trkpt>
      <trkpt lat="43.64096" lon="3.57244">
        <ele>119.82</ele>
        <time>2015-07-18T11:29:37Z</time>
      </trkpt>
      <trkpt lat="43.64272" lon="3.56712">
        <ele>111.17</ele>
        <time>2015-07-18T11:29:46Z</time>
      </trkpt>
      <trkpt lat="43.64416" lon="3.56326">
        <ele>105.88</ele>
        <time>2015-07-18T11:29:53Z</time>
      </trkpt>
      <trkpt lat="43.64466" lon="3.56021">
        <ele>98.19</ele>
        <time>2015-07-18T11:29:58Z</time>
      </trkpt>
      <trkpt lat="43.64507" lon="3.5547">
        <ele>82.33</ele>
        <time>2015-07-18T11:30:07Z</time>
      </trkpt>
      <trkpt lat="43.64535" lon="3.55187">
        <ele>78</ele>
        <time>2015-07-18T11:30:13Z</time>
      </trkpt>
      <trkpt lat="43.64607" lon="3.54929">
        <ele>73.68</ele>
        <time>2015-07-18T11:30:19Z</time>
      </trkpt>
      <trkpt lat="43.64712" lon="3.54702">
        <ele>65.99</ele>
        <time>2015-07-18T11:30:25Z</time>
      </trkpt>
      <trkpt lat="43.64858" lon="3.54511">
        <ele>56.86</ele>
        <time>2015-07-18T11:30:31Z</time>
      </trkpt>
      <trkpt lat="43.65008" lon="3.5429">
        <ele>53.49</ele>
        <time>2015-07-18T11:30:37Z</time>
      </trkpt>
      <trkpt lat="43.65123" lon="3.54005">
        <ele>51.57</ele>
        <time>2015-07-18T11:30:43Z</time>
      </trkpt>
      <trkpt lat="43.65174" lon="3.53733">
        <ele>51.57</ele>
        <time>2015-07-18T11:30:48Z</time>
      </trkpt>
      <trkpt lat="43.65226" lon="3.53237">
        <ele>52.53</ele>
        <time>2015-07-18T11:30:56Z</time>
      </trkpt>
      <trkpt lat="43.65306" lon="3.52793">
        <ele>59.26</ele>
        <time>2015-07-18T11:31:03Z</time>
      </trkpt>
      <trkpt lat="43.6543" lon="3.52428">
        <ele>64.55</ele>
        <time>2015-07-18T11:31:09Z</time>
      </trkpt>
      <trkpt lat="43.65647" lon="3.51971">
        <ele>74.16</ele>
        <time>2015-07-18T11:31:17Z</time>
      </trkpt>
      <trkpt lat="43.6587" lon="3.51439">
        <ele>79.93</ele>
        <time>2015-07-18T11:31:26Z</time>
      </trkpt>
      <trkpt lat="43.6596" lon="3.51052">
        <ele>81.37</ele>
        <time>2015-07-18T11:31:32Z</time>
      </trkpt>
      <trkpt lat="43.65996" lon="3.50638">
        <ele>83.29</ele>
        <time>2015-07-18T11:31:38Z</time>
      </trkpt>
      <trkpt lat="43.65978" lon="3.50235">
        <ele>83.77</ele>
        <time>2015-07-18T11:31:44Z</time>
      </trkpt>
      <trkpt lat="43.65906" lon="3.49795">
        <ele>84.73</ele>
        <time>2015-07-18T11:31:51Z</time>
      </trkpt>
      <trkpt lat="43.65865" lon="3.49441">
        <ele>86.18</ele>
        <time>2015-07-18T11:31:57Z</time>
      </trkpt>
      <trkpt lat="43.6587" lon="3.49059">
        <ele>87.62</ele>
        <time>2015-07-18T11:32:04Z</time>
      </trkpt>
      <trkpt lat="43.65914" lon="3.48565">
        <ele>89.06</ele>
        <time>2015-07-18T11:32:14Z</time>
      </trkpt>
      <trkpt lat="43.65926" lon="3.48012">
        <ele>90.02</ele>
        <time>2015-07-18T11:32:25Z</time>
      </trkpt>
      <trkpt lat="43.65893" lon="3.47556">
        <ele>89.06</ele>
        <time>2015-07-18T11:32:34Z</time>
      </trkpt>
      <trkpt lat="43.6582" lon="3.47023">
        <ele>85.21</ele>
        <time>2015-07-18T11:32:45Z</time>
      </trkpt>
      <trkpt lat="43.65737" lon="3.46467">
        <ele>84.25</ele>
        <time>2015-07-18T11:32:58Z</time>
      </trkpt>
      <trkpt lat="43.65627" lon="3.45822">
        <ele>85.21</ele>
        <time>2015-07-18T11:33:14Z</time>
      </trkpt>
      <trkpt lat="43.65575" lon="3.45475">
        <ele>85.21</ele>
        <time>2015-07-18T11:33:23Z</time>
      </trkpt>
      <trkpt lat="43.6557" lon="3.4527">
        <ele>83.77</ele>
        <time>2015-07-18T11:33:29Z</time>
      </trkpt>
      <trkpt lat="43.6557" lon="3.45134">
        <ele>83.29</ele>
        <time>2015-07-18T11:33:33Z</time>
      </trkpt>
      <trkpt lat="43.65564" lon="3.45096">
        <ele>82.81</ele>
        <time>2015-07-18T11:33:34Z</time>
      </trkpt>
      <trkpt lat="43.65554" lon="3.45058">
        <ele>82.33</ele>
        <time>2015-07-18T11:33:35Z</time>
      </trkpt>
      <trkpt lat="43.65542" lon="3.45019">
        <ele>81.85</ele>
        <time>2015-07-18T11:33:36Z</time>
      </trkpt>
      <trkpt lat="43.65528" lon="3.44982">
        <ele>81.37</ele>
        <time>2015-07-18T11:33:37Z</time>
      </trkpt>
      <trkpt lat="43.65512" lon="3.44947">
        <ele>80.89</ele>
        <time>2015-07-18T11:33:38Z</time>
      </trkpt>
      <trkpt lat="43.65493" lon="3.44913">
        <ele>80.41</ele>
        <time>2015-07-18T11:33:39Z</time>
      </trkpt>
      <trkpt lat="43.65471" lon="3.4488">
        <ele>79.45</ele>
        <time>2015-07-18T11:33:40Z</time>
      </trkpt>
      <trkpt lat="43.65446" lon="3.44854">
        <ele>78.48</ele>
        <time>2015-07-18T11:33:41Z</time>
      </trkpt>
      <trkpt lat="43.65414" lon="3.44833">
        <ele>78</ele>
        <time>2015-07-18T11:33:42Z</time>
      </trkpt>
      <trkpt lat="43.65381" lon="3.44816">
        <ele>77.52</ele>
        <time>2015-07-18T11:33:43Z</time>
      </trkpt>
      <trkpt lat="43.65352" lon="3.44797">
        <ele>77.04</ele>
        <time>2015-07-18T11:33:44Z</time>
      </trkpt>
      <trkpt lat="43.65284" lon="3.4478">
        <ele>75.6</ele>
        <time>2015-07-18T11:33:46Z</time>
      </trkpt>
      <trkpt lat="43.65246" lon="3.44785">
        <ele>74.64</ele>
        <time>2015-07-18T11:33:47Z</time>
      </trkpt>
      <trkpt lat="43.6521" lon="3.44792">
        <ele>74.64</ele>
        <time>2015-07-18T11:33:48Z</time>
      </trkpt>
      <trkpt lat="43.65174" lon="3.44804">
        <ele>76.08</ele>
        <time>2015-07-18T11:33:49Z</time>
      </trkpt>
      <trkpt lat="43.65139" lon="3.4482">
        <ele>77.04</ele>
        <time>2015-07-18T11:33:50Z</time>
      </trkpt>
      <trkpt lat="43.65105" lon="3.44839">
        <ele>78.48</ele>
        <time>2015-07-18T11:33:51Z</time>
      </trkpt>
      <trkpt lat="43.65071" lon="3.44859">
        <ele>78.97</ele>
        <time>2015-07-18T11:33:52Z</time>
      </trkpt>
      <trkpt lat="43.65038" lon="3.44882">
        <ele>79.45</ele>
        <time>2015-07-18T11:33:53Z</time>
      </trkpt>
      <trkpt lat="43.64908" lon="3.44954">
        <ele>78.97</ele>
        <time>2015-07-18T11:33:57Z</time>
      </trkpt>
      <trkpt lat="43.64873" lon="3.4496">
        <ele>78.48</ele>
        <time>2015-07-18T11:33:58Z</time>
      </trkpt>
      <trkpt lat="43.64835" lon="3.44964">
        <ele>77.52</ele>
        <time>2015-07-18T11:33:59Z</time>
      </trkpt>
      <trkpt lat="43.64796" lon="3.44964">
        <ele>76.56</ele>
        <time>2015-07-18T11:34:00Z</time>
      </trkpt>
      <trkpt lat="43.64755" lon="3.44959">
        <ele>74.64</ele>
        <time>2015-07-18T11:34:01Z</time>
      </trkpt>
      <trkpt lat="43.64715" lon="3.44952">
        <ele>73.2</ele>
        <time>2015-07-18T11:34:02Z</time>
      </trkpt>
      <trkpt lat="43.64675" lon="3.44942">
        <ele>71.27</ele>
        <time>2015-07-18T11:34:03Z</time>
      </trkpt>
      <trkpt lat="43.64499" lon="3.44852">
        <ele>67.43</ele>
        <time>2015-07-18T11:34:08Z</time>
      </trkpt>
      <trkpt lat="43.64369" lon="3.44744">
        <ele>68.87</ele>
        <time>2015-07-18T11:34:13Z</time>
      </trkpt>
      <trkpt lat="43.64202" lon="3.4465">
        <ele>72.24</ele>
        <time>2015-07-18T11:34:19Z</time>
      </trkpt>
      <trkpt lat="43.64026" lon="3.44615">
        <ele>76.08</ele>
        <time>2015-07-18T11:34:25Z</time>
      </trkpt>
      <trkpt lat="43.63848" lon="3.44638">
        <ele>79.93</ele>
        <time>2015-07-18T11:34:31Z</time>
      </trkpt>
      <trkpt lat="43.63439" lon="3.44742">
        <ele>85.21</ele>
        <time>2015-07-18T11:34:44Z</time>
      </trkpt>
      <trkpt lat="43.62995" lon="3.44876">
        <ele>82.81</ele>
        <time>2015-07-18T11:34:58Z</time>
      </trkpt>
      <trkpt lat="43.62689" lon="3.45046">
        <ele>80.41</ele>
        <time>2015-07-18T11:35:08Z</time>
      </trkpt>
      <trkpt lat="43.62437" lon="3.45246">
        <ele>78</ele>
        <time>2015-07-18T11:35:17Z</time>
      </trkpt>
      <trkpt lat="43.62169" lon="3.4552">
        <ele>74.64</ele>
        <time>2015-07-18T11:35:27Z</time>
      </trkpt>
      <trkpt lat="43.61902" lon="3.45775">
        <ele>72.24</ele>
        <time>2015-07-18T11:35:36Z</time>
      </trkpt>
      <trkpt lat="43.61663" lon="3.45934">
        <ele>71.27</ele>
        <time>2015-07-18T11:35:44Z</time>
      </trkpt>
      <trkpt lat="43.61515" lon="3.4599">
        <ele>70.31</ele>
        <time>2015-07-18T11:35:50Z</time>
      </trkpt>
      <trkpt lat="43.61498" lon="3.45986">
        <ele>70.31</ele>
        <time>2015-07-18T11:35:51Z</time>
      </trkpt>
      <trkpt lat="43.61481" lon="3.45978">
        <ele>70.31</ele>
        <time>2015-07-18T11:35:52Z</time>
      </trkpt>
      <trkpt lat="43.61464" lon="3.45965">
        <ele>70.31</ele>
        <time>2015-07-18T11:35:53Z</time>
      </trkpt>
      <trkpt lat="43.61451" lon="3.45946">
        <ele>70.31</ele>
        <time>2015-07-18T11:35:54Z</time>
      </trkpt>
      <trkpt lat="43.61443" lon="3.45922">
        <ele>70.79</ele>
        <time>2015-07-18T11:35:55Z</time>
      </trkpt>
      <trkpt lat="43.61438" lon="3.45897">
        <ele>70.31</ele>
        <time>2015-07-18T11:35:56Z</time>
      </trkpt>
      <trkpt lat="43.61437" lon="3.45874">
        <ele>69.35</ele>
        <time>2015-07-18T11:35:57Z</time>
      </trkpt>
      <trkpt lat="43.61442" lon="3.45855">
        <ele>68.87</ele>
        <time>2015-07-18T11:35:58Z</time>
      </trkpt>
      <trkpt lat="43.6145" lon="3.45837">
        <ele>69.35</ele>
        <time>2015-07-18T11:35:59Z</time>
      </trkpt>
      <trkpt lat="43.61455" lon="3.45819">
        <ele>69.35</ele>
        <time>2015-07-18T11:36:00Z</time>
      </trkpt>
      <trkpt lat="43.6146" lon="3.45802">
        <ele>69.35</ele>
        <time>2015-07-18T11:36:01Z</time>
      </trkpt>
      <trkpt lat="43.61498" lon="3.45654">
        <ele>70.31</ele>
        <time>2015-07-18T11:36:11Z</time>
      </trkpt>
      <trkpt lat="43.6151" lon="3.45627">
        <ele>71.27</ele>
        <time>2015-07-18T11:36:15Z</time>
      </trkpt>
      <trkpt lat="43.61516" lon="3.45621">
        <ele>71.27</ele>
        <time>2015-07-18T11:36:16Z</time>
      </trkpt>
      <trkpt lat="43.61523" lon="3.45614">
        <ele>71.27</ele>
        <time>2015-07-18T11:36:17Z</time>
      </trkpt>
      <trkpt lat="43.61528" lon="3.45605">
        <ele>71.27</ele>
        <time>2015-07-18T11:36:18Z</time>
      </trkpt>
      <trkpt lat="43.61532" lon="3.45595">
        <ele>71.27</ele>
        <time>2015-07-18T11:36:19Z</time>
      </trkpt>
      <trkpt lat="43.61534" lon="3.45584">
        <ele>71.27</ele>
        <time>2015-07-18T11:36:20Z</time>
      </trkpt>
      <trkpt lat="43.61533" lon="3.45573">
        <ele>71.27</ele>
        <time>2015-07-18T11:36:21Z</time>
      </trkpt>
      <trkpt lat="43.61531" lon="3.4556">
        <ele>70.79</ele>
        <time>2015-07-18T11:36:22Z</time>
      </trkpt>
      <trkpt lat="43.6153" lon="3.45545">
        <ele>70.79</ele>
        <time>2015-07-18T11:36:23Z</time>
      </trkpt>
      <trkpt lat="43.61531" lon="3.45526">
        <ele>70.79</ele>
        <time>2015-07-18T11:36:24Z</time>
      </trkpt>
      <trkpt lat="43.61539" lon="3.45508">
        <ele>70.79</ele>
        <time>2015-07-18T11:36:25Z</time>
      </trkpt>
      <trkpt lat="43.61548" lon="3.45492">
        <ele>70.31</ele>
        <time>2015-07-18T11:36:26Z</time>
      </trkpt>
      <trkpt lat="43.6156" lon="3.45481">
        <ele>71.27</ele>
        <time>2015-07-18T11:36:27Z</time>
      </trkpt>
      <trkpt lat="43.61572" lon="3.45472">
        <ele>71.27</ele>
        <time>2015-07-18T11:36:28Z</time>
      </trkpt>
      <trkpt lat="43.61584" lon="3.45466">
        <ele>71.76</ele>
        <time>2015-07-18T11:36:29Z</time>
      </trkpt>
      <trkpt lat="43.61659" lon="3.45382">
        <ele>72.72</ele>
        <time>2015-07-18T11:36:36Z</time>
      </trkpt>
      <trkpt lat="43.61668" lon="3.45365">
        <ele>72.72</ele>
        <time>2015-07-18T11:36:37Z</time>
      </trkpt>
      <trkpt lat="43.61675" lon="3.45345">
        <ele>73.2</ele>
        <time>2015-07-18T11:36:38Z</time>
      </trkpt>
      <trkpt lat="43.61682" lon="3.45326">
        <ele>73.2</ele>
        <time>2015-07-18T11:36:39Z</time>
      </trkpt>
      <trkpt lat="43.61688" lon="3.45305">
        <ele>73.68</ele>
        <time>2015-07-18T11:36:40Z</time>
      </trkpt>
      <trkpt lat="43.61693" lon="3.45285">
        <ele>74.16</ele>
        <time>2015-07-18T11:36:41Z</time>
      </trkpt>
      <trkpt lat="43.61715" lon="3.45184">
        <ele>76.08</ele>
        <time>2015-07-18T11:36:48Z</time>
      </trkpt>
      <trkpt lat="43.61725" lon="3.45142">
        <ele>77.04</ele>
        <time>2015-07-18T11:36:53Z</time>
      </trkpt>
      <trkpt lat="43.61727" lon="3.45136">
        <ele>77.04</ele>
        <time>2015-07-18T11:36:54Z</time>
      </trkpt>
      <trkpt lat="43.6173" lon="3.45127">
        <ele>77.04</ele>
        <time>2015-07-18T11:36:55Z</time>
      </trkpt>
      <trkpt lat="43.61732" lon="3.45115">
        <ele>77.04</ele>
        <time>2015-07-18T11:36:56Z</time>
      </trkpt>
      <trkpt lat="43.61735" lon="3.45099">
        <ele>77.52</ele>
        <time>2015-07-18T11:36:57Z</time>
      </trkpt>
      <trkpt lat="43.61767" lon="3.44965">
        <ele>80.41</ele>
        <time>2015-07-18T11:37:03Z</time>
      </trkpt>
      <trkpt lat="43.6184" lon="3.44663">
        <ele>84.25</ele>
        <time>2015-07-18T11:37:15Z</time>
      </trkpt>
      <trkpt lat="43.61921" lon="3.44364">
        <ele>88.58</ele>
        <time>2015-07-18T11:37:27Z</time>
      </trkpt>
      <trkpt lat="43.61954" lon="3.44214">
        <ele>93.87</ele>
        <time>2015-07-18T11:37:35Z</time>
      </trkpt>
      <trkpt lat="43.61952" lon="3.44144">
        <ele>97.23</ele>
        <time>2015-07-18T11:37:42Z</time>
      </trkpt>
      <trkpt lat="43.61933" lon="3.44021">
        <ele>101.08</ele>
        <time>2015-07-18T11:37:52Z</time>
      </trkpt>
      <trkpt lat="43.61908" lon="3.43883">
        <ele>105.88</ele>
        <time>2015-07-18T11:38:04Z</time>
      </trkpt>
      <trkpt lat="43.61903" lon="3.43831">
        <ele>107.81</ele>
        <time>2015-07-18T11:38:08Z</time>
      </trkpt>
      <trkpt lat="43.61904" lon="3.43816">
        <ele>108.29</ele>
        <time>2015-07-18T11:38:09Z</time>
      </trkpt>
      <trkpt lat="43.61906" lon="3.43802">
        <ele>108.77</ele>
        <time>2015-07-18T11:38:10Z</time>
      </trkpt>
      <trkpt lat="43.61909" lon="3.43788">
        <ele>109.73</ele>
        <time>2015-07-18T11:38:11Z</time>
      </trkpt>
      <trkpt lat="43.61912" lon="3.43775">
        <ele>109.73</ele>
        <time>2015-07-18T11:38:12Z</time>
      </trkpt>
      <trkpt lat="43.61915" lon="3.43764">
        <ele>110.21</ele>
        <time>2015-07-18T11:38:13Z</time>
      </trkpt>
      <trkpt lat="43.61923" lon="3.43748">
        <ele>111.17</ele>
        <time>2015-07-18T11:38:18Z</time>
      </trkpt>
      <trkpt lat="43.61935" lon="3.43732">
        <ele>111.17</ele>
        <time>2015-07-18T11:38:21Z</time>
      </trkpt>
      <trkpt lat="43.61938" lon="3.43724">
        <ele>111.17</ele>
        <time>2015-07-18T11:38:22Z</time>
      </trkpt>
      <trkpt lat="43.6194" lon="3.43714">
        <ele>111.17</ele>
        <time>2015-07-18T11:38:23Z</time>
      </trkpt>
      <trkpt lat="43.61939" lon="3.43704">
        <ele>111.17</ele>
        <time>2015-07-18T11:38:24Z</time>
      </trkpt>
      <trkpt lat="43.6194" lon="3.43692">
        <ele>111.65</ele>
        <time>2015-07-18T11:38:25Z</time>
      </trkpt>
      <trkpt lat="43.61941" lon="3.43682">
        <ele>111.65</ele>
        <time>2015-07-18T11:38:26Z</time>
      </trkpt>
      <trkpt lat="43.61945" lon="3.43672">
        <ele>111.65</ele>
        <time>2015-07-18T11:38:27Z</time>
      </trkpt>
      <trkpt lat="43.6195" lon="3.43665">
        <ele>112.13</ele>
        <time>2015-07-18T11:38:28Z</time>
      </trkpt>
      <trkpt lat="43.61958" lon="3.43661">
        <ele>112.13</ele>
        <time>2015-07-18T11:38:29Z</time>
      </trkpt>
      <trkpt lat="43.61967" lon="3.4366">
        <ele>112.13</ele>
        <time>2015-07-18T11:38:30Z</time>
      </trkpt>
      <trkpt lat="43.61975" lon="3.43661">
        <ele>112.61</ele>
        <time>2015-07-18T11:38:31Z</time>
      </trkpt>
      <trkpt lat="43.62073" lon="3.43659">
        <ele>114.53</ele>
        <time>2015-07-18T11:38:40Z</time>
      </trkpt>
      <trkpt lat="43.6214" lon="3.43668">
        <ele>116.46</ele>
        <time>2015-07-18T11:38:47Z</time>
      </trkpt>
      <trkpt lat="43.62148" lon="3.43677">
        <ele>115.5</ele>
        <time>2015-07-18T11:38:49Z</time>
      </trkpt>
      <trkpt lat="43.62153" lon="3.43678">
        <ele>115.01</ele>
        <time>2015-07-18T11:38:50Z</time>
      </trkpt>
      <trkpt lat="43.62158" lon="3.43677">
        <ele>114.53</ele>
        <time>2015-07-18T11:38:51Z</time>
      </trkpt>
      <trkpt lat="43.62169" lon="3.43674">
        <ele>113.09</ele>
        <time>2015-07-18T11:38:53Z</time>
      </trkpt>
      <trkpt lat="43.62175" lon="3.43675">
        <ele>112.61</ele>
        <time>2015-07-18T11:38:54Z</time>
      </trkpt>
      <trkpt lat="43.6218" lon="3.43677">
        <ele>112.13</ele>
        <time>2015-07-18T11:38:55Z</time>
      </trkpt>
      <trkpt lat="43.62184" lon="3.43682">
        <ele>111.17</ele>
        <time>2015-07-18T11:38:56Z</time>
      </trkpt>
      <trkpt lat="43.62186" lon="3.43689">
        <ele>110.21</ele>
        <time>2015-07-18T11:38:57Z</time>
      </trkpt>
      <trkpt lat="43.62189" lon="3.43694">
        <ele>109.25</ele>
        <time>2015-07-18T11:38:58Z</time>
      </trkpt>
      <trkpt lat="43.62192" lon="3.43697">
        <ele>108.77</ele>
        <time>2015-07-18T11:38:59Z</time>
      </trkpt>
      <trkpt lat="43.62194" lon="3.43699">
        <ele>108.29</ele>
        <time>2015-07-18T11:39:00Z</time>
      </trkpt>
      <trkpt lat="43.62197" lon="3.437">
        <ele>107.81</ele>
        <time>2015-07-18T11:39:01Z</time>
      </trkpt>
      <trkpt lat="43.62199" lon="3.43701">
        <ele>107.81</ele>
        <time>2015-07-18T11:39:02Z</time>
      </trkpt>
      <trkpt lat="43.62201" lon="3.43703">
        <ele>107.32</ele>
        <time>2015-07-18T11:39:03Z</time>
      </trkpt>
      <trkpt lat="43.62213" lon="3.43709">
        <ele>106.36</ele>
        <time>2015-07-18T11:39:07Z</time>
      </trkpt>
      <trkpt lat="43.62218" lon="3.4371">
        <ele>106.36</ele>
        <time>2015-07-18T11:39:08Z</time>
      </trkpt>
      <trkpt lat="43.62223" lon="3.4371">
        <ele>105.88</ele>
        <time>2015-07-18T11:39:09Z</time>
      </trkpt>
      <trkpt lat="43.62226" lon="3.4371">
        <ele>105.88</ele>
        <time>2015-07-18T11:39:10Z</time>
      </trkpt>
      <trkpt lat="43.62229" lon="3.43708">
        <ele>105.88</ele>
        <time>2015-07-18T11:39:11Z</time>
      </trkpt>
      <trkpt lat="43.62252" lon="3.43725">
        <ele>104.92</ele>
        <time>2015-07-18T11:39:21Z</time>
      </trkpt>
      <trkpt lat="43.62257" lon="3.43734">
        <ele>104.44</ele>
        <time>2015-07-18T11:39:31Z</time>
      </trkpt>
      <trkpt lat="43.62267" lon="3.43752">
        <ele>103.96</ele>
        <time>2015-07-18T11:39:40Z</time>
      </trkpt>
      <trkpt lat="43.62267" lon="3.43761">
        <ele>104.44</ele>
        <time>2015-07-18T11:39:44Z</time>
      </trkpt>
      <trkpt lat="43.62266" lon="3.43763">
        <ele>104.92</ele>
        <time>2015-07-18T11:39:45Z</time>
      </trkpt>
      <trkpt lat="43.62265" lon="3.43764">
        <ele>104.92</ele>
        <time>2015-07-18T11:39:46Z</time>
      </trkpt>
      <trkpt lat="43.62264" lon="3.43765">
        <ele>104.92</ele>
        <time>2015-07-18T11:39:47Z</time>
      </trkpt>
      <trkpt lat="43.62262" lon="3.43767">
        <ele>104.92</ele>
        <time>2015-07-18T11:39:48Z</time>
      </trkpt>
      <trkpt lat="43.62244" lon="3.43796">
        <ele>103.96</ele>
        <time>2015-07-18T11:39:59Z</time>
      </trkpt>
      <trkpt lat="43.62244" lon="3.43799">
        <ele>103.48</ele>
        <time>2015-07-18T11:40:00Z</time>
      </trkpt>
      <trkpt lat="43.62246" lon="3.43803">
        <ele>103.48</ele>
        <time>2015-07-18T11:40:01Z</time>
      </trkpt>
      <trkpt lat="43.62248" lon="3.43806">
        <ele>103.48</ele>
        <time>2015-07-18T11:40:02Z</time>
      </trkpt>
      <trkpt lat="43.6225" lon="3.43808">
        <ele>103.48</ele>
        <time>2015-07-18T11:40:03Z</time>
      </trkpt>
      <trkpt lat="43.62253" lon="3.43809">
        <ele>103.48</ele>
        <time>2015-07-18T11:40:04Z</time>
      </trkpt>
      <trkpt lat="43.62257" lon="3.43808">
        <ele>103.48</ele>
        <time>2015-07-18T11:40:05Z</time>
      </trkpt>
      <trkpt lat="43.62261" lon="3.43806">
        <ele>103</ele>
        <time>2015-07-18T11:40:06Z</time>
      </trkpt>
      <trkpt lat="43.62265" lon="3.43802">
        <ele>103</ele>
        <time>2015-07-18T11:40:07Z</time>
      </trkpt>
      <trkpt lat="43.62267" lon="3.43798">
        <ele>103</ele>
        <time>2015-07-18T11:40:08Z</time>
      </trkpt>
      <trkpt lat="43.62269" lon="3.43792">
        <ele>103.48</ele>
        <time>2015-07-18T11:40:09Z</time>
      </trkpt>
      <trkpt lat="43.62269" lon="3.43787">
        <ele>103.48</ele>
        <time>2015-07-18T11:40:10Z</time>
      </trkpt>
      <trkpt lat="43.62256" lon="3.43781">
        <ele>103.96</ele>
        <time>2015-07-18T11:40:14Z</time>
      </trkpt>
      <trkpt lat="43.62252" lon="3.43784">
        <ele>103.48</ele>
        <time>2015-07-18T11:40:15Z</time>
      </trkpt>
      <trkpt lat="43.62248" lon="3.43789">
        <ele>103.48</ele>
        <time>2015-07-18T11:40:16Z</time>
      </trkpt>
      <trkpt lat="43.62243" lon="3.43794">
        <ele>103.48</ele>
        <time>2015-07-18T11:40:17Z</time>
      </trkpt>
      <trkpt lat="43.62239" lon="3.438">
        <ele>103</ele>
        <time>2015-07-18T11:40:18Z</time>
      </trkpt>
      <trkpt lat="43.62236" lon="3.43805">
        <ele>103</ele>
        <time>2015-07-18T11:40:19Z</time>
      </trkpt>
      <trkpt lat="43.62225" lon="3.43817">
        <ele>103</ele>
        <time>2015-07-18T11:40:22Z</time>
      </trkpt>
      <trkpt lat="43.62189" lon="3.43855">
        <ele>103</ele>
        <time>2015-07-18T11:40:33Z</time>
      </trkpt>
      <trkpt lat="43.62186" lon="3.43855">
        <ele>102.52</ele>
        <time>2015-07-18T11:40:34Z</time>
      </trkpt>
      <trkpt lat="43.62184" lon="3.43853">
        <ele>102.52</ele>
        <time>2015-07-18T11:40:35Z</time>
      </trkpt>
      <trkpt lat="43.62183" lon="3.4385">
        <ele>102.52</ele>
        <time>2015-07-18T11:40:36Z</time>
      </trkpt>
      <trkpt lat="43.62183" lon="3.43846">
        <ele>103</ele>
        <time>2015-07-18T11:40:37Z</time>
      </trkpt>
      <trkpt lat="43.62184" lon="3.43843">
        <ele>103</ele>
        <time>2015-07-18T11:40:38Z</time>
      </trkpt>
      <trkpt lat="43.62185" lon="3.43839">
        <ele>103</ele>
        <time>2015-07-18T11:40:39Z</time>
      </trkpt>
      <trkpt lat="43.62188" lon="3.43836">
        <ele>103</ele>
        <time>2015-07-18T11:40:40Z</time>
      </trkpt>
      <trkpt lat="43.6219" lon="3.43833">
        <ele>103</ele>
        <time>2015-07-18T11:40:41Z</time>
      </trkpt>
      <trkpt lat="43.62234" lon="3.43783">
        <ele>103</ele>
        <time>2015-07-18T11:40:53Z</time>
      </trkpt>
      <trkpt lat="43.62246" lon="3.43774">
        <ele>103</ele>
        <time>2015-07-18T11:40:58Z</time>
      </trkpt>
      <trkpt lat="43.62248" lon="3.43776">
        <ele>103.48</ele>
        <time>2015-07-18T11:40:59Z</time>
      </trkpt>
      <trkpt lat="43.62254" lon="3.43781">
        <ele>103</ele>
        <time>2015-07-18T11:41:01Z</time>
      </trkpt>
      <trkpt lat="43.62256" lon="3.4378">
        <ele>103</ele>
        <time>2015-07-18T11:41:02Z</time>
      </trkpt>
      <trkpt lat="43.62259" lon="3.43779">
        <ele>103.48</ele>
        <time>2015-07-18T11:41:03Z</time>
      </trkpt>
      <trkpt lat="43.62261" lon="3.43777">
        <ele>103.48</ele>
        <time>2015-07-18T11:41:04Z</time>
      </trkpt>
      <trkpt lat="43.62262" lon="3.43775">
        <ele>103.48</ele>
        <time>2015-07-18T11:41:05Z</time>
      </trkpt>
      <trkpt lat="43.62262" lon="3.43772">
        <ele>103.48</ele>
        <time>2015-07-18T11:41:06Z</time>
      </trkpt>
      <trkpt lat="43.62257" lon="3.43759">
        <ele>103.48</ele>
        <time>2015-07-18T11:41:09Z</time>
      </trkpt>
      <trkpt lat="43.62253" lon="3.43754">
        <ele>103.96</ele>
        <time>2015-07-18T11:41:10Z</time>
      </trkpt>
      <trkpt lat="43.62232" lon="3.4372">
        <ele>105.4</ele>
        <time>2015-07-18T11:41:19Z</time>
      </trkpt>
      <trkpt lat="43.6223" lon="3.43716">
        <ele>105.4</ele>
        <time>2015-07-18T11:41:20Z</time>
      </trkpt>
      <trkpt lat="43.62229" lon="3.43711">
        <ele>105.4</ele>
        <time>2015-07-18T11:41:21Z</time>
      </trkpt>
      <trkpt lat="43.6223" lon="3.43708">
        <ele>105.88</ele>
        <time>2015-07-18T11:41:22Z</time>
      </trkpt>
      <trkpt lat="43.62233" lon="3.43707">
        <ele>105.4</ele>
        <time>2015-07-18T11:41:23Z</time>
      </trkpt>
      <trkpt lat="43.62235" lon="3.43707">
        <ele>105.4</ele>
        <time>2015-07-18T11:41:24Z</time>
      </trkpt>
      <trkpt lat="43.62238" lon="3.43708">
        <ele>105.4</ele>
        <time>2015-07-18T11:41:25Z</time>
      </trkpt>
      <trkpt lat="43.6224" lon="3.4371">
        <ele>105.4</ele>
        <time>2015-07-18T11:41:26Z</time>
      </trkpt>
      <trkpt lat="43.62242" lon="3.43713">
        <ele>105.4</ele>
        <time>2015-07-18T11:41:27Z</time>
      </trkpt>
      <trkpt lat="43.62255" lon="3.43728">
        <ele>104.44</ele>
        <time>2015-07-18T11:41:37Z</time>
      </trkpt>
      <trkpt lat="43.62257" lon="3.43727">
        <ele>104.44</ele>
        <time>2015-07-18T11:41:38Z</time>
      </trkpt>
      <trkpt lat="43.6226" lon="3.43726">
        <ele>104.92</ele>
        <time>2015-07-18T11:41:39Z</time>
      </trkpt>
      <trkpt lat="43.62262" lon="3.43724">
        <ele>104.92</ele>
        <time>2015-07-18T11:41:40Z</time>
      </trkpt>
      <trkpt lat="43.62263" lon="3.43722">
        <ele>104.92</ele>
        <time>2015-07-18T11:41:41Z</time>
      </trkpt>
      <trkpt lat="43.62264" lon="3.43721">
        <ele>104.92</ele>
        <time>2015-07-18T11:41:42Z</time>
      </trkpt>
      <trkpt lat="43.62264" lon="3.43719">
        <ele>104.92</ele>
        <time>2015-07-18T11:41:43Z</time>
      </trkpt>
      <trkpt lat="43.62264" lon="3.43716">
        <ele>105.4</ele>
        <time>2015-07-18T11:41:44Z</time>
      </trkpt>
      <trkpt lat="43.62258" lon="3.4371">
        <ele>104.92</ele>
        <time>2015-07-18T11:41:50Z</time>
      </trkpt>
      <trkpt lat="43.62256" lon="3.43714">
        <ele>105.88</ele>
        <time>2015-07-18T11:42:06Z</time>
      </trkpt>
      <trkpt lat="43.62255" lon="3.43714">
        <ele>105.88</ele>
        <time>2015-07-18T11:42:31Z</time>
      </trkpt>
      <trkpt lat="43.62249" lon="3.43712">
        <ele>110.21</ele>
        <time>2015-07-18T12:14:02Z</time>
      </trkpt>
      <trkpt lat="43.62253" lon="3.43712">
        <ele>108.77</ele>
        <time>2015-07-18T12:15:03Z</time>
      </trkpt>
      <trkpt lat="43.62258" lon="3.43709">
        <ele>107.32</ele>
        <time>2015-07-18T12:15:37Z</time>
      </trkpt>
      <trkpt lat="43.62255" lon="3.43698">
        <ele>103.96</ele>
        <time>2015-07-18T12:15:46Z</time>
      </trkpt>
      <trkpt lat="43.62253" lon="3.43696">
        <ele>103.48</ele>
        <time>2015-07-18T12:15:50Z</time>
      </trkpt>
      <trkpt lat="43.62246" lon="3.43694">
        <ele>103.48</ele>
        <time>2015-07-18T12:15:52Z</time>
      </trkpt>
      <trkpt lat="43.62239" lon="3.43694">
        <ele>103.96</ele>
        <time>2015-07-18T12:15:53Z</time>
      </trkpt>
      <trkpt lat="43.62233" lon="3.43695">
        <ele>103.96</ele>
        <time>2015-07-18T12:15:54Z</time>
      </trkpt>
      <trkpt lat="43.62228" lon="3.43695">
        <ele>103.96</ele>
        <time>2015-07-18T12:15:55Z</time>
      </trkpt>
      <trkpt lat="43.62224" lon="3.43695">
        <ele>103.96</ele>
        <time>2015-07-18T12:15:56Z</time>
      </trkpt>
      <trkpt lat="43.62221" lon="3.43695">
        <ele>103.96</ele>
        <time>2015-07-18T12:15:57Z</time>
      </trkpt>
      <trkpt lat="43.62208" lon="3.43697">
        <ele>104.92</ele>
        <time>2015-07-18T12:16:03Z</time>
      </trkpt>
      <trkpt lat="43.62207" lon="3.43701">
        <ele>104.92</ele>
        <time>2015-07-18T12:16:04Z</time>
      </trkpt>
      <trkpt lat="43.62207" lon="3.43704">
        <ele>104.92</ele>
        <time>2015-07-18T12:16:05Z</time>
      </trkpt>
      <trkpt lat="43.62208" lon="3.43709">
        <ele>104.92</ele>
        <time>2015-07-18T12:16:06Z</time>
      </trkpt>
      <trkpt lat="43.62209" lon="3.43713">
        <ele>104.92</ele>
        <time>2015-07-18T12:16:07Z</time>
      </trkpt>
      <trkpt lat="43.62211" lon="3.43718">
        <ele>104.92</ele>
        <time>2015-07-18T12:16:08Z</time>
      </trkpt>
      <trkpt lat="43.62213" lon="3.43724">
        <ele>104.44</ele>
        <time>2015-07-18T12:16:09Z</time>
      </trkpt>
      <trkpt lat="43.62242" lon="3.43771">
        <ele>103.96</ele>
        <time>2015-07-18T12:16:18Z</time>
      </trkpt>
      <trkpt lat="43.62246" lon="3.43776">
        <ele>104.44</ele>
        <time>2015-07-18T12:16:19Z</time>
      </trkpt>
      <trkpt lat="43.62251" lon="3.4378">
        <ele>103.96</ele>
        <time>2015-07-18T12:16:20Z</time>
      </trkpt>
      <trkpt lat="43.62257" lon="3.43777">
        <ele>103.48</ele>
        <time>2015-07-18T12:16:21Z</time>
      </trkpt>
      <trkpt lat="43.62265" lon="3.43774">
        <ele>103.96</ele>
        <time>2015-07-18T12:16:22Z</time>
      </trkpt>
      <trkpt lat="43.62272" lon="3.43769">
        <ele>103</ele>
        <time>2015-07-18T12:16:23Z</time>
      </trkpt>
      <trkpt lat="43.62278" lon="3.43764">
        <ele>102.52</ele>
        <time>2015-07-18T12:16:24Z</time>
      </trkpt>
      <trkpt lat="43.6232" lon="3.4373">
        <ele>100.6</ele>
        <time>2015-07-18T12:16:32Z</time>
      </trkpt>
      <trkpt lat="43.62322" lon="3.43725">
        <ele>100.11</ele>
        <time>2015-07-18T12:16:33Z</time>
      </trkpt>
      <trkpt lat="43.62323" lon="3.43718">
        <ele>99.63</ele>
        <time>2015-07-18T12:16:34Z</time>
      </trkpt>
      <trkpt lat="43.62321" lon="3.43709">
        <ele>100.11</ele>
        <time>2015-07-18T12:16:35Z</time>
      </trkpt>
      <trkpt lat="43.62317" lon="3.437">
        <ele>101.08</ele>
        <time>2015-07-18T12:16:36Z</time>
      </trkpt>
      <trkpt lat="43.62313" lon="3.43692">
        <ele>101.56</ele>
        <time>2015-07-18T12:16:37Z</time>
      </trkpt>
      <trkpt lat="43.62309" lon="3.43685">
        <ele>102.04</ele>
        <time>2015-07-18T12:16:38Z</time>
      </trkpt>
      <trkpt lat="43.62305" lon="3.43681">
        <ele>102.04</ele>
        <time>2015-07-18T12:16:39Z</time>
      </trkpt>
      <trkpt lat="43.62302" lon="3.43678">
        <ele>102.52</ele>
        <time>2015-07-18T12:16:40Z</time>
      </trkpt>
      <trkpt lat="43.62299" lon="3.43677">
        <ele>102.52</ele>
        <time>2015-07-18T12:16:41Z</time>
      </trkpt>
      <trkpt lat="43.62296" lon="3.43677">
        <ele>102.52</ele>
        <time>2015-07-18T12:16:42Z</time>
      </trkpt>
      <trkpt lat="43.62288" lon="3.43674">
        <ele>103</ele>
        <time>2015-07-18T12:16:48Z</time>
      </trkpt>
      <trkpt lat="43.62286" lon="3.43674">
        <ele>103.48</ele>
        <time>2015-07-18T12:16:49Z</time>
      </trkpt>
      <trkpt lat="43.62285" lon="3.43675">
        <ele>103.96</ele>
        <time>2015-07-18T12:16:50Z</time>
      </trkpt>
      <trkpt lat="43.62284" lon="3.43676">
        <ele>103.96</ele>
        <time>2015-07-18T12:16:51Z</time>
      </trkpt>
      <trkpt lat="43.62284" lon="3.43679">
        <ele>104.92</ele>
        <time>2015-07-18T12:16:58Z</time>
      </trkpt>
      <trkpt lat="43.62285" lon="3.43681">
        <ele>104.92</ele>
        <time>2015-07-18T12:16:59Z</time>
      </trkpt>
      <trkpt lat="43.62287" lon="3.43684">
        <ele>105.4</ele>
        <time>2015-07-18T12:17:00Z</time>
      </trkpt>
      <trkpt lat="43.6229" lon="3.43683">
        <ele>105.4</ele>
        <time>2015-07-18T12:17:01Z</time>
      </trkpt>
      <trkpt lat="43.62295" lon="3.43684">
        <ele>105.4</ele>
        <time>2015-07-18T12:17:02Z</time>
      </trkpt>
      <trkpt lat="43.62301" lon="3.43686">
        <ele>104.92</ele>
        <time>2015-07-18T12:17:03Z</time>
      </trkpt>
      <trkpt lat="43.62306" lon="3.43691">
        <ele>104.92</ele>
        <time>2015-07-18T12:17:04Z</time>
      </trkpt>
      <trkpt lat="43.6231" lon="3.43699">
        <ele>104.92</ele>
        <time>2015-07-18T12:17:05Z</time>
      </trkpt>
      <trkpt lat="43.62312" lon="3.43708">
        <ele>104.92</ele>
        <time>2015-07-18T12:17:06Z</time>
      </trkpt>
      <trkpt lat="43.62313" lon="3.43716">
        <ele>104.44</ele>
        <time>2015-07-18T12:17:07Z</time>
      </trkpt>
      <trkpt lat="43.62313" lon="3.43722">
        <ele>104.44</ele>
        <time>2015-07-18T12:17:08Z</time>
      </trkpt>
      <trkpt lat="43.62319" lon="3.43731">
        <ele>104.44</ele>
        <time>2015-07-18T12:17:11Z</time>
      </trkpt>
      <trkpt lat="43.62324" lon="3.43735">
        <ele>104.44</ele>
        <time>2015-07-18T12:17:12Z</time>
      </trkpt>
      <trkpt lat="43.62349" lon="3.43746">
        <ele>105.88</ele>
        <time>2015-07-18T12:17:20Z</time>
      </trkpt>
      <trkpt lat="43.62354" lon="3.43742">
        <ele>105.4</ele>
        <time>2015-07-18T12:17:21Z</time>
      </trkpt>
      <trkpt lat="43.62362" lon="3.43735">
        <ele>104.92</ele>
        <time>2015-07-18T12:17:22Z</time>
      </trkpt>
      <trkpt lat="43.62369" lon="3.43729">
        <ele>104.92</ele>
        <time>2015-07-18T12:17:23Z</time>
      </trkpt>
      <trkpt lat="43.62376" lon="3.43723">
        <ele>104.44</ele>
        <time>2015-07-18T12:17:24Z</time>
      </trkpt>
      <trkpt lat="43.62429" lon="3.4369">
        <ele>103</ele>
        <time>2015-07-18T12:17:34Z</time>
      </trkpt>
      <trkpt lat="43.62433" lon="3.43691">
        <ele>102.52</ele>
        <time>2015-07-18T12:17:35Z</time>
      </trkpt>
      <trkpt lat="43.62437" lon="3.4369">
        <ele>103</ele>
        <time>2015-07-18T12:17:36Z</time>
      </trkpt>
      <trkpt lat="43.62442" lon="3.43686">
        <ele>102.04</ele>
        <time>2015-07-18T12:17:37Z</time>
      </trkpt>
      <trkpt lat="43.62445" lon="3.43681">
        <ele>101.56</ele>
        <time>2015-07-18T12:17:38Z</time>
      </trkpt>
      <trkpt lat="43.62449" lon="3.43672">
        <ele>101.08</ele>
        <time>2015-07-18T12:17:39Z</time>
      </trkpt>
      <trkpt lat="43.62454" lon="3.43662">
        <ele>100.6</ele>
        <time>2015-07-18T12:17:40Z</time>
      </trkpt>
      <trkpt lat="43.62458" lon="3.43654">
        <ele>99.63</ele>
        <time>2015-07-18T12:17:41Z</time>
      </trkpt>
      <trkpt lat="43.62461" lon="3.43644">
        <ele>99.15</ele>
        <time>2015-07-18T12:17:42Z</time>
      </trkpt>
      <trkpt lat="43.62463" lon="3.43634">
        <ele>98.67</ele>
        <time>2015-07-18T12:17:43Z</time>
      </trkpt>
      <trkpt lat="43.62464" lon="3.43622">
        <ele>98.67</ele>
        <time>2015-07-18T12:17:44Z</time>
      </trkpt>
      <trkpt lat="43.62465" lon="3.43609">
        <ele>98.67</ele>
        <time>2015-07-18T12:17:45Z</time>
      </trkpt>
      <trkpt lat="43.62468" lon="3.43597">
        <ele>98.19</ele>
        <time>2015-07-18T12:17:46Z</time>
      </trkpt>
      <trkpt lat="43.62471" lon="3.43585">
        <ele>98.19</ele>
        <time>2015-07-18T12:17:47Z</time>
      </trkpt>
      <trkpt lat="43.62497" lon="3.43487">
        <ele>98.19</ele>
        <time>2015-07-18T12:17:53Z</time>
      </trkpt>
      <trkpt lat="43.62522" lon="3.4339">
        <ele>100.11</ele>
        <time>2015-07-18T12:18:01Z</time>
      </trkpt>
      <trkpt lat="43.62517" lon="3.43374">
        <ele>106.36</ele>
        <time>2015-07-18T12:18:08Z</time>
      </trkpt>
      <trkpt lat="43.62516" lon="3.43362">
        <ele>113.57</ele>
        <time>2015-07-18T12:18:22Z</time>
      </trkpt>
      <trkpt lat="43.62521" lon="3.43355">
        <ele>112.61</ele>
        <time>2015-07-18T12:18:23Z</time>
      </trkpt>
      <trkpt lat="43.62526" lon="3.43347">
        <ele>111.65</ele>
        <time>2015-07-18T12:18:24Z</time>
      </trkpt>
      <trkpt lat="43.62536" lon="3.43329">
        <ele>109.73</ele>
        <time>2015-07-18T12:18:26Z</time>
      </trkpt>
      <trkpt lat="43.62539" lon="3.43319">
        <ele>108.77</ele>
        <time>2015-07-18T12:18:27Z</time>
      </trkpt>
      <trkpt lat="43.62575" lon="3.43191">
        <ele>108.77</ele>
        <time>2015-07-18T12:18:36Z</time>
      </trkpt>
      <trkpt lat="43.62604" lon="3.43086">
        <ele>111.65</ele>
        <time>2015-07-18T12:18:46Z</time>
      </trkpt>
      <trkpt lat="43.62603" lon="3.42971">
        <ele>114.05</ele>
        <time>2015-07-18T12:18:55Z</time>
      </trkpt>
      <trkpt lat="43.62591" lon="3.4277">
        <ele>116.94</ele>
        <time>2015-07-18T12:19:06Z</time>
      </trkpt>
      <trkpt lat="43.62578" lon="3.42615">
        <ele>120.78</ele>
        <time>2015-07-18T12:19:16Z</time>
      </trkpt>
      <trkpt lat="43.62583" lon="3.42571">
        <ele>121.74</ele>
        <time>2015-07-18T12:19:23Z</time>
      </trkpt>
      <trkpt lat="43.62584" lon="3.42564">
        <ele>121.74</ele>
        <time>2015-07-18T12:19:24Z</time>
      </trkpt>
      <trkpt lat="43.62581" lon="3.42555">
        <ele>121.26</ele>
        <time>2015-07-18T12:19:25Z</time>
      </trkpt>
      <trkpt lat="43.62575" lon="3.42532">
        <ele>121.26</ele>
        <time>2015-07-18T12:19:27Z</time>
      </trkpt>
      <trkpt lat="43.62575" lon="3.42388">
        <ele>120.78</ele>
        <time>2015-07-18T12:19:34Z</time>
      </trkpt>
      <trkpt lat="43.62553" lon="3.42188">
        <ele>123.19</ele>
        <time>2015-07-18T12:19:43Z</time>
      </trkpt>
      <trkpt lat="43.62542" lon="3.42164">
        <ele>123.19</ele>
        <time>2015-07-18T12:19:44Z</time>
      </trkpt>
      <trkpt lat="43.62476" lon="3.41998">
        <ele>127.99</ele>
        <time>2015-07-18T12:19:51Z</time>
      </trkpt>
      <trkpt lat="43.62471" lon="3.41968">
        <ele>128.95</ele>
        <time>2015-07-18T12:19:52Z</time>
      </trkpt>
      <trkpt lat="43.62442" lon="3.4179">
        <ele>135.2</ele>
        <time>2015-07-18T12:19:59Z</time>
      </trkpt>
      <trkpt lat="43.62434" lon="3.41767">
        <ele>136.16</ele>
        <time>2015-07-18T12:20:00Z</time>
      </trkpt>
      <trkpt lat="43.62424" lon="3.41748">
        <ele>137.13</ele>
        <time>2015-07-18T12:20:01Z</time>
      </trkpt>
      <trkpt lat="43.624" lon="3.41699">
        <ele>140.01</ele>
        <time>2015-07-18T12:20:04Z</time>
      </trkpt>
      <trkpt lat="43.62387" lon="3.4167">
        <ele>140.97</ele>
        <time>2015-07-18T12:20:06Z</time>
      </trkpt>
      <trkpt lat="43.62377" lon="3.41657">
        <ele>141.93</ele>
        <time>2015-07-18T12:20:07Z</time>
      </trkpt>
      <trkpt lat="43.62307" lon="3.41547">
        <ele>146.26</ele>
        <time>2015-07-18T12:20:13Z</time>
      </trkpt>
      <trkpt lat="43.62181" lon="3.41326">
        <ele>154.43</ele>
        <time>2015-07-18T12:20:23Z</time>
      </trkpt>
      <trkpt lat="43.62057" lon="3.41171">
        <ele>161.64</ele>
        <time>2015-07-18T12:20:31Z</time>
      </trkpt>
      <trkpt lat="43.61894" lon="3.41075">
        <ele>167.89</ele>
        <time>2015-07-18T12:20:39Z</time>
      </trkpt>
      <trkpt lat="43.61656" lon="3.40925">
        <ele>158.75</ele>
        <time>2015-07-18T12:20:50Z</time>
      </trkpt>
      <trkpt lat="43.61401" lon="3.40761">
        <ele>145.3</ele>
        <time>2015-07-18T12:21:01Z</time>
      </trkpt>
      <trkpt lat="43.61294" lon="3.40638">
        <ele>140.01</ele>
        <time>2015-07-18T12:21:06Z</time>
      </trkpt>
      <trkpt lat="43.61129" lon="3.4041">
        <ele>133.28</ele>
        <time>2015-07-18T12:21:15Z</time>
      </trkpt>
      <trkpt lat="43.60989" lon="3.40219">
        <ele>134.24</ele>
        <time>2015-07-18T12:21:24Z</time>
      </trkpt>
      <trkpt lat="43.60931" lon="3.40171">
        <ele>135.2</ele>
        <time>2015-07-18T12:21:29Z</time>
      </trkpt>
      <trkpt lat="43.60913" lon="3.40158">
        <ele>134.72</ele>
        <time>2015-07-18T12:21:31Z</time>
      </trkpt>
      <trkpt lat="43.60907" lon="3.40144">
        <ele>134.24</ele>
        <time>2015-07-18T12:21:32Z</time>
      </trkpt>
      <trkpt lat="43.609" lon="3.40126">
        <ele>134.24</ele>
        <time>2015-07-18T12:21:33Z</time>
      </trkpt>
      <trkpt lat="43.60895" lon="3.40105">
        <ele>133.76</ele>
        <time>2015-07-18T12:21:34Z</time>
      </trkpt>
      <trkpt lat="43.60897" lon="3.40082">
        <ele>134.24</ele>
        <time>2015-07-18T12:21:35Z</time>
      </trkpt>
      <trkpt lat="43.60899" lon="3.40062">
        <ele>134.24</ele>
        <time>2015-07-18T12:21:36Z</time>
      </trkpt>
      <trkpt lat="43.60905" lon="3.40042">
        <ele>134.72</ele>
        <time>2015-07-18T12:21:37Z</time>
      </trkpt>
      <trkpt lat="43.60906" lon="3.40021">
        <ele>134.72</ele>
        <time>2015-07-18T12:21:38Z</time>
      </trkpt>
      <trkpt lat="43.60905" lon="3.39998">
        <ele>135.2</ele>
        <time>2015-07-18T12:21:39Z</time>
      </trkpt>
      <trkpt lat="43.609" lon="3.39975">
        <ele>135.2</ele>
        <time>2015-07-18T12:21:40Z</time>
      </trkpt>
      <trkpt lat="43.60893" lon="3.3995">
        <ele>135.2</ele>
        <time>2015-07-18T12:21:41Z</time>
      </trkpt>
      <trkpt lat="43.60878" lon="3.39778">
        <ele>138.09</ele>
        <time>2015-07-18T12:21:47Z</time>
      </trkpt>
      <trkpt lat="43.6088" lon="3.39751">
        <ele>138.57</ele>
        <time>2015-07-18T12:21:48Z</time>
      </trkpt>
      <trkpt lat="43.60888" lon="3.39679">
        <ele>139.05</ele>
        <time>2015-07-18T12:21:51Z</time>
      </trkpt>
      <trkpt lat="43.60894" lon="3.39657">
        <ele>139.05</ele>
        <time>2015-07-18T12:21:52Z</time>
      </trkpt>
      <trkpt lat="43.60904" lon="3.39637">
        <ele>139.53</ele>
        <time>2015-07-18T12:21:53Z</time>
      </trkpt>
      <trkpt lat="43.60918" lon="3.39619">
        <ele>140.01</ele>
        <time>2015-07-18T12:21:54Z</time>
      </trkpt>
      <trkpt lat="43.60934" lon="3.39604">
        <ele>140.01</ele>
        <time>2015-07-18T12:21:55Z</time>
      </trkpt>
      <trkpt lat="43.60951" lon="3.39588">
        <ele>140.49</ele>
        <time>2015-07-18T12:21:56Z</time>
      </trkpt>
      <trkpt lat="43.60969" lon="3.39574">
        <ele>141.45</ele>
        <time>2015-07-18T12:21:57Z</time>
      </trkpt>
      <trkpt lat="43.60988" lon="3.39557">
        <ele>140.97</ele>
        <time>2015-07-18T12:21:58Z</time>
      </trkpt>
      <trkpt lat="43.61088" lon="3.39455">
        <ele>144.34</ele>
        <time>2015-07-18T12:22:04Z</time>
      </trkpt>
      <trkpt lat="43.61101" lon="3.3943">
        <ele>145.3</ele>
        <time>2015-07-18T12:22:05Z</time>
      </trkpt>
      <trkpt lat="43.61109" lon="3.39402">
        <ele>145.3</ele>
        <time>2015-07-18T12:22:06Z</time>
      </trkpt>
      <trkpt lat="43.61115" lon="3.39372">
        <ele>145.3</ele>
        <time>2015-07-18T12:22:07Z</time>
      </trkpt>
      <trkpt lat="43.61112" lon="3.39341">
        <ele>146.26</ele>
        <time>2015-07-18T12:22:08Z</time>
      </trkpt>
      <trkpt lat="43.61108" lon="3.3931">
        <ele>146.74</ele>
        <time>2015-07-18T12:22:09Z</time>
      </trkpt>
      <trkpt lat="43.61104" lon="3.39277">
        <ele>148.18</ele>
        <time>2015-07-18T12:22:10Z</time>
      </trkpt>
      <trkpt lat="43.61101" lon="3.39245">
        <ele>148.18</ele>
        <time>2015-07-18T12:22:11Z</time>
      </trkpt>
      <trkpt lat="43.61105" lon="3.39065">
        <ele>152.03</ele>
        <time>2015-07-18T12:22:17Z</time>
      </trkpt>
      <trkpt lat="43.611" lon="3.39042">
        <ele>152.51</ele>
        <time>2015-07-18T12:22:18Z</time>
      </trkpt>
      <trkpt lat="43.61094" lon="3.3902">
        <ele>153.47</ele>
        <time>2015-07-18T12:22:19Z</time>
      </trkpt>
      <trkpt lat="43.61088" lon="3.38998">
        <ele>154.43</ele>
        <time>2015-07-18T12:22:20Z</time>
      </trkpt>
      <trkpt lat="43.61082" lon="3.38973">
        <ele>154.91</ele>
        <time>2015-07-18T12:22:21Z</time>
      </trkpt>
      <trkpt lat="43.61079" lon="3.38948">
        <ele>155.39</ele>
        <time>2015-07-18T12:22:22Z</time>
      </trkpt>
      <trkpt lat="43.61076" lon="3.38926">
        <ele>155.87</ele>
        <time>2015-07-18T12:22:23Z</time>
      </trkpt>
      <trkpt lat="43.61058" lon="3.38819">
        <ele>158.75</ele>
        <time>2015-07-18T12:22:29Z</time>
      </trkpt>
      <trkpt lat="43.61051" lon="3.38803">
        <ele>158.75</ele>
        <time>2015-07-18T12:22:30Z</time>
      </trkpt>
      <trkpt lat="43.61042" lon="3.38788">
        <ele>158.75</ele>
        <time>2015-07-18T12:22:31Z</time>
      </trkpt>
      <trkpt lat="43.6103" lon="3.38779">
        <ele>159.24</ele>
        <time>2015-07-18T12:22:32Z</time>
      </trkpt>
      <trkpt lat="43.61017" lon="3.3877">
        <ele>159.72</ele>
        <time>2015-07-18T12:22:33Z</time>
      </trkpt>
      <trkpt lat="43.61004" lon="3.38764">
        <ele>160.2</ele>
        <time>2015-07-18T12:22:34Z</time>
      </trkpt>
      <trkpt lat="43.60991" lon="3.3876">
        <ele>161.64</ele>
        <time>2015-07-18T12:22:35Z</time>
      </trkpt>
      <trkpt lat="43.60979" lon="3.38756">
        <ele>162.12</ele>
        <time>2015-07-18T12:22:36Z</time>
      </trkpt>
      <trkpt lat="43.60944" lon="3.38738">
        <ele>163.56</ele>
        <time>2015-07-18T12:22:39Z</time>
      </trkpt>
      <trkpt lat="43.60933" lon="3.38728">
        <ele>163.56</ele>
        <time>2015-07-18T12:22:40Z</time>
      </trkpt>
      <trkpt lat="43.60926" lon="3.38714">
        <ele>164.52</ele>
        <time>2015-07-18T12:22:41Z</time>
      </trkpt>
      <trkpt lat="43.60922" lon="3.38697">
        <ele>165</ele>
        <time>2015-07-18T12:22:42Z</time>
      </trkpt>
      <trkpt lat="43.60917" lon="3.3868">
        <ele>165</ele>
        <time>2015-07-18T12:22:43Z</time>
      </trkpt>
      <trkpt lat="43.60915" lon="3.38662">
        <ele>165</ele>
        <time>2015-07-18T12:22:44Z</time>
      </trkpt>
      <trkpt lat="43.60913" lon="3.38643">
        <ele>165</ele>
        <time>2015-07-18T12:22:45Z</time>
      </trkpt>
      <trkpt lat="43.60914" lon="3.38624">
        <ele>165</ele>
        <time>2015-07-18T12:22:46Z</time>
      </trkpt>
      <trkpt lat="43.60917" lon="3.38605">
        <ele>165.48</ele>
        <time>2015-07-18T12:22:47Z</time>
      </trkpt>
      <trkpt lat="43.60922" lon="3.38584">
        <ele>165.96</ele>
        <time>2015-07-18T12:22:48Z</time>
      </trkpt>
      <trkpt lat="43.60928" lon="3.3856">
        <ele>166.93</ele>
        <time>2015-07-18T12:22:49Z</time>
      </trkpt>
      <trkpt lat="43.60952" lon="3.38482">
        <ele>168.85</ele>
        <time>2015-07-18T12:22:52Z</time>
      </trkpt>
      <trkpt lat="43.60969" lon="3.38434">
        <ele>169.81</ele>
        <time>2015-07-18T12:22:54Z</time>
      </trkpt>
      <trkpt lat="43.60973" lon="3.38408">
        <ele>170.29</ele>
        <time>2015-07-18T12:22:55Z</time>
      </trkpt>
      <trkpt lat="43.60972" lon="3.38381">
        <ele>170.29</ele>
        <time>2015-07-18T12:22:56Z</time>
      </trkpt>
      <trkpt lat="43.60965" lon="3.38355">
        <ele>170.77</ele>
        <time>2015-07-18T12:22:57Z</time>
      </trkpt>
      <trkpt lat="43.60953" lon="3.3833">
        <ele>170.77</ele>
        <time>2015-07-18T12:22:58Z</time>
      </trkpt>
      <trkpt lat="43.60939" lon="3.38305">
        <ele>169.81</ele>
        <time>2015-07-18T12:22:59Z</time>
      </trkpt>
      <trkpt lat="43.60921" lon="3.38285">
        <ele>171.25</ele>
        <time>2015-07-18T12:23:00Z</time>
      </trkpt>
      <trkpt lat="43.60901" lon="3.38265">
        <ele>172.69</ele>
        <time>2015-07-18T12:23:01Z</time>
      </trkpt>
      <trkpt lat="43.60883" lon="3.38245">
        <ele>173.66</ele>
        <time>2015-07-18T12:23:02Z</time>
      </trkpt>
      <trkpt lat="43.60855" lon="3.38201">
        <ele>175.58</ele>
        <time>2015-07-18T12:23:04Z</time>
      </trkpt>
      <trkpt lat="43.60846" lon="3.38173">
        <ele>176.54</ele>
        <time>2015-07-18T12:23:05Z</time>
      </trkpt>
      <trkpt lat="43.60843" lon="3.38142">
        <ele>177.02</ele>
        <time>2015-07-18T12:23:06Z</time>
      </trkpt>
      <trkpt lat="43.60842" lon="3.38109">
        <ele>177.98</ele>
        <time>2015-07-18T12:23:07Z</time>
      </trkpt>
      <trkpt lat="43.60844" lon="3.38078">
        <ele>178.46</ele>
        <time>2015-07-18T12:23:08Z</time>
      </trkpt>
      <trkpt lat="43.60847" lon="3.38051">
        <ele>178.94</ele>
        <time>2015-07-18T12:23:09Z</time>
      </trkpt>
      <trkpt lat="43.60847" lon="3.38025">
        <ele>178.94</ele>
        <time>2015-07-18T12:23:10Z</time>
      </trkpt>
      <trkpt lat="43.60845" lon="3.38003">
        <ele>179.42</ele>
        <time>2015-07-18T12:23:11Z</time>
      </trkpt>
      <trkpt lat="43.60836" lon="3.37982">
        <ele>180.38</ele>
        <time>2015-07-18T12:23:12Z</time>
      </trkpt>
      <trkpt lat="43.6082" lon="3.37966">
        <ele>180.87</ele>
        <time>2015-07-18T12:23:13Z</time>
      </trkpt>
      <trkpt lat="43.60802" lon="3.37954">
        <ele>181.83</ele>
        <time>2015-07-18T12:23:14Z</time>
      </trkpt>
      <trkpt lat="43.60783" lon="3.37943">
        <ele>182.79</ele>
        <time>2015-07-18T12:23:15Z</time>
      </trkpt>
      <trkpt lat="43.60766" lon="3.37931">
        <ele>182.79</ele>
        <time>2015-07-18T12:23:16Z</time>
      </trkpt>
      <trkpt lat="43.60746" lon="3.3792">
        <ele>182.79</ele>
        <time>2015-07-18T12:23:17Z</time>
      </trkpt>
      <trkpt lat="43.60726" lon="3.37907">
        <ele>183.27</ele>
        <time>2015-07-18T12:23:18Z</time>
      </trkpt>
      <trkpt lat="43.60694" lon="3.37865">
        <ele>186.15</ele>
        <time>2015-07-18T12:23:20Z</time>
      </trkpt>
      <trkpt lat="43.60686" lon="3.37837">
        <ele>187.11</ele>
        <time>2015-07-18T12:23:21Z</time>
      </trkpt>
      <trkpt lat="43.60684" lon="3.37806">
        <ele>188.56</ele>
        <time>2015-07-18T12:23:22Z</time>
      </trkpt>
      <trkpt lat="43.60682" lon="3.37779">
        <ele>189.52</ele>
        <time>2015-07-18T12:23:23Z</time>
      </trkpt>
      <trkpt lat="43.6068" lon="3.37753">
        <ele>190.96</ele>
        <time>2015-07-18T12:23:24Z</time>
      </trkpt>
      <trkpt lat="43.60665" lon="3.37707">
        <ele>192.88</ele>
        <time>2015-07-18T12:23:26Z</time>
      </trkpt>
      <trkpt lat="43.6065" lon="3.3769">
        <ele>193.84</ele>
        <time>2015-07-18T12:23:27Z</time>
      </trkpt>
      <trkpt lat="43.60632" lon="3.37678">
        <ele>195.28</ele>
        <time>2015-07-18T12:23:28Z</time>
      </trkpt>
      <trkpt lat="43.60614" lon="3.37667">
        <ele>196.25</ele>
        <time>2015-07-18T12:23:29Z</time>
      </trkpt>
      <trkpt lat="43.60595" lon="3.37657">
        <ele>196.73</ele>
        <time>2015-07-18T12:23:30Z</time>
      </trkpt>
      <trkpt lat="43.60577" lon="3.37644">
        <ele>197.69</ele>
        <time>2015-07-18T12:23:31Z</time>
      </trkpt>
      <trkpt lat="43.60563" lon="3.37624">
        <ele>199.13</ele>
        <time>2015-07-18T12:23:32Z</time>
      </trkpt>
      <trkpt lat="43.60554" lon="3.37599">
        <ele>199.61</ele>
        <time>2015-07-18T12:23:33Z</time>
      </trkpt>
      <trkpt lat="43.6055" lon="3.37569">
        <ele>200.57</ele>
        <time>2015-07-18T12:23:34Z</time>
      </trkpt>
      <trkpt lat="43.60551" lon="3.37538">
        <ele>201.53</ele>
        <time>2015-07-18T12:23:35Z</time>
      </trkpt>
      <trkpt lat="43.60558" lon="3.37507">
        <ele>202.01</ele>
        <time>2015-07-18T12:23:36Z</time>
      </trkpt>
      <trkpt lat="43.60576" lon="3.37485">
        <ele>204.9</ele>
        <time>2015-07-18T12:23:37Z</time>
      </trkpt>
      <trkpt lat="43.60591" lon="3.3746">
        <ele>205.86</ele>
        <time>2015-07-18T12:23:38Z</time>
      </trkpt>
      <trkpt lat="43.60677" lon="3.37285">
        <ele>212.11</ele>
        <time>2015-07-18T12:23:45Z</time>
      </trkpt>
      <trkpt lat="43.6068" lon="3.37254">
        <ele>212.11</ele>
        <time>2015-07-18T12:23:46Z</time>
      </trkpt>
      <trkpt lat="43.6068" lon="3.37223">
        <ele>213.07</ele>
        <time>2015-07-18T12:23:47Z</time>
      </trkpt>
      <trkpt lat="43.60682" lon="3.37192">
        <ele>213.55</ele>
        <time>2015-07-18T12:23:48Z</time>
      </trkpt>
      <trkpt lat="43.60686" lon="3.37162">
        <ele>214.99</ele>
        <time>2015-07-18T12:23:49Z</time>
      </trkpt>
      <trkpt lat="43.60688" lon="3.37133">
        <ele>215.47</ele>
        <time>2015-07-18T12:23:50Z</time>
      </trkpt>
      <trkpt lat="43.60685" lon="3.37104">
        <ele>216.43</ele>
        <time>2015-07-18T12:23:51Z</time>
      </trkpt>
      <trkpt lat="43.60676" lon="3.37077">
        <ele>217.4</ele>
        <time>2015-07-18T12:23:52Z</time>
      </trkpt>
      <trkpt lat="43.60663" lon="3.37054">
        <ele>218.36</ele>
        <time>2015-07-18T12:23:53Z</time>
      </trkpt>
      <trkpt lat="43.60646" lon="3.37035">
        <ele>219.32</ele>
        <time>2015-07-18T12:23:54Z</time>
      </trkpt>
      <trkpt lat="43.60629" lon="3.37018">
        <ele>220.76</ele>
        <time>2015-07-18T12:23:55Z</time>
      </trkpt>
      <trkpt lat="43.6061" lon="3.37004">
        <ele>222.2</ele>
        <time>2015-07-18T12:23:56Z</time>
      </trkpt>
      <trkpt lat="43.60593" lon="3.36988">
        <ele>223.16</ele>
        <time>2015-07-18T12:23:57Z</time>
      </trkpt>
      <trkpt lat="43.6058" lon="3.36967">
        <ele>224.12</ele>
        <time>2015-07-18T12:23:58Z</time>
      </trkpt>
      <trkpt lat="43.60573" lon="3.3694">
        <ele>224.61</ele>
        <time>2015-07-18T12:23:59Z</time>
      </trkpt>
      <trkpt lat="43.60572" lon="3.36908">
        <ele>224.12</ele>
        <time>2015-07-18T12:24:00Z</time>
      </trkpt>
      <trkpt lat="43.60574" lon="3.36877">
        <ele>224.61</ele>
        <time>2015-07-18T12:24:01Z</time>
      </trkpt>
      <trkpt lat="43.60578" lon="3.36849">
        <ele>224.61</ele>
        <time>2015-07-18T12:24:02Z</time>
      </trkpt>
      <trkpt lat="43.60583" lon="3.36822">
        <ele>225.57</ele>
        <time>2015-07-18T12:24:03Z</time>
      </trkpt>
      <trkpt lat="43.60586" lon="3.36795">
        <ele>226.05</ele>
        <time>2015-07-18T12:24:04Z</time>
      </trkpt>
      <trkpt lat="43.60586" lon="3.36768">
        <ele>226.05</ele>
        <time>2015-07-18T12:24:05Z</time>
      </trkpt>
      <trkpt lat="43.60582" lon="3.36742">
        <ele>226.05</ele>
        <time>2015-07-18T12:24:06Z</time>
      </trkpt>
      <trkpt lat="43.60573" lon="3.36717">
        <ele>226.53</ele>
        <time>2015-07-18T12:24:07Z</time>
      </trkpt>
      <trkpt lat="43.60559" lon="3.36694">
        <ele>227.49</ele>
        <time>2015-07-18T12:24:08Z</time>
      </trkpt>
      <trkpt lat="43.60545" lon="3.36673">
        <ele>228.45</ele>
        <time>2015-07-18T12:24:09Z</time>
      </trkpt>
      <trkpt lat="43.60529" lon="3.36655">
        <ele>228.93</ele>
        <time>2015-07-18T12:24:10Z</time>
      </trkpt>
      <trkpt lat="43.60515" lon="3.36635">
        <ele>229.41</ele>
        <time>2015-07-18T12:24:11Z</time>
      </trkpt>
      <trkpt lat="43.60505" lon="3.36612">
        <ele>229.89</ele>
        <time>2015-07-18T12:24:12Z</time>
      </trkpt>
      <trkpt lat="43.60499" lon="3.36584">
        <ele>230.85</ele>
        <time>2015-07-18T12:24:13Z</time>
      </trkpt>
      <trkpt lat="43.60498" lon="3.36553">
        <ele>231.33</ele>
        <time>2015-07-18T12:24:14Z</time>
      </trkpt>
      <trkpt lat="43.60503" lon="3.36523">
        <ele>232.3</ele>
        <time>2015-07-18T12:24:15Z</time>
      </trkpt>
      <trkpt lat="43.60513" lon="3.36496">
        <ele>233.26</ele>
        <time>2015-07-18T12:24:16Z</time>
      </trkpt>
      <trkpt lat="43.60523" lon="3.36468">
        <ele>234.22</ele>
        <time>2015-07-18T12:24:17Z</time>
      </trkpt>
      <trkpt lat="43.60533" lon="3.36441">
        <ele>234.7</ele>
        <time>2015-07-18T12:24:18Z</time>
      </trkpt>
      <trkpt lat="43.60578" lon="3.36301">
        <ele>238.06</ele>
        <time>2015-07-18T12:24:23Z</time>
      </trkpt>
      <trkpt lat="43.60582" lon="3.36271">
        <ele>238.54</ele>
        <time>2015-07-18T12:24:24Z</time>
      </trkpt>
      <trkpt lat="43.60581" lon="3.3624">
        <ele>239.51</ele>
        <time>2015-07-18T12:24:25Z</time>
      </trkpt>
      <trkpt lat="43.60578" lon="3.36208">
        <ele>239.99</ele>
        <time>2015-07-18T12:24:26Z</time>
      </trkpt>
      <trkpt lat="43.60574" lon="3.36174">
        <ele>240.47</ele>
        <time>2015-07-18T12:24:27Z</time>
      </trkpt>
      <trkpt lat="43.60538" lon="3.35835">
        <ele>250.08</ele>
        <time>2015-07-18T12:24:37Z</time>
      </trkpt>
      <trkpt lat="43.60544" lon="3.35801">
        <ele>251.04</ele>
        <time>2015-07-18T12:24:38Z</time>
      </trkpt>
      <trkpt lat="43.60552" lon="3.3577">
        <ele>252</ele>
        <time>2015-07-18T12:24:39Z</time>
      </trkpt>
      <trkpt lat="43.60565" lon="3.3574">
        <ele>252.96</ele>
        <time>2015-07-18T12:24:40Z</time>
      </trkpt>
      <trkpt lat="43.60576" lon="3.3571">
        <ele>254.41</ele>
        <time>2015-07-18T12:24:41Z</time>
      </trkpt>
      <trkpt lat="43.60647" lon="3.35473">
        <ele>261.62</ele>
        <time>2015-07-18T12:24:49Z</time>
      </trkpt>
      <trkpt lat="43.60646" lon="3.35441">
        <ele>262.58</ele>
        <time>2015-07-18T12:24:50Z</time>
      </trkpt>
      <trkpt lat="43.60641" lon="3.35409">
        <ele>263.54</ele>
        <time>2015-07-18T12:24:51Z</time>
      </trkpt>
      <trkpt lat="43.60644" lon="3.35238">
        <ele>268.35</ele>
        <time>2015-07-18T12:24:56Z</time>
      </trkpt>
      <trkpt lat="43.60655" lon="3.35206">
        <ele>269.31</ele>
        <time>2015-07-18T12:24:57Z</time>
      </trkpt>
      <trkpt lat="43.60669" lon="3.35179">
        <ele>270.27</ele>
        <time>2015-07-18T12:24:58Z</time>
      </trkpt>
      <trkpt lat="43.60685" lon="3.35155">
        <ele>271.23</ele>
        <time>2015-07-18T12:24:59Z</time>
      </trkpt>
      <trkpt lat="43.60703" lon="3.35134">
        <ele>271.71</ele>
        <time>2015-07-18T12:25:00Z</time>
      </trkpt>
      <trkpt lat="43.60721" lon="3.35115">
        <ele>272.67</ele>
        <time>2015-07-18T12:25:01Z</time>
      </trkpt>
      <trkpt lat="43.60737" lon="3.35098">
        <ele>273.63</ele>
        <time>2015-07-18T12:25:02Z</time>
      </trkpt>
      <trkpt lat="43.60807" lon="3.35038">
        <ele>277.96</ele>
        <time>2015-07-18T12:25:07Z</time>
      </trkpt>
      <trkpt lat="43.60817" lon="3.35025">
        <ele>278.44</ele>
        <time>2015-07-18T12:25:08Z</time>
      </trkpt>
      <trkpt lat="43.60827" lon="3.3501">
        <ele>278.92</ele>
        <time>2015-07-18T12:25:09Z</time>
      </trkpt>
      <trkpt lat="43.60907" lon="3.34863">
        <ele>280.84</ele>
        <time>2015-07-18T12:25:16Z</time>
      </trkpt>
      <trkpt lat="43.60961" lon="3.34672">
        <ele>281.8</ele>
        <time>2015-07-18T12:25:23Z</time>
      </trkpt>
      <trkpt lat="43.60985" lon="3.34324">
        <ele>284.69</ele>
        <time>2015-07-18T12:25:34Z</time>
      </trkpt>
      <trkpt lat="43.60985" lon="3.3429">
        <ele>284.69</ele>
        <time>2015-07-18T12:25:35Z</time>
      </trkpt>
      <trkpt lat="43.60981" lon="3.34257">
        <ele>284.69</ele>
        <time>2015-07-18T12:25:36Z</time>
      </trkpt>
      <trkpt lat="43.60975" lon="3.34223">
        <ele>285.17</ele>
        <time>2015-07-18T12:25:37Z</time>
      </trkpt>
      <trkpt lat="43.60958" lon="3.34088">
        <ele>285.65</ele>
        <time>2015-07-18T12:25:41Z</time>
      </trkpt>
      <trkpt lat="43.60959" lon="3.34055">
        <ele>285.65</ele>
        <time>2015-07-18T12:25:42Z</time>
      </trkpt>
      <trkpt lat="43.60969" lon="3.33815">
        <ele>285.17</ele>
        <time>2015-07-18T12:25:49Z</time>
      </trkpt>
      <trkpt lat="43.60965" lon="3.33779">
        <ele>285.17</ele>
        <time>2015-07-18T12:25:50Z</time>
      </trkpt>
      <trkpt lat="43.60953" lon="3.33553">
        <ele>284.21</ele>
        <time>2015-07-18T12:25:56Z</time>
      </trkpt>
      <trkpt lat="43.60949" lon="3.33514">
        <ele>284.21</ele>
        <time>2015-07-18T12:25:57Z</time>
      </trkpt>
      <trkpt lat="43.6094" lon="3.33475">
        <ele>284.21</ele>
        <time>2015-07-18T12:25:58Z</time>
      </trkpt>
      <trkpt lat="43.60928" lon="3.33438">
        <ele>283.73</ele>
        <time>2015-07-18T12:25:59Z</time>
      </trkpt>
      <trkpt lat="43.60829" lon="3.33138">
        <ele>284.21</ele>
        <time>2015-07-18T12:26:08Z</time>
      </trkpt>
      <trkpt lat="43.60687" lon="3.32657">
        <ele>283.73</ele>
        <time>2015-07-18T12:26:23Z</time>
      </trkpt>
      <trkpt lat="43.60685" lon="3.3259">
        <ele>283.73</ele>
        <time>2015-07-18T12:26:25Z</time>
      </trkpt>
      <trkpt lat="43.60688" lon="3.32556">
        <ele>283.25</ele>
        <time>2015-07-18T12:26:26Z</time>
      </trkpt>
      <trkpt lat="43.60695" lon="3.32523">
        <ele>283.25</ele>
        <time>2015-07-18T12:26:27Z</time>
      </trkpt>
      <trkpt lat="43.60705" lon="3.3249">
        <ele>282.77</ele>
        <time>2015-07-18T12:26:28Z</time>
      </trkpt>
      <trkpt lat="43.60717" lon="3.32457">
        <ele>282.77</ele>
        <time>2015-07-18T12:26:29Z</time>
      </trkpt>
      <trkpt lat="43.60731" lon="3.32426">
        <ele>282.28</ele>
        <time>2015-07-18T12:26:30Z</time>
      </trkpt>
      <trkpt lat="43.60748" lon="3.32397">
        <ele>282.28</ele>
        <time>2015-07-18T12:26:31Z</time>
      </trkpt>
      <trkpt lat="43.60766" lon="3.32368">
        <ele>282.28</ele>
        <time>2015-07-18T12:26:32Z</time>
      </trkpt>
      <trkpt lat="43.60857" lon="3.32253">
        <ele>281.8</ele>
        <time>2015-07-18T12:26:37Z</time>
      </trkpt>
      <trkpt lat="43.6088" lon="3.32242">
        <ele>281.8</ele>
        <time>2015-07-18T12:26:38Z</time>
      </trkpt>
      <trkpt lat="43.60904" lon="3.32237">
        <ele>282.28</ele>
        <time>2015-07-18T12:26:39Z</time>
      </trkpt>
      <trkpt lat="43.6093" lon="3.32238">
        <ele>282.28</ele>
        <time>2015-07-18T12:26:40Z</time>
      </trkpt>
      <trkpt lat="43.60956" lon="3.32246">
        <ele>280.84</ele>
        <time>2015-07-18T12:26:41Z</time>
      </trkpt>
      <trkpt lat="43.6098" lon="3.32252">
        <ele>280.36</ele>
        <time>2015-07-18T12:26:42Z</time>
      </trkpt>
      <trkpt lat="43.61002" lon="3.3226">
        <ele>280.84</ele>
        <time>2015-07-18T12:26:43Z</time>
      </trkpt>
      <trkpt lat="43.61023" lon="3.32264">
        <ele>280.84</ele>
        <time>2015-07-18T12:26:44Z</time>
      </trkpt>
      <trkpt lat="43.61046" lon="3.32265">
        <ele>281.32</ele>
        <time>2015-07-18T12:26:45Z</time>
      </trkpt>
      <trkpt lat="43.6107" lon="3.3226">
        <ele>281.8</ele>
        <time>2015-07-18T12:26:46Z</time>
      </trkpt>
      <trkpt lat="43.61093" lon="3.32248">
        <ele>281.8</ele>
        <time>2015-07-18T12:26:47Z</time>
      </trkpt>
      <trkpt lat="43.61114" lon="3.32233">
        <ele>281.32</ele>
        <time>2015-07-18T12:26:48Z</time>
      </trkpt>
      <trkpt lat="43.61131" lon="3.32212">
        <ele>280.36</ele>
        <time>2015-07-18T12:26:49Z</time>
      </trkpt>
      <trkpt lat="43.61145" lon="3.32187">
        <ele>279.88</ele>
        <time>2015-07-18T12:26:50Z</time>
      </trkpt>
      <trkpt lat="43.61155" lon="3.32158">
        <ele>280.84</ele>
        <time>2015-07-18T12:26:51Z</time>
      </trkpt>
      <trkpt lat="43.61162" lon="3.32129">
        <ele>280.84</ele>
        <time>2015-07-18T12:26:52Z</time>
      </trkpt>
      <trkpt lat="43.61165" lon="3.32098">
        <ele>280.84</ele>
        <time>2015-07-18T12:26:53Z</time>
      </trkpt>
      <trkpt lat="43.61165" lon="3.32066">
        <ele>281.8</ele>
        <time>2015-07-18T12:26:54Z</time>
      </trkpt>
      <trkpt lat="43.61164" lon="3.32034">
        <ele>284.21</ele>
        <time>2015-07-18T12:26:55Z</time>
      </trkpt>
      <trkpt lat="43.61162" lon="3.32">
        <ele>287.09</ele>
        <time>2015-07-18T12:26:56Z</time>
      </trkpt>
      <trkpt lat="43.6116" lon="3.31966">
        <ele>289.01</ele>
        <time>2015-07-18T12:26:57Z</time>
      </trkpt>
      <trkpt lat="43.61147" lon="3.31691">
        <ele>299.11</ele>
        <time>2015-07-18T12:27:05Z</time>
      </trkpt>
      <trkpt lat="43.61141" lon="3.31659">
        <ele>300.07</ele>
        <time>2015-07-18T12:27:06Z</time>
      </trkpt>
      <trkpt lat="43.6113" lon="3.31629">
        <ele>301.51</ele>
        <time>2015-07-18T12:27:07Z</time>
      </trkpt>
      <trkpt lat="43.61117" lon="3.31602">
        <ele>302.95</ele>
        <time>2015-07-18T12:27:08Z</time>
      </trkpt>
      <trkpt lat="43.61101" lon="3.31576">
        <ele>304.88</ele>
        <time>2015-07-18T12:27:09Z</time>
      </trkpt>
      <trkpt lat="43.61083" lon="3.31556">
        <ele>306.32</ele>
        <time>2015-07-18T12:27:10Z</time>
      </trkpt>
      <trkpt lat="43.61062" lon="3.31538">
        <ele>307.76</ele>
        <time>2015-07-18T12:27:11Z</time>
      </trkpt>
      <trkpt lat="43.61037" lon="3.31526">
        <ele>309.68</ele>
        <time>2015-07-18T12:27:12Z</time>
      </trkpt>
      <trkpt lat="43.61014" lon="3.31517">
        <ele>311.12</ele>
        <time>2015-07-18T12:27:13Z</time>
      </trkpt>
      <trkpt lat="43.60988" lon="3.31514">
        <ele>313.05</ele>
        <time>2015-07-18T12:27:14Z</time>
      </trkpt>
      <trkpt lat="43.60963" lon="3.31513">
        <ele>314.49</ele>
        <time>2015-07-18T12:27:15Z</time>
      </trkpt>
      <trkpt lat="43.60938" lon="3.31518">
        <ele>315.93</ele>
        <time>2015-07-18T12:27:16Z</time>
      </trkpt>
      <trkpt lat="43.60913" lon="3.31524">
        <ele>317.85</ele>
        <time>2015-07-18T12:27:17Z</time>
      </trkpt>
      <trkpt lat="43.60889" lon="3.31534">
        <ele>319.3</ele>
        <time>2015-07-18T12:27:18Z</time>
      </trkpt>
      <trkpt lat="43.60865" lon="3.31542">
        <ele>321.22</ele>
        <time>2015-07-18T12:27:19Z</time>
      </trkpt>
      <trkpt lat="43.60772" lon="3.3156">
        <ele>328.43</ele>
        <time>2015-07-18T12:27:23Z</time>
      </trkpt>
      <trkpt lat="43.60747" lon="3.31552">
        <ele>330.35</ele>
        <time>2015-07-18T12:27:24Z</time>
      </trkpt>
      <trkpt lat="43.60723" lon="3.31539">
        <ele>331.79</ele>
        <time>2015-07-18T12:27:25Z</time>
      </trkpt>
      <trkpt lat="43.60702" lon="3.31519">
        <ele>333.71</ele>
        <time>2015-07-18T12:27:26Z</time>
      </trkpt>
      <trkpt lat="43.60683" lon="3.31495">
        <ele>335.64</ele>
        <time>2015-07-18T12:27:27Z</time>
      </trkpt>
      <trkpt lat="43.60668" lon="3.31467">
        <ele>337.56</ele>
        <time>2015-07-18T12:27:28Z</time>
      </trkpt>
      <trkpt lat="43.60659" lon="3.31433">
        <ele>338.52</ele>
        <time>2015-07-18T12:27:29Z</time>
      </trkpt>
      <trkpt lat="43.60651" lon="3.314">
        <ele>340.44</ele>
        <time>2015-07-18T12:27:30Z</time>
      </trkpt>
      <trkpt lat="43.60647" lon="3.31367">
        <ele>341.89</ele>
        <time>2015-07-18T12:27:31Z</time>
      </trkpt>
      <trkpt lat="43.60646" lon="3.31335">
        <ele>344.29</ele>
        <time>2015-07-18T12:27:32Z</time>
      </trkpt>
      <trkpt lat="43.60649" lon="3.31303">
        <ele>346.69</ele>
        <time>2015-07-18T12:27:33Z</time>
      </trkpt>
      <trkpt lat="43.60656" lon="3.3127">
        <ele>349.1</ele>
        <time>2015-07-18T12:27:34Z</time>
      </trkpt>
      <trkpt lat="43.60667" lon="3.31239">
        <ele>352.46</ele>
        <time>2015-07-18T12:27:35Z</time>
      </trkpt>
      <trkpt lat="43.60681" lon="3.31211">
        <ele>354.86</ele>
        <time>2015-07-18T12:27:36Z</time>
      </trkpt>
      <trkpt lat="43.60701" lon="3.31188">
        <ele>356.79</ele>
        <time>2015-07-18T12:27:37Z</time>
      </trkpt>
      <trkpt lat="43.60721" lon="3.31166">
        <ele>359.19</ele>
        <time>2015-07-18T12:27:38Z</time>
      </trkpt>
      <trkpt lat="43.60741" lon="3.31147">
        <ele>361.59</ele>
        <time>2015-07-18T12:27:39Z</time>
      </trkpt>
      <trkpt lat="43.60761" lon="3.31128">
        <ele>363.52</ele>
        <time>2015-07-18T12:27:40Z</time>
      </trkpt>
      <trkpt lat="43.60868" lon="3.30994">
        <ele>372.65</ele>
        <time>2015-07-18T12:27:46Z</time>
      </trkpt>
      <trkpt lat="43.60878" lon="3.30966">
        <ele>374.09</ele>
        <time>2015-07-18T12:27:47Z</time>
      </trkpt>
      <trkpt lat="43.60885" lon="3.30935">
        <ele>374.09</ele>
        <time>2015-07-18T12:27:48Z</time>
      </trkpt>
      <trkpt lat="43.60888" lon="3.30903">
        <ele>374.09</ele>
        <time>2015-07-18T12:27:49Z</time>
      </trkpt>
      <trkpt lat="43.60889" lon="3.30871">
        <ele>374.57</ele>
        <time>2015-07-18T12:27:50Z</time>
      </trkpt>
      <trkpt lat="43.60887" lon="3.30839">
        <ele>375.53</ele>
        <time>2015-07-18T12:27:51Z</time>
      </trkpt>
      <trkpt lat="43.60882" lon="3.30807">
        <ele>376.49</ele>
        <time>2015-07-18T12:27:52Z</time>
      </trkpt>
      <trkpt lat="43.60875" lon="3.30778">
        <ele>377.45</ele>
        <time>2015-07-18T12:27:53Z</time>
      </trkpt>
      <trkpt lat="43.60865" lon="3.30749">
        <ele>378.42</ele>
        <time>2015-07-18T12:27:54Z</time>
      </trkpt>
      <trkpt lat="43.60852" lon="3.30723">
        <ele>379.38</ele>
        <time>2015-07-18T12:27:55Z</time>
      </trkpt>
      <trkpt lat="43.60838" lon="3.30698">
        <ele>380.82</ele>
        <time>2015-07-18T12:27:56Z</time>
      </trkpt>
      <trkpt lat="43.60789" lon="3.306">
        <ele>383.22</ele>
        <time>2015-07-18T12:28:00Z</time>
      </trkpt>
      <trkpt lat="43.60781" lon="3.30574">
        <ele>383.7</ele>
        <time>2015-07-18T12:28:01Z</time>
      </trkpt>
      <trkpt lat="43.60776" lon="3.30545">
        <ele>384.18</ele>
        <time>2015-07-18T12:28:02Z</time>
      </trkpt>
      <trkpt lat="43.60774" lon="3.30515">
        <ele>384.66</ele>
        <time>2015-07-18T12:28:03Z</time>
      </trkpt>
      <trkpt lat="43.60776" lon="3.30485">
        <ele>385.15</ele>
        <time>2015-07-18T12:28:04Z</time>
      </trkpt>
      <trkpt lat="43.60781" lon="3.30454">
        <ele>386.11</ele>
        <time>2015-07-18T12:28:05Z</time>
      </trkpt>
      <trkpt lat="43.60792" lon="3.30425">
        <ele>386.59</ele>
        <time>2015-07-18T12:28:06Z</time>
      </trkpt>
      <trkpt lat="43.60805" lon="3.304">
        <ele>386.59</ele>
        <time>2015-07-18T12:28:07Z</time>
      </trkpt>
      <trkpt lat="43.6082" lon="3.30378">
        <ele>387.07</ele>
        <time>2015-07-18T12:28:08Z</time>
      </trkpt>
      <trkpt lat="43.60839" lon="3.30361">
        <ele>387.55</ele>
        <time>2015-07-18T12:28:09Z</time>
      </trkpt>
      <trkpt lat="43.6086" lon="3.30348">
        <ele>388.03</ele>
        <time>2015-07-18T12:28:10Z</time>
      </trkpt>
      <trkpt lat="43.60882" lon="3.30339">
        <ele>388.03</ele>
        <time>2015-07-18T12:28:11Z</time>
      </trkpt>
      <trkpt lat="43.60905" lon="3.30335">
        <ele>388.51</ele>
        <time>2015-07-18T12:28:12Z</time>
      </trkpt>
      <trkpt lat="43.60929" lon="3.30337">
        <ele>388.51</ele>
        <time>2015-07-18T12:28:13Z</time>
      </trkpt>
      <trkpt lat="43.60953" lon="3.30341">
        <ele>388.99</ele>
        <time>2015-07-18T12:28:14Z</time>
      </trkpt>
      <trkpt lat="43.60976" lon="3.3035">
        <ele>390.43</ele>
        <time>2015-07-18T12:28:15Z</time>
      </trkpt>
      <trkpt lat="43.61001" lon="3.30359">
        <ele>391.39</ele>
        <time>2015-07-18T12:28:16Z</time>
      </trkpt>
      <trkpt lat="43.61107" lon="3.30381">
        <ele>392.36</ele>
        <time>2015-07-18T12:28:20Z</time>
      </trkpt>
      <trkpt lat="43.61135" lon="3.30375">
        <ele>392.36</ele>
        <time>2015-07-18T12:28:21Z</time>
      </trkpt>
      <trkpt lat="43.6116" lon="3.30364">
        <ele>392.84</ele>
        <time>2015-07-18T12:28:22Z</time>
      </trkpt>
      <trkpt lat="43.61184" lon="3.30349">
        <ele>392.84</ele>
        <time>2015-07-18T12:28:23Z</time>
      </trkpt>
      <trkpt lat="43.61206" lon="3.30329">
        <ele>392.36</ele>
        <time>2015-07-18T12:28:24Z</time>
      </trkpt>
      <trkpt lat="43.61227" lon="3.30303">
        <ele>392.36</ele>
        <time>2015-07-18T12:28:25Z</time>
      </trkpt>
      <trkpt lat="43.61245" lon="3.30274">
        <ele>391.87</ele>
        <time>2015-07-18T12:28:26Z</time>
      </trkpt>
      <trkpt lat="43.61261" lon="3.30241">
        <ele>392.84</ele>
        <time>2015-07-18T12:28:27Z</time>
      </trkpt>
      <trkpt lat="43.61272" lon="3.30205">
        <ele>393.32</ele>
        <time>2015-07-18T12:28:28Z</time>
      </trkpt>
      <trkpt lat="43.61277" lon="3.30166">
        <ele>393.8</ele>
        <time>2015-07-18T12:28:29Z</time>
      </trkpt>
      <trkpt lat="43.61278" lon="3.30126">
        <ele>394.28</ele>
        <time>2015-07-18T12:28:30Z</time>
      </trkpt>
      <trkpt lat="43.61272" lon="3.30086">
        <ele>394.28</ele>
        <time>2015-07-18T12:28:31Z</time>
      </trkpt>
      <trkpt lat="43.61262" lon="3.30047">
        <ele>394.76</ele>
        <time>2015-07-18T12:28:32Z</time>
      </trkpt>
      <trkpt lat="43.61249" lon="3.3001">
        <ele>394.28</ele>
        <time>2015-07-18T12:28:33Z</time>
      </trkpt>
      <trkpt lat="43.61233" lon="3.29976">
        <ele>394.28</ele>
        <time>2015-07-18T12:28:34Z</time>
      </trkpt>
      <trkpt lat="43.61214" lon="3.29948">
        <ele>393.8</ele>
        <time>2015-07-18T12:28:35Z</time>
      </trkpt>
      <trkpt lat="43.61194" lon="3.29921">
        <ele>393.8</ele>
        <time>2015-07-18T12:28:36Z</time>
      </trkpt>
      <trkpt lat="43.61175" lon="3.29897">
        <ele>393.32</ele>
        <time>2015-07-18T12:28:37Z</time>
      </trkpt>
      <trkpt lat="43.61157" lon="3.29874">
        <ele>392.84</ele>
        <time>2015-07-18T12:28:38Z</time>
      </trkpt>
      <trkpt lat="43.6114" lon="3.29849">
        <ele>392.84</ele>
        <time>2015-07-18T12:28:39Z</time>
      </trkpt>
      <trkpt lat="43.61127" lon="3.29822">
        <ele>392.84</ele>
        <time>2015-07-18T12:28:40Z</time>
      </trkpt>
      <trkpt lat="43.61117" lon="3.2979">
        <ele>391.87</ele>
        <time>2015-07-18T12:28:41Z</time>
      </trkpt>
      <trkpt lat="43.6111" lon="3.29757">
        <ele>391.87</ele>
        <time>2015-07-18T12:28:42Z</time>
      </trkpt>
      <trkpt lat="43.61106" lon="3.29724">
        <ele>392.36</ele>
        <time>2015-07-18T12:28:43Z</time>
      </trkpt>
      <trkpt lat="43.61105" lon="3.29692">
        <ele>392.36</ele>
        <time>2015-07-18T12:28:44Z</time>
      </trkpt>
      <trkpt lat="43.61105" lon="3.29661">
        <ele>392.36</ele>
        <time>2015-07-18T12:28:45Z</time>
      </trkpt>
      <trkpt lat="43.61103" lon="3.29445">
        <ele>388.99</ele>
        <time>2015-07-18T12:28:53Z</time>
      </trkpt>
      <trkpt lat="43.61097" lon="3.29198">
        <ele>381.3</ele>
        <time>2015-07-18T12:29:02Z</time>
      </trkpt>
      <trkpt lat="43.61095" lon="3.28972">
        <ele>376.01</ele>
        <time>2015-07-18T12:29:09Z</time>
      </trkpt>
      <trkpt lat="43.61092" lon="3.28579">
        <ele>373.13</ele>
        <time>2015-07-18T12:29:22Z</time>
      </trkpt>
      <trkpt lat="43.61057" lon="3.28401">
        <ele>373.61</ele>
        <time>2015-07-18T12:29:27Z</time>
      </trkpt>
      <trkpt lat="43.60904" lon="3.27917">
        <ele>381.3</ele>
        <time>2015-07-18T12:29:41Z</time>
      </trkpt>
      <trkpt lat="43.60753" lon="3.27425">
        <ele>398.12</ele>
        <time>2015-07-18T12:29:56Z</time>
      </trkpt>
      <trkpt lat="43.60738" lon="3.27319">
        <ele>400.05</ele>
        <time>2015-07-18T12:29:59Z</time>
      </trkpt>
      <trkpt lat="43.60737" lon="3.27283">
        <ele>400.53</ele>
        <time>2015-07-18T12:30:00Z</time>
      </trkpt>
      <trkpt lat="43.6074" lon="3.27249">
        <ele>401.01</ele>
        <time>2015-07-18T12:30:01Z</time>
      </trkpt>
      <trkpt lat="43.60745" lon="3.27215">
        <ele>401.49</ele>
        <time>2015-07-18T12:30:02Z</time>
      </trkpt>
      <trkpt lat="43.60753" lon="3.27186">
        <ele>401.49</ele>
        <time>2015-07-18T12:30:03Z</time>
      </trkpt>
      <trkpt lat="43.60763" lon="3.27158">
        <ele>401.97</ele>
        <time>2015-07-18T12:30:04Z</time>
      </trkpt>
      <trkpt lat="43.60774" lon="3.27132">
        <ele>402.45</ele>
        <time>2015-07-18T12:30:05Z</time>
      </trkpt>
      <trkpt lat="43.60785" lon="3.2711">
        <ele>403.41</ele>
        <time>2015-07-18T12:30:06Z</time>
      </trkpt>
      <trkpt lat="43.60798" lon="3.27089">
        <ele>403.89</ele>
        <time>2015-07-18T12:30:07Z</time>
      </trkpt>
      <trkpt lat="43.60811" lon="3.2707">
        <ele>404.37</ele>
        <time>2015-07-18T12:30:08Z</time>
      </trkpt>
      <trkpt lat="43.60826" lon="3.27051">
        <ele>405.33</ele>
        <time>2015-07-18T12:30:09Z</time>
      </trkpt>
      <trkpt lat="43.60842" lon="3.27033">
        <ele>405.33</ele>
        <time>2015-07-18T12:30:10Z</time>
      </trkpt>
      <trkpt lat="43.6104" lon="3.2686">
        <ele>409.66</ele>
        <time>2015-07-18T12:30:21Z</time>
      </trkpt>
      <trkpt lat="43.61193" lon="3.26766">
        <ele>410.14</ele>
        <time>2015-07-18T12:30:28Z</time>
      </trkpt>
      <trkpt lat="43.61248" lon="3.26712">
        <ele>411.1</ele>
        <time>2015-07-18T12:30:31Z</time>
      </trkpt>
      <trkpt lat="43.61263" lon="3.26691">
        <ele>411.58</ele>
        <time>2015-07-18T12:30:32Z</time>
      </trkpt>
      <trkpt lat="43.61276" lon="3.26668">
        <ele>411.58</ele>
        <time>2015-07-18T12:30:33Z</time>
      </trkpt>
      <trkpt lat="43.61288" lon="3.26642">
        <ele>411.58</ele>
        <time>2015-07-18T12:30:34Z</time>
      </trkpt>
      <trkpt lat="43.61298" lon="3.26616">
        <ele>411.58</ele>
        <time>2015-07-18T12:30:35Z</time>
      </trkpt>
      <trkpt lat="43.61305" lon="3.26588">
        <ele>411.58</ele>
        <time>2015-07-18T12:30:36Z</time>
      </trkpt>
      <trkpt lat="43.61311" lon="3.2656">
        <ele>411.58</ele>
        <time>2015-07-18T12:30:37Z</time>
      </trkpt>
      <trkpt lat="43.61314" lon="3.26531">
        <ele>412.06</ele>
        <time>2015-07-18T12:30:38Z</time>
      </trkpt>
      <trkpt lat="43.61316" lon="3.26501">
        <ele>412.54</ele>
        <time>2015-07-18T12:30:39Z</time>
      </trkpt>
      <trkpt lat="43.61316" lon="3.26472">
        <ele>412.54</ele>
        <time>2015-07-18T12:30:40Z</time>
      </trkpt>
      <trkpt lat="43.61315" lon="3.26442">
        <ele>413.02</ele>
        <time>2015-07-18T12:30:41Z</time>
      </trkpt>
      <trkpt lat="43.61312" lon="3.26414">
        <ele>413.5</ele>
        <time>2015-07-18T12:30:42Z</time>
      </trkpt>
      <trkpt lat="43.61309" lon="3.26386">
        <ele>413.98</ele>
        <time>2015-07-18T12:30:43Z</time>
      </trkpt>
      <trkpt lat="43.61274" lon="3.26162">
        <ele>416.87</ele>
        <time>2015-07-18T12:30:50Z</time>
      </trkpt>
      <trkpt lat="43.61235" lon="3.25783">
        <ele>422.64</ele>
        <time>2015-07-18T12:31:00Z</time>
      </trkpt>
      <trkpt lat="43.61241" lon="3.25743">
        <ele>423.12</ele>
        <time>2015-07-18T12:31:01Z</time>
      </trkpt>
      <trkpt lat="43.61251" lon="3.25704">
        <ele>423.6</ele>
        <time>2015-07-18T12:31:02Z</time>
      </trkpt>
      <trkpt lat="43.61264" lon="3.25668">
        <ele>424.08</ele>
        <time>2015-07-18T12:31:03Z</time>
      </trkpt>
      <trkpt lat="43.61282" lon="3.25635">
        <ele>424.56</ele>
        <time>2015-07-18T12:31:04Z</time>
      </trkpt>
      <trkpt lat="43.61307" lon="3.25606">
        <ele>424.56</ele>
        <time>2015-07-18T12:31:05Z</time>
      </trkpt>
      <trkpt lat="43.6133" lon="3.2558">
        <ele>424.56</ele>
        <time>2015-07-18T12:31:06Z</time>
      </trkpt>
      <trkpt lat="43.61352" lon="3.25556">
        <ele>424.08</ele>
        <time>2015-07-18T12:31:07Z</time>
      </trkpt>
      <trkpt lat="43.61477" lon="3.25422">
        <ele>425.52</ele>
        <time>2015-07-18T12:31:14Z</time>
      </trkpt>
      <trkpt lat="43.61645" lon="3.25207">
        <ele>424.08</ele>
        <time>2015-07-18T12:31:25Z</time>
      </trkpt>
      <trkpt lat="43.61813" lon="3.24941">
        <ele>417.35</ele>
        <time>2015-07-18T12:31:35Z</time>
      </trkpt>
      <trkpt lat="43.61938" lon="3.24737">
        <ele>414.95</ele>
        <time>2015-07-18T12:31:44Z</time>
      </trkpt>
      <trkpt lat="43.62037" lon="3.24521">
        <ele>412.06</ele>
        <time>2015-07-18T12:31:53Z</time>
      </trkpt>
      <trkpt lat="43.62103" lon="3.24272">
        <ele>413.02</ele>
        <time>2015-07-18T12:32:02Z</time>
      </trkpt>
      <trkpt lat="43.62201" lon="3.23951">
        <ele>414.47</ele>
        <time>2015-07-18T12:32:14Z</time>
      </trkpt>
      <trkpt lat="43.62292" lon="3.23744">
        <ele>418.31</ele>
        <time>2015-07-18T12:32:22Z</time>
      </trkpt>
      <trkpt lat="43.623" lon="3.23716">
        <ele>418.79</ele>
        <time>2015-07-18T12:32:23Z</time>
      </trkpt>
      <trkpt lat="43.62305" lon="3.23687">
        <ele>419.27</ele>
        <time>2015-07-18T12:32:24Z</time>
      </trkpt>
      <trkpt lat="43.62307" lon="3.23657">
        <ele>419.75</ele>
        <time>2015-07-18T12:32:25Z</time>
      </trkpt>
      <trkpt lat="43.62307" lon="3.23627">
        <ele>420.23</ele>
        <time>2015-07-18T12:32:26Z</time>
      </trkpt>
      <trkpt lat="43.62305" lon="3.23597">
        <ele>421.19</ele>
        <time>2015-07-18T12:32:27Z</time>
      </trkpt>
      <trkpt lat="43.62306" lon="3.23452">
        <ele>423.12</ele>
        <time>2015-07-18T12:32:32Z</time>
      </trkpt>
      <trkpt lat="43.62311" lon="3.23423">
        <ele>423.6</ele>
        <time>2015-07-18T12:32:33Z</time>
      </trkpt>
      <trkpt lat="43.62318" lon="3.23395">
        <ele>423.6</ele>
        <time>2015-07-18T12:32:34Z</time>
      </trkpt>
      <trkpt lat="43.62327" lon="3.23368">
        <ele>423.6</ele>
        <time>2015-07-18T12:32:35Z</time>
      </trkpt>
      <trkpt lat="43.62338" lon="3.23342">
        <ele>423.6</ele>
        <time>2015-07-18T12:32:36Z</time>
      </trkpt>
      <trkpt lat="43.62352" lon="3.23318">
        <ele>423.12</ele>
        <time>2015-07-18T12:32:37Z</time>
      </trkpt>
      <trkpt lat="43.62368" lon="3.23295">
        <ele>423.12</ele>
        <time>2015-07-18T12:32:38Z</time>
      </trkpt>
      <trkpt lat="43.62385" lon="3.23276">
        <ele>423.12</ele>
        <time>2015-07-18T12:32:39Z</time>
      </trkpt>
      <trkpt lat="43.62404" lon="3.23258">
        <ele>422.16</ele>
        <time>2015-07-18T12:32:40Z</time>
      </trkpt>
      <trkpt lat="43.62423" lon="3.23243">
        <ele>421.68</ele>
        <time>2015-07-18T12:32:41Z</time>
      </trkpt>
      <trkpt lat="43.62579" lon="3.23079">
        <ele>410.62</ele>
        <time>2015-07-18T12:32:50Z</time>
      </trkpt>
      <trkpt lat="43.62591" lon="3.23053">
        <ele>408.7</ele>
        <time>2015-07-18T12:32:51Z</time>
      </trkpt>
      <trkpt lat="43.62601" lon="3.23026">
        <ele>406.77</ele>
        <time>2015-07-18T12:32:52Z</time>
      </trkpt>
      <trkpt lat="43.62696" lon="3.22759">
        <ele>389.47</ele>
        <time>2015-07-18T12:33:02Z</time>
      </trkpt>
      <trkpt lat="43.62708" lon="3.22737">
        <ele>388.03</ele>
        <time>2015-07-18T12:33:03Z</time>
      </trkpt>
      <trkpt lat="43.62722" lon="3.22716">
        <ele>386.59</ele>
        <time>2015-07-18T12:33:04Z</time>
      </trkpt>
      <trkpt lat="43.62738" lon="3.22698">
        <ele>385.63</ele>
        <time>2015-07-18T12:33:05Z</time>
      </trkpt>
      <trkpt lat="43.62756" lon="3.22684">
        <ele>384.18</ele>
        <time>2015-07-18T12:33:06Z</time>
      </trkpt>
      <trkpt lat="43.62774" lon="3.22669">
        <ele>382.26</ele>
        <time>2015-07-18T12:33:07Z</time>
      </trkpt>
      <trkpt lat="43.62864" lon="3.22552">
        <ele>374.57</ele>
        <time>2015-07-18T12:33:13Z</time>
      </trkpt>
      <trkpt lat="43.62991" lon="3.22303">
        <ele>362.07</ele>
        <time>2015-07-18T12:33:23Z</time>
      </trkpt>
      <trkpt lat="43.62998" lon="3.22277">
        <ele>360.63</ele>
        <time>2015-07-18T12:33:24Z</time>
      </trkpt>
      <trkpt lat="43.63003" lon="3.22249">
        <ele>359.19</ele>
        <time>2015-07-18T12:33:25Z</time>
      </trkpt>
      <trkpt lat="43.63006" lon="3.22221">
        <ele>357.75</ele>
        <time>2015-07-18T12:33:26Z</time>
      </trkpt>
      <trkpt lat="43.63006" lon="3.22194">
        <ele>356.31</ele>
        <time>2015-07-18T12:33:27Z</time>
      </trkpt>
      <trkpt lat="43.63004" lon="3.22166">
        <ele>354.86</ele>
        <time>2015-07-18T12:33:28Z</time>
      </trkpt>
      <trkpt lat="43.62999" lon="3.22139">
        <ele>353.9</ele>
        <time>2015-07-18T12:33:29Z</time>
      </trkpt>
      <trkpt lat="43.62992" lon="3.22113">
        <ele>352.94</ele>
        <time>2015-07-18T12:33:30Z</time>
      </trkpt>
      <trkpt lat="43.62983" lon="3.22088">
        <ele>351.5</ele>
        <time>2015-07-18T12:33:31Z</time>
      </trkpt>
      <trkpt lat="43.62971" lon="3.22062">
        <ele>350.06</ele>
        <time>2015-07-18T12:33:32Z</time>
      </trkpt>
      <trkpt lat="43.62959" lon="3.22038">
        <ele>348.62</ele>
        <time>2015-07-18T12:33:33Z</time>
      </trkpt>
      <trkpt lat="43.6275" lon="3.21667">
        <ele>331.79</ele>
        <time>2015-07-18T12:33:49Z</time>
      </trkpt>
      <trkpt lat="43.62734" lon="3.21651">
        <ele>330.35</ele>
        <time>2015-07-18T12:33:50Z</time>
      </trkpt>
      <trkpt lat="43.62715" lon="3.21638">
        <ele>329.87</ele>
        <time>2015-07-18T12:33:51Z</time>
      </trkpt>
      <trkpt lat="43.62696" lon="3.21626">
        <ele>329.39</ele>
        <time>2015-07-18T12:33:52Z</time>
      </trkpt>
      <trkpt lat="43.62677" lon="3.21615">
        <ele>328.91</ele>
        <time>2015-07-18T12:33:53Z</time>
      </trkpt>
      <trkpt lat="43.62601" lon="3.2156">
        <ele>326.02</ele>
        <time>2015-07-18T12:33:57Z</time>
      </trkpt>
      <trkpt lat="43.62585" lon="3.2154">
        <ele>325.06</ele>
        <time>2015-07-18T12:33:58Z</time>
      </trkpt>
      <trkpt lat="43.62571" lon="3.21518">
        <ele>324.1</ele>
        <time>2015-07-18T12:33:59Z</time>
      </trkpt>
      <trkpt lat="43.62558" lon="3.21494">
        <ele>323.14</ele>
        <time>2015-07-18T12:34:00Z</time>
      </trkpt>
      <trkpt lat="43.62546" lon="3.21469">
        <ele>322.66</ele>
        <time>2015-07-18T12:34:01Z</time>
      </trkpt>
      <trkpt lat="43.62504" lon="3.21368">
        <ele>318.33</ele>
        <time>2015-07-18T12:34:05Z</time>
      </trkpt>
      <trkpt lat="43.62497" lon="3.2134">
        <ele>317.85</ele>
        <time>2015-07-18T12:34:06Z</time>
      </trkpt>
      <trkpt lat="43.62493" lon="3.21311">
        <ele>316.89</ele>
        <time>2015-07-18T12:34:07Z</time>
      </trkpt>
      <trkpt lat="43.6249" lon="3.21282">
        <ele>315.93</ele>
        <time>2015-07-18T12:34:08Z</time>
      </trkpt>
      <trkpt lat="43.62488" lon="3.21252">
        <ele>314.97</ele>
        <time>2015-07-18T12:34:09Z</time>
      </trkpt>
      <trkpt lat="43.62463" lon="3.20933">
        <ele>309.68</ele>
        <time>2015-07-18T12:34:20Z</time>
      </trkpt>
      <trkpt lat="43.62454" lon="3.20907">
        <ele>309.68</ele>
        <time>2015-07-18T12:34:21Z</time>
      </trkpt>
      <trkpt lat="43.62443" lon="3.20882">
        <ele>309.2</ele>
        <time>2015-07-18T12:34:22Z</time>
      </trkpt>
      <trkpt lat="43.62429" lon="3.20859">
        <ele>308.72</ele>
        <time>2015-07-18T12:34:23Z</time>
      </trkpt>
      <trkpt lat="43.62414" lon="3.20838">
        <ele>308.72</ele>
        <time>2015-07-18T12:34:24Z</time>
      </trkpt>
      <trkpt lat="43.62397" lon="3.2082">
        <ele>308.72</ele>
        <time>2015-07-18T12:34:25Z</time>
      </trkpt>
      <trkpt lat="43.62379" lon="3.20805">
        <ele>308.72</ele>
        <time>2015-07-18T12:34:26Z</time>
      </trkpt>
      <trkpt lat="43.6236" lon="3.20791">
        <ele>308.72</ele>
        <time>2015-07-18T12:34:27Z</time>
      </trkpt>
      <trkpt lat="43.62127" lon="3.20615">
        <ele>305.36</ele>
        <time>2015-07-18T12:34:40Z</time>
      </trkpt>
      <trkpt lat="43.62036" lon="3.2049">
        <ele>302.47</ele>
        <time>2015-07-18T12:34:46Z</time>
      </trkpt>
      <trkpt lat="43.61921" lon="3.20242">
        <ele>295.74</ele>
        <time>2015-07-18T12:34:56Z</time>
      </trkpt>
      <trkpt lat="43.61882" lon="3.20081">
        <ele>291.9</ele>
        <time>2015-07-18T12:35:02Z</time>
      </trkpt>
      <trkpt lat="43.61831" lon="3.1958">
        <ele>285.17</ele>
        <time>2015-07-18T12:35:19Z</time>
      </trkpt>
      <trkpt lat="43.6177" lon="3.19358">
        <ele>288.05</ele>
        <time>2015-07-18T12:35:27Z</time>
      </trkpt>
      <trkpt lat="43.61622" lon="3.18966">
        <ele>290.94</ele>
        <time>2015-07-18T12:35:42Z</time>
      </trkpt>
      <trkpt lat="43.61532" lon="3.18718">
        <ele>284.69</ele>
        <time>2015-07-18T12:35:51Z</time>
      </trkpt>
      <trkpt lat="43.6145" lon="3.18497">
        <ele>275.56</ele>
        <time>2015-07-18T12:35:59Z</time>
      </trkpt>
      <trkpt lat="43.61239" lon="3.18131">
        <ele>256.33</ele>
        <time>2015-07-18T12:36:14Z</time>
      </trkpt>
      <trkpt lat="43.61209" lon="3.18045">
        <ele>253.93</ele>
        <time>2015-07-18T12:36:17Z</time>
      </trkpt>
      <trkpt lat="43.61203" lon="3.18015">
        <ele>253.44</ele>
        <time>2015-07-18T12:36:18Z</time>
      </trkpt>
      <trkpt lat="43.61199" lon="3.17984">
        <ele>252.96</ele>
        <time>2015-07-18T12:36:19Z</time>
      </trkpt>
      <trkpt lat="43.61197" lon="3.17953">
        <ele>252</ele>
        <time>2015-07-18T12:36:20Z</time>
      </trkpt>
      <trkpt lat="43.61197" lon="3.17922">
        <ele>252</ele>
        <time>2015-07-18T12:36:21Z</time>
      </trkpt>
      <trkpt lat="43.61198" lon="3.17892">
        <ele>251.52</ele>
        <time>2015-07-18T12:36:22Z</time>
      </trkpt>
      <trkpt lat="43.61204" lon="3.17598">
        <ele>244.79</ele>
        <time>2015-07-18T12:36:32Z</time>
      </trkpt>
      <trkpt lat="43.61155" lon="3.17441">
        <ele>238.54</ele>
        <time>2015-07-18T12:36:38Z</time>
      </trkpt>
      <trkpt lat="43.61087" lon="3.17276">
        <ele>236.14</ele>
        <time>2015-07-18T12:36:46Z</time>
      </trkpt>
      <trkpt lat="43.61072" lon="3.17239">
        <ele>237.1</ele>
        <time>2015-07-18T12:36:49Z</time>
      </trkpt>
      <trkpt lat="43.61069" lon="3.1723">
        <ele>237.58</ele>
        <time>2015-07-18T12:36:50Z</time>
      </trkpt>
      <trkpt lat="43.61067" lon="3.1722">
        <ele>237.58</ele>
        <time>2015-07-18T12:36:51Z</time>
      </trkpt>
      <trkpt lat="43.61067" lon="3.17208">
        <ele>237.58</ele>
        <time>2015-07-18T12:36:52Z</time>
      </trkpt>
      <trkpt lat="43.61069" lon="3.17195">
        <ele>238.06</ele>
        <time>2015-07-18T12:36:53Z</time>
      </trkpt>
      <trkpt lat="43.61072" lon="3.17181">
        <ele>237.58</ele>
        <time>2015-07-18T12:36:54Z</time>
      </trkpt>
      <trkpt lat="43.61078" lon="3.17168">
        <ele>237.58</ele>
        <time>2015-07-18T12:36:55Z</time>
      </trkpt>
      <trkpt lat="43.61087" lon="3.17156">
        <ele>237.1</ele>
        <time>2015-07-18T12:36:56Z</time>
      </trkpt>
      <trkpt lat="43.61097" lon="3.17145">
        <ele>236.62</ele>
        <time>2015-07-18T12:36:57Z</time>
      </trkpt>
      <trkpt lat="43.61108" lon="3.17135">
        <ele>236.62</ele>
        <time>2015-07-18T12:36:58Z</time>
      </trkpt>
      <trkpt lat="43.61173" lon="3.17068">
        <ele>237.58</ele>
        <time>2015-07-18T12:37:05Z</time>
      </trkpt>
      <trkpt lat="43.6118" lon="3.1706">
        <ele>238.06</ele>
        <time>2015-07-18T12:37:06Z</time>
      </trkpt>
      <trkpt lat="43.61223" lon="3.17008">
        <ele>239.51</ele>
        <time>2015-07-18T12:37:14Z</time>
      </trkpt>
      <trkpt lat="43.61229" lon="3.17003">
        <ele>239.99</ele>
        <time>2015-07-18T12:37:15Z</time>
      </trkpt>
      <trkpt lat="43.61235" lon="3.16997">
        <ele>240.47</ele>
        <time>2015-07-18T12:37:16Z</time>
      </trkpt>
      <trkpt lat="43.61239" lon="3.1699">
        <ele>240.95</ele>
        <time>2015-07-18T12:37:17Z</time>
      </trkpt>
      <trkpt lat="43.61241" lon="3.16979">
        <ele>240.47</ele>
        <time>2015-07-18T12:37:18Z</time>
      </trkpt>
      <trkpt lat="43.6124" lon="3.16967">
        <ele>240.47</ele>
        <time>2015-07-18T12:37:19Z</time>
      </trkpt>
      <trkpt lat="43.61239" lon="3.16954">
        <ele>239.99</ele>
        <time>2015-07-18T12:37:20Z</time>
      </trkpt>
      <trkpt lat="43.61236" lon="3.16924">
        <ele>239.51</ele>
        <time>2015-07-18T12:37:22Z</time>
      </trkpt>
      <trkpt lat="43.61232" lon="3.16909">
        <ele>239.51</ele>
        <time>2015-07-18T12:37:23Z</time>
      </trkpt>
      <trkpt lat="43.61222" lon="3.16861">
        <ele>238.06</ele>
        <time>2015-07-18T12:37:26Z</time>
      </trkpt>
      <trkpt lat="43.61221" lon="3.16845">
        <ele>237.58</ele>
        <time>2015-07-18T12:37:27Z</time>
      </trkpt>
      <trkpt lat="43.61221" lon="3.16828">
        <ele>237.58</ele>
        <time>2015-07-18T12:37:28Z</time>
      </trkpt>
      <trkpt lat="43.61228" lon="3.16673">
        <ele>231.81</ele>
        <time>2015-07-18T12:37:38Z</time>
      </trkpt>
      <trkpt lat="43.6123" lon="3.16664">
        <ele>231.33</ele>
        <time>2015-07-18T12:37:39Z</time>
      </trkpt>
      <trkpt lat="43.61235" lon="3.16648">
        <ele>230.85</ele>
        <time>2015-07-18T12:37:41Z</time>
      </trkpt>
      <trkpt lat="43.61234" lon="3.1664">
        <ele>230.37</ele>
        <time>2015-07-18T12:37:42Z</time>
      </trkpt>
      <trkpt lat="43.61229" lon="3.16636">
        <ele>229.89</ele>
        <time>2015-07-18T12:37:43Z</time>
      </trkpt>
      <trkpt lat="43.61223" lon="3.16635">
        <ele>229.41</ele>
        <time>2015-07-18T12:37:44Z</time>
      </trkpt>
      <trkpt lat="43.61215" lon="3.16635">
        <ele>229.41</ele>
        <time>2015-07-18T12:37:45Z</time>
      </trkpt>
      <trkpt lat="43.61206" lon="3.16636">
        <ele>229.41</ele>
        <time>2015-07-18T12:37:46Z</time>
      </trkpt>
      <trkpt lat="43.61196" lon="3.16635">
        <ele>229.41</ele>
        <time>2015-07-18T12:37:47Z</time>
      </trkpt>
      <trkpt lat="43.61054" lon="3.16601">
        <ele>225.57</ele>
        <time>2015-07-18T12:38:00Z</time>
      </trkpt>
      <trkpt lat="43.60953" lon="3.1653">
        <ele>221.24</ele>
        <time>2015-07-18T12:38:09Z</time>
      </trkpt>
      <trkpt lat="43.60921" lon="3.16493">
        <ele>219.8</ele>
        <time>2015-07-18T12:38:13Z</time>
      </trkpt>
      <trkpt lat="43.60916" lon="3.16486">
        <ele>219.8</ele>
        <time>2015-07-18T12:38:14Z</time>
      </trkpt>
      <trkpt lat="43.60912" lon="3.16477">
        <ele>220.28</ele>
        <time>2015-07-18T12:38:15Z</time>
      </trkpt>
      <trkpt lat="43.60909" lon="3.16468">
        <ele>219.8</ele>
        <time>2015-07-18T12:38:16Z</time>
      </trkpt>
      <trkpt lat="43.60906" lon="3.16459">
        <ele>219.32</ele>
        <time>2015-07-18T12:38:17Z</time>
      </trkpt>
      <trkpt lat="43.60901" lon="3.16452">
        <ele>217.88</ele>
        <time>2015-07-18T12:38:18Z</time>
      </trkpt>
      <trkpt lat="43.60894" lon="3.1645">
        <ele>217.88</ele>
        <time>2015-07-18T12:38:19Z</time>
      </trkpt>
      <trkpt lat="43.60884" lon="3.16452">
        <ele>217.4</ele>
        <time>2015-07-18T12:38:20Z</time>
      </trkpt>
      <trkpt lat="43.60871" lon="3.16454">
        <ele>217.4</ele>
        <time>2015-07-18T12:38:21Z</time>
      </trkpt>
      <trkpt lat="43.60858" lon="3.16456">
        <ele>217.4</ele>
        <time>2015-07-18T12:38:22Z</time>
      </trkpt>
      <trkpt lat="43.60733" lon="3.16456">
        <ele>221.72</ele>
        <time>2015-07-18T12:38:30Z</time>
      </trkpt>
      <trkpt lat="43.60651" lon="3.16448">
        <ele>225.57</ele>
        <time>2015-07-18T12:38:35Z</time>
      </trkpt>
      <trkpt lat="43.60635" lon="3.1645">
        <ele>226.53</ele>
        <time>2015-07-18T12:38:36Z</time>
      </trkpt>
      <trkpt lat="43.60621" lon="3.16455">
        <ele>227.49</ele>
        <time>2015-07-18T12:38:37Z</time>
      </trkpt>
      <trkpt lat="43.60524" lon="3.16493">
        <ele>234.22</ele>
        <time>2015-07-18T12:38:44Z</time>
      </trkpt>
      <trkpt lat="43.60491" lon="3.16506">
        <ele>236.14</ele>
        <time>2015-07-18T12:38:46Z</time>
      </trkpt>
      <trkpt lat="43.60476" lon="3.16516">
        <ele>237.1</ele>
        <time>2015-07-18T12:38:47Z</time>
      </trkpt>
      <trkpt lat="43.60462" lon="3.16528">
        <ele>238.06</ele>
        <time>2015-07-18T12:38:48Z</time>
      </trkpt>
      <trkpt lat="43.6042" lon="3.16561">
        <ele>240.95</ele>
        <time>2015-07-18T12:38:51Z</time>
      </trkpt>
      <trkpt lat="43.60405" lon="3.16568">
        <ele>241.91</ele>
        <time>2015-07-18T12:38:52Z</time>
      </trkpt>
      <trkpt lat="43.60389" lon="3.1657">
        <ele>242.87</ele>
        <time>2015-07-18T12:38:53Z</time>
      </trkpt>
      <trkpt lat="43.60374" lon="3.16565">
        <ele>243.83</ele>
        <time>2015-07-18T12:38:54Z</time>
      </trkpt>
      <trkpt lat="43.60361" lon="3.16554">
        <ele>244.31</ele>
        <time>2015-07-18T12:38:55Z</time>
      </trkpt>
      <trkpt lat="43.60352" lon="3.16534">
        <ele>245.75</ele>
        <time>2015-07-18T12:38:56Z</time>
      </trkpt>
      <trkpt lat="43.60345" lon="3.16513">
        <ele>247.2</ele>
        <time>2015-07-18T12:38:57Z</time>
      </trkpt>
      <trkpt lat="43.60336" lon="3.16494">
        <ele>249.12</ele>
        <time>2015-07-18T12:38:58Z</time>
      </trkpt>
      <trkpt lat="43.60326" lon="3.16475">
        <ele>250.08</ele>
        <time>2015-07-18T12:38:59Z</time>
      </trkpt>
      <trkpt lat="43.60313" lon="3.16451">
        <ele>251.52</ele>
        <time>2015-07-18T12:39:00Z</time>
      </trkpt>
      <trkpt lat="43.60268" lon="3.16391">
        <ele>255.37</ele>
        <time>2015-07-18T12:39:03Z</time>
      </trkpt>
      <trkpt lat="43.60251" lon="3.16375">
        <ele>256.33</ele>
        <time>2015-07-18T12:39:04Z</time>
      </trkpt>
      <trkpt lat="43.60232" lon="3.16363">
        <ele>257.29</ele>
        <time>2015-07-18T12:39:05Z</time>
      </trkpt>
      <trkpt lat="43.60212" lon="3.16355">
        <ele>258.25</ele>
        <time>2015-07-18T12:39:06Z</time>
      </trkpt>
      <trkpt lat="43.60188" lon="3.16352">
        <ele>259.21</ele>
        <time>2015-07-18T12:39:07Z</time>
      </trkpt>
      <trkpt lat="43.60163" lon="3.16353">
        <ele>260.17</ele>
        <time>2015-07-18T12:39:08Z</time>
      </trkpt>
      <trkpt lat="43.60137" lon="3.16359">
        <ele>261.14</ele>
        <time>2015-07-18T12:39:09Z</time>
      </trkpt>
      <trkpt lat="43.60112" lon="3.16371">
        <ele>262.1</ele>
        <time>2015-07-18T12:39:10Z</time>
      </trkpt>
      <trkpt lat="43.60089" lon="3.16389">
        <ele>263.54</ele>
        <time>2015-07-18T12:39:11Z</time>
      </trkpt>
      <trkpt lat="43.60069" lon="3.1641">
        <ele>264.02</ele>
        <time>2015-07-18T12:39:12Z</time>
      </trkpt>
      <trkpt lat="43.6005" lon="3.16437">
        <ele>265.46</ele>
        <time>2015-07-18T12:39:13Z</time>
      </trkpt>
      <trkpt lat="43.60033" lon="3.16466">
        <ele>266.9</ele>
        <time>2015-07-18T12:39:14Z</time>
      </trkpt>
      <trkpt lat="43.60019" lon="3.16495">
        <ele>269.31</ele>
        <time>2015-07-18T12:39:15Z</time>
      </trkpt>
      <trkpt lat="43.60009" lon="3.16524">
        <ele>271.23</ele>
        <time>2015-07-18T12:39:16Z</time>
      </trkpt>
      <trkpt lat="43.60003" lon="3.16549">
        <ele>272.67</ele>
        <time>2015-07-18T12:39:17Z</time>
      </trkpt>
      <trkpt lat="43.6" lon="3.16587">
        <ele>274.59</ele>
        <time>2015-07-18T12:39:19Z</time>
      </trkpt>
      <trkpt lat="43.59998" lon="3.16603">
        <ele>275.56</ele>
        <time>2015-07-18T12:39:20Z</time>
      </trkpt>
      <trkpt lat="43.59993" lon="3.16618">
        <ele>276.52</ele>
        <time>2015-07-18T12:39:21Z</time>
      </trkpt>
      <trkpt lat="43.59985" lon="3.16632">
        <ele>277.48</ele>
        <time>2015-07-18T12:39:22Z</time>
      </trkpt>
      <trkpt lat="43.59978" lon="3.16647">
        <ele>277.96</ele>
        <time>2015-07-18T12:39:23Z</time>
      </trkpt>
      <trkpt lat="43.59972" lon="3.16663">
        <ele>278.44</ele>
        <time>2015-07-18T12:39:24Z</time>
      </trkpt>
      <trkpt lat="43.5997" lon="3.16681">
        <ele>278.92</ele>
        <time>2015-07-18T12:39:25Z</time>
      </trkpt>
      <trkpt lat="43.59971" lon="3.16697">
        <ele>279.4</ele>
        <time>2015-07-18T12:39:26Z</time>
      </trkpt>
      <trkpt lat="43.59974" lon="3.16712">
        <ele>279.88</ele>
        <time>2015-07-18T12:39:27Z</time>
      </trkpt>
      <trkpt lat="43.59976" lon="3.16728">
        <ele>280.84</ele>
        <time>2015-07-18T12:39:28Z</time>
      </trkpt>
      <trkpt lat="43.59976" lon="3.16745">
        <ele>281.32</ele>
        <time>2015-07-18T12:39:29Z</time>
      </trkpt>
      <trkpt lat="43.59972" lon="3.16761">
        <ele>281.8</ele>
        <time>2015-07-18T12:39:30Z</time>
      </trkpt>
      <trkpt lat="43.59964" lon="3.16775">
        <ele>282.77</ele>
        <time>2015-07-18T12:39:31Z</time>
      </trkpt>
      <trkpt lat="43.59954" lon="3.16785">
        <ele>283.73</ele>
        <time>2015-07-18T12:39:32Z</time>
      </trkpt>
      <trkpt lat="43.59944" lon="3.16795">
        <ele>285.17</ele>
        <time>2015-07-18T12:39:33Z</time>
      </trkpt>
      <trkpt lat="43.59936" lon="3.16806">
        <ele>286.13</ele>
        <time>2015-07-18T12:39:34Z</time>
      </trkpt>
      <trkpt lat="43.59931" lon="3.1682">
        <ele>286.13</ele>
        <time>2015-07-18T12:39:35Z</time>
      </trkpt>
      <trkpt lat="43.59928" lon="3.16835">
        <ele>286.61</ele>
        <time>2015-07-18T12:39:36Z</time>
      </trkpt>
      <trkpt lat="43.59931" lon="3.16849">
        <ele>286.61</ele>
        <time>2015-07-18T12:39:37Z</time>
      </trkpt>
      <trkpt lat="43.59943" lon="3.1686">
        <ele>287.09</ele>
        <time>2015-07-18T12:39:38Z</time>
      </trkpt>
      <trkpt lat="43.59954" lon="3.16866">
        <ele>287.57</ele>
        <time>2015-07-18T12:39:39Z</time>
      </trkpt>
      <trkpt lat="43.59966" lon="3.16871">
        <ele>288.05</ele>
        <time>2015-07-18T12:39:40Z</time>
      </trkpt>
      <trkpt lat="43.59979" lon="3.16872">
        <ele>289.01</ele>
        <time>2015-07-18T12:39:41Z</time>
      </trkpt>
      <trkpt lat="43.5999" lon="3.16876">
        <ele>289.97</ele>
        <time>2015-07-18T12:39:42Z</time>
      </trkpt>
      <trkpt lat="43.60001" lon="3.16883">
        <ele>289.97</ele>
        <time>2015-07-18T12:39:43Z</time>
      </trkpt>
      <trkpt lat="43.6001" lon="3.16894">
        <ele>290.94</ele>
        <time>2015-07-18T12:39:44Z</time>
      </trkpt>
      <trkpt lat="43.60016" lon="3.16908">
        <ele>291.9</ele>
        <time>2015-07-18T12:39:45Z</time>
      </trkpt>
      <trkpt lat="43.60018" lon="3.16926">
        <ele>293.82</ele>
        <time>2015-07-18T12:39:46Z</time>
      </trkpt>
      <trkpt lat="43.60018" lon="3.16945">
        <ele>294.3</ele>
        <time>2015-07-18T12:39:47Z</time>
      </trkpt>
      <trkpt lat="43.60019" lon="3.16965">
        <ele>295.74</ele>
        <time>2015-07-18T12:39:48Z</time>
      </trkpt>
      <trkpt lat="43.60016" lon="3.17005">
        <ele>297.67</ele>
        <time>2015-07-18T12:39:50Z</time>
      </trkpt>
      <trkpt lat="43.60008" lon="3.17028">
        <ele>298.63</ele>
        <time>2015-07-18T12:39:51Z</time>
      </trkpt>
      <trkpt lat="43.59999" lon="3.17051">
        <ele>299.11</ele>
        <time>2015-07-18T12:39:52Z</time>
      </trkpt>
      <trkpt lat="43.59983" lon="3.17104">
        <ele>301.51</ele>
        <time>2015-07-18T12:39:54Z</time>
      </trkpt>
      <trkpt lat="43.59971" lon="3.17153">
        <ele>302.95</ele>
        <time>2015-07-18T12:39:56Z</time>
      </trkpt>
      <trkpt lat="43.59962" lon="3.17172">
        <ele>303.43</ele>
        <time>2015-07-18T12:39:57Z</time>
      </trkpt>
      <trkpt lat="43.59949" lon="3.1718">
        <ele>303.91</ele>
        <time>2015-07-18T12:39:58Z</time>
      </trkpt>
      <trkpt lat="43.59937" lon="3.17181">
        <ele>304.88</ele>
        <time>2015-07-18T12:39:59Z</time>
      </trkpt>
      <trkpt lat="43.59921" lon="3.17172">
        <ele>305.84</ele>
        <time>2015-07-18T12:40:00Z</time>
      </trkpt>
      <trkpt lat="43.59903" lon="3.17166">
        <ele>308.72</ele>
        <time>2015-07-18T12:40:01Z</time>
      </trkpt>
      <trkpt lat="43.59886" lon="3.17159">
        <ele>311.6</ele>
        <time>2015-07-18T12:40:02Z</time>
      </trkpt>
      <trkpt lat="43.59872" lon="3.17159">
        <ele>312.57</ele>
        <time>2015-07-18T12:40:03Z</time>
      </trkpt>
      <trkpt lat="43.5986" lon="3.17169">
        <ele>314.01</ele>
        <time>2015-07-18T12:40:04Z</time>
      </trkpt>
      <trkpt lat="43.59851" lon="3.17193">
        <ele>315.93</ele>
        <time>2015-07-18T12:40:05Z</time>
      </trkpt>
      <trkpt lat="43.59844" lon="3.17217">
        <ele>316.89</ele>
        <time>2015-07-18T12:40:06Z</time>
      </trkpt>
      <trkpt lat="43.59836" lon="3.17241">
        <ele>317.37</ele>
        <time>2015-07-18T12:40:07Z</time>
      </trkpt>
      <trkpt lat="43.59814" lon="3.1728">
        <ele>319.3</ele>
        <time>2015-07-18T12:40:09Z</time>
      </trkpt>
      <trkpt lat="43.59796" lon="3.17294">
        <ele>320.26</ele>
        <time>2015-07-18T12:40:10Z</time>
      </trkpt>
      <trkpt lat="43.59776" lon="3.17304">
        <ele>321.22</ele>
        <time>2015-07-18T12:40:11Z</time>
      </trkpt>
      <trkpt lat="43.59754" lon="3.17311">
        <ele>322.18</ele>
        <time>2015-07-18T12:40:12Z</time>
      </trkpt>
      <trkpt lat="43.59731" lon="3.17316">
        <ele>323.14</ele>
        <time>2015-07-18T12:40:13Z</time>
      </trkpt>
      <trkpt lat="43.59709" lon="3.17325">
        <ele>325.06</ele>
        <time>2015-07-18T12:40:14Z</time>
      </trkpt>
      <trkpt lat="43.59687" lon="3.17337">
        <ele>326.02</ele>
        <time>2015-07-18T12:40:15Z</time>
      </trkpt>
      <trkpt lat="43.59665" lon="3.1735">
        <ele>326.5</ele>
        <time>2015-07-18T12:40:16Z</time>
      </trkpt>
      <trkpt lat="43.59598" lon="3.17372">
        <ele>328.91</ele>
        <time>2015-07-18T12:40:19Z</time>
      </trkpt>
      <trkpt lat="43.59575" lon="3.17373">
        <ele>329.87</ele>
        <time>2015-07-18T12:40:20Z</time>
      </trkpt>
      <trkpt lat="43.5953" lon="3.17371">
        <ele>332.27</ele>
        <time>2015-07-18T12:40:22Z</time>
      </trkpt>
      <trkpt lat="43.59508" lon="3.17366">
        <ele>333.23</ele>
        <time>2015-07-18T12:40:23Z</time>
      </trkpt>
      <trkpt lat="43.59487" lon="3.17358">
        <ele>333.71</ele>
        <time>2015-07-18T12:40:24Z</time>
      </trkpt>
      <trkpt lat="43.59426" lon="3.17336">
        <ele>335.64</ele>
        <time>2015-07-18T12:40:27Z</time>
      </trkpt>
      <trkpt lat="43.59406" lon="3.17333">
        <ele>336.6</ele>
        <time>2015-07-18T12:40:28Z</time>
      </trkpt>
      <trkpt lat="43.59335" lon="3.17321">
        <ele>339.48</ele>
        <time>2015-07-18T12:40:32Z</time>
      </trkpt>
      <trkpt lat="43.5932" lon="3.17315">
        <ele>340.44</ele>
        <time>2015-07-18T12:40:33Z</time>
      </trkpt>
      <trkpt lat="43.59093" lon="3.17204">
        <ele>353.42</ele>
        <time>2015-07-18T12:40:54Z</time>
      </trkpt>
      <trkpt lat="43.59088" lon="3.17197">
        <ele>351.98</ele>
        <time>2015-07-18T12:40:55Z</time>
      </trkpt>
      <trkpt lat="43.5908" lon="3.17189">
        <ele>351.98</ele>
        <time>2015-07-18T12:40:56Z</time>
      </trkpt>
      <trkpt lat="43.59071" lon="3.17177">
        <ele>351.02</ele>
        <time>2015-07-18T12:40:57Z</time>
      </trkpt>
      <trkpt lat="43.59064" lon="3.17163">
        <ele>349.1</ele>
        <time>2015-07-18T12:40:58Z</time>
      </trkpt>
      <trkpt lat="43.59057" lon="3.17148">
        <ele>347.65</ele>
        <time>2015-07-18T12:40:59Z</time>
      </trkpt>
      <trkpt lat="43.5905" lon="3.17133">
        <ele>345.25</ele>
        <time>2015-07-18T12:41:00Z</time>
      </trkpt>
      <trkpt lat="43.5901" lon="3.17054">
        <ele>339.96</ele>
        <time>2015-07-18T12:41:05Z</time>
      </trkpt>
      <trkpt lat="43.58989" lon="3.17045">
        <ele>336.6</ele>
        <time>2015-07-18T12:41:07Z</time>
      </trkpt>
      <trkpt lat="43.58974" lon="3.1705">
        <ele>336.12</ele>
        <time>2015-07-18T12:41:08Z</time>
      </trkpt>
      <trkpt lat="43.58961" lon="3.17072">
        <ele>334.2</ele>
        <time>2015-07-18T12:41:09Z</time>
      </trkpt>
      <trkpt lat="43.58948" lon="3.17086">
        <ele>332.75</ele>
        <time>2015-07-18T12:41:10Z</time>
      </trkpt>
      <trkpt lat="43.58932" lon="3.17098">
        <ele>332.27</ele>
        <time>2015-07-18T12:41:11Z</time>
      </trkpt>
      <trkpt lat="43.58915" lon="3.17107">
        <ele>330.83</ele>
        <time>2015-07-18T12:41:12Z</time>
      </trkpt>
      <trkpt lat="43.58899" lon="3.17114">
        <ele>329.87</ele>
        <time>2015-07-18T12:41:13Z</time>
      </trkpt>
      <trkpt lat="43.58868" lon="3.17126">
        <ele>327.47</ele>
        <time>2015-07-18T12:41:15Z</time>
      </trkpt>
      <trkpt lat="43.58854" lon="3.17125">
        <ele>326.5</ele>
        <time>2015-07-18T12:41:16Z</time>
      </trkpt>
      <trkpt lat="43.58842" lon="3.17117">
        <ele>325.06</ele>
        <time>2015-07-18T12:41:17Z</time>
      </trkpt>
      <trkpt lat="43.58834" lon="3.171">
        <ele>324.58</ele>
        <time>2015-07-18T12:41:18Z</time>
      </trkpt>
      <trkpt lat="43.58826" lon="3.17085">
        <ele>324.58</ele>
        <time>2015-07-18T12:41:19Z</time>
      </trkpt>
      <trkpt lat="43.58819" lon="3.17069">
        <ele>323.62</ele>
        <time>2015-07-18T12:41:20Z</time>
      </trkpt>
      <trkpt lat="43.58808" lon="3.17061">
        <ele>321.22</ele>
        <time>2015-07-18T12:41:21Z</time>
      </trkpt>
      <trkpt lat="43.58796" lon="3.1706">
        <ele>319.78</ele>
        <time>2015-07-18T12:41:22Z</time>
      </trkpt>
      <trkpt lat="43.58782" lon="3.17062">
        <ele>319.78</ele>
        <time>2015-07-18T12:41:23Z</time>
      </trkpt>
      <trkpt lat="43.58768" lon="3.17058">
        <ele>318.81</ele>
        <time>2015-07-18T12:41:24Z</time>
      </trkpt>
      <trkpt lat="43.58756" lon="3.17049">
        <ele>316.89</ele>
        <time>2015-07-18T12:41:25Z</time>
      </trkpt>
      <trkpt lat="43.58746" lon="3.17031">
        <ele>316.41</ele>
        <time>2015-07-18T12:41:26Z</time>
      </trkpt>
      <trkpt lat="43.58736" lon="3.17013">
        <ele>314.97</ele>
        <time>2015-07-18T12:41:27Z</time>
      </trkpt>
      <trkpt lat="43.58724" lon="3.16998">
        <ele>314.01</ele>
        <time>2015-07-18T12:41:28Z</time>
      </trkpt>
      <trkpt lat="43.58704" lon="3.16967">
        <ele>311.12</ele>
        <time>2015-07-18T12:41:30Z</time>
      </trkpt>
      <trkpt lat="43.58699" lon="3.16949">
        <ele>309.2</ele>
        <time>2015-07-18T12:41:31Z</time>
      </trkpt>
      <trkpt lat="43.587" lon="3.16926">
        <ele>308.24</ele>
        <time>2015-07-18T12:41:32Z</time>
      </trkpt>
      <trkpt lat="43.58711" lon="3.16903">
        <ele>306.32</ele>
        <time>2015-07-18T12:41:33Z</time>
      </trkpt>
      <trkpt lat="43.58721" lon="3.1688">
        <ele>305.84</ele>
        <time>2015-07-18T12:41:34Z</time>
      </trkpt>
      <trkpt lat="43.58731" lon="3.1686">
        <ele>304.88</ele>
        <time>2015-07-18T12:41:35Z</time>
      </trkpt>
      <trkpt lat="43.58747" lon="3.16802">
        <ele>300.07</ele>
        <time>2015-07-18T12:41:38Z</time>
      </trkpt>
      <trkpt lat="43.58739" lon="3.16785">
        <ele>298.63</ele>
        <time>2015-07-18T12:41:39Z</time>
      </trkpt>
      <trkpt lat="43.58723" lon="3.16777">
        <ele>296.22</ele>
        <time>2015-07-18T12:41:40Z</time>
      </trkpt>
      <trkpt lat="43.58704" lon="3.16772">
        <ele>294.3</ele>
        <time>2015-07-18T12:41:41Z</time>
      </trkpt>
      <trkpt lat="43.58681" lon="3.16771">
        <ele>292.86</ele>
        <time>2015-07-18T12:41:42Z</time>
      </trkpt>
      <trkpt lat="43.58661" lon="3.16768">
        <ele>291.9</ele>
        <time>2015-07-18T12:41:43Z</time>
      </trkpt>
      <trkpt lat="43.58529" lon="3.16745">
        <ele>283.73</ele>
        <time>2015-07-18T12:41:51Z</time>
      </trkpt>
      <trkpt lat="43.58513" lon="3.16738">
        <ele>283.25</ele>
        <time>2015-07-18T12:41:52Z</time>
      </trkpt>
      <trkpt lat="43.58464" lon="3.16719">
        <ele>280.84</ele>
        <time>2015-07-18T12:41:55Z</time>
      </trkpt>
      <trkpt lat="43.58446" lon="3.16717">
        <ele>279.4</ele>
        <time>2015-07-18T12:41:56Z</time>
      </trkpt>
      <trkpt lat="43.58428" lon="3.16718">
        <ele>278.44</ele>
        <time>2015-07-18T12:41:57Z</time>
      </trkpt>
      <trkpt lat="43.5841" lon="3.16721">
        <ele>277.96</ele>
        <time>2015-07-18T12:41:58Z</time>
      </trkpt>
      <trkpt lat="43.58392" lon="3.16725">
        <ele>277.48</ele>
        <time>2015-07-18T12:41:59Z</time>
      </trkpt>
      <trkpt lat="43.58337" lon="3.16726">
        <ele>276.04</ele>
        <time>2015-07-18T12:42:02Z</time>
      </trkpt>
      <trkpt lat="43.58299" lon="3.16721">
        <ele>274.59</ele>
        <time>2015-07-18T12:42:04Z</time>
      </trkpt>
      <trkpt lat="43.58278" lon="3.16724">
        <ele>274.11</ele>
        <time>2015-07-18T12:42:05Z</time>
      </trkpt>
      <trkpt lat="43.58258" lon="3.16729">
        <ele>273.63</ele>
        <time>2015-07-18T12:42:06Z</time>
      </trkpt>
      <trkpt lat="43.5824" lon="3.1674">
        <ele>272.67</ele>
        <time>2015-07-18T12:42:07Z</time>
      </trkpt>
      <trkpt lat="43.58222" lon="3.16752">
        <ele>272.67</ele>
        <time>2015-07-18T12:42:08Z</time>
      </trkpt>
      <trkpt lat="43.58205" lon="3.16764">
        <ele>272.67</ele>
        <time>2015-07-18T12:42:09Z</time>
      </trkpt>
      <trkpt lat="43.58187" lon="3.16774">
        <ele>272.19</ele>
        <time>2015-07-18T12:42:10Z</time>
      </trkpt>
      <trkpt lat="43.5817" lon="3.1678">
        <ele>272.19</ele>
        <time>2015-07-18T12:42:11Z</time>
      </trkpt>
      <trkpt lat="43.58151" lon="3.16783">
        <ele>271.71</ele>
        <time>2015-07-18T12:42:12Z</time>
      </trkpt>
      <trkpt lat="43.58133" lon="3.16782">
        <ele>270.75</ele>
        <time>2015-07-18T12:42:13Z</time>
      </trkpt>
      <trkpt lat="43.58115" lon="3.16779">
        <ele>269.79</ele>
        <time>2015-07-18T12:42:14Z</time>
      </trkpt>
      <trkpt lat="43.58099" lon="3.16772">
        <ele>269.31</ele>
        <time>2015-07-18T12:42:15Z</time>
      </trkpt>
      <trkpt lat="43.58086" lon="3.16764">
        <ele>268.83</ele>
        <time>2015-07-18T12:42:16Z</time>
      </trkpt>
      <trkpt lat="43.58076" lon="3.16757">
        <ele>268.83</ele>
        <time>2015-07-18T12:42:17Z</time>
      </trkpt>
      <trkpt lat="43.58072" lon="3.16748">
        <ele>268.35</ele>
        <time>2015-07-18T12:42:18Z</time>
      </trkpt>
      <trkpt lat="43.5807" lon="3.16739">
        <ele>268.83</ele>
        <time>2015-07-18T12:42:19Z</time>
      </trkpt>
      <trkpt lat="43.58067" lon="3.16733">
        <ele>268.83</ele>
        <time>2015-07-18T12:42:20Z</time>
      </trkpt>
      <trkpt lat="43.58069" lon="3.16727">
        <ele>268.83</ele>
        <time>2015-07-18T12:42:21Z</time>
      </trkpt>
      <trkpt lat="43.5807" lon="3.16722">
        <ele>269.31</ele>
        <time>2015-07-18T12:42:22Z</time>
      </trkpt>
      <trkpt lat="43.58074" lon="3.16716">
        <ele>269.31</ele>
        <time>2015-07-18T12:42:23Z</time>
      </trkpt>
      <trkpt lat="43.58083" lon="3.16707">
        <ele>268.83</ele>
        <time>2015-07-18T12:42:24Z</time>
      </trkpt>
      <trkpt lat="43.58094" lon="3.16696">
        <ele>268.35</ele>
        <time>2015-07-18T12:42:25Z</time>
      </trkpt>
      <trkpt lat="43.58127" lon="3.16647">
        <ele>268.35</ele>
        <time>2015-07-18T12:42:28Z</time>
      </trkpt>
      <trkpt lat="43.58137" lon="3.16626">
        <ele>268.35</ele>
        <time>2015-07-18T12:42:29Z</time>
      </trkpt>
      <trkpt lat="43.58146" lon="3.16601">
        <ele>267.86</ele>
        <time>2015-07-18T12:42:30Z</time>
      </trkpt>
      <trkpt lat="43.5815" lon="3.1657">
        <ele>266.9</ele>
        <time>2015-07-18T12:42:31Z</time>
      </trkpt>
      <trkpt lat="43.58152" lon="3.16539">
        <ele>266.42</ele>
        <time>2015-07-18T12:42:32Z</time>
      </trkpt>
      <trkpt lat="43.5815" lon="3.16506">
        <ele>267.86</ele>
        <time>2015-07-18T12:42:33Z</time>
      </trkpt>
      <trkpt lat="43.58145" lon="3.16472">
        <ele>267.86</ele>
        <time>2015-07-18T12:42:34Z</time>
      </trkpt>
      <trkpt lat="43.58139" lon="3.16437">
        <ele>267.38</ele>
        <time>2015-07-18T12:42:35Z</time>
      </trkpt>
      <trkpt lat="43.58097" lon="3.16108">
        <ele>256.33</ele>
        <time>2015-07-18T12:42:44Z</time>
      </trkpt>
      <trkpt lat="43.58107" lon="3.15812">
        <ele>248.16</ele>
        <time>2015-07-18T12:42:52Z</time>
      </trkpt>
      <trkpt lat="43.58146" lon="3.15573">
        <ele>244.31</ele>
        <time>2015-07-18T12:42:59Z</time>
      </trkpt>
      <trkpt lat="43.58182" lon="3.15441">
        <ele>241.43</ele>
        <time>2015-07-18T12:43:03Z</time>
      </trkpt>
      <trkpt lat="43.58184" lon="3.15405">
        <ele>240.95</ele>
        <time>2015-07-18T12:43:04Z</time>
      </trkpt>
      <trkpt lat="43.58184" lon="3.15369">
        <ele>240.95</ele>
        <time>2015-07-18T12:43:05Z</time>
      </trkpt>
      <trkpt lat="43.58182" lon="3.15331">
        <ele>240.47</ele>
        <time>2015-07-18T12:43:06Z</time>
      </trkpt>
      <trkpt lat="43.58177" lon="3.15293">
        <ele>240.47</ele>
        <time>2015-07-18T12:43:07Z</time>
      </trkpt>
      <trkpt lat="43.58171" lon="3.15254">
        <ele>239.99</ele>
        <time>2015-07-18T12:43:08Z</time>
      </trkpt>
      <trkpt lat="43.58124" lon="3.14924">
        <ele>237.1</ele>
        <time>2015-07-18T12:43:17Z</time>
      </trkpt>
      <trkpt lat="43.58113" lon="3.14639">
        <ele>234.7</ele>
        <time>2015-07-18T12:43:25Z</time>
      </trkpt>
      <trkpt lat="43.58077" lon="3.14397">
        <ele>230.85</ele>
        <time>2015-07-18T12:43:32Z</time>
      </trkpt>
      <trkpt lat="43.57989" lon="3.14105">
        <ele>223.64</ele>
        <time>2015-07-18T12:43:41Z</time>
      </trkpt>
      <trkpt lat="43.57985" lon="3.14073">
        <ele>222.68</ele>
        <time>2015-07-18T12:43:42Z</time>
      </trkpt>
      <trkpt lat="43.57985" lon="3.1404">
        <ele>221.72</ele>
        <time>2015-07-18T12:43:43Z</time>
      </trkpt>
      <trkpt lat="43.57991" lon="3.14007">
        <ele>220.76</ele>
        <time>2015-07-18T12:43:44Z</time>
      </trkpt>
      <trkpt lat="43.57998" lon="3.13974">
        <ele>219.8</ele>
        <time>2015-07-18T12:43:45Z</time>
      </trkpt>
      <trkpt lat="43.58006" lon="3.13941">
        <ele>219.32</ele>
        <time>2015-07-18T12:43:46Z</time>
      </trkpt>
      <trkpt lat="43.58092" lon="3.13617">
        <ele>216.43</ele>
        <time>2015-07-18T12:43:56Z</time>
      </trkpt>
      <trkpt lat="43.58244" lon="3.13256">
        <ele>209.7</ele>
        <time>2015-07-18T12:44:08Z</time>
      </trkpt>
      <trkpt lat="43.58334" lon="3.13115">
        <ele>206.34</ele>
        <time>2015-07-18T12:44:14Z</time>
      </trkpt>
      <trkpt lat="43.58353" lon="3.13099">
        <ele>206.34</ele>
        <time>2015-07-18T12:44:15Z</time>
      </trkpt>
      <trkpt lat="43.58374" lon="3.13086">
        <ele>206.34</ele>
        <time>2015-07-18T12:44:16Z</time>
      </trkpt>
      <trkpt lat="43.58396" lon="3.13076">
        <ele>206.34</ele>
        <time>2015-07-18T12:44:17Z</time>
      </trkpt>
      <trkpt lat="43.58528" lon="3.12991">
        <ele>200.09</ele>
        <time>2015-07-18T12:44:23Z</time>
      </trkpt>
      <trkpt lat="43.58543" lon="3.12967">
        <ele>199.13</ele>
        <time>2015-07-18T12:44:24Z</time>
      </trkpt>
      <trkpt lat="43.58596" lon="3.12879">
        <ele>197.21</ele>
        <time>2015-07-18T12:44:28Z</time>
      </trkpt>
      <trkpt lat="43.58606" lon="3.12855">
        <ele>196.73</ele>
        <time>2015-07-18T12:44:29Z</time>
      </trkpt>
      <trkpt lat="43.58614" lon="3.12831">
        <ele>195.77</ele>
        <time>2015-07-18T12:44:30Z</time>
      </trkpt>
      <trkpt lat="43.58618" lon="3.12804">
        <ele>194.32</ele>
        <time>2015-07-18T12:44:31Z</time>
      </trkpt>
      <trkpt lat="43.58618" lon="3.12775">
        <ele>193.36</ele>
        <time>2015-07-18T12:44:32Z</time>
      </trkpt>
      <trkpt lat="43.58617" lon="3.12747">
        <ele>192.88</ele>
        <time>2015-07-18T12:44:33Z</time>
      </trkpt>
      <trkpt lat="43.58613" lon="3.12719">
        <ele>191.92</ele>
        <time>2015-07-18T12:44:34Z</time>
      </trkpt>
      <trkpt lat="43.58606" lon="3.12693">
        <ele>191.44</ele>
        <time>2015-07-18T12:44:35Z</time>
      </trkpt>
      <trkpt lat="43.58599" lon="3.12668">
        <ele>191.44</ele>
        <time>2015-07-18T12:44:36Z</time>
      </trkpt>
      <trkpt lat="43.58592" lon="3.12644">
        <ele>190.96</ele>
        <time>2015-07-18T12:44:37Z</time>
      </trkpt>
      <trkpt lat="43.58579" lon="3.1257">
        <ele>190</ele>
        <time>2015-07-18T12:44:40Z</time>
      </trkpt>
      <trkpt lat="43.5858" lon="3.12543">
        <ele>189.52</ele>
        <time>2015-07-18T12:44:41Z</time>
      </trkpt>
      <trkpt lat="43.58584" lon="3.12515">
        <ele>188.56</ele>
        <time>2015-07-18T12:44:42Z</time>
      </trkpt>
      <trkpt lat="43.58592" lon="3.12487">
        <ele>188.08</ele>
        <time>2015-07-18T12:44:43Z</time>
      </trkpt>
      <trkpt lat="43.58605" lon="3.12462">
        <ele>188.08</ele>
        <time>2015-07-18T12:44:44Z</time>
      </trkpt>
      <trkpt lat="43.58616" lon="3.12437">
        <ele>187.11</ele>
        <time>2015-07-18T12:44:45Z</time>
      </trkpt>
      <trkpt lat="43.58645" lon="3.12396">
        <ele>187.11</ele>
        <time>2015-07-18T12:44:47Z</time>
      </trkpt>
      <trkpt lat="43.58731" lon="3.12296">
        <ele>192.88</ele>
        <time>2015-07-18T12:44:54Z</time>
      </trkpt>
      <trkpt lat="43.58746" lon="3.12279">
        <ele>194.32</ele>
        <time>2015-07-18T12:44:56Z</time>
      </trkpt>
      <trkpt lat="43.58756" lon="3.12274">
        <ele>193.84</ele>
        <time>2015-07-18T12:44:57Z</time>
      </trkpt>
      <trkpt lat="43.58775" lon="3.12261">
        <ele>193.36</ele>
        <time>2015-07-18T12:44:59Z</time>
      </trkpt>
      <trkpt lat="43.58783" lon="3.12251">
        <ele>193.36</ele>
        <time>2015-07-18T12:45:00Z</time>
      </trkpt>
      <trkpt lat="43.58787" lon="3.12238">
        <ele>193.36</ele>
        <time>2015-07-18T12:45:01Z</time>
      </trkpt>
      <trkpt lat="43.58792" lon="3.12224">
        <ele>192.88</ele>
        <time>2015-07-18T12:45:02Z</time>
      </trkpt>
      <trkpt lat="43.588" lon="3.12211">
        <ele>191.92</ele>
        <time>2015-07-18T12:45:03Z</time>
      </trkpt>
      <trkpt lat="43.58809" lon="3.12199">
        <ele>191.92</ele>
        <time>2015-07-18T12:45:04Z</time>
      </trkpt>
      <trkpt lat="43.58819" lon="3.12186">
        <ele>191.44</ele>
        <time>2015-07-18T12:45:05Z</time>
      </trkpt>
      <trkpt lat="43.5894" lon="3.12018">
        <ele>191.92</ele>
        <time>2015-07-18T12:45:16Z</time>
      </trkpt>
      <trkpt lat="43.59086" lon="3.11814">
        <ele>188.56</ele>
        <time>2015-07-18T12:45:29Z</time>
      </trkpt>
      <trkpt lat="43.5919" lon="3.11667">
        <ele>185.19</ele>
        <time>2015-07-18T12:45:40Z</time>
      </trkpt>
      <trkpt lat="43.59253" lon="3.11576">
        <ele>190</ele>
        <time>2015-07-18T12:45:48Z</time>
      </trkpt>
      <trkpt lat="43.59327" lon="3.11475">
        <ele>196.25</ele>
        <time>2015-07-18T12:46:02Z</time>
      </trkpt>
      <trkpt lat="43.59354" lon="3.11444">
        <ele>197.21</ele>
        <time>2015-07-18T12:46:10Z</time>
      </trkpt>
      <trkpt lat="43.59361" lon="3.1144">
        <ele>196.73</ele>
        <time>2015-07-18T12:46:12Z</time>
      </trkpt>
      <trkpt lat="43.59365" lon="3.11435">
        <ele>196.73</ele>
        <time>2015-07-18T12:46:13Z</time>
      </trkpt>
      <trkpt lat="43.59368" lon="3.11429">
        <ele>196.73</ele>
        <time>2015-07-18T12:46:14Z</time>
      </trkpt>
      <trkpt lat="43.5937" lon="3.11424">
        <ele>196.25</ele>
        <time>2015-07-18T12:46:15Z</time>
      </trkpt>
      <trkpt lat="43.59373" lon="3.11418">
        <ele>196.25</ele>
        <time>2015-07-18T12:46:16Z</time>
      </trkpt>
      <trkpt lat="43.59377" lon="3.11413">
        <ele>196.25</ele>
        <time>2015-07-18T12:46:17Z</time>
      </trkpt>
      <trkpt lat="43.59417" lon="3.11349">
        <ele>198.17</ele>
        <time>2015-07-18T12:46:24Z</time>
      </trkpt>
      <trkpt lat="43.59493" lon="3.11245">
        <ele>199.13</ele>
        <time>2015-07-18T12:46:34Z</time>
      </trkpt>
      <trkpt lat="43.59497" lon="3.11239">
        <ele>199.13</ele>
        <time>2015-07-18T12:46:40Z</time>
      </trkpt>
      <trkpt lat="43.59516" lon="3.11212">
        <ele>199.13</ele>
        <time>2015-07-18T12:46:46Z</time>
      </trkpt>
      <trkpt lat="43.59585" lon="3.11117">
        <ele>201.53</ele>
        <time>2015-07-18T12:46:55Z</time>
      </trkpt>
      <trkpt lat="43.59666" lon="3.11004">
        <ele>202.01</ele>
        <time>2015-07-18T12:47:03Z</time>
      </trkpt>
      <trkpt lat="43.59748" lon="3.10886">
        <ele>202.01</ele>
        <time>2015-07-18T12:47:11Z</time>
      </trkpt>
      <trkpt lat="43.59755" lon="3.10872">
        <ele>202.01</ele>
        <time>2015-07-18T12:47:12Z</time>
      </trkpt>
      <trkpt lat="43.59758" lon="3.10856">
        <ele>202.01</ele>
        <time>2015-07-18T12:47:13Z</time>
      </trkpt>
      <trkpt lat="43.59759" lon="3.10841">
        <ele>202.01</ele>
        <time>2015-07-18T12:47:14Z</time>
      </trkpt>
      <trkpt lat="43.59755" lon="3.10826">
        <ele>201.05</ele>
        <time>2015-07-18T12:47:15Z</time>
      </trkpt>
      <trkpt lat="43.5975" lon="3.10813">
        <ele>201.05</ele>
        <time>2015-07-18T12:47:16Z</time>
      </trkpt>
      <trkpt lat="43.59746" lon="3.10799">
        <ele>201.05</ele>
        <time>2015-07-18T12:47:17Z</time>
      </trkpt>
      <trkpt lat="43.59745" lon="3.10785">
        <ele>201.05</ele>
        <time>2015-07-18T12:47:18Z</time>
      </trkpt>
      <trkpt lat="43.59748" lon="3.10771">
        <ele>201.05</ele>
        <time>2015-07-18T12:47:19Z</time>
      </trkpt>
      <trkpt lat="43.59755" lon="3.10759">
        <ele>201.53</ele>
        <time>2015-07-18T12:47:20Z</time>
      </trkpt>
      <trkpt lat="43.59764" lon="3.10749">
        <ele>201.53</ele>
        <time>2015-07-18T12:47:21Z</time>
      </trkpt>
      <trkpt lat="43.59776" lon="3.1074">
        <ele>202.01</ele>
        <time>2015-07-18T12:47:22Z</time>
      </trkpt>
      <trkpt lat="43.59792" lon="3.10728">
        <ele>202.49</ele>
        <time>2015-07-18T12:47:23Z</time>
      </trkpt>
      <trkpt lat="43.59906" lon="3.10661">
        <ele>204.9</ele>
        <time>2015-07-18T12:47:28Z</time>
      </trkpt>
      <trkpt lat="43.59931" lon="3.10661">
        <ele>205.86</ele>
        <time>2015-07-18T12:47:29Z</time>
      </trkpt>
      <trkpt lat="43.59951" lon="3.10659">
        <ele>206.82</ele>
        <time>2015-07-18T12:47:30Z</time>
      </trkpt>
      <trkpt lat="43.59979" lon="3.10651">
        <ele>209.22</ele>
        <time>2015-07-18T12:47:32Z</time>
      </trkpt>
      <trkpt lat="43.5999" lon="3.10636">
        <ele>209.22</ele>
        <time>2015-07-18T12:47:33Z</time>
      </trkpt>
      <trkpt lat="43.60003" lon="3.10619">
        <ele>211.15</ele>
        <time>2015-07-18T12:47:34Z</time>
      </trkpt>
      <trkpt lat="43.60019" lon="3.10603">
        <ele>212.11</ele>
        <time>2015-07-18T12:47:35Z</time>
      </trkpt>
      <trkpt lat="43.60036" lon="3.10588">
        <ele>214.03</ele>
        <time>2015-07-18T12:47:36Z</time>
      </trkpt>
      <trkpt lat="43.60054" lon="3.10576">
        <ele>214.99</ele>
        <time>2015-07-18T12:47:37Z</time>
      </trkpt>
      <trkpt lat="43.60071" lon="3.10567">
        <ele>215.95</ele>
        <time>2015-07-18T12:47:38Z</time>
      </trkpt>
      <trkpt lat="43.60087" lon="3.10564">
        <ele>216.91</ele>
        <time>2015-07-18T12:47:39Z</time>
      </trkpt>
      <trkpt lat="43.60105" lon="3.10565">
        <ele>218.36</ele>
        <time>2015-07-18T12:47:40Z</time>
      </trkpt>
      <trkpt lat="43.6012" lon="3.10571">
        <ele>218.84</ele>
        <time>2015-07-18T12:47:41Z</time>
      </trkpt>
      <trkpt lat="43.60134" lon="3.10582">
        <ele>219.8</ele>
        <time>2015-07-18T12:47:42Z</time>
      </trkpt>
      <trkpt lat="43.60148" lon="3.10589">
        <ele>220.28</ele>
        <time>2015-07-18T12:47:43Z</time>
      </trkpt>
      <trkpt lat="43.60162" lon="3.10593">
        <ele>220.76</ele>
        <time>2015-07-18T12:47:44Z</time>
      </trkpt>
      <trkpt lat="43.60177" lon="3.10588">
        <ele>221.24</ele>
        <time>2015-07-18T12:47:45Z</time>
      </trkpt>
      <trkpt lat="43.60193" lon="3.10579">
        <ele>221.72</ele>
        <time>2015-07-18T12:47:46Z</time>
      </trkpt>
      <trkpt lat="43.60207" lon="3.10562">
        <ele>220.76</ele>
        <time>2015-07-18T12:47:47Z</time>
      </trkpt>
      <trkpt lat="43.60217" lon="3.10536">
        <ele>220.76</ele>
        <time>2015-07-18T12:47:48Z</time>
      </trkpt>
      <trkpt lat="43.60225" lon="3.10506">
        <ele>224.12</ele>
        <time>2015-07-18T12:47:49Z</time>
      </trkpt>
      <trkpt lat="43.60235" lon="3.10476">
        <ele>226.05</ele>
        <time>2015-07-18T12:47:50Z</time>
      </trkpt>
      <trkpt lat="43.60246" lon="3.10449">
        <ele>228.93</ele>
        <time>2015-07-18T12:47:51Z</time>
      </trkpt>
      <trkpt lat="43.60295" lon="3.10327">
        <ele>235.18</ele>
        <time>2015-07-18T12:47:57Z</time>
      </trkpt>
      <trkpt lat="43.60305" lon="3.10323">
        <ele>235.66</ele>
        <time>2015-07-18T12:47:58Z</time>
      </trkpt>
      <trkpt lat="43.60316" lon="3.10326">
        <ele>235.66</ele>
        <time>2015-07-18T12:47:59Z</time>
      </trkpt>
      <trkpt lat="43.60329" lon="3.10331">
        <ele>236.62</ele>
        <time>2015-07-18T12:48:00Z</time>
      </trkpt>
      <trkpt lat="43.60343" lon="3.10338">
        <ele>237.58</ele>
        <time>2015-07-18T12:48:01Z</time>
      </trkpt>
      <trkpt lat="43.60358" lon="3.10339">
        <ele>238.06</ele>
        <time>2015-07-18T12:48:02Z</time>
      </trkpt>
      <trkpt lat="43.60373" lon="3.10333">
        <ele>238.54</ele>
        <time>2015-07-18T12:48:03Z</time>
      </trkpt>
      <trkpt lat="43.60388" lon="3.10319">
        <ele>239.99</ele>
        <time>2015-07-18T12:48:04Z</time>
      </trkpt>
      <trkpt lat="43.60404" lon="3.10302">
        <ele>240.95</ele>
        <time>2015-07-18T12:48:05Z</time>
      </trkpt>
      <trkpt lat="43.6042" lon="3.10284">
        <ele>242.39</ele>
        <time>2015-07-18T12:48:06Z</time>
      </trkpt>
      <trkpt lat="43.60515" lon="3.10173">
        <ele>249.6</ele>
        <time>2015-07-18T12:48:13Z</time>
      </trkpt>
      <trkpt lat="43.60559" lon="3.1013">
        <ele>253.44</ele>
        <time>2015-07-18T12:48:16Z</time>
      </trkpt>
      <trkpt lat="43.60578" lon="3.10121">
        <ele>255.37</ele>
        <time>2015-07-18T12:48:17Z</time>
      </trkpt>
      <trkpt lat="43.60597" lon="3.10118">
        <ele>256.81</ele>
        <time>2015-07-18T12:48:18Z</time>
      </trkpt>
      <trkpt lat="43.60617" lon="3.1012">
        <ele>258.25</ele>
        <time>2015-07-18T12:48:19Z</time>
      </trkpt>
      <trkpt lat="43.60636" lon="3.10125">
        <ele>259.69</ele>
        <time>2015-07-18T12:48:20Z</time>
      </trkpt>
      <trkpt lat="43.60654" lon="3.10131">
        <ele>261.14</ele>
        <time>2015-07-18T12:48:21Z</time>
      </trkpt>
      <trkpt lat="43.6067" lon="3.10139">
        <ele>262.58</ele>
        <time>2015-07-18T12:48:22Z</time>
      </trkpt>
      <trkpt lat="43.60685" lon="3.10143">
        <ele>263.06</ele>
        <time>2015-07-18T12:48:23Z</time>
      </trkpt>
      <trkpt lat="43.60701" lon="3.10141">
        <ele>264.5</ele>
        <time>2015-07-18T12:48:24Z</time>
      </trkpt>
      <trkpt lat="43.60717" lon="3.10133">
        <ele>265.46</ele>
        <time>2015-07-18T12:48:25Z</time>
      </trkpt>
      <trkpt lat="43.60731" lon="3.10116">
        <ele>267.38</ele>
        <time>2015-07-18T12:48:26Z</time>
      </trkpt>
      <trkpt lat="43.60746" lon="3.10098">
        <ele>268.35</ele>
        <time>2015-07-18T12:48:27Z</time>
      </trkpt>
      <trkpt lat="43.60762" lon="3.1008">
        <ele>269.31</ele>
        <time>2015-07-18T12:48:28Z</time>
      </trkpt>
      <trkpt lat="43.60916" lon="3.09914">
        <ele>282.77</ele>
        <time>2015-07-18T12:48:39Z</time>
      </trkpt>
      <trkpt lat="43.60958" lon="3.0985">
        <ele>285.17</ele>
        <time>2015-07-18T12:48:43Z</time>
      </trkpt>
      <trkpt lat="43.60968" lon="3.0984">
        <ele>286.13</ele>
        <time>2015-07-18T12:48:44Z</time>
      </trkpt>
      <trkpt lat="43.6098" lon="3.09834">
        <ele>287.09</ele>
        <time>2015-07-18T12:48:45Z</time>
      </trkpt>
      <trkpt lat="43.60994" lon="3.09829">
        <ele>287.09</ele>
        <time>2015-07-18T12:48:46Z</time>
      </trkpt>
      <trkpt lat="43.61008" lon="3.09825">
        <ele>288.05</ele>
        <time>2015-07-18T12:48:47Z</time>
      </trkpt>
      <trkpt lat="43.61084" lon="3.09789">
        <ele>293.82</ele>
        <time>2015-07-18T12:48:53Z</time>
      </trkpt>
      <trkpt lat="43.61092" lon="3.09781">
        <ele>293.34</ele>
        <time>2015-07-18T12:48:54Z</time>
      </trkpt>
      <trkpt lat="43.61099" lon="3.09771">
        <ele>293.82</ele>
        <time>2015-07-18T12:48:55Z</time>
      </trkpt>
      <trkpt lat="43.61103" lon="3.09758">
        <ele>293.82</ele>
        <time>2015-07-18T12:48:56Z</time>
      </trkpt>
      <trkpt lat="43.61104" lon="3.09743">
        <ele>293.34</ele>
        <time>2015-07-18T12:48:57Z</time>
      </trkpt>
      <trkpt lat="43.61102" lon="3.09726">
        <ele>293.82</ele>
        <time>2015-07-18T12:48:58Z</time>
      </trkpt>
      <trkpt lat="43.61099" lon="3.09708">
        <ele>294.78</ele>
        <time>2015-07-18T12:48:59Z</time>
      </trkpt>
      <trkpt lat="43.61087" lon="3.09619">
        <ele>298.15</ele>
        <time>2015-07-18T12:49:04Z</time>
      </trkpt>
      <trkpt lat="43.61088" lon="3.09602">
        <ele>298.63</ele>
        <time>2015-07-18T12:49:05Z</time>
      </trkpt>
      <trkpt lat="43.61091" lon="3.09585">
        <ele>299.11</ele>
        <time>2015-07-18T12:49:06Z</time>
      </trkpt>
      <trkpt lat="43.61136" lon="3.09427">
        <ele>303.43</ele>
        <time>2015-07-18T12:49:13Z</time>
      </trkpt>
      <trkpt lat="43.61191" lon="3.09243">
        <ele>308.72</ele>
        <time>2015-07-18T12:49:21Z</time>
      </trkpt>
      <trkpt lat="43.61249" lon="3.09044">
        <ele>314.97</ele>
        <time>2015-07-18T12:49:30Z</time>
      </trkpt>
      <trkpt lat="43.61259" lon="3.09026">
        <ele>315.45</ele>
        <time>2015-07-18T12:49:31Z</time>
      </trkpt>
      <trkpt lat="43.61271" lon="3.0901">
        <ele>315.93</ele>
        <time>2015-07-18T12:49:32Z</time>
      </trkpt>
      <trkpt lat="43.61284" lon="3.08997">
        <ele>316.41</ele>
        <time>2015-07-18T12:49:33Z</time>
      </trkpt>
      <trkpt lat="43.61297" lon="3.08985">
        <ele>316.41</ele>
        <time>2015-07-18T12:49:34Z</time>
      </trkpt>
      <trkpt lat="43.61309" lon="3.08971">
        <ele>316.41</ele>
        <time>2015-07-18T12:49:35Z</time>
      </trkpt>
      <trkpt lat="43.61319" lon="3.08955">
        <ele>316.41</ele>
        <time>2015-07-18T12:49:36Z</time>
      </trkpt>
      <trkpt lat="43.61326" lon="3.08935">
        <ele>315.93</ele>
        <time>2015-07-18T12:49:37Z</time>
      </trkpt>
      <trkpt lat="43.6133" lon="3.08913">
        <ele>315.93</ele>
        <time>2015-07-18T12:49:38Z</time>
      </trkpt>
      <trkpt lat="43.61331" lon="3.08891">
        <ele>316.41</ele>
        <time>2015-07-18T12:49:39Z</time>
      </trkpt>
      <trkpt lat="43.6133" lon="3.0887">
        <ele>316.41</ele>
        <time>2015-07-18T12:49:40Z</time>
      </trkpt>
      <trkpt lat="43.61326" lon="3.08849">
        <ele>316.89</ele>
        <time>2015-07-18T12:49:41Z</time>
      </trkpt>
      <trkpt lat="43.61323" lon="3.08828">
        <ele>316.89</ele>
        <time>2015-07-18T12:49:42Z</time>
      </trkpt>
      <trkpt lat="43.61322" lon="3.08806">
        <ele>316.89</ele>
        <time>2015-07-18T12:49:43Z</time>
      </trkpt>
      <trkpt lat="43.61322" lon="3.08784">
        <ele>316.89</ele>
        <time>2015-07-18T12:49:44Z</time>
      </trkpt>
      <trkpt lat="43.61325" lon="3.08761">
        <ele>316.89</ele>
        <time>2015-07-18T12:49:45Z</time>
      </trkpt>
      <trkpt lat="43.6133" lon="3.08739">
        <ele>316.89</ele>
        <time>2015-07-18T12:49:46Z</time>
      </trkpt>
      <trkpt lat="43.61339" lon="3.08719">
        <ele>316.89</ele>
        <time>2015-07-18T12:49:47Z</time>
      </trkpt>
      <trkpt lat="43.6135" lon="3.08701">
        <ele>316.89</ele>
        <time>2015-07-18T12:49:48Z</time>
      </trkpt>
      <trkpt lat="43.61361" lon="3.08683">
        <ele>316.89</ele>
        <time>2015-07-18T12:49:49Z</time>
      </trkpt>
      <trkpt lat="43.61386" lon="3.0865">
        <ele>316.89</ele>
        <time>2015-07-18T12:49:51Z</time>
      </trkpt>
      <trkpt lat="43.61401" lon="3.08636">
        <ele>316.89</ele>
        <time>2015-07-18T12:49:52Z</time>
      </trkpt>
      <trkpt lat="43.61418" lon="3.08625">
        <ele>316.89</ele>
        <time>2015-07-18T12:49:53Z</time>
      </trkpt>
      <trkpt lat="43.61437" lon="3.08616">
        <ele>317.37</ele>
        <time>2015-07-18T12:49:54Z</time>
      </trkpt>
      <trkpt lat="43.61457" lon="3.08608">
        <ele>317.85</ele>
        <time>2015-07-18T12:49:55Z</time>
      </trkpt>
      <trkpt lat="43.61584" lon="3.08556">
        <ele>322.18</ele>
        <time>2015-07-18T12:50:02Z</time>
      </trkpt>
      <trkpt lat="43.61598" lon="3.08557">
        <ele>322.66</ele>
        <time>2015-07-18T12:50:03Z</time>
      </trkpt>
      <trkpt lat="43.61612" lon="3.0856">
        <ele>322.66</ele>
        <time>2015-07-18T12:50:04Z</time>
      </trkpt>
      <trkpt lat="43.61626" lon="3.08566">
        <ele>323.62</ele>
        <time>2015-07-18T12:50:05Z</time>
      </trkpt>
      <trkpt lat="43.61639" lon="3.08573">
        <ele>325.06</ele>
        <time>2015-07-18T12:50:06Z</time>
      </trkpt>
      <trkpt lat="43.61653" lon="3.08582">
        <ele>326.5</ele>
        <time>2015-07-18T12:50:07Z</time>
      </trkpt>
      <trkpt lat="43.61707" lon="3.08614">
        <ele>330.83</ele>
        <time>2015-07-18T12:50:11Z</time>
      </trkpt>
      <trkpt lat="43.61722" lon="3.08617">
        <ele>331.31</ele>
        <time>2015-07-18T12:50:12Z</time>
      </trkpt>
      <trkpt lat="43.61737" lon="3.08617">
        <ele>332.75</ele>
        <time>2015-07-18T12:50:13Z</time>
      </trkpt>
      <trkpt lat="43.61754" lon="3.08612">
        <ele>333.71</ele>
        <time>2015-07-18T12:50:14Z</time>
      </trkpt>
      <trkpt lat="43.6177" lon="3.08605">
        <ele>334.2</ele>
        <time>2015-07-18T12:50:15Z</time>
      </trkpt>
      <trkpt lat="43.61785" lon="3.08591">
        <ele>334.2</ele>
        <time>2015-07-18T12:50:16Z</time>
      </trkpt>
      <trkpt lat="43.618" lon="3.08577">
        <ele>334.2</ele>
        <time>2015-07-18T12:50:17Z</time>
      </trkpt>
      <trkpt lat="43.61815" lon="3.08561">
        <ele>334.68</ele>
        <time>2015-07-18T12:50:18Z</time>
      </trkpt>
      <trkpt lat="43.61829" lon="3.08545">
        <ele>335.64</ele>
        <time>2015-07-18T12:50:19Z</time>
      </trkpt>
      <trkpt lat="43.61919" lon="3.08453">
        <ele>342.37</ele>
        <time>2015-07-18T12:50:25Z</time>
      </trkpt>
      <trkpt lat="43.61937" lon="3.08446">
        <ele>343.81</ele>
        <time>2015-07-18T12:50:26Z</time>
      </trkpt>
      <trkpt lat="43.61954" lon="3.08441">
        <ele>345.25</ele>
        <time>2015-07-18T12:50:27Z</time>
      </trkpt>
      <trkpt lat="43.61969" lon="3.08434">
        <ele>346.21</ele>
        <time>2015-07-18T12:50:28Z</time>
      </trkpt>
      <trkpt lat="43.61982" lon="3.08422">
        <ele>346.69</ele>
        <time>2015-07-18T12:50:29Z</time>
      </trkpt>
      <trkpt lat="43.61994" lon="3.08404">
        <ele>347.65</ele>
        <time>2015-07-18T12:50:30Z</time>
      </trkpt>
      <trkpt lat="43.62005" lon="3.08384">
        <ele>348.62</ele>
        <time>2015-07-18T12:50:31Z</time>
      </trkpt>
      <trkpt lat="43.62018" lon="3.08365">
        <ele>350.06</ele>
        <time>2015-07-18T12:50:32Z</time>
      </trkpt>
      <trkpt lat="43.62033" lon="3.08348">
        <ele>351.5</ele>
        <time>2015-07-18T12:50:33Z</time>
      </trkpt>
      <trkpt lat="43.62048" lon="3.08333">
        <ele>352.46</ele>
        <time>2015-07-18T12:50:34Z</time>
      </trkpt>
      <trkpt lat="43.62065" lon="3.08322">
        <ele>354.86</ele>
        <time>2015-07-18T12:50:35Z</time>
      </trkpt>
      <trkpt lat="43.62082" lon="3.08314">
        <ele>354.86</ele>
        <time>2015-07-18T12:50:36Z</time>
      </trkpt>
      <trkpt lat="43.621" lon="3.08307">
        <ele>356.31</ele>
        <time>2015-07-18T12:50:37Z</time>
      </trkpt>
      <trkpt lat="43.62119" lon="3.08305">
        <ele>357.75</ele>
        <time>2015-07-18T12:50:38Z</time>
      </trkpt>
      <trkpt lat="43.62141" lon="3.08306">
        <ele>359.67</ele>
        <time>2015-07-18T12:50:39Z</time>
      </trkpt>
      <trkpt lat="43.62162" lon="3.08305">
        <ele>361.11</ele>
        <time>2015-07-18T12:50:40Z</time>
      </trkpt>
      <trkpt lat="43.62377" lon="3.08261">
        <ele>378.42</ele>
        <time>2015-07-18T12:50:51Z</time>
      </trkpt>
      <trkpt lat="43.62416" lon="3.0824">
        <ele>381.3</ele>
        <time>2015-07-18T12:50:54Z</time>
      </trkpt>
      <trkpt lat="43.62423" lon="3.08223">
        <ele>381.78</ele>
        <time>2015-07-18T12:50:55Z</time>
      </trkpt>
      <trkpt lat="43.62424" lon="3.08197">
        <ele>382.74</ele>
        <time>2015-07-18T12:50:56Z</time>
      </trkpt>
      <trkpt lat="43.62426" lon="3.08171">
        <ele>385.15</ele>
        <time>2015-07-18T12:50:57Z</time>
      </trkpt>
      <trkpt lat="43.62427" lon="3.08146">
        <ele>387.07</ele>
        <time>2015-07-18T12:50:58Z</time>
      </trkpt>
      <trkpt lat="43.62439" lon="3.08051">
        <ele>391.87</ele>
        <time>2015-07-18T12:51:02Z</time>
      </trkpt>
      <trkpt lat="43.62447" lon="3.08028">
        <ele>391.87</ele>
        <time>2015-07-18T12:51:03Z</time>
      </trkpt>
      <trkpt lat="43.62458" lon="3.08007">
        <ele>392.84</ele>
        <time>2015-07-18T12:51:04Z</time>
      </trkpt>
      <trkpt lat="43.62472" lon="3.07987">
        <ele>394.28</ele>
        <time>2015-07-18T12:51:05Z</time>
      </trkpt>
      <trkpt lat="43.62487" lon="3.07967">
        <ele>395.24</ele>
        <time>2015-07-18T12:51:06Z</time>
      </trkpt>
      <trkpt lat="43.62598" lon="3.07788">
        <ele>408.22</ele>
        <time>2015-07-18T12:51:14Z</time>
      </trkpt>
      <trkpt lat="43.62613" lon="3.0777">
        <ele>409.66</ele>
        <time>2015-07-18T12:51:15Z</time>
      </trkpt>
      <trkpt lat="43.62632" lon="3.07758">
        <ele>411.58</ele>
        <time>2015-07-18T12:51:16Z</time>
      </trkpt>
      <trkpt lat="43.62653" lon="3.07752">
        <ele>413.5</ele>
        <time>2015-07-18T12:51:17Z</time>
      </trkpt>
      <trkpt lat="43.62674" lon="3.07747">
        <ele>415.43</ele>
        <time>2015-07-18T12:51:18Z</time>
      </trkpt>
      <trkpt lat="43.62694" lon="3.07738">
        <ele>417.35</ele>
        <time>2015-07-18T12:51:19Z</time>
      </trkpt>
      <trkpt lat="43.62714" lon="3.07724">
        <ele>418.79</ele>
        <time>2015-07-18T12:51:20Z</time>
      </trkpt>
      <trkpt lat="43.62731" lon="3.07705">
        <ele>420.23</ele>
        <time>2015-07-18T12:51:21Z</time>
      </trkpt>
      <trkpt lat="43.62745" lon="3.07683">
        <ele>420.71</ele>
        <time>2015-07-18T12:51:22Z</time>
      </trkpt>
      <trkpt lat="43.62756" lon="3.07656">
        <ele>422.64</ele>
        <time>2015-07-18T12:51:23Z</time>
      </trkpt>
      <trkpt lat="43.62762" lon="3.07623">
        <ele>425.04</ele>
        <time>2015-07-18T12:51:24Z</time>
      </trkpt>
      <trkpt lat="43.62769" lon="3.07593">
        <ele>426.48</ele>
        <time>2015-07-18T12:51:25Z</time>
      </trkpt>
      <trkpt lat="43.62801" lon="3.07481">
        <ele>431.77</ele>
        <time>2015-07-18T12:51:29Z</time>
      </trkpt>
      <trkpt lat="43.62813" lon="3.07456">
        <ele>433.21</ele>
        <time>2015-07-18T12:51:30Z</time>
      </trkpt>
      <trkpt lat="43.6293" lon="3.07278">
        <ele>445.23</ele>
        <time>2015-07-18T12:51:38Z</time>
      </trkpt>
      <trkpt lat="43.63074" lon="3.07082">
        <ele>461.09</ele>
        <time>2015-07-18T12:51:48Z</time>
      </trkpt>
      <trkpt lat="43.63193" lon="3.06977">
        <ele>471.66</ele>
        <time>2015-07-18T12:51:55Z</time>
      </trkpt>
      <trkpt lat="43.63244" lon="3.06927">
        <ele>475.51</ele>
        <time>2015-07-18T12:51:58Z</time>
      </trkpt>
      <trkpt lat="43.63258" lon="3.06907">
        <ele>476.95</ele>
        <time>2015-07-18T12:51:59Z</time>
      </trkpt>
      <trkpt lat="43.63286" lon="3.06866">
        <ele>479.35</ele>
        <time>2015-07-18T12:52:01Z</time>
      </trkpt>
      <trkpt lat="43.63302" lon="3.06848">
        <ele>480.8</ele>
        <time>2015-07-18T12:52:02Z</time>
      </trkpt>
      <trkpt lat="43.63373" lon="3.06797">
        <ele>488.01</ele>
        <time>2015-07-18T12:52:07Z</time>
      </trkpt>
      <trkpt lat="43.63384" lon="3.06802">
        <ele>488.97</ele>
        <time>2015-07-18T12:52:08Z</time>
      </trkpt>
      <trkpt lat="43.63396" lon="3.06805">
        <ele>489.93</ele>
        <time>2015-07-18T12:52:09Z</time>
      </trkpt>
      <trkpt lat="43.63423" lon="3.06807">
        <ele>493.77</ele>
        <time>2015-07-18T12:52:11Z</time>
      </trkpt>
      <trkpt lat="43.63438" lon="3.068">
        <ele>494.26</ele>
        <time>2015-07-18T12:52:12Z</time>
      </trkpt>
      <trkpt lat="43.6345" lon="3.06791">
        <ele>495.7</ele>
        <time>2015-07-18T12:52:13Z</time>
      </trkpt>
      <trkpt lat="43.63472" lon="3.06779">
        <ele>496.66</ele>
        <time>2015-07-18T12:52:15Z</time>
      </trkpt>
      <trkpt lat="43.6348" lon="3.0678">
        <ele>498.1</ele>
        <time>2015-07-18T12:52:16Z</time>
      </trkpt>
      <trkpt lat="43.63486" lon="3.06789">
        <ele>499.54</ele>
        <time>2015-07-18T12:52:17Z</time>
      </trkpt>
      <trkpt lat="43.63489" lon="3.06805">
        <ele>500.98</ele>
        <time>2015-07-18T12:52:18Z</time>
      </trkpt>
      <trkpt lat="43.63491" lon="3.06822">
        <ele>501.46</ele>
        <time>2015-07-18T12:52:19Z</time>
      </trkpt>
      <trkpt lat="43.63492" lon="3.06842">
        <ele>502.91</ele>
        <time>2015-07-18T12:52:20Z</time>
      </trkpt>
      <trkpt lat="43.63502" lon="3.0693">
        <ele>508.67</ele>
        <time>2015-07-18T12:52:25Z</time>
      </trkpt>
      <trkpt lat="43.63509" lon="3.06942">
        <ele>509.64</ele>
        <time>2015-07-18T12:52:26Z</time>
      </trkpt>
      <trkpt lat="43.63519" lon="3.06951">
        <ele>510.6</ele>
        <time>2015-07-18T12:52:27Z</time>
      </trkpt>
      <trkpt lat="43.63532" lon="3.06956">
        <ele>511.56</ele>
        <time>2015-07-18T12:52:28Z</time>
      </trkpt>
      <trkpt lat="43.63546" lon="3.06956">
        <ele>513</ele>
        <time>2015-07-18T12:52:29Z</time>
      </trkpt>
      <trkpt lat="43.6356" lon="3.06954">
        <ele>514.44</ele>
        <time>2015-07-18T12:52:30Z</time>
      </trkpt>
      <trkpt lat="43.63573" lon="3.06948">
        <ele>514.44</ele>
        <time>2015-07-18T12:52:31Z</time>
      </trkpt>
      <trkpt lat="43.63588" lon="3.0694">
        <ele>514.44</ele>
        <time>2015-07-18T12:52:32Z</time>
      </trkpt>
      <trkpt lat="43.63604" lon="3.06928">
        <ele>515.4</ele>
        <time>2015-07-18T12:52:33Z</time>
      </trkpt>
      <trkpt lat="43.63617" lon="3.06912">
        <ele>514.92</ele>
        <time>2015-07-18T12:52:34Z</time>
      </trkpt>
      <trkpt lat="43.63631" lon="3.06898">
        <ele>516.37</ele>
        <time>2015-07-18T12:52:35Z</time>
      </trkpt>
      <trkpt lat="43.63644" lon="3.06881">
        <ele>517.33</ele>
        <time>2015-07-18T12:52:36Z</time>
      </trkpt>
      <trkpt lat="43.63657" lon="3.06862">
        <ele>518.29</ele>
        <time>2015-07-18T12:52:37Z</time>
      </trkpt>
      <trkpt lat="43.63668" lon="3.06839">
        <ele>519.73</ele>
        <time>2015-07-18T12:52:38Z</time>
      </trkpt>
      <trkpt lat="43.63678" lon="3.06815">
        <ele>521.65</ele>
        <time>2015-07-18T12:52:39Z</time>
      </trkpt>
      <trkpt lat="43.63685" lon="3.0679">
        <ele>523.58</ele>
        <time>2015-07-18T12:52:40Z</time>
      </trkpt>
      <trkpt lat="43.63692" lon="3.06766">
        <ele>525.5</ele>
        <time>2015-07-18T12:52:41Z</time>
      </trkpt>
      <trkpt lat="43.63748" lon="3.06495">
        <ele>544.72</ele>
        <time>2015-07-18T12:52:52Z</time>
      </trkpt>
      <trkpt lat="43.6379" lon="3.06264">
        <ele>563.95</ele>
        <time>2015-07-18T12:53:01Z</time>
      </trkpt>
      <trkpt lat="43.63864" lon="3.0595">
        <ele>585.58</ele>
        <time>2015-07-18T12:53:13Z</time>
      </trkpt>
      <trkpt lat="43.63893" lon="3.0586">
        <ele>587.98</ele>
        <time>2015-07-18T12:53:17Z</time>
      </trkpt>
      <trkpt lat="43.63897" lon="3.05836">
        <ele>587.98</ele>
        <time>2015-07-18T12:53:18Z</time>
      </trkpt>
      <trkpt lat="43.63898" lon="3.0581">
        <ele>588.46</ele>
        <time>2015-07-18T12:53:19Z</time>
      </trkpt>
      <trkpt lat="43.63895" lon="3.05784">
        <ele>588.46</ele>
        <time>2015-07-18T12:53:20Z</time>
      </trkpt>
      <trkpt lat="43.63891" lon="3.05759">
        <ele>588.46</ele>
        <time>2015-07-18T12:53:21Z</time>
      </trkpt>
      <trkpt lat="43.63886" lon="3.05735">
        <ele>588.95</ele>
        <time>2015-07-18T12:53:22Z</time>
      </trkpt>
      <trkpt lat="43.63876" lon="3.05663">
        <ele>589.43</ele>
        <time>2015-07-18T12:53:25Z</time>
      </trkpt>
      <trkpt lat="43.63876" lon="3.0564">
        <ele>589.43</ele>
        <time>2015-07-18T12:53:26Z</time>
      </trkpt>
      <trkpt lat="43.63884" lon="3.05521">
        <ele>589.43</ele>
        <time>2015-07-18T12:53:32Z</time>
      </trkpt>
      <trkpt lat="43.63892" lon="3.05503">
        <ele>588.46</ele>
        <time>2015-07-18T12:53:33Z</time>
      </trkpt>
      <trkpt lat="43.63903" lon="3.05486">
        <ele>587.5</ele>
        <time>2015-07-18T12:53:34Z</time>
      </trkpt>
      <trkpt lat="43.63982" lon="3.05336">
        <ele>575.97</ele>
        <time>2015-07-18T12:53:41Z</time>
      </trkpt>
      <trkpt lat="43.63996" lon="3.05316">
        <ele>574.53</ele>
        <time>2015-07-18T12:53:42Z</time>
      </trkpt>
      <trkpt lat="43.64045" lon="3.05265">
        <ele>570.2</ele>
        <time>2015-07-18T12:53:45Z</time>
      </trkpt>
      <trkpt lat="43.64063" lon="3.05252">
        <ele>568.76</ele>
        <time>2015-07-18T12:53:46Z</time>
      </trkpt>
      <trkpt lat="43.64082" lon="3.05244">
        <ele>567.8</ele>
        <time>2015-07-18T12:53:47Z</time>
      </trkpt>
      <trkpt lat="43.64101" lon="3.05239">
        <ele>565.39</ele>
        <time>2015-07-18T12:53:48Z</time>
      </trkpt>
      <trkpt lat="43.6412" lon="3.0523">
        <ele>563.47</ele>
        <time>2015-07-18T12:53:49Z</time>
      </trkpt>
      <trkpt lat="43.64159" lon="3.05206">
        <ele>559.14</ele>
        <time>2015-07-18T12:53:51Z</time>
      </trkpt>
      <trkpt lat="43.64177" lon="3.05189">
        <ele>557.22</ele>
        <time>2015-07-18T12:53:52Z</time>
      </trkpt>
      <trkpt lat="43.64194" lon="3.0517">
        <ele>555.3</ele>
        <time>2015-07-18T12:53:53Z</time>
      </trkpt>
      <trkpt lat="43.64313" lon="3.05047">
        <ele>541.84</ele>
        <time>2015-07-18T12:54:00Z</time>
      </trkpt>
      <trkpt lat="43.64327" lon="3.05028">
        <ele>539.92</ele>
        <time>2015-07-18T12:54:01Z</time>
      </trkpt>
      <trkpt lat="43.64339" lon="3.05004">
        <ele>537.99</ele>
        <time>2015-07-18T12:54:02Z</time>
      </trkpt>
      <trkpt lat="43.64348" lon="3.0498">
        <ele>535.59</ele>
        <time>2015-07-18T12:54:03Z</time>
      </trkpt>
      <trkpt lat="43.64358" lon="3.04956">
        <ele>534.15</ele>
        <time>2015-07-18T12:54:04Z</time>
      </trkpt>
      <trkpt lat="43.64369" lon="3.04934">
        <ele>532.71</ele>
        <time>2015-07-18T12:54:05Z</time>
      </trkpt>
      <trkpt lat="43.64417" lon="3.04856">
        <ele>526.46</ele>
        <time>2015-07-18T12:54:09Z</time>
      </trkpt>
      <trkpt lat="43.64434" lon="3.04847">
        <ele>525.02</ele>
        <time>2015-07-18T12:54:10Z</time>
      </trkpt>
      <trkpt lat="43.64451" lon="3.04841">
        <ele>522.61</ele>
        <time>2015-07-18T12:54:11Z</time>
      </trkpt>
      <trkpt lat="43.64489" lon="3.04819">
        <ele>518.77</ele>
        <time>2015-07-18T12:54:13Z</time>
      </trkpt>
      <trkpt lat="43.64506" lon="3.04801">
        <ele>516.85</ele>
        <time>2015-07-18T12:54:14Z</time>
      </trkpt>
      <trkpt lat="43.64522" lon="3.04782">
        <ele>514.44</ele>
        <time>2015-07-18T12:54:15Z</time>
      </trkpt>
      <trkpt lat="43.64537" lon="3.0476">
        <ele>512.52</ele>
        <time>2015-07-18T12:54:16Z</time>
      </trkpt>
      <trkpt lat="43.6455" lon="3.04736">
        <ele>510.12</ele>
        <time>2015-07-18T12:54:17Z</time>
      </trkpt>
      <trkpt lat="43.64562" lon="3.0471">
        <ele>508.19</ele>
        <time>2015-07-18T12:54:18Z</time>
      </trkpt>
      <trkpt lat="43.64573" lon="3.04685">
        <ele>506.27</ele>
        <time>2015-07-18T12:54:19Z</time>
      </trkpt>
      <trkpt lat="43.64593" lon="3.04633">
        <ele>502.43</ele>
        <time>2015-07-18T12:54:21Z</time>
      </trkpt>
      <trkpt lat="43.64599" lon="3.04607">
        <ele>500.5</ele>
        <time>2015-07-18T12:54:22Z</time>
      </trkpt>
      <trkpt lat="43.64603" lon="3.0458">
        <ele>498.1</ele>
        <time>2015-07-18T12:54:23Z</time>
      </trkpt>
      <trkpt lat="43.64604" lon="3.04554">
        <ele>496.18</ele>
        <time>2015-07-18T12:54:24Z</time>
      </trkpt>
      <trkpt lat="43.64605" lon="3.04528">
        <ele>494.74</ele>
        <time>2015-07-18T12:54:25Z</time>
      </trkpt>
      <trkpt lat="43.64608" lon="3.04503">
        <ele>492.81</ele>
        <time>2015-07-18T12:54:26Z</time>
      </trkpt>
      <trkpt lat="43.64613" lon="3.04479">
        <ele>491.37</ele>
        <time>2015-07-18T12:54:27Z</time>
      </trkpt>
      <trkpt lat="43.64621" lon="3.04457">
        <ele>489.45</ele>
        <time>2015-07-18T12:54:28Z</time>
      </trkpt>
      <trkpt lat="43.64628" lon="3.04436">
        <ele>488.01</ele>
        <time>2015-07-18T12:54:29Z</time>
      </trkpt>
      <trkpt lat="43.64631" lon="3.04416">
        <ele>486.56</ele>
        <time>2015-07-18T12:54:30Z</time>
      </trkpt>
      <trkpt lat="43.64631" lon="3.04399">
        <ele>485.12</ele>
        <time>2015-07-18T12:54:31Z</time>
      </trkpt>
      <trkpt lat="43.64627" lon="3.04386">
        <ele>482.24</ele>
        <time>2015-07-18T12:54:32Z</time>
      </trkpt>
      <trkpt lat="43.64616" lon="3.04377">
        <ele>479.84</ele>
        <time>2015-07-18T12:54:33Z</time>
      </trkpt>
      <trkpt lat="43.64599" lon="3.0437">
        <ele>478.39</ele>
        <time>2015-07-18T12:54:34Z</time>
      </trkpt>
      <trkpt lat="43.64582" lon="3.04362">
        <ele>477.91</ele>
        <time>2015-07-18T12:54:35Z</time>
      </trkpt>
      <trkpt lat="43.64567" lon="3.04352">
        <ele>476.95</ele>
        <time>2015-07-18T12:54:36Z</time>
      </trkpt>
      <trkpt lat="43.64553" lon="3.04335">
        <ele>476.47</ele>
        <time>2015-07-18T12:54:37Z</time>
      </trkpt>
      <trkpt lat="43.6454" lon="3.04319">
        <ele>475.51</ele>
        <time>2015-07-18T12:54:38Z</time>
      </trkpt>
      <trkpt lat="43.64529" lon="3.04303">
        <ele>475.03</ele>
        <time>2015-07-18T12:54:39Z</time>
      </trkpt>
      <trkpt lat="43.64518" lon="3.04287">
        <ele>474.55</ele>
        <time>2015-07-18T12:54:40Z</time>
      </trkpt>
      <trkpt lat="43.64505" lon="3.04251">
        <ele>472.14</ele>
        <time>2015-07-18T12:54:42Z</time>
      </trkpt>
      <trkpt lat="43.64505" lon="3.04228">
        <ele>471.66</ele>
        <time>2015-07-18T12:54:43Z</time>
      </trkpt>
      <trkpt lat="43.64508" lon="3.04208">
        <ele>470.7</ele>
        <time>2015-07-18T12:54:44Z</time>
      </trkpt>
      <trkpt lat="43.64514" lon="3.04187">
        <ele>469.74</ele>
        <time>2015-07-18T12:54:45Z</time>
      </trkpt>
      <trkpt lat="43.64522" lon="3.04169">
        <ele>469.74</ele>
        <time>2015-07-18T12:54:46Z</time>
      </trkpt>
      <trkpt lat="43.64533" lon="3.04157">
        <ele>469.26</ele>
        <time>2015-07-18T12:54:47Z</time>
      </trkpt>
      <trkpt lat="43.64545" lon="3.04151">
        <ele>468.3</ele>
        <time>2015-07-18T12:54:48Z</time>
      </trkpt>
      <trkpt lat="43.64557" lon="3.04154">
        <ele>467.34</ele>
        <time>2015-07-18T12:54:49Z</time>
      </trkpt>
      <trkpt lat="43.64567" lon="3.04167">
        <ele>465.42</ele>
        <time>2015-07-18T12:54:50Z</time>
      </trkpt>
      <trkpt lat="43.64571" lon="3.04187">
        <ele>463.49</ele>
        <time>2015-07-18T12:54:51Z</time>
      </trkpt>
      <trkpt lat="43.64575" lon="3.04207">
        <ele>462.53</ele>
        <time>2015-07-18T12:54:52Z</time>
      </trkpt>
      <trkpt lat="43.6458" lon="3.04227">
        <ele>460.61</ele>
        <time>2015-07-18T12:54:53Z</time>
      </trkpt>
      <trkpt lat="43.64593" lon="3.04266">
        <ele>459.65</ele>
        <time>2015-07-18T12:54:55Z</time>
      </trkpt>
      <trkpt lat="43.64603" lon="3.04283">
        <ele>458.69</ele>
        <time>2015-07-18T12:54:56Z</time>
      </trkpt>
      <trkpt lat="43.64615" lon="3.04298">
        <ele>456.76</ele>
        <time>2015-07-18T12:54:57Z</time>
      </trkpt>
      <trkpt lat="43.64632" lon="3.04305">
        <ele>455.32</ele>
        <time>2015-07-18T12:54:58Z</time>
      </trkpt>
      <trkpt lat="43.6465" lon="3.04305">
        <ele>456.28</ele>
        <time>2015-07-18T12:54:59Z</time>
      </trkpt>
      <trkpt lat="43.64666" lon="3.04305">
        <ele>455.32</ele>
        <time>2015-07-18T12:55:00Z</time>
      </trkpt>
      <trkpt lat="43.64681" lon="3.04307">
        <ele>453.88</ele>
        <time>2015-07-18T12:55:01Z</time>
      </trkpt>
      <trkpt lat="43.64693" lon="3.0431">
        <ele>452.92</ele>
        <time>2015-07-18T12:55:02Z</time>
      </trkpt>
      <trkpt lat="43.64701" lon="3.04312">
        <ele>451.96</ele>
        <time>2015-07-18T12:55:03Z</time>
      </trkpt>
      <trkpt lat="43.64708" lon="3.04313">
        <ele>450.03</ele>
        <time>2015-07-18T12:55:04Z</time>
      </trkpt>
      <trkpt lat="43.64713" lon="3.04308">
        <ele>448.11</ele>
        <time>2015-07-18T12:55:05Z</time>
      </trkpt>
      <trkpt lat="43.64702" lon="3.04285">
        <ele>445.71</ele>
        <time>2015-07-18T12:55:09Z</time>
      </trkpt>
      <trkpt lat="43.6469" lon="3.04278">
        <ele>444.75</ele>
        <time>2015-07-18T12:55:10Z</time>
      </trkpt>
      <trkpt lat="43.64677" lon="3.04271">
        <ele>444.27</ele>
        <time>2015-07-18T12:55:11Z</time>
      </trkpt>
      <trkpt lat="43.64652" lon="3.04254">
        <ele>442.82</ele>
        <time>2015-07-18T12:55:13Z</time>
      </trkpt>
      <trkpt lat="43.64641" lon="3.04241">
        <ele>442.34</ele>
        <time>2015-07-18T12:55:14Z</time>
      </trkpt>
      <trkpt lat="43.64633" lon="3.04224">
        <ele>441.38</ele>
        <time>2015-07-18T12:55:15Z</time>
      </trkpt>
      <trkpt lat="43.64628" lon="3.04205">
        <ele>440.42</ele>
        <time>2015-07-18T12:55:16Z</time>
      </trkpt>
      <trkpt lat="43.64628" lon="3.04183">
        <ele>441.38</ele>
        <time>2015-07-18T12:55:17Z</time>
      </trkpt>
      <trkpt lat="43.64628" lon="3.04163">
        <ele>440.42</ele>
        <time>2015-07-18T12:55:18Z</time>
      </trkpt>
      <trkpt lat="43.64631" lon="3.04142">
        <ele>438.98</ele>
        <time>2015-07-18T12:55:19Z</time>
      </trkpt>
      <trkpt lat="43.64634" lon="3.04123">
        <ele>437.54</ele>
        <time>2015-07-18T12:55:20Z</time>
      </trkpt>
      <trkpt lat="43.64636" lon="3.04105">
        <ele>435.13</ele>
        <time>2015-07-18T12:55:21Z</time>
      </trkpt>
      <trkpt lat="43.64641" lon="3.04042">
        <ele>429.85</ele>
        <time>2015-07-18T12:55:26Z</time>
      </trkpt>
      <trkpt lat="43.64645" lon="3.04039">
        <ele>429.37</ele>
        <time>2015-07-18T12:55:27Z</time>
      </trkpt>
      <trkpt lat="43.64651" lon="3.04041">
        <ele>427.92</ele>
        <time>2015-07-18T12:55:28Z</time>
      </trkpt>
      <trkpt lat="43.64656" lon="3.04049">
        <ele>427.44</ele>
        <time>2015-07-18T12:55:29Z</time>
      </trkpt>
      <trkpt lat="43.64659" lon="3.04061">
        <ele>426.48</ele>
        <time>2015-07-18T12:55:30Z</time>
      </trkpt>
      <trkpt lat="43.6466" lon="3.04075">
        <ele>425.52</ele>
        <time>2015-07-18T12:55:31Z</time>
      </trkpt>
      <trkpt lat="43.64659" lon="3.04091">
        <ele>425.52</ele>
        <time>2015-07-18T12:55:32Z</time>
      </trkpt>
      <trkpt lat="43.64659" lon="3.04108">
        <ele>424.08</ele>
        <time>2015-07-18T12:55:33Z</time>
      </trkpt>
      <trkpt lat="43.64663" lon="3.04157">
        <ele>421.68</ele>
        <time>2015-07-18T12:55:36Z</time>
      </trkpt>
      <trkpt lat="43.64667" lon="3.04169">
        <ele>420.71</ele>
        <time>2015-07-18T12:55:37Z</time>
      </trkpt>
      <trkpt lat="43.64671" lon="3.0418">
        <ele>419.27</ele>
        <time>2015-07-18T12:55:38Z</time>
      </trkpt>
      <trkpt lat="43.64678" lon="3.04188">
        <ele>417.35</ele>
        <time>2015-07-18T12:55:39Z</time>
      </trkpt>
      <trkpt lat="43.64688" lon="3.04193">
        <ele>416.39</ele>
        <time>2015-07-18T12:55:40Z</time>
      </trkpt>
      <trkpt lat="43.64701" lon="3.04194">
        <ele>415.91</ele>
        <time>2015-07-18T12:55:41Z</time>
      </trkpt>
      <trkpt lat="43.64716" lon="3.04196">
        <ele>415.43</ele>
        <time>2015-07-18T12:55:42Z</time>
      </trkpt>
      <trkpt lat="43.64734" lon="3.04197">
        <ele>414.47</ele>
        <time>2015-07-18T12:55:43Z</time>
      </trkpt>
      <trkpt lat="43.64751" lon="3.04201">
        <ele>412.06</ele>
        <time>2015-07-18T12:55:44Z</time>
      </trkpt>
      <trkpt lat="43.64845" lon="3.04241">
        <ele>403.41</ele>
        <time>2015-07-18T12:55:51Z</time>
      </trkpt>
      <trkpt lat="43.64851" lon="3.04239">
        <ele>402.45</ele>
        <time>2015-07-18T12:55:52Z</time>
      </trkpt>
      <trkpt lat="43.64854" lon="3.04232">
        <ele>401.01</ele>
        <time>2015-07-18T12:55:53Z</time>
      </trkpt>
      <trkpt lat="43.64836" lon="3.04206">
        <ele>398.6</ele>
        <time>2015-07-18T12:55:56Z</time>
      </trkpt>
      <trkpt lat="43.64824" lon="3.04197">
        <ele>396.68</ele>
        <time>2015-07-18T12:55:57Z</time>
      </trkpt>
      <trkpt lat="43.64809" lon="3.04185">
        <ele>395.72</ele>
        <time>2015-07-18T12:55:58Z</time>
      </trkpt>
      <trkpt lat="43.64744" lon="3.04126">
        <ele>388.99</ele>
        <time>2015-07-18T12:56:03Z</time>
      </trkpt>
      <trkpt lat="43.64738" lon="3.04112">
        <ele>388.03</ele>
        <time>2015-07-18T12:56:04Z</time>
      </trkpt>
      <trkpt lat="43.64738" lon="3.04098">
        <ele>388.51</ele>
        <time>2015-07-18T12:56:05Z</time>
      </trkpt>
      <trkpt lat="43.64753" lon="3.04078">
        <ele>387.55</ele>
        <time>2015-07-18T12:56:07Z</time>
      </trkpt>
      <trkpt lat="43.64769" lon="3.04079">
        <ele>387.07</ele>
        <time>2015-07-18T12:56:08Z</time>
      </trkpt>
      <trkpt lat="43.64786" lon="3.0408">
        <ele>387.07</ele>
        <time>2015-07-18T12:56:09Z</time>
      </trkpt>
      <trkpt lat="43.64803" lon="3.04079">
        <ele>385.15</ele>
        <time>2015-07-18T12:56:10Z</time>
      </trkpt>
      <trkpt lat="43.64837" lon="3.04075">
        <ele>380.82</ele>
        <time>2015-07-18T12:56:12Z</time>
      </trkpt>
      <trkpt lat="43.64853" lon="3.0407">
        <ele>378.9</ele>
        <time>2015-07-18T12:56:13Z</time>
      </trkpt>
      <trkpt lat="43.64869" lon="3.0406">
        <ele>375.53</ele>
        <time>2015-07-18T12:56:14Z</time>
      </trkpt>
      <trkpt lat="43.64884" lon="3.04048">
        <ele>374.09</ele>
        <time>2015-07-18T12:56:15Z</time>
      </trkpt>
      <trkpt lat="43.64896" lon="3.04031">
        <ele>372.17</ele>
        <time>2015-07-18T12:56:16Z</time>
      </trkpt>
      <trkpt lat="43.64904" lon="3.0401">
        <ele>370.73</ele>
        <time>2015-07-18T12:56:17Z</time>
      </trkpt>
      <trkpt lat="43.64908" lon="3.03989">
        <ele>369.28</ele>
        <time>2015-07-18T12:56:18Z</time>
      </trkpt>
      <trkpt lat="43.64908" lon="3.03973">
        <ele>367.36</ele>
        <time>2015-07-18T12:56:19Z</time>
      </trkpt>
      <trkpt lat="43.64909" lon="3.03962">
        <ele>365.92</ele>
        <time>2015-07-18T12:56:20Z</time>
      </trkpt>
      <trkpt lat="43.64911" lon="3.03956">
        <ele>364.48</ele>
        <time>2015-07-18T12:56:21Z</time>
      </trkpt>
      <trkpt lat="43.64915" lon="3.03955">
        <ele>363.52</ele>
        <time>2015-07-18T12:56:22Z</time>
      </trkpt>
      <trkpt lat="43.64919" lon="3.03962">
        <ele>362.55</ele>
        <time>2015-07-18T12:56:23Z</time>
      </trkpt>
      <trkpt lat="43.64921" lon="3.03974">
        <ele>361.11</ele>
        <time>2015-07-18T12:56:24Z</time>
      </trkpt>
      <trkpt lat="43.64918" lon="3.03993">
        <ele>362.07</ele>
        <time>2015-07-18T12:56:25Z</time>
      </trkpt>
      <trkpt lat="43.64915" lon="3.0401">
        <ele>361.11</ele>
        <time>2015-07-18T12:56:26Z</time>
      </trkpt>
      <trkpt lat="43.64902" lon="3.04084">
        <ele>356.79</ele>
        <time>2015-07-18T12:56:33Z</time>
      </trkpt>
      <trkpt lat="43.64903" lon="3.0409">
        <ele>356.79</ele>
        <time>2015-07-18T12:56:35Z</time>
      </trkpt>
      <trkpt lat="43.64905" lon="3.04091">
        <ele>356.31</ele>
        <time>2015-07-18T12:56:36Z</time>
      </trkpt>
      <trkpt lat="43.64906" lon="3.04092">
        <ele>356.79</ele>
        <time>2015-07-18T12:56:37Z</time>
      </trkpt>
      <trkpt lat="43.64908" lon="3.04091">
        <ele>356.31</ele>
        <time>2015-07-18T12:56:38Z</time>
      </trkpt>
      <trkpt lat="43.64909" lon="3.04089">
        <ele>355.34</ele>
        <time>2015-07-18T12:56:39Z</time>
      </trkpt>
      <trkpt lat="43.64916" lon="3.04084">
        <ele>354.86</ele>
        <time>2015-07-18T12:56:41Z</time>
      </trkpt>
      <trkpt lat="43.6492" lon="3.04079">
        <ele>354.38</ele>
        <time>2015-07-18T12:56:42Z</time>
      </trkpt>
      <trkpt lat="43.6497" lon="3.04005">
        <ele>346.21</ele>
        <time>2015-07-18T12:56:50Z</time>
      </trkpt>
      <trkpt lat="43.64978" lon="3.03998">
        <ele>345.73</ele>
        <time>2015-07-18T12:56:51Z</time>
      </trkpt>
      <trkpt lat="43.64986" lon="3.03992">
        <ele>345.25</ele>
        <time>2015-07-18T12:56:52Z</time>
      </trkpt>
      <trkpt lat="43.65003" lon="3.03985">
        <ele>343.81</ele>
        <time>2015-07-18T12:56:54Z</time>
      </trkpt>
      <trkpt lat="43.65011" lon="3.03983">
        <ele>343.33</ele>
        <time>2015-07-18T12:56:55Z</time>
      </trkpt>
      <trkpt lat="43.65019" lon="3.03983">
        <ele>342.85</ele>
        <time>2015-07-18T12:56:56Z</time>
      </trkpt>
      <trkpt lat="43.65027" lon="3.03983">
        <ele>342.37</ele>
        <time>2015-07-18T12:56:57Z</time>
      </trkpt>
      <trkpt lat="43.65036" lon="3.03985">
        <ele>341.89</ele>
        <time>2015-07-18T12:56:58Z</time>
      </trkpt>
      <trkpt lat="43.65127" lon="3.03998">
        <ele>344.77</ele>
        <time>2015-07-18T12:57:08Z</time>
      </trkpt>
      <trkpt lat="43.65152" lon="3.04001">
        <ele>345.73</ele>
        <time>2015-07-18T12:57:11Z</time>
      </trkpt>
      <trkpt lat="43.65158" lon="3.04006">
        <ele>345.73</ele>
        <time>2015-07-18T12:57:12Z</time>
      </trkpt>
      <trkpt lat="43.65163" lon="3.04012">
        <ele>346.21</ele>
        <time>2015-07-18T12:57:13Z</time>
      </trkpt>
      <trkpt lat="43.6518" lon="3.0404">
        <ele>345.73</ele>
        <time>2015-07-18T12:57:17Z</time>
      </trkpt>
      <trkpt lat="43.65193" lon="3.04057">
        <ele>350.54</ele>
        <time>2015-07-18T12:57:20Z</time>
      </trkpt>
      <trkpt lat="43.65196" lon="3.04061">
        <ele>351.98</ele>
        <time>2015-07-18T12:57:21Z</time>
      </trkpt>
      <trkpt lat="43.652" lon="3.04062">
        <ele>351.02</ele>
        <time>2015-07-18T12:57:22Z</time>
      </trkpt>
      <trkpt lat="43.65205" lon="3.04061">
        <ele>350.06</ele>
        <time>2015-07-18T12:57:23Z</time>
      </trkpt>
      <trkpt lat="43.6521" lon="3.04057">
        <ele>349.58</ele>
        <time>2015-07-18T12:57:24Z</time>
      </trkpt>
      <trkpt lat="43.65217" lon="3.04053">
        <ele>348.62</ele>
        <time>2015-07-18T12:57:25Z</time>
      </trkpt>
      <trkpt lat="43.65222" lon="3.04047">
        <ele>347.17</ele>
        <time>2015-07-18T12:57:26Z</time>
      </trkpt>
      <trkpt lat="43.6525" lon="3.04017">
        <ele>337.08</ele>
        <time>2015-07-18T12:57:34Z</time>
      </trkpt>
      <trkpt lat="43.65253" lon="3.04015">
        <ele>336.6</ele>
        <time>2015-07-18T12:57:35Z</time>
      </trkpt>
      <trkpt lat="43.65257" lon="3.04016">
        <ele>336.12</ele>
        <time>2015-07-18T12:57:36Z</time>
      </trkpt>
      <trkpt lat="43.65261" lon="3.0402">
        <ele>335.64</ele>
        <time>2015-07-18T12:57:37Z</time>
      </trkpt>
      <trkpt lat="43.65265" lon="3.04025">
        <ele>335.16</ele>
        <time>2015-07-18T12:57:38Z</time>
      </trkpt>
      <trkpt lat="43.65271" lon="3.0403">
        <ele>336.12</ele>
        <time>2015-07-18T12:57:39Z</time>
      </trkpt>
      <trkpt lat="43.65329" lon="3.04078">
        <ele>340.44</ele>
        <time>2015-07-18T12:57:48Z</time>
      </trkpt>
      <trkpt lat="43.65343" lon="3.04088">
        <ele>343.33</ele>
        <time>2015-07-18T12:57:50Z</time>
      </trkpt>
      <trkpt lat="43.65417" lon="3.04129">
        <ele>367.84</ele>
        <time>2015-07-18T12:57:59Z</time>
      </trkpt>
      <trkpt lat="43.65485" lon="3.04161">
        <ele>375.53</ele>
        <time>2015-07-18T12:58:07Z</time>
      </trkpt>
      <trkpt lat="43.65494" lon="3.04161">
        <ele>374.57</ele>
        <time>2015-07-18T12:58:08Z</time>
      </trkpt>
      <trkpt lat="43.65514" lon="3.04158">
        <ele>372.17</ele>
        <time>2015-07-18T12:58:10Z</time>
      </trkpt>
      <trkpt lat="43.65524" lon="3.04154">
        <ele>370.73</ele>
        <time>2015-07-18T12:58:11Z</time>
      </trkpt>
      <trkpt lat="43.65531" lon="3.04146">
        <ele>367.84</ele>
        <time>2015-07-18T12:58:12Z</time>
      </trkpt>
      <trkpt lat="43.65539" lon="3.04136">
        <ele>361.11</ele>
        <time>2015-07-18T12:58:13Z</time>
      </trkpt>
      <trkpt lat="43.65544" lon="3.04126">
        <ele>357.27</ele>
        <time>2015-07-18T12:58:14Z</time>
      </trkpt>
      <trkpt lat="43.65549" lon="3.04116">
        <ele>355.34</ele>
        <time>2015-07-18T12:58:15Z</time>
      </trkpt>
      <trkpt lat="43.65552" lon="3.04105">
        <ele>352.94</ele>
        <time>2015-07-18T12:58:16Z</time>
      </trkpt>
      <trkpt lat="43.65555" lon="3.04095">
        <ele>350.54</ele>
        <time>2015-07-18T12:58:17Z</time>
      </trkpt>
      <trkpt lat="43.65556" lon="3.04082">
        <ele>348.62</ele>
        <time>2015-07-18T12:58:18Z</time>
      </trkpt>
      <trkpt lat="43.65556" lon="3.0407">
        <ele>346.69</ele>
        <time>2015-07-18T12:58:19Z</time>
      </trkpt>
      <trkpt lat="43.65558" lon="3.04045">
        <ele>343.33</ele>
        <time>2015-07-18T12:58:21Z</time>
      </trkpt>
      <trkpt lat="43.6556" lon="3.04032">
        <ele>341.89</ele>
        <time>2015-07-18T12:58:22Z</time>
      </trkpt>
      <trkpt lat="43.65564" lon="3.04019">
        <ele>340.92</ele>
        <time>2015-07-18T12:58:23Z</time>
      </trkpt>
      <trkpt lat="43.65594" lon="3.03948">
        <ele>335.64</ele>
        <time>2015-07-18T12:58:29Z</time>
      </trkpt>
      <trkpt lat="43.65598" lon="3.03941">
        <ele>335.16</ele>
        <time>2015-07-18T12:58:30Z</time>
      </trkpt>
      <trkpt lat="43.65602" lon="3.03937">
        <ele>334.68</ele>
        <time>2015-07-18T12:58:31Z</time>
      </trkpt>
      <trkpt lat="43.65605" lon="3.03936">
        <ele>334.2</ele>
        <time>2015-07-18T12:58:32Z</time>
      </trkpt>
      <trkpt lat="43.65607" lon="3.03936">
        <ele>333.71</ele>
        <time>2015-07-18T12:58:33Z</time>
      </trkpt>
      <trkpt lat="43.65608" lon="3.03936">
        <ele>333.23</ele>
        <time>2015-07-18T12:58:34Z</time>
      </trkpt>
      <trkpt lat="43.6561" lon="3.03935">
        <ele>333.23</ele>
        <time>2015-07-18T12:58:35Z</time>
      </trkpt>
      <trkpt lat="43.65613" lon="3.03933">
        <ele>332.75</ele>
        <time>2015-07-18T12:58:36Z</time>
      </trkpt>
      <trkpt lat="43.65617" lon="3.03925">
        <ele>331.79</ele>
        <time>2015-07-18T12:58:37Z</time>
      </trkpt>
      <trkpt lat="43.65622" lon="3.03912">
        <ele>331.79</ele>
        <time>2015-07-18T12:58:38Z</time>
      </trkpt>
      <trkpt lat="43.6566" lon="3.03838">
        <ele>330.35</ele>
        <time>2015-07-18T12:58:43Z</time>
      </trkpt>
      <trkpt lat="43.65763" lon="3.03723">
        <ele>329.87</ele>
        <time>2015-07-18T12:58:52Z</time>
      </trkpt>
      <trkpt lat="43.65898" lon="3.03614">
        <ele>326.99</ele>
        <time>2015-07-18T12:59:02Z</time>
      </trkpt>
      <trkpt lat="43.66028" lon="3.03494">
        <ele>324.58</ele>
        <time>2015-07-18T12:59:10Z</time>
      </trkpt>
      <trkpt lat="43.66097" lon="3.03411">
        <ele>326.5</ele>
        <time>2015-07-18T12:59:15Z</time>
      </trkpt>
      <trkpt lat="43.66105" lon="3.03391">
        <ele>326.02</ele>
        <time>2015-07-18T12:59:16Z</time>
      </trkpt>
      <trkpt lat="43.66109" lon="3.03365">
        <ele>326.99</ele>
        <time>2015-07-18T12:59:17Z</time>
      </trkpt>
      <trkpt lat="43.66111" lon="3.03337">
        <ele>327.95</ele>
        <time>2015-07-18T12:59:18Z</time>
      </trkpt>
      <trkpt lat="43.66112" lon="3.0331">
        <ele>328.43</ele>
        <time>2015-07-18T12:59:19Z</time>
      </trkpt>
      <trkpt lat="43.66111" lon="3.03282">
        <ele>328.91</ele>
        <time>2015-07-18T12:59:20Z</time>
      </trkpt>
      <trkpt lat="43.66109" lon="3.03255">
        <ele>329.39</ele>
        <time>2015-07-18T12:59:21Z</time>
      </trkpt>
      <trkpt lat="43.66108" lon="3.03183">
        <ele>332.27</ele>
        <time>2015-07-18T12:59:24Z</time>
      </trkpt>
      <trkpt lat="43.66111" lon="3.03161">
        <ele>332.75</ele>
        <time>2015-07-18T12:59:25Z</time>
      </trkpt>
      <trkpt lat="43.66116" lon="3.0314">
        <ele>333.71</ele>
        <time>2015-07-18T12:59:26Z</time>
      </trkpt>
      <trkpt lat="43.66121" lon="3.03119">
        <ele>334.2</ele>
        <time>2015-07-18T12:59:27Z</time>
      </trkpt>
      <trkpt lat="43.66128" lon="3.031">
        <ele>334.68</ele>
        <time>2015-07-18T12:59:28Z</time>
      </trkpt>
      <trkpt lat="43.66135" lon="3.03081">
        <ele>335.16</ele>
        <time>2015-07-18T12:59:29Z</time>
      </trkpt>
      <trkpt lat="43.66143" lon="3.03064">
        <ele>336.12</ele>
        <time>2015-07-18T12:59:30Z</time>
      </trkpt>
      <trkpt lat="43.6622" lon="3.02904">
        <ele>338.04</ele>
        <time>2015-07-18T12:59:41Z</time>
      </trkpt>
      <trkpt lat="43.66231" lon="3.02867">
        <ele>337.56</ele>
        <time>2015-07-18T12:59:43Z</time>
      </trkpt>
      <trkpt lat="43.66235" lon="3.02848">
        <ele>338.04</ele>
        <time>2015-07-18T12:59:44Z</time>
      </trkpt>
      <trkpt lat="43.66238" lon="3.02828">
        <ele>338.04</ele>
        <time>2015-07-18T12:59:45Z</time>
      </trkpt>
      <trkpt lat="43.66242" lon="3.02683">
        <ele>336.12</ele>
        <time>2015-07-18T12:59:53Z</time>
      </trkpt>
      <trkpt lat="43.66256" lon="3.025">
        <ele>340.92</ele>
        <time>2015-07-18T13:00:01Z</time>
      </trkpt>
      <trkpt lat="43.66261" lon="3.02481">
        <ele>341.41</ele>
        <time>2015-07-18T13:00:02Z</time>
      </trkpt>
      <trkpt lat="43.66269" lon="3.02464">
        <ele>341.41</ele>
        <time>2015-07-18T13:00:03Z</time>
      </trkpt>
      <trkpt lat="43.6628" lon="3.02448">
        <ele>341.89</ele>
        <time>2015-07-18T13:00:04Z</time>
      </trkpt>
      <trkpt lat="43.66293" lon="3.0243">
        <ele>341.89</ele>
        <time>2015-07-18T13:00:05Z</time>
      </trkpt>
      <trkpt lat="43.66372" lon="3.02308">
        <ele>344.29</ele>
        <time>2015-07-18T13:00:12Z</time>
      </trkpt>
      <trkpt lat="43.66381" lon="3.02287">
        <ele>344.29</ele>
        <time>2015-07-18T13:00:13Z</time>
      </trkpt>
      <trkpt lat="43.664" lon="3.02241">
        <ele>346.21</ele>
        <time>2015-07-18T13:00:15Z</time>
      </trkpt>
      <trkpt lat="43.66411" lon="3.0222">
        <ele>346.69</ele>
        <time>2015-07-18T13:00:16Z</time>
      </trkpt>
      <trkpt lat="43.6644" lon="3.0216">
        <ele>348.13</ele>
        <time>2015-07-18T13:00:19Z</time>
      </trkpt>
      <trkpt lat="43.66446" lon="3.02138">
        <ele>348.62</ele>
        <time>2015-07-18T13:00:20Z</time>
      </trkpt>
      <trkpt lat="43.66451" lon="3.02118">
        <ele>349.58</ele>
        <time>2015-07-18T13:00:21Z</time>
      </trkpt>
      <trkpt lat="43.66458" lon="3.02099">
        <ele>350.06</ele>
        <time>2015-07-18T13:00:22Z</time>
      </trkpt>
      <trkpt lat="43.66469" lon="3.02083">
        <ele>350.54</ele>
        <time>2015-07-18T13:00:23Z</time>
      </trkpt>
      <trkpt lat="43.66484" lon="3.02072">
        <ele>351.5</ele>
        <time>2015-07-18T13:00:24Z</time>
      </trkpt>
      <trkpt lat="43.66502" lon="3.02065">
        <ele>351.98</ele>
        <time>2015-07-18T13:00:25Z</time>
      </trkpt>
      <trkpt lat="43.66519" lon="3.02059">
        <ele>352.46</ele>
        <time>2015-07-18T13:00:26Z</time>
      </trkpt>
      <trkpt lat="43.66538" lon="3.02055">
        <ele>353.42</ele>
        <time>2015-07-18T13:00:27Z</time>
      </trkpt>
      <trkpt lat="43.66555" lon="3.02051">
        <ele>353.9</ele>
        <time>2015-07-18T13:00:28Z</time>
      </trkpt>
      <trkpt lat="43.66602" lon="3.02021">
        <ele>355.34</ele>
        <time>2015-07-18T13:00:31Z</time>
      </trkpt>
      <trkpt lat="43.66615" lon="3.02">
        <ele>355.34</ele>
        <time>2015-07-18T13:00:32Z</time>
      </trkpt>
      <trkpt lat="43.66684" lon="3.01924">
        <ele>358.23</ele>
        <time>2015-07-18T13:00:37Z</time>
      </trkpt>
      <trkpt lat="43.66694" lon="3.01906">
        <ele>358.71</ele>
        <time>2015-07-18T13:00:38Z</time>
      </trkpt>
      <trkpt lat="43.66701" lon="3.01885">
        <ele>358.71</ele>
        <time>2015-07-18T13:00:39Z</time>
      </trkpt>
      <trkpt lat="43.66706" lon="3.01864">
        <ele>359.67</ele>
        <time>2015-07-18T13:00:40Z</time>
      </trkpt>
      <trkpt lat="43.66709" lon="3.01842">
        <ele>360.63</ele>
        <time>2015-07-18T13:00:41Z</time>
      </trkpt>
      <trkpt lat="43.6671" lon="3.01822">
        <ele>361.11</ele>
        <time>2015-07-18T13:00:42Z</time>
      </trkpt>
      <trkpt lat="43.66707" lon="3.01804">
        <ele>361.11</ele>
        <time>2015-07-18T13:00:43Z</time>
      </trkpt>
      <trkpt lat="43.66702" lon="3.01788">
        <ele>361.59</ele>
        <time>2015-07-18T13:00:44Z</time>
      </trkpt>
      <trkpt lat="43.66695" lon="3.01778">
        <ele>362.07</ele>
        <time>2015-07-18T13:00:45Z</time>
      </trkpt>
      <trkpt lat="43.66677" lon="3.01781">
        <ele>364.96</ele>
        <time>2015-07-18T13:00:46Z</time>
      </trkpt>
      <trkpt lat="43.66664" lon="3.01778">
        <ele>364.96</ele>
        <time>2015-07-18T13:00:47Z</time>
      </trkpt>
      <trkpt lat="43.66653" lon="3.01771">
        <ele>365.44</ele>
        <time>2015-07-18T13:00:48Z</time>
      </trkpt>
      <trkpt lat="43.66643" lon="3.01762">
        <ele>365.92</ele>
        <time>2015-07-18T13:00:49Z</time>
      </trkpt>
      <trkpt lat="43.66634" lon="3.01751">
        <ele>366.4</ele>
        <time>2015-07-18T13:00:50Z</time>
      </trkpt>
      <trkpt lat="43.66625" lon="3.01738">
        <ele>366.88</ele>
        <time>2015-07-18T13:00:51Z</time>
      </trkpt>
      <trkpt lat="43.66616" lon="3.01724">
        <ele>366.88</ele>
        <time>2015-07-18T13:00:52Z</time>
      </trkpt>
      <trkpt lat="43.66594" lon="3.01701">
        <ele>367.36</ele>
        <time>2015-07-18T13:00:54Z</time>
      </trkpt>
      <trkpt lat="43.66581" lon="3.01692">
        <ele>368.32</ele>
        <time>2015-07-18T13:00:55Z</time>
      </trkpt>
      <trkpt lat="43.66569" lon="3.01684">
        <ele>369.28</ele>
        <time>2015-07-18T13:00:56Z</time>
      </trkpt>
      <trkpt lat="43.66558" lon="3.01673">
        <ele>369.76</ele>
        <time>2015-07-18T13:00:57Z</time>
      </trkpt>
      <trkpt lat="43.66548" lon="3.01661">
        <ele>371.21</ele>
        <time>2015-07-18T13:00:58Z</time>
      </trkpt>
      <trkpt lat="43.66543" lon="3.01642">
        <ele>370.24</ele>
        <time>2015-07-18T13:00:59Z</time>
      </trkpt>
      <trkpt lat="43.66539" lon="3.01623">
        <ele>370.24</ele>
        <time>2015-07-18T13:01:00Z</time>
      </trkpt>
      <trkpt lat="43.66537" lon="3.01601">
        <ele>373.61</ele>
        <time>2015-07-18T13:01:01Z</time>
      </trkpt>
      <trkpt lat="43.66538" lon="3.01578">
        <ele>374.57</ele>
        <time>2015-07-18T13:01:02Z</time>
      </trkpt>
      <trkpt lat="43.66539" lon="3.01554">
        <ele>374.57</ele>
        <time>2015-07-18T13:01:03Z</time>
      </trkpt>
      <trkpt lat="43.66539" lon="3.0153">
        <ele>373.13</ele>
        <time>2015-07-18T13:01:04Z</time>
      </trkpt>
      <trkpt lat="43.6655" lon="3.01447">
        <ele>371.21</ele>
        <time>2015-07-18T13:01:08Z</time>
      </trkpt>
      <trkpt lat="43.66557" lon="3.0143">
        <ele>370.73</ele>
        <time>2015-07-18T13:01:09Z</time>
      </trkpt>
      <trkpt lat="43.66566" lon="3.01414">
        <ele>370.24</ele>
        <time>2015-07-18T13:01:10Z</time>
      </trkpt>
      <trkpt lat="43.66576" lon="3.014">
        <ele>370.24</ele>
        <time>2015-07-18T13:01:11Z</time>
      </trkpt>
      <trkpt lat="43.66587" lon="3.01387">
        <ele>370.24</ele>
        <time>2015-07-18T13:01:12Z</time>
      </trkpt>
      <trkpt lat="43.666" lon="3.0138">
        <ele>369.76</ele>
        <time>2015-07-18T13:01:13Z</time>
      </trkpt>
      <trkpt lat="43.66612" lon="3.01375">
        <ele>367.84</ele>
        <time>2015-07-18T13:01:14Z</time>
      </trkpt>
      <trkpt lat="43.66627" lon="3.0137">
        <ele>367.84</ele>
        <time>2015-07-18T13:01:15Z</time>
      </trkpt>
      <trkpt lat="43.6664" lon="3.01363">
        <ele>366.4</ele>
        <time>2015-07-18T13:01:16Z</time>
      </trkpt>
      <trkpt lat="43.66654" lon="3.01353">
        <ele>365.92</ele>
        <time>2015-07-18T13:01:17Z</time>
      </trkpt>
      <trkpt lat="43.66667" lon="3.01341">
        <ele>365.92</ele>
        <time>2015-07-18T13:01:18Z</time>
      </trkpt>
      <trkpt lat="43.667" lon="3.01306">
        <ele>364</ele>
        <time>2015-07-18T13:01:21Z</time>
      </trkpt>
      <trkpt lat="43.66709" lon="3.0129">
        <ele>363.52</ele>
        <time>2015-07-18T13:01:22Z</time>
      </trkpt>
      <trkpt lat="43.66714" lon="3.01271">
        <ele>363.52</ele>
        <time>2015-07-18T13:01:23Z</time>
      </trkpt>
      <trkpt lat="43.66717" lon="3.01251">
        <ele>363.52</ele>
        <time>2015-07-18T13:01:24Z</time>
      </trkpt>
      <trkpt lat="43.66717" lon="3.01232">
        <ele>364</ele>
        <time>2015-07-18T13:01:25Z</time>
      </trkpt>
      <trkpt lat="43.66712" lon="3.01213">
        <ele>364</ele>
        <time>2015-07-18T13:01:26Z</time>
      </trkpt>
      <trkpt lat="43.66705" lon="3.01196">
        <ele>364.96</ele>
        <time>2015-07-18T13:01:27Z</time>
      </trkpt>
      <trkpt lat="43.66696" lon="3.01179">
        <ele>365.92</ele>
        <time>2015-07-18T13:01:28Z</time>
      </trkpt>
      <trkpt lat="43.6669" lon="3.01163">
        <ele>366.4</ele>
        <time>2015-07-18T13:01:29Z</time>
      </trkpt>
      <trkpt lat="43.66687" lon="3.01149">
        <ele>366.88</ele>
        <time>2015-07-18T13:01:30Z</time>
      </trkpt>
      <trkpt lat="43.66687" lon="3.01133">
        <ele>367.36</ele>
        <time>2015-07-18T13:01:31Z</time>
      </trkpt>
      <trkpt lat="43.66694" lon="3.01122">
        <ele>367.84</ele>
        <time>2015-07-18T13:01:32Z</time>
      </trkpt>
      <trkpt lat="43.66701" lon="3.01112">
        <ele>368.8</ele>
        <time>2015-07-18T13:01:33Z</time>
      </trkpt>
      <trkpt lat="43.6671" lon="3.01106">
        <ele>369.28</ele>
        <time>2015-07-18T13:01:34Z</time>
      </trkpt>
      <trkpt lat="43.66719" lon="3.01099">
        <ele>369.28</ele>
        <time>2015-07-18T13:01:35Z</time>
      </trkpt>
      <trkpt lat="43.66772" lon="3.01048">
        <ele>368.8</ele>
        <time>2015-07-18T13:01:40Z</time>
      </trkpt>
      <trkpt lat="43.66782" lon="3.01031">
        <ele>368.32</ele>
        <time>2015-07-18T13:01:41Z</time>
      </trkpt>
      <trkpt lat="43.6679" lon="3.01012">
        <ele>368.32</ele>
        <time>2015-07-18T13:01:42Z</time>
      </trkpt>
      <trkpt lat="43.66796" lon="3.00992">
        <ele>368.32</ele>
        <time>2015-07-18T13:01:43Z</time>
      </trkpt>
      <trkpt lat="43.66797" lon="3.00969">
        <ele>368.8</ele>
        <time>2015-07-18T13:01:44Z</time>
      </trkpt>
      <trkpt lat="43.66795" lon="3.00945">
        <ele>369.28</ele>
        <time>2015-07-18T13:01:45Z</time>
      </trkpt>
      <trkpt lat="43.66792" lon="3.0092">
        <ele>370.24</ele>
        <time>2015-07-18T13:01:46Z</time>
      </trkpt>
      <trkpt lat="43.66788" lon="3.00849">
        <ele>373.61</ele>
        <time>2015-07-18T13:01:49Z</time>
      </trkpt>
      <trkpt lat="43.6679" lon="3.00826">
        <ele>375.05</ele>
        <time>2015-07-18T13:01:50Z</time>
      </trkpt>
      <trkpt lat="43.66827" lon="3.00629">
        <ele>386.59</ele>
        <time>2015-07-18T13:01:58Z</time>
      </trkpt>
      <trkpt lat="43.66833" lon="3.00605">
        <ele>388.51</ele>
        <time>2015-07-18T13:01:59Z</time>
      </trkpt>
      <trkpt lat="43.66842" lon="3.00584">
        <ele>389.95</ele>
        <time>2015-07-18T13:02:00Z</time>
      </trkpt>
      <trkpt lat="43.66854" lon="3.00565">
        <ele>391.39</ele>
        <time>2015-07-18T13:02:01Z</time>
      </trkpt>
      <trkpt lat="43.66866" lon="3.00545">
        <ele>392.84</ele>
        <time>2015-07-18T13:02:02Z</time>
      </trkpt>
      <trkpt lat="43.66877" lon="3.00522">
        <ele>394.28</ele>
        <time>2015-07-18T13:02:03Z</time>
      </trkpt>
      <trkpt lat="43.66884" lon="3.00495">
        <ele>396.2</ele>
        <time>2015-07-18T13:02:04Z</time>
      </trkpt>
      <trkpt lat="43.66891" lon="3.00468">
        <ele>398.12</ele>
        <time>2015-07-18T13:02:05Z</time>
      </trkpt>
      <trkpt lat="43.66899" lon="3.00443">
        <ele>400.05</ele>
        <time>2015-07-18T13:02:06Z</time>
      </trkpt>
      <trkpt lat="43.66913" lon="3.0042">
        <ele>401.49</ele>
        <time>2015-07-18T13:02:07Z</time>
      </trkpt>
      <trkpt lat="43.66931" lon="3.00401">
        <ele>403.41</ele>
        <time>2015-07-18T13:02:08Z</time>
      </trkpt>
      <trkpt lat="43.6695" lon="3.00383">
        <ele>405.33</ele>
        <time>2015-07-18T13:02:09Z</time>
      </trkpt>
      <trkpt lat="43.6697" lon="3.00366">
        <ele>407.26</ele>
        <time>2015-07-18T13:02:10Z</time>
      </trkpt>
      <trkpt lat="43.67062" lon="3.00293">
        <ele>416.39</ele>
        <time>2015-07-18T13:02:15Z</time>
      </trkpt>
      <trkpt lat="43.67082" lon="3.00288">
        <ele>418.31</ele>
        <time>2015-07-18T13:02:16Z</time>
      </trkpt>
      <trkpt lat="43.67101" lon="3.00283">
        <ele>419.75</ele>
        <time>2015-07-18T13:02:17Z</time>
      </trkpt>
      <trkpt lat="43.67119" lon="3.00277">
        <ele>421.68</ele>
        <time>2015-07-18T13:02:18Z</time>
      </trkpt>
      <trkpt lat="43.67136" lon="3.00268">
        <ele>423.6</ele>
        <time>2015-07-18T13:02:19Z</time>
      </trkpt>
      <trkpt lat="43.67152" lon="3.00254">
        <ele>425.04</ele>
        <time>2015-07-18T13:02:20Z</time>
      </trkpt>
      <trkpt lat="43.67167" lon="3.00238">
        <ele>426.48</ele>
        <time>2015-07-18T13:02:21Z</time>
      </trkpt>
      <trkpt lat="43.6718" lon="3.00222">
        <ele>428.4</ele>
        <time>2015-07-18T13:02:22Z</time>
      </trkpt>
      <trkpt lat="43.67191" lon="3.00207">
        <ele>430.33</ele>
        <time>2015-07-18T13:02:23Z</time>
      </trkpt>
      <trkpt lat="43.672" lon="3.00192">
        <ele>431.77</ele>
        <time>2015-07-18T13:02:24Z</time>
      </trkpt>
      <trkpt lat="43.67205" lon="3.00177">
        <ele>434.17</ele>
        <time>2015-07-18T13:02:25Z</time>
      </trkpt>
      <trkpt lat="43.6721" lon="3.00167">
        <ele>434.65</ele>
        <time>2015-07-18T13:02:26Z</time>
      </trkpt>
      <trkpt lat="43.67216" lon="3.0016">
        <ele>436.1</ele>
        <time>2015-07-18T13:02:27Z</time>
      </trkpt>
      <trkpt lat="43.67223" lon="3.0016">
        <ele>438.02</ele>
        <time>2015-07-18T13:02:28Z</time>
      </trkpt>
      <trkpt lat="43.67232" lon="3.00165">
        <ele>439.94</ele>
        <time>2015-07-18T13:02:29Z</time>
      </trkpt>
      <trkpt lat="43.67239" lon="3.00176">
        <ele>441.38</ele>
        <time>2015-07-18T13:02:30Z</time>
      </trkpt>
      <trkpt lat="43.67243" lon="3.00187">
        <ele>443.31</ele>
        <time>2015-07-18T13:02:31Z</time>
      </trkpt>
      <trkpt lat="43.67248" lon="3.00196">
        <ele>444.27</ele>
        <time>2015-07-18T13:02:32Z</time>
      </trkpt>
      <trkpt lat="43.67253" lon="3.00204">
        <ele>444.75</ele>
        <time>2015-07-18T13:02:33Z</time>
      </trkpt>
      <trkpt lat="43.6726" lon="3.00211">
        <ele>445.71</ele>
        <time>2015-07-18T13:02:34Z</time>
      </trkpt>
      <trkpt lat="43.67269" lon="3.00216">
        <ele>446.19</ele>
        <time>2015-07-18T13:02:35Z</time>
      </trkpt>
      <trkpt lat="43.67278" lon="3.00219">
        <ele>446.67</ele>
        <time>2015-07-18T13:02:36Z</time>
      </trkpt>
      <trkpt lat="43.67287" lon="3.00221">
        <ele>448.11</ele>
        <time>2015-07-18T13:02:37Z</time>
      </trkpt>
      <trkpt lat="43.67296" lon="3.00221">
        <ele>449.07</ele>
        <time>2015-07-18T13:02:38Z</time>
      </trkpt>
      <trkpt lat="43.67303" lon="3.00216">
        <ele>449.07</ele>
        <time>2015-07-18T13:02:39Z</time>
      </trkpt>
      <trkpt lat="43.6731" lon="3.00208">
        <ele>449.07</ele>
        <time>2015-07-18T13:02:40Z</time>
      </trkpt>
      <trkpt lat="43.67313" lon="3.00195">
        <ele>448.59</ele>
        <time>2015-07-18T13:02:41Z</time>
      </trkpt>
      <trkpt lat="43.67316" lon="3.00182">
        <ele>449.55</ele>
        <time>2015-07-18T13:02:42Z</time>
      </trkpt>
      <trkpt lat="43.67319" lon="3.00167">
        <ele>450.52</ele>
        <time>2015-07-18T13:02:43Z</time>
      </trkpt>
      <trkpt lat="43.67321" lon="3.00154">
        <ele>451.48</ele>
        <time>2015-07-18T13:02:44Z</time>
      </trkpt>
      <trkpt lat="43.67326" lon="3.00141">
        <ele>452.92</ele>
        <time>2015-07-18T13:02:45Z</time>
      </trkpt>
      <trkpt lat="43.67332" lon="3.0013">
        <ele>453.4</ele>
        <time>2015-07-18T13:02:46Z</time>
      </trkpt>
      <trkpt lat="43.6734" lon="3.0012">
        <ele>453.88</ele>
        <time>2015-07-18T13:02:47Z</time>
      </trkpt>
      <trkpt lat="43.67348" lon="3.00112">
        <ele>454.84</ele>
        <time>2015-07-18T13:02:48Z</time>
      </trkpt>
      <trkpt lat="43.6736" lon="3.00111">
        <ele>455.8</ele>
        <time>2015-07-18T13:02:49Z</time>
      </trkpt>
      <trkpt lat="43.6737" lon="3.00117">
        <ele>457.72</ele>
        <time>2015-07-18T13:02:50Z</time>
      </trkpt>
      <trkpt lat="43.67379" lon="3.00127">
        <ele>459.17</ele>
        <time>2015-07-18T13:02:51Z</time>
      </trkpt>
      <trkpt lat="43.6739" lon="3.00132">
        <ele>459.65</ele>
        <time>2015-07-18T13:02:52Z</time>
      </trkpt>
      <trkpt lat="43.67401" lon="3.00135">
        <ele>461.09</ele>
        <time>2015-07-18T13:02:53Z</time>
      </trkpt>
      <trkpt lat="43.67413" lon="3.00134">
        <ele>462.05</ele>
        <time>2015-07-18T13:02:54Z</time>
      </trkpt>
      <trkpt lat="43.67426" lon="3.0013">
        <ele>462.53</ele>
        <time>2015-07-18T13:02:55Z</time>
      </trkpt>
      <trkpt lat="43.67438" lon="3.00124">
        <ele>464.45</ele>
        <time>2015-07-18T13:02:56Z</time>
      </trkpt>
      <trkpt lat="43.67449" lon="3.00118">
        <ele>465.42</ele>
        <time>2015-07-18T13:02:57Z</time>
      </trkpt>
      <trkpt lat="43.6747" lon="3.0011">
        <ele>468.78</ele>
        <time>2015-07-18T13:02:59Z</time>
      </trkpt>
      <trkpt lat="43.67481" lon="3.00111">
        <ele>470.22</ele>
        <time>2015-07-18T13:03:00Z</time>
      </trkpt>
      <trkpt lat="43.6749" lon="3.00118">
        <ele>471.66</ele>
        <time>2015-07-18T13:03:01Z</time>
      </trkpt>
      <trkpt lat="43.67498" lon="3.00129">
        <ele>473.11</ele>
        <time>2015-07-18T13:03:02Z</time>
      </trkpt>
      <trkpt lat="43.67504" lon="3.00142">
        <ele>473.59</ele>
        <time>2015-07-18T13:03:03Z</time>
      </trkpt>
      <trkpt lat="43.67506" lon="3.00158">
        <ele>474.07</ele>
        <time>2015-07-18T13:03:04Z</time>
      </trkpt>
      <trkpt lat="43.67507" lon="3.00174">
        <ele>475.03</ele>
        <time>2015-07-18T13:03:05Z</time>
      </trkpt>
      <trkpt lat="43.6751" lon="3.00188">
        <ele>475.99</ele>
        <time>2015-07-18T13:03:06Z</time>
      </trkpt>
      <trkpt lat="43.67513" lon="3.00199">
        <ele>477.43</ele>
        <time>2015-07-18T13:03:07Z</time>
      </trkpt>
      <trkpt lat="43.67518" lon="3.00208">
        <ele>477.91</ele>
        <time>2015-07-18T13:03:08Z</time>
      </trkpt>
      <trkpt lat="43.67524" lon="3.0021">
        <ele>478.87</ele>
        <time>2015-07-18T13:03:09Z</time>
      </trkpt>
      <trkpt lat="43.6753" lon="3.00205">
        <ele>480.32</ele>
        <time>2015-07-18T13:03:10Z</time>
      </trkpt>
      <trkpt lat="43.67535" lon="3.00196">
        <ele>481.76</ele>
        <time>2015-07-18T13:03:11Z</time>
      </trkpt>
      <trkpt lat="43.67539" lon="3.00189">
        <ele>481.76</ele>
        <time>2015-07-18T13:03:12Z</time>
      </trkpt>
      <trkpt lat="43.6754" lon="3.00176">
        <ele>481.76</ele>
        <time>2015-07-18T13:03:13Z</time>
      </trkpt>
      <trkpt lat="43.67539" lon="3.00162">
        <ele>482.72</ele>
        <time>2015-07-18T13:03:14Z</time>
      </trkpt>
      <trkpt lat="43.67536" lon="3.00141">
        <ele>483.68</ele>
        <time>2015-07-18T13:03:15Z</time>
      </trkpt>
      <trkpt lat="43.67535" lon="3.00119">
        <ele>483.68</ele>
        <time>2015-07-18T13:03:16Z</time>
      </trkpt>
      <trkpt lat="43.67532" lon="3.0007">
        <ele>485.12</ele>
        <time>2015-07-18T13:03:18Z</time>
      </trkpt>
      <trkpt lat="43.67528" lon="3.00048">
        <ele>486.56</ele>
        <time>2015-07-18T13:03:19Z</time>
      </trkpt>
      <trkpt lat="43.67521" lon="3.0003">
        <ele>487.53</ele>
        <time>2015-07-18T13:03:20Z</time>
      </trkpt>
      <trkpt lat="43.67509" lon="3.00016">
        <ele>488.01</ele>
        <time>2015-07-18T13:03:21Z</time>
      </trkpt>
      <trkpt lat="43.67494" lon="3.00006">
        <ele>488.01</ele>
        <time>2015-07-18T13:03:22Z</time>
      </trkpt>
      <trkpt lat="43.67481" lon="2.99997">
        <ele>490.41</ele>
        <time>2015-07-18T13:03:23Z</time>
      </trkpt>
      <trkpt lat="43.67464" lon="2.99989">
        <ele>489.93</ele>
        <time>2015-07-18T13:03:24Z</time>
      </trkpt>
      <trkpt lat="43.67446" lon="2.99983">
        <ele>490.89</ele>
        <time>2015-07-18T13:03:25Z</time>
      </trkpt>
      <trkpt lat="43.67429" lon="2.99972">
        <ele>491.37</ele>
        <time>2015-07-18T13:03:26Z</time>
      </trkpt>
      <trkpt lat="43.67413" lon="2.99961">
        <ele>492.81</ele>
        <time>2015-07-18T13:03:27Z</time>
      </trkpt>
      <trkpt lat="43.6739" lon="2.99934">
        <ele>496.66</ele>
        <time>2015-07-18T13:03:29Z</time>
      </trkpt>
      <trkpt lat="43.67343" lon="2.99902">
        <ele>504.83</ele>
        <time>2015-07-18T13:03:33Z</time>
      </trkpt>
      <trkpt lat="43.67328" lon="2.99903">
        <ele>506.75</ele>
        <time>2015-07-18T13:03:34Z</time>
      </trkpt>
      <trkpt lat="43.67289" lon="2.99898">
        <ele>510.12</ele>
        <time>2015-07-18T13:03:37Z</time>
      </trkpt>
      <trkpt lat="43.67278" lon="2.99891">
        <ele>511.56</ele>
        <time>2015-07-18T13:03:38Z</time>
      </trkpt>
      <trkpt lat="43.67269" lon="2.99881">
        <ele>512.52</ele>
        <time>2015-07-18T13:03:39Z</time>
      </trkpt>
      <trkpt lat="43.67262" lon="2.99868">
        <ele>514.44</ele>
        <time>2015-07-18T13:03:40Z</time>
      </trkpt>
      <trkpt lat="43.67255" lon="2.99854">
        <ele>515.88</ele>
        <time>2015-07-18T13:03:41Z</time>
      </trkpt>
      <trkpt lat="43.67248" lon="2.99839">
        <ele>517.81</ele>
        <time>2015-07-18T13:03:42Z</time>
      </trkpt>
      <trkpt lat="43.67243" lon="2.99822">
        <ele>518.29</ele>
        <time>2015-07-18T13:03:43Z</time>
      </trkpt>
      <trkpt lat="43.67242" lon="2.99799">
        <ele>518.77</ele>
        <time>2015-07-18T13:03:44Z</time>
      </trkpt>
      <trkpt lat="43.67243" lon="2.99777">
        <ele>520.21</ele>
        <time>2015-07-18T13:03:45Z</time>
      </trkpt>
      <trkpt lat="43.67244" lon="2.99754">
        <ele>522.13</ele>
        <time>2015-07-18T13:03:46Z</time>
      </trkpt>
      <trkpt lat="43.67244" lon="2.99731">
        <ele>524.06</ele>
        <time>2015-07-18T13:03:47Z</time>
      </trkpt>
      <trkpt lat="43.67242" lon="2.99708">
        <ele>525.02</ele>
        <time>2015-07-18T13:03:48Z</time>
      </trkpt>
      <trkpt lat="43.67237" lon="2.99686">
        <ele>527.42</ele>
        <time>2015-07-18T13:03:49Z</time>
      </trkpt>
      <trkpt lat="43.67229" lon="2.99667">
        <ele>528.38</ele>
        <time>2015-07-18T13:03:50Z</time>
      </trkpt>
      <trkpt lat="43.67218" lon="2.99653">
        <ele>530.3</ele>
        <time>2015-07-18T13:03:51Z</time>
      </trkpt>
      <trkpt lat="43.67207" lon="2.99639">
        <ele>531.27</ele>
        <time>2015-07-18T13:03:52Z</time>
      </trkpt>
      <trkpt lat="43.67197" lon="2.99625">
        <ele>532.71</ele>
        <time>2015-07-18T13:03:53Z</time>
      </trkpt>
      <trkpt lat="43.67188" lon="2.9961">
        <ele>534.63</ele>
        <time>2015-07-18T13:03:54Z</time>
      </trkpt>
      <trkpt lat="43.6718" lon="2.99592">
        <ele>536.07</ele>
        <time>2015-07-18T13:03:55Z</time>
      </trkpt>
      <trkpt lat="43.67173" lon="2.99574">
        <ele>537.51</ele>
        <time>2015-07-18T13:03:56Z</time>
      </trkpt>
      <trkpt lat="43.67161" lon="2.99539">
        <ele>540.4</ele>
        <time>2015-07-18T13:03:58Z</time>
      </trkpt>
      <trkpt lat="43.67157" lon="2.99521">
        <ele>541.84</ele>
        <time>2015-07-18T13:03:59Z</time>
      </trkpt>
      <trkpt lat="43.67156" lon="2.995">
        <ele>543.28</ele>
        <time>2015-07-18T13:04:00Z</time>
      </trkpt>
      <trkpt lat="43.67159" lon="2.99479">
        <ele>544.72</ele>
        <time>2015-07-18T13:04:01Z</time>
      </trkpt>
      <trkpt lat="43.67162" lon="2.9946">
        <ele>545.69</ele>
        <time>2015-07-18T13:04:02Z</time>
      </trkpt>
      <trkpt lat="43.6717" lon="2.99444">
        <ele>547.61</ele>
        <time>2015-07-18T13:04:03Z</time>
      </trkpt>
      <trkpt lat="43.67183" lon="2.99433">
        <ele>549.05</ele>
        <time>2015-07-18T13:04:04Z</time>
      </trkpt>
      <trkpt lat="43.67197" lon="2.99424">
        <ele>550.97</ele>
        <time>2015-07-18T13:04:05Z</time>
      </trkpt>
      <trkpt lat="43.67213" lon="2.99417">
        <ele>552.41</ele>
        <time>2015-07-18T13:04:06Z</time>
      </trkpt>
      <trkpt lat="43.67231" lon="2.99411">
        <ele>553.86</ele>
        <time>2015-07-18T13:04:07Z</time>
      </trkpt>
      <trkpt lat="43.67251" lon="2.99404">
        <ele>555.3</ele>
        <time>2015-07-18T13:04:08Z</time>
      </trkpt>
      <trkpt lat="43.67265" lon="2.9939">
        <ele>557.22</ele>
        <time>2015-07-18T13:04:09Z</time>
      </trkpt>
      <trkpt lat="43.67277" lon="2.99374">
        <ele>559.14</ele>
        <time>2015-07-18T13:04:10Z</time>
      </trkpt>
      <trkpt lat="43.67285" lon="2.99355">
        <ele>560.59</ele>
        <time>2015-07-18T13:04:11Z</time>
      </trkpt>
      <trkpt lat="43.67287" lon="2.99333">
        <ele>562.99</ele>
        <time>2015-07-18T13:04:12Z</time>
      </trkpt>
      <trkpt lat="43.67287" lon="2.99311">
        <ele>563.95</ele>
        <time>2015-07-18T13:04:13Z</time>
      </trkpt>
      <trkpt lat="43.67285" lon="2.99285">
        <ele>565.39</ele>
        <time>2015-07-18T13:04:14Z</time>
      </trkpt>
      <trkpt lat="43.67286" lon="2.9926">
        <ele>567.8</ele>
        <time>2015-07-18T13:04:15Z</time>
      </trkpt>
      <trkpt lat="43.6729" lon="2.99236">
        <ele>568.28</ele>
        <time>2015-07-18T13:04:16Z</time>
      </trkpt>
      <trkpt lat="43.67296" lon="2.99213">
        <ele>570.68</ele>
        <time>2015-07-18T13:04:17Z</time>
      </trkpt>
      <trkpt lat="43.67305" lon="2.99193">
        <ele>572.12</ele>
        <time>2015-07-18T13:04:18Z</time>
      </trkpt>
      <trkpt lat="43.6732" lon="2.99178">
        <ele>574.53</ele>
        <time>2015-07-18T13:04:19Z</time>
      </trkpt>
      <trkpt lat="43.67334" lon="2.99165">
        <ele>577.41</ele>
        <time>2015-07-18T13:04:20Z</time>
      </trkpt>
      <trkpt lat="43.67346" lon="2.99152">
        <ele>579.33</ele>
        <time>2015-07-18T13:04:21Z</time>
      </trkpt>
      <trkpt lat="43.67358" lon="2.99144">
        <ele>577.89</ele>
        <time>2015-07-18T13:04:22Z</time>
      </trkpt>
      <trkpt lat="43.6737" lon="2.99134">
        <ele>579.33</ele>
        <time>2015-07-18T13:04:23Z</time>
      </trkpt>
      <trkpt lat="43.67378" lon="2.99121">
        <ele>579.33</ele>
        <time>2015-07-18T13:04:24Z</time>
      </trkpt>
      <trkpt lat="43.67383" lon="2.99102">
        <ele>580.77</ele>
        <time>2015-07-18T13:04:25Z</time>
      </trkpt>
      <trkpt lat="43.67384" lon="2.99077">
        <ele>583.18</ele>
        <time>2015-07-18T13:04:26Z</time>
      </trkpt>
      <trkpt lat="43.67383" lon="2.99054">
        <ele>584.62</ele>
        <time>2015-07-18T13:04:27Z</time>
      </trkpt>
      <trkpt lat="43.67386" lon="2.99034">
        <ele>584.62</ele>
        <time>2015-07-18T13:04:28Z</time>
      </trkpt>
      <trkpt lat="43.67391" lon="2.99014">
        <ele>584.14</ele>
        <time>2015-07-18T13:04:29Z</time>
      </trkpt>
      <trkpt lat="43.67399" lon="2.98996">
        <ele>584.14</ele>
        <time>2015-07-18T13:04:30Z</time>
      </trkpt>
      <trkpt lat="43.67411" lon="2.98978">
        <ele>584.62</ele>
        <time>2015-07-18T13:04:31Z</time>
      </trkpt>
      <trkpt lat="43.67425" lon="2.98964">
        <ele>585.58</ele>
        <time>2015-07-18T13:04:32Z</time>
      </trkpt>
      <trkpt lat="43.67438" lon="2.98949">
        <ele>586.54</ele>
        <time>2015-07-18T13:04:33Z</time>
      </trkpt>
      <trkpt lat="43.67468" lon="2.98899">
        <ele>587.98</ele>
        <time>2015-07-18T13:04:36Z</time>
      </trkpt>
      <trkpt lat="43.67475" lon="2.98879">
        <ele>589.43</ele>
        <time>2015-07-18T13:04:37Z</time>
      </trkpt>
      <trkpt lat="43.67482" lon="2.98859">
        <ele>589.91</ele>
        <time>2015-07-18T13:04:38Z</time>
      </trkpt>
      <trkpt lat="43.67492" lon="2.9884">
        <ele>590.39</ele>
        <time>2015-07-18T13:04:39Z</time>
      </trkpt>
      <trkpt lat="43.67502" lon="2.98822">
        <ele>590.87</ele>
        <time>2015-07-18T13:04:40Z</time>
      </trkpt>
      <trkpt lat="43.67523" lon="2.98792">
        <ele>592.79</ele>
        <time>2015-07-18T13:04:42Z</time>
      </trkpt>
      <trkpt lat="43.67536" lon="2.98781">
        <ele>594.23</ele>
        <time>2015-07-18T13:04:43Z</time>
      </trkpt>
      <trkpt lat="43.6755" lon="2.98774">
        <ele>594.71</ele>
        <time>2015-07-18T13:04:44Z</time>
      </trkpt>
      <trkpt lat="43.67567" lon="2.98768">
        <ele>594.71</ele>
        <time>2015-07-18T13:04:45Z</time>
      </trkpt>
      <trkpt lat="43.67583" lon="2.98758">
        <ele>595.67</ele>
        <time>2015-07-18T13:04:46Z</time>
      </trkpt>
      <trkpt lat="43.67594" lon="2.98742">
        <ele>596.15</ele>
        <time>2015-07-18T13:04:47Z</time>
      </trkpt>
      <trkpt lat="43.67605" lon="2.98728">
        <ele>596.64</ele>
        <time>2015-07-18T13:04:48Z</time>
      </trkpt>
      <trkpt lat="43.67615" lon="2.9872">
        <ele>597.6</ele>
        <time>2015-07-18T13:04:49Z</time>
      </trkpt>
      <trkpt lat="43.67625" lon="2.98724">
        <ele>597.12</ele>
        <time>2015-07-18T13:04:50Z</time>
      </trkpt>
      <trkpt lat="43.67635" lon="2.98733">
        <ele>599.52</ele>
        <time>2015-07-18T13:04:51Z</time>
      </trkpt>
      <trkpt lat="43.67644" lon="2.98747">
        <ele>600.96</ele>
        <time>2015-07-18T13:04:52Z</time>
      </trkpt>
      <trkpt lat="43.6765" lon="2.98763">
        <ele>601.92</ele>
        <time>2015-07-18T13:04:53Z</time>
      </trkpt>
      <trkpt lat="43.67658" lon="2.9877">
        <ele>602.4</ele>
        <time>2015-07-18T13:04:54Z</time>
      </trkpt>
      <trkpt lat="43.67681" lon="2.98766">
        <ele>602.88</ele>
        <time>2015-07-18T13:04:56Z</time>
      </trkpt>
      <trkpt lat="43.67689" lon="2.9875">
        <ele>604.33</ele>
        <time>2015-07-18T13:04:57Z</time>
      </trkpt>
      <trkpt lat="43.67697" lon="2.98731">
        <ele>609.61</ele>
        <time>2015-07-18T13:04:58Z</time>
      </trkpt>
      <trkpt lat="43.677" lon="2.98709">
        <ele>610.09</ele>
        <time>2015-07-18T13:04:59Z</time>
      </trkpt>
      <trkpt lat="43.677" lon="2.98683">
        <ele>609.13</ele>
        <time>2015-07-18T13:05:00Z</time>
      </trkpt>
      <trkpt lat="43.67703" lon="2.98662">
        <ele>607.69</ele>
        <time>2015-07-18T13:05:01Z</time>
      </trkpt>
      <trkpt lat="43.67708" lon="2.98643">
        <ele>607.21</ele>
        <time>2015-07-18T13:05:02Z</time>
      </trkpt>
      <trkpt lat="43.67718" lon="2.98624">
        <ele>608.17</ele>
        <time>2015-07-18T13:05:03Z</time>
      </trkpt>
      <trkpt lat="43.67731" lon="2.9861">
        <ele>609.13</ele>
        <time>2015-07-18T13:05:04Z</time>
      </trkpt>
      <trkpt lat="43.67746" lon="2.98598">
        <ele>609.13</ele>
        <time>2015-07-18T13:05:05Z</time>
      </trkpt>
      <trkpt lat="43.67762" lon="2.98589">
        <ele>607.69</ele>
        <time>2015-07-18T13:05:06Z</time>
      </trkpt>
      <trkpt lat="43.67779" lon="2.98579">
        <ele>608.17</ele>
        <time>2015-07-18T13:05:07Z</time>
      </trkpt>
      <trkpt lat="43.67795" lon="2.98571">
        <ele>609.13</ele>
        <time>2015-07-18T13:05:08Z</time>
      </trkpt>
      <trkpt lat="43.67811" lon="2.98568">
        <ele>609.61</ele>
        <time>2015-07-18T13:05:09Z</time>
      </trkpt>
      <trkpt lat="43.67826" lon="2.9857">
        <ele>611.06</ele>
        <time>2015-07-18T13:05:10Z</time>
      </trkpt>
      <trkpt lat="43.67839" lon="2.98574">
        <ele>612.02</ele>
        <time>2015-07-18T13:05:11Z</time>
      </trkpt>
      <trkpt lat="43.67853" lon="2.98575">
        <ele>612.98</ele>
        <time>2015-07-18T13:05:12Z</time>
      </trkpt>
      <trkpt lat="43.67866" lon="2.98572">
        <ele>613.46</ele>
        <time>2015-07-18T13:05:13Z</time>
      </trkpt>
      <trkpt lat="43.67878" lon="2.98559">
        <ele>613.46</ele>
        <time>2015-07-18T13:05:14Z</time>
      </trkpt>
      <trkpt lat="43.67887" lon="2.9854">
        <ele>613.94</ele>
        <time>2015-07-18T13:05:15Z</time>
      </trkpt>
      <trkpt lat="43.67895" lon="2.9852">
        <ele>613.94</ele>
        <time>2015-07-18T13:05:16Z</time>
      </trkpt>
      <trkpt lat="43.67902" lon="2.98498">
        <ele>615.86</ele>
        <time>2015-07-18T13:05:17Z</time>
      </trkpt>
      <trkpt lat="43.67907" lon="2.98477">
        <ele>615.86</ele>
        <time>2015-07-18T13:05:18Z</time>
      </trkpt>
      <trkpt lat="43.67912" lon="2.98458">
        <ele>615.86</ele>
        <time>2015-07-18T13:05:19Z</time>
      </trkpt>
      <trkpt lat="43.67916" lon="2.98438">
        <ele>615.86</ele>
        <time>2015-07-18T13:05:20Z</time>
      </trkpt>
      <trkpt lat="43.6792" lon="2.98419">
        <ele>615.86</ele>
        <time>2015-07-18T13:05:21Z</time>
      </trkpt>
      <trkpt lat="43.67927" lon="2.98399">
        <ele>615.38</ele>
        <time>2015-07-18T13:05:22Z</time>
      </trkpt>
      <trkpt lat="43.67935" lon="2.98381">
        <ele>615.86</ele>
        <time>2015-07-18T13:05:23Z</time>
      </trkpt>
      <trkpt lat="43.67945" lon="2.98364">
        <ele>615.86</ele>
        <time>2015-07-18T13:05:24Z</time>
      </trkpt>
      <trkpt lat="43.67973" lon="2.98327">
        <ele>617.3</ele>
        <time>2015-07-18T13:05:27Z</time>
      </trkpt>
      <trkpt lat="43.67984" lon="2.98324">
        <ele>617.78</ele>
        <time>2015-07-18T13:05:28Z</time>
      </trkpt>
      <trkpt lat="43.67997" lon="2.98328">
        <ele>618.26</ele>
        <time>2015-07-18T13:05:29Z</time>
      </trkpt>
      <trkpt lat="43.68009" lon="2.98333">
        <ele>618.75</ele>
        <time>2015-07-18T13:05:30Z</time>
      </trkpt>
      <trkpt lat="43.68021" lon="2.98341">
        <ele>619.23</ele>
        <time>2015-07-18T13:05:31Z</time>
      </trkpt>
      <trkpt lat="43.68031" lon="2.9835">
        <ele>619.71</ele>
        <time>2015-07-18T13:05:32Z</time>
      </trkpt>
      <trkpt lat="43.68088" lon="2.98393">
        <ele>621.15</ele>
        <time>2015-07-18T13:05:40Z</time>
      </trkpt>
      <trkpt lat="43.68114" lon="2.98411">
        <ele>621.15</ele>
        <time>2015-07-18T13:05:43Z</time>
      </trkpt>
      <trkpt lat="43.68125" lon="2.98413">
        <ele>621.15</ele>
        <time>2015-07-18T13:05:44Z</time>
      </trkpt>
      <trkpt lat="43.68137" lon="2.98409">
        <ele>621.15</ele>
        <time>2015-07-18T13:05:45Z</time>
      </trkpt>
      <trkpt lat="43.68148" lon="2.98402">
        <ele>621.15</ele>
        <time>2015-07-18T13:05:46Z</time>
      </trkpt>
      <trkpt lat="43.6816" lon="2.98392">
        <ele>620.67</ele>
        <time>2015-07-18T13:05:47Z</time>
      </trkpt>
      <trkpt lat="43.68171" lon="2.9838">
        <ele>620.67</ele>
        <time>2015-07-18T13:05:48Z</time>
      </trkpt>
      <trkpt lat="43.68182" lon="2.98367">
        <ele>621.15</ele>
        <time>2015-07-18T13:05:49Z</time>
      </trkpt>
      <trkpt lat="43.68192" lon="2.98353">
        <ele>621.15</ele>
        <time>2015-07-18T13:05:50Z</time>
      </trkpt>
      <trkpt lat="43.682" lon="2.98337">
        <ele>621.63</ele>
        <time>2015-07-18T13:05:51Z</time>
      </trkpt>
      <trkpt lat="43.68203" lon="2.9832">
        <ele>622.11</ele>
        <time>2015-07-18T13:05:52Z</time>
      </trkpt>
      <trkpt lat="43.68205" lon="2.98304">
        <ele>622.11</ele>
        <time>2015-07-18T13:05:53Z</time>
      </trkpt>
      <trkpt lat="43.68207" lon="2.9829">
        <ele>621.63</ele>
        <time>2015-07-18T13:05:54Z</time>
      </trkpt>
      <trkpt lat="43.6821" lon="2.98278">
        <ele>622.11</ele>
        <time>2015-07-18T13:05:55Z</time>
      </trkpt>
      <trkpt lat="43.68216" lon="2.98269">
        <ele>622.59</ele>
        <time>2015-07-18T13:05:56Z</time>
      </trkpt>
      <trkpt lat="43.68222" lon="2.98262">
        <ele>623.07</ele>
        <time>2015-07-18T13:05:57Z</time>
      </trkpt>
      <trkpt lat="43.68227" lon="2.98256">
        <ele>623.55</ele>
        <time>2015-07-18T13:05:58Z</time>
      </trkpt>
      <trkpt lat="43.68233" lon="2.98249">
        <ele>623.55</ele>
        <time>2015-07-18T13:05:59Z</time>
      </trkpt>
      <trkpt lat="43.68239" lon="2.9824">
        <ele>624.03</ele>
        <time>2015-07-18T13:06:00Z</time>
      </trkpt>
      <trkpt lat="43.68244" lon="2.98229">
        <ele>624.03</ele>
        <time>2015-07-18T13:06:01Z</time>
      </trkpt>
      <trkpt lat="43.68248" lon="2.98216">
        <ele>624.03</ele>
        <time>2015-07-18T13:06:02Z</time>
      </trkpt>
      <trkpt lat="43.6825" lon="2.98201">
        <ele>624.51</ele>
        <time>2015-07-18T13:06:03Z</time>
      </trkpt>
      <trkpt lat="43.68251" lon="2.98185">
        <ele>624.51</ele>
        <time>2015-07-18T13:06:04Z</time>
      </trkpt>
      <trkpt lat="43.68252" lon="2.98169">
        <ele>624.99</ele>
        <time>2015-07-18T13:06:05Z</time>
      </trkpt>
      <trkpt lat="43.68248" lon="2.98077">
        <ele>625.47</ele>
        <time>2015-07-18T13:06:13Z</time>
      </trkpt>
      <trkpt lat="43.68232" lon="2.97966">
        <ele>628.84</ele>
        <time>2015-07-18T13:06:22Z</time>
      </trkpt>
      <trkpt lat="43.68228" lon="2.97954">
        <ele>629.8</ele>
        <time>2015-07-18T13:06:23Z</time>
      </trkpt>
      <trkpt lat="43.68217" lon="2.97922">
        <ele>631.72</ele>
        <time>2015-07-18T13:06:26Z</time>
      </trkpt>
      <trkpt lat="43.68215" lon="2.97909">
        <ele>632.2</ele>
        <time>2015-07-18T13:06:27Z</time>
      </trkpt>
      <trkpt lat="43.68214" lon="2.97895">
        <ele>633.17</ele>
        <time>2015-07-18T13:06:28Z</time>
      </trkpt>
      <trkpt lat="43.68215" lon="2.97879">
        <ele>634.13</ele>
        <time>2015-07-18T13:06:29Z</time>
      </trkpt>
      <trkpt lat="43.68216" lon="2.97864">
        <ele>635.09</ele>
        <time>2015-07-18T13:06:30Z</time>
      </trkpt>
      <trkpt lat="43.68217" lon="2.97842">
        <ele>636.53</ele>
        <time>2015-07-18T13:06:32Z</time>
      </trkpt>
      <trkpt lat="43.68199" lon="2.97734">
        <ele>641.82</ele>
        <time>2015-07-18T13:06:37Z</time>
      </trkpt>
      <trkpt lat="43.68178" lon="2.97665">
        <ele>645.66</ele>
        <time>2015-07-18T13:06:40Z</time>
      </trkpt>
      <trkpt lat="43.68169" lon="2.97645">
        <ele>646.62</ele>
        <time>2015-07-18T13:06:41Z</time>
      </trkpt>
      <trkpt lat="43.68158" lon="2.97627">
        <ele>648.07</ele>
        <time>2015-07-18T13:06:42Z</time>
      </trkpt>
      <trkpt lat="43.68087" lon="2.97482">
        <ele>656.72</ele>
        <time>2015-07-18T13:06:50Z</time>
      </trkpt>
      <trkpt lat="43.68077" lon="2.97468">
        <ele>658.16</ele>
        <time>2015-07-18T13:06:51Z</time>
      </trkpt>
      <trkpt lat="43.68066" lon="2.97453">
        <ele>659.6</ele>
        <time>2015-07-18T13:06:52Z</time>
      </trkpt>
      <trkpt lat="43.68057" lon="2.97436">
        <ele>660.56</ele>
        <time>2015-07-18T13:06:53Z</time>
      </trkpt>
      <trkpt lat="43.68049" lon="2.97415">
        <ele>662.01</ele>
        <time>2015-07-18T13:06:54Z</time>
      </trkpt>
      <trkpt lat="43.68042" lon="2.97394">
        <ele>663.45</ele>
        <time>2015-07-18T13:06:55Z</time>
      </trkpt>
      <trkpt lat="43.68023" lon="2.97345">
        <ele>667.29</ele>
        <time>2015-07-18T13:06:58Z</time>
      </trkpt>
      <trkpt lat="43.68014" lon="2.97336">
        <ele>668.25</ele>
        <time>2015-07-18T13:06:59Z</time>
      </trkpt>
      <trkpt lat="43.67997" lon="2.97337">
        <ele>670.18</ele>
        <time>2015-07-18T13:07:00Z</time>
      </trkpt>
      <trkpt lat="43.67982" lon="2.97333">
        <ele>671.14</ele>
        <time>2015-07-18T13:07:01Z</time>
      </trkpt>
      <trkpt lat="43.67967" lon="2.97326">
        <ele>672.58</ele>
        <time>2015-07-18T13:07:02Z</time>
      </trkpt>
      <trkpt lat="43.67953" lon="2.9732">
        <ele>674.02</ele>
        <time>2015-07-18T13:07:03Z</time>
      </trkpt>
      <trkpt lat="43.6794" lon="2.97319">
        <ele>674.98</ele>
        <time>2015-07-18T13:07:04Z</time>
      </trkpt>
      <trkpt lat="43.67927" lon="2.97326">
        <ele>675.46</ele>
        <time>2015-07-18T13:07:05Z</time>
      </trkpt>
      <trkpt lat="43.67914" lon="2.97341">
        <ele>675.94</ele>
        <time>2015-07-18T13:07:06Z</time>
      </trkpt>
      <trkpt lat="43.67903" lon="2.9736">
        <ele>676.42</ele>
        <time>2015-07-18T13:07:07Z</time>
      </trkpt>
      <trkpt lat="43.67893" lon="2.97376">
        <ele>677.87</ele>
        <time>2015-07-18T13:07:08Z</time>
      </trkpt>
      <trkpt lat="43.67873" lon="2.97399">
        <ele>678.83</ele>
        <time>2015-07-18T13:07:10Z</time>
      </trkpt>
      <trkpt lat="43.67854" lon="2.97397">
        <ele>680.75</ele>
        <time>2015-07-18T13:07:12Z</time>
      </trkpt>
      <trkpt lat="43.67841" lon="2.97369">
        <ele>686.04</ele>
        <time>2015-07-18T13:07:14Z</time>
      </trkpt>
      <trkpt lat="43.67843" lon="2.97342">
        <ele>687</ele>
        <time>2015-07-18T13:07:15Z</time>
      </trkpt>
      <trkpt lat="43.67847" lon="2.97319">
        <ele>686.04</ele>
        <time>2015-07-18T13:07:16Z</time>
      </trkpt>
      <trkpt lat="43.67853" lon="2.97299">
        <ele>686.52</ele>
        <time>2015-07-18T13:07:17Z</time>
      </trkpt>
      <trkpt lat="43.67864" lon="2.97286">
        <ele>688.44</ele>
        <time>2015-07-18T13:07:18Z</time>
      </trkpt>
      <trkpt lat="43.67878" lon="2.97278">
        <ele>689.4</ele>
        <time>2015-07-18T13:07:19Z</time>
      </trkpt>
      <trkpt lat="43.67894" lon="2.9728">
        <ele>689.4</ele>
        <time>2015-07-18T13:07:20Z</time>
      </trkpt>
      <trkpt lat="43.67909" lon="2.9728">
        <ele>689.88</ele>
        <time>2015-07-18T13:07:21Z</time>
      </trkpt>
      <trkpt lat="43.67982" lon="2.97278">
        <ele>696.13</ele>
        <time>2015-07-18T13:07:26Z</time>
      </trkpt>
      <trkpt lat="43.67997" lon="2.97273">
        <ele>697.57</ele>
        <time>2015-07-18T13:07:27Z</time>
      </trkpt>
      <trkpt lat="43.68012" lon="2.9727">
        <ele>699.02</ele>
        <time>2015-07-18T13:07:28Z</time>
      </trkpt>
      <trkpt lat="43.68027" lon="2.97273">
        <ele>699.98</ele>
        <time>2015-07-18T13:07:29Z</time>
      </trkpt>
      <trkpt lat="43.68041" lon="2.97278">
        <ele>701.9</ele>
        <time>2015-07-18T13:07:30Z</time>
      </trkpt>
      <trkpt lat="43.68054" lon="2.97285">
        <ele>702.86</ele>
        <time>2015-07-18T13:07:31Z</time>
      </trkpt>
      <trkpt lat="43.68067" lon="2.97291">
        <ele>703.82</ele>
        <time>2015-07-18T13:07:32Z</time>
      </trkpt>
      <trkpt lat="43.6808" lon="2.97294">
        <ele>704.78</ele>
        <time>2015-07-18T13:07:33Z</time>
      </trkpt>
      <trkpt lat="43.68092" lon="2.97295">
        <ele>705.75</ele>
        <time>2015-07-18T13:07:34Z</time>
      </trkpt>
      <trkpt lat="43.68101" lon="2.97291">
        <ele>706.71</ele>
        <time>2015-07-18T13:07:35Z</time>
      </trkpt>
      <trkpt lat="43.68109" lon="2.97282">
        <ele>707.67</ele>
        <time>2015-07-18T13:07:36Z</time>
      </trkpt>
      <trkpt lat="43.68113" lon="2.97268">
        <ele>708.15</ele>
        <time>2015-07-18T13:07:37Z</time>
      </trkpt>
      <trkpt lat="43.68116" lon="2.9725">
        <ele>709.59</ele>
        <time>2015-07-18T13:07:38Z</time>
      </trkpt>
      <trkpt lat="43.68119" lon="2.97231">
        <ele>711.51</ele>
        <time>2015-07-18T13:07:39Z</time>
      </trkpt>
      <trkpt lat="43.68122" lon="2.97211">
        <ele>713.44</ele>
        <time>2015-07-18T13:07:40Z</time>
      </trkpt>
      <trkpt lat="43.68135" lon="2.97147">
        <ele>718.72</ele>
        <time>2015-07-18T13:07:43Z</time>
      </trkpt>
      <trkpt lat="43.68142" lon="2.97127">
        <ele>720.65</ele>
        <time>2015-07-18T13:07:44Z</time>
      </trkpt>
      <trkpt lat="43.68151" lon="2.97108">
        <ele>722.09</ele>
        <time>2015-07-18T13:07:45Z</time>
      </trkpt>
      <trkpt lat="43.6816" lon="2.97092">
        <ele>723.53</ele>
        <time>2015-07-18T13:07:46Z</time>
      </trkpt>
      <trkpt lat="43.68171" lon="2.97077">
        <ele>724.97</ele>
        <time>2015-07-18T13:07:47Z</time>
      </trkpt>
      <trkpt lat="43.68185" lon="2.97065">
        <ele>726.89</ele>
        <time>2015-07-18T13:07:48Z</time>
      </trkpt>
      <trkpt lat="43.68202" lon="2.97056">
        <ele>728.82</ele>
        <time>2015-07-18T13:07:49Z</time>
      </trkpt>
      <trkpt lat="43.68219" lon="2.97047">
        <ele>730.26</ele>
        <time>2015-07-18T13:07:50Z</time>
      </trkpt>
      <trkpt lat="43.68274" lon="2.97013">
        <ele>736.51</ele>
        <time>2015-07-18T13:07:54Z</time>
      </trkpt>
      <trkpt lat="43.68283" lon="2.96999">
        <ele>737.95</ele>
        <time>2015-07-18T13:07:55Z</time>
      </trkpt>
      <trkpt lat="43.68286" lon="2.96981">
        <ele>738.91</ele>
        <time>2015-07-18T13:07:56Z</time>
      </trkpt>
      <trkpt lat="43.68285" lon="2.9696">
        <ele>740.83</ele>
        <time>2015-07-18T13:07:57Z</time>
      </trkpt>
      <trkpt lat="43.68281" lon="2.96939">
        <ele>742.28</ele>
        <time>2015-07-18T13:07:58Z</time>
      </trkpt>
      <trkpt lat="43.68274" lon="2.96915">
        <ele>743.72</ele>
        <time>2015-07-18T13:07:59Z</time>
      </trkpt>
      <trkpt lat="43.68268" lon="2.9689">
        <ele>745.64</ele>
        <time>2015-07-18T13:08:00Z</time>
      </trkpt>
      <trkpt lat="43.68254" lon="2.96846">
        <ele>748.52</ele>
        <time>2015-07-18T13:08:02Z</time>
      </trkpt>
      <trkpt lat="43.68245" lon="2.96827">
        <ele>749.97</ele>
        <time>2015-07-18T13:08:03Z</time>
      </trkpt>
      <trkpt lat="43.68227" lon="2.96789">
        <ele>753.33</ele>
        <time>2015-07-18T13:08:05Z</time>
      </trkpt>
      <trkpt lat="43.68221" lon="2.96768">
        <ele>754.77</ele>
        <time>2015-07-18T13:08:06Z</time>
      </trkpt>
      <trkpt lat="43.6822" lon="2.96745">
        <ele>756.69</ele>
        <time>2015-07-18T13:08:07Z</time>
      </trkpt>
      <trkpt lat="43.68221" lon="2.96722">
        <ele>758.14</ele>
        <time>2015-07-18T13:08:08Z</time>
      </trkpt>
      <trkpt lat="43.68223" lon="2.967">
        <ele>760.06</ele>
        <time>2015-07-18T13:08:09Z</time>
      </trkpt>
      <trkpt lat="43.68227" lon="2.96679">
        <ele>761.98</ele>
        <time>2015-07-18T13:08:10Z</time>
      </trkpt>
      <trkpt lat="43.68231" lon="2.96659">
        <ele>763.42</ele>
        <time>2015-07-18T13:08:11Z</time>
      </trkpt>
      <trkpt lat="43.6824" lon="2.96576">
        <ele>771.6</ele>
        <time>2015-07-18T13:08:16Z</time>
      </trkpt>
      <trkpt lat="43.68239" lon="2.96562">
        <ele>773.52</ele>
        <time>2015-07-18T13:08:17Z</time>
      </trkpt>
      <trkpt lat="43.68237" lon="2.96532">
        <ele>775.92</ele>
        <time>2015-07-18T13:08:19Z</time>
      </trkpt>
      <trkpt lat="43.68241" lon="2.96515">
        <ele>776.88</ele>
        <time>2015-07-18T13:08:20Z</time>
      </trkpt>
      <trkpt lat="43.6825" lon="2.96501">
        <ele>779.29</ele>
        <time>2015-07-18T13:08:21Z</time>
      </trkpt>
      <trkpt lat="43.68259" lon="2.96488">
        <ele>780.73</ele>
        <time>2015-07-18T13:08:22Z</time>
      </trkpt>
      <trkpt lat="43.68272" lon="2.96477">
        <ele>782.17</ele>
        <time>2015-07-18T13:08:23Z</time>
      </trkpt>
      <trkpt lat="43.68283" lon="2.96465">
        <ele>782.65</ele>
        <time>2015-07-18T13:08:24Z</time>
      </trkpt>
      <trkpt lat="43.68293" lon="2.9645">
        <ele>783.61</ele>
        <time>2015-07-18T13:08:25Z</time>
      </trkpt>
      <trkpt lat="43.68298" lon="2.9643">
        <ele>785.05</ele>
        <time>2015-07-18T13:08:26Z</time>
      </trkpt>
      <trkpt lat="43.68299" lon="2.96406">
        <ele>786.5</ele>
        <time>2015-07-18T13:08:27Z</time>
      </trkpt>
      <trkpt lat="43.68299" lon="2.96381">
        <ele>787.46</ele>
        <time>2015-07-18T13:08:28Z</time>
      </trkpt>
      <trkpt lat="43.68298" lon="2.96356">
        <ele>788.9</ele>
        <time>2015-07-18T13:08:29Z</time>
      </trkpt>
      <trkpt lat="43.68292" lon="2.96265">
        <ele>793.71</ele>
        <time>2015-07-18T13:08:33Z</time>
      </trkpt>
      <trkpt lat="43.68286" lon="2.96226">
        <ele>795.15</ele>
        <time>2015-07-18T13:08:35Z</time>
      </trkpt>
      <trkpt lat="43.68286" lon="2.96207">
        <ele>796.11</ele>
        <time>2015-07-18T13:08:36Z</time>
      </trkpt>
      <trkpt lat="43.6829" lon="2.96189">
        <ele>797.07</ele>
        <time>2015-07-18T13:08:37Z</time>
      </trkpt>
      <trkpt lat="43.68298" lon="2.96173">
        <ele>798.51</ele>
        <time>2015-07-18T13:08:38Z</time>
      </trkpt>
      <trkpt lat="43.68307" lon="2.96158">
        <ele>799.47</ele>
        <time>2015-07-18T13:08:39Z</time>
      </trkpt>
      <trkpt lat="43.6832" lon="2.96147">
        <ele>800.92</ele>
        <time>2015-07-18T13:08:40Z</time>
      </trkpt>
      <trkpt lat="43.68335" lon="2.96137">
        <ele>801.88</ele>
        <time>2015-07-18T13:08:41Z</time>
      </trkpt>
      <trkpt lat="43.68349" lon="2.96131">
        <ele>802.84</ele>
        <time>2015-07-18T13:08:42Z</time>
      </trkpt>
      <trkpt lat="43.68364" lon="2.9613">
        <ele>803.32</ele>
        <time>2015-07-18T13:08:43Z</time>
      </trkpt>
      <trkpt lat="43.6838" lon="2.96136">
        <ele>804.76</ele>
        <time>2015-07-18T13:08:44Z</time>
      </trkpt>
      <trkpt lat="43.68395" lon="2.96144">
        <ele>805.72</ele>
        <time>2015-07-18T13:08:45Z</time>
      </trkpt>
      <trkpt lat="43.68411" lon="2.96152">
        <ele>806.68</ele>
        <time>2015-07-18T13:08:46Z</time>
      </trkpt>
      <trkpt lat="43.68493" lon="2.96183">
        <ele>812.93</ele>
        <time>2015-07-18T13:08:53Z</time>
      </trkpt>
      <trkpt lat="43.68508" lon="2.96184">
        <ele>814.37</ele>
        <time>2015-07-18T13:08:55Z</time>
      </trkpt>
      <trkpt lat="43.68516" lon="2.96182">
        <ele>814.85</ele>
        <time>2015-07-18T13:08:56Z</time>
      </trkpt>
      <trkpt lat="43.68524" lon="2.96178">
        <ele>814.85</ele>
        <time>2015-07-18T13:08:57Z</time>
      </trkpt>
      <trkpt lat="43.68532" lon="2.96172">
        <ele>814.37</ele>
        <time>2015-07-18T13:08:58Z</time>
      </trkpt>
      <trkpt lat="43.6854" lon="2.96163">
        <ele>813.89</ele>
        <time>2015-07-18T13:08:59Z</time>
      </trkpt>
      <trkpt lat="43.68548" lon="2.9615">
        <ele>813.41</ele>
        <time>2015-07-18T13:09:00Z</time>
      </trkpt>
      <trkpt lat="43.68555" lon="2.96134">
        <ele>812.45</ele>
        <time>2015-07-18T13:09:01Z</time>
      </trkpt>
      <trkpt lat="43.68561" lon="2.96118">
        <ele>811.97</ele>
        <time>2015-07-18T13:09:02Z</time>
      </trkpt>
      <trkpt lat="43.68565" lon="2.96101">
        <ele>811.01</ele>
        <time>2015-07-18T13:09:03Z</time>
      </trkpt>
      <trkpt lat="43.68567" lon="2.96083">
        <ele>811.01</ele>
        <time>2015-07-18T13:09:04Z</time>
      </trkpt>
      <trkpt lat="43.68565" lon="2.96064">
        <ele>811.49</ele>
        <time>2015-07-18T13:09:05Z</time>
      </trkpt>
      <trkpt lat="43.68557" lon="2.96042">
        <ele>811.01</ele>
        <time>2015-07-18T13:09:06Z</time>
      </trkpt>
      <trkpt lat="43.68547" lon="2.96025">
        <ele>811.01</ele>
        <time>2015-07-18T13:09:07Z</time>
      </trkpt>
      <trkpt lat="43.68535" lon="2.96012">
        <ele>810.53</ele>
        <time>2015-07-18T13:09:08Z</time>
      </trkpt>
      <trkpt lat="43.68521" lon="2.96005">
        <ele>810.05</ele>
        <time>2015-07-18T13:09:09Z</time>
      </trkpt>
      <trkpt lat="43.68508" lon="2.95998">
        <ele>810.05</ele>
        <time>2015-07-18T13:09:10Z</time>
      </trkpt>
      <trkpt lat="43.68495" lon="2.9599">
        <ele>810.05</ele>
        <time>2015-07-18T13:09:11Z</time>
      </trkpt>
      <trkpt lat="43.68485" lon="2.95978">
        <ele>810.05</ele>
        <time>2015-07-18T13:09:12Z</time>
      </trkpt>
      <trkpt lat="43.68479" lon="2.9596">
        <ele>809.09</ele>
        <time>2015-07-18T13:09:13Z</time>
      </trkpt>
      <trkpt lat="43.68478" lon="2.95936">
        <ele>810.53</ele>
        <time>2015-07-18T13:09:14Z</time>
      </trkpt>
      <trkpt lat="43.6848" lon="2.95913">
        <ele>809.57</ele>
        <time>2015-07-18T13:09:15Z</time>
      </trkpt>
      <trkpt lat="43.68485" lon="2.95891">
        <ele>809.57</ele>
        <time>2015-07-18T13:09:16Z</time>
      </trkpt>
      <trkpt lat="43.68496" lon="2.95872">
        <ele>809.09</ele>
        <time>2015-07-18T13:09:17Z</time>
      </trkpt>
      <trkpt lat="43.68508" lon="2.95858">
        <ele>809.09</ele>
        <time>2015-07-18T13:09:18Z</time>
      </trkpt>
      <trkpt lat="43.68522" lon="2.95849">
        <ele>808.61</ele>
        <time>2015-07-18T13:09:19Z</time>
      </trkpt>
      <trkpt lat="43.68535" lon="2.95841">
        <ele>808.13</ele>
        <time>2015-07-18T13:09:20Z</time>
      </trkpt>
      <trkpt lat="43.68547" lon="2.95832">
        <ele>807.16</ele>
        <time>2015-07-18T13:09:21Z</time>
      </trkpt>
      <trkpt lat="43.68558" lon="2.9582">
        <ele>807.16</ele>
        <time>2015-07-18T13:09:22Z</time>
      </trkpt>
      <trkpt lat="43.68565" lon="2.95802">
        <ele>806.68</ele>
        <time>2015-07-18T13:09:23Z</time>
      </trkpt>
      <trkpt lat="43.68569" lon="2.95779">
        <ele>806.2</ele>
        <time>2015-07-18T13:09:24Z</time>
      </trkpt>
      <trkpt lat="43.6857" lon="2.95751">
        <ele>806.2</ele>
        <time>2015-07-18T13:09:25Z</time>
      </trkpt>
      <trkpt lat="43.68572" lon="2.95728">
        <ele>807.16</ele>
        <time>2015-07-18T13:09:26Z</time>
      </trkpt>
      <trkpt lat="43.6857" lon="2.95704">
        <ele>807.64</ele>
        <time>2015-07-18T13:09:27Z</time>
      </trkpt>
      <trkpt lat="43.68565" lon="2.95679">
        <ele>806.2</ele>
        <time>2015-07-18T13:09:28Z</time>
      </trkpt>
      <trkpt lat="43.6856" lon="2.95658">
        <ele>805.72</ele>
        <time>2015-07-18T13:09:29Z</time>
      </trkpt>
      <trkpt lat="43.68555" lon="2.95637">
        <ele>804.76</ele>
        <time>2015-07-18T13:09:30Z</time>
      </trkpt>
      <trkpt lat="43.68548" lon="2.95619">
        <ele>804.28</ele>
        <time>2015-07-18T13:09:31Z</time>
      </trkpt>
      <trkpt lat="43.68542" lon="2.95602">
        <ele>804.76</ele>
        <time>2015-07-18T13:09:32Z</time>
      </trkpt>
      <trkpt lat="43.68532" lon="2.95565">
        <ele>803.8</ele>
        <time>2015-07-18T13:09:34Z</time>
      </trkpt>
      <trkpt lat="43.6853" lon="2.95546">
        <ele>803.32</ele>
        <time>2015-07-18T13:09:35Z</time>
      </trkpt>
      <trkpt lat="43.68532" lon="2.95527">
        <ele>802.84</ele>
        <time>2015-07-18T13:09:36Z</time>
      </trkpt>
      <trkpt lat="43.6854" lon="2.95512">
        <ele>803.32</ele>
        <time>2015-07-18T13:09:37Z</time>
      </trkpt>
      <trkpt lat="43.68551" lon="2.95501">
        <ele>803.32</ele>
        <time>2015-07-18T13:09:38Z</time>
      </trkpt>
      <trkpt lat="43.6856" lon="2.95493">
        <ele>801.88</ele>
        <time>2015-07-18T13:09:39Z</time>
      </trkpt>
      <trkpt lat="43.68571" lon="2.95488">
        <ele>800.92</ele>
        <time>2015-07-18T13:09:40Z</time>
      </trkpt>
      <trkpt lat="43.68584" lon="2.95483">
        <ele>801.4</ele>
        <time>2015-07-18T13:09:41Z</time>
      </trkpt>
      <trkpt lat="43.68596" lon="2.95477">
        <ele>801.88</ele>
        <time>2015-07-18T13:09:42Z</time>
      </trkpt>
      <trkpt lat="43.68607" lon="2.95468">
        <ele>801.88</ele>
        <time>2015-07-18T13:09:43Z</time>
      </trkpt>
      <trkpt lat="43.68619" lon="2.95458">
        <ele>802.36</ele>
        <time>2015-07-18T13:09:44Z</time>
      </trkpt>
      <trkpt lat="43.68644" lon="2.95439">
        <ele>802.36</ele>
        <time>2015-07-18T13:09:46Z</time>
      </trkpt>
      <trkpt lat="43.68658" lon="2.95432">
        <ele>803.8</ele>
        <time>2015-07-18T13:09:47Z</time>
      </trkpt>
      <trkpt lat="43.68672" lon="2.95425">
        <ele>804.76</ele>
        <time>2015-07-18T13:09:48Z</time>
      </trkpt>
      <trkpt lat="43.68734" lon="2.95405">
        <ele>807.16</ele>
        <time>2015-07-18T13:09:52Z</time>
      </trkpt>
      <trkpt lat="43.68749" lon="2.95406">
        <ele>808.61</ele>
        <time>2015-07-18T13:09:53Z</time>
      </trkpt>
      <trkpt lat="43.68763" lon="2.95412">
        <ele>811.01</ele>
        <time>2015-07-18T13:09:54Z</time>
      </trkpt>
      <trkpt lat="43.68778" lon="2.95421">
        <ele>812.45</ele>
        <time>2015-07-18T13:09:55Z</time>
      </trkpt>
      <trkpt lat="43.68793" lon="2.9543">
        <ele>813.89</ele>
        <time>2015-07-18T13:09:56Z</time>
      </trkpt>
      <trkpt lat="43.689" lon="2.95442">
        <ele>818.7</ele>
        <time>2015-07-18T13:10:04Z</time>
      </trkpt>
      <trkpt lat="43.68903" lon="2.95421">
        <ele>818.22</ele>
        <time>2015-07-18T13:10:05Z</time>
      </trkpt>
      <trkpt lat="43.68906" lon="2.954">
        <ele>820.14</ele>
        <time>2015-07-18T13:10:06Z</time>
      </trkpt>
      <trkpt lat="43.68914" lon="2.95364">
        <ele>822.55</ele>
        <time>2015-07-18T13:10:08Z</time>
      </trkpt>
      <trkpt lat="43.68922" lon="2.95352">
        <ele>823.03</ele>
        <time>2015-07-18T13:10:09Z</time>
      </trkpt>
      <trkpt lat="43.68931" lon="2.95342">
        <ele>823.03</ele>
        <time>2015-07-18T13:10:10Z</time>
      </trkpt>
      <trkpt lat="43.6894" lon="2.95337">
        <ele>823.51</ele>
        <time>2015-07-18T13:10:11Z</time>
      </trkpt>
      <trkpt lat="43.68952" lon="2.95333">
        <ele>823.51</ele>
        <time>2015-07-18T13:10:12Z</time>
      </trkpt>
      <trkpt lat="43.68968" lon="2.95335">
        <ele>827.35</ele>
        <time>2015-07-18T13:10:13Z</time>
      </trkpt>
      <trkpt lat="43.68986" lon="2.9534">
        <ele>829.76</ele>
        <time>2015-07-18T13:10:14Z</time>
      </trkpt>
      <trkpt lat="43.69001" lon="2.95345">
        <ele>829.76</ele>
        <time>2015-07-18T13:10:15Z</time>
      </trkpt>
      <trkpt lat="43.69018" lon="2.9535">
        <ele>831.2</ele>
        <time>2015-07-18T13:10:16Z</time>
      </trkpt>
      <trkpt lat="43.69067" lon="2.95374">
        <ele>835.52</ele>
        <time>2015-07-18T13:10:19Z</time>
      </trkpt>
      <trkpt lat="43.69082" lon="2.9539">
        <ele>836.96</ele>
        <time>2015-07-18T13:10:20Z</time>
      </trkpt>
      <trkpt lat="43.69096" lon="2.95406">
        <ele>837.45</ele>
        <time>2015-07-18T13:10:21Z</time>
      </trkpt>
      <trkpt lat="43.69108" lon="2.95425">
        <ele>837.93</ele>
        <time>2015-07-18T13:10:22Z</time>
      </trkpt>
      <trkpt lat="43.6912" lon="2.95445">
        <ele>839.85</ele>
        <time>2015-07-18T13:10:23Z</time>
      </trkpt>
      <trkpt lat="43.69179" lon="2.95511">
        <ele>844.66</ele>
        <time>2015-07-18T13:10:27Z</time>
      </trkpt>
      <trkpt lat="43.69196" lon="2.95522">
        <ele>845.62</ele>
        <time>2015-07-18T13:10:28Z</time>
      </trkpt>
      <trkpt lat="43.69214" lon="2.9553">
        <ele>847.06</ele>
        <time>2015-07-18T13:10:29Z</time>
      </trkpt>
      <trkpt lat="43.69337" lon="2.95585">
        <ele>856.67</ele>
        <time>2015-07-18T13:10:37Z</time>
      </trkpt>
      <trkpt lat="43.69335" lon="2.95604">
        <ele>856.19</ele>
        <time>2015-07-18T13:10:38Z</time>
      </trkpt>
      <trkpt lat="43.69335" lon="2.95625">
        <ele>856.67</ele>
        <time>2015-07-18T13:10:39Z</time>
      </trkpt>
      <trkpt lat="43.69335" lon="2.95648">
        <ele>856.19</ele>
        <time>2015-07-18T13:10:40Z</time>
      </trkpt>
      <trkpt lat="43.69361" lon="2.95752">
        <ele>860.04</ele>
        <time>2015-07-18T13:10:45Z</time>
      </trkpt>
      <trkpt lat="43.69371" lon="2.95769">
        <ele>859.56</ele>
        <time>2015-07-18T13:10:46Z</time>
      </trkpt>
      <trkpt lat="43.69386" lon="2.95783">
        <ele>861</ele>
        <time>2015-07-18T13:10:47Z</time>
      </trkpt>
      <trkpt lat="43.69404" lon="2.95795">
        <ele>862.44</ele>
        <time>2015-07-18T13:10:48Z</time>
      </trkpt>
      <trkpt lat="43.69421" lon="2.95806">
        <ele>862.92</ele>
        <time>2015-07-18T13:10:49Z</time>
      </trkpt>
      <trkpt lat="43.69438" lon="2.95814">
        <ele>863.88</ele>
        <time>2015-07-18T13:10:50Z</time>
      </trkpt>
      <trkpt lat="43.69455" lon="2.9582">
        <ele>863.4</ele>
        <time>2015-07-18T13:10:51Z</time>
      </trkpt>
      <trkpt lat="43.69473" lon="2.95823">
        <ele>866.29</ele>
        <time>2015-07-18T13:10:52Z</time>
      </trkpt>
      <trkpt lat="43.69515" lon="2.95815">
        <ele>869.17</ele>
        <time>2015-07-18T13:10:54Z</time>
      </trkpt>
      <trkpt lat="43.69533" lon="2.9581">
        <ele>867.73</ele>
        <time>2015-07-18T13:10:55Z</time>
      </trkpt>
      <trkpt lat="43.69552" lon="2.95802">
        <ele>866.77</ele>
        <time>2015-07-18T13:10:56Z</time>
      </trkpt>
      <trkpt lat="43.69696" lon="2.95779">
        <ele>872.05</ele>
        <time>2015-07-18T13:11:03Z</time>
      </trkpt>
      <trkpt lat="43.69843" lon="2.95801">
        <ele>879.26</ele>
        <time>2015-07-18T13:11:10Z</time>
      </trkpt>
      <trkpt lat="43.69864" lon="2.95802">
        <ele>879.74</ele>
        <time>2015-07-18T13:11:11Z</time>
      </trkpt>
      <trkpt lat="43.69886" lon="2.958">
        <ele>880.71</ele>
        <time>2015-07-18T13:11:12Z</time>
      </trkpt>
      <trkpt lat="43.69963" lon="2.95789">
        <ele>884.55</ele>
        <time>2015-07-18T13:11:16Z</time>
      </trkpt>
      <trkpt lat="43.69982" lon="2.95792">
        <ele>885.03</ele>
        <time>2015-07-18T13:11:17Z</time>
      </trkpt>
      <trkpt lat="43.70134" lon="2.9582">
        <ele>887.43</ele>
        <time>2015-07-18T13:11:25Z</time>
      </trkpt>
      <trkpt lat="43.70152" lon="2.95832">
        <ele>887.91</ele>
        <time>2015-07-18T13:11:26Z</time>
      </trkpt>
      <trkpt lat="43.70168" lon="2.95847">
        <ele>887.43</ele>
        <time>2015-07-18T13:11:27Z</time>
      </trkpt>
      <trkpt lat="43.7018" lon="2.95864">
        <ele>888.4</ele>
        <time>2015-07-18T13:11:28Z</time>
      </trkpt>
      <trkpt lat="43.70191" lon="2.95882">
        <ele>888.4</ele>
        <time>2015-07-18T13:11:29Z</time>
      </trkpt>
      <trkpt lat="43.702" lon="2.95898">
        <ele>887.91</ele>
        <time>2015-07-18T13:11:30Z</time>
      </trkpt>
      <trkpt lat="43.70208" lon="2.95911">
        <ele>887.43</ele>
        <time>2015-07-18T13:11:31Z</time>
      </trkpt>
      <trkpt lat="43.70217" lon="2.95924">
        <ele>886.95</ele>
        <time>2015-07-18T13:11:32Z</time>
      </trkpt>
      <trkpt lat="43.70246" lon="2.9595">
        <ele>887.43</ele>
        <time>2015-07-18T13:11:35Z</time>
      </trkpt>
      <trkpt lat="43.70256" lon="2.95957">
        <ele>887.91</ele>
        <time>2015-07-18T13:11:36Z</time>
      </trkpt>
      <trkpt lat="43.70363" lon="2.95998">
        <ele>886.47</ele>
        <time>2015-07-18T13:11:44Z</time>
      </trkpt>
      <trkpt lat="43.70574" lon="2.96102">
        <ele>887.43</ele>
        <time>2015-07-18T13:11:57Z</time>
      </trkpt>
      <trkpt lat="43.70602" lon="2.96139">
        <ele>887.43</ele>
        <time>2015-07-18T13:11:59Z</time>
      </trkpt>
      <trkpt lat="43.70647" lon="2.96207">
        <ele>886.95</ele>
        <time>2015-07-18T13:12:03Z</time>
      </trkpt>
      <trkpt lat="43.70725" lon="2.96334">
        <ele>887.91</ele>
        <time>2015-07-18T13:12:12Z</time>
      </trkpt>
      <trkpt lat="43.70734" lon="2.96344">
        <ele>887.43</ele>
        <time>2015-07-18T13:12:13Z</time>
      </trkpt>
      <trkpt lat="43.70744" lon="2.96353">
        <ele>886.95</ele>
        <time>2015-07-18T13:12:14Z</time>
      </trkpt>
      <trkpt lat="43.70818" lon="2.96406">
        <ele>886.47</ele>
        <time>2015-07-18T13:12:21Z</time>
      </trkpt>
      <trkpt lat="43.7083" lon="2.9641">
        <ele>885.99</ele>
        <time>2015-07-18T13:12:22Z</time>
      </trkpt>
      <trkpt lat="43.70845" lon="2.96404">
        <ele>883.11</ele>
        <time>2015-07-18T13:12:23Z</time>
      </trkpt>
      <trkpt lat="43.70858" lon="2.96401">
        <ele>883.59</ele>
        <time>2015-07-18T13:12:24Z</time>
      </trkpt>
      <trkpt lat="43.70873" lon="2.96396">
        <ele>884.55</ele>
        <time>2015-07-18T13:12:25Z</time>
      </trkpt>
      <trkpt lat="43.70888" lon="2.96388">
        <ele>885.03</ele>
        <time>2015-07-18T13:12:26Z</time>
      </trkpt>
      <trkpt lat="43.70902" lon="2.96379">
        <ele>885.03</ele>
        <time>2015-07-18T13:12:27Z</time>
      </trkpt>
      <trkpt lat="43.70915" lon="2.96367">
        <ele>882.63</ele>
        <time>2015-07-18T13:12:28Z</time>
      </trkpt>
      <trkpt lat="43.70927" lon="2.96356">
        <ele>881.19</ele>
        <time>2015-07-18T13:12:29Z</time>
      </trkpt>
      <trkpt lat="43.70939" lon="2.96345">
        <ele>880.22</ele>
        <time>2015-07-18T13:12:30Z</time>
      </trkpt>
      <trkpt lat="43.70948" lon="2.96331">
        <ele>878.78</ele>
        <time>2015-07-18T13:12:31Z</time>
      </trkpt>
      <trkpt lat="43.70956" lon="2.96316">
        <ele>878.3</ele>
        <time>2015-07-18T13:12:32Z</time>
      </trkpt>
      <trkpt lat="43.70965" lon="2.96303">
        <ele>877.34</ele>
        <time>2015-07-18T13:12:33Z</time>
      </trkpt>
      <trkpt lat="43.70974" lon="2.96292">
        <ele>876.86</ele>
        <time>2015-07-18T13:12:34Z</time>
      </trkpt>
      <trkpt lat="43.70983" lon="2.96286">
        <ele>876.38</ele>
        <time>2015-07-18T13:12:35Z</time>
      </trkpt>
      <trkpt lat="43.70992" lon="2.96288">
        <ele>875.9</ele>
        <time>2015-07-18T13:12:36Z</time>
      </trkpt>
      <trkpt lat="43.71002" lon="2.96291">
        <ele>876.38</ele>
        <time>2015-07-18T13:12:37Z</time>
      </trkpt>
      <trkpt lat="43.7101" lon="2.96297">
        <ele>877.34</ele>
        <time>2015-07-18T13:12:38Z</time>
      </trkpt>
      <trkpt lat="43.7102" lon="2.96304">
        <ele>877.82</ele>
        <time>2015-07-18T13:12:39Z</time>
      </trkpt>
      <trkpt lat="43.71029" lon="2.96311">
        <ele>878.78</ele>
        <time>2015-07-18T13:12:40Z</time>
      </trkpt>
      <trkpt lat="43.71055" lon="2.96337">
        <ele>880.71</ele>
        <time>2015-07-18T13:12:43Z</time>
      </trkpt>
      <trkpt lat="43.71062" lon="2.96348">
        <ele>879.26</ele>
        <time>2015-07-18T13:12:44Z</time>
      </trkpt>
      <trkpt lat="43.71067" lon="2.96359">
        <ele>877.82</ele>
        <time>2015-07-18T13:12:45Z</time>
      </trkpt>
      <trkpt lat="43.7107" lon="2.9637">
        <ele>875.9</ele>
        <time>2015-07-18T13:12:46Z</time>
      </trkpt>
      <trkpt lat="43.71069" lon="2.96381">
        <ele>874.94</ele>
        <time>2015-07-18T13:12:47Z</time>
      </trkpt>
      <trkpt lat="43.71064" lon="2.96391">
        <ele>874.46</ele>
        <time>2015-07-18T13:12:48Z</time>
      </trkpt>
      <trkpt lat="43.71057" lon="2.96398">
        <ele>874.94</ele>
        <time>2015-07-18T13:12:49Z</time>
      </trkpt>
      <trkpt lat="43.71047" lon="2.96404">
        <ele>875.42</ele>
        <time>2015-07-18T13:12:50Z</time>
      </trkpt>
      <trkpt lat="43.71036" lon="2.96413">
        <ele>874.94</ele>
        <time>2015-07-18T13:12:51Z</time>
      </trkpt>
      <trkpt lat="43.71026" lon="2.96424">
        <ele>875.42</ele>
        <time>2015-07-18T13:12:52Z</time>
      </trkpt>
      <trkpt lat="43.71017" lon="2.96439">
        <ele>877.34</ele>
        <time>2015-07-18T13:12:53Z</time>
      </trkpt>
      <trkpt lat="43.71012" lon="2.96455">
        <ele>877.82</ele>
        <time>2015-07-18T13:12:54Z</time>
      </trkpt>
      <trkpt lat="43.71009" lon="2.96472">
        <ele>879.26</ele>
        <time>2015-07-18T13:12:55Z</time>
      </trkpt>
      <trkpt lat="43.71008" lon="2.96491">
        <ele>879.74</ele>
        <time>2015-07-18T13:12:56Z</time>
      </trkpt>
      <trkpt lat="43.7101" lon="2.96509">
        <ele>880.22</ele>
        <time>2015-07-18T13:12:57Z</time>
      </trkpt>
      <trkpt lat="43.71015" lon="2.96527">
        <ele>880.22</ele>
        <time>2015-07-18T13:12:58Z</time>
      </trkpt>
      <trkpt lat="43.71024" lon="2.96541">
        <ele>880.22</ele>
        <time>2015-07-18T13:12:59Z</time>
      </trkpt>
      <trkpt lat="43.71034" lon="2.96551">
        <ele>880.22</ele>
        <time>2015-07-18T13:13:00Z</time>
      </trkpt>
      <trkpt lat="43.71046" lon="2.96555">
        <ele>880.71</ele>
        <time>2015-07-18T13:13:01Z</time>
      </trkpt>
      <trkpt lat="43.71056" lon="2.96557">
        <ele>880.71</ele>
        <time>2015-07-18T13:13:02Z</time>
      </trkpt>
      <trkpt lat="43.71068" lon="2.96556">
        <ele>881.19</ele>
        <time>2015-07-18T13:13:03Z</time>
      </trkpt>
      <trkpt lat="43.7108" lon="2.9655">
        <ele>881.67</ele>
        <time>2015-07-18T13:13:04Z</time>
      </trkpt>
      <trkpt lat="43.71091" lon="2.96542">
        <ele>882.15</ele>
        <time>2015-07-18T13:13:05Z</time>
      </trkpt>
      <trkpt lat="43.71102" lon="2.96538">
        <ele>883.59</ele>
        <time>2015-07-18T13:13:06Z</time>
      </trkpt>
      <trkpt lat="43.71113" lon="2.96537">
        <ele>884.07</ele>
        <time>2015-07-18T13:13:07Z</time>
      </trkpt>
      <trkpt lat="43.71124" lon="2.9654">
        <ele>884.07</ele>
        <time>2015-07-18T13:13:08Z</time>
      </trkpt>
      <trkpt lat="43.71133" lon="2.96547">
        <ele>885.03</ele>
        <time>2015-07-18T13:13:09Z</time>
      </trkpt>
      <trkpt lat="43.71141" lon="2.96555">
        <ele>885.03</ele>
        <time>2015-07-18T13:13:10Z</time>
      </trkpt>
      <trkpt lat="43.7115" lon="2.96561">
        <ele>885.51</ele>
        <time>2015-07-18T13:13:11Z</time>
      </trkpt>
      <trkpt lat="43.7116" lon="2.96564">
        <ele>885.51</ele>
        <time>2015-07-18T13:13:12Z</time>
      </trkpt>
      <trkpt lat="43.71171" lon="2.96562">
        <ele>885.51</ele>
        <time>2015-07-18T13:13:13Z</time>
      </trkpt>
      <trkpt lat="43.71181" lon="2.96559">
        <ele>885.99</ele>
        <time>2015-07-18T13:13:14Z</time>
      </trkpt>
      <trkpt lat="43.71193" lon="2.96554">
        <ele>887.91</ele>
        <time>2015-07-18T13:13:15Z</time>
      </trkpt>
      <trkpt lat="43.71203" lon="2.9655">
        <ele>887.91</ele>
        <time>2015-07-18T13:13:16Z</time>
      </trkpt>
      <trkpt lat="43.71224" lon="2.96547">
        <ele>889.84</ele>
        <time>2015-07-18T13:13:18Z</time>
      </trkpt>
      <trkpt lat="43.71235" lon="2.96549">
        <ele>889.84</ele>
        <time>2015-07-18T13:13:19Z</time>
      </trkpt>
      <trkpt lat="43.71245" lon="2.96553">
        <ele>889.36</ele>
        <time>2015-07-18T13:13:20Z</time>
      </trkpt>
      <trkpt lat="43.71246" lon="2.96569">
        <ele>889.36</ele>
        <time>2015-07-18T13:13:21Z</time>
      </trkpt>
      <trkpt lat="43.71247" lon="2.96585">
        <ele>886.47</ele>
        <time>2015-07-18T13:13:22Z</time>
      </trkpt>
      <trkpt lat="43.71243" lon="2.96601">
        <ele>885.99</ele>
        <time>2015-07-18T13:13:23Z</time>
      </trkpt>
      <trkpt lat="43.7124" lon="2.96618">
        <ele>885.03</ele>
        <time>2015-07-18T13:13:24Z</time>
      </trkpt>
      <trkpt lat="43.71236" lon="2.96636">
        <ele>884.55</ele>
        <time>2015-07-18T13:13:25Z</time>
      </trkpt>
      <trkpt lat="43.71228" lon="2.96763">
        <ele>884.55</ele>
        <time>2015-07-18T13:13:33Z</time>
      </trkpt>
      <trkpt lat="43.71231" lon="2.96781">
        <ele>884.55</ele>
        <time>2015-07-18T13:13:34Z</time>
      </trkpt>
      <trkpt lat="43.71235" lon="2.96798">
        <ele>884.55</ele>
        <time>2015-07-18T13:13:35Z</time>
      </trkpt>
      <trkpt lat="43.71242" lon="2.96817">
        <ele>884.07</ele>
        <time>2015-07-18T13:13:36Z</time>
      </trkpt>
      <trkpt lat="43.71251" lon="2.96834">
        <ele>883.59</ele>
        <time>2015-07-18T13:13:37Z</time>
      </trkpt>
      <trkpt lat="43.71261" lon="2.9685">
        <ele>884.07</ele>
        <time>2015-07-18T13:13:38Z</time>
      </trkpt>
      <trkpt lat="43.71273" lon="2.96864">
        <ele>884.55</ele>
        <time>2015-07-18T13:13:39Z</time>
      </trkpt>
      <trkpt lat="43.71289" lon="2.96875">
        <ele>885.03</ele>
        <time>2015-07-18T13:13:40Z</time>
      </trkpt>
      <trkpt lat="43.71305" lon="2.96886">
        <ele>885.51</ele>
        <time>2015-07-18T13:13:41Z</time>
      </trkpt>
      <trkpt lat="43.71323" lon="2.96896">
        <ele>886.47</ele>
        <time>2015-07-18T13:13:42Z</time>
      </trkpt>
      <trkpt lat="43.71507" lon="2.97003">
        <ele>886.95</ele>
        <time>2015-07-18T13:13:52Z</time>
      </trkpt>
      <trkpt lat="43.71629" lon="2.97112">
        <ele>887.43</ele>
        <time>2015-07-18T13:13:59Z</time>
      </trkpt>
      <trkpt lat="43.71759" lon="2.97303">
        <ele>889.36</ele>
        <time>2015-07-18T13:14:08Z</time>
      </trkpt>
      <trkpt lat="43.71852" lon="2.97419">
        <ele>891.28</ele>
        <time>2015-07-18T13:14:15Z</time>
      </trkpt>
      <trkpt lat="43.71895" lon="2.97497">
        <ele>889.36</ele>
        <time>2015-07-18T13:14:19Z</time>
      </trkpt>
      <trkpt lat="43.71901" lon="2.9752">
        <ele>889.36</ele>
        <time>2015-07-18T13:14:20Z</time>
      </trkpt>
      <trkpt lat="43.71907" lon="2.97545">
        <ele>888.88</ele>
        <time>2015-07-18T13:14:21Z</time>
      </trkpt>
      <trkpt lat="43.71955" lon="2.97649">
        <ele>889.84</ele>
        <time>2015-07-18T13:14:26Z</time>
      </trkpt>
      <trkpt lat="43.7197" lon="2.97658">
        <ele>889.84</ele>
        <time>2015-07-18T13:14:27Z</time>
      </trkpt>
      <trkpt lat="43.71986" lon="2.97661">
        <ele>890.32</ele>
        <time>2015-07-18T13:14:28Z</time>
      </trkpt>
      <trkpt lat="43.72003" lon="2.97664">
        <ele>890.32</ele>
        <time>2015-07-18T13:14:29Z</time>
      </trkpt>
      <trkpt lat="43.7202" lon="2.97662">
        <ele>891.28</ele>
        <time>2015-07-18T13:14:30Z</time>
      </trkpt>
      <trkpt lat="43.7204" lon="2.97659">
        <ele>892.72</ele>
        <time>2015-07-18T13:14:31Z</time>
      </trkpt>
      <trkpt lat="43.72059" lon="2.97658">
        <ele>893.2</ele>
        <time>2015-07-18T13:14:32Z</time>
      </trkpt>
      <trkpt lat="43.72145" lon="2.97675">
        <ele>893.2</ele>
        <time>2015-07-18T13:14:37Z</time>
      </trkpt>
      <trkpt lat="43.72157" lon="2.97671">
        <ele>892.24</ele>
        <time>2015-07-18T13:14:38Z</time>
      </trkpt>
      <trkpt lat="43.72168" lon="2.97661">
        <ele>891.28</ele>
        <time>2015-07-18T13:14:39Z</time>
      </trkpt>
      <trkpt lat="43.72177" lon="2.97647">
        <ele>891.28</ele>
        <time>2015-07-18T13:14:40Z</time>
      </trkpt>
      <trkpt lat="43.72181" lon="2.97627">
        <ele>891.76</ele>
        <time>2015-07-18T13:14:41Z</time>
      </trkpt>
      <trkpt lat="43.72184" lon="2.97606">
        <ele>892.24</ele>
        <time>2015-07-18T13:14:42Z</time>
      </trkpt>
      <trkpt lat="43.72185" lon="2.97587">
        <ele>892.72</ele>
        <time>2015-07-18T13:14:43Z</time>
      </trkpt>
      <trkpt lat="43.72182" lon="2.97566">
        <ele>893.2</ele>
        <time>2015-07-18T13:14:44Z</time>
      </trkpt>
      <trkpt lat="43.72176" lon="2.97546">
        <ele>893.2</ele>
        <time>2015-07-18T13:14:45Z</time>
      </trkpt>
      <trkpt lat="43.72172" lon="2.97526">
        <ele>893.2</ele>
        <time>2015-07-18T13:14:46Z</time>
      </trkpt>
      <trkpt lat="43.7217" lon="2.97507">
        <ele>893.68</ele>
        <time>2015-07-18T13:14:47Z</time>
      </trkpt>
      <trkpt lat="43.72171" lon="2.9749">
        <ele>894.16</ele>
        <time>2015-07-18T13:14:48Z</time>
      </trkpt>
      <trkpt lat="43.72176" lon="2.97474">
        <ele>894.64</ele>
        <time>2015-07-18T13:14:49Z</time>
      </trkpt>
      <trkpt lat="43.72183" lon="2.9746">
        <ele>895.12</ele>
        <time>2015-07-18T13:14:50Z</time>
      </trkpt>
      <trkpt lat="43.72195" lon="2.97447">
        <ele>895.61</ele>
        <time>2015-07-18T13:14:51Z</time>
      </trkpt>
      <trkpt lat="43.72208" lon="2.97435">
        <ele>895.61</ele>
        <time>2015-07-18T13:14:52Z</time>
      </trkpt>
      <trkpt lat="43.72222" lon="2.97421">
        <ele>895.61</ele>
        <time>2015-07-18T13:14:53Z</time>
      </trkpt>
      <trkpt lat="43.72283" lon="2.97354">
        <ele>896.57</ele>
        <time>2015-07-18T13:14:58Z</time>
      </trkpt>
      <trkpt lat="43.72295" lon="2.97345">
        <ele>896.57</ele>
        <time>2015-07-18T13:14:59Z</time>
      </trkpt>
      <trkpt lat="43.7231" lon="2.97343">
        <ele>896.57</ele>
        <time>2015-07-18T13:15:00Z</time>
      </trkpt>
      <trkpt lat="43.72325" lon="2.97348">
        <ele>897.05</ele>
        <time>2015-07-18T13:15:01Z</time>
      </trkpt>
      <trkpt lat="43.7234" lon="2.97357">
        <ele>897.53</ele>
        <time>2015-07-18T13:15:02Z</time>
      </trkpt>
      <trkpt lat="43.72354" lon="2.97369">
        <ele>898.01</ele>
        <time>2015-07-18T13:15:03Z</time>
      </trkpt>
      <trkpt lat="43.72369" lon="2.97383">
        <ele>898.97</ele>
        <time>2015-07-18T13:15:04Z</time>
      </trkpt>
      <trkpt lat="43.72383" lon="2.974">
        <ele>899.45</ele>
        <time>2015-07-18T13:15:05Z</time>
      </trkpt>
      <trkpt lat="43.72398" lon="2.97417">
        <ele>899.93</ele>
        <time>2015-07-18T13:15:06Z</time>
      </trkpt>
      <trkpt lat="43.72559" lon="2.97598">
        <ele>900.89</ele>
        <time>2015-07-18T13:15:16Z</time>
      </trkpt>
      <trkpt lat="43.72715" lon="2.97755">
        <ele>903.3</ele>
        <time>2015-07-18T13:15:25Z</time>
      </trkpt>
      <trkpt lat="43.72759" lon="2.97798">
        <ele>903.78</ele>
        <time>2015-07-18T13:15:28Z</time>
      </trkpt>
      <trkpt lat="43.72771" lon="2.97816">
        <ele>903.78</ele>
        <time>2015-07-18T13:15:29Z</time>
      </trkpt>
      <trkpt lat="43.72781" lon="2.97836">
        <ele>904.26</ele>
        <time>2015-07-18T13:15:30Z</time>
      </trkpt>
      <trkpt lat="43.72799" lon="2.97871">
        <ele>904.74</ele>
        <time>2015-07-18T13:15:32Z</time>
      </trkpt>
      <trkpt lat="43.7281" lon="2.97881">
        <ele>904.74</ele>
        <time>2015-07-18T13:15:33Z</time>
      </trkpt>
      <trkpt lat="43.72823" lon="2.97885">
        <ele>904.74</ele>
        <time>2015-07-18T13:15:34Z</time>
      </trkpt>
      <trkpt lat="43.72838" lon="2.97883">
        <ele>904.74</ele>
        <time>2015-07-18T13:15:35Z</time>
      </trkpt>
      <trkpt lat="43.72852" lon="2.9788">
        <ele>905.7</ele>
        <time>2015-07-18T13:15:36Z</time>
      </trkpt>
      <trkpt lat="43.72868" lon="2.97872">
        <ele>907.14</ele>
        <time>2015-07-18T13:15:37Z</time>
      </trkpt>
      <trkpt lat="43.72882" lon="2.97864">
        <ele>907.14</ele>
        <time>2015-07-18T13:15:38Z</time>
      </trkpt>
      <trkpt lat="43.72895" lon="2.97854">
        <ele>907.14</ele>
        <time>2015-07-18T13:15:39Z</time>
      </trkpt>
      <trkpt lat="43.72903" lon="2.97838">
        <ele>906.18</ele>
        <time>2015-07-18T13:15:40Z</time>
      </trkpt>
      <trkpt lat="43.72906" lon="2.97821">
        <ele>906.18</ele>
        <time>2015-07-18T13:15:41Z</time>
      </trkpt>
      <trkpt lat="43.72906" lon="2.97803">
        <ele>906.18</ele>
        <time>2015-07-18T13:15:42Z</time>
      </trkpt>
      <trkpt lat="43.72902" lon="2.9779">
        <ele>906.18</ele>
        <time>2015-07-18T13:15:43Z</time>
      </trkpt>
      <trkpt lat="43.72893" lon="2.97773">
        <ele>905.7</ele>
        <time>2015-07-18T13:15:44Z</time>
      </trkpt>
      <trkpt lat="43.72883" lon="2.97758">
        <ele>905.22</ele>
        <time>2015-07-18T13:15:45Z</time>
      </trkpt>
      <trkpt lat="43.72872" lon="2.97743">
        <ele>904.74</ele>
        <time>2015-07-18T13:15:46Z</time>
      </trkpt>
      <trkpt lat="43.72864" lon="2.97726">
        <ele>904.74</ele>
        <time>2015-07-18T13:15:47Z</time>
      </trkpt>
      <trkpt lat="43.72857" lon="2.97706">
        <ele>904.74</ele>
        <time>2015-07-18T13:15:48Z</time>
      </trkpt>
      <trkpt lat="43.72854" lon="2.97687">
        <ele>904.26</ele>
        <time>2015-07-18T13:15:49Z</time>
      </trkpt>
      <trkpt lat="43.72855" lon="2.97663">
        <ele>904.26</ele>
        <time>2015-07-18T13:15:50Z</time>
      </trkpt>
      <trkpt lat="43.72858" lon="2.9764">
        <ele>904.74</ele>
        <time>2015-07-18T13:15:51Z</time>
      </trkpt>
      <trkpt lat="43.72861" lon="2.9762">
        <ele>905.22</ele>
        <time>2015-07-18T13:15:52Z</time>
      </trkpt>
      <trkpt lat="43.72867" lon="2.97601">
        <ele>905.7</ele>
        <time>2015-07-18T13:15:53Z</time>
      </trkpt>
      <trkpt lat="43.72874" lon="2.97584">
        <ele>905.7</ele>
        <time>2015-07-18T13:15:54Z</time>
      </trkpt>
      <trkpt lat="43.72886" lon="2.97571">
        <ele>906.18</ele>
        <time>2015-07-18T13:15:55Z</time>
      </trkpt>
      <trkpt lat="43.729" lon="2.97561">
        <ele>906.18</ele>
        <time>2015-07-18T13:15:56Z</time>
      </trkpt>
      <trkpt lat="43.72917" lon="2.97555">
        <ele>906.18</ele>
        <time>2015-07-18T13:15:57Z</time>
      </trkpt>
      <trkpt lat="43.72933" lon="2.97549">
        <ele>907.14</ele>
        <time>2015-07-18T13:15:58Z</time>
      </trkpt>
      <trkpt lat="43.72999" lon="2.97499">
        <ele>907.62</ele>
        <time>2015-07-18T13:16:03Z</time>
      </trkpt>
      <trkpt lat="43.73006" lon="2.97481">
        <ele>908.1</ele>
        <time>2015-07-18T13:16:04Z</time>
      </trkpt>
      <trkpt lat="43.7301" lon="2.97461">
        <ele>908.1</ele>
        <time>2015-07-18T13:16:05Z</time>
      </trkpt>
      <trkpt lat="43.73004" lon="2.9743">
        <ele>908.58</ele>
        <time>2015-07-18T13:16:06Z</time>
      </trkpt>
      <trkpt lat="43.73" lon="2.97402">
        <ele>908.58</ele>
        <time>2015-07-18T13:16:07Z</time>
      </trkpt>
      <trkpt lat="43.72998" lon="2.97375">
        <ele>908.58</ele>
        <time>2015-07-18T13:16:08Z</time>
      </trkpt>
      <trkpt lat="43.73021" lon="2.97169">
        <ele>907.62</ele>
        <time>2015-07-18T13:16:16Z</time>
      </trkpt>
      <trkpt lat="43.73028" lon="2.97155">
        <ele>907.62</ele>
        <time>2015-07-18T13:16:17Z</time>
      </trkpt>
      <trkpt lat="43.73039" lon="2.97145">
        <ele>907.62</ele>
        <time>2015-07-18T13:16:18Z</time>
      </trkpt>
      <trkpt lat="43.73052" lon="2.97142">
        <ele>907.62</ele>
        <time>2015-07-18T13:16:19Z</time>
      </trkpt>
      <trkpt lat="43.73067" lon="2.97149">
        <ele>907.62</ele>
        <time>2015-07-18T13:16:20Z</time>
      </trkpt>
      <trkpt lat="43.73083" lon="2.9716">
        <ele>906.66</ele>
        <time>2015-07-18T13:16:21Z</time>
      </trkpt>
      <trkpt lat="43.73097" lon="2.97172">
        <ele>906.18</ele>
        <time>2015-07-18T13:16:22Z</time>
      </trkpt>
      <trkpt lat="43.73111" lon="2.97185">
        <ele>905.7</ele>
        <time>2015-07-18T13:16:23Z</time>
      </trkpt>
      <trkpt lat="43.73124" lon="2.97199">
        <ele>904.74</ele>
        <time>2015-07-18T13:16:24Z</time>
      </trkpt>
      <trkpt lat="43.73136" lon="2.9721">
        <ele>903.78</ele>
        <time>2015-07-18T13:16:25Z</time>
      </trkpt>
      <trkpt lat="43.7315" lon="2.97215">
        <ele>903.3</ele>
        <time>2015-07-18T13:16:26Z</time>
      </trkpt>
      <trkpt lat="43.73163" lon="2.97217">
        <ele>902.82</ele>
        <time>2015-07-18T13:16:27Z</time>
      </trkpt>
      <trkpt lat="43.73179" lon="2.97215">
        <ele>899.93</ele>
        <time>2015-07-18T13:16:28Z</time>
      </trkpt>
      <trkpt lat="43.73195" lon="2.97206">
        <ele>898.97</ele>
        <time>2015-07-18T13:16:29Z</time>
      </trkpt>
      <trkpt lat="43.73211" lon="2.97198">
        <ele>898.49</ele>
        <time>2015-07-18T13:16:30Z</time>
      </trkpt>
      <trkpt lat="43.73224" lon="2.97185">
        <ele>896.57</ele>
        <time>2015-07-18T13:16:31Z</time>
      </trkpt>
      <trkpt lat="43.73236" lon="2.97171">
        <ele>895.12</ele>
        <time>2015-07-18T13:16:32Z</time>
      </trkpt>
      <trkpt lat="43.73244" lon="2.97152">
        <ele>893.68</ele>
        <time>2015-07-18T13:16:33Z</time>
      </trkpt>
      <trkpt lat="43.73251" lon="2.97134">
        <ele>893.68</ele>
        <time>2015-07-18T13:16:34Z</time>
      </trkpt>
      <trkpt lat="43.73257" lon="2.97115">
        <ele>898.01</ele>
        <time>2015-07-18T13:16:35Z</time>
      </trkpt>
      <trkpt lat="43.73258" lon="2.97095">
        <ele>895.61</ele>
        <time>2015-07-18T13:16:36Z</time>
      </trkpt>
      <trkpt lat="43.7325" lon="2.97071">
        <ele>892.72</ele>
        <time>2015-07-18T13:16:37Z</time>
      </trkpt>
      <trkpt lat="43.73237" lon="2.97045">
        <ele>893.2</ele>
        <time>2015-07-18T13:16:38Z</time>
      </trkpt>
      <trkpt lat="43.73226" lon="2.97024">
        <ele>891.76</ele>
        <time>2015-07-18T13:16:39Z</time>
      </trkpt>
      <trkpt lat="43.73215" lon="2.97004">
        <ele>891.28</ele>
        <time>2015-07-18T13:16:40Z</time>
      </trkpt>
      <trkpt lat="43.73191" lon="2.96946">
        <ele>886.47</ele>
        <time>2015-07-18T13:16:43Z</time>
      </trkpt>
      <trkpt lat="43.73186" lon="2.96926">
        <ele>885.03</ele>
        <time>2015-07-18T13:16:44Z</time>
      </trkpt>
      <trkpt lat="43.73185" lon="2.96904">
        <ele>883.11</ele>
        <time>2015-07-18T13:16:45Z</time>
      </trkpt>
      <trkpt lat="43.73187" lon="2.96883">
        <ele>881.19</ele>
        <time>2015-07-18T13:16:46Z</time>
      </trkpt>
      <trkpt lat="43.73195" lon="2.96867">
        <ele>880.22</ele>
        <time>2015-07-18T13:16:47Z</time>
      </trkpt>
      <trkpt lat="43.73207" lon="2.96855">
        <ele>878.78</ele>
        <time>2015-07-18T13:16:48Z</time>
      </trkpt>
      <trkpt lat="43.73226" lon="2.96853">
        <ele>879.26</ele>
        <time>2015-07-18T13:16:49Z</time>
      </trkpt>
      <trkpt lat="43.73243" lon="2.96848">
        <ele>878.78</ele>
        <time>2015-07-18T13:16:50Z</time>
      </trkpt>
      <trkpt lat="43.73259" lon="2.96846">
        <ele>877.82</ele>
        <time>2015-07-18T13:16:51Z</time>
      </trkpt>
      <trkpt lat="43.73278" lon="2.96847">
        <ele>877.82</ele>
        <time>2015-07-18T13:16:52Z</time>
      </trkpt>
      <trkpt lat="43.73296" lon="2.96849">
        <ele>877.34</ele>
        <time>2015-07-18T13:16:53Z</time>
      </trkpt>
      <trkpt lat="43.73314" lon="2.96858">
        <ele>876.38</ele>
        <time>2015-07-18T13:16:54Z</time>
      </trkpt>
      <trkpt lat="43.73333" lon="2.96871">
        <ele>876.38</ele>
        <time>2015-07-18T13:16:55Z</time>
      </trkpt>
      <trkpt lat="43.73349" lon="2.96883">
        <ele>876.38</ele>
        <time>2015-07-18T13:16:56Z</time>
      </trkpt>
      <trkpt lat="43.73364" lon="2.96896">
        <ele>875.9</ele>
        <time>2015-07-18T13:16:57Z</time>
      </trkpt>
      <trkpt lat="43.73494" lon="2.97002">
        <ele>876.86</ele>
        <time>2015-07-18T13:17:05Z</time>
      </trkpt>
      <trkpt lat="43.73598" lon="2.97099">
        <ele>873.5</ele>
        <time>2015-07-18T13:17:12Z</time>
      </trkpt>
      <trkpt lat="43.73615" lon="2.97109">
        <ele>873.01</ele>
        <time>2015-07-18T13:17:13Z</time>
      </trkpt>
      <trkpt lat="43.73781" lon="2.97156">
        <ele>861.96</ele>
        <time>2015-07-18T13:17:22Z</time>
      </trkpt>
      <trkpt lat="43.73914" lon="2.97148">
        <ele>857.15</ele>
        <time>2015-07-18T13:17:29Z</time>
      </trkpt>
      <trkpt lat="43.7395" lon="2.97133">
        <ele>856.67</ele>
        <time>2015-07-18T13:17:31Z</time>
      </trkpt>
      <trkpt lat="43.74003" lon="2.97104">
        <ele>855.71</ele>
        <time>2015-07-18T13:17:34Z</time>
      </trkpt>
      <trkpt lat="43.74038" lon="2.97119">
        <ele>853.79</ele>
        <time>2015-07-18T13:17:36Z</time>
      </trkpt>
      <trkpt lat="43.7405" lon="2.97132">
        <ele>852.35</ele>
        <time>2015-07-18T13:17:37Z</time>
      </trkpt>
      <trkpt lat="43.74059" lon="2.97151">
        <ele>851.38</ele>
        <time>2015-07-18T13:17:38Z</time>
      </trkpt>
      <trkpt lat="43.74067" lon="2.9717">
        <ele>849.94</ele>
        <time>2015-07-18T13:17:39Z</time>
      </trkpt>
      <trkpt lat="43.74066" lon="2.97199">
        <ele>851.38</ele>
        <time>2015-07-18T13:17:40Z</time>
      </trkpt>
      <trkpt lat="43.74068" lon="2.97223">
        <ele>850.42</ele>
        <time>2015-07-18T13:17:41Z</time>
      </trkpt>
      <trkpt lat="43.74069" lon="2.97247">
        <ele>848.5</ele>
        <time>2015-07-18T13:17:42Z</time>
      </trkpt>
      <trkpt lat="43.74069" lon="2.97271">
        <ele>847.54</ele>
        <time>2015-07-18T13:17:43Z</time>
      </trkpt>
      <trkpt lat="43.74082" lon="2.97357">
        <ele>841.77</ele>
        <time>2015-07-18T13:17:47Z</time>
      </trkpt>
      <trkpt lat="43.74092" lon="2.97376">
        <ele>841.29</ele>
        <time>2015-07-18T13:17:48Z</time>
      </trkpt>
      <trkpt lat="43.74124" lon="2.97437">
        <ele>836.48</ele>
        <time>2015-07-18T13:17:52Z</time>
      </trkpt>
      <trkpt lat="43.74137" lon="2.97439">
        <ele>835.04</ele>
        <time>2015-07-18T13:17:53Z</time>
      </trkpt>
      <trkpt lat="43.7415" lon="2.97438">
        <ele>835.52</ele>
        <time>2015-07-18T13:17:54Z</time>
      </trkpt>
      <trkpt lat="43.74166" lon="2.9744">
        <ele>835.52</ele>
        <time>2015-07-18T13:17:55Z</time>
      </trkpt>
      <trkpt lat="43.74183" lon="2.97437">
        <ele>835.04</ele>
        <time>2015-07-18T13:17:56Z</time>
      </trkpt>
      <trkpt lat="43.74201" lon="2.97435">
        <ele>835.52</ele>
        <time>2015-07-18T13:17:57Z</time>
      </trkpt>
      <trkpt lat="43.7422" lon="2.97433">
        <ele>834.08</ele>
        <time>2015-07-18T13:17:58Z</time>
      </trkpt>
      <trkpt lat="43.7434" lon="2.97398">
        <ele>834.56</ele>
        <time>2015-07-18T13:18:05Z</time>
      </trkpt>
      <trkpt lat="43.74355" lon="2.97399">
        <ele>833.6</ele>
        <time>2015-07-18T13:18:06Z</time>
      </trkpt>
      <trkpt lat="43.7437" lon="2.97407">
        <ele>831.68</ele>
        <time>2015-07-18T13:18:07Z</time>
      </trkpt>
      <trkpt lat="43.74384" lon="2.9742">
        <ele>830.24</ele>
        <time>2015-07-18T13:18:08Z</time>
      </trkpt>
      <trkpt lat="43.74397" lon="2.97435">
        <ele>829.27</ele>
        <time>2015-07-18T13:18:09Z</time>
      </trkpt>
      <trkpt lat="43.7441" lon="2.97451">
        <ele>828.79</ele>
        <time>2015-07-18T13:18:10Z</time>
      </trkpt>
      <trkpt lat="43.74421" lon="2.97467">
        <ele>826.87</ele>
        <time>2015-07-18T13:18:11Z</time>
      </trkpt>
      <trkpt lat="43.74433" lon="2.97484">
        <ele>825.91</ele>
        <time>2015-07-18T13:18:12Z</time>
      </trkpt>
      <trkpt lat="43.74453" lon="2.9752">
        <ele>823.03</ele>
        <time>2015-07-18T13:18:14Z</time>
      </trkpt>
      <trkpt lat="43.74461" lon="2.9754">
        <ele>822.06</ele>
        <time>2015-07-18T13:18:15Z</time>
      </trkpt>
      <trkpt lat="43.74469" lon="2.97562">
        <ele>822.55</ele>
        <time>2015-07-18T13:18:16Z</time>
      </trkpt>
      <trkpt lat="43.74494" lon="2.97628">
        <ele>821.1</ele>
        <time>2015-07-18T13:18:19Z</time>
      </trkpt>
      <trkpt lat="43.74506" lon="2.97649">
        <ele>820.62</ele>
        <time>2015-07-18T13:18:20Z</time>
      </trkpt>
      <trkpt lat="43.74519" lon="2.97668">
        <ele>819.66</ele>
        <time>2015-07-18T13:18:21Z</time>
      </trkpt>
      <trkpt lat="43.74533" lon="2.97683">
        <ele>819.66</ele>
        <time>2015-07-18T13:18:22Z</time>
      </trkpt>
      <trkpt lat="43.74546" lon="2.97694">
        <ele>819.18</ele>
        <time>2015-07-18T13:18:23Z</time>
      </trkpt>
      <trkpt lat="43.74571" lon="2.97694">
        <ele>815.82</ele>
        <time>2015-07-18T13:18:25Z</time>
      </trkpt>
      <trkpt lat="43.74584" lon="2.97684">
        <ele>814.37</ele>
        <time>2015-07-18T13:18:26Z</time>
      </trkpt>
      <trkpt lat="43.74598" lon="2.97678">
        <ele>812.45</ele>
        <time>2015-07-18T13:18:27Z</time>
      </trkpt>
      <trkpt lat="43.74613" lon="2.97667">
        <ele>811.01</ele>
        <time>2015-07-18T13:18:28Z</time>
      </trkpt>
      <trkpt lat="43.74626" lon="2.97657">
        <ele>810.53</ele>
        <time>2015-07-18T13:18:29Z</time>
      </trkpt>
      <trkpt lat="43.74652" lon="2.97644">
        <ele>809.57</ele>
        <time>2015-07-18T13:18:31Z</time>
      </trkpt>
      <trkpt lat="43.74667" lon="2.97647">
        <ele>807.16</ele>
        <time>2015-07-18T13:18:32Z</time>
      </trkpt>
      <trkpt lat="43.74682" lon="2.97655">
        <ele>805.24</ele>
        <time>2015-07-18T13:18:33Z</time>
      </trkpt>
      <trkpt lat="43.74695" lon="2.97666">
        <ele>802.84</ele>
        <time>2015-07-18T13:18:34Z</time>
      </trkpt>
      <trkpt lat="43.74707" lon="2.97679">
        <ele>802.36</ele>
        <time>2015-07-18T13:18:35Z</time>
      </trkpt>
      <trkpt lat="43.74722" lon="2.97692">
        <ele>801.88</ele>
        <time>2015-07-18T13:18:36Z</time>
      </trkpt>
      <trkpt lat="43.74814" lon="2.97761">
        <ele>801.4</ele>
        <time>2015-07-18T13:18:42Z</time>
      </trkpt>
      <trkpt lat="43.74829" lon="2.97775">
        <ele>799.47</ele>
        <time>2015-07-18T13:18:43Z</time>
      </trkpt>
      <trkpt lat="43.74842" lon="2.9779">
        <ele>797.55</ele>
        <time>2015-07-18T13:18:44Z</time>
      </trkpt>
      <trkpt lat="43.74853" lon="2.97806">
        <ele>795.63</ele>
        <time>2015-07-18T13:18:45Z</time>
      </trkpt>
      <trkpt lat="43.74863" lon="2.97821">
        <ele>794.67</ele>
        <time>2015-07-18T13:18:46Z</time>
      </trkpt>
      <trkpt lat="43.74872" lon="2.97834">
        <ele>795.15</ele>
        <time>2015-07-18T13:18:47Z</time>
      </trkpt>
      <trkpt lat="43.74881" lon="2.9784">
        <ele>793.22</ele>
        <time>2015-07-18T13:18:48Z</time>
      </trkpt>
      <trkpt lat="43.74891" lon="2.97837">
        <ele>791.3</ele>
        <time>2015-07-18T13:18:49Z</time>
      </trkpt>
      <trkpt lat="43.74902" lon="2.97831">
        <ele>789.86</ele>
        <time>2015-07-18T13:18:50Z</time>
      </trkpt>
      <trkpt lat="43.74915" lon="2.97821">
        <ele>788.9</ele>
        <time>2015-07-18T13:18:51Z</time>
      </trkpt>
      <trkpt lat="43.74928" lon="2.97814">
        <ele>787.94</ele>
        <time>2015-07-18T13:18:52Z</time>
      </trkpt>
      <trkpt lat="43.74941" lon="2.97809">
        <ele>787.94</ele>
        <time>2015-07-18T13:18:53Z</time>
      </trkpt>
      <trkpt lat="43.74953" lon="2.97812">
        <ele>786.98</ele>
        <time>2015-07-18T13:18:54Z</time>
      </trkpt>
      <trkpt lat="43.74965" lon="2.97817">
        <ele>786.5</ele>
        <time>2015-07-18T13:18:55Z</time>
      </trkpt>
      <trkpt lat="43.74977" lon="2.9782">
        <ele>785.53</ele>
        <time>2015-07-18T13:18:56Z</time>
      </trkpt>
      <trkpt lat="43.7499" lon="2.97816">
        <ele>785.05</ele>
        <time>2015-07-18T13:18:57Z</time>
      </trkpt>
      <trkpt lat="43.75003" lon="2.97806">
        <ele>783.61</ele>
        <time>2015-07-18T13:18:58Z</time>
      </trkpt>
      <trkpt lat="43.75017" lon="2.97795">
        <ele>782.65</ele>
        <time>2015-07-18T13:18:59Z</time>
      </trkpt>
      <trkpt lat="43.7503" lon="2.97782">
        <ele>782.65</ele>
        <time>2015-07-18T13:19:00Z</time>
      </trkpt>
      <trkpt lat="43.75043" lon="2.9777">
        <ele>781.69</ele>
        <time>2015-07-18T13:19:01Z</time>
      </trkpt>
      <trkpt lat="43.75062" lon="2.9774">
        <ele>779.77</ele>
        <time>2015-07-18T13:19:03Z</time>
      </trkpt>
      <trkpt lat="43.7507" lon="2.97725">
        <ele>779.77</ele>
        <time>2015-07-18T13:19:04Z</time>
      </trkpt>
      <trkpt lat="43.75078" lon="2.97711">
        <ele>778.81</ele>
        <time>2015-07-18T13:19:05Z</time>
      </trkpt>
      <trkpt lat="43.75087" lon="2.977">
        <ele>777.84</ele>
        <time>2015-07-18T13:19:06Z</time>
      </trkpt>
      <trkpt lat="43.75099" lon="2.97694">
        <ele>777.36</ele>
        <time>2015-07-18T13:19:07Z</time>
      </trkpt>
      <trkpt lat="43.7511" lon="2.9769">
        <ele>777.36</ele>
        <time>2015-07-18T13:19:08Z</time>
      </trkpt>
      <trkpt lat="43.75122" lon="2.97686">
        <ele>776.88</ele>
        <time>2015-07-18T13:19:09Z</time>
      </trkpt>
      <trkpt lat="43.75133" lon="2.9768">
        <ele>775.92</ele>
        <time>2015-07-18T13:19:10Z</time>
      </trkpt>
      <trkpt lat="43.75141" lon="2.9767">
        <ele>775.44</ele>
        <time>2015-07-18T13:19:11Z</time>
      </trkpt>
      <trkpt lat="43.75148" lon="2.97658">
        <ele>774.96</ele>
        <time>2015-07-18T13:19:12Z</time>
      </trkpt>
      <trkpt lat="43.75152" lon="2.97644">
        <ele>774.96</ele>
        <time>2015-07-18T13:19:13Z</time>
      </trkpt>
      <trkpt lat="43.75158" lon="2.97632">
        <ele>774.48</ele>
        <time>2015-07-18T13:19:14Z</time>
      </trkpt>
      <trkpt lat="43.75164" lon="2.9762">
        <ele>774</ele>
        <time>2015-07-18T13:19:15Z</time>
      </trkpt>
      <trkpt lat="43.75172" lon="2.9761">
        <ele>773.04</ele>
        <time>2015-07-18T13:19:16Z</time>
      </trkpt>
      <trkpt lat="43.75185" lon="2.97607">
        <ele>772.56</ele>
        <time>2015-07-18T13:19:17Z</time>
      </trkpt>
      <trkpt lat="43.75201" lon="2.97609">
        <ele>772.56</ele>
        <time>2015-07-18T13:19:18Z</time>
      </trkpt>
      <trkpt lat="43.75217" lon="2.97615">
        <ele>772.56</ele>
        <time>2015-07-18T13:19:19Z</time>
      </trkpt>
      <trkpt lat="43.75233" lon="2.9762">
        <ele>772.08</ele>
        <time>2015-07-18T13:19:20Z</time>
      </trkpt>
      <trkpt lat="43.7525" lon="2.97625">
        <ele>771.6</ele>
        <time>2015-07-18T13:19:21Z</time>
      </trkpt>
      <trkpt lat="43.75267" lon="2.9763">
        <ele>771.11</ele>
        <time>2015-07-18T13:19:22Z</time>
      </trkpt>
      <trkpt lat="43.753" lon="2.97644">
        <ele>770.15</ele>
        <time>2015-07-18T13:19:24Z</time>
      </trkpt>
      <trkpt lat="43.75316" lon="2.97654">
        <ele>769.19</ele>
        <time>2015-07-18T13:19:25Z</time>
      </trkpt>
      <trkpt lat="43.75361" lon="2.97684">
        <ele>766.79</ele>
        <time>2015-07-18T13:19:28Z</time>
      </trkpt>
      <trkpt lat="43.75377" lon="2.97691">
        <ele>765.83</ele>
        <time>2015-07-18T13:19:29Z</time>
      </trkpt>
      <trkpt lat="43.75425" lon="2.97708">
        <ele>761.98</ele>
        <time>2015-07-18T13:19:32Z</time>
      </trkpt>
      <trkpt lat="43.75439" lon="2.9772">
        <ele>761.02</ele>
        <time>2015-07-18T13:19:33Z</time>
      </trkpt>
      <trkpt lat="43.75449" lon="2.97736">
        <ele>759.58</ele>
        <time>2015-07-18T13:19:34Z</time>
      </trkpt>
      <trkpt lat="43.75456" lon="2.97754">
        <ele>757.18</ele>
        <time>2015-07-18T13:19:35Z</time>
      </trkpt>
      <trkpt lat="43.75463" lon="2.9777">
        <ele>756.21</ele>
        <time>2015-07-18T13:19:36Z</time>
      </trkpt>
      <trkpt lat="43.7547" lon="2.97782">
        <ele>754.77</ele>
        <time>2015-07-18T13:19:37Z</time>
      </trkpt>
      <trkpt lat="43.75481" lon="2.97787">
        <ele>752.37</ele>
        <time>2015-07-18T13:19:38Z</time>
      </trkpt>
      <trkpt lat="43.75495" lon="2.97792">
        <ele>750.45</ele>
        <time>2015-07-18T13:19:39Z</time>
      </trkpt>
      <trkpt lat="43.75511" lon="2.97789">
        <ele>749.97</ele>
        <time>2015-07-18T13:19:40Z</time>
      </trkpt>
      <trkpt lat="43.75526" lon="2.97786">
        <ele>749.49</ele>
        <time>2015-07-18T13:19:41Z</time>
      </trkpt>
      <trkpt lat="43.75541" lon="2.97782">
        <ele>748.04</ele>
        <time>2015-07-18T13:19:42Z</time>
      </trkpt>
      <trkpt lat="43.75556" lon="2.97775">
        <ele>746.12</ele>
        <time>2015-07-18T13:19:43Z</time>
      </trkpt>
      <trkpt lat="43.7557" lon="2.97762">
        <ele>744.68</ele>
        <time>2015-07-18T13:19:44Z</time>
      </trkpt>
      <trkpt lat="43.75582" lon="2.97746">
        <ele>743.72</ele>
        <time>2015-07-18T13:19:45Z</time>
      </trkpt>
      <trkpt lat="43.75592" lon="2.9773">
        <ele>742.28</ele>
        <time>2015-07-18T13:19:46Z</time>
      </trkpt>
      <trkpt lat="43.75603" lon="2.97716">
        <ele>741.31</ele>
        <time>2015-07-18T13:19:47Z</time>
      </trkpt>
      <trkpt lat="43.75615" lon="2.97706">
        <ele>739.39</ele>
        <time>2015-07-18T13:19:48Z</time>
      </trkpt>
      <trkpt lat="43.75629" lon="2.97702">
        <ele>737.47</ele>
        <time>2015-07-18T13:19:49Z</time>
      </trkpt>
      <trkpt lat="43.75643" lon="2.97705">
        <ele>736.51</ele>
        <time>2015-07-18T13:19:50Z</time>
      </trkpt>
      <trkpt lat="43.75656" lon="2.97709">
        <ele>735.55</ele>
        <time>2015-07-18T13:19:51Z</time>
      </trkpt>
      <trkpt lat="43.75667" lon="2.97712">
        <ele>735.07</ele>
        <time>2015-07-18T13:19:52Z</time>
      </trkpt>
      <trkpt lat="43.75677" lon="2.97713">
        <ele>733.62</ele>
        <time>2015-07-18T13:19:53Z</time>
      </trkpt>
      <trkpt lat="43.75686" lon="2.97709">
        <ele>732.18</ele>
        <time>2015-07-18T13:19:54Z</time>
      </trkpt>
      <trkpt lat="43.75694" lon="2.97698">
        <ele>731.22</ele>
        <time>2015-07-18T13:19:55Z</time>
      </trkpt>
      <trkpt lat="43.757" lon="2.97687">
        <ele>730.26</ele>
        <time>2015-07-18T13:19:56Z</time>
      </trkpt>
      <trkpt lat="43.75708" lon="2.97676">
        <ele>729.3</ele>
        <time>2015-07-18T13:19:57Z</time>
      </trkpt>
      <trkpt lat="43.75717" lon="2.9767">
        <ele>728.34</ele>
        <time>2015-07-18T13:19:58Z</time>
      </trkpt>
      <trkpt lat="43.75726" lon="2.97667">
        <ele>727.86</ele>
        <time>2015-07-18T13:19:59Z</time>
      </trkpt>
      <trkpt lat="43.75738" lon="2.97672">
        <ele>726.89</ele>
        <time>2015-07-18T13:20:00Z</time>
      </trkpt>
      <trkpt lat="43.7575" lon="2.97677">
        <ele>725.93</ele>
        <time>2015-07-18T13:20:01Z</time>
      </trkpt>
      <trkpt lat="43.75761" lon="2.97683">
        <ele>724.97</ele>
        <time>2015-07-18T13:20:02Z</time>
      </trkpt>
      <trkpt lat="43.75771" lon="2.97694">
        <ele>724.49</ele>
        <time>2015-07-18T13:20:03Z</time>
      </trkpt>
      <trkpt lat="43.75779" lon="2.97709">
        <ele>723.53</ele>
        <time>2015-07-18T13:20:04Z</time>
      </trkpt>
      <trkpt lat="43.75786" lon="2.97725">
        <ele>723.05</ele>
        <time>2015-07-18T13:20:05Z</time>
      </trkpt>
      <trkpt lat="43.7579" lon="2.97741">
        <ele>722.57</ele>
        <time>2015-07-18T13:20:06Z</time>
      </trkpt>
      <trkpt lat="43.75795" lon="2.97756">
        <ele>722.09</ele>
        <time>2015-07-18T13:20:07Z</time>
      </trkpt>
      <trkpt lat="43.75801" lon="2.9777">
        <ele>722.09</ele>
        <time>2015-07-18T13:20:08Z</time>
      </trkpt>
      <trkpt lat="43.75809" lon="2.97779">
        <ele>721.61</ele>
        <time>2015-07-18T13:20:09Z</time>
      </trkpt>
      <trkpt lat="43.75819" lon="2.97784">
        <ele>721.13</ele>
        <time>2015-07-18T13:20:10Z</time>
      </trkpt>
      <trkpt lat="43.75829" lon="2.97783">
        <ele>720.16</ele>
        <time>2015-07-18T13:20:11Z</time>
      </trkpt>
      <trkpt lat="43.75839" lon="2.97777">
        <ele>719.2</ele>
        <time>2015-07-18T13:20:12Z</time>
      </trkpt>
      <trkpt lat="43.75848" lon="2.97763">
        <ele>718.24</ele>
        <time>2015-07-18T13:20:13Z</time>
      </trkpt>
      <trkpt lat="43.75854" lon="2.97746">
        <ele>718.24</ele>
        <time>2015-07-18T13:20:14Z</time>
      </trkpt>
      <trkpt lat="43.75859" lon="2.97722">
        <ele>718.72</ele>
        <time>2015-07-18T13:20:15Z</time>
      </trkpt>
      <trkpt lat="43.75865" lon="2.97701">
        <ele>718.24</ele>
        <time>2015-07-18T13:20:16Z</time>
      </trkpt>
      <trkpt lat="43.75907" lon="2.97567">
        <ele>711.51</ele>
        <time>2015-07-18T13:20:23Z</time>
      </trkpt>
      <trkpt lat="43.75917" lon="2.97551">
        <ele>710.55</ele>
        <time>2015-07-18T13:20:24Z</time>
      </trkpt>
      <trkpt lat="43.75928" lon="2.97537">
        <ele>709.59</ele>
        <time>2015-07-18T13:20:25Z</time>
      </trkpt>
      <trkpt lat="43.75941" lon="2.97525">
        <ele>708.63</ele>
        <time>2015-07-18T13:20:26Z</time>
      </trkpt>
      <trkpt lat="43.75955" lon="2.97515">
        <ele>707.67</ele>
        <time>2015-07-18T13:20:27Z</time>
      </trkpt>
      <trkpt lat="43.7597" lon="2.97506">
        <ele>706.71</ele>
        <time>2015-07-18T13:20:28Z</time>
      </trkpt>
      <trkpt lat="43.76041" lon="2.97447">
        <ele>700.46</ele>
        <time>2015-07-18T13:20:34Z</time>
      </trkpt>
      <trkpt lat="43.76044" lon="2.97433">
        <ele>699.5</ele>
        <time>2015-07-18T13:20:35Z</time>
      </trkpt>
      <trkpt lat="43.76041" lon="2.97415">
        <ele>699.02</ele>
        <time>2015-07-18T13:20:36Z</time>
      </trkpt>
      <trkpt lat="43.76033" lon="2.97399">
        <ele>698.53</ele>
        <time>2015-07-18T13:20:37Z</time>
      </trkpt>
      <trkpt lat="43.76018" lon="2.97382">
        <ele>695.65</ele>
        <time>2015-07-18T13:20:38Z</time>
      </trkpt>
      <trkpt lat="43.76003" lon="2.97371">
        <ele>694.69</ele>
        <time>2015-07-18T13:20:39Z</time>
      </trkpt>
      <trkpt lat="43.75991" lon="2.97356">
        <ele>693.73</ele>
        <time>2015-07-18T13:20:40Z</time>
      </trkpt>
      <trkpt lat="43.7598" lon="2.9734">
        <ele>692.77</ele>
        <time>2015-07-18T13:20:41Z</time>
      </trkpt>
      <trkpt lat="43.75972" lon="2.97322">
        <ele>691.81</ele>
        <time>2015-07-18T13:20:42Z</time>
      </trkpt>
      <trkpt lat="43.75967" lon="2.97302">
        <ele>690.36</ele>
        <time>2015-07-18T13:20:43Z</time>
      </trkpt>
      <trkpt lat="43.75966" lon="2.9728">
        <ele>688.92</ele>
        <time>2015-07-18T13:20:44Z</time>
      </trkpt>
      <trkpt lat="43.75967" lon="2.97257">
        <ele>687.48</ele>
        <time>2015-07-18T13:20:45Z</time>
      </trkpt>
      <trkpt lat="43.75972" lon="2.97234">
        <ele>687</ele>
        <time>2015-07-18T13:20:46Z</time>
      </trkpt>
      <trkpt lat="43.75978" lon="2.97211">
        <ele>685.56</ele>
        <time>2015-07-18T13:20:47Z</time>
      </trkpt>
      <trkpt lat="43.76026" lon="2.96998">
        <ele>675.94</ele>
        <time>2015-07-18T13:20:56Z</time>
      </trkpt>
      <trkpt lat="43.76045" lon="2.9696">
        <ele>673.54</ele>
        <time>2015-07-18T13:20:58Z</time>
      </trkpt>
      <trkpt lat="43.76056" lon="2.96943">
        <ele>672.58</ele>
        <time>2015-07-18T13:20:59Z</time>
      </trkpt>
      <trkpt lat="43.76068" lon="2.96929">
        <ele>671.14</ele>
        <time>2015-07-18T13:21:00Z</time>
      </trkpt>
      <trkpt lat="43.7608" lon="2.96918">
        <ele>670.66</ele>
        <time>2015-07-18T13:21:01Z</time>
      </trkpt>
      <trkpt lat="43.76091" lon="2.9691">
        <ele>669.7</ele>
        <time>2015-07-18T13:21:02Z</time>
      </trkpt>
      <trkpt lat="43.76101" lon="2.96905">
        <ele>668.73</ele>
        <time>2015-07-18T13:21:03Z</time>
      </trkpt>
      <trkpt lat="43.76106" lon="2.96893">
        <ele>667.29</ele>
        <time>2015-07-18T13:21:04Z</time>
      </trkpt>
      <trkpt lat="43.76107" lon="2.96878">
        <ele>666.33</ele>
        <time>2015-07-18T13:21:05Z</time>
      </trkpt>
      <trkpt lat="43.76106" lon="2.96861">
        <ele>665.37</ele>
        <time>2015-07-18T13:21:06Z</time>
      </trkpt>
      <trkpt lat="43.76104" lon="2.96843">
        <ele>664.41</ele>
        <time>2015-07-18T13:21:07Z</time>
      </trkpt>
      <trkpt lat="43.76104" lon="2.96823">
        <ele>663.93</ele>
        <time>2015-07-18T13:21:08Z</time>
      </trkpt>
      <trkpt lat="43.76107" lon="2.96805">
        <ele>662.97</ele>
        <time>2015-07-18T13:21:09Z</time>
      </trkpt>
      <trkpt lat="43.76115" lon="2.96787">
        <ele>662.01</ele>
        <time>2015-07-18T13:21:10Z</time>
      </trkpt>
      <trkpt lat="43.76125" lon="2.96773">
        <ele>662.01</ele>
        <time>2015-07-18T13:21:11Z</time>
      </trkpt>
      <trkpt lat="43.76139" lon="2.96763">
        <ele>661.52</ele>
        <time>2015-07-18T13:21:12Z</time>
      </trkpt>
      <trkpt lat="43.76151" lon="2.96752">
        <ele>661.04</ele>
        <time>2015-07-18T13:21:13Z</time>
      </trkpt>
      <trkpt lat="43.76162" lon="2.96741">
        <ele>660.08</ele>
        <time>2015-07-18T13:21:14Z</time>
      </trkpt>
      <trkpt lat="43.76178" lon="2.96714">
        <ele>658.64</ele>
        <time>2015-07-18T13:21:16Z</time>
      </trkpt>
      <trkpt lat="43.76183" lon="2.96701">
        <ele>658.16</ele>
        <time>2015-07-18T13:21:17Z</time>
      </trkpt>
      <trkpt lat="43.76184" lon="2.96684">
        <ele>657.68</ele>
        <time>2015-07-18T13:21:18Z</time>
      </trkpt>
      <trkpt lat="43.76187" lon="2.9667">
        <ele>656.72</ele>
        <time>2015-07-18T13:21:19Z</time>
      </trkpt>
      <trkpt lat="43.76192" lon="2.9666">
        <ele>656.72</ele>
        <time>2015-07-18T13:21:20Z</time>
      </trkpt>
      <trkpt lat="43.76198" lon="2.96652">
        <ele>656.24</ele>
        <time>2015-07-18T13:21:21Z</time>
      </trkpt>
      <trkpt lat="43.76205" lon="2.96649">
        <ele>654.31</ele>
        <time>2015-07-18T13:21:22Z</time>
      </trkpt>
      <trkpt lat="43.76212" lon="2.96647">
        <ele>653.35</ele>
        <time>2015-07-18T13:21:23Z</time>
      </trkpt>
      <trkpt lat="43.7622" lon="2.96647">
        <ele>652.87</ele>
        <time>2015-07-18T13:21:24Z</time>
      </trkpt>
      <trkpt lat="43.76229" lon="2.96649">
        <ele>652.87</ele>
        <time>2015-07-18T13:21:25Z</time>
      </trkpt>
      <trkpt lat="43.76239" lon="2.96651">
        <ele>652.39</ele>
        <time>2015-07-18T13:21:26Z</time>
      </trkpt>
      <trkpt lat="43.76284" lon="2.96664">
        <ele>649.99</ele>
        <time>2015-07-18T13:21:30Z</time>
      </trkpt>
      <trkpt lat="43.76296" lon="2.96664">
        <ele>649.03</ele>
        <time>2015-07-18T13:21:31Z</time>
      </trkpt>
      <trkpt lat="43.76308" lon="2.9666">
        <ele>647.59</ele>
        <time>2015-07-18T13:21:32Z</time>
      </trkpt>
      <trkpt lat="43.7632" lon="2.96655">
        <ele>646.62</ele>
        <time>2015-07-18T13:21:33Z</time>
      </trkpt>
      <trkpt lat="43.76331" lon="2.9665">
        <ele>646.14</ele>
        <time>2015-07-18T13:21:34Z</time>
      </trkpt>
      <trkpt lat="43.76343" lon="2.96648">
        <ele>645.18</ele>
        <time>2015-07-18T13:21:35Z</time>
      </trkpt>
      <trkpt lat="43.76354" lon="2.96647">
        <ele>644.7</ele>
        <time>2015-07-18T13:21:36Z</time>
      </trkpt>
      <trkpt lat="43.76366" lon="2.96646">
        <ele>643.26</ele>
        <time>2015-07-18T13:21:37Z</time>
      </trkpt>
      <trkpt lat="43.76391" lon="2.96648">
        <ele>641.82</ele>
        <time>2015-07-18T13:21:39Z</time>
      </trkpt>
      <trkpt lat="43.76406" lon="2.9665">
        <ele>640.38</ele>
        <time>2015-07-18T13:21:40Z</time>
      </trkpt>
      <trkpt lat="43.76433" lon="2.96654">
        <ele>638.45</ele>
        <time>2015-07-18T13:21:42Z</time>
      </trkpt>
      <trkpt lat="43.76471" lon="2.96653">
        <ele>637.49</ele>
        <time>2015-07-18T13:21:45Z</time>
      </trkpt>
      <trkpt lat="43.76493" lon="2.96662">
        <ele>637.01</ele>
        <time>2015-07-18T13:21:47Z</time>
      </trkpt>
      <trkpt lat="43.76505" lon="2.96666">
        <ele>636.53</ele>
        <time>2015-07-18T13:21:48Z</time>
      </trkpt>
      <trkpt lat="43.76518" lon="2.96662">
        <ele>636.53</ele>
        <time>2015-07-18T13:21:49Z</time>
      </trkpt>
      <trkpt lat="43.76529" lon="2.96658">
        <ele>635.57</ele>
        <time>2015-07-18T13:21:50Z</time>
      </trkpt>
      <trkpt lat="43.7654" lon="2.9665">
        <ele>634.61</ele>
        <time>2015-07-18T13:21:51Z</time>
      </trkpt>
      <trkpt lat="43.76551" lon="2.96642">
        <ele>633.65</ele>
        <time>2015-07-18T13:21:52Z</time>
      </trkpt>
      <trkpt lat="43.76562" lon="2.96637">
        <ele>633.65</ele>
        <time>2015-07-18T13:21:53Z</time>
      </trkpt>
      <trkpt lat="43.76574" lon="2.96638">
        <ele>632.68</ele>
        <time>2015-07-18T13:21:54Z</time>
      </trkpt>
      <trkpt lat="43.76586" lon="2.96642">
        <ele>631.72</ele>
        <time>2015-07-18T13:21:55Z</time>
      </trkpt>
      <trkpt lat="43.76597" lon="2.9665">
        <ele>631.24</ele>
        <time>2015-07-18T13:21:56Z</time>
      </trkpt>
      <trkpt lat="43.76608" lon="2.9666">
        <ele>630.76</ele>
        <time>2015-07-18T13:21:57Z</time>
      </trkpt>
      <trkpt lat="43.76617" lon="2.96673">
        <ele>629.8</ele>
        <time>2015-07-18T13:21:58Z</time>
      </trkpt>
      <trkpt lat="43.76626" lon="2.96683">
        <ele>629.8</ele>
        <time>2015-07-18T13:21:59Z</time>
      </trkpt>
      <trkpt lat="43.76636" lon="2.96693">
        <ele>629.32</ele>
        <time>2015-07-18T13:22:00Z</time>
      </trkpt>
      <trkpt lat="43.76645" lon="2.96694">
        <ele>628.36</ele>
        <time>2015-07-18T13:22:01Z</time>
      </trkpt>
      <trkpt lat="43.76653" lon="2.9669">
        <ele>626.44</ele>
        <time>2015-07-18T13:22:02Z</time>
      </trkpt>
      <trkpt lat="43.76658" lon="2.96683">
        <ele>624.51</ele>
        <time>2015-07-18T13:22:03Z</time>
      </trkpt>
      <trkpt lat="43.76662" lon="2.96677">
        <ele>622.59</ele>
        <time>2015-07-18T13:22:04Z</time>
      </trkpt>
      <trkpt lat="43.76664" lon="2.96664">
        <ele>620.19</ele>
        <time>2015-07-18T13:22:05Z</time>
      </trkpt>
      <trkpt lat="43.76661" lon="2.96645">
        <ele>619.71</ele>
        <time>2015-07-18T13:22:06Z</time>
      </trkpt>
      <trkpt lat="43.76651" lon="2.96617">
        <ele>621.63</ele>
        <time>2015-07-18T13:22:07Z</time>
      </trkpt>
      <trkpt lat="43.76645" lon="2.96598">
        <ele>621.63</ele>
        <time>2015-07-18T13:22:08Z</time>
      </trkpt>
      <trkpt lat="43.7661" lon="2.96428">
        <ele>613.46</ele>
        <time>2015-07-18T13:22:17Z</time>
      </trkpt>
      <trkpt lat="43.76602" lon="2.9641">
        <ele>611.54</ele>
        <time>2015-07-18T13:22:18Z</time>
      </trkpt>
      <trkpt lat="43.7659" lon="2.96396">
        <ele>610.57</ele>
        <time>2015-07-18T13:22:19Z</time>
      </trkpt>
      <trkpt lat="43.76578" lon="2.96381">
        <ele>609.61</ele>
        <time>2015-07-18T13:22:20Z</time>
      </trkpt>
      <trkpt lat="43.76564" lon="2.96368">
        <ele>608.65</ele>
        <time>2015-07-18T13:22:21Z</time>
      </trkpt>
      <trkpt lat="43.76549" lon="2.96357">
        <ele>607.21</ele>
        <time>2015-07-18T13:22:22Z</time>
      </trkpt>
      <trkpt lat="43.76531" lon="2.96349">
        <ele>606.25</ele>
        <time>2015-07-18T13:22:23Z</time>
      </trkpt>
      <trkpt lat="43.76514" lon="2.96342">
        <ele>605.29</ele>
        <time>2015-07-18T13:22:24Z</time>
      </trkpt>
      <trkpt lat="43.76496" lon="2.96338">
        <ele>604.33</ele>
        <time>2015-07-18T13:22:25Z</time>
      </trkpt>
      <trkpt lat="43.76477" lon="2.96336">
        <ele>603.36</ele>
        <time>2015-07-18T13:22:26Z</time>
      </trkpt>
      <trkpt lat="43.76459" lon="2.96334">
        <ele>602.4</ele>
        <time>2015-07-18T13:22:27Z</time>
      </trkpt>
      <trkpt lat="43.76352" lon="2.96303">
        <ele>594.23</ele>
        <time>2015-07-18T13:22:33Z</time>
      </trkpt>
      <trkpt lat="43.76249" lon="2.96207">
        <ele>583.18</ele>
        <time>2015-07-18T13:22:40Z</time>
      </trkpt>
      <trkpt lat="43.76241" lon="2.96187">
        <ele>581.73</ele>
        <time>2015-07-18T13:22:41Z</time>
      </trkpt>
      <trkpt lat="43.76238" lon="2.96165">
        <ele>580.77</ele>
        <time>2015-07-18T13:22:42Z</time>
      </trkpt>
      <trkpt lat="43.76238" lon="2.96142">
        <ele>579.33</ele>
        <time>2015-07-18T13:22:43Z</time>
      </trkpt>
      <trkpt lat="43.76242" lon="2.96118">
        <ele>576.45</ele>
        <time>2015-07-18T13:22:44Z</time>
      </trkpt>
      <trkpt lat="43.76245" lon="2.96096">
        <ele>574.53</ele>
        <time>2015-07-18T13:22:45Z</time>
      </trkpt>
      <trkpt lat="43.7625" lon="2.96035">
        <ele>571.64</ele>
        <time>2015-07-18T13:22:48Z</time>
      </trkpt>
      <trkpt lat="43.76254" lon="2.96015">
        <ele>571.16</ele>
        <time>2015-07-18T13:22:49Z</time>
      </trkpt>
      <trkpt lat="43.76268" lon="2.95925">
        <ele>567.32</ele>
        <time>2015-07-18T13:22:54Z</time>
      </trkpt>
      <trkpt lat="43.76264" lon="2.95909">
        <ele>566.35</ele>
        <time>2015-07-18T13:22:55Z</time>
      </trkpt>
      <trkpt lat="43.76257" lon="2.95894">
        <ele>565.39</ele>
        <time>2015-07-18T13:22:56Z</time>
      </trkpt>
      <trkpt lat="43.76246" lon="2.95879">
        <ele>564.43</ele>
        <time>2015-07-18T13:22:57Z</time>
      </trkpt>
      <trkpt lat="43.76237" lon="2.95862">
        <ele>563.47</ele>
        <time>2015-07-18T13:22:58Z</time>
      </trkpt>
      <trkpt lat="43.76229" lon="2.95844">
        <ele>562.51</ele>
        <time>2015-07-18T13:22:59Z</time>
      </trkpt>
      <trkpt lat="43.76222" lon="2.95825">
        <ele>561.55</ele>
        <time>2015-07-18T13:23:00Z</time>
      </trkpt>
      <trkpt lat="43.76209" lon="2.95787">
        <ele>559.14</ele>
        <time>2015-07-18T13:23:02Z</time>
      </trkpt>
      <trkpt lat="43.76206" lon="2.95769">
        <ele>558.18</ele>
        <time>2015-07-18T13:23:03Z</time>
      </trkpt>
      <trkpt lat="43.76206" lon="2.9575">
        <ele>556.74</ele>
        <time>2015-07-18T13:23:04Z</time>
      </trkpt>
      <trkpt lat="43.76208" lon="2.95729">
        <ele>555.78</ele>
        <time>2015-07-18T13:23:05Z</time>
      </trkpt>
      <trkpt lat="43.76212" lon="2.95708">
        <ele>554.34</ele>
        <time>2015-07-18T13:23:06Z</time>
      </trkpt>
      <trkpt lat="43.76217" lon="2.95687">
        <ele>552.41</ele>
        <time>2015-07-18T13:23:07Z</time>
      </trkpt>
      <trkpt lat="43.76223" lon="2.95666">
        <ele>551.45</ele>
        <time>2015-07-18T13:23:08Z</time>
      </trkpt>
      <trkpt lat="43.7623" lon="2.95646">
        <ele>550.49</ele>
        <time>2015-07-18T13:23:09Z</time>
      </trkpt>
      <trkpt lat="43.76237" lon="2.95627">
        <ele>549.53</ele>
        <time>2015-07-18T13:23:10Z</time>
      </trkpt>
      <trkpt lat="43.76262" lon="2.95552">
        <ele>545.2</ele>
        <time>2015-07-18T13:23:14Z</time>
      </trkpt>
      <trkpt lat="43.76262" lon="2.95528">
        <ele>544.24</ele>
        <time>2015-07-18T13:23:15Z</time>
      </trkpt>
      <trkpt lat="43.76274" lon="2.95393">
        <ele>537.99</ele>
        <time>2015-07-18T13:23:21Z</time>
      </trkpt>
      <trkpt lat="43.76272" lon="2.95371">
        <ele>536.55</ele>
        <time>2015-07-18T13:23:22Z</time>
      </trkpt>
      <trkpt lat="43.76267" lon="2.95351">
        <ele>535.59</ele>
        <time>2015-07-18T13:23:23Z</time>
      </trkpt>
      <trkpt lat="43.76252" lon="2.9528">
        <ele>531.27</ele>
        <time>2015-07-18T13:23:27Z</time>
      </trkpt>
      <trkpt lat="43.76253" lon="2.95267">
        <ele>530.3</ele>
        <time>2015-07-18T13:23:28Z</time>
      </trkpt>
      <trkpt lat="43.76259" lon="2.95255">
        <ele>529.82</ele>
        <time>2015-07-18T13:23:29Z</time>
      </trkpt>
      <trkpt lat="43.76275" lon="2.95258">
        <ele>529.34</ele>
        <time>2015-07-18T13:23:30Z</time>
      </trkpt>
      <trkpt lat="43.76288" lon="2.95255">
        <ele>529.34</ele>
        <time>2015-07-18T13:23:31Z</time>
      </trkpt>
      <trkpt lat="43.76304" lon="2.95252">
        <ele>528.86</ele>
        <time>2015-07-18T13:23:32Z</time>
      </trkpt>
      <trkpt lat="43.76322" lon="2.95253">
        <ele>528.38</ele>
        <time>2015-07-18T13:23:33Z</time>
      </trkpt>
      <trkpt lat="43.76339" lon="2.9525">
        <ele>528.38</ele>
        <time>2015-07-18T13:23:34Z</time>
      </trkpt>
      <trkpt lat="43.76463" lon="2.9525">
        <ele>522.61</ele>
        <time>2015-07-18T13:23:42Z</time>
      </trkpt>
      <trkpt lat="43.76473" lon="2.95263">
        <ele>521.17</ele>
        <time>2015-07-18T13:23:43Z</time>
      </trkpt>
      <trkpt lat="43.76482" lon="2.95277">
        <ele>519.73</ele>
        <time>2015-07-18T13:23:44Z</time>
      </trkpt>
      <trkpt lat="43.7649" lon="2.95288">
        <ele>519.25</ele>
        <time>2015-07-18T13:23:45Z</time>
      </trkpt>
      <trkpt lat="43.76498" lon="2.95294">
        <ele>519.25</ele>
        <time>2015-07-18T13:23:46Z</time>
      </trkpt>
      <trkpt lat="43.76506" lon="2.95298">
        <ele>518.77</ele>
        <time>2015-07-18T13:23:47Z</time>
      </trkpt>
      <trkpt lat="43.76513" lon="2.95299">
        <ele>517.33</ele>
        <time>2015-07-18T13:23:48Z</time>
      </trkpt>
      <trkpt lat="43.76521" lon="2.95297">
        <ele>516.37</ele>
        <time>2015-07-18T13:23:49Z</time>
      </trkpt>
      <trkpt lat="43.76529" lon="2.95293">
        <ele>515.4</ele>
        <time>2015-07-18T13:23:50Z</time>
      </trkpt>
      <trkpt lat="43.76536" lon="2.95286">
        <ele>514.92</ele>
        <time>2015-07-18T13:23:51Z</time>
      </trkpt>
      <trkpt lat="43.76543" lon="2.95277">
        <ele>514.44</ele>
        <time>2015-07-18T13:23:52Z</time>
      </trkpt>
      <trkpt lat="43.76551" lon="2.95268">
        <ele>513.48</ele>
        <time>2015-07-18T13:23:53Z</time>
      </trkpt>
      <trkpt lat="43.76591" lon="2.95222">
        <ele>508.19</ele>
        <time>2015-07-18T13:23:58Z</time>
      </trkpt>
      <trkpt lat="43.76601" lon="2.95217">
        <ele>507.23</ele>
        <time>2015-07-18T13:23:59Z</time>
      </trkpt>
      <trkpt lat="43.76614" lon="2.95216">
        <ele>507.23</ele>
        <time>2015-07-18T13:24:00Z</time>
      </trkpt>
      <trkpt lat="43.7673" lon="2.95206">
        <ele>499.06</ele>
        <time>2015-07-18T13:24:08Z</time>
      </trkpt>
      <trkpt lat="43.76743" lon="2.95207">
        <ele>497.62</ele>
        <time>2015-07-18T13:24:09Z</time>
      </trkpt>
      <trkpt lat="43.76755" lon="2.95214">
        <ele>496.66</ele>
        <time>2015-07-18T13:24:10Z</time>
      </trkpt>
      <trkpt lat="43.76764" lon="2.95225">
        <ele>495.7</ele>
        <time>2015-07-18T13:24:11Z</time>
      </trkpt>
      <trkpt lat="43.76772" lon="2.95238">
        <ele>494.74</ele>
        <time>2015-07-18T13:24:12Z</time>
      </trkpt>
      <trkpt lat="43.76776" lon="2.95256">
        <ele>493.77</ele>
        <time>2015-07-18T13:24:13Z</time>
      </trkpt>
      <trkpt lat="43.76781" lon="2.95273">
        <ele>492.81</ele>
        <time>2015-07-18T13:24:14Z</time>
      </trkpt>
      <trkpt lat="43.7683" lon="2.95376">
        <ele>487.05</ele>
        <time>2015-07-18T13:24:22Z</time>
      </trkpt>
      <trkpt lat="43.76839" lon="2.9538">
        <ele>486.08</ele>
        <time>2015-07-18T13:24:23Z</time>
      </trkpt>
      <trkpt lat="43.76847" lon="2.95378">
        <ele>485.12</ele>
        <time>2015-07-18T13:24:24Z</time>
      </trkpt>
      <trkpt lat="43.76856" lon="2.95371">
        <ele>484.16</ele>
        <time>2015-07-18T13:24:25Z</time>
      </trkpt>
      <trkpt lat="43.7686" lon="2.95359">
        <ele>483.68</ele>
        <time>2015-07-18T13:24:26Z</time>
      </trkpt>
      <trkpt lat="43.76864" lon="2.95347">
        <ele>483.2</ele>
        <time>2015-07-18T13:24:27Z</time>
      </trkpt>
      <trkpt lat="43.7686" lon="2.95331">
        <ele>482.72</ele>
        <time>2015-07-18T13:24:28Z</time>
      </trkpt>
      <trkpt lat="43.76857" lon="2.95315">
        <ele>482.24</ele>
        <time>2015-07-18T13:24:29Z</time>
      </trkpt>
      <trkpt lat="43.76852" lon="2.95297">
        <ele>481.76</ele>
        <time>2015-07-18T13:24:30Z</time>
      </trkpt>
      <trkpt lat="43.76848" lon="2.9528">
        <ele>480.8</ele>
        <time>2015-07-18T13:24:31Z</time>
      </trkpt>
      <trkpt lat="43.76843" lon="2.95227">
        <ele>476.47</ele>
        <time>2015-07-18T13:24:34Z</time>
      </trkpt>
      <trkpt lat="43.76845" lon="2.9521">
        <ele>475.99</ele>
        <time>2015-07-18T13:24:35Z</time>
      </trkpt>
      <trkpt lat="43.76847" lon="2.95177">
        <ele>473.59</ele>
        <time>2015-07-18T13:24:37Z</time>
      </trkpt>
      <trkpt lat="43.76847" lon="2.9516">
        <ele>471.18</ele>
        <time>2015-07-18T13:24:38Z</time>
      </trkpt>
      <trkpt lat="43.76842" lon="2.95147">
        <ele>471.66</ele>
        <time>2015-07-18T13:24:39Z</time>
      </trkpt>
      <trkpt lat="43.76837" lon="2.95134">
        <ele>470.7</ele>
        <time>2015-07-18T13:24:40Z</time>
      </trkpt>
      <trkpt lat="43.76828" lon="2.95124">
        <ele>469.26</ele>
        <time>2015-07-18T13:24:41Z</time>
      </trkpt>
      <trkpt lat="43.76818" lon="2.95119">
        <ele>468.3</ele>
        <time>2015-07-18T13:24:42Z</time>
      </trkpt>
      <trkpt lat="43.76804" lon="2.9512">
        <ele>468.78</ele>
        <time>2015-07-18T13:24:43Z</time>
      </trkpt>
      <trkpt lat="43.76794" lon="2.95121">
        <ele>467.82</ele>
        <time>2015-07-18T13:24:44Z</time>
      </trkpt>
      <trkpt lat="43.76782" lon="2.95122">
        <ele>467.34</ele>
        <time>2015-07-18T13:24:45Z</time>
      </trkpt>
      <trkpt lat="43.76771" lon="2.95121">
        <ele>466.86</ele>
        <time>2015-07-18T13:24:46Z</time>
      </trkpt>
      <trkpt lat="43.7676" lon="2.95118">
        <ele>465.9</ele>
        <time>2015-07-18T13:24:47Z</time>
      </trkpt>
      <trkpt lat="43.76688" lon="2.95093">
        <ele>462.53</ele>
        <time>2015-07-18T13:24:54Z</time>
      </trkpt>
      <trkpt lat="43.76681" lon="2.95086">
        <ele>461.57</ele>
        <time>2015-07-18T13:24:55Z</time>
      </trkpt>
      <trkpt lat="43.76676" lon="2.95077">
        <ele>460.61</ele>
        <time>2015-07-18T13:24:56Z</time>
      </trkpt>
      <trkpt lat="43.76673" lon="2.95068">
        <ele>459.65</ele>
        <time>2015-07-18T13:24:57Z</time>
      </trkpt>
      <trkpt lat="43.76674" lon="2.95057">
        <ele>459.17</ele>
        <time>2015-07-18T13:24:58Z</time>
      </trkpt>
      <trkpt lat="43.76678" lon="2.95048">
        <ele>458.69</ele>
        <time>2015-07-18T13:24:59Z</time>
      </trkpt>
      <trkpt lat="43.76684" lon="2.95043">
        <ele>458.69</ele>
        <time>2015-07-18T13:25:00Z</time>
      </trkpt>
      <trkpt lat="43.76691" lon="2.95039">
        <ele>458.69</ele>
        <time>2015-07-18T13:25:01Z</time>
      </trkpt>
      <trkpt lat="43.76698" lon="2.95038">
        <ele>458.69</ele>
        <time>2015-07-18T13:25:02Z</time>
      </trkpt>
      <trkpt lat="43.76704" lon="2.95038">
        <ele>457.72</ele>
        <time>2015-07-18T13:25:03Z</time>
      </trkpt>
      <trkpt lat="43.7671" lon="2.95038">
        <ele>458.69</ele>
        <time>2015-07-18T13:25:04Z</time>
      </trkpt>
      <trkpt lat="43.76721" lon="2.95038">
        <ele>458.21</ele>
        <time>2015-07-18T13:25:06Z</time>
      </trkpt>
      <trkpt lat="43.76724" lon="2.95037">
        <ele>458.69</ele>
        <time>2015-07-18T13:25:07Z</time>
      </trkpt>
      <trkpt lat="43.76727" lon="2.95035">
        <ele>460.13</ele>
        <time>2015-07-18T13:25:08Z</time>
      </trkpt>
      <trkpt lat="43.76731" lon="2.95034">
        <ele>459.65</ele>
        <time>2015-07-18T13:25:09Z</time>
      </trkpt>
      <trkpt lat="43.76733" lon="2.95032">
        <ele>459.17</ele>
        <time>2015-07-18T13:25:10Z</time>
      </trkpt>
      <trkpt lat="43.76734" lon="2.9503">
        <ele>458.21</ele>
        <time>2015-07-18T13:25:11Z</time>
      </trkpt>
      <trkpt lat="43.76733" lon="2.95025">
        <ele>456.76</ele>
        <time>2015-07-18T13:25:12Z</time>
      </trkpt>
      <trkpt lat="43.7673" lon="2.9502">
        <ele>455.8</ele>
        <time>2015-07-18T13:25:13Z</time>
      </trkpt>
      <trkpt lat="43.76724" lon="2.95004">
        <ele>456.28</ele>
        <time>2015-07-18T13:25:15Z</time>
      </trkpt>
      <trkpt lat="43.76723" lon="2.94997">
        <ele>456.76</ele>
        <time>2015-07-18T13:25:16Z</time>
      </trkpt>
      <trkpt lat="43.76723" lon="2.94989">
        <ele>456.28</ele>
        <time>2015-07-18T13:25:17Z</time>
      </trkpt>
      <trkpt lat="43.76722" lon="2.94982">
        <ele>456.28</ele>
        <time>2015-07-18T13:25:18Z</time>
      </trkpt>
      <trkpt lat="43.76722" lon="2.94975">
        <ele>456.28</ele>
        <time>2015-07-18T13:25:19Z</time>
      </trkpt>
      <trkpt lat="43.76719" lon="2.94961">
        <ele>456.76</ele>
        <time>2015-07-18T13:25:21Z</time>
      </trkpt>
      <trkpt lat="43.76717" lon="2.94955">
        <ele>456.28</ele>
        <time>2015-07-18T13:25:22Z</time>
      </trkpt>
      <trkpt lat="43.76713" lon="2.94951">
        <ele>455.8</ele>
        <time>2015-07-18T13:25:23Z</time>
      </trkpt>
      <trkpt lat="43.76708" lon="2.94951">
        <ele>455.8</ele>
        <time>2015-07-18T13:25:24Z</time>
      </trkpt>
      <trkpt lat="43.76702" lon="2.94953">
        <ele>455.32</ele>
        <time>2015-07-18T13:25:25Z</time>
      </trkpt>
      <trkpt lat="43.76697" lon="2.94957">
        <ele>454.36</ele>
        <time>2015-07-18T13:25:26Z</time>
      </trkpt>
      <trkpt lat="43.76691" lon="2.94962">
        <ele>454.36</ele>
        <time>2015-07-18T13:25:27Z</time>
      </trkpt>
      <trkpt lat="43.76684" lon="2.94968">
        <ele>454.36</ele>
        <time>2015-07-18T13:25:28Z</time>
      </trkpt>
      <trkpt lat="43.76676" lon="2.94972">
        <ele>454.36</ele>
        <time>2015-07-18T13:25:29Z</time>
      </trkpt>
      <trkpt lat="43.76666" lon="2.94976">
        <ele>454.36</ele>
        <time>2015-07-18T13:25:30Z</time>
      </trkpt>
      <trkpt lat="43.76569" lon="2.95003">
        <ele>458.69</ele>
        <time>2015-07-18T13:25:37Z</time>
      </trkpt>
      <trkpt lat="43.76471" lon="2.95041">
        <ele>461.57</ele>
        <time>2015-07-18T13:25:44Z</time>
      </trkpt>
      <trkpt lat="43.76457" lon="2.95041">
        <ele>461.09</ele>
        <time>2015-07-18T13:25:45Z</time>
      </trkpt>
      <trkpt lat="43.76444" lon="2.9504">
        <ele>461.09</ele>
        <time>2015-07-18T13:25:46Z</time>
      </trkpt>
      <trkpt lat="43.76432" lon="2.95037">
        <ele>461.57</ele>
        <time>2015-07-18T13:25:47Z</time>
      </trkpt>
      <trkpt lat="43.76421" lon="2.95033">
        <ele>462.05</ele>
        <time>2015-07-18T13:25:48Z</time>
      </trkpt>
      <trkpt lat="43.76398" lon="2.95029">
        <ele>462.53</ele>
        <time>2015-07-18T13:25:50Z</time>
      </trkpt>
      <trkpt lat="43.76387" lon="2.9503">
        <ele>463.01</ele>
        <time>2015-07-18T13:25:51Z</time>
      </trkpt>
      <trkpt lat="43.76376" lon="2.95034">
        <ele>463.01</ele>
        <time>2015-07-18T13:25:52Z</time>
      </trkpt>
      <trkpt lat="43.76366" lon="2.95039">
        <ele>463.01</ele>
        <time>2015-07-18T13:25:53Z</time>
      </trkpt>
      <trkpt lat="43.76357" lon="2.95047">
        <ele>463.97</ele>
        <time>2015-07-18T13:25:54Z</time>
      </trkpt>
      <trkpt lat="43.76348" lon="2.95055">
        <ele>463.97</ele>
        <time>2015-07-18T13:25:55Z</time>
      </trkpt>
      <trkpt lat="43.76315" lon="2.95076">
        <ele>464.93</ele>
        <time>2015-07-18T13:25:58Z</time>
      </trkpt>
      <trkpt lat="43.76304" lon="2.95078">
        <ele>464.93</ele>
        <time>2015-07-18T13:25:59Z</time>
      </trkpt>
      <trkpt lat="43.76291" lon="2.95077">
        <ele>465.42</ele>
        <time>2015-07-18T13:26:00Z</time>
      </trkpt>
      <trkpt lat="43.76279" lon="2.95073">
        <ele>464.93</ele>
        <time>2015-07-18T13:26:01Z</time>
      </trkpt>
      <trkpt lat="43.76267" lon="2.95065">
        <ele>465.42</ele>
        <time>2015-07-18T13:26:02Z</time>
      </trkpt>
      <trkpt lat="43.76254" lon="2.95058">
        <ele>465.42</ele>
        <time>2015-07-18T13:26:03Z</time>
      </trkpt>
      <trkpt lat="43.76242" lon="2.95053">
        <ele>465.42</ele>
        <time>2015-07-18T13:26:04Z</time>
      </trkpt>
      <trkpt lat="43.76228" lon="2.95051">
        <ele>464.93</ele>
        <time>2015-07-18T13:26:05Z</time>
      </trkpt>
      <trkpt lat="43.76213" lon="2.95053">
        <ele>464.45</ele>
        <time>2015-07-18T13:26:06Z</time>
      </trkpt>
      <trkpt lat="43.76199" lon="2.9506">
        <ele>464.93</ele>
        <time>2015-07-18T13:26:07Z</time>
      </trkpt>
      <trkpt lat="43.76185" lon="2.95069">
        <ele>464.93</ele>
        <time>2015-07-18T13:26:08Z</time>
      </trkpt>
      <trkpt lat="43.76171" lon="2.95077">
        <ele>465.42</ele>
        <time>2015-07-18T13:26:09Z</time>
      </trkpt>
      <trkpt lat="43.76108" lon="2.95105">
        <ele>463.97</ele>
        <time>2015-07-18T13:26:15Z</time>
      </trkpt>
      <trkpt lat="43.76106" lon="2.95109">
        <ele>464.45</ele>
        <time>2015-07-18T13:26:16Z</time>
      </trkpt>
      <trkpt lat="43.76106" lon="2.95109">
        <ele>465.9</ele>
        <time>2015-07-18T13:26:17Z</time>
      </trkpt>
      <trkpt lat="43.76106" lon="2.95107">
        <ele>464.93</ele>
        <time>2015-07-18T13:26:24Z</time>
      </trkpt>
      <trkpt lat="43.76104" lon="2.95108">
        <ele>465.42</ele>
        <time>2015-07-18T13:26:25Z</time>
      </trkpt>
      <trkpt lat="43.76102" lon="2.95113">
        <ele>467.34</ele>
        <time>2015-07-18T13:26:26Z</time>
      </trkpt>
      <trkpt lat="43.76099" lon="2.95119">
        <ele>467.82</ele>
        <time>2015-07-18T13:26:27Z</time>
      </trkpt>
      <trkpt lat="43.76093" lon="2.95134">
        <ele>471.66</ele>
        <time>2015-07-18T13:26:28Z</time>
      </trkpt>
      <trkpt lat="43.7609" lon="2.95148">
        <ele>472.14</ele>
        <time>2015-07-18T13:26:29Z</time>
      </trkpt>
      <trkpt lat="43.76087" lon="2.95165">
        <ele>473.59</ele>
        <time>2015-07-18T13:26:30Z</time>
      </trkpt>
      <trkpt lat="43.76084" lon="2.9518">
        <ele>474.07</ele>
        <time>2015-07-18T13:26:31Z</time>
      </trkpt>
      <trkpt lat="43.76082" lon="2.95196">
        <ele>474.07</ele>
        <time>2015-07-18T13:26:32Z</time>
      </trkpt>
      <trkpt lat="43.76072" lon="2.95264">
        <ele>471.66</ele>
        <time>2015-07-18T13:26:39Z</time>
      </trkpt>
      <trkpt lat="43.76074" lon="2.95267">
        <ele>470.7</ele>
        <time>2015-07-18T13:26:40Z</time>
      </trkpt>
      <trkpt lat="43.76076" lon="2.95268">
        <ele>470.22</ele>
        <time>2015-07-18T13:26:41Z</time>
      </trkpt>
      <trkpt lat="43.76078" lon="2.95269">
        <ele>469.26</ele>
        <time>2015-07-18T13:26:42Z</time>
      </trkpt>
      <trkpt lat="43.76081" lon="2.95269">
        <ele>468.3</ele>
        <time>2015-07-18T13:26:43Z</time>
      </trkpt>
      <trkpt lat="43.76084" lon="2.95267">
        <ele>467.34</ele>
        <time>2015-07-18T13:26:44Z</time>
      </trkpt>
      <trkpt lat="43.76087" lon="2.95266">
        <ele>466.86</ele>
        <time>2015-07-18T13:26:45Z</time>
      </trkpt>
      <trkpt lat="43.7609" lon="2.95264">
        <ele>466.38</ele>
        <time>2015-07-18T13:26:46Z</time>
      </trkpt>
      <trkpt lat="43.76094" lon="2.95263">
        <ele>465.9</ele>
        <time>2015-07-18T13:26:47Z</time>
      </trkpt>
      <trkpt lat="43.76099" lon="2.95263">
        <ele>465.42</ele>
        <time>2015-07-18T13:26:48Z</time>
      </trkpt>
      <trkpt lat="43.76103" lon="2.95264">
        <ele>464.93</ele>
        <time>2015-07-18T13:26:49Z</time>
      </trkpt>
      <trkpt lat="43.76107" lon="2.95264">
        <ele>463.97</ele>
        <time>2015-07-18T13:26:50Z</time>
      </trkpt>
      <trkpt lat="43.76111" lon="2.95262">
        <ele>463.01</ele>
        <time>2015-07-18T13:26:51Z</time>
      </trkpt>
      <trkpt lat="43.76113" lon="2.9526">
        <ele>462.53</ele>
        <time>2015-07-18T13:26:52Z</time>
      </trkpt>
      <trkpt lat="43.76114" lon="2.95256">
        <ele>461.57</ele>
        <time>2015-07-18T13:26:53Z</time>
      </trkpt>
      <trkpt lat="43.76113" lon="2.95253">
        <ele>461.57</ele>
        <time>2015-07-18T13:26:54Z</time>
      </trkpt>
      <trkpt lat="43.76111" lon="2.9525">
        <ele>460.61</ele>
        <time>2015-07-18T13:26:55Z</time>
      </trkpt>
      <trkpt lat="43.76109" lon="2.95247">
        <ele>461.09</ele>
        <time>2015-07-18T13:26:56Z</time>
      </trkpt>
      <trkpt lat="43.76106" lon="2.95244">
        <ele>461.09</ele>
        <time>2015-07-18T13:26:57Z</time>
      </trkpt>
      <trkpt lat="43.76103" lon="2.9524">
        <ele>461.09</ele>
        <time>2015-07-18T13:26:58Z</time>
      </trkpt>
      <trkpt lat="43.761" lon="2.95235">
        <ele>460.61</ele>
        <time>2015-07-18T13:26:59Z</time>
      </trkpt>
      <trkpt lat="43.76098" lon="2.9523">
        <ele>460.13</ele>
        <time>2015-07-18T13:27:00Z</time>
      </trkpt>
      <trkpt lat="43.76096" lon="2.95225">
        <ele>460.13</ele>
        <time>2015-07-18T13:27:01Z</time>
      </trkpt>
      <trkpt lat="43.76095" lon="2.95221">
        <ele>460.61</ele>
        <time>2015-07-18T13:27:02Z</time>
      </trkpt>
      <trkpt lat="43.76092" lon="2.95209">
        <ele>465.42</ele>
        <time>2015-07-18T13:27:12Z</time>
      </trkpt>
      <trkpt lat="43.76092" lon="2.95205">
        <ele>463.97</ele>
        <time>2015-07-18T13:27:20Z</time>
      </trkpt>
      <trkpt lat="43.76093" lon="2.95203">
        <ele>463.01</ele>
        <time>2015-07-18T13:27:21Z</time>
      </trkpt>
      <trkpt lat="43.76092" lon="2.952">
        <ele>462.53</ele>
        <time>2015-07-18T13:27:24Z</time>
      </trkpt>
      <trkpt lat="43.76094" lon="2.95219">
        <ele>460.61</ele>
        <time>2015-07-18T13:27:32Z</time>
      </trkpt>
      <trkpt lat="43.76096" lon="2.95225">
        <ele>460.61</ele>
        <time>2015-07-18T13:27:33Z</time>
      </trkpt>
      <trkpt lat="43.76111" lon="2.95248">
        <ele>459.65</ele>
        <time>2015-07-18T13:27:42Z</time>
      </trkpt>
      <trkpt lat="43.76112" lon="2.95248">
        <ele>458.69</ele>
        <time>2015-07-18T13:27:43Z</time>
      </trkpt>
      <trkpt lat="43.76118" lon="2.95242">
        <ele>461.09</ele>
        <time>2015-07-18T13:27:57Z</time>
      </trkpt>
      <trkpt lat="43.76127" lon="2.95234">
        <ele>462.05</ele>
        <time>2015-07-18T13:28:09Z</time>
      </trkpt>
      <trkpt lat="43.76133" lon="2.95245">
        <ele>462.05</ele>
        <time>2015-07-18T13:28:24Z</time>
      </trkpt>
      <trkpt lat="43.76134" lon="2.95248">
        <ele>458.21</ele>
        <time>2015-07-18T13:30:08Z</time>
      </trkpt>
      <trkpt lat="43.76128" lon="2.95245">
        <ele>458.21</ele>
        <time>2015-07-18T13:30:16Z</time>
      </trkpt>
      <trkpt lat="43.76125" lon="2.95201">
        <ele>460.61</ele>
        <time>2015-07-18T13:30:32Z</time>
      </trkpt>
      <trkpt lat="43.76122" lon="2.9518">
        <ele>456.76</ele>
        <time>2015-07-18T13:30:45Z</time>
      </trkpt>
      <trkpt lat="43.76121" lon="2.95176">
        <ele>451</ele>
        <time>2015-07-18T13:31:04Z</time>
      </trkpt>
      <trkpt lat="43.76121" lon="2.95177">
        <ele>451.48</ele>
        <time>2015-07-18T13:31:08Z</time>
      </trkpt>
      <trkpt lat="43.76109" lon="2.95159">
        <ele>451</ele>
        <time>2015-07-18T14:37:16Z</time>
      </trkpt>
      <trkpt lat="43.76121" lon="2.95188">
        <ele>476.47</ele>
        <time>2015-07-18T14:37:57Z</time>
      </trkpt>
      <trkpt lat="43.76123" lon="2.95185">
        <ele>475.99</ele>
        <time>2015-07-18T14:38:05Z</time>
      </trkpt>
      <trkpt lat="43.76125" lon="2.95179">
        <ele>473.59</ele>
        <time>2015-07-18T14:38:10Z</time>
      </trkpt>
      <trkpt lat="43.76122" lon="2.95177">
        <ele>470.7</ele>
        <time>2015-07-18T14:38:17Z</time>
      </trkpt>
      <trkpt lat="43.76121" lon="2.9518">
        <ele>468.78</ele>
        <time>2015-07-18T14:38:19Z</time>
      </trkpt>
      <trkpt lat="43.76121" lon="2.95182">
        <ele>465.9</ele>
        <time>2015-07-18T14:38:21Z</time>
      </trkpt>
      <trkpt lat="43.7613" lon="2.95197">
        <ele>466.86</ele>
        <time>2015-07-18T14:38:35Z</time>
      </trkpt>
      <trkpt lat="43.76135" lon="2.95218">
        <ele>461.57</ele>
        <time>2015-07-18T14:40:20Z</time>
      </trkpt>
      <trkpt lat="43.76118" lon="2.95252">
        <ele>461.09</ele>
        <time>2015-07-18T14:40:32Z</time>
      </trkpt>
      <trkpt lat="43.76117" lon="2.95256">
        <ele>461.09</ele>
        <time>2015-07-18T14:40:33Z</time>
      </trkpt>
      <trkpt lat="43.76106" lon="2.95262">
        <ele>462.05</ele>
        <time>2015-07-18T14:40:37Z</time>
      </trkpt>
      <trkpt lat="43.76086" lon="2.95264">
        <ele>463.97</ele>
        <time>2015-07-18T14:40:42Z</time>
      </trkpt>
      <trkpt lat="43.76082" lon="2.95263">
        <ele>463.97</ele>
        <time>2015-07-18T14:40:43Z</time>
      </trkpt>
      <trkpt lat="43.76079" lon="2.95261">
        <ele>464.45</ele>
        <time>2015-07-18T14:40:44Z</time>
      </trkpt>
      <trkpt lat="43.76078" lon="2.95258">
        <ele>464.45</ele>
        <time>2015-07-18T14:40:45Z</time>
      </trkpt>
      <trkpt lat="43.76077" lon="2.95252">
        <ele>464.45</ele>
        <time>2015-07-18T14:40:46Z</time>
      </trkpt>
      <trkpt lat="43.76078" lon="2.95244">
        <ele>464.45</ele>
        <time>2015-07-18T14:40:47Z</time>
      </trkpt>
      <trkpt lat="43.7608" lon="2.95233">
        <ele>464.45</ele>
        <time>2015-07-18T14:40:48Z</time>
      </trkpt>
      <trkpt lat="43.76098" lon="2.9513">
        <ele>464.45</ele>
        <time>2015-07-18T14:40:56Z</time>
      </trkpt>
      <trkpt lat="43.76102" lon="2.95117">
        <ele>465.42</ele>
        <time>2015-07-18T14:40:57Z</time>
      </trkpt>
      <trkpt lat="43.7611" lon="2.95106">
        <ele>465.9</ele>
        <time>2015-07-18T14:40:58Z</time>
      </trkpt>
      <trkpt lat="43.76124" lon="2.95098">
        <ele>465.42</ele>
        <time>2015-07-18T14:40:59Z</time>
      </trkpt>
      <trkpt lat="43.76139" lon="2.95091">
        <ele>464.93</ele>
        <time>2015-07-18T14:41:00Z</time>
      </trkpt>
      <trkpt lat="43.7615" lon="2.95085">
        <ele>464.93</ele>
        <time>2015-07-18T14:41:01Z</time>
      </trkpt>
      <trkpt lat="43.76161" lon="2.9508">
        <ele>465.42</ele>
        <time>2015-07-18T14:41:02Z</time>
      </trkpt>
      <trkpt lat="43.76171" lon="2.95075">
        <ele>466.38</ele>
        <time>2015-07-18T14:41:03Z</time>
      </trkpt>
      <trkpt lat="43.76229" lon="2.95052">
        <ele>468.3</ele>
        <time>2015-07-18T14:41:09Z</time>
      </trkpt>
      <trkpt lat="43.76238" lon="2.95051">
        <ele>467.82</ele>
        <time>2015-07-18T14:41:10Z</time>
      </trkpt>
      <trkpt lat="43.76249" lon="2.95052">
        <ele>467.82</ele>
        <time>2015-07-18T14:41:11Z</time>
      </trkpt>
      <trkpt lat="43.76259" lon="2.95056">
        <ele>466.86</ele>
        <time>2015-07-18T14:41:12Z</time>
      </trkpt>
      <trkpt lat="43.76269" lon="2.9506">
        <ele>465.9</ele>
        <time>2015-07-18T14:41:13Z</time>
      </trkpt>
      <trkpt lat="43.76279" lon="2.95067">
        <ele>467.34</ele>
        <time>2015-07-18T14:41:14Z</time>
      </trkpt>
      <trkpt lat="43.763" lon="2.95075">
        <ele>467.34</ele>
        <time>2015-07-18T14:41:16Z</time>
      </trkpt>
      <trkpt lat="43.76311" lon="2.95075">
        <ele>466.38</ele>
        <time>2015-07-18T14:41:17Z</time>
      </trkpt>
      <trkpt lat="43.76323" lon="2.95074">
        <ele>465.9</ele>
        <time>2015-07-18T14:41:18Z</time>
      </trkpt>
      <trkpt lat="43.76335" lon="2.9507">
        <ele>465.9</ele>
        <time>2015-07-18T14:41:19Z</time>
      </trkpt>
      <trkpt lat="43.76346" lon="2.95063">
        <ele>465.42</ele>
        <time>2015-07-18T14:41:20Z</time>
      </trkpt>
      <trkpt lat="43.76355" lon="2.95054">
        <ele>464.93</ele>
        <time>2015-07-18T14:41:21Z</time>
      </trkpt>
      <trkpt lat="43.76365" lon="2.95045">
        <ele>464.45</ele>
        <time>2015-07-18T14:41:22Z</time>
      </trkpt>
      <trkpt lat="43.76375" lon="2.95037">
        <ele>463.97</ele>
        <time>2015-07-18T14:41:23Z</time>
      </trkpt>
      <trkpt lat="43.76386" lon="2.9503">
        <ele>464.45</ele>
        <time>2015-07-18T14:41:24Z</time>
      </trkpt>
      <trkpt lat="43.76396" lon="2.95026">
        <ele>464.45</ele>
        <time>2015-07-18T14:41:25Z</time>
      </trkpt>
      <trkpt lat="43.76408" lon="2.95025">
        <ele>463.97</ele>
        <time>2015-07-18T14:41:26Z</time>
      </trkpt>
      <trkpt lat="43.7642" lon="2.95027">
        <ele>463.49</ele>
        <time>2015-07-18T14:41:27Z</time>
      </trkpt>
      <trkpt lat="43.76432" lon="2.9503">
        <ele>463.01</ele>
        <time>2015-07-18T14:41:28Z</time>
      </trkpt>
      <trkpt lat="43.76443" lon="2.95034">
        <ele>463.01</ele>
        <time>2015-07-18T14:41:29Z</time>
      </trkpt>
      <trkpt lat="43.76467" lon="2.95039">
        <ele>462.05</ele>
        <time>2015-07-18T14:41:31Z</time>
      </trkpt>
      <trkpt lat="43.76479" lon="2.95039">
        <ele>461.57</ele>
        <time>2015-07-18T14:41:32Z</time>
      </trkpt>
      <trkpt lat="43.76491" lon="2.95038">
        <ele>461.57</ele>
        <time>2015-07-18T14:41:33Z</time>
      </trkpt>
      <trkpt lat="43.76502" lon="2.95035">
        <ele>461.09</ele>
        <time>2015-07-18T14:41:34Z</time>
      </trkpt>
      <trkpt lat="43.76513" lon="2.9503">
        <ele>461.09</ele>
        <time>2015-07-18T14:41:35Z</time>
      </trkpt>
      <trkpt lat="43.76523" lon="2.95025">
        <ele>461.09</ele>
        <time>2015-07-18T14:41:36Z</time>
      </trkpt>
      <trkpt lat="43.76534" lon="2.9502">
        <ele>460.61</ele>
        <time>2015-07-18T14:41:37Z</time>
      </trkpt>
      <trkpt lat="43.7664" lon="2.94987">
        <ele>459.17</ele>
        <time>2015-07-18T14:41:46Z</time>
      </trkpt>
      <trkpt lat="43.76692" lon="2.94972">
        <ele>458.69</ele>
        <time>2015-07-18T14:41:52Z</time>
      </trkpt>
      <trkpt lat="43.76699" lon="2.94969">
        <ele>459.17</ele>
        <time>2015-07-18T14:41:53Z</time>
      </trkpt>
      <trkpt lat="43.76719" lon="2.94956">
        <ele>457.24</ele>
        <time>2015-07-18T14:41:58Z</time>
      </trkpt>
      <trkpt lat="43.76723" lon="2.94958">
        <ele>457.24</ele>
        <time>2015-07-18T14:41:59Z</time>
      </trkpt>
      <trkpt lat="43.76726" lon="2.94963">
        <ele>458.69</ele>
        <time>2015-07-18T14:42:00Z</time>
      </trkpt>
      <trkpt lat="43.76728" lon="2.9497">
        <ele>458.69</ele>
        <time>2015-07-18T14:42:01Z</time>
      </trkpt>
      <trkpt lat="43.76729" lon="2.94979">
        <ele>458.69</ele>
        <time>2015-07-18T14:42:02Z</time>
      </trkpt>
      <trkpt lat="43.7673" lon="2.94989">
        <ele>458.69</ele>
        <time>2015-07-18T14:42:03Z</time>
      </trkpt>
      <trkpt lat="43.76733" lon="2.95037">
        <ele>459.17</ele>
        <time>2015-07-18T14:42:11Z</time>
      </trkpt>
      <trkpt lat="43.76735" lon="2.9504">
        <ele>459.65</ele>
        <time>2015-07-18T14:42:12Z</time>
      </trkpt>
      <trkpt lat="43.76738" lon="2.95043">
        <ele>460.61</ele>
        <time>2015-07-18T14:42:13Z</time>
      </trkpt>
      <trkpt lat="43.76742" lon="2.95045">
        <ele>461.57</ele>
        <time>2015-07-18T14:42:14Z</time>
      </trkpt>
      <trkpt lat="43.76748" lon="2.95045">
        <ele>462.05</ele>
        <time>2015-07-18T14:42:15Z</time>
      </trkpt>
      <trkpt lat="43.76754" lon="2.95047">
        <ele>463.97</ele>
        <time>2015-07-18T14:42:16Z</time>
      </trkpt>
      <trkpt lat="43.76759" lon="2.95046">
        <ele>464.93</ele>
        <time>2015-07-18T14:42:17Z</time>
      </trkpt>
      <trkpt lat="43.76784" lon="2.95047">
        <ele>468.3</ele>
        <time>2015-07-18T14:42:21Z</time>
      </trkpt>
      <trkpt lat="43.76816" lon="2.95042">
        <ele>471.18</ele>
        <time>2015-07-18T14:42:25Z</time>
      </trkpt>
      <trkpt lat="43.76824" lon="2.95039">
        <ele>471.18</ele>
        <time>2015-07-18T14:42:26Z</time>
      </trkpt>
      <trkpt lat="43.76919" lon="2.95003">
        <ele>470.22</ele>
        <time>2015-07-18T14:42:34Z</time>
      </trkpt>
      <trkpt lat="43.77039" lon="2.94957">
        <ele>463.49</ele>
        <time>2015-07-18T14:42:43Z</time>
      </trkpt>
      <trkpt lat="43.77052" lon="2.94948">
        <ele>463.01</ele>
        <time>2015-07-18T14:42:44Z</time>
      </trkpt>
      <trkpt lat="43.77065" lon="2.94936">
        <ele>462.05</ele>
        <time>2015-07-18T14:42:45Z</time>
      </trkpt>
      <trkpt lat="43.77078" lon="2.94921">
        <ele>461.57</ele>
        <time>2015-07-18T14:42:46Z</time>
      </trkpt>
      <trkpt lat="43.77091" lon="2.94905">
        <ele>461.57</ele>
        <time>2015-07-18T14:42:47Z</time>
      </trkpt>
      <trkpt lat="43.77161" lon="2.94787">
        <ele>460.61</ele>
        <time>2015-07-18T14:42:53Z</time>
      </trkpt>
      <trkpt lat="43.77248" lon="2.9461">
        <ele>460.13</ele>
        <time>2015-07-18T14:43:01Z</time>
      </trkpt>
      <trkpt lat="43.77402" lon="2.94366">
        <ele>456.28</ele>
        <time>2015-07-18T14:43:13Z</time>
      </trkpt>
      <trkpt lat="43.77417" lon="2.94349">
        <ele>456.28</ele>
        <time>2015-07-18T14:43:14Z</time>
      </trkpt>
      <trkpt lat="43.77435" lon="2.94333">
        <ele>456.76</ele>
        <time>2015-07-18T14:43:15Z</time>
      </trkpt>
      <trkpt lat="43.77453" lon="2.9432">
        <ele>456.76</ele>
        <time>2015-07-18T14:43:16Z</time>
      </trkpt>
      <trkpt lat="43.77558" lon="2.94239">
        <ele>455.8</ele>
        <time>2015-07-18T14:43:23Z</time>
      </trkpt>
      <trkpt lat="43.77563" lon="2.94226">
        <ele>455.8</ele>
        <time>2015-07-18T14:43:24Z</time>
      </trkpt>
      <trkpt lat="43.77565" lon="2.94212">
        <ele>455.32</ele>
        <time>2015-07-18T14:43:25Z</time>
      </trkpt>
      <trkpt lat="43.77562" lon="2.94196">
        <ele>454.84</ele>
        <time>2015-07-18T14:43:26Z</time>
      </trkpt>
      <trkpt lat="43.77561" lon="2.94178">
        <ele>455.32</ele>
        <time>2015-07-18T14:43:27Z</time>
      </trkpt>
      <trkpt lat="43.7756" lon="2.9416">
        <ele>455.32</ele>
        <time>2015-07-18T14:43:28Z</time>
      </trkpt>
      <trkpt lat="43.77563" lon="2.94125">
        <ele>453.88</ele>
        <time>2015-07-18T14:43:30Z</time>
      </trkpt>
      <trkpt lat="43.77566" lon="2.94108">
        <ele>452.92</ele>
        <time>2015-07-18T14:43:31Z</time>
      </trkpt>
      <trkpt lat="43.77572" lon="2.94091">
        <ele>452.44</ele>
        <time>2015-07-18T14:43:32Z</time>
      </trkpt>
      <trkpt lat="43.77579" lon="2.94075">
        <ele>451.96</ele>
        <time>2015-07-18T14:43:33Z</time>
      </trkpt>
      <trkpt lat="43.77588" lon="2.9406">
        <ele>451.48</ele>
        <time>2015-07-18T14:43:34Z</time>
      </trkpt>
      <trkpt lat="43.77598" lon="2.94047">
        <ele>450.52</ele>
        <time>2015-07-18T14:43:35Z</time>
      </trkpt>
      <trkpt lat="43.77608" lon="2.94034">
        <ele>450.03</ele>
        <time>2015-07-18T14:43:36Z</time>
      </trkpt>
      <trkpt lat="43.77689" lon="2.93929">
        <ele>448.59</ele>
        <time>2015-07-18T14:43:43Z</time>
      </trkpt>
      <trkpt lat="43.77773" lon="2.9379">
        <ele>448.11</ele>
        <time>2015-07-18T14:43:51Z</time>
      </trkpt>
      <trkpt lat="43.77785" lon="2.93774">
        <ele>447.63</ele>
        <time>2015-07-18T14:43:52Z</time>
      </trkpt>
      <trkpt lat="43.77798" lon="2.93759">
        <ele>447.15</ele>
        <time>2015-07-18T14:43:53Z</time>
      </trkpt>
      <trkpt lat="43.77812" lon="2.93747">
        <ele>447.15</ele>
        <time>2015-07-18T14:43:54Z</time>
      </trkpt>
      <trkpt lat="43.77897" lon="2.93671">
        <ele>445.71</ele>
        <time>2015-07-18T14:44:00Z</time>
      </trkpt>
      <trkpt lat="43.77909" lon="2.93651">
        <ele>445.71</ele>
        <time>2015-07-18T14:44:01Z</time>
      </trkpt>
      <trkpt lat="43.77993" lon="2.93524">
        <ele>446.19</ele>
        <time>2015-07-18T14:44:08Z</time>
      </trkpt>
      <trkpt lat="43.7801" lon="2.93513">
        <ele>446.67</ele>
        <time>2015-07-18T14:44:09Z</time>
      </trkpt>
      <trkpt lat="43.78028" lon="2.93511">
        <ele>446.67</ele>
        <time>2015-07-18T14:44:10Z</time>
      </trkpt>
      <trkpt lat="43.78048" lon="2.9351">
        <ele>447.63</ele>
        <time>2015-07-18T14:44:11Z</time>
      </trkpt>
      <trkpt lat="43.7807" lon="2.93513">
        <ele>448.11</ele>
        <time>2015-07-18T14:44:12Z</time>
      </trkpt>
      <trkpt lat="43.78093" lon="2.93518">
        <ele>448.59</ele>
        <time>2015-07-18T14:44:13Z</time>
      </trkpt>
      <trkpt lat="43.78115" lon="2.93523">
        <ele>449.07</ele>
        <time>2015-07-18T14:44:14Z</time>
      </trkpt>
      <trkpt lat="43.78296" lon="2.93589">
        <ele>450.03</ele>
        <time>2015-07-18T14:44:22Z</time>
      </trkpt>
      <trkpt lat="43.78576" lon="2.93725">
        <ele>445.71</ele>
        <time>2015-07-18T14:44:34Z</time>
      </trkpt>
      <trkpt lat="43.78696" lon="2.9385">
        <ele>447.63</ele>
        <time>2015-07-18T14:44:40Z</time>
      </trkpt>
      <trkpt lat="43.788" lon="2.93927">
        <ele>446.67</ele>
        <time>2015-07-18T14:44:46Z</time>
      </trkpt>
      <trkpt lat="43.78816" lon="2.93934">
        <ele>446.67</ele>
        <time>2015-07-18T14:44:47Z</time>
      </trkpt>
      <trkpt lat="43.78832" lon="2.93932">
        <ele>446.19</ele>
        <time>2015-07-18T14:44:48Z</time>
      </trkpt>
      <trkpt lat="43.78845" lon="2.93923">
        <ele>444.75</ele>
        <time>2015-07-18T14:44:49Z</time>
      </trkpt>
      <trkpt lat="43.7886" lon="2.93908">
        <ele>444.27</ele>
        <time>2015-07-18T14:44:50Z</time>
      </trkpt>
      <trkpt lat="43.78874" lon="2.93891">
        <ele>444.27</ele>
        <time>2015-07-18T14:44:51Z</time>
      </trkpt>
      <trkpt lat="43.78886" lon="2.9387">
        <ele>444.27</ele>
        <time>2015-07-18T14:44:52Z</time>
      </trkpt>
      <trkpt lat="43.78901" lon="2.9385">
        <ele>444.27</ele>
        <time>2015-07-18T14:44:53Z</time>
      </trkpt>
      <trkpt lat="43.7898" lon="2.9376">
        <ele>443.79</ele>
        <time>2015-07-18T14:44:58Z</time>
      </trkpt>
      <trkpt lat="43.79002" lon="2.93747">
        <ele>443.31</ele>
        <time>2015-07-18T14:44:59Z</time>
      </trkpt>
      <trkpt lat="43.79022" lon="2.93746">
        <ele>443.79</ele>
        <time>2015-07-18T14:45:00Z</time>
      </trkpt>
      <trkpt lat="43.79045" lon="2.93749">
        <ele>442.34</ele>
        <time>2015-07-18T14:45:01Z</time>
      </trkpt>
      <trkpt lat="43.79066" lon="2.93756">
        <ele>441.38</ele>
        <time>2015-07-18T14:45:02Z</time>
      </trkpt>
      <trkpt lat="43.79087" lon="2.93766">
        <ele>440.9</ele>
        <time>2015-07-18T14:45:03Z</time>
      </trkpt>
      <trkpt lat="43.79108" lon="2.93779">
        <ele>441.86</ele>
        <time>2015-07-18T14:45:04Z</time>
      </trkpt>
      <trkpt lat="43.79129" lon="2.93789">
        <ele>441.86</ele>
        <time>2015-07-18T14:45:05Z</time>
      </trkpt>
      <trkpt lat="43.79151" lon="2.93795">
        <ele>441.38</ele>
        <time>2015-07-18T14:45:06Z</time>
      </trkpt>
      <trkpt lat="43.79173" lon="2.93801">
        <ele>442.34</ele>
        <time>2015-07-18T14:45:07Z</time>
      </trkpt>
      <trkpt lat="43.79196" lon="2.93802">
        <ele>442.82</ele>
        <time>2015-07-18T14:45:08Z</time>
      </trkpt>
      <trkpt lat="43.79347" lon="2.93829">
        <ele>440.9</ele>
        <time>2015-07-18T14:45:15Z</time>
      </trkpt>
      <trkpt lat="43.79366" lon="2.93845">
        <ele>440.9</ele>
        <time>2015-07-18T14:45:16Z</time>
      </trkpt>
      <trkpt lat="43.79385" lon="2.93865">
        <ele>440.42</ele>
        <time>2015-07-18T14:45:17Z</time>
      </trkpt>
      <trkpt lat="43.79455" lon="2.93946">
        <ele>440.42</ele>
        <time>2015-07-18T14:45:21Z</time>
      </trkpt>
      <trkpt lat="43.79469" lon="2.9397">
        <ele>440.9</ele>
        <time>2015-07-18T14:45:22Z</time>
      </trkpt>
      <trkpt lat="43.79546" lon="2.94086">
        <ele>442.82</ele>
        <time>2015-07-18T14:45:28Z</time>
      </trkpt>
      <trkpt lat="43.79559" lon="2.94097">
        <ele>442.34</ele>
        <time>2015-07-18T14:45:29Z</time>
      </trkpt>
      <trkpt lat="43.79573" lon="2.94101">
        <ele>441.86</ele>
        <time>2015-07-18T14:45:30Z</time>
      </trkpt>
      <trkpt lat="43.79587" lon="2.941">
        <ele>440.9</ele>
        <time>2015-07-18T14:45:31Z</time>
      </trkpt>
      <trkpt lat="43.79603" lon="2.94091">
        <ele>440.9</ele>
        <time>2015-07-18T14:45:32Z</time>
      </trkpt>
      <trkpt lat="43.79619" lon="2.94077">
        <ele>440.42</ele>
        <time>2015-07-18T14:45:33Z</time>
      </trkpt>
      <trkpt lat="43.79631" lon="2.94056">
        <ele>439.46</ele>
        <time>2015-07-18T14:45:34Z</time>
      </trkpt>
      <trkpt lat="43.79645" lon="2.94035">
        <ele>438.5</ele>
        <time>2015-07-18T14:45:35Z</time>
      </trkpt>
      <trkpt lat="43.79678" lon="2.93997">
        <ele>437.54</ele>
        <time>2015-07-18T14:45:37Z</time>
      </trkpt>
      <trkpt lat="43.79697" lon="2.93982">
        <ele>436.1</ele>
        <time>2015-07-18T14:45:38Z</time>
      </trkpt>
      <trkpt lat="43.79829" lon="2.93897">
        <ele>428.4</ele>
        <time>2015-07-18T14:45:46Z</time>
      </trkpt>
      <trkpt lat="43.7988" lon="2.93884">
        <ele>424.08</ele>
        <time>2015-07-18T14:45:51Z</time>
      </trkpt>
      <trkpt lat="43.79886" lon="2.93885">
        <ele>424.08</ele>
        <time>2015-07-18T14:45:52Z</time>
      </trkpt>
      <trkpt lat="43.79891" lon="2.93887">
        <ele>424.08</ele>
        <time>2015-07-18T14:45:53Z</time>
      </trkpt>
      <trkpt lat="43.79896" lon="2.9389">
        <ele>424.08</ele>
        <time>2015-07-18T14:45:54Z</time>
      </trkpt>
      <trkpt lat="43.79901" lon="2.93896">
        <ele>423.6</ele>
        <time>2015-07-18T14:45:55Z</time>
      </trkpt>
      <trkpt lat="43.79905" lon="2.93904">
        <ele>424.08</ele>
        <time>2015-07-18T14:45:56Z</time>
      </trkpt>
      <trkpt lat="43.79908" lon="2.93917">
        <ele>424.08</ele>
        <time>2015-07-18T14:45:57Z</time>
      </trkpt>
      <trkpt lat="43.7991" lon="2.93933">
        <ele>424.08</ele>
        <time>2015-07-18T14:45:58Z</time>
      </trkpt>
      <trkpt lat="43.79912" lon="2.93952">
        <ele>424.56</ele>
        <time>2015-07-18T14:45:59Z</time>
      </trkpt>
      <trkpt lat="43.79931" lon="2.94116">
        <ele>426.48</ele>
        <time>2015-07-18T14:46:06Z</time>
      </trkpt>
      <trkpt lat="43.79935" lon="2.94138">
        <ele>426.48</ele>
        <time>2015-07-18T14:46:07Z</time>
      </trkpt>
      <trkpt lat="43.79942" lon="2.94158">
        <ele>426.96</ele>
        <time>2015-07-18T14:46:08Z</time>
      </trkpt>
      <trkpt lat="43.79951" lon="2.94176">
        <ele>426.96</ele>
        <time>2015-07-18T14:46:09Z</time>
      </trkpt>
      <trkpt lat="43.79982" lon="2.94225">
        <ele>427.44</ele>
        <time>2015-07-18T14:46:13Z</time>
      </trkpt>
      <trkpt lat="43.79992" lon="2.94227">
        <ele>426.96</ele>
        <time>2015-07-18T14:46:14Z</time>
      </trkpt>
      <trkpt lat="43.80004" lon="2.94225">
        <ele>427.44</ele>
        <time>2015-07-18T14:46:15Z</time>
      </trkpt>
      <trkpt lat="43.80014" lon="2.9422">
        <ele>427.44</ele>
        <time>2015-07-18T14:46:16Z</time>
      </trkpt>
      <trkpt lat="43.80024" lon="2.94212">
        <ele>427.44</ele>
        <time>2015-07-18T14:46:17Z</time>
      </trkpt>
      <trkpt lat="43.80036" lon="2.94198">
        <ele>427.92</ele>
        <time>2015-07-18T14:46:18Z</time>
      </trkpt>
      <trkpt lat="43.80047" lon="2.94187">
        <ele>428.4</ele>
        <time>2015-07-18T14:46:19Z</time>
      </trkpt>
      <trkpt lat="43.8009" lon="2.94167">
        <ele>429.85</ele>
        <time>2015-07-18T14:46:22Z</time>
      </trkpt>
      <trkpt lat="43.80106" lon="2.94166">
        <ele>430.33</ele>
        <time>2015-07-18T14:46:23Z</time>
      </trkpt>
      <trkpt lat="43.80119" lon="2.94165">
        <ele>431.77</ele>
        <time>2015-07-18T14:46:24Z</time>
      </trkpt>
      <trkpt lat="43.80136" lon="2.94167">
        <ele>432.73</ele>
        <time>2015-07-18T14:46:25Z</time>
      </trkpt>
      <trkpt lat="43.80153" lon="2.94174">
        <ele>434.17</ele>
        <time>2015-07-18T14:46:26Z</time>
      </trkpt>
      <trkpt lat="43.80169" lon="2.94182">
        <ele>435.61</ele>
        <time>2015-07-18T14:46:27Z</time>
      </trkpt>
      <trkpt lat="43.80184" lon="2.94194">
        <ele>436.1</ele>
        <time>2015-07-18T14:46:28Z</time>
      </trkpt>
      <trkpt lat="43.80197" lon="2.94214">
        <ele>435.61</ele>
        <time>2015-07-18T14:46:29Z</time>
      </trkpt>
      <trkpt lat="43.8021" lon="2.94232">
        <ele>436.58</ele>
        <time>2015-07-18T14:46:30Z</time>
      </trkpt>
      <trkpt lat="43.80223" lon="2.94252">
        <ele>438.98</ele>
        <time>2015-07-18T14:46:31Z</time>
      </trkpt>
      <trkpt lat="43.80232" lon="2.94274">
        <ele>440.9</ele>
        <time>2015-07-18T14:46:32Z</time>
      </trkpt>
      <trkpt lat="43.80241" lon="2.94296">
        <ele>441.86</ele>
        <time>2015-07-18T14:46:33Z</time>
      </trkpt>
      <trkpt lat="43.80248" lon="2.94319">
        <ele>442.82</ele>
        <time>2015-07-18T14:46:34Z</time>
      </trkpt>
      <trkpt lat="43.80253" lon="2.9434">
        <ele>443.31</ele>
        <time>2015-07-18T14:46:35Z</time>
      </trkpt>
      <trkpt lat="43.80272" lon="2.94442">
        <ele>449.55</ele>
        <time>2015-07-18T14:46:41Z</time>
      </trkpt>
      <trkpt lat="43.80269" lon="2.94459">
        <ele>450.52</ele>
        <time>2015-07-18T14:46:42Z</time>
      </trkpt>
      <trkpt lat="43.80263" lon="2.94587">
        <ele>455.8</ele>
        <time>2015-07-18T14:46:50Z</time>
      </trkpt>
      <trkpt lat="43.80265" lon="2.94691">
        <ele>458.69</ele>
        <time>2015-07-18T14:46:58Z</time>
      </trkpt>
      <trkpt lat="43.80265" lon="2.94737">
        <ele>455.32</ele>
        <time>2015-07-18T14:47:08Z</time>
      </trkpt>
      <trkpt lat="43.80273" lon="2.94746">
        <ele>455.32</ele>
        <time>2015-07-18T14:47:12Z</time>
      </trkpt>
      <trkpt lat="43.80276" lon="2.94747">
        <ele>455.32</ele>
        <time>2015-07-18T14:47:13Z</time>
      </trkpt>
      <trkpt lat="43.80281" lon="2.94745">
        <ele>455.32</ele>
        <time>2015-07-18T14:47:14Z</time>
      </trkpt>
      <trkpt lat="43.80288" lon="2.94743">
        <ele>454.84</ele>
        <time>2015-07-18T14:47:15Z</time>
      </trkpt>
      <trkpt lat="43.80296" lon="2.9474">
        <ele>454.36</ele>
        <time>2015-07-18T14:47:16Z</time>
      </trkpt>
      <trkpt lat="43.80352" lon="2.94729">
        <ele>450.52</ele>
        <time>2015-07-18T14:47:23Z</time>
      </trkpt>
      <trkpt lat="43.80369" lon="2.94731">
        <ele>451</ele>
        <time>2015-07-18T14:47:25Z</time>
      </trkpt>
      <trkpt lat="43.8038" lon="2.94737">
        <ele>450.52</ele>
        <time>2015-07-18T14:47:26Z</time>
      </trkpt>
      <trkpt lat="43.80391" lon="2.94743">
        <ele>450.03</ele>
        <time>2015-07-18T14:47:27Z</time>
      </trkpt>
      <trkpt lat="43.80401" lon="2.94751">
        <ele>449.07</ele>
        <time>2015-07-18T14:47:28Z</time>
      </trkpt>
      <trkpt lat="43.8041" lon="2.9476">
        <ele>448.11</ele>
        <time>2015-07-18T14:47:29Z</time>
      </trkpt>
      <trkpt lat="43.80417" lon="2.94772">
        <ele>446.67</ele>
        <time>2015-07-18T14:47:30Z</time>
      </trkpt>
      <trkpt lat="43.80424" lon="2.94783">
        <ele>445.71</ele>
        <time>2015-07-18T14:47:31Z</time>
      </trkpt>
      <trkpt lat="43.80437" lon="2.94807">
        <ele>444.27</ele>
        <time>2015-07-18T14:47:33Z</time>
      </trkpt>
      <trkpt lat="43.8044" lon="2.9482">
        <ele>443.31</ele>
        <time>2015-07-18T14:47:34Z</time>
      </trkpt>
      <trkpt lat="43.8044" lon="2.94834">
        <ele>442.34</ele>
        <time>2015-07-18T14:47:35Z</time>
      </trkpt>
      <trkpt lat="43.8044" lon="2.94847">
        <ele>441.86</ele>
        <time>2015-07-18T14:47:36Z</time>
      </trkpt>
      <trkpt lat="43.80441" lon="2.9486">
        <ele>440.9</ele>
        <time>2015-07-18T14:47:37Z</time>
      </trkpt>
      <trkpt lat="43.80443" lon="2.94873">
        <ele>439.94</ele>
        <time>2015-07-18T14:47:38Z</time>
      </trkpt>
      <trkpt lat="43.80449" lon="2.94884">
        <ele>439.46</ele>
        <time>2015-07-18T14:47:39Z</time>
      </trkpt>
      <trkpt lat="43.80456" lon="2.94891">
        <ele>438.5</ele>
        <time>2015-07-18T14:47:40Z</time>
      </trkpt>
      <trkpt lat="43.80466" lon="2.9489">
        <ele>437.54</ele>
        <time>2015-07-18T14:47:41Z</time>
      </trkpt>
      <trkpt lat="43.80477" lon="2.94889">
        <ele>436.58</ele>
        <time>2015-07-18T14:47:42Z</time>
      </trkpt>
      <trkpt lat="43.80488" lon="2.94885">
        <ele>435.61</ele>
        <time>2015-07-18T14:47:43Z</time>
      </trkpt>
      <trkpt lat="43.80499" lon="2.94882">
        <ele>435.61</ele>
        <time>2015-07-18T14:47:44Z</time>
      </trkpt>
      <trkpt lat="43.80509" lon="2.94881">
        <ele>435.13</ele>
        <time>2015-07-18T14:47:45Z</time>
      </trkpt>
      <trkpt lat="43.8052" lon="2.94884">
        <ele>434.17</ele>
        <time>2015-07-18T14:47:46Z</time>
      </trkpt>
      <trkpt lat="43.8053" lon="2.94893">
        <ele>432.73</ele>
        <time>2015-07-18T14:47:47Z</time>
      </trkpt>
      <trkpt lat="43.80538" lon="2.94905">
        <ele>432.73</ele>
        <time>2015-07-18T14:47:48Z</time>
      </trkpt>
      <trkpt lat="43.80545" lon="2.94919">
        <ele>431.77</ele>
        <time>2015-07-18T14:47:49Z</time>
      </trkpt>
      <trkpt lat="43.80552" lon="2.94932">
        <ele>430.81</ele>
        <time>2015-07-18T14:47:50Z</time>
      </trkpt>
      <trkpt lat="43.80559" lon="2.94944">
        <ele>430.33</ele>
        <time>2015-07-18T14:47:51Z</time>
      </trkpt>
      <trkpt lat="43.80569" lon="2.94955">
        <ele>429.85</ele>
        <time>2015-07-18T14:47:52Z</time>
      </trkpt>
      <trkpt lat="43.80579" lon="2.9496">
        <ele>428.89</ele>
        <time>2015-07-18T14:47:53Z</time>
      </trkpt>
      <trkpt lat="43.80591" lon="2.94959">
        <ele>427.92</ele>
        <time>2015-07-18T14:47:54Z</time>
      </trkpt>
      <trkpt lat="43.80602" lon="2.94955">
        <ele>426.96</ele>
        <time>2015-07-18T14:47:55Z</time>
      </trkpt>
      <trkpt lat="43.80612" lon="2.94949">
        <ele>426</ele>
        <time>2015-07-18T14:47:56Z</time>
      </trkpt>
      <trkpt lat="43.80624" lon="2.94938">
        <ele>426.48</ele>
        <time>2015-07-18T14:47:57Z</time>
      </trkpt>
      <trkpt lat="43.80633" lon="2.94931">
        <ele>426.96</ele>
        <time>2015-07-18T14:47:58Z</time>
      </trkpt>
      <trkpt lat="43.8066" lon="2.94912">
        <ele>428.4</ele>
        <time>2015-07-18T14:48:02Z</time>
      </trkpt>
      <trkpt lat="43.80667" lon="2.94916">
        <ele>427.92</ele>
        <time>2015-07-18T14:48:03Z</time>
      </trkpt>
      <trkpt lat="43.80674" lon="2.94924">
        <ele>426.96</ele>
        <time>2015-07-18T14:48:04Z</time>
      </trkpt>
      <trkpt lat="43.8068" lon="2.94939">
        <ele>427.44</ele>
        <time>2015-07-18T14:48:05Z</time>
      </trkpt>
      <trkpt lat="43.80686" lon="2.94954">
        <ele>426.96</ele>
        <time>2015-07-18T14:48:06Z</time>
      </trkpt>
      <trkpt lat="43.80692" lon="2.94971">
        <ele>427.44</ele>
        <time>2015-07-18T14:48:07Z</time>
      </trkpt>
      <trkpt lat="43.8071" lon="2.95114">
        <ele>428.4</ele>
        <time>2015-07-18T14:48:13Z</time>
      </trkpt>
      <trkpt lat="43.80712" lon="2.95191">
        <ele>429.37</ele>
        <time>2015-07-18T14:48:16Z</time>
      </trkpt>
      <trkpt lat="43.80709" lon="2.95217">
        <ele>429.85</ele>
        <time>2015-07-18T14:48:17Z</time>
      </trkpt>
      <trkpt lat="43.80704" lon="2.95243">
        <ele>430.33</ele>
        <time>2015-07-18T14:48:18Z</time>
      </trkpt>
      <trkpt lat="43.80697" lon="2.95268">
        <ele>430.81</ele>
        <time>2015-07-18T14:48:19Z</time>
      </trkpt>
      <trkpt lat="43.80685" lon="2.95292">
        <ele>431.29</ele>
        <time>2015-07-18T14:48:20Z</time>
      </trkpt>
      <trkpt lat="43.8067" lon="2.95311">
        <ele>431.77</ele>
        <time>2015-07-18T14:48:21Z</time>
      </trkpt>
      <trkpt lat="43.80653" lon="2.95329">
        <ele>432.73</ele>
        <time>2015-07-18T14:48:22Z</time>
      </trkpt>
      <trkpt lat="43.80637" lon="2.95345">
        <ele>433.21</ele>
        <time>2015-07-18T14:48:23Z</time>
      </trkpt>
      <trkpt lat="43.80621" lon="2.95362">
        <ele>434.17</ele>
        <time>2015-07-18T14:48:24Z</time>
      </trkpt>
      <trkpt lat="43.80589" lon="2.95391">
        <ele>435.61</ele>
        <time>2015-07-18T14:48:26Z</time>
      </trkpt>
      <trkpt lat="43.80573" lon="2.95402">
        <ele>436.1</ele>
        <time>2015-07-18T14:48:27Z</time>
      </trkpt>
      <trkpt lat="43.80555" lon="2.95411">
        <ele>437.06</ele>
        <time>2015-07-18T14:48:28Z</time>
      </trkpt>
      <trkpt lat="43.80538" lon="2.95417">
        <ele>437.54</ele>
        <time>2015-07-18T14:48:29Z</time>
      </trkpt>
      <trkpt lat="43.80521" lon="2.95422">
        <ele>438.5</ele>
        <time>2015-07-18T14:48:30Z</time>
      </trkpt>
      <trkpt lat="43.80489" lon="2.95438">
        <ele>438.98</ele>
        <time>2015-07-18T14:48:32Z</time>
      </trkpt>
      <trkpt lat="43.80474" lon="2.95452">
        <ele>438.5</ele>
        <time>2015-07-18T14:48:33Z</time>
      </trkpt>
      <trkpt lat="43.8046" lon="2.95469">
        <ele>438.98</ele>
        <time>2015-07-18T14:48:34Z</time>
      </trkpt>
      <trkpt lat="43.80451" lon="2.9549">
        <ele>438.5</ele>
        <time>2015-07-18T14:48:35Z</time>
      </trkpt>
      <trkpt lat="43.80447" lon="2.95514">
        <ele>437.06</ele>
        <time>2015-07-18T14:48:36Z</time>
      </trkpt>
      <trkpt lat="43.80449" lon="2.95541">
        <ele>435.13</ele>
        <time>2015-07-18T14:48:37Z</time>
      </trkpt>
      <trkpt lat="43.80454" lon="2.9557">
        <ele>435.13</ele>
        <time>2015-07-18T14:48:38Z</time>
      </trkpt>
      <trkpt lat="43.80462" lon="2.95598">
        <ele>435.13</ele>
        <time>2015-07-18T14:48:39Z</time>
      </trkpt>
      <trkpt lat="43.80472" lon="2.95627">
        <ele>435.13</ele>
        <time>2015-07-18T14:48:40Z</time>
      </trkpt>
      <trkpt lat="43.8048" lon="2.95656">
        <ele>435.13</ele>
        <time>2015-07-18T14:48:41Z</time>
      </trkpt>
      <trkpt lat="43.80517" lon="2.95905">
        <ele>434.17</ele>
        <time>2015-07-18T14:48:49Z</time>
      </trkpt>
      <trkpt lat="43.80516" lon="2.9597">
        <ele>434.17</ele>
        <time>2015-07-18T14:48:51Z</time>
      </trkpt>
      <trkpt lat="43.80512" lon="2.96002">
        <ele>434.17</ele>
        <time>2015-07-18T14:48:52Z</time>
      </trkpt>
      <trkpt lat="43.80505" lon="2.96033">
        <ele>434.17</ele>
        <time>2015-07-18T14:48:53Z</time>
      </trkpt>
      <trkpt lat="43.80496" lon="2.96063">
        <ele>434.17</ele>
        <time>2015-07-18T14:48:54Z</time>
      </trkpt>
      <trkpt lat="43.80486" lon="2.96092">
        <ele>434.65</ele>
        <time>2015-07-18T14:48:55Z</time>
      </trkpt>
      <trkpt lat="43.80388" lon="2.9645">
        <ele>439.46</ele>
        <time>2015-07-18T14:49:07Z</time>
      </trkpt>
      <trkpt lat="43.80297" lon="2.9663">
        <ele>442.34</ele>
        <time>2015-07-18T14:49:14Z</time>
      </trkpt>
      <trkpt lat="43.80246" lon="2.96724">
        <ele>444.75</ele>
        <time>2015-07-18T14:49:18Z</time>
      </trkpt>
      <trkpt lat="43.80229" lon="2.96741">
        <ele>444.75</ele>
        <time>2015-07-18T14:49:19Z</time>
      </trkpt>
      <trkpt lat="43.8021" lon="2.96752">
        <ele>444.75</ele>
        <time>2015-07-18T14:49:20Z</time>
      </trkpt>
      <trkpt lat="43.80188" lon="2.96759">
        <ele>445.71</ele>
        <time>2015-07-18T14:49:21Z</time>
      </trkpt>
      <trkpt lat="43.80166" lon="2.96767">
        <ele>447.15</ele>
        <time>2015-07-18T14:49:22Z</time>
      </trkpt>
      <trkpt lat="43.80144" lon="2.96775">
        <ele>447.63</ele>
        <time>2015-07-18T14:49:23Z</time>
      </trkpt>
      <trkpt lat="43.79946" lon="2.9686">
        <ele>451</ele>
        <time>2015-07-18T14:49:33Z</time>
      </trkpt>
      <trkpt lat="43.79929" lon="2.96878">
        <ele>451</ele>
        <time>2015-07-18T14:49:34Z</time>
      </trkpt>
      <trkpt lat="43.79915" lon="2.96901">
        <ele>450.52</ele>
        <time>2015-07-18T14:49:35Z</time>
      </trkpt>
      <trkpt lat="43.79906" lon="2.96929">
        <ele>450.03</ele>
        <time>2015-07-18T14:49:36Z</time>
      </trkpt>
      <trkpt lat="43.79901" lon="2.96957">
        <ele>449.55</ele>
        <time>2015-07-18T14:49:37Z</time>
      </trkpt>
      <trkpt lat="43.799" lon="2.96984">
        <ele>449.07</ele>
        <time>2015-07-18T14:49:38Z</time>
      </trkpt>
      <trkpt lat="43.79906" lon="2.97013">
        <ele>447.63</ele>
        <time>2015-07-18T14:49:39Z</time>
      </trkpt>
      <trkpt lat="43.79918" lon="2.97039">
        <ele>446.19</ele>
        <time>2015-07-18T14:49:40Z</time>
      </trkpt>
      <trkpt lat="43.79936" lon="2.9706">
        <ele>446.67</ele>
        <time>2015-07-18T14:49:41Z</time>
      </trkpt>
      <trkpt lat="43.79952" lon="2.9708">
        <ele>446.67</ele>
        <time>2015-07-18T14:49:42Z</time>
      </trkpt>
      <trkpt lat="43.79968" lon="2.97097">
        <ele>446.67</ele>
        <time>2015-07-18T14:49:43Z</time>
      </trkpt>
      <trkpt lat="43.79986" lon="2.97115">
        <ele>447.15</ele>
        <time>2015-07-18T14:49:44Z</time>
      </trkpt>
      <trkpt lat="43.80066" lon="2.9721">
        <ele>449.07</ele>
        <time>2015-07-18T14:49:49Z</time>
      </trkpt>
      <trkpt lat="43.8008" lon="2.97234">
        <ele>449.55</ele>
        <time>2015-07-18T14:49:50Z</time>
      </trkpt>
      <trkpt lat="43.80092" lon="2.97259">
        <ele>449.55</ele>
        <time>2015-07-18T14:49:51Z</time>
      </trkpt>
      <trkpt lat="43.80103" lon="2.97287">
        <ele>449.55</ele>
        <time>2015-07-18T14:49:52Z</time>
      </trkpt>
      <trkpt lat="43.80113" lon="2.97316">
        <ele>449.55</ele>
        <time>2015-07-18T14:49:53Z</time>
      </trkpt>
      <trkpt lat="43.80121" lon="2.97346">
        <ele>449.55</ele>
        <time>2015-07-18T14:49:54Z</time>
      </trkpt>
      <trkpt lat="43.80127" lon="2.97376">
        <ele>449.55</ele>
        <time>2015-07-18T14:49:55Z</time>
      </trkpt>
      <trkpt lat="43.80132" lon="2.97407">
        <ele>449.55</ele>
        <time>2015-07-18T14:49:56Z</time>
      </trkpt>
      <trkpt lat="43.80157" lon="2.9756">
        <ele>449.07</ele>
        <time>2015-07-18T14:50:02Z</time>
      </trkpt>
      <trkpt lat="43.80155" lon="2.97713">
        <ele>447.63</ele>
        <time>2015-07-18T14:50:10Z</time>
      </trkpt>
      <trkpt lat="43.80147" lon="2.97833">
        <ele>447.63</ele>
        <time>2015-07-18T14:50:17Z</time>
      </trkpt>
      <trkpt lat="43.80143" lon="2.97849">
        <ele>448.11</ele>
        <time>2015-07-18T14:50:18Z</time>
      </trkpt>
      <trkpt lat="43.80137" lon="2.97864">
        <ele>448.11</ele>
        <time>2015-07-18T14:50:19Z</time>
      </trkpt>
      <trkpt lat="43.80128" lon="2.97879">
        <ele>448.11</ele>
        <time>2015-07-18T14:50:20Z</time>
      </trkpt>
      <trkpt lat="43.80117" lon="2.97893">
        <ele>448.11</ele>
        <time>2015-07-18T14:50:21Z</time>
      </trkpt>
      <trkpt lat="43.80104" lon="2.97907">
        <ele>448.11</ele>
        <time>2015-07-18T14:50:22Z</time>
      </trkpt>
      <trkpt lat="43.79967" lon="2.98068">
        <ele>451</ele>
        <time>2015-07-18T14:50:32Z</time>
      </trkpt>
      <trkpt lat="43.79924" lon="2.98139">
        <ele>452.44</ele>
        <time>2015-07-18T14:50:36Z</time>
      </trkpt>
      <trkpt lat="43.79919" lon="2.98159">
        <ele>452.44</ele>
        <time>2015-07-18T14:50:37Z</time>
      </trkpt>
      <trkpt lat="43.79921" lon="2.98174">
        <ele>450.52</ele>
        <time>2015-07-18T14:50:38Z</time>
      </trkpt>
      <trkpt lat="43.79932" lon="2.98191">
        <ele>450.03</ele>
        <time>2015-07-18T14:50:39Z</time>
      </trkpt>
      <trkpt lat="43.79943" lon="2.9821">
        <ele>450.52</ele>
        <time>2015-07-18T14:50:40Z</time>
      </trkpt>
      <trkpt lat="43.79953" lon="2.98229">
        <ele>450.52</ele>
        <time>2015-07-18T14:50:41Z</time>
      </trkpt>
      <trkpt lat="43.7996" lon="2.98249">
        <ele>451</ele>
        <time>2015-07-18T14:50:42Z</time>
      </trkpt>
      <trkpt lat="43.79964" lon="2.98272">
        <ele>451</ele>
        <time>2015-07-18T14:50:43Z</time>
      </trkpt>
      <trkpt lat="43.79965" lon="2.98294">
        <ele>451.48</ele>
        <time>2015-07-18T14:50:44Z</time>
      </trkpt>
      <trkpt lat="43.79963" lon="2.98316">
        <ele>451.48</ele>
        <time>2015-07-18T14:50:45Z</time>
      </trkpt>
      <trkpt lat="43.79959" lon="2.98337">
        <ele>451.96</ele>
        <time>2015-07-18T14:50:46Z</time>
      </trkpt>
      <trkpt lat="43.79955" lon="2.98359">
        <ele>451.96</ele>
        <time>2015-07-18T14:50:47Z</time>
      </trkpt>
      <trkpt lat="43.79939" lon="2.9847">
        <ele>454.84</ele>
        <time>2015-07-18T14:50:52Z</time>
      </trkpt>
      <trkpt lat="43.79941" lon="2.98494">
        <ele>455.32</ele>
        <time>2015-07-18T14:50:53Z</time>
      </trkpt>
      <trkpt lat="43.79944" lon="2.98519">
        <ele>455.8</ele>
        <time>2015-07-18T14:50:54Z</time>
      </trkpt>
      <trkpt lat="43.7996" lon="2.98592">
        <ele>457.24</ele>
        <time>2015-07-18T14:50:57Z</time>
      </trkpt>
      <trkpt lat="43.79969" lon="2.98615">
        <ele>457.72</ele>
        <time>2015-07-18T14:50:58Z</time>
      </trkpt>
      <trkpt lat="43.79979" lon="2.98638">
        <ele>458.21</ele>
        <time>2015-07-18T14:50:59Z</time>
      </trkpt>
      <trkpt lat="43.79992" lon="2.98661">
        <ele>459.17</ele>
        <time>2015-07-18T14:51:00Z</time>
      </trkpt>
      <trkpt lat="43.80006" lon="2.98684">
        <ele>459.65</ele>
        <time>2015-07-18T14:51:01Z</time>
      </trkpt>
      <trkpt lat="43.80122" lon="2.9889">
        <ele>465.9</ele>
        <time>2015-07-18T14:51:09Z</time>
      </trkpt>
      <trkpt lat="43.80154" lon="2.98956">
        <ele>467.34</ele>
        <time>2015-07-18T14:51:12Z</time>
      </trkpt>
      <trkpt lat="43.80159" lon="2.98978">
        <ele>467.82</ele>
        <time>2015-07-18T14:51:13Z</time>
      </trkpt>
      <trkpt lat="43.80162" lon="2.99001">
        <ele>468.3</ele>
        <time>2015-07-18T14:51:14Z</time>
      </trkpt>
      <trkpt lat="43.80162" lon="2.99025">
        <ele>468.78</ele>
        <time>2015-07-18T14:51:15Z</time>
      </trkpt>
      <trkpt lat="43.80164" lon="2.99052">
        <ele>469.26</ele>
        <time>2015-07-18T14:51:16Z</time>
      </trkpt>
      <trkpt lat="43.80168" lon="2.9908">
        <ele>469.74</ele>
        <time>2015-07-18T14:51:17Z</time>
      </trkpt>
      <trkpt lat="43.80174" lon="2.99108">
        <ele>470.7</ele>
        <time>2015-07-18T14:51:18Z</time>
      </trkpt>
      <trkpt lat="43.80197" lon="2.99246">
        <ele>474.55</ele>
        <time>2015-07-18T14:51:24Z</time>
      </trkpt>
      <trkpt lat="43.802" lon="2.99262">
        <ele>475.03</ele>
        <time>2015-07-18T14:51:25Z</time>
      </trkpt>
      <trkpt lat="43.80204" lon="2.99276">
        <ele>475.03</ele>
        <time>2015-07-18T14:51:26Z</time>
      </trkpt>
      <trkpt lat="43.80213" lon="2.99305">
        <ele>474.55</ele>
        <time>2015-07-18T14:51:28Z</time>
      </trkpt>
      <trkpt lat="43.80217" lon="2.99321">
        <ele>474.55</ele>
        <time>2015-07-18T14:51:29Z</time>
      </trkpt>
      <trkpt lat="43.80219" lon="2.99338">
        <ele>473.59</ele>
        <time>2015-07-18T14:51:30Z</time>
      </trkpt>
      <trkpt lat="43.80221" lon="2.99355">
        <ele>472.63</ele>
        <time>2015-07-18T14:51:31Z</time>
      </trkpt>
      <trkpt lat="43.80226" lon="2.99372">
        <ele>472.14</ele>
        <time>2015-07-18T14:51:32Z</time>
      </trkpt>
      <trkpt lat="43.80233" lon="2.99387">
        <ele>470.7</ele>
        <time>2015-07-18T14:51:33Z</time>
      </trkpt>
      <trkpt lat="43.80242" lon="2.99401">
        <ele>469.74</ele>
        <time>2015-07-18T14:51:34Z</time>
      </trkpt>
      <trkpt lat="43.80249" lon="2.99415">
        <ele>468.78</ele>
        <time>2015-07-18T14:51:35Z</time>
      </trkpt>
      <trkpt lat="43.80253" lon="2.9943">
        <ele>468.3</ele>
        <time>2015-07-18T14:51:36Z</time>
      </trkpt>
      <trkpt lat="43.80255" lon="2.99446">
        <ele>467.34</ele>
        <time>2015-07-18T14:51:37Z</time>
      </trkpt>
      <trkpt lat="43.80255" lon="2.99461">
        <ele>467.34</ele>
        <time>2015-07-18T14:51:38Z</time>
      </trkpt>
      <trkpt lat="43.80253" lon="2.99475">
        <ele>466.38</ele>
        <time>2015-07-18T14:51:39Z</time>
      </trkpt>
      <trkpt lat="43.8025" lon="2.99488">
        <ele>465.9</ele>
        <time>2015-07-18T14:51:40Z</time>
      </trkpt>
      <trkpt lat="43.80247" lon="2.99501">
        <ele>464.93</ele>
        <time>2015-07-18T14:51:41Z</time>
      </trkpt>
      <trkpt lat="43.80244" lon="2.99514">
        <ele>463.97</ele>
        <time>2015-07-18T14:51:42Z</time>
      </trkpt>
      <trkpt lat="43.80243" lon="2.99526">
        <ele>463.49</ele>
        <time>2015-07-18T14:51:43Z</time>
      </trkpt>
      <trkpt lat="43.80244" lon="2.99538">
        <ele>463.01</ele>
        <time>2015-07-18T14:51:44Z</time>
      </trkpt>
      <trkpt lat="43.80247" lon="2.9955">
        <ele>462.53</ele>
        <time>2015-07-18T14:51:45Z</time>
      </trkpt>
      <trkpt lat="43.80249" lon="2.99561">
        <ele>462.05</ele>
        <time>2015-07-18T14:51:46Z</time>
      </trkpt>
      <trkpt lat="43.80261" lon="2.99612">
        <ele>462.05</ele>
        <time>2015-07-18T14:51:52Z</time>
      </trkpt>
      <trkpt lat="43.80266" lon="2.99623">
        <ele>462.53</ele>
        <time>2015-07-18T14:51:53Z</time>
      </trkpt>
      <trkpt lat="43.80303" lon="2.99706">
        <ele>466.86</ele>
        <time>2015-07-18T14:52:00Z</time>
      </trkpt>
      <trkpt lat="43.80308" lon="2.99723">
        <ele>467.34</ele>
        <time>2015-07-18T14:52:01Z</time>
      </trkpt>
      <trkpt lat="43.80346" lon="2.99887">
        <ele>472.63</ele>
        <time>2015-07-18T14:52:09Z</time>
      </trkpt>
      <trkpt lat="43.80425" lon="3.00095">
        <ele>472.14</ele>
        <time>2015-07-18T14:52:19Z</time>
      </trkpt>
      <trkpt lat="43.80432" lon="3.00119">
        <ele>472.14</ele>
        <time>2015-07-18T14:52:20Z</time>
      </trkpt>
      <trkpt lat="43.80437" lon="3.00145">
        <ele>472.63</ele>
        <time>2015-07-18T14:52:21Z</time>
      </trkpt>
      <trkpt lat="43.80447" lon="3.00319">
        <ele>473.11</ele>
        <time>2015-07-18T14:52:28Z</time>
      </trkpt>
      <trkpt lat="43.80452" lon="3.0045">
        <ele>473.11</ele>
        <time>2015-07-18T14:52:33Z</time>
      </trkpt>
      <trkpt lat="43.80459" lon="3.00477">
        <ele>473.11</ele>
        <time>2015-07-18T14:52:34Z</time>
      </trkpt>
      <trkpt lat="43.80467" lon="3.00502">
        <ele>473.59</ele>
        <time>2015-07-18T14:52:35Z</time>
      </trkpt>
      <trkpt lat="43.8051" lon="3.00594">
        <ele>474.07</ele>
        <time>2015-07-18T14:52:39Z</time>
      </trkpt>
      <trkpt lat="43.80524" lon="3.00613">
        <ele>474.07</ele>
        <time>2015-07-18T14:52:40Z</time>
      </trkpt>
      <trkpt lat="43.8054" lon="3.00629">
        <ele>474.55</ele>
        <time>2015-07-18T14:52:41Z</time>
      </trkpt>
      <trkpt lat="43.80556" lon="3.00644">
        <ele>475.51</ele>
        <time>2015-07-18T14:52:42Z</time>
      </trkpt>
      <trkpt lat="43.80574" lon="3.00658">
        <ele>476.95</ele>
        <time>2015-07-18T14:52:43Z</time>
      </trkpt>
      <trkpt lat="43.80591" lon="3.00673">
        <ele>478.39</ele>
        <time>2015-07-18T14:52:44Z</time>
      </trkpt>
      <trkpt lat="43.80677" lon="3.00785">
        <ele>479.84</ele>
        <time>2015-07-18T14:52:50Z</time>
      </trkpt>
      <trkpt lat="43.80752" lon="3.00966">
        <ele>479.35</ele>
        <time>2015-07-18T14:52:58Z</time>
      </trkpt>
      <trkpt lat="43.80756" lon="3.00988">
        <ele>479.35</ele>
        <time>2015-07-18T14:52:59Z</time>
      </trkpt>
      <trkpt lat="43.80756" lon="3.01011">
        <ele>478.87</ele>
        <time>2015-07-18T14:53:00Z</time>
      </trkpt>
      <trkpt lat="43.80752" lon="3.01032">
        <ele>478.39</ele>
        <time>2015-07-18T14:53:01Z</time>
      </trkpt>
      <trkpt lat="43.80744" lon="3.01051">
        <ele>477.43</ele>
        <time>2015-07-18T14:53:02Z</time>
      </trkpt>
      <trkpt lat="43.80733" lon="3.0107">
        <ele>476.95</ele>
        <time>2015-07-18T14:53:03Z</time>
      </trkpt>
      <trkpt lat="43.80719" lon="3.01089">
        <ele>477.43</ele>
        <time>2015-07-18T14:53:04Z</time>
      </trkpt>
      <trkpt lat="43.80704" lon="3.01108">
        <ele>477.91</ele>
        <time>2015-07-18T14:53:05Z</time>
      </trkpt>
      <trkpt lat="43.80688" lon="3.01126">
        <ele>477.91</ele>
        <time>2015-07-18T14:53:06Z</time>
      </trkpt>
      <trkpt lat="43.80672" lon="3.01145">
        <ele>478.39</ele>
        <time>2015-07-18T14:53:07Z</time>
      </trkpt>
      <trkpt lat="43.80655" lon="3.01162">
        <ele>478.39</ele>
        <time>2015-07-18T14:53:08Z</time>
      </trkpt>
      <trkpt lat="43.8054" lon="3.01314">
        <ele>481.28</ele>
        <time>2015-07-18T14:53:16Z</time>
      </trkpt>
      <trkpt lat="43.80503" lon="3.01387">
        <ele>481.28</ele>
        <time>2015-07-18T14:53:20Z</time>
      </trkpt>
      <trkpt lat="43.80497" lon="3.01408">
        <ele>481.28</ele>
        <time>2015-07-18T14:53:21Z</time>
      </trkpt>
      <trkpt lat="43.80495" lon="3.0143">
        <ele>481.28</ele>
        <time>2015-07-18T14:53:22Z</time>
      </trkpt>
      <trkpt lat="43.80498" lon="3.01454">
        <ele>479.84</ele>
        <time>2015-07-18T14:53:23Z</time>
      </trkpt>
      <trkpt lat="43.80506" lon="3.01478">
        <ele>479.35</ele>
        <time>2015-07-18T14:53:24Z</time>
      </trkpt>
      <trkpt lat="43.80516" lon="3.015">
        <ele>479.35</ele>
        <time>2015-07-18T14:53:25Z</time>
      </trkpt>
      <trkpt lat="43.80527" lon="3.01522">
        <ele>479.35</ele>
        <time>2015-07-18T14:53:26Z</time>
      </trkpt>
      <trkpt lat="43.80539" lon="3.01544">
        <ele>479.84</ele>
        <time>2015-07-18T14:53:27Z</time>
      </trkpt>
      <trkpt lat="43.80551" lon="3.01565">
        <ele>479.84</ele>
        <time>2015-07-18T14:53:28Z</time>
      </trkpt>
      <trkpt lat="43.80564" lon="3.01586">
        <ele>480.32</ele>
        <time>2015-07-18T14:53:29Z</time>
      </trkpt>
      <trkpt lat="43.80578" lon="3.01605">
        <ele>480.32</ele>
        <time>2015-07-18T14:53:30Z</time>
      </trkpt>
      <trkpt lat="43.80594" lon="3.01623">
        <ele>480.32</ele>
        <time>2015-07-18T14:53:31Z</time>
      </trkpt>
      <trkpt lat="43.8061" lon="3.0164">
        <ele>480.8</ele>
        <time>2015-07-18T14:53:32Z</time>
      </trkpt>
      <trkpt lat="43.80628" lon="3.01657">
        <ele>481.28</ele>
        <time>2015-07-18T14:53:33Z</time>
      </trkpt>
      <trkpt lat="43.80744" lon="3.01769">
        <ele>483.68</ele>
        <time>2015-07-18T14:53:40Z</time>
      </trkpt>
      <trkpt lat="43.80757" lon="3.01792">
        <ele>484.16</ele>
        <time>2015-07-18T14:53:41Z</time>
      </trkpt>
      <trkpt lat="43.80805" lon="3.01891">
        <ele>485.12</ele>
        <time>2015-07-18T14:53:45Z</time>
      </trkpt>
      <trkpt lat="43.80809" lon="3.01919">
        <ele>485.12</ele>
        <time>2015-07-18T14:53:46Z</time>
      </trkpt>
      <trkpt lat="43.8081" lon="3.01947">
        <ele>485.12</ele>
        <time>2015-07-18T14:53:47Z</time>
      </trkpt>
      <trkpt lat="43.80807" lon="3.01974">
        <ele>485.12</ele>
        <time>2015-07-18T14:53:48Z</time>
      </trkpt>
      <trkpt lat="43.80802" lon="3.02">
        <ele>485.12</ele>
        <time>2015-07-18T14:53:49Z</time>
      </trkpt>
      <trkpt lat="43.80797" lon="3.02027">
        <ele>485.12</ele>
        <time>2015-07-18T14:53:50Z</time>
      </trkpt>
      <trkpt lat="43.8079" lon="3.021">
        <ele>485.6</ele>
        <time>2015-07-18T14:53:53Z</time>
      </trkpt>
      <trkpt lat="43.8079" lon="3.02122">
        <ele>486.08</ele>
        <time>2015-07-18T14:53:54Z</time>
      </trkpt>
      <trkpt lat="43.80792" lon="3.0214">
        <ele>486.08</ele>
        <time>2015-07-18T14:53:55Z</time>
      </trkpt>
      <trkpt lat="43.80794" lon="3.02156">
        <ele>486.08</ele>
        <time>2015-07-18T14:53:56Z</time>
      </trkpt>
      <trkpt lat="43.80797" lon="3.02171">
        <ele>486.08</ele>
        <time>2015-07-18T14:53:57Z</time>
      </trkpt>
      <trkpt lat="43.808" lon="3.02185">
        <ele>486.08</ele>
        <time>2015-07-18T14:53:58Z</time>
      </trkpt>
      <trkpt lat="43.80805" lon="3.02197">
        <ele>486.08</ele>
        <time>2015-07-18T14:53:59Z</time>
      </trkpt>
      <trkpt lat="43.80812" lon="3.02209">
        <ele>486.08</ele>
        <time>2015-07-18T14:54:00Z</time>
      </trkpt>
      <trkpt lat="43.80821" lon="3.02218">
        <ele>485.6</ele>
        <time>2015-07-18T14:54:01Z</time>
      </trkpt>
      <trkpt lat="43.80831" lon="3.02223">
        <ele>485.12</ele>
        <time>2015-07-18T14:54:02Z</time>
      </trkpt>
      <trkpt lat="43.80844" lon="3.02226">
        <ele>485.12</ele>
        <time>2015-07-18T14:54:03Z</time>
      </trkpt>
      <trkpt lat="43.80857" lon="3.0223">
        <ele>485.6</ele>
        <time>2015-07-18T14:54:04Z</time>
      </trkpt>
      <trkpt lat="43.80948" lon="3.0228">
        <ele>486.56</ele>
        <time>2015-07-18T14:54:13Z</time>
      </trkpt>
      <trkpt lat="43.80956" lon="3.02289">
        <ele>486.56</ele>
        <time>2015-07-18T14:54:14Z</time>
      </trkpt>
      <trkpt lat="43.80962" lon="3.02298">
        <ele>486.56</ele>
        <time>2015-07-18T14:54:15Z</time>
      </trkpt>
      <trkpt lat="43.80968" lon="3.02307">
        <ele>486.56</ele>
        <time>2015-07-18T14:54:16Z</time>
      </trkpt>
      <trkpt lat="43.80973" lon="3.02317">
        <ele>487.05</ele>
        <time>2015-07-18T14:54:17Z</time>
      </trkpt>
      <trkpt lat="43.80977" lon="3.02328">
        <ele>487.05</ele>
        <time>2015-07-18T14:54:18Z</time>
      </trkpt>
      <trkpt lat="43.80981" lon="3.02339">
        <ele>487.05</ele>
        <time>2015-07-18T14:54:19Z</time>
      </trkpt>
      <trkpt lat="43.81017" lon="3.02466">
        <ele>492.33</ele>
        <time>2015-07-18T14:54:31Z</time>
      </trkpt>
      <trkpt lat="43.81015" lon="3.02473">
        <ele>492.33</ele>
        <time>2015-07-18T14:54:32Z</time>
      </trkpt>
      <trkpt lat="43.81008" lon="3.02476">
        <ele>493.29</ele>
        <time>2015-07-18T14:54:33Z</time>
      </trkpt>
      <trkpt lat="43.81004" lon="3.02478">
        <ele>493.29</ele>
        <time>2015-07-18T14:54:34Z</time>
      </trkpt>
      <trkpt lat="43.80999" lon="3.02479">
        <ele>492.81</ele>
        <time>2015-07-18T14:54:35Z</time>
      </trkpt>
      <trkpt lat="43.80988" lon="3.02484">
        <ele>492.33</ele>
        <time>2015-07-18T14:54:42Z</time>
      </trkpt>
      <trkpt lat="43.80987" lon="3.02484">
        <ele>492.33</ele>
        <time>2015-07-18T14:54:43Z</time>
      </trkpt>
      <trkpt lat="43.80986" lon="3.02484">
        <ele>491.85</ele>
        <time>2015-07-18T14:54:44Z</time>
      </trkpt>
      <trkpt lat="43.80986" lon="3.02483">
        <ele>489.45</ele>
        <time>2015-07-18T14:55:04Z</time>
      </trkpt>
      <trkpt lat="43.80986" lon="3.02483">
        <ele>489.45</ele>
        <time>2015-07-18T14:56:08Z</time>
      </trkpt>
      <trkpt lat="43.80985" lon="3.02484">
        <ele>489.45</ele>
        <time>2015-07-18T14:56:09Z</time>
      </trkpt>
      <trkpt lat="43.8095" lon="3.02499">
        <ele>490.41</ele>
        <time>2015-07-18T14:56:15Z</time>
      </trkpt>
      <trkpt lat="43.80942" lon="3.02497">
        <ele>490.89</ele>
        <time>2015-07-18T14:56:16Z</time>
      </trkpt>
      <trkpt lat="43.80934" lon="3.02493">
        <ele>490.89</ele>
        <time>2015-07-18T14:56:17Z</time>
      </trkpt>
      <trkpt lat="43.80918" lon="3.02483">
        <ele>490.89</ele>
        <time>2015-07-18T14:56:19Z</time>
      </trkpt>
      <trkpt lat="43.80911" lon="3.02474">
        <ele>490.41</ele>
        <time>2015-07-18T14:56:20Z</time>
      </trkpt>
      <trkpt lat="43.80906" lon="3.02465">
        <ele>490.89</ele>
        <time>2015-07-18T14:56:21Z</time>
      </trkpt>
      <trkpt lat="43.80901" lon="3.02454">
        <ele>490.89</ele>
        <time>2015-07-18T14:56:22Z</time>
      </trkpt>
      <trkpt lat="43.80895" lon="3.02442">
        <ele>490.89</ele>
        <time>2015-07-18T14:56:23Z</time>
      </trkpt>
      <trkpt lat="43.80888" lon="3.02432">
        <ele>491.85</ele>
        <time>2015-07-18T14:56:24Z</time>
      </trkpt>
      <trkpt lat="43.8088" lon="3.02422">
        <ele>492.81</ele>
        <time>2015-07-18T14:56:25Z</time>
      </trkpt>
      <trkpt lat="43.80871" lon="3.02413">
        <ele>493.29</ele>
        <time>2015-07-18T14:56:26Z</time>
      </trkpt>
      <trkpt lat="43.80861" lon="3.02406">
        <ele>493.29</ele>
        <time>2015-07-18T14:56:27Z</time>
      </trkpt>
      <trkpt lat="43.80849" lon="3.02401">
        <ele>493.29</ele>
        <time>2015-07-18T14:56:28Z</time>
      </trkpt>
      <trkpt lat="43.80835" lon="3.02399">
        <ele>493.77</ele>
        <time>2015-07-18T14:56:29Z</time>
      </trkpt>
      <trkpt lat="43.80821" lon="3.02398">
        <ele>494.26</ele>
        <time>2015-07-18T14:56:30Z</time>
      </trkpt>
      <trkpt lat="43.80795" lon="3.02394">
        <ele>494.26</ele>
        <time>2015-07-18T14:56:32Z</time>
      </trkpt>
      <trkpt lat="43.80783" lon="3.02389">
        <ele>494.74</ele>
        <time>2015-07-18T14:56:33Z</time>
      </trkpt>
      <trkpt lat="43.80771" lon="3.02381">
        <ele>494.74</ele>
        <time>2015-07-18T14:56:34Z</time>
      </trkpt>
      <trkpt lat="43.80759" lon="3.02371">
        <ele>495.7</ele>
        <time>2015-07-18T14:56:35Z</time>
      </trkpt>
      <trkpt lat="43.80749" lon="3.02358">
        <ele>496.18</ele>
        <time>2015-07-18T14:56:36Z</time>
      </trkpt>
      <trkpt lat="43.80738" lon="3.02343">
        <ele>496.66</ele>
        <time>2015-07-18T14:56:37Z</time>
      </trkpt>
      <trkpt lat="43.80663" lon="3.02243">
        <ele>498.58</ele>
        <time>2015-07-18T14:56:44Z</time>
      </trkpt>
      <trkpt lat="43.8066" lon="3.02228">
        <ele>499.54</ele>
        <time>2015-07-18T14:56:45Z</time>
      </trkpt>
      <trkpt lat="43.80658" lon="3.02211">
        <ele>499.54</ele>
        <time>2015-07-18T14:56:46Z</time>
      </trkpt>
      <trkpt lat="43.80657" lon="3.02195">
        <ele>500.02</ele>
        <time>2015-07-18T14:56:47Z</time>
      </trkpt>
      <trkpt lat="43.80655" lon="3.02179">
        <ele>500.02</ele>
        <time>2015-07-18T14:56:48Z</time>
      </trkpt>
      <trkpt lat="43.80651" lon="3.02164">
        <ele>500.02</ele>
        <time>2015-07-18T14:56:49Z</time>
      </trkpt>
      <trkpt lat="43.80645" lon="3.02152">
        <ele>500.02</ele>
        <time>2015-07-18T14:56:50Z</time>
      </trkpt>
      <trkpt lat="43.8064" lon="3.02142">
        <ele>499.54</ele>
        <time>2015-07-18T14:56:51Z</time>
      </trkpt>
      <trkpt lat="43.80629" lon="3.02144">
        <ele>499.06</ele>
        <time>2015-07-18T14:56:52Z</time>
      </trkpt>
      <trkpt lat="43.80617" lon="3.02148">
        <ele>500.02</ele>
        <time>2015-07-18T14:56:53Z</time>
      </trkpt>
      <trkpt lat="43.80605" lon="3.02155">
        <ele>500.02</ele>
        <time>2015-07-18T14:56:54Z</time>
      </trkpt>
      <trkpt lat="43.80593" lon="3.02165">
        <ele>500.5</ele>
        <time>2015-07-18T14:56:55Z</time>
      </trkpt>
      <trkpt lat="43.80582" lon="3.02175">
        <ele>500.98</ele>
        <time>2015-07-18T14:56:56Z</time>
      </trkpt>
      <trkpt lat="43.80573" lon="3.02183">
        <ele>500.98</ele>
        <time>2015-07-18T14:56:57Z</time>
      </trkpt>
      <trkpt lat="43.80563" lon="3.02188">
        <ele>501.46</ele>
        <time>2015-07-18T14:56:58Z</time>
      </trkpt>
      <trkpt lat="43.80554" lon="3.02186">
        <ele>501.95</ele>
        <time>2015-07-18T14:56:59Z</time>
      </trkpt>
      <trkpt lat="43.80546" lon="3.02177">
        <ele>502.43</ele>
        <time>2015-07-18T14:57:00Z</time>
      </trkpt>
      <trkpt lat="43.80541" lon="3.02166">
        <ele>503.87</ele>
        <time>2015-07-18T14:57:01Z</time>
      </trkpt>
      <trkpt lat="43.80535" lon="3.02152">
        <ele>503.39</ele>
        <time>2015-07-18T14:57:02Z</time>
      </trkpt>
      <trkpt lat="43.8053" lon="3.0214">
        <ele>502.91</ele>
        <time>2015-07-18T14:57:03Z</time>
      </trkpt>
      <trkpt lat="43.80521" lon="3.02129">
        <ele>502.43</ele>
        <time>2015-07-18T14:57:04Z</time>
      </trkpt>
      <trkpt lat="43.80511" lon="3.02119">
        <ele>503.39</ele>
        <time>2015-07-18T14:57:05Z</time>
      </trkpt>
      <trkpt lat="43.80497" lon="3.0211">
        <ele>502.91</ele>
        <time>2015-07-18T14:57:06Z</time>
      </trkpt>
      <trkpt lat="43.80485" lon="3.02103">
        <ele>502.43</ele>
        <time>2015-07-18T14:57:07Z</time>
      </trkpt>
      <trkpt lat="43.80382" lon="3.02032">
        <ele>505.79</ele>
        <time>2015-07-18T14:57:14Z</time>
      </trkpt>
      <trkpt lat="43.80321" lon="3.02007">
        <ele>509.16</ele>
        <time>2015-07-18T14:57:18Z</time>
      </trkpt>
      <trkpt lat="43.80306" lon="3.02007">
        <ele>510.12</ele>
        <time>2015-07-18T14:57:19Z</time>
      </trkpt>
      <trkpt lat="43.8029" lon="3.02007">
        <ele>510.6</ele>
        <time>2015-07-18T14:57:20Z</time>
      </trkpt>
      <trkpt lat="43.80275" lon="3.02004">
        <ele>512.04</ele>
        <time>2015-07-18T14:57:21Z</time>
      </trkpt>
      <trkpt lat="43.80261" lon="3.02">
        <ele>513</ele>
        <time>2015-07-18T14:57:22Z</time>
      </trkpt>
      <trkpt lat="43.80248" lon="3.01995">
        <ele>513.96</ele>
        <time>2015-07-18T14:57:23Z</time>
      </trkpt>
      <trkpt lat="43.80234" lon="3.01991">
        <ele>514.44</ele>
        <time>2015-07-18T14:57:24Z</time>
      </trkpt>
      <trkpt lat="43.8022" lon="3.01992">
        <ele>515.4</ele>
        <time>2015-07-18T14:57:25Z</time>
      </trkpt>
      <trkpt lat="43.80206" lon="3.01994">
        <ele>515.88</ele>
        <time>2015-07-18T14:57:26Z</time>
      </trkpt>
      <trkpt lat="43.80174" lon="3.01997">
        <ele>517.81</ele>
        <time>2015-07-18T14:57:28Z</time>
      </trkpt>
      <trkpt lat="43.80158" lon="3.01995">
        <ele>518.77</ele>
        <time>2015-07-18T14:57:29Z</time>
      </trkpt>
      <trkpt lat="43.80142" lon="3.01991">
        <ele>519.25</ele>
        <time>2015-07-18T14:57:30Z</time>
      </trkpt>
      <trkpt lat="43.80127" lon="3.01985">
        <ele>519.73</ele>
        <time>2015-07-18T14:57:31Z</time>
      </trkpt>
      <trkpt lat="43.80113" lon="3.01977">
        <ele>520.69</ele>
        <time>2015-07-18T14:57:32Z</time>
      </trkpt>
      <trkpt lat="43.801" lon="3.01967">
        <ele>521.17</ele>
        <time>2015-07-18T14:57:33Z</time>
      </trkpt>
      <trkpt lat="43.80089" lon="3.01956">
        <ele>521.17</ele>
        <time>2015-07-18T14:57:34Z</time>
      </trkpt>
      <trkpt lat="43.80079" lon="3.01943">
        <ele>520.69</ele>
        <time>2015-07-18T14:57:35Z</time>
      </trkpt>
      <trkpt lat="43.8007" lon="3.01931">
        <ele>520.69</ele>
        <time>2015-07-18T14:57:36Z</time>
      </trkpt>
      <trkpt lat="43.8006" lon="3.01921">
        <ele>520.69</ele>
        <time>2015-07-18T14:57:37Z</time>
      </trkpt>
      <trkpt lat="43.8005" lon="3.01917">
        <ele>520.21</ele>
        <time>2015-07-18T14:57:38Z</time>
      </trkpt>
      <trkpt lat="43.80038" lon="3.0192">
        <ele>520.69</ele>
        <time>2015-07-18T14:57:39Z</time>
      </trkpt>
      <trkpt lat="43.80025" lon="3.01924">
        <ele>520.21</ele>
        <time>2015-07-18T14:57:40Z</time>
      </trkpt>
      <trkpt lat="43.80012" lon="3.01924">
        <ele>520.69</ele>
        <time>2015-07-18T14:57:41Z</time>
      </trkpt>
      <trkpt lat="43.79999" lon="3.01917">
        <ele>520.69</ele>
        <time>2015-07-18T14:57:42Z</time>
      </trkpt>
      <trkpt lat="43.79987" lon="3.01903">
        <ele>520.21</ele>
        <time>2015-07-18T14:57:43Z</time>
      </trkpt>
      <trkpt lat="43.79976" lon="3.0189">
        <ele>519.73</ele>
        <time>2015-07-18T14:57:44Z</time>
      </trkpt>
      <trkpt lat="43.79966" lon="3.01878">
        <ele>518.77</ele>
        <time>2015-07-18T14:57:45Z</time>
      </trkpt>
      <trkpt lat="43.79955" lon="3.01867">
        <ele>518.29</ele>
        <time>2015-07-18T14:57:46Z</time>
      </trkpt>
      <trkpt lat="43.79943" lon="3.01866">
        <ele>518.77</ele>
        <time>2015-07-18T14:57:47Z</time>
      </trkpt>
      <trkpt lat="43.79932" lon="3.01873">
        <ele>519.73</ele>
        <time>2015-07-18T14:57:48Z</time>
      </trkpt>
      <trkpt lat="43.79924" lon="3.01886">
        <ele>520.21</ele>
        <time>2015-07-18T14:57:49Z</time>
      </trkpt>
      <trkpt lat="43.79916" lon="3.01903">
        <ele>519.73</ele>
        <time>2015-07-18T14:57:50Z</time>
      </trkpt>
      <trkpt lat="43.79908" lon="3.01922">
        <ele>519.73</ele>
        <time>2015-07-18T14:57:51Z</time>
      </trkpt>
      <trkpt lat="43.79901" lon="3.01943">
        <ele>519.73</ele>
        <time>2015-07-18T14:57:52Z</time>
      </trkpt>
      <trkpt lat="43.79879" lon="3.02007">
        <ele>519.25</ele>
        <time>2015-07-18T14:57:55Z</time>
      </trkpt>
      <trkpt lat="43.7987" lon="3.02049">
        <ele>518.77</ele>
        <time>2015-07-18T14:57:57Z</time>
      </trkpt>
      <trkpt lat="43.79865" lon="3.02071">
        <ele>518.77</ele>
        <time>2015-07-18T14:57:58Z</time>
      </trkpt>
      <trkpt lat="43.79843" lon="3.02131">
        <ele>518.29</ele>
        <time>2015-07-18T14:58:01Z</time>
      </trkpt>
      <trkpt lat="43.79835" lon="3.02148">
        <ele>517.33</ele>
        <time>2015-07-18T14:58:02Z</time>
      </trkpt>
      <trkpt lat="43.79827" lon="3.02165">
        <ele>516.85</ele>
        <time>2015-07-18T14:58:03Z</time>
      </trkpt>
      <trkpt lat="43.79822" lon="3.02181">
        <ele>515.4</ele>
        <time>2015-07-18T14:58:04Z</time>
      </trkpt>
      <trkpt lat="43.7982" lon="3.02199">
        <ele>514.92</ele>
        <time>2015-07-18T14:58:05Z</time>
      </trkpt>
      <trkpt lat="43.79817" lon="3.02216">
        <ele>513.96</ele>
        <time>2015-07-18T14:58:06Z</time>
      </trkpt>
      <trkpt lat="43.79812" lon="3.02233">
        <ele>513</ele>
        <time>2015-07-18T14:58:07Z</time>
      </trkpt>
      <trkpt lat="43.79804" lon="3.02247">
        <ele>512.52</ele>
        <time>2015-07-18T14:58:08Z</time>
      </trkpt>
      <trkpt lat="43.79794" lon="3.02254">
        <ele>512.52</ele>
        <time>2015-07-18T14:58:09Z</time>
      </trkpt>
      <trkpt lat="43.79782" lon="3.02259">
        <ele>512.04</ele>
        <time>2015-07-18T14:58:10Z</time>
      </trkpt>
      <trkpt lat="43.79769" lon="3.02264">
        <ele>512.04</ele>
        <time>2015-07-18T14:58:11Z</time>
      </trkpt>
      <trkpt lat="43.79757" lon="3.02272">
        <ele>512.04</ele>
        <time>2015-07-18T14:58:12Z</time>
      </trkpt>
      <trkpt lat="43.79744" lon="3.02285">
        <ele>512.04</ele>
        <time>2015-07-18T14:58:13Z</time>
      </trkpt>
      <trkpt lat="43.79732" lon="3.02298">
        <ele>512.04</ele>
        <time>2015-07-18T14:58:14Z</time>
      </trkpt>
      <trkpt lat="43.796" lon="3.02438">
        <ele>514.44</ele>
        <time>2015-07-18T14:58:23Z</time>
      </trkpt>
      <trkpt lat="43.79436" lon="3.02544">
        <ele>516.37</ele>
        <time>2015-07-18T14:58:32Z</time>
      </trkpt>
      <trkpt lat="43.79382" lon="3.02552">
        <ele>517.81</ele>
        <time>2015-07-18T14:58:35Z</time>
      </trkpt>
      <trkpt lat="43.79364" lon="3.02548">
        <ele>518.29</ele>
        <time>2015-07-18T14:58:36Z</time>
      </trkpt>
      <trkpt lat="43.79349" lon="3.02544">
        <ele>518.29</ele>
        <time>2015-07-18T14:58:37Z</time>
      </trkpt>
      <trkpt lat="43.79333" lon="3.02541">
        <ele>518.29</ele>
        <time>2015-07-18T14:58:38Z</time>
      </trkpt>
      <trkpt lat="43.79317" lon="3.02542">
        <ele>518.29</ele>
        <time>2015-07-18T14:58:39Z</time>
      </trkpt>
      <trkpt lat="43.793" lon="3.02546">
        <ele>518.77</ele>
        <time>2015-07-18T14:58:40Z</time>
      </trkpt>
      <trkpt lat="43.79283" lon="3.02551">
        <ele>518.77</ele>
        <time>2015-07-18T14:58:41Z</time>
      </trkpt>
      <trkpt lat="43.79204" lon="3.02576">
        <ele>519.73</ele>
        <time>2015-07-18T14:58:46Z</time>
      </trkpt>
      <trkpt lat="43.79151" lon="3.02603">
        <ele>519.73</ele>
        <time>2015-07-18T14:58:49Z</time>
      </trkpt>
      <trkpt lat="43.79133" lon="3.02608">
        <ele>519.73</ele>
        <time>2015-07-18T14:58:50Z</time>
      </trkpt>
      <trkpt lat="43.79062" lon="3.02635">
        <ele>520.69</ele>
        <time>2015-07-18T14:58:54Z</time>
      </trkpt>
      <trkpt lat="43.79046" lon="3.0265">
        <ele>521.65</ele>
        <time>2015-07-18T14:58:55Z</time>
      </trkpt>
      <trkpt lat="43.79034" lon="3.02668">
        <ele>521.65</ele>
        <time>2015-07-18T14:58:56Z</time>
      </trkpt>
      <trkpt lat="43.79024" lon="3.02688">
        <ele>522.13</ele>
        <time>2015-07-18T14:58:57Z</time>
      </trkpt>
      <trkpt lat="43.79018" lon="3.02709">
        <ele>522.61</ele>
        <time>2015-07-18T14:58:58Z</time>
      </trkpt>
      <trkpt lat="43.79014" lon="3.02733">
        <ele>522.13</ele>
        <time>2015-07-18T14:58:59Z</time>
      </trkpt>
      <trkpt lat="43.79013" lon="3.02756">
        <ele>521.17</ele>
        <time>2015-07-18T14:59:00Z</time>
      </trkpt>
      <trkpt lat="43.79013" lon="3.02781">
        <ele>521.17</ele>
        <time>2015-07-18T14:59:01Z</time>
      </trkpt>
      <trkpt lat="43.78994" lon="3.02852">
        <ele>520.69</ele>
        <time>2015-07-18T14:59:04Z</time>
      </trkpt>
      <trkpt lat="43.78985" lon="3.02873">
        <ele>520.21</ele>
        <time>2015-07-18T14:59:05Z</time>
      </trkpt>
      <trkpt lat="43.78973" lon="3.02892">
        <ele>520.21</ele>
        <time>2015-07-18T14:59:06Z</time>
      </trkpt>
      <trkpt lat="43.78959" lon="3.02908">
        <ele>519.73</ele>
        <time>2015-07-18T14:59:07Z</time>
      </trkpt>
      <trkpt lat="43.78944" lon="3.02923">
        <ele>519.73</ele>
        <time>2015-07-18T14:59:08Z</time>
      </trkpt>
      <trkpt lat="43.78929" lon="3.02939">
        <ele>520.21</ele>
        <time>2015-07-18T14:59:09Z</time>
      </trkpt>
      <trkpt lat="43.78752" lon="3.03104">
        <ele>520.69</ele>
        <time>2015-07-18T14:59:20Z</time>
      </trkpt>
      <trkpt lat="43.78734" lon="3.03115">
        <ele>521.17</ele>
        <time>2015-07-18T14:59:21Z</time>
      </trkpt>
      <trkpt lat="43.78717" lon="3.03123">
        <ele>521.65</ele>
        <time>2015-07-18T14:59:22Z</time>
      </trkpt>
      <trkpt lat="43.78657" lon="3.03151">
        <ele>521.17</ele>
        <time>2015-07-18T14:59:26Z</time>
      </trkpt>
      <trkpt lat="43.78643" lon="3.03161">
        <ele>521.17</ele>
        <time>2015-07-18T14:59:27Z</time>
      </trkpt>
      <trkpt lat="43.78631" lon="3.03176">
        <ele>520.69</ele>
        <time>2015-07-18T14:59:28Z</time>
      </trkpt>
      <trkpt lat="43.78618" lon="3.03193">
        <ele>520.69</ele>
        <time>2015-07-18T14:59:29Z</time>
      </trkpt>
      <trkpt lat="43.78606" lon="3.03211">
        <ele>520.69</ele>
        <time>2015-07-18T14:59:30Z</time>
      </trkpt>
      <trkpt lat="43.7858" lon="3.03245">
        <ele>520.21</ele>
        <time>2015-07-18T14:59:32Z</time>
      </trkpt>
      <trkpt lat="43.78565" lon="3.03258">
        <ele>520.21</ele>
        <time>2015-07-18T14:59:33Z</time>
      </trkpt>
      <trkpt lat="43.78549" lon="3.03267">
        <ele>520.21</ele>
        <time>2015-07-18T14:59:34Z</time>
      </trkpt>
      <trkpt lat="43.78531" lon="3.03273">
        <ele>520.21</ele>
        <time>2015-07-18T14:59:35Z</time>
      </trkpt>
      <trkpt lat="43.78515" lon="3.03278">
        <ele>520.21</ele>
        <time>2015-07-18T14:59:36Z</time>
      </trkpt>
      <trkpt lat="43.78484" lon="3.0329">
        <ele>520.69</ele>
        <time>2015-07-18T14:59:38Z</time>
      </trkpt>
      <trkpt lat="43.78471" lon="3.033">
        <ele>520.21</ele>
        <time>2015-07-18T14:59:39Z</time>
      </trkpt>
      <trkpt lat="43.78459" lon="3.03313">
        <ele>520.21</ele>
        <time>2015-07-18T14:59:40Z</time>
      </trkpt>
      <trkpt lat="43.78448" lon="3.03328">
        <ele>520.21</ele>
        <time>2015-07-18T14:59:41Z</time>
      </trkpt>
      <trkpt lat="43.78437" lon="3.03341">
        <ele>520.21</ele>
        <time>2015-07-18T14:59:42Z</time>
      </trkpt>
      <trkpt lat="43.78425" lon="3.03353">
        <ele>520.21</ele>
        <time>2015-07-18T14:59:43Z</time>
      </trkpt>
      <trkpt lat="43.78412" lon="3.0336">
        <ele>521.17</ele>
        <time>2015-07-18T14:59:44Z</time>
      </trkpt>
      <trkpt lat="43.78397" lon="3.0336">
        <ele>521.17</ele>
        <time>2015-07-18T14:59:45Z</time>
      </trkpt>
      <trkpt lat="43.78383" lon="3.03354">
        <ele>521.17</ele>
        <time>2015-07-18T14:59:46Z</time>
      </trkpt>
      <trkpt lat="43.78367" lon="3.03342">
        <ele>521.17</ele>
        <time>2015-07-18T14:59:47Z</time>
      </trkpt>
      <trkpt lat="43.7835" lon="3.03329">
        <ele>521.65</ele>
        <time>2015-07-18T14:59:48Z</time>
      </trkpt>
      <trkpt lat="43.78333" lon="3.03317">
        <ele>522.61</ele>
        <time>2015-07-18T14:59:49Z</time>
      </trkpt>
      <trkpt lat="43.78186" lon="3.0323">
        <ele>524.54</ele>
        <time>2015-07-18T14:59:57Z</time>
      </trkpt>
      <trkpt lat="43.7806" lon="3.03144">
        <ele>523.09</ele>
        <time>2015-07-18T15:00:05Z</time>
      </trkpt>
      <trkpt lat="43.78048" lon="3.03143">
        <ele>524.54</ele>
        <time>2015-07-18T15:00:06Z</time>
      </trkpt>
      <trkpt lat="43.78036" lon="3.03141">
        <ele>525.5</ele>
        <time>2015-07-18T15:00:07Z</time>
      </trkpt>
      <trkpt lat="43.78025" lon="3.03138">
        <ele>525.5</ele>
        <time>2015-07-18T15:00:08Z</time>
      </trkpt>
      <trkpt lat="43.78015" lon="3.0313">
        <ele>525.5</ele>
        <time>2015-07-18T15:00:09Z</time>
      </trkpt>
      <trkpt lat="43.78007" lon="3.03116">
        <ele>525.5</ele>
        <time>2015-07-18T15:00:10Z</time>
      </trkpt>
      <trkpt lat="43.78003" lon="3.03099">
        <ele>525.5</ele>
        <time>2015-07-18T15:00:11Z</time>
      </trkpt>
      <trkpt lat="43.77999" lon="3.03081">
        <ele>525.5</ele>
        <time>2015-07-18T15:00:12Z</time>
      </trkpt>
      <trkpt lat="43.77995" lon="3.03063">
        <ele>525.5</ele>
        <time>2015-07-18T15:00:13Z</time>
      </trkpt>
      <trkpt lat="43.77989" lon="3.03046">
        <ele>525.98</ele>
        <time>2015-07-18T15:00:14Z</time>
      </trkpt>
      <trkpt lat="43.77983" lon="3.03034">
        <ele>527.9</ele>
        <time>2015-07-18T15:00:15Z</time>
      </trkpt>
      <trkpt lat="43.77949" lon="3.02975">
        <ele>529.82</ele>
        <time>2015-07-18T15:00:21Z</time>
      </trkpt>
      <trkpt lat="43.77947" lon="3.02965">
        <ele>529.34</ele>
        <time>2015-07-18T15:00:22Z</time>
      </trkpt>
      <trkpt lat="43.77947" lon="3.02955">
        <ele>529.34</ele>
        <time>2015-07-18T15:00:23Z</time>
      </trkpt>
      <trkpt lat="43.77949" lon="3.02943">
        <ele>529.34</ele>
        <time>2015-07-18T15:00:24Z</time>
      </trkpt>
      <trkpt lat="43.77953" lon="3.02931">
        <ele>529.34</ele>
        <time>2015-07-18T15:00:25Z</time>
      </trkpt>
      <trkpt lat="43.77958" lon="3.02918">
        <ele>529.34</ele>
        <time>2015-07-18T15:00:26Z</time>
      </trkpt>
      <trkpt lat="43.77964" lon="3.02905">
        <ele>529.34</ele>
        <time>2015-07-18T15:00:27Z</time>
      </trkpt>
      <trkpt lat="43.77971" lon="3.02893">
        <ele>529.82</ele>
        <time>2015-07-18T15:00:28Z</time>
      </trkpt>
      <trkpt lat="43.77979" lon="3.02884">
        <ele>529.82</ele>
        <time>2015-07-18T15:00:29Z</time>
      </trkpt>
      <trkpt lat="43.77988" lon="3.02873">
        <ele>530.3</ele>
        <time>2015-07-18T15:00:30Z</time>
      </trkpt>
      <trkpt lat="43.77997" lon="3.02862">
        <ele>530.3</ele>
        <time>2015-07-18T15:00:31Z</time>
      </trkpt>
      <trkpt lat="43.78057" lon="3.02788">
        <ele>531.75</ele>
        <time>2015-07-18T15:00:38Z</time>
      </trkpt>
      <trkpt lat="43.78063" lon="3.02774">
        <ele>532.23</ele>
        <time>2015-07-18T15:00:39Z</time>
      </trkpt>
      <trkpt lat="43.78068" lon="3.02761">
        <ele>532.23</ele>
        <time>2015-07-18T15:00:40Z</time>
      </trkpt>
      <trkpt lat="43.78072" lon="3.02745">
        <ele>533.19</ele>
        <time>2015-07-18T15:00:41Z</time>
      </trkpt>
      <trkpt lat="43.78074" lon="3.02729">
        <ele>533.67</ele>
        <time>2015-07-18T15:00:42Z</time>
      </trkpt>
      <trkpt lat="43.78075" lon="3.02713">
        <ele>534.15</ele>
        <time>2015-07-18T15:00:43Z</time>
      </trkpt>
      <trkpt lat="43.78074" lon="3.02696">
        <ele>534.63</ele>
        <time>2015-07-18T15:00:44Z</time>
      </trkpt>
      <trkpt lat="43.78071" lon="3.02679">
        <ele>535.11</ele>
        <time>2015-07-18T15:00:45Z</time>
      </trkpt>
      <trkpt lat="43.78064" lon="3.02661">
        <ele>534.15</ele>
        <time>2015-07-18T15:00:46Z</time>
      </trkpt>
      <trkpt lat="43.78055" lon="3.02644">
        <ele>534.15</ele>
        <time>2015-07-18T15:00:47Z</time>
      </trkpt>
      <trkpt lat="43.78047" lon="3.02627">
        <ele>534.63</ele>
        <time>2015-07-18T15:00:48Z</time>
      </trkpt>
      <trkpt lat="43.78013" lon="3.02558">
        <ele>537.51</ele>
        <time>2015-07-18T15:00:52Z</time>
      </trkpt>
      <trkpt lat="43.78002" lon="3.02544">
        <ele>538.48</ele>
        <time>2015-07-18T15:00:53Z</time>
      </trkpt>
      <trkpt lat="43.77951" lon="3.02475">
        <ele>536.55</ele>
        <time>2015-07-18T15:00:58Z</time>
      </trkpt>
      <trkpt lat="43.77946" lon="3.02455">
        <ele>536.07</ele>
        <time>2015-07-18T15:00:59Z</time>
      </trkpt>
      <trkpt lat="43.77945" lon="3.02432">
        <ele>537.03</ele>
        <time>2015-07-18T15:01:00Z</time>
      </trkpt>
      <trkpt lat="43.77932" lon="3.02218">
        <ele>543.76</ele>
        <time>2015-07-18T15:01:09Z</time>
      </trkpt>
      <trkpt lat="43.77923" lon="3.02102">
        <ele>547.61</ele>
        <time>2015-07-18T15:01:15Z</time>
      </trkpt>
      <trkpt lat="43.77916" lon="3.02082">
        <ele>547.61</ele>
        <time>2015-07-18T15:01:16Z</time>
      </trkpt>
      <trkpt lat="43.77908" lon="3.02062">
        <ele>548.09</ele>
        <time>2015-07-18T15:01:17Z</time>
      </trkpt>
      <trkpt lat="43.77898" lon="3.02043">
        <ele>547.13</ele>
        <time>2015-07-18T15:01:18Z</time>
      </trkpt>
      <trkpt lat="43.77884" lon="3.02025">
        <ele>547.13</ele>
        <time>2015-07-18T15:01:19Z</time>
      </trkpt>
      <trkpt lat="43.77872" lon="3.0201">
        <ele>546.17</ele>
        <time>2015-07-18T15:01:20Z</time>
      </trkpt>
      <trkpt lat="43.7781" lon="3.01962">
        <ele>545.69</ele>
        <time>2015-07-18T15:01:24Z</time>
      </trkpt>
      <trkpt lat="43.77792" lon="3.01953">
        <ele>545.2</ele>
        <time>2015-07-18T15:01:25Z</time>
      </trkpt>
      <trkpt lat="43.77665" lon="3.01884">
        <ele>547.13</ele>
        <time>2015-07-18T15:01:33Z</time>
      </trkpt>
      <trkpt lat="43.77653" lon="3.01874">
        <ele>547.61</ele>
        <time>2015-07-18T15:01:34Z</time>
      </trkpt>
      <trkpt lat="43.77643" lon="3.01862">
        <ele>547.61</ele>
        <time>2015-07-18T15:01:35Z</time>
      </trkpt>
      <trkpt lat="43.77635" lon="3.01848">
        <ele>547.13</ele>
        <time>2015-07-18T15:01:36Z</time>
      </trkpt>
      <trkpt lat="43.77631" lon="3.0183">
        <ele>546.65</ele>
        <time>2015-07-18T15:01:37Z</time>
      </trkpt>
      <trkpt lat="43.77629" lon="3.01811">
        <ele>546.65</ele>
        <time>2015-07-18T15:01:38Z</time>
      </trkpt>
      <trkpt lat="43.7763" lon="3.01794">
        <ele>546.17</ele>
        <time>2015-07-18T15:01:39Z</time>
      </trkpt>
      <trkpt lat="43.77631" lon="3.01779">
        <ele>546.65</ele>
        <time>2015-07-18T15:01:40Z</time>
      </trkpt>
      <trkpt lat="43.77635" lon="3.01766">
        <ele>547.13</ele>
        <time>2015-07-18T15:01:41Z</time>
      </trkpt>
      <trkpt lat="43.77642" lon="3.01754">
        <ele>547.61</ele>
        <time>2015-07-18T15:01:42Z</time>
      </trkpt>
      <trkpt lat="43.77652" lon="3.01741">
        <ele>547.61</ele>
        <time>2015-07-18T15:01:43Z</time>
      </trkpt>
      <trkpt lat="43.77663" lon="3.01726">
        <ele>548.09</ele>
        <time>2015-07-18T15:01:44Z</time>
      </trkpt>
      <trkpt lat="43.7772" lon="3.01582">
        <ele>550.01</ele>
        <time>2015-07-18T15:01:51Z</time>
      </trkpt>
      <trkpt lat="43.77724" lon="3.01557">
        <ele>550.49</ele>
        <time>2015-07-18T15:01:52Z</time>
      </trkpt>
      <trkpt lat="43.7773" lon="3.01305">
        <ele>552.41</ele>
        <time>2015-07-18T15:02:01Z</time>
      </trkpt>
      <trkpt lat="43.77725" lon="3.01164">
        <ele>553.86</ele>
        <time>2015-07-18T15:02:07Z</time>
      </trkpt>
      <trkpt lat="43.77719" lon="3.0115">
        <ele>553.38</ele>
        <time>2015-07-18T15:02:08Z</time>
      </trkpt>
      <trkpt lat="43.7771" lon="3.01137">
        <ele>553.38</ele>
        <time>2015-07-18T15:02:09Z</time>
      </trkpt>
      <trkpt lat="43.77698" lon="3.01125">
        <ele>553.86</ele>
        <time>2015-07-18T15:02:10Z</time>
      </trkpt>
      <trkpt lat="43.77684" lon="3.01112">
        <ele>554.34</ele>
        <time>2015-07-18T15:02:11Z</time>
      </trkpt>
      <trkpt lat="43.77668" lon="3.01101">
        <ele>554.34</ele>
        <time>2015-07-18T15:02:12Z</time>
      </trkpt>
      <trkpt lat="43.77653" lon="3.01091">
        <ele>554.82</ele>
        <time>2015-07-18T15:02:13Z</time>
      </trkpt>
      <trkpt lat="43.77637" lon="3.01082">
        <ele>555.3</ele>
        <time>2015-07-18T15:02:14Z</time>
      </trkpt>
      <trkpt lat="43.7762" lon="3.01075">
        <ele>555.3</ele>
        <time>2015-07-18T15:02:15Z</time>
      </trkpt>
      <trkpt lat="43.77601" lon="3.01072">
        <ele>554.82</ele>
        <time>2015-07-18T15:02:16Z</time>
      </trkpt>
      <trkpt lat="43.77582" lon="3.0107">
        <ele>554.82</ele>
        <time>2015-07-18T15:02:17Z</time>
      </trkpt>
      <trkpt lat="43.77563" lon="3.01069">
        <ele>555.3</ele>
        <time>2015-07-18T15:02:18Z</time>
      </trkpt>
      <trkpt lat="43.77448" lon="3.01056">
        <ele>558.66</ele>
        <time>2015-07-18T15:02:25Z</time>
      </trkpt>
      <trkpt lat="43.77433" lon="3.01057">
        <ele>558.66</ele>
        <time>2015-07-18T15:02:26Z</time>
      </trkpt>
      <trkpt lat="43.7742" lon="3.0106">
        <ele>558.66</ele>
        <time>2015-07-18T15:02:27Z</time>
      </trkpt>
      <trkpt lat="43.77394" lon="3.01066">
        <ele>559.14</ele>
        <time>2015-07-18T15:02:29Z</time>
      </trkpt>
      <trkpt lat="43.77382" lon="3.01065">
        <ele>559.62</ele>
        <time>2015-07-18T15:02:30Z</time>
      </trkpt>
      <trkpt lat="43.77371" lon="3.01061">
        <ele>559.62</ele>
        <time>2015-07-18T15:02:31Z</time>
      </trkpt>
      <trkpt lat="43.77362" lon="3.01056">
        <ele>560.11</ele>
        <time>2015-07-18T15:02:32Z</time>
      </trkpt>
      <trkpt lat="43.77356" lon="3.01048">
        <ele>560.11</ele>
        <time>2015-07-18T15:02:33Z</time>
      </trkpt>
      <trkpt lat="43.77358" lon="3.01032">
        <ele>561.07</ele>
        <time>2015-07-18T15:02:34Z</time>
      </trkpt>
      <trkpt lat="43.77361" lon="3.01017">
        <ele>560.59</ele>
        <time>2015-07-18T15:02:35Z</time>
      </trkpt>
      <trkpt lat="43.77365" lon="3.01">
        <ele>561.07</ele>
        <time>2015-07-18T15:02:36Z</time>
      </trkpt>
      <trkpt lat="43.77371" lon="3.00983">
        <ele>561.55</ele>
        <time>2015-07-18T15:02:37Z</time>
      </trkpt>
      <trkpt lat="43.77379" lon="3.00964">
        <ele>561.07</ele>
        <time>2015-07-18T15:02:38Z</time>
      </trkpt>
      <trkpt lat="43.77387" lon="3.00946">
        <ele>561.55</ele>
        <time>2015-07-18T15:02:39Z</time>
      </trkpt>
      <trkpt lat="43.77394" lon="3.00926">
        <ele>561.55</ele>
        <time>2015-07-18T15:02:40Z</time>
      </trkpt>
      <trkpt lat="43.77401" lon="3.00888">
        <ele>562.51</ele>
        <time>2015-07-18T15:02:42Z</time>
      </trkpt>
      <trkpt lat="43.774" lon="3.00869">
        <ele>562.51</ele>
        <time>2015-07-18T15:02:43Z</time>
      </trkpt>
      <trkpt lat="43.77394" lon="3.00849">
        <ele>562.99</ele>
        <time>2015-07-18T15:02:44Z</time>
      </trkpt>
      <trkpt lat="43.77386" lon="3.00831">
        <ele>562.99</ele>
        <time>2015-07-18T15:02:45Z</time>
      </trkpt>
      <trkpt lat="43.77376" lon="3.00815">
        <ele>563.47</ele>
        <time>2015-07-18T15:02:46Z</time>
      </trkpt>
      <trkpt lat="43.77366" lon="3.00803">
        <ele>565.39</ele>
        <time>2015-07-18T15:02:47Z</time>
      </trkpt>
      <trkpt lat="43.77355" lon="3.00794">
        <ele>566.35</ele>
        <time>2015-07-18T15:02:48Z</time>
      </trkpt>
      <trkpt lat="43.77346" lon="3.00784">
        <ele>566.35</ele>
        <time>2015-07-18T15:02:49Z</time>
      </trkpt>
      <trkpt lat="43.77338" lon="3.00774">
        <ele>565.87</ele>
        <time>2015-07-18T15:02:50Z</time>
      </trkpt>
      <trkpt lat="43.77333" lon="3.00759">
        <ele>564.91</ele>
        <time>2015-07-18T15:02:51Z</time>
      </trkpt>
      <trkpt lat="43.77331" lon="3.00743">
        <ele>566.35</ele>
        <time>2015-07-18T15:02:52Z</time>
      </trkpt>
      <trkpt lat="43.77331" lon="3.00724">
        <ele>565.87</ele>
        <time>2015-07-18T15:02:53Z</time>
      </trkpt>
      <trkpt lat="43.77331" lon="3.00704">
        <ele>565.87</ele>
        <time>2015-07-18T15:02:54Z</time>
      </trkpt>
      <trkpt lat="43.77306" lon="3.00582">
        <ele>567.8</ele>
        <time>2015-07-18T15:03:00Z</time>
      </trkpt>
      <trkpt lat="43.77297" lon="3.00565">
        <ele>568.76</ele>
        <time>2015-07-18T15:03:01Z</time>
      </trkpt>
      <trkpt lat="43.77286" lon="3.00552">
        <ele>568.28</ele>
        <time>2015-07-18T15:03:02Z</time>
      </trkpt>
      <trkpt lat="43.77275" lon="3.0054">
        <ele>567.32</ele>
        <time>2015-07-18T15:03:03Z</time>
      </trkpt>
      <trkpt lat="43.77264" lon="3.00529">
        <ele>567.8</ele>
        <time>2015-07-18T15:03:04Z</time>
      </trkpt>
      <trkpt lat="43.77254" lon="3.00516">
        <ele>568.76</ele>
        <time>2015-07-18T15:03:05Z</time>
      </trkpt>
      <trkpt lat="43.77244" lon="3.00501">
        <ele>568.76</ele>
        <time>2015-07-18T15:03:06Z</time>
      </trkpt>
      <trkpt lat="43.77236" lon="3.00486">
        <ele>569.24</ele>
        <time>2015-07-18T15:03:07Z</time>
      </trkpt>
      <trkpt lat="43.7723" lon="3.0047">
        <ele>569.72</ele>
        <time>2015-07-18T15:03:08Z</time>
      </trkpt>
      <trkpt lat="43.77225" lon="3.00453">
        <ele>570.2</ele>
        <time>2015-07-18T15:03:09Z</time>
      </trkpt>
      <trkpt lat="43.77222" lon="3.00436">
        <ele>570.68</ele>
        <time>2015-07-18T15:03:10Z</time>
      </trkpt>
      <trkpt lat="43.7722" lon="3.00417">
        <ele>570.68</ele>
        <time>2015-07-18T15:03:11Z</time>
      </trkpt>
      <trkpt lat="43.77218" lon="3.00398">
        <ele>570.2</ele>
        <time>2015-07-18T15:03:12Z</time>
      </trkpt>
      <trkpt lat="43.77217" lon="3.00379">
        <ele>569.72</ele>
        <time>2015-07-18T15:03:13Z</time>
      </trkpt>
      <trkpt lat="43.77216" lon="3.0036">
        <ele>569.24</ele>
        <time>2015-07-18T15:03:14Z</time>
      </trkpt>
      <trkpt lat="43.77212" lon="3.00344">
        <ele>569.24</ele>
        <time>2015-07-18T15:03:15Z</time>
      </trkpt>
      <trkpt lat="43.77207" lon="3.00329">
        <ele>569.72</ele>
        <time>2015-07-18T15:03:16Z</time>
      </trkpt>
      <trkpt lat="43.772" lon="3.00317">
        <ele>569.24</ele>
        <time>2015-07-18T15:03:17Z</time>
      </trkpt>
      <trkpt lat="43.77193" lon="3.00307">
        <ele>568.76</ele>
        <time>2015-07-18T15:03:18Z</time>
      </trkpt>
      <trkpt lat="43.77185" lon="3.00298">
        <ele>569.24</ele>
        <time>2015-07-18T15:03:19Z</time>
      </trkpt>
      <trkpt lat="43.77176" lon="3.00291">
        <ele>569.72</ele>
        <time>2015-07-18T15:03:20Z</time>
      </trkpt>
      <trkpt lat="43.77166" lon="3.00289">
        <ele>569.72</ele>
        <time>2015-07-18T15:03:21Z</time>
      </trkpt>
      <trkpt lat="43.77153" lon="3.00289">
        <ele>571.16</ele>
        <time>2015-07-18T15:03:22Z</time>
      </trkpt>
      <trkpt lat="43.7714" lon="3.00287">
        <ele>570.68</ele>
        <time>2015-07-18T15:03:23Z</time>
      </trkpt>
      <trkpt lat="43.77073" lon="3.00267">
        <ele>572.6</ele>
        <time>2015-07-18T15:03:29Z</time>
      </trkpt>
      <trkpt lat="43.77063" lon="3.00257">
        <ele>573.56</ele>
        <time>2015-07-18T15:03:30Z</time>
      </trkpt>
      <trkpt lat="43.77054" lon="3.00242">
        <ele>574.04</ele>
        <time>2015-07-18T15:03:31Z</time>
      </trkpt>
      <trkpt lat="43.77046" lon="3.00225">
        <ele>574.53</ele>
        <time>2015-07-18T15:03:32Z</time>
      </trkpt>
      <trkpt lat="43.77039" lon="3.00206">
        <ele>574.53</ele>
        <time>2015-07-18T15:03:33Z</time>
      </trkpt>
      <trkpt lat="43.77031" lon="3.00187">
        <ele>575.01</ele>
        <time>2015-07-18T15:03:34Z</time>
      </trkpt>
      <trkpt lat="43.77025" lon="3.00167">
        <ele>575.49</ele>
        <time>2015-07-18T15:03:35Z</time>
      </trkpt>
      <trkpt lat="43.76978" lon="3.00006">
        <ele>582.22</ele>
        <time>2015-07-18T15:03:43Z</time>
      </trkpt>
      <trkpt lat="43.76964" lon="2.99988">
        <ele>582.7</ele>
        <time>2015-07-18T15:03:44Z</time>
      </trkpt>
      <trkpt lat="43.76949" lon="2.99973">
        <ele>582.7</ele>
        <time>2015-07-18T15:03:45Z</time>
      </trkpt>
      <trkpt lat="43.76835" lon="2.99872">
        <ele>587.98</ele>
        <time>2015-07-18T15:03:53Z</time>
      </trkpt>
      <trkpt lat="43.76813" lon="2.9986">
        <ele>588.95</ele>
        <time>2015-07-18T15:03:55Z</time>
      </trkpt>
      <trkpt lat="43.76806" lon="2.99853">
        <ele>589.43</ele>
        <time>2015-07-18T15:03:56Z</time>
      </trkpt>
      <trkpt lat="43.76801" lon="2.99842">
        <ele>589.91</ele>
        <time>2015-07-18T15:03:57Z</time>
      </trkpt>
      <trkpt lat="43.76798" lon="2.99829">
        <ele>589.91</ele>
        <time>2015-07-18T15:03:58Z</time>
      </trkpt>
      <trkpt lat="43.76796" lon="2.99814">
        <ele>589.91</ele>
        <time>2015-07-18T15:03:59Z</time>
      </trkpt>
      <trkpt lat="43.76789" lon="2.99764">
        <ele>591.35</ele>
        <time>2015-07-18T15:04:02Z</time>
      </trkpt>
      <trkpt lat="43.76783" lon="2.99657">
        <ele>595.19</ele>
        <time>2015-07-18T15:04:08Z</time>
      </trkpt>
      <trkpt lat="43.76778" lon="2.99641">
        <ele>595.67</ele>
        <time>2015-07-18T15:04:09Z</time>
      </trkpt>
      <trkpt lat="43.76769" lon="2.99609">
        <ele>597.12</ele>
        <time>2015-07-18T15:04:11Z</time>
      </trkpt>
      <trkpt lat="43.76767" lon="2.99594">
        <ele>597.6</ele>
        <time>2015-07-18T15:04:12Z</time>
      </trkpt>
      <trkpt lat="43.76764" lon="2.9958">
        <ele>598.08</ele>
        <time>2015-07-18T15:04:13Z</time>
      </trkpt>
      <trkpt lat="43.76761" lon="2.99568">
        <ele>598.56</ele>
        <time>2015-07-18T15:04:14Z</time>
      </trkpt>
      <trkpt lat="43.76757" lon="2.99556">
        <ele>599.52</ele>
        <time>2015-07-18T15:04:15Z</time>
      </trkpt>
      <trkpt lat="43.76753" lon="2.99546">
        <ele>600</ele>
        <time>2015-07-18T15:04:16Z</time>
      </trkpt>
      <trkpt lat="43.76748" lon="2.99537">
        <ele>600.48</ele>
        <time>2015-07-18T15:04:17Z</time>
      </trkpt>
      <trkpt lat="43.76743" lon="2.9953">
        <ele>600.48</ele>
        <time>2015-07-18T15:04:18Z</time>
      </trkpt>
      <trkpt lat="43.76737" lon="2.99527">
        <ele>600.48</ele>
        <time>2015-07-18T15:04:19Z</time>
      </trkpt>
      <trkpt lat="43.76731" lon="2.99529">
        <ele>600.48</ele>
        <time>2015-07-18T15:04:20Z</time>
      </trkpt>
      <trkpt lat="43.76724" lon="2.99535">
        <ele>601.44</ele>
        <time>2015-07-18T15:04:21Z</time>
      </trkpt>
      <trkpt lat="43.76718" lon="2.9955">
        <ele>602.4</ele>
        <time>2015-07-18T15:04:22Z</time>
      </trkpt>
      <trkpt lat="43.76717" lon="2.99562">
        <ele>601.92</ele>
        <time>2015-07-18T15:04:23Z</time>
      </trkpt>
      <trkpt lat="43.7672" lon="2.99573">
        <ele>600.96</ele>
        <time>2015-07-18T15:04:24Z</time>
      </trkpt>
      <trkpt lat="43.76726" lon="2.99584">
        <ele>600.48</ele>
        <time>2015-07-18T15:04:25Z</time>
      </trkpt>
      <trkpt lat="43.76733" lon="2.99595">
        <ele>600.96</ele>
        <time>2015-07-18T15:04:26Z</time>
      </trkpt>
      <trkpt lat="43.76737" lon="2.99608">
        <ele>600.96</ele>
        <time>2015-07-18T15:04:27Z</time>
      </trkpt>
      <trkpt lat="43.76738" lon="2.99623">
        <ele>601.44</ele>
        <time>2015-07-18T15:04:28Z</time>
      </trkpt>
      <trkpt lat="43.76738" lon="2.99637">
        <ele>601.44</ele>
        <time>2015-07-18T15:04:29Z</time>
      </trkpt>
      <trkpt lat="43.76737" lon="2.99651">
        <ele>601.92</ele>
        <time>2015-07-18T15:04:30Z</time>
      </trkpt>
      <trkpt lat="43.76735" lon="2.99674">
        <ele>602.4</ele>
        <time>2015-07-18T15:04:32Z</time>
      </trkpt>
      <trkpt lat="43.76733" lon="2.99681">
        <ele>602.4</ele>
        <time>2015-07-18T15:04:33Z</time>
      </trkpt>
      <trkpt lat="43.76729" lon="2.99685">
        <ele>602.4</ele>
        <time>2015-07-18T15:04:34Z</time>
      </trkpt>
      <trkpt lat="43.76724" lon="2.99685">
        <ele>602.88</ele>
        <time>2015-07-18T15:04:35Z</time>
      </trkpt>
      <trkpt lat="43.7672" lon="2.99681">
        <ele>603.85</ele>
        <time>2015-07-18T15:04:36Z</time>
      </trkpt>
      <trkpt lat="43.76717" lon="2.99674">
        <ele>604.33</ele>
        <time>2015-07-18T15:04:37Z</time>
      </trkpt>
      <trkpt lat="43.76716" lon="2.99663">
        <ele>603.85</ele>
        <time>2015-07-18T15:04:38Z</time>
      </trkpt>
      <trkpt lat="43.76715" lon="2.99652">
        <ele>603.85</ele>
        <time>2015-07-18T15:04:39Z</time>
      </trkpt>
      <trkpt lat="43.76687" lon="2.99555">
        <ele>604.33</ele>
        <time>2015-07-18T15:04:49Z</time>
      </trkpt>
      <trkpt lat="43.76679" lon="2.99542">
        <ele>604.33</ele>
        <time>2015-07-18T15:04:50Z</time>
      </trkpt>
      <trkpt lat="43.76669" lon="2.99529">
        <ele>604.33</ele>
        <time>2015-07-18T15:04:51Z</time>
      </trkpt>
      <trkpt lat="43.76656" lon="2.99515">
        <ele>603.85</ele>
        <time>2015-07-18T15:04:52Z</time>
      </trkpt>
      <trkpt lat="43.76641" lon="2.99502">
        <ele>603.36</ele>
        <time>2015-07-18T15:04:53Z</time>
      </trkpt>
      <trkpt lat="43.76626" lon="2.9949">
        <ele>603.36</ele>
        <time>2015-07-18T15:04:54Z</time>
      </trkpt>
      <trkpt lat="43.76562" lon="2.99434">
        <ele>601.44</ele>
        <time>2015-07-18T15:04:59Z</time>
      </trkpt>
      <trkpt lat="43.76555" lon="2.99418">
        <ele>600.96</ele>
        <time>2015-07-18T15:05:00Z</time>
      </trkpt>
      <trkpt lat="43.76553" lon="2.99402">
        <ele>600.48</ele>
        <time>2015-07-18T15:05:01Z</time>
      </trkpt>
      <trkpt lat="43.76554" lon="2.99384">
        <ele>600</ele>
        <time>2015-07-18T15:05:02Z</time>
      </trkpt>
      <trkpt lat="43.7656" lon="2.99366">
        <ele>599.04</ele>
        <time>2015-07-18T15:05:03Z</time>
      </trkpt>
      <trkpt lat="43.76571" lon="2.99349">
        <ele>600</ele>
        <time>2015-07-18T15:05:04Z</time>
      </trkpt>
      <trkpt lat="43.76583" lon="2.99334">
        <ele>600</ele>
        <time>2015-07-18T15:05:05Z</time>
      </trkpt>
      <trkpt lat="43.76596" lon="2.99322">
        <ele>600</ele>
        <time>2015-07-18T15:05:06Z</time>
      </trkpt>
      <trkpt lat="43.76608" lon="2.9931">
        <ele>600</ele>
        <time>2015-07-18T15:05:07Z</time>
      </trkpt>
      <trkpt lat="43.7662" lon="2.99296">
        <ele>600</ele>
        <time>2015-07-18T15:05:08Z</time>
      </trkpt>
      <trkpt lat="43.76632" lon="2.99281">
        <ele>600</ele>
        <time>2015-07-18T15:05:09Z</time>
      </trkpt>
      <trkpt lat="43.76642" lon="2.99262">
        <ele>599.52</ele>
        <time>2015-07-18T15:05:10Z</time>
      </trkpt>
      <trkpt lat="43.76671" lon="2.99195">
        <ele>598.56</ele>
        <time>2015-07-18T15:05:14Z</time>
      </trkpt>
      <trkpt lat="43.76672" lon="2.9918">
        <ele>598.56</ele>
        <time>2015-07-18T15:05:15Z</time>
      </trkpt>
      <trkpt lat="43.7667" lon="2.99165">
        <ele>599.04</ele>
        <time>2015-07-18T15:05:16Z</time>
      </trkpt>
      <trkpt lat="43.76665" lon="2.99149">
        <ele>599.04</ele>
        <time>2015-07-18T15:05:17Z</time>
      </trkpt>
      <trkpt lat="43.76653" lon="2.99137">
        <ele>598.56</ele>
        <time>2015-07-18T15:05:18Z</time>
      </trkpt>
      <trkpt lat="43.76639" lon="2.99128">
        <ele>597.6</ele>
        <time>2015-07-18T15:05:19Z</time>
      </trkpt>
      <trkpt lat="43.76625" lon="2.99119">
        <ele>597.12</ele>
        <time>2015-07-18T15:05:20Z</time>
      </trkpt>
      <trkpt lat="43.7661" lon="2.99114">
        <ele>596.64</ele>
        <time>2015-07-18T15:05:21Z</time>
      </trkpt>
      <trkpt lat="43.76594" lon="2.99113">
        <ele>597.6</ele>
        <time>2015-07-18T15:05:22Z</time>
      </trkpt>
      <trkpt lat="43.76577" lon="2.99116">
        <ele>598.08</ele>
        <time>2015-07-18T15:05:23Z</time>
      </trkpt>
      <trkpt lat="43.76561" lon="2.99121">
        <ele>598.08</ele>
        <time>2015-07-18T15:05:24Z</time>
      </trkpt>
      <trkpt lat="43.76545" lon="2.99131">
        <ele>599.04</ele>
        <time>2015-07-18T15:05:25Z</time>
      </trkpt>
      <trkpt lat="43.76528" lon="2.99142">
        <ele>599.52</ele>
        <time>2015-07-18T15:05:26Z</time>
      </trkpt>
      <trkpt lat="43.76512" lon="2.99155">
        <ele>600</ele>
        <time>2015-07-18T15:05:27Z</time>
      </trkpt>
      <trkpt lat="43.76313" lon="2.99318">
        <ele>601.44</ele>
        <time>2015-07-18T15:05:39Z</time>
      </trkpt>
      <trkpt lat="43.76187" lon="2.99398">
        <ele>602.4</ele>
        <time>2015-07-18T15:05:47Z</time>
      </trkpt>
      <trkpt lat="43.7615" lon="2.99413">
        <ele>602.88</ele>
        <time>2015-07-18T15:05:50Z</time>
      </trkpt>
      <trkpt lat="43.7614" lon="2.99421">
        <ele>602.88</ele>
        <time>2015-07-18T15:05:51Z</time>
      </trkpt>
      <trkpt lat="43.7613" lon="2.99431">
        <ele>603.36</ele>
        <time>2015-07-18T15:05:52Z</time>
      </trkpt>
      <trkpt lat="43.76075" lon="2.99508">
        <ele>602.88</ele>
        <time>2015-07-18T15:06:00Z</time>
      </trkpt>
      <trkpt lat="43.76021" lon="2.99591">
        <ele>603.85</ele>
        <time>2015-07-18T15:06:06Z</time>
      </trkpt>
      <trkpt lat="43.75959" lon="2.99658">
        <ele>602.88</ele>
        <time>2015-07-18T15:06:11Z</time>
      </trkpt>
      <trkpt lat="43.75945" lon="2.99667">
        <ele>602.4</ele>
        <time>2015-07-18T15:06:12Z</time>
      </trkpt>
      <trkpt lat="43.7593" lon="2.99673">
        <ele>601.92</ele>
        <time>2015-07-18T15:06:13Z</time>
      </trkpt>
      <trkpt lat="43.75913" lon="2.99679">
        <ele>602.4</ele>
        <time>2015-07-18T15:06:14Z</time>
      </trkpt>
      <trkpt lat="43.75895" lon="2.99684">
        <ele>602.88</ele>
        <time>2015-07-18T15:06:15Z</time>
      </trkpt>
      <trkpt lat="43.75825" lon="2.99708">
        <ele>604.33</ele>
        <time>2015-07-18T15:06:19Z</time>
      </trkpt>
      <trkpt lat="43.75809" lon="2.99718">
        <ele>604.33</ele>
        <time>2015-07-18T15:06:20Z</time>
      </trkpt>
      <trkpt lat="43.75762" lon="2.99746">
        <ele>605.77</ele>
        <time>2015-07-18T15:06:23Z</time>
      </trkpt>
      <trkpt lat="43.75746" lon="2.99752">
        <ele>606.25</ele>
        <time>2015-07-18T15:06:24Z</time>
      </trkpt>
      <trkpt lat="43.75731" lon="2.99755">
        <ele>606.25</ele>
        <time>2015-07-18T15:06:25Z</time>
      </trkpt>
      <trkpt lat="43.75715" lon="2.99754">
        <ele>606.73</ele>
        <time>2015-07-18T15:06:26Z</time>
      </trkpt>
      <trkpt lat="43.75699" lon="2.99748">
        <ele>607.69</ele>
        <time>2015-07-18T15:06:27Z</time>
      </trkpt>
      <trkpt lat="43.75684" lon="2.9974">
        <ele>607.21</ele>
        <time>2015-07-18T15:06:28Z</time>
      </trkpt>
      <trkpt lat="43.75668" lon="2.99731">
        <ele>607.21</ele>
        <time>2015-07-18T15:06:29Z</time>
      </trkpt>
      <trkpt lat="43.75609" lon="2.99702">
        <ele>608.17</ele>
        <time>2015-07-18T15:06:33Z</time>
      </trkpt>
      <trkpt lat="43.75594" lon="2.99699">
        <ele>608.17</ele>
        <time>2015-07-18T15:06:34Z</time>
      </trkpt>
      <trkpt lat="43.75577" lon="2.99698">
        <ele>607.69</ele>
        <time>2015-07-18T15:06:35Z</time>
      </trkpt>
      <trkpt lat="43.75561" lon="2.99703">
        <ele>607.69</ele>
        <time>2015-07-18T15:06:36Z</time>
      </trkpt>
      <trkpt lat="43.75545" lon="2.99713">
        <ele>608.17</ele>
        <time>2015-07-18T15:06:37Z</time>
      </trkpt>
      <trkpt lat="43.7553" lon="2.99721">
        <ele>608.17</ele>
        <time>2015-07-18T15:06:38Z</time>
      </trkpt>
      <trkpt lat="43.75504" lon="2.99738">
        <ele>608.17</ele>
        <time>2015-07-18T15:06:40Z</time>
      </trkpt>
      <trkpt lat="43.75493" lon="2.99749">
        <ele>608.65</ele>
        <time>2015-07-18T15:06:41Z</time>
      </trkpt>
      <trkpt lat="43.75483" lon="2.99764">
        <ele>609.13</ele>
        <time>2015-07-18T15:06:42Z</time>
      </trkpt>
      <trkpt lat="43.75474" lon="2.9978">
        <ele>609.61</ele>
        <time>2015-07-18T15:06:43Z</time>
      </trkpt>
      <trkpt lat="43.75465" lon="2.99797">
        <ele>610.09</ele>
        <time>2015-07-18T15:06:44Z</time>
      </trkpt>
      <trkpt lat="43.75458" lon="2.99813">
        <ele>609.61</ele>
        <time>2015-07-18T15:06:45Z</time>
      </trkpt>
      <trkpt lat="43.75453" lon="2.99834">
        <ele>609.61</ele>
        <time>2015-07-18T15:06:46Z</time>
      </trkpt>
      <trkpt lat="43.75448" lon="2.99855">
        <ele>610.09</ele>
        <time>2015-07-18T15:06:47Z</time>
      </trkpt>
      <trkpt lat="43.75445" lon="2.99876">
        <ele>610.57</ele>
        <time>2015-07-18T15:06:48Z</time>
      </trkpt>
      <trkpt lat="43.75444" lon="2.99897">
        <ele>610.09</ele>
        <time>2015-07-18T15:06:49Z</time>
      </trkpt>
      <trkpt lat="43.75444" lon="2.99916">
        <ele>609.61</ele>
        <time>2015-07-18T15:06:50Z</time>
      </trkpt>
      <trkpt lat="43.75447" lon="2.99934">
        <ele>609.13</ele>
        <time>2015-07-18T15:06:51Z</time>
      </trkpt>
      <trkpt lat="43.75452" lon="2.99952">
        <ele>608.65</ele>
        <time>2015-07-18T15:06:52Z</time>
      </trkpt>
      <trkpt lat="43.7546" lon="2.99971">
        <ele>608.65</ele>
        <time>2015-07-18T15:06:53Z</time>
      </trkpt>
      <trkpt lat="43.75466" lon="2.99992">
        <ele>609.13</ele>
        <time>2015-07-18T15:06:54Z</time>
      </trkpt>
      <trkpt lat="43.75519" lon="3.00153">
        <ele>618.26</ele>
        <time>2015-07-18T15:07:02Z</time>
      </trkpt>
      <trkpt lat="43.75521" lon="3.00173">
        <ele>619.23</ele>
        <time>2015-07-18T15:07:03Z</time>
      </trkpt>
      <trkpt lat="43.75519" lon="3.00191">
        <ele>620.67</ele>
        <time>2015-07-18T15:07:04Z</time>
      </trkpt>
      <trkpt lat="43.75514" lon="3.00206">
        <ele>621.63</ele>
        <time>2015-07-18T15:07:05Z</time>
      </trkpt>
      <trkpt lat="43.7551" lon="3.00219">
        <ele>622.11</ele>
        <time>2015-07-18T15:07:06Z</time>
      </trkpt>
      <trkpt lat="43.75501" lon="3.0023">
        <ele>623.55</ele>
        <time>2015-07-18T15:07:07Z</time>
      </trkpt>
      <trkpt lat="43.75496" lon="3.00242">
        <ele>624.03</ele>
        <time>2015-07-18T15:07:08Z</time>
      </trkpt>
      <trkpt lat="43.75493" lon="3.00255">
        <ele>624.99</ele>
        <time>2015-07-18T15:07:09Z</time>
      </trkpt>
      <trkpt lat="43.75491" lon="3.00267">
        <ele>624.99</ele>
        <time>2015-07-18T15:07:10Z</time>
      </trkpt>
      <trkpt lat="43.75489" lon="3.0028">
        <ele>625.47</ele>
        <time>2015-07-18T15:07:11Z</time>
      </trkpt>
      <trkpt lat="43.75488" lon="3.00291">
        <ele>625.96</ele>
        <time>2015-07-18T15:07:12Z</time>
      </trkpt>
      <trkpt lat="43.75492" lon="3.00373">
        <ele>629.32</ele>
        <time>2015-07-18T15:07:18Z</time>
      </trkpt>
      <trkpt lat="43.75496" lon="3.00389">
        <ele>629.8</ele>
        <time>2015-07-18T15:07:19Z</time>
      </trkpt>
      <trkpt lat="43.75503" lon="3.00405">
        <ele>629.8</ele>
        <time>2015-07-18T15:07:20Z</time>
      </trkpt>
      <trkpt lat="43.75514" lon="3.00419">
        <ele>630.28</ele>
        <time>2015-07-18T15:07:21Z</time>
      </trkpt>
      <trkpt lat="43.75524" lon="3.00432">
        <ele>631.24</ele>
        <time>2015-07-18T15:07:22Z</time>
      </trkpt>
      <trkpt lat="43.75539" lon="3.00461">
        <ele>632.68</ele>
        <time>2015-07-18T15:07:24Z</time>
      </trkpt>
      <trkpt lat="43.75544" lon="3.00476">
        <ele>633.65</ele>
        <time>2015-07-18T15:07:25Z</time>
      </trkpt>
      <trkpt lat="43.75547" lon="3.00492">
        <ele>634.13</ele>
        <time>2015-07-18T15:07:26Z</time>
      </trkpt>
      <trkpt lat="43.75547" lon="3.00508">
        <ele>635.09</ele>
        <time>2015-07-18T15:07:27Z</time>
      </trkpt>
      <trkpt lat="43.75546" lon="3.00525">
        <ele>635.57</ele>
        <time>2015-07-18T15:07:28Z</time>
      </trkpt>
      <trkpt lat="43.75545" lon="3.00541">
        <ele>636.05</ele>
        <time>2015-07-18T15:07:29Z</time>
      </trkpt>
      <trkpt lat="43.75533" lon="3.00602">
        <ele>638.45</ele>
        <time>2015-07-18T15:07:33Z</time>
      </trkpt>
      <trkpt lat="43.75526" lon="3.00618">
        <ele>639.41</ele>
        <time>2015-07-18T15:07:34Z</time>
      </trkpt>
      <trkpt lat="43.75519" lon="3.00632">
        <ele>639.41</ele>
        <time>2015-07-18T15:07:35Z</time>
      </trkpt>
      <trkpt lat="43.75493" lon="3.00684">
        <ele>640.86</ele>
        <time>2015-07-18T15:07:39Z</time>
      </trkpt>
      <trkpt lat="43.7549" lon="3.00697">
        <ele>641.34</ele>
        <time>2015-07-18T15:07:40Z</time>
      </trkpt>
      <trkpt lat="43.7549" lon="3.0071">
        <ele>640.86</ele>
        <time>2015-07-18T15:07:41Z</time>
      </trkpt>
      <trkpt lat="43.7549" lon="3.00722">
        <ele>640.86</ele>
        <time>2015-07-18T15:07:42Z</time>
      </trkpt>
      <trkpt lat="43.7549" lon="3.00734">
        <ele>640.86</ele>
        <time>2015-07-18T15:07:43Z</time>
      </trkpt>
      <trkpt lat="43.75493" lon="3.00778">
        <ele>645.18</ele>
        <time>2015-07-18T15:07:47Z</time>
      </trkpt>
      <trkpt lat="43.75496" lon="3.0079">
        <ele>645.66</ele>
        <time>2015-07-18T15:07:48Z</time>
      </trkpt>
      <trkpt lat="43.75501" lon="3.00801">
        <ele>646.14</ele>
        <time>2015-07-18T15:07:49Z</time>
      </trkpt>
      <trkpt lat="43.75505" lon="3.00811">
        <ele>646.14</ele>
        <time>2015-07-18T15:07:50Z</time>
      </trkpt>
      <trkpt lat="43.75512" lon="3.00822">
        <ele>647.59</ele>
        <time>2015-07-18T15:07:51Z</time>
      </trkpt>
      <trkpt lat="43.75521" lon="3.00828">
        <ele>649.51</ele>
        <time>2015-07-18T15:07:52Z</time>
      </trkpt>
      <trkpt lat="43.75531" lon="3.00837">
        <ele>650.47</ele>
        <time>2015-07-18T15:07:53Z</time>
      </trkpt>
      <trkpt lat="43.7554" lon="3.00845">
        <ele>650.95</ele>
        <time>2015-07-18T15:07:54Z</time>
      </trkpt>
      <trkpt lat="43.7555" lon="3.00851">
        <ele>650.95</ele>
        <time>2015-07-18T15:07:55Z</time>
      </trkpt>
      <trkpt lat="43.75561" lon="3.00857">
        <ele>651.43</ele>
        <time>2015-07-18T15:07:56Z</time>
      </trkpt>
      <trkpt lat="43.75665" lon="3.00925">
        <ele>655.28</ele>
        <time>2015-07-18T15:08:06Z</time>
      </trkpt>
      <trkpt lat="43.75685" lon="3.00941">
        <ele>655.76</ele>
        <time>2015-07-18T15:08:09Z</time>
      </trkpt>
      <trkpt lat="43.75692" lon="3.00949">
        <ele>656.24</ele>
        <time>2015-07-18T15:08:10Z</time>
      </trkpt>
      <trkpt lat="43.75715" lon="3.00983">
        <ele>657.2</ele>
        <time>2015-07-18T15:08:14Z</time>
      </trkpt>
      <trkpt lat="43.75719" lon="3.00992">
        <ele>657.2</ele>
        <time>2015-07-18T15:08:15Z</time>
      </trkpt>
      <trkpt lat="43.75722" lon="3.01002">
        <ele>657.68</ele>
        <time>2015-07-18T15:08:16Z</time>
      </trkpt>
      <trkpt lat="43.75723" lon="3.01013">
        <ele>657.68</ele>
        <time>2015-07-18T15:08:17Z</time>
      </trkpt>
      <trkpt lat="43.75721" lon="3.01024">
        <ele>657.2</ele>
        <time>2015-07-18T15:08:18Z</time>
      </trkpt>
      <trkpt lat="43.75719" lon="3.01035">
        <ele>657.2</ele>
        <time>2015-07-18T15:08:19Z</time>
      </trkpt>
      <trkpt lat="43.75714" lon="3.01044">
        <ele>656.72</ele>
        <time>2015-07-18T15:08:20Z</time>
      </trkpt>
      <trkpt lat="43.75709" lon="3.01053">
        <ele>656.72</ele>
        <time>2015-07-18T15:08:21Z</time>
      </trkpt>
      <trkpt lat="43.757" lon="3.01061">
        <ele>655.76</ele>
        <time>2015-07-18T15:08:22Z</time>
      </trkpt>
      <trkpt lat="43.75691" lon="3.01067">
        <ele>656.24</ele>
        <time>2015-07-18T15:08:23Z</time>
      </trkpt>
      <trkpt lat="43.75682" lon="3.01074">
        <ele>656.72</ele>
        <time>2015-07-18T15:08:24Z</time>
      </trkpt>
      <trkpt lat="43.7565" lon="3.01099">
        <ele>658.16</ele>
        <time>2015-07-18T15:08:28Z</time>
      </trkpt>
      <trkpt lat="43.75642" lon="3.01103">
        <ele>658.64</ele>
        <time>2015-07-18T15:08:29Z</time>
      </trkpt>
      <trkpt lat="43.75633" lon="3.01105">
        <ele>659.6</ele>
        <time>2015-07-18T15:08:30Z</time>
      </trkpt>
      <trkpt lat="43.75624" lon="3.01107">
        <ele>660.08</ele>
        <time>2015-07-18T15:08:31Z</time>
      </trkpt>
      <trkpt lat="43.75614" lon="3.01108">
        <ele>661.04</ele>
        <time>2015-07-18T15:08:32Z</time>
      </trkpt>
      <trkpt lat="43.75604" lon="3.01108">
        <ele>661.52</ele>
        <time>2015-07-18T15:08:33Z</time>
      </trkpt>
      <trkpt lat="43.75594" lon="3.01112">
        <ele>662.49</ele>
        <time>2015-07-18T15:08:34Z</time>
      </trkpt>
      <trkpt lat="43.75583" lon="3.01121">
        <ele>663.45</ele>
        <time>2015-07-18T15:08:35Z</time>
      </trkpt>
      <trkpt lat="43.75574" lon="3.01131">
        <ele>664.41</ele>
        <time>2015-07-18T15:08:36Z</time>
      </trkpt>
      <trkpt lat="43.75564" lon="3.01142">
        <ele>665.37</ele>
        <time>2015-07-18T15:08:37Z</time>
      </trkpt>
      <trkpt lat="43.75552" lon="3.01151">
        <ele>666.33</ele>
        <time>2015-07-18T15:08:38Z</time>
      </trkpt>
      <trkpt lat="43.75541" lon="3.0116">
        <ele>666.81</ele>
        <time>2015-07-18T15:08:39Z</time>
      </trkpt>
      <trkpt lat="43.75532" lon="3.0117">
        <ele>667.29</ele>
        <time>2015-07-18T15:08:40Z</time>
      </trkpt>
      <trkpt lat="43.75527" lon="3.01182">
        <ele>667.29</ele>
        <time>2015-07-18T15:08:41Z</time>
      </trkpt>
      <trkpt lat="43.75526" lon="3.01199">
        <ele>667.29</ele>
        <time>2015-07-18T15:08:42Z</time>
      </trkpt>
      <trkpt lat="43.75528" lon="3.01219">
        <ele>667.77</ele>
        <time>2015-07-18T15:08:43Z</time>
      </trkpt>
      <trkpt lat="43.75532" lon="3.01241">
        <ele>667.77</ele>
        <time>2015-07-18T15:08:44Z</time>
      </trkpt>
      <trkpt lat="43.75534" lon="3.01264">
        <ele>668.25</ele>
        <time>2015-07-18T15:08:45Z</time>
      </trkpt>
      <trkpt lat="43.75537" lon="3.01335">
        <ele>670.66</ele>
        <time>2015-07-18T15:08:49Z</time>
      </trkpt>
      <trkpt lat="43.75534" lon="3.01352">
        <ele>671.62</ele>
        <time>2015-07-18T15:08:50Z</time>
      </trkpt>
      <trkpt lat="43.75528" lon="3.01369">
        <ele>672.1</ele>
        <time>2015-07-18T15:08:51Z</time>
      </trkpt>
      <trkpt lat="43.75518" lon="3.01384">
        <ele>673.06</ele>
        <time>2015-07-18T15:08:52Z</time>
      </trkpt>
      <trkpt lat="43.75507" lon="3.01399">
        <ele>673.54</ele>
        <time>2015-07-18T15:08:53Z</time>
      </trkpt>
      <trkpt lat="43.75495" lon="3.01412">
        <ele>674.02</ele>
        <time>2015-07-18T15:08:54Z</time>
      </trkpt>
      <trkpt lat="43.75482" lon="3.01424">
        <ele>674.98</ele>
        <time>2015-07-18T15:08:55Z</time>
      </trkpt>
      <trkpt lat="43.7547" lon="3.01437">
        <ele>675.46</ele>
        <time>2015-07-18T15:08:56Z</time>
      </trkpt>
      <trkpt lat="43.75459" lon="3.01454">
        <ele>676.42</ele>
        <time>2015-07-18T15:08:57Z</time>
      </trkpt>
      <trkpt lat="43.75449" lon="3.01473">
        <ele>677.39</ele>
        <time>2015-07-18T15:08:58Z</time>
      </trkpt>
      <trkpt lat="43.75442" lon="3.01494">
        <ele>678.35</ele>
        <time>2015-07-18T15:08:59Z</time>
      </trkpt>
      <trkpt lat="43.75436" lon="3.01513">
        <ele>679.31</ele>
        <time>2015-07-18T15:09:00Z</time>
      </trkpt>
      <trkpt lat="43.75432" lon="3.01533">
        <ele>680.27</ele>
        <time>2015-07-18T15:09:01Z</time>
      </trkpt>
      <trkpt lat="43.75429" lon="3.01552">
        <ele>680.27</ele>
        <time>2015-07-18T15:09:02Z</time>
      </trkpt>
      <trkpt lat="43.75431" lon="3.01571">
        <ele>680.75</ele>
        <time>2015-07-18T15:09:03Z</time>
      </trkpt>
      <trkpt lat="43.75436" lon="3.0159">
        <ele>681.23</ele>
        <time>2015-07-18T15:09:04Z</time>
      </trkpt>
      <trkpt lat="43.75441" lon="3.01606">
        <ele>681.23</ele>
        <time>2015-07-18T15:09:05Z</time>
      </trkpt>
      <trkpt lat="43.75447" lon="3.01632">
        <ele>681.71</ele>
        <time>2015-07-18T15:09:07Z</time>
      </trkpt>
      <trkpt lat="43.75447" lon="3.01639">
        <ele>682.19</ele>
        <time>2015-07-18T15:09:08Z</time>
      </trkpt>
      <trkpt lat="43.75442" lon="3.01643">
        <ele>682.19</ele>
        <time>2015-07-18T15:09:09Z</time>
      </trkpt>
      <trkpt lat="43.75432" lon="3.01645">
        <ele>682.67</ele>
        <time>2015-07-18T15:09:10Z</time>
      </trkpt>
      <trkpt lat="43.75419" lon="3.01644">
        <ele>682.67</ele>
        <time>2015-07-18T15:09:11Z</time>
      </trkpt>
      <trkpt lat="43.75405" lon="3.01642">
        <ele>682.67</ele>
        <time>2015-07-18T15:09:12Z</time>
      </trkpt>
      <trkpt lat="43.75389" lon="3.01641">
        <ele>682.19</ele>
        <time>2015-07-18T15:09:13Z</time>
      </trkpt>
      <trkpt lat="43.75372" lon="3.01641">
        <ele>682.67</ele>
        <time>2015-07-18T15:09:14Z</time>
      </trkpt>
      <trkpt lat="43.75355" lon="3.01644">
        <ele>682.19</ele>
        <time>2015-07-18T15:09:15Z</time>
      </trkpt>
      <trkpt lat="43.75339" lon="3.0165">
        <ele>682.19</ele>
        <time>2015-07-18T15:09:16Z</time>
      </trkpt>
      <trkpt lat="43.75323" lon="3.01658">
        <ele>682.19</ele>
        <time>2015-07-18T15:09:17Z</time>
      </trkpt>
      <trkpt lat="43.75307" lon="3.01667">
        <ele>682.19</ele>
        <time>2015-07-18T15:09:18Z</time>
      </trkpt>
      <trkpt lat="43.75247" lon="3.01708">
        <ele>681.23</ele>
        <time>2015-07-18T15:09:22Z</time>
      </trkpt>
      <trkpt lat="43.7523" lon="3.01712">
        <ele>681.23</ele>
        <time>2015-07-18T15:09:23Z</time>
      </trkpt>
      <trkpt lat="43.75214" lon="3.01719">
        <ele>681.71</ele>
        <time>2015-07-18T15:09:24Z</time>
      </trkpt>
      <trkpt lat="43.75198" lon="3.01729">
        <ele>681.71</ele>
        <time>2015-07-18T15:09:25Z</time>
      </trkpt>
      <trkpt lat="43.75182" lon="3.01741">
        <ele>681.71</ele>
        <time>2015-07-18T15:09:26Z</time>
      </trkpt>
      <trkpt lat="43.75103" lon="3.01777">
        <ele>679.79</ele>
        <time>2015-07-18T15:09:32Z</time>
      </trkpt>
      <trkpt lat="43.75095" lon="3.01767">
        <ele>679.31</ele>
        <time>2015-07-18T15:09:33Z</time>
      </trkpt>
      <trkpt lat="43.75088" lon="3.01753">
        <ele>678.35</ele>
        <time>2015-07-18T15:09:34Z</time>
      </trkpt>
      <trkpt lat="43.75085" lon="3.01718">
        <ele>678.35</ele>
        <time>2015-07-18T15:09:36Z</time>
      </trkpt>
      <trkpt lat="43.75085" lon="3.01693">
        <ele>677.87</ele>
        <time>2015-07-18T15:09:37Z</time>
      </trkpt>
      <trkpt lat="43.75082" lon="3.01672">
        <ele>677.39</ele>
        <time>2015-07-18T15:09:38Z</time>
      </trkpt>
      <trkpt lat="43.75078" lon="3.01655">
        <ele>677.87</ele>
        <time>2015-07-18T15:09:39Z</time>
      </trkpt>
      <trkpt lat="43.75072" lon="3.01639">
        <ele>678.35</ele>
        <time>2015-07-18T15:09:40Z</time>
      </trkpt>
      <trkpt lat="43.75067" lon="3.01624">
        <ele>677.87</ele>
        <time>2015-07-18T15:09:41Z</time>
      </trkpt>
      <trkpt lat="43.7506" lon="3.01615">
        <ele>677.87</ele>
        <time>2015-07-18T15:09:42Z</time>
      </trkpt>
      <trkpt lat="43.75051" lon="3.0161">
        <ele>677.39</ele>
        <time>2015-07-18T15:09:43Z</time>
      </trkpt>
      <trkpt lat="43.75041" lon="3.01609">
        <ele>676.42</ele>
        <time>2015-07-18T15:09:44Z</time>
      </trkpt>
      <trkpt lat="43.75029" lon="3.01611">
        <ele>675.94</ele>
        <time>2015-07-18T15:09:45Z</time>
      </trkpt>
      <trkpt lat="43.75016" lon="3.01615">
        <ele>675.46</ele>
        <time>2015-07-18T15:09:46Z</time>
      </trkpt>
      <trkpt lat="43.75004" lon="3.0162">
        <ele>675.94</ele>
        <time>2015-07-18T15:09:47Z</time>
      </trkpt>
      <trkpt lat="43.74993" lon="3.01622">
        <ele>674.98</ele>
        <time>2015-07-18T15:09:48Z</time>
      </trkpt>
      <trkpt lat="43.74982" lon="3.01621">
        <ele>674.98</ele>
        <time>2015-07-18T15:09:49Z</time>
      </trkpt>
      <trkpt lat="43.7497" lon="3.01618">
        <ele>674.5</ele>
        <time>2015-07-18T15:09:50Z</time>
      </trkpt>
      <trkpt lat="43.74958" lon="3.01614">
        <ele>673.54</ele>
        <time>2015-07-18T15:09:51Z</time>
      </trkpt>
      <trkpt lat="43.74946" lon="3.01609">
        <ele>673.06</ele>
        <time>2015-07-18T15:09:52Z</time>
      </trkpt>
      <trkpt lat="43.74924" lon="3.01597">
        <ele>672.1</ele>
        <time>2015-07-18T15:09:54Z</time>
      </trkpt>
      <trkpt lat="43.74915" lon="3.01586">
        <ele>672.1</ele>
        <time>2015-07-18T15:09:55Z</time>
      </trkpt>
      <trkpt lat="43.74905" lon="3.01573">
        <ele>671.14</ele>
        <time>2015-07-18T15:09:56Z</time>
      </trkpt>
      <trkpt lat="43.7487" lon="3.01532">
        <ele>670.18</ele>
        <time>2015-07-18T15:09:59Z</time>
      </trkpt>
      <trkpt lat="43.74854" lon="3.01521">
        <ele>669.7</ele>
        <time>2015-07-18T15:10:00Z</time>
      </trkpt>
      <trkpt lat="43.74789" lon="3.01479">
        <ele>665.85</ele>
        <time>2015-07-18T15:10:05Z</time>
      </trkpt>
      <trkpt lat="43.74781" lon="3.01483">
        <ele>664.89</ele>
        <time>2015-07-18T15:10:06Z</time>
      </trkpt>
      <trkpt lat="43.74772" lon="3.01487">
        <ele>663.45</ele>
        <time>2015-07-18T15:10:07Z</time>
      </trkpt>
      <trkpt lat="43.74763" lon="3.01495">
        <ele>663.45</ele>
        <time>2015-07-18T15:10:08Z</time>
      </trkpt>
      <trkpt lat="43.74753" lon="3.01502">
        <ele>663.45</ele>
        <time>2015-07-18T15:10:09Z</time>
      </trkpt>
      <trkpt lat="43.74742" lon="3.01506">
        <ele>663.45</ele>
        <time>2015-07-18T15:10:10Z</time>
      </trkpt>
      <trkpt lat="43.74732" lon="3.01503">
        <ele>663.45</ele>
        <time>2015-07-18T15:10:11Z</time>
      </trkpt>
      <trkpt lat="43.74719" lon="3.015">
        <ele>662.97</ele>
        <time>2015-07-18T15:10:12Z</time>
      </trkpt>
      <trkpt lat="43.74708" lon="3.0149">
        <ele>662.01</ele>
        <time>2015-07-18T15:10:13Z</time>
      </trkpt>
      <trkpt lat="43.74696" lon="3.01478">
        <ele>662.49</ele>
        <time>2015-07-18T15:10:14Z</time>
      </trkpt>
      <trkpt lat="43.74683" lon="3.01468">
        <ele>662.97</ele>
        <time>2015-07-18T15:10:15Z</time>
      </trkpt>
      <trkpt lat="43.74669" lon="3.01451">
        <ele>663.93</ele>
        <time>2015-07-18T15:10:16Z</time>
      </trkpt>
      <trkpt lat="43.74659" lon="3.01427">
        <ele>663.93</ele>
        <time>2015-07-18T15:10:17Z</time>
      </trkpt>
      <trkpt lat="43.74584" lon="3.01315">
        <ele>666.81</ele>
        <time>2015-07-18T15:10:24Z</time>
      </trkpt>
      <trkpt lat="43.74571" lon="3.01304">
        <ele>666.81</ele>
        <time>2015-07-18T15:10:25Z</time>
      </trkpt>
      <trkpt lat="43.74556" lon="3.01296">
        <ele>666.81</ele>
        <time>2015-07-18T15:10:26Z</time>
      </trkpt>
      <trkpt lat="43.74541" lon="3.01288">
        <ele>667.29</ele>
        <time>2015-07-18T15:10:27Z</time>
      </trkpt>
      <trkpt lat="43.74524" lon="3.01281">
        <ele>667.77</ele>
        <time>2015-07-18T15:10:28Z</time>
      </trkpt>
      <trkpt lat="43.74507" lon="3.01275">
        <ele>667.77</ele>
        <time>2015-07-18T15:10:29Z</time>
      </trkpt>
      <trkpt lat="43.74375" lon="3.01266">
        <ele>676.42</ele>
        <time>2015-07-18T15:10:36Z</time>
      </trkpt>
      <trkpt lat="43.74341" lon="3.01275">
        <ele>678.35</ele>
        <time>2015-07-18T15:10:38Z</time>
      </trkpt>
      <trkpt lat="43.74325" lon="3.01283">
        <ele>678.83</ele>
        <time>2015-07-18T15:10:39Z</time>
      </trkpt>
      <trkpt lat="43.74311" lon="3.01296">
        <ele>679.31</ele>
        <time>2015-07-18T15:10:40Z</time>
      </trkpt>
      <trkpt lat="43.74298" lon="3.01311">
        <ele>680.27</ele>
        <time>2015-07-18T15:10:41Z</time>
      </trkpt>
      <trkpt lat="43.74286" lon="3.01328">
        <ele>680.75</ele>
        <time>2015-07-18T15:10:42Z</time>
      </trkpt>
      <trkpt lat="43.74273" lon="3.01346">
        <ele>681.71</ele>
        <time>2015-07-18T15:10:43Z</time>
      </trkpt>
      <trkpt lat="43.74261" lon="3.01365">
        <ele>682.19</ele>
        <time>2015-07-18T15:10:44Z</time>
      </trkpt>
      <trkpt lat="43.74205" lon="3.01427">
        <ele>683.15</ele>
        <time>2015-07-18T15:10:48Z</time>
      </trkpt>
      <trkpt lat="43.74178" lon="3.0145">
        <ele>683.63</ele>
        <time>2015-07-18T15:10:50Z</time>
      </trkpt>
      <trkpt lat="43.74167" lon="3.01467">
        <ele>684.12</ele>
        <time>2015-07-18T15:10:51Z</time>
      </trkpt>
      <trkpt lat="43.74156" lon="3.01485">
        <ele>684.12</ele>
        <time>2015-07-18T15:10:52Z</time>
      </trkpt>
      <trkpt lat="43.74144" lon="3.01505">
        <ele>684.6</ele>
        <time>2015-07-18T15:10:53Z</time>
      </trkpt>
      <trkpt lat="43.7413" lon="3.01524">
        <ele>684.12</ele>
        <time>2015-07-18T15:10:54Z</time>
      </trkpt>
      <trkpt lat="43.74026" lon="3.01672">
        <ele>686.52</ele>
        <time>2015-07-18T15:11:02Z</time>
      </trkpt>
      <trkpt lat="43.73949" lon="3.01748">
        <ele>687</ele>
        <time>2015-07-18T15:11:09Z</time>
      </trkpt>
      <trkpt lat="43.73942" lon="3.01757">
        <ele>687</ele>
        <time>2015-07-18T15:11:10Z</time>
      </trkpt>
      <trkpt lat="43.73905" lon="3.01802">
        <ele>687</ele>
        <time>2015-07-18T15:11:15Z</time>
      </trkpt>
      <trkpt lat="43.73891" lon="3.01814">
        <ele>687.48</ele>
        <time>2015-07-18T15:11:17Z</time>
      </trkpt>
      <trkpt lat="43.7379" lon="3.01886">
        <ele>691.81</ele>
        <time>2015-07-18T15:11:27Z</time>
      </trkpt>
      <trkpt lat="43.73745" lon="3.01908">
        <ele>692.77</ele>
        <time>2015-07-18T15:11:30Z</time>
      </trkpt>
      <trkpt lat="43.7373" lon="3.01912">
        <ele>694.21</ele>
        <time>2015-07-18T15:11:31Z</time>
      </trkpt>
      <trkpt lat="43.73667" lon="3.01926">
        <ele>698.05</ele>
        <time>2015-07-18T15:11:35Z</time>
      </trkpt>
      <trkpt lat="43.73653" lon="3.01934">
        <ele>698.53</ele>
        <time>2015-07-18T15:11:36Z</time>
      </trkpt>
      <trkpt lat="43.7364" lon="3.01945">
        <ele>699.5</ele>
        <time>2015-07-18T15:11:37Z</time>
      </trkpt>
      <trkpt lat="43.73628" lon="3.0196">
        <ele>699.98</ele>
        <time>2015-07-18T15:11:38Z</time>
      </trkpt>
      <trkpt lat="43.73619" lon="3.01978">
        <ele>700.94</ele>
        <time>2015-07-18T15:11:39Z</time>
      </trkpt>
      <trkpt lat="43.7361" lon="3.01998">
        <ele>701.9</ele>
        <time>2015-07-18T15:11:40Z</time>
      </trkpt>
      <trkpt lat="43.73602" lon="3.02017">
        <ele>702.38</ele>
        <time>2015-07-18T15:11:41Z</time>
      </trkpt>
      <trkpt lat="43.73592" lon="3.02035">
        <ele>703.82</ele>
        <time>2015-07-18T15:11:42Z</time>
      </trkpt>
      <trkpt lat="43.7358" lon="3.02051">
        <ele>704.78</ele>
        <time>2015-07-18T15:11:43Z</time>
      </trkpt>
      <trkpt lat="43.73569" lon="3.02062">
        <ele>705.75</ele>
        <time>2015-07-18T15:11:44Z</time>
      </trkpt>
      <trkpt lat="43.73555" lon="3.02066">
        <ele>706.71</ele>
        <time>2015-07-18T15:11:45Z</time>
      </trkpt>
      <trkpt lat="43.73541" lon="3.02064">
        <ele>707.19</ele>
        <time>2015-07-18T15:11:46Z</time>
      </trkpt>
      <trkpt lat="43.73526" lon="3.02062">
        <ele>707.67</ele>
        <time>2015-07-18T15:11:47Z</time>
      </trkpt>
      <trkpt lat="43.73511" lon="3.02063">
        <ele>708.15</ele>
        <time>2015-07-18T15:11:48Z</time>
      </trkpt>
      <trkpt lat="43.73495" lon="3.02067">
        <ele>709.11</ele>
        <time>2015-07-18T15:11:49Z</time>
      </trkpt>
      <trkpt lat="43.73481" lon="3.02075">
        <ele>709.59</ele>
        <time>2015-07-18T15:11:50Z</time>
      </trkpt>
      <trkpt lat="43.73467" lon="3.02087">
        <ele>710.55</ele>
        <time>2015-07-18T15:11:51Z</time>
      </trkpt>
      <trkpt lat="43.73454" lon="3.021">
        <ele>711.03</ele>
        <time>2015-07-18T15:11:52Z</time>
      </trkpt>
      <trkpt lat="43.73441" lon="3.02112">
        <ele>711.99</ele>
        <time>2015-07-18T15:11:53Z</time>
      </trkpt>
      <trkpt lat="43.73429" lon="3.02126">
        <ele>712.47</ele>
        <time>2015-07-18T15:11:54Z</time>
      </trkpt>
      <trkpt lat="43.73419" lon="3.02141">
        <ele>713.92</ele>
        <time>2015-07-18T15:11:55Z</time>
      </trkpt>
      <trkpt lat="43.73411" lon="3.02157">
        <ele>714.4</ele>
        <time>2015-07-18T15:11:56Z</time>
      </trkpt>
      <trkpt lat="43.73404" lon="3.02171">
        <ele>714.4</ele>
        <time>2015-07-18T15:11:57Z</time>
      </trkpt>
      <trkpt lat="43.73396" lon="3.02184">
        <ele>714.88</ele>
        <time>2015-07-18T15:11:58Z</time>
      </trkpt>
      <trkpt lat="43.73387" lon="3.02194">
        <ele>715.36</ele>
        <time>2015-07-18T15:11:59Z</time>
      </trkpt>
      <trkpt lat="43.73377" lon="3.02191">
        <ele>715.36</ele>
        <time>2015-07-18T15:12:00Z</time>
      </trkpt>
      <trkpt lat="43.73364" lon="3.02179">
        <ele>716.32</ele>
        <time>2015-07-18T15:12:01Z</time>
      </trkpt>
      <trkpt lat="43.73356" lon="3.02165">
        <ele>716.32</ele>
        <time>2015-07-18T15:12:02Z</time>
      </trkpt>
      <trkpt lat="43.7335" lon="3.02151">
        <ele>716.32</ele>
        <time>2015-07-18T15:12:03Z</time>
      </trkpt>
      <trkpt lat="43.7335" lon="3.02133">
        <ele>716.8</ele>
        <time>2015-07-18T15:12:04Z</time>
      </trkpt>
      <trkpt lat="43.7335" lon="3.02117">
        <ele>717.28</ele>
        <time>2015-07-18T15:12:05Z</time>
      </trkpt>
      <trkpt lat="43.7335" lon="3.02104">
        <ele>718.24</ele>
        <time>2015-07-18T15:12:06Z</time>
      </trkpt>
      <trkpt lat="43.73347" lon="3.02092">
        <ele>718.72</ele>
        <time>2015-07-18T15:12:07Z</time>
      </trkpt>
      <trkpt lat="43.73342" lon="3.02086">
        <ele>719.68</ele>
        <time>2015-07-18T15:12:08Z</time>
      </trkpt>
      <trkpt lat="43.73333" lon="3.02079">
        <ele>720.65</ele>
        <time>2015-07-18T15:12:09Z</time>
      </trkpt>
      <trkpt lat="43.73321" lon="3.02075">
        <ele>721.13</ele>
        <time>2015-07-18T15:12:10Z</time>
      </trkpt>
      <trkpt lat="43.73303" lon="3.02073">
        <ele>721.61</ele>
        <time>2015-07-18T15:12:11Z</time>
      </trkpt>
      <trkpt lat="43.73285" lon="3.02069">
        <ele>722.09</ele>
        <time>2015-07-18T15:12:12Z</time>
      </trkpt>
      <trkpt lat="43.73232" lon="3.02054">
        <ele>723.53</ele>
        <time>2015-07-18T15:12:15Z</time>
      </trkpt>
      <trkpt lat="43.7316" lon="3.02036">
        <ele>730.26</ele>
        <time>2015-07-18T15:12:20Z</time>
      </trkpt>
      <trkpt lat="43.73148" lon="3.02041">
        <ele>731.7</ele>
        <time>2015-07-18T15:12:21Z</time>
      </trkpt>
      <trkpt lat="43.73136" lon="3.02049">
        <ele>733.62</ele>
        <time>2015-07-18T15:12:22Z</time>
      </trkpt>
      <trkpt lat="43.73123" lon="3.02061">
        <ele>735.55</ele>
        <time>2015-07-18T15:12:23Z</time>
      </trkpt>
      <trkpt lat="43.73112" lon="3.02076">
        <ele>736.99</ele>
        <time>2015-07-18T15:12:24Z</time>
      </trkpt>
      <trkpt lat="43.73017" lon="3.02157">
        <ele>746.12</ele>
        <time>2015-07-18T15:12:31Z</time>
      </trkpt>
      <trkpt lat="43.73002" lon="3.02161">
        <ele>747.08</ele>
        <time>2015-07-18T15:12:32Z</time>
      </trkpt>
      <trkpt lat="43.72986" lon="3.02162">
        <ele>748.52</ele>
        <time>2015-07-18T15:12:33Z</time>
      </trkpt>
      <trkpt lat="43.72969" lon="3.02161">
        <ele>749.49</ele>
        <time>2015-07-18T15:12:34Z</time>
      </trkpt>
      <trkpt lat="43.72869" lon="3.02148">
        <ele>756.69</ele>
        <time>2015-07-18T15:12:40Z</time>
      </trkpt>
      <trkpt lat="43.72854" lon="3.02139">
        <ele>757.66</ele>
        <time>2015-07-18T15:12:41Z</time>
      </trkpt>
      <trkpt lat="43.72841" lon="3.0213">
        <ele>758.62</ele>
        <time>2015-07-18T15:12:42Z</time>
      </trkpt>
      <trkpt lat="43.72831" lon="3.02117">
        <ele>758.62</ele>
        <time>2015-07-18T15:12:43Z</time>
      </trkpt>
      <trkpt lat="43.72822" lon="3.02103">
        <ele>757.66</ele>
        <time>2015-07-18T15:12:44Z</time>
      </trkpt>
      <trkpt lat="43.72812" lon="3.02086">
        <ele>758.62</ele>
        <time>2015-07-18T15:12:45Z</time>
      </trkpt>
      <trkpt lat="43.72802" lon="3.02069">
        <ele>759.58</ele>
        <time>2015-07-18T15:12:46Z</time>
      </trkpt>
      <trkpt lat="43.72794" lon="3.02052">
        <ele>760.54</ele>
        <time>2015-07-18T15:12:47Z</time>
      </trkpt>
      <trkpt lat="43.72765" lon="3.0201">
        <ele>762.46</ele>
        <time>2015-07-18T15:12:50Z</time>
      </trkpt>
      <trkpt lat="43.72753" lon="3.01984">
        <ele>765.35</ele>
        <time>2015-07-18T15:12:52Z</time>
      </trkpt>
      <trkpt lat="43.72742" lon="3.01981">
        <ele>761.5</ele>
        <time>2015-07-18T15:12:53Z</time>
      </trkpt>
      <trkpt lat="43.72727" lon="3.01994">
        <ele>763.42</ele>
        <time>2015-07-18T15:12:55Z</time>
      </trkpt>
      <trkpt lat="43.72718" lon="3.02007">
        <ele>765.35</ele>
        <time>2015-07-18T15:12:56Z</time>
      </trkpt>
      <trkpt lat="43.72709" lon="3.02022">
        <ele>766.79</ele>
        <time>2015-07-18T15:12:57Z</time>
      </trkpt>
      <trkpt lat="43.72699" lon="3.02038">
        <ele>767.75</ele>
        <time>2015-07-18T15:12:58Z</time>
      </trkpt>
      <trkpt lat="43.72632" lon="3.02119">
        <ele>774.48</ele>
        <time>2015-07-18T15:13:04Z</time>
      </trkpt>
      <trkpt lat="43.72623" lon="3.02136">
        <ele>774.96</ele>
        <time>2015-07-18T15:13:05Z</time>
      </trkpt>
      <trkpt lat="43.72615" lon="3.02155">
        <ele>775.92</ele>
        <time>2015-07-18T15:13:06Z</time>
      </trkpt>
      <trkpt lat="43.72584" lon="3.02223">
        <ele>778.81</ele>
        <time>2015-07-18T15:13:10Z</time>
      </trkpt>
      <trkpt lat="43.72579" lon="3.02241">
        <ele>779.77</ele>
        <time>2015-07-18T15:13:11Z</time>
      </trkpt>
      <trkpt lat="43.72576" lon="3.02262">
        <ele>781.21</ele>
        <time>2015-07-18T15:13:12Z</time>
      </trkpt>
      <trkpt lat="43.72576" lon="3.02284">
        <ele>781.69</ele>
        <time>2015-07-18T15:13:13Z</time>
      </trkpt>
      <trkpt lat="43.72574" lon="3.02307">
        <ele>782.65</ele>
        <time>2015-07-18T15:13:14Z</time>
      </trkpt>
      <trkpt lat="43.72569" lon="3.02329">
        <ele>783.61</ele>
        <time>2015-07-18T15:13:15Z</time>
      </trkpt>
      <trkpt lat="43.72563" lon="3.0235">
        <ele>784.57</ele>
        <time>2015-07-18T15:13:16Z</time>
      </trkpt>
      <trkpt lat="43.72557" lon="3.02371">
        <ele>786.02</ele>
        <time>2015-07-18T15:13:17Z</time>
      </trkpt>
      <trkpt lat="43.72553" lon="3.02393">
        <ele>786.98</ele>
        <time>2015-07-18T15:13:18Z</time>
      </trkpt>
      <trkpt lat="43.72551" lon="3.02415">
        <ele>787.94</ele>
        <time>2015-07-18T15:13:19Z</time>
      </trkpt>
      <trkpt lat="43.72551" lon="3.02437">
        <ele>788.9</ele>
        <time>2015-07-18T15:13:20Z</time>
      </trkpt>
      <trkpt lat="43.72558" lon="3.02458">
        <ele>788.9</ele>
        <time>2015-07-18T15:13:21Z</time>
      </trkpt>
      <trkpt lat="43.72565" lon="3.02479">
        <ele>788.9</ele>
        <time>2015-07-18T15:13:22Z</time>
      </trkpt>
      <trkpt lat="43.72575" lon="3.025">
        <ele>788.9</ele>
        <time>2015-07-18T15:13:23Z</time>
      </trkpt>
      <trkpt lat="43.72584" lon="3.0252">
        <ele>789.86</ele>
        <time>2015-07-18T15:13:24Z</time>
      </trkpt>
      <trkpt lat="43.72591" lon="3.02541">
        <ele>790.82</ele>
        <time>2015-07-18T15:13:25Z</time>
      </trkpt>
      <trkpt lat="43.72596" lon="3.02564">
        <ele>792.26</ele>
        <time>2015-07-18T15:13:26Z</time>
      </trkpt>
      <trkpt lat="43.72599" lon="3.02587">
        <ele>793.22</ele>
        <time>2015-07-18T15:13:27Z</time>
      </trkpt>
      <trkpt lat="43.72601" lon="3.02607">
        <ele>794.19</ele>
        <time>2015-07-18T15:13:28Z</time>
      </trkpt>
      <trkpt lat="43.72601" lon="3.02623">
        <ele>794.67</ele>
        <time>2015-07-18T15:13:29Z</time>
      </trkpt>
      <trkpt lat="43.72596" lon="3.02645">
        <ele>797.07</ele>
        <time>2015-07-18T15:13:32Z</time>
      </trkpt>
      <trkpt lat="43.72592" lon="3.02648">
        <ele>798.03</ele>
        <time>2015-07-18T15:13:33Z</time>
      </trkpt>
      <trkpt lat="43.72586" lon="3.02649">
        <ele>799.47</ele>
        <time>2015-07-18T15:13:34Z</time>
      </trkpt>
      <trkpt lat="43.72581" lon="3.02641">
        <ele>800.92</ele>
        <time>2015-07-18T15:13:35Z</time>
      </trkpt>
      <trkpt lat="43.72575" lon="3.02631">
        <ele>802.36</ele>
        <time>2015-07-18T15:13:36Z</time>
      </trkpt>
      <trkpt lat="43.7257" lon="3.02621">
        <ele>803.32</ele>
        <time>2015-07-18T15:13:37Z</time>
      </trkpt>
      <trkpt lat="43.72566" lon="3.02608">
        <ele>803.32</ele>
        <time>2015-07-18T15:13:38Z</time>
      </trkpt>
      <trkpt lat="43.72562" lon="3.02595">
        <ele>804.28</ele>
        <time>2015-07-18T15:13:39Z</time>
      </trkpt>
      <trkpt lat="43.72558" lon="3.02582">
        <ele>804.76</ele>
        <time>2015-07-18T15:13:40Z</time>
      </trkpt>
      <trkpt lat="43.72552" lon="3.02572">
        <ele>805.24</ele>
        <time>2015-07-18T15:13:41Z</time>
      </trkpt>
      <trkpt lat="43.72546" lon="3.02562">
        <ele>806.2</ele>
        <time>2015-07-18T15:13:42Z</time>
      </trkpt>
      <trkpt lat="43.72539" lon="3.02555">
        <ele>806.2</ele>
        <time>2015-07-18T15:13:43Z</time>
      </trkpt>
      <trkpt lat="43.72533" lon="3.02546">
        <ele>806.2</ele>
        <time>2015-07-18T15:13:44Z</time>
      </trkpt>
      <trkpt lat="43.72497" lon="3.02512">
        <ele>808.61</ele>
        <time>2015-07-18T15:13:49Z</time>
      </trkpt>
      <trkpt lat="43.72489" lon="3.02508">
        <ele>809.09</ele>
        <time>2015-07-18T15:13:50Z</time>
      </trkpt>
      <trkpt lat="43.72481" lon="3.02506">
        <ele>809.57</ele>
        <time>2015-07-18T15:13:51Z</time>
      </trkpt>
      <trkpt lat="43.72472" lon="3.02507">
        <ele>809.57</ele>
        <time>2015-07-18T15:13:52Z</time>
      </trkpt>
      <trkpt lat="43.72462" lon="3.02512">
        <ele>809.57</ele>
        <time>2015-07-18T15:13:53Z</time>
      </trkpt>
      <trkpt lat="43.72451" lon="3.02518">
        <ele>809.57</ele>
        <time>2015-07-18T15:13:54Z</time>
      </trkpt>
      <trkpt lat="43.72438" lon="3.02523">
        <ele>811.01</ele>
        <time>2015-07-18T15:13:55Z</time>
      </trkpt>
      <trkpt lat="43.72381" lon="3.02542">
        <ele>815.82</ele>
        <time>2015-07-18T15:14:00Z</time>
      </trkpt>
      <trkpt lat="43.72241" lon="3.02557">
        <ele>832.64</ele>
        <time>2015-07-18T15:14:12Z</time>
      </trkpt>
      <trkpt lat="43.72106" lon="3.0255">
        <ele>842.73</ele>
        <time>2015-07-18T15:14:20Z</time>
      </trkpt>
      <trkpt lat="43.72083" lon="3.02551">
        <ele>845.14</ele>
        <time>2015-07-18T15:14:22Z</time>
      </trkpt>
      <trkpt lat="43.72075" lon="3.02559">
        <ele>845.14</ele>
        <time>2015-07-18T15:14:23Z</time>
      </trkpt>
      <trkpt lat="43.7207" lon="3.02569">
        <ele>846.1</ele>
        <time>2015-07-18T15:14:24Z</time>
      </trkpt>
      <trkpt lat="43.72068" lon="3.02578">
        <ele>846.58</ele>
        <time>2015-07-18T15:14:25Z</time>
      </trkpt>
      <trkpt lat="43.72068" lon="3.02589">
        <ele>846.58</ele>
        <time>2015-07-18T15:14:26Z</time>
      </trkpt>
      <trkpt lat="43.72064" lon="3.02592">
        <ele>846.58</ele>
        <time>2015-07-18T15:14:27Z</time>
      </trkpt>
      <trkpt lat="43.7206" lon="3.02589">
        <ele>847.06</ele>
        <time>2015-07-18T15:14:28Z</time>
      </trkpt>
      <trkpt lat="43.72053" lon="3.02579">
        <ele>847.54</ele>
        <time>2015-07-18T15:14:29Z</time>
      </trkpt>
      <trkpt lat="43.72045" lon="3.02568">
        <ele>848.5</ele>
        <time>2015-07-18T15:14:30Z</time>
      </trkpt>
      <trkpt lat="43.72035" lon="3.02553">
        <ele>847.06</ele>
        <time>2015-07-18T15:14:31Z</time>
      </trkpt>
      <trkpt lat="43.72024" lon="3.0254">
        <ele>845.62</ele>
        <time>2015-07-18T15:14:32Z</time>
      </trkpt>
      <trkpt lat="43.71947" lon="3.02461">
        <ele>843.21</ele>
        <time>2015-07-18T15:14:38Z</time>
      </trkpt>
      <trkpt lat="43.7192" lon="3.02455">
        <ele>845.14</ele>
        <time>2015-07-18T15:14:40Z</time>
      </trkpt>
      <trkpt lat="43.71896" lon="3.02444">
        <ele>846.1</ele>
        <time>2015-07-18T15:14:42Z</time>
      </trkpt>
      <trkpt lat="43.71886" lon="3.02432">
        <ele>847.06</ele>
        <time>2015-07-18T15:14:43Z</time>
      </trkpt>
      <trkpt lat="43.71875" lon="3.02418">
        <ele>847.06</ele>
        <time>2015-07-18T15:14:44Z</time>
      </trkpt>
      <trkpt lat="43.71865" lon="3.02402">
        <ele>848.02</ele>
        <time>2015-07-18T15:14:45Z</time>
      </trkpt>
      <trkpt lat="43.71854" lon="3.02384">
        <ele>848.98</ele>
        <time>2015-07-18T15:14:46Z</time>
      </trkpt>
      <trkpt lat="43.71811" lon="3.02303">
        <ele>853.31</ele>
        <time>2015-07-18T15:14:52Z</time>
      </trkpt>
      <trkpt lat="43.718" lon="3.02302">
        <ele>851.87</ele>
        <time>2015-07-18T15:14:53Z</time>
      </trkpt>
      <trkpt lat="43.71789" lon="3.02308">
        <ele>852.35</ele>
        <time>2015-07-18T15:14:54Z</time>
      </trkpt>
      <trkpt lat="43.71779" lon="3.02316">
        <ele>853.31</ele>
        <time>2015-07-18T15:14:55Z</time>
      </trkpt>
      <trkpt lat="43.71771" lon="3.0233">
        <ele>854.27</ele>
        <time>2015-07-18T15:14:56Z</time>
      </trkpt>
      <trkpt lat="43.7176" lon="3.02343">
        <ele>857.15</ele>
        <time>2015-07-18T15:14:57Z</time>
      </trkpt>
      <trkpt lat="43.7174" lon="3.02375">
        <ele>860.04</ele>
        <time>2015-07-18T15:14:59Z</time>
      </trkpt>
      <trkpt lat="43.71733" lon="3.02392">
        <ele>860.52</ele>
        <time>2015-07-18T15:15:00Z</time>
      </trkpt>
      <trkpt lat="43.7173" lon="3.02414">
        <ele>860.04</ele>
        <time>2015-07-18T15:15:01Z</time>
      </trkpt>
      <trkpt lat="43.71731" lon="3.02436">
        <ele>860.52</ele>
        <time>2015-07-18T15:15:02Z</time>
      </trkpt>
      <trkpt lat="43.71733" lon="3.02457">
        <ele>861</ele>
        <time>2015-07-18T15:15:03Z</time>
      </trkpt>
      <trkpt lat="43.71732" lon="3.02476">
        <ele>861</ele>
        <time>2015-07-18T15:15:04Z</time>
      </trkpt>
      <trkpt lat="43.71731" lon="3.02504">
        <ele>862.44</ele>
        <time>2015-07-18T15:15:06Z</time>
      </trkpt>
      <trkpt lat="43.71728" lon="3.02511">
        <ele>863.4</ele>
        <time>2015-07-18T15:15:07Z</time>
      </trkpt>
      <trkpt lat="43.71724" lon="3.02515">
        <ele>864.36</ele>
        <time>2015-07-18T15:15:08Z</time>
      </trkpt>
      <trkpt lat="43.71717" lon="3.0251">
        <ele>864.84</ele>
        <time>2015-07-18T15:15:09Z</time>
      </trkpt>
      <trkpt lat="43.7171" lon="3.02502">
        <ele>865.32</ele>
        <time>2015-07-18T15:15:10Z</time>
      </trkpt>
      <trkpt lat="43.71706" lon="3.02488">
        <ele>865.8</ele>
        <time>2015-07-18T15:15:11Z</time>
      </trkpt>
      <trkpt lat="43.71703" lon="3.02473">
        <ele>866.29</ele>
        <time>2015-07-18T15:15:12Z</time>
      </trkpt>
      <trkpt lat="43.71699" lon="3.02455">
        <ele>866.29</ele>
        <time>2015-07-18T15:15:13Z</time>
      </trkpt>
      <trkpt lat="43.71677" lon="3.02334">
        <ele>870.61</ele>
        <time>2015-07-18T15:15:19Z</time>
      </trkpt>
      <trkpt lat="43.71679" lon="3.02313">
        <ele>871.09</ele>
        <time>2015-07-18T15:15:20Z</time>
      </trkpt>
      <trkpt lat="43.71684" lon="3.02294">
        <ele>872.53</ele>
        <time>2015-07-18T15:15:21Z</time>
      </trkpt>
      <trkpt lat="43.71692" lon="3.0226">
        <ele>874.46</ele>
        <time>2015-07-18T15:15:23Z</time>
      </trkpt>
      <trkpt lat="43.71693" lon="3.02244">
        <ele>875.42</ele>
        <time>2015-07-18T15:15:24Z</time>
      </trkpt>
      <trkpt lat="43.71691" lon="3.02228">
        <ele>875.9</ele>
        <time>2015-07-18T15:15:25Z</time>
      </trkpt>
      <trkpt lat="43.71688" lon="3.02214">
        <ele>877.34</ele>
        <time>2015-07-18T15:15:26Z</time>
      </trkpt>
      <trkpt lat="43.71683" lon="3.02203">
        <ele>877.82</ele>
        <time>2015-07-18T15:15:27Z</time>
      </trkpt>
      <trkpt lat="43.71677" lon="3.02197">
        <ele>878.3</ele>
        <time>2015-07-18T15:15:28Z</time>
      </trkpt>
      <trkpt lat="43.71669" lon="3.02196">
        <ele>878.3</ele>
        <time>2015-07-18T15:15:29Z</time>
      </trkpt>
      <trkpt lat="43.71659" lon="3.02202">
        <ele>878.78</ele>
        <time>2015-07-18T15:15:30Z</time>
      </trkpt>
      <trkpt lat="43.71648" lon="3.02211">
        <ele>879.74</ele>
        <time>2015-07-18T15:15:31Z</time>
      </trkpt>
      <trkpt lat="43.71638" lon="3.02224">
        <ele>880.71</ele>
        <time>2015-07-18T15:15:32Z</time>
      </trkpt>
      <trkpt lat="43.7163" lon="3.02239">
        <ele>881.67</ele>
        <time>2015-07-18T15:15:33Z</time>
      </trkpt>
      <trkpt lat="43.71623" lon="3.02256">
        <ele>882.15</ele>
        <time>2015-07-18T15:15:34Z</time>
      </trkpt>
      <trkpt lat="43.71614" lon="3.02271">
        <ele>883.11</ele>
        <time>2015-07-18T15:15:35Z</time>
      </trkpt>
      <trkpt lat="43.71603" lon="3.02286">
        <ele>884.55</ele>
        <time>2015-07-18T15:15:36Z</time>
      </trkpt>
      <trkpt lat="43.7159" lon="3.02299">
        <ele>886.47</ele>
        <time>2015-07-18T15:15:37Z</time>
      </trkpt>
      <trkpt lat="43.71574" lon="3.02311">
        <ele>887.91</ele>
        <time>2015-07-18T15:15:38Z</time>
      </trkpt>
      <trkpt lat="43.71559" lon="3.02324">
        <ele>889.36</ele>
        <time>2015-07-18T15:15:39Z</time>
      </trkpt>
      <trkpt lat="43.71476" lon="3.0242">
        <ele>899.93</ele>
        <time>2015-07-18T15:15:46Z</time>
      </trkpt>
      <trkpt lat="43.71454" lon="3.02443">
        <ele>902.82</ele>
        <time>2015-07-18T15:15:49Z</time>
      </trkpt>
      <trkpt lat="43.71446" lon="3.02447">
        <ele>903.78</ele>
        <time>2015-07-18T15:15:50Z</time>
      </trkpt>
      <trkpt lat="43.71438" lon="3.02447">
        <ele>904.74</ele>
        <time>2015-07-18T15:15:51Z</time>
      </trkpt>
      <trkpt lat="43.71429" lon="3.02444">
        <ele>905.7</ele>
        <time>2015-07-18T15:15:52Z</time>
      </trkpt>
      <trkpt lat="43.7142" lon="3.02441">
        <ele>906.66</ele>
        <time>2015-07-18T15:15:53Z</time>
      </trkpt>
      <trkpt lat="43.71326" lon="3.02433">
        <ele>912.91</ele>
        <time>2015-07-18T15:16:02Z</time>
      </trkpt>
      <trkpt lat="43.71316" lon="3.02436">
        <ele>913.39</ele>
        <time>2015-07-18T15:16:03Z</time>
      </trkpt>
      <trkpt lat="43.71305" lon="3.0244">
        <ele>914.35</ele>
        <time>2015-07-18T15:16:04Z</time>
      </trkpt>
      <trkpt lat="43.71283" lon="3.02451">
        <ele>916.27</ele>
        <time>2015-07-18T15:16:06Z</time>
      </trkpt>
      <trkpt lat="43.71272" lon="3.02459">
        <ele>917.24</ele>
        <time>2015-07-18T15:16:07Z</time>
      </trkpt>
      <trkpt lat="43.71239" lon="3.02486">
        <ele>920.12</ele>
        <time>2015-07-18T15:16:10Z</time>
      </trkpt>
      <trkpt lat="43.71229" lon="3.02497">
        <ele>921.08</ele>
        <time>2015-07-18T15:16:11Z</time>
      </trkpt>
      <trkpt lat="43.71218" lon="3.02508">
        <ele>922.52</ele>
        <time>2015-07-18T15:16:12Z</time>
      </trkpt>
      <trkpt lat="43.71206" lon="3.02517">
        <ele>923.48</ele>
        <time>2015-07-18T15:16:13Z</time>
      </trkpt>
      <trkpt lat="43.71195" lon="3.02524">
        <ele>924.45</ele>
        <time>2015-07-18T15:16:14Z</time>
      </trkpt>
      <trkpt lat="43.71184" lon="3.02531">
        <ele>924.93</ele>
        <time>2015-07-18T15:16:15Z</time>
      </trkpt>
      <trkpt lat="43.71173" lon="3.02538">
        <ele>925.41</ele>
        <time>2015-07-18T15:16:16Z</time>
      </trkpt>
      <trkpt lat="43.71163" lon="3.02547">
        <ele>925.89</ele>
        <time>2015-07-18T15:16:17Z</time>
      </trkpt>
      <trkpt lat="43.71154" lon="3.02556">
        <ele>925.41</ele>
        <time>2015-07-18T15:16:18Z</time>
      </trkpt>
      <trkpt lat="43.71071" lon="3.02654">
        <ele>921.08</ele>
        <time>2015-07-18T15:16:28Z</time>
      </trkpt>
      <trkpt lat="43.7106" lon="3.02661">
        <ele>920.6</ele>
        <time>2015-07-18T15:16:29Z</time>
      </trkpt>
      <trkpt lat="43.71049" lon="3.02667">
        <ele>920.6</ele>
        <time>2015-07-18T15:16:30Z</time>
      </trkpt>
      <trkpt lat="43.71016" lon="3.0268">
        <ele>919.16</ele>
        <time>2015-07-18T15:16:33Z</time>
      </trkpt>
      <trkpt lat="43.71006" lon="3.0268">
        <ele>919.16</ele>
        <time>2015-07-18T15:16:34Z</time>
      </trkpt>
      <trkpt lat="43.70995" lon="3.02678">
        <ele>918.68</ele>
        <time>2015-07-18T15:16:35Z</time>
      </trkpt>
      <trkpt lat="43.70985" lon="3.02674">
        <ele>918.68</ele>
        <time>2015-07-18T15:16:36Z</time>
      </trkpt>
      <trkpt lat="43.70975" lon="3.0267">
        <ele>918.68</ele>
        <time>2015-07-18T15:16:37Z</time>
      </trkpt>
      <trkpt lat="43.70964" lon="3.02669">
        <ele>918.2</ele>
        <time>2015-07-18T15:16:38Z</time>
      </trkpt>
      <trkpt lat="43.70953" lon="3.0267">
        <ele>917.72</ele>
        <time>2015-07-18T15:16:39Z</time>
      </trkpt>
      <trkpt lat="43.70942" lon="3.02674">
        <ele>917.72</ele>
        <time>2015-07-18T15:16:40Z</time>
      </trkpt>
      <trkpt lat="43.7093" lon="3.02678">
        <ele>917.72</ele>
        <time>2015-07-18T15:16:41Z</time>
      </trkpt>
      <trkpt lat="43.7088" lon="3.02706">
        <ele>915.31</ele>
        <time>2015-07-18T15:16:46Z</time>
      </trkpt>
      <trkpt lat="43.70873" lon="3.02716">
        <ele>915.31</ele>
        <time>2015-07-18T15:16:47Z</time>
      </trkpt>
      <trkpt lat="43.70866" lon="3.02724">
        <ele>914.83</ele>
        <time>2015-07-18T15:16:48Z</time>
      </trkpt>
      <trkpt lat="43.70858" lon="3.02726">
        <ele>915.31</ele>
        <time>2015-07-18T15:16:49Z</time>
      </trkpt>
      <trkpt lat="43.7085" lon="3.02725">
        <ele>915.79</ele>
        <time>2015-07-18T15:16:50Z</time>
      </trkpt>
      <trkpt lat="43.70841" lon="3.0272">
        <ele>915.79</ele>
        <time>2015-07-18T15:16:51Z</time>
      </trkpt>
      <trkpt lat="43.70833" lon="3.0271">
        <ele>915.31</ele>
        <time>2015-07-18T15:16:52Z</time>
      </trkpt>
      <trkpt lat="43.70825" lon="3.027">
        <ele>915.31</ele>
        <time>2015-07-18T15:16:53Z</time>
      </trkpt>
      <trkpt lat="43.70817" lon="3.02688">
        <ele>913.87</ele>
        <time>2015-07-18T15:16:54Z</time>
      </trkpt>
      <trkpt lat="43.7075" lon="3.02597">
        <ele>910.03</ele>
        <time>2015-07-18T15:17:02Z</time>
      </trkpt>
      <trkpt lat="43.70739" lon="3.0259">
        <ele>910.03</ele>
        <time>2015-07-18T15:17:03Z</time>
      </trkpt>
      <trkpt lat="43.70726" lon="3.02585">
        <ele>909.54</ele>
        <time>2015-07-18T15:17:04Z</time>
      </trkpt>
      <trkpt lat="43.70713" lon="3.02583">
        <ele>909.54</ele>
        <time>2015-07-18T15:17:05Z</time>
      </trkpt>
      <trkpt lat="43.707" lon="3.02581">
        <ele>909.06</ele>
        <time>2015-07-18T15:17:06Z</time>
      </trkpt>
      <trkpt lat="43.70665" lon="3.02575">
        <ele>908.1</ele>
        <time>2015-07-18T15:17:09Z</time>
      </trkpt>
      <trkpt lat="43.70655" lon="3.02569">
        <ele>907.62</ele>
        <time>2015-07-18T15:17:10Z</time>
      </trkpt>
      <trkpt lat="43.70644" lon="3.0256">
        <ele>907.14</ele>
        <time>2015-07-18T15:17:11Z</time>
      </trkpt>
      <trkpt lat="43.70634" lon="3.02549">
        <ele>907.14</ele>
        <time>2015-07-18T15:17:12Z</time>
      </trkpt>
      <trkpt lat="43.70626" lon="3.02536">
        <ele>906.66</ele>
        <time>2015-07-18T15:17:13Z</time>
      </trkpt>
      <trkpt lat="43.70619" lon="3.02522">
        <ele>906.66</ele>
        <time>2015-07-18T15:17:14Z</time>
      </trkpt>
      <trkpt lat="43.70614" lon="3.02507">
        <ele>906.66</ele>
        <time>2015-07-18T15:17:15Z</time>
      </trkpt>
      <trkpt lat="43.70609" lon="3.02492">
        <ele>906.18</ele>
        <time>2015-07-18T15:17:16Z</time>
      </trkpt>
      <trkpt lat="43.70598" lon="3.02465">
        <ele>905.7</ele>
        <time>2015-07-18T15:17:18Z</time>
      </trkpt>
      <trkpt lat="43.70589" lon="3.02456">
        <ele>905.22</ele>
        <time>2015-07-18T15:17:19Z</time>
      </trkpt>
      <trkpt lat="43.7058" lon="3.02453">
        <ele>904.74</ele>
        <time>2015-07-18T15:17:20Z</time>
      </trkpt>
      <trkpt lat="43.70569" lon="3.02453">
        <ele>903.78</ele>
        <time>2015-07-18T15:17:21Z</time>
      </trkpt>
      <trkpt lat="43.70558" lon="3.02456">
        <ele>902.82</ele>
        <time>2015-07-18T15:17:22Z</time>
      </trkpt>
      <trkpt lat="43.70547" lon="3.02457">
        <ele>902.82</ele>
        <time>2015-07-18T15:17:23Z</time>
      </trkpt>
      <trkpt lat="43.70537" lon="3.02454">
        <ele>902.82</ele>
        <time>2015-07-18T15:17:24Z</time>
      </trkpt>
      <trkpt lat="43.70529" lon="3.02448">
        <ele>902.82</ele>
        <time>2015-07-18T15:17:25Z</time>
      </trkpt>
      <trkpt lat="43.70524" lon="3.02435">
        <ele>901.85</ele>
        <time>2015-07-18T15:17:26Z</time>
      </trkpt>
      <trkpt lat="43.70519" lon="3.02419">
        <ele>901.37</ele>
        <time>2015-07-18T15:17:27Z</time>
      </trkpt>
      <trkpt lat="43.70515" lon="3.02401">
        <ele>901.37</ele>
        <time>2015-07-18T15:17:28Z</time>
      </trkpt>
      <trkpt lat="43.70512" lon="3.02383">
        <ele>900.89</ele>
        <time>2015-07-18T15:17:29Z</time>
      </trkpt>
      <trkpt lat="43.70509" lon="3.02365">
        <ele>900.89</ele>
        <time>2015-07-18T15:17:30Z</time>
      </trkpt>
      <trkpt lat="43.70495" lon="3.02288">
        <ele>903.78</ele>
        <time>2015-07-18T15:17:35Z</time>
      </trkpt>
      <trkpt lat="43.7049" lon="3.02273">
        <ele>903.78</ele>
        <time>2015-07-18T15:17:36Z</time>
      </trkpt>
      <trkpt lat="43.70482" lon="3.02261">
        <ele>903.78</ele>
        <time>2015-07-18T15:17:37Z</time>
      </trkpt>
      <trkpt lat="43.70473" lon="3.02252">
        <ele>903.78</ele>
        <time>2015-07-18T15:17:38Z</time>
      </trkpt>
      <trkpt lat="43.70462" lon="3.02244">
        <ele>903.78</ele>
        <time>2015-07-18T15:17:39Z</time>
      </trkpt>
      <trkpt lat="43.70452" lon="3.02235">
        <ele>903.3</ele>
        <time>2015-07-18T15:17:40Z</time>
      </trkpt>
      <trkpt lat="43.70426" lon="3.02206">
        <ele>901.37</ele>
        <time>2015-07-18T15:17:43Z</time>
      </trkpt>
      <trkpt lat="43.70421" lon="3.02194">
        <ele>900.89</ele>
        <time>2015-07-18T15:17:44Z</time>
      </trkpt>
      <trkpt lat="43.70418" lon="3.02181">
        <ele>900.89</ele>
        <time>2015-07-18T15:17:45Z</time>
      </trkpt>
      <trkpt lat="43.70416" lon="3.02168">
        <ele>900.89</ele>
        <time>2015-07-18T15:17:46Z</time>
      </trkpt>
      <trkpt lat="43.70413" lon="3.02155">
        <ele>900.89</ele>
        <time>2015-07-18T15:17:47Z</time>
      </trkpt>
      <trkpt lat="43.70407" lon="3.02143">
        <ele>900.41</ele>
        <time>2015-07-18T15:17:48Z</time>
      </trkpt>
      <trkpt lat="43.70398" lon="3.02134">
        <ele>899.93</ele>
        <time>2015-07-18T15:17:49Z</time>
      </trkpt>
      <trkpt lat="43.70388" lon="3.02128">
        <ele>899.93</ele>
        <time>2015-07-18T15:17:50Z</time>
      </trkpt>
      <trkpt lat="43.70377" lon="3.02124">
        <ele>899.45</ele>
        <time>2015-07-18T15:17:51Z</time>
      </trkpt>
      <trkpt lat="43.70366" lon="3.02119">
        <ele>898.97</ele>
        <time>2015-07-18T15:17:52Z</time>
      </trkpt>
      <trkpt lat="43.70357" lon="3.02111">
        <ele>898.49</ele>
        <time>2015-07-18T15:17:53Z</time>
      </trkpt>
      <trkpt lat="43.70349" lon="3.02101">
        <ele>898.01</ele>
        <time>2015-07-18T15:17:54Z</time>
      </trkpt>
      <trkpt lat="43.70342" lon="3.02089">
        <ele>898.01</ele>
        <time>2015-07-18T15:17:55Z</time>
      </trkpt>
      <trkpt lat="43.70337" lon="3.02075">
        <ele>898.49</ele>
        <time>2015-07-18T15:17:56Z</time>
      </trkpt>
      <trkpt lat="43.70334" lon="3.0206">
        <ele>898.49</ele>
        <time>2015-07-18T15:17:57Z</time>
      </trkpt>
      <trkpt lat="43.70331" lon="3.02045">
        <ele>898.49</ele>
        <time>2015-07-18T15:17:58Z</time>
      </trkpt>
      <trkpt lat="43.70327" lon="3.02002">
        <ele>898.49</ele>
        <time>2015-07-18T15:18:01Z</time>
      </trkpt>
      <trkpt lat="43.70328" lon="3.01989">
        <ele>898.49</ele>
        <time>2015-07-18T15:18:02Z</time>
      </trkpt>
      <trkpt lat="43.70329" lon="3.01965">
        <ele>898.01</ele>
        <time>2015-07-18T15:18:04Z</time>
      </trkpt>
      <trkpt lat="43.70327" lon="3.01956">
        <ele>898.01</ele>
        <time>2015-07-18T15:18:05Z</time>
      </trkpt>
      <trkpt lat="43.70321" lon="3.01951">
        <ele>898.01</ele>
        <time>2015-07-18T15:18:06Z</time>
      </trkpt>
      <trkpt lat="43.70314" lon="3.01951">
        <ele>897.53</ele>
        <time>2015-07-18T15:18:07Z</time>
      </trkpt>
      <trkpt lat="43.70306" lon="3.01956">
        <ele>897.05</ele>
        <time>2015-07-18T15:18:08Z</time>
      </trkpt>
      <trkpt lat="43.70298" lon="3.01965">
        <ele>897.05</ele>
        <time>2015-07-18T15:18:09Z</time>
      </trkpt>
      <trkpt lat="43.70291" lon="3.01977">
        <ele>896.57</ele>
        <time>2015-07-18T15:18:10Z</time>
      </trkpt>
      <trkpt lat="43.70282" lon="3.01994">
        <ele>896.57</ele>
        <time>2015-07-18T15:18:11Z</time>
      </trkpt>
      <trkpt lat="43.70274" lon="3.0201">
        <ele>896.57</ele>
        <time>2015-07-18T15:18:12Z</time>
      </trkpt>
      <trkpt lat="43.70242" lon="3.0208">
        <ele>895.12</ele>
        <time>2015-07-18T15:18:17Z</time>
      </trkpt>
      <trkpt lat="43.70235" lon="3.02092">
        <ele>893.68</ele>
        <time>2015-07-18T15:18:18Z</time>
      </trkpt>
      <trkpt lat="43.70229" lon="3.02102">
        <ele>893.2</ele>
        <time>2015-07-18T15:18:19Z</time>
      </trkpt>
      <trkpt lat="43.70221" lon="3.02111">
        <ele>891.28</ele>
        <time>2015-07-18T15:18:20Z</time>
      </trkpt>
      <trkpt lat="43.70213" lon="3.02119">
        <ele>889.84</ele>
        <time>2015-07-18T15:18:21Z</time>
      </trkpt>
      <trkpt lat="43.70202" lon="3.02126">
        <ele>888.88</ele>
        <time>2015-07-18T15:18:22Z</time>
      </trkpt>
      <trkpt lat="43.70191" lon="3.02132">
        <ele>888.88</ele>
        <time>2015-07-18T15:18:23Z</time>
      </trkpt>
      <trkpt lat="43.70158" lon="3.0215">
        <ele>887.43</ele>
        <time>2015-07-18T15:18:26Z</time>
      </trkpt>
      <trkpt lat="43.70146" lon="3.02151">
        <ele>886.95</ele>
        <time>2015-07-18T15:18:27Z</time>
      </trkpt>
      <trkpt lat="43.70134" lon="3.0215">
        <ele>885.99</ele>
        <time>2015-07-18T15:18:28Z</time>
      </trkpt>
      <trkpt lat="43.70122" lon="3.02147">
        <ele>885.03</ele>
        <time>2015-07-18T15:18:29Z</time>
      </trkpt>
      <trkpt lat="43.70111" lon="3.02141">
        <ele>885.03</ele>
        <time>2015-07-18T15:18:30Z</time>
      </trkpt>
      <trkpt lat="43.70102" lon="3.0213">
        <ele>885.03</ele>
        <time>2015-07-18T15:18:31Z</time>
      </trkpt>
      <trkpt lat="43.70094" lon="3.02116">
        <ele>884.07</ele>
        <time>2015-07-18T15:18:32Z</time>
      </trkpt>
      <trkpt lat="43.70088" lon="3.02101">
        <ele>883.59</ele>
        <time>2015-07-18T15:18:33Z</time>
      </trkpt>
      <trkpt lat="43.70083" lon="3.02083">
        <ele>883.11</ele>
        <time>2015-07-18T15:18:34Z</time>
      </trkpt>
      <trkpt lat="43.70081" lon="3.02067">
        <ele>882.15</ele>
        <time>2015-07-18T15:18:35Z</time>
      </trkpt>
      <trkpt lat="43.70085" lon="3.02054">
        <ele>880.22</ele>
        <time>2015-07-18T15:18:36Z</time>
      </trkpt>
      <trkpt lat="43.70094" lon="3.02042">
        <ele>880.22</ele>
        <time>2015-07-18T15:18:37Z</time>
      </trkpt>
      <trkpt lat="43.701" lon="3.02028">
        <ele>880.71</ele>
        <time>2015-07-18T15:18:38Z</time>
      </trkpt>
      <trkpt lat="43.70104" lon="3.02014">
        <ele>880.22</ele>
        <time>2015-07-18T15:18:39Z</time>
      </trkpt>
      <trkpt lat="43.70106" lon="3.02">
        <ele>880.22</ele>
        <time>2015-07-18T15:18:40Z</time>
      </trkpt>
      <trkpt lat="43.70106" lon="3.01986">
        <ele>879.74</ele>
        <time>2015-07-18T15:18:41Z</time>
      </trkpt>
      <trkpt lat="43.70103" lon="3.01972">
        <ele>879.26</ele>
        <time>2015-07-18T15:18:42Z</time>
      </trkpt>
      <trkpt lat="43.70097" lon="3.01959">
        <ele>878.78</ele>
        <time>2015-07-18T15:18:43Z</time>
      </trkpt>
      <trkpt lat="43.70087" lon="3.01947">
        <ele>877.82</ele>
        <time>2015-07-18T15:18:44Z</time>
      </trkpt>
      <trkpt lat="43.70074" lon="3.01934">
        <ele>877.34</ele>
        <time>2015-07-18T15:18:45Z</time>
      </trkpt>
      <trkpt lat="43.7006" lon="3.01923">
        <ele>876.86</ele>
        <time>2015-07-18T15:18:46Z</time>
      </trkpt>
      <trkpt lat="43.70017" lon="3.01893">
        <ele>874.46</ele>
        <time>2015-07-18T15:18:49Z</time>
      </trkpt>
      <trkpt lat="43.69977" lon="3.01871">
        <ele>871.57</ele>
        <time>2015-07-18T15:18:52Z</time>
      </trkpt>
      <trkpt lat="43.69967" lon="3.0186">
        <ele>870.61</ele>
        <time>2015-07-18T15:18:53Z</time>
      </trkpt>
      <trkpt lat="43.69959" lon="3.01846">
        <ele>870.13</ele>
        <time>2015-07-18T15:18:54Z</time>
      </trkpt>
      <trkpt lat="43.69953" lon="3.0183">
        <ele>869.17</ele>
        <time>2015-07-18T15:18:55Z</time>
      </trkpt>
      <trkpt lat="43.6995" lon="3.01812">
        <ele>867.73</ele>
        <time>2015-07-18T15:18:56Z</time>
      </trkpt>
      <trkpt lat="43.69949" lon="3.01794">
        <ele>865.8</ele>
        <time>2015-07-18T15:18:57Z</time>
      </trkpt>
      <trkpt lat="43.69953" lon="3.01776">
        <ele>865.8</ele>
        <time>2015-07-18T15:18:58Z</time>
      </trkpt>
      <trkpt lat="43.69959" lon="3.01759">
        <ele>865.8</ele>
        <time>2015-07-18T15:18:59Z</time>
      </trkpt>
      <trkpt lat="43.69965" lon="3.01742">
        <ele>865.32</ele>
        <time>2015-07-18T15:19:00Z</time>
      </trkpt>
      <trkpt lat="43.69975" lon="3.01713">
        <ele>864.36</ele>
        <time>2015-07-18T15:19:02Z</time>
      </trkpt>
      <trkpt lat="43.69983" lon="3.01692">
        <ele>863.4</ele>
        <time>2015-07-18T15:19:04Z</time>
      </trkpt>
      <trkpt lat="43.69982" lon="3.01684">
        <ele>862.44</ele>
        <time>2015-07-18T15:19:05Z</time>
      </trkpt>
      <trkpt lat="43.69968" lon="3.0168">
        <ele>861.96</ele>
        <time>2015-07-18T15:19:07Z</time>
      </trkpt>
      <trkpt lat="43.69959" lon="3.0168">
        <ele>861.48</ele>
        <time>2015-07-18T15:19:08Z</time>
      </trkpt>
      <trkpt lat="43.69948" lon="3.01681">
        <ele>861</ele>
        <time>2015-07-18T15:19:09Z</time>
      </trkpt>
      <trkpt lat="43.69936" lon="3.01679">
        <ele>860.52</ele>
        <time>2015-07-18T15:19:10Z</time>
      </trkpt>
      <trkpt lat="43.69924" lon="3.01677">
        <ele>859.56</ele>
        <time>2015-07-18T15:19:11Z</time>
      </trkpt>
      <trkpt lat="43.69912" lon="3.01681">
        <ele>858.59</ele>
        <time>2015-07-18T15:19:12Z</time>
      </trkpt>
      <trkpt lat="43.69901" lon="3.0169">
        <ele>858.11</ele>
        <time>2015-07-18T15:19:13Z</time>
      </trkpt>
      <trkpt lat="43.69893" lon="3.01703">
        <ele>857.15</ele>
        <time>2015-07-18T15:19:14Z</time>
      </trkpt>
      <trkpt lat="43.69886" lon="3.01718">
        <ele>856.67</ele>
        <time>2015-07-18T15:19:15Z</time>
      </trkpt>
      <trkpt lat="43.69879" lon="3.01732">
        <ele>856.19</ele>
        <time>2015-07-18T15:19:16Z</time>
      </trkpt>
      <trkpt lat="43.69871" lon="3.01746">
        <ele>855.23</ele>
        <time>2015-07-18T15:19:17Z</time>
      </trkpt>
      <trkpt lat="43.69861" lon="3.01757">
        <ele>854.75</ele>
        <time>2015-07-18T15:19:18Z</time>
      </trkpt>
      <trkpt lat="43.6985" lon="3.01765">
        <ele>853.79</ele>
        <time>2015-07-18T15:19:19Z</time>
      </trkpt>
      <trkpt lat="43.69837" lon="3.01769">
        <ele>853.31</ele>
        <time>2015-07-18T15:19:20Z</time>
      </trkpt>
      <trkpt lat="43.69825" lon="3.01771">
        <ele>852.83</ele>
        <time>2015-07-18T15:19:21Z</time>
      </trkpt>
      <trkpt lat="43.69803" lon="3.01779">
        <ele>851.38</ele>
        <time>2015-07-18T15:19:23Z</time>
      </trkpt>
      <trkpt lat="43.69794" lon="3.01786">
        <ele>849.94</ele>
        <time>2015-07-18T15:19:24Z</time>
      </trkpt>
      <trkpt lat="43.69789" lon="3.01795">
        <ele>848.98</ele>
        <time>2015-07-18T15:19:25Z</time>
      </trkpt>
      <trkpt lat="43.69787" lon="3.01806">
        <ele>848.5</ele>
        <time>2015-07-18T15:19:26Z</time>
      </trkpt>
      <trkpt lat="43.6979" lon="3.01818">
        <ele>847.54</ele>
        <time>2015-07-18T15:19:27Z</time>
      </trkpt>
      <trkpt lat="43.69796" lon="3.01828">
        <ele>846.58</ele>
        <time>2015-07-18T15:19:28Z</time>
      </trkpt>
      <trkpt lat="43.69806" lon="3.01841">
        <ele>845.62</ele>
        <time>2015-07-18T15:19:29Z</time>
      </trkpt>
      <trkpt lat="43.69808" lon="3.01855">
        <ele>845.14</ele>
        <time>2015-07-18T15:19:30Z</time>
      </trkpt>
      <trkpt lat="43.6981" lon="3.0187">
        <ele>844.18</ele>
        <time>2015-07-18T15:19:31Z</time>
      </trkpt>
      <trkpt lat="43.69808" lon="3.01888">
        <ele>843.21</ele>
        <time>2015-07-18T15:19:32Z</time>
      </trkpt>
      <trkpt lat="43.69806" lon="3.01908">
        <ele>842.73</ele>
        <time>2015-07-18T15:19:33Z</time>
      </trkpt>
      <trkpt lat="43.69805" lon="3.01928">
        <ele>842.73</ele>
        <time>2015-07-18T15:19:34Z</time>
      </trkpt>
      <trkpt lat="43.69805" lon="3.01999">
        <ele>839.37</ele>
        <time>2015-07-18T15:19:38Z</time>
      </trkpt>
      <trkpt lat="43.69801" lon="3.02009">
        <ele>839.37</ele>
        <time>2015-07-18T15:19:39Z</time>
      </trkpt>
      <trkpt lat="43.69794" lon="3.02013">
        <ele>837.93</ele>
        <time>2015-07-18T15:19:40Z</time>
      </trkpt>
      <trkpt lat="43.69783" lon="3.02011">
        <ele>836.96</ele>
        <time>2015-07-18T15:19:41Z</time>
      </trkpt>
      <trkpt lat="43.69772" lon="3.02012">
        <ele>836</ele>
        <time>2015-07-18T15:19:42Z</time>
      </trkpt>
      <trkpt lat="43.69762" lon="3.02016">
        <ele>835.04</ele>
        <time>2015-07-18T15:19:43Z</time>
      </trkpt>
      <trkpt lat="43.69754" lon="3.02021">
        <ele>832.64</ele>
        <time>2015-07-18T15:19:44Z</time>
      </trkpt>
      <trkpt lat="43.6975" lon="3.02031">
        <ele>831.2</ele>
        <time>2015-07-18T15:19:45Z</time>
      </trkpt>
      <trkpt lat="43.69748" lon="3.02048">
        <ele>829.27</ele>
        <time>2015-07-18T15:19:46Z</time>
      </trkpt>
      <trkpt lat="43.69748" lon="3.02066">
        <ele>828.31</ele>
        <time>2015-07-18T15:19:47Z</time>
      </trkpt>
      <trkpt lat="43.69749" lon="3.02085">
        <ele>827.83</ele>
        <time>2015-07-18T15:19:48Z</time>
      </trkpt>
      <trkpt lat="43.69752" lon="3.02105">
        <ele>830.24</ele>
        <time>2015-07-18T15:19:49Z</time>
      </trkpt>
      <trkpt lat="43.69755" lon="3.02124">
        <ele>830.72</ele>
        <time>2015-07-18T15:19:50Z</time>
      </trkpt>
      <trkpt lat="43.69757" lon="3.02141">
        <ele>830.24</ele>
        <time>2015-07-18T15:19:51Z</time>
      </trkpt>
      <trkpt lat="43.69757" lon="3.02157">
        <ele>829.76</ele>
        <time>2015-07-18T15:19:52Z</time>
      </trkpt>
      <trkpt lat="43.69752" lon="3.02171">
        <ele>829.27</ele>
        <time>2015-07-18T15:19:53Z</time>
      </trkpt>
      <trkpt lat="43.69745" lon="3.02183">
        <ele>828.31</ele>
        <time>2015-07-18T15:19:54Z</time>
      </trkpt>
      <trkpt lat="43.69735" lon="3.02194">
        <ele>828.31</ele>
        <time>2015-07-18T15:19:55Z</time>
      </trkpt>
      <trkpt lat="43.69725" lon="3.02204">
        <ele>827.83</ele>
        <time>2015-07-18T15:19:56Z</time>
      </trkpt>
      <trkpt lat="43.69706" lon="3.02223">
        <ele>826.87</ele>
        <time>2015-07-18T15:19:58Z</time>
      </trkpt>
      <trkpt lat="43.69695" lon="3.02229">
        <ele>826.39</ele>
        <time>2015-07-18T15:19:59Z</time>
      </trkpt>
      <trkpt lat="43.69684" lon="3.02233">
        <ele>825.91</ele>
        <time>2015-07-18T15:20:00Z</time>
      </trkpt>
      <trkpt lat="43.69673" lon="3.02238">
        <ele>825.43</ele>
        <time>2015-07-18T15:20:01Z</time>
      </trkpt>
      <trkpt lat="43.69663" lon="3.02245">
        <ele>824.95</ele>
        <time>2015-07-18T15:20:02Z</time>
      </trkpt>
      <trkpt lat="43.69657" lon="3.02257">
        <ele>824.95</ele>
        <time>2015-07-18T15:20:03Z</time>
      </trkpt>
      <trkpt lat="43.69652" lon="3.02273">
        <ele>824.47</ele>
        <time>2015-07-18T15:20:04Z</time>
      </trkpt>
      <trkpt lat="43.69646" lon="3.02289">
        <ele>823.99</ele>
        <time>2015-07-18T15:20:05Z</time>
      </trkpt>
      <trkpt lat="43.69638" lon="3.02303">
        <ele>823.03</ele>
        <time>2015-07-18T15:20:06Z</time>
      </trkpt>
      <trkpt lat="43.69628" lon="3.02316">
        <ele>822.55</ele>
        <time>2015-07-18T15:20:07Z</time>
      </trkpt>
      <trkpt lat="43.69618" lon="3.02325">
        <ele>822.06</ele>
        <time>2015-07-18T15:20:08Z</time>
      </trkpt>
      <trkpt lat="43.69607" lon="3.02328">
        <ele>821.1</ele>
        <time>2015-07-18T15:20:09Z</time>
      </trkpt>
      <trkpt lat="43.69596" lon="3.02327">
        <ele>820.62</ele>
        <time>2015-07-18T15:20:10Z</time>
      </trkpt>
      <trkpt lat="43.69586" lon="3.0232">
        <ele>820.14</ele>
        <time>2015-07-18T15:20:11Z</time>
      </trkpt>
      <trkpt lat="43.6958" lon="3.02309">
        <ele>819.66</ele>
        <time>2015-07-18T15:20:12Z</time>
      </trkpt>
      <trkpt lat="43.69573" lon="3.02296">
        <ele>819.18</ele>
        <time>2015-07-18T15:20:13Z</time>
      </trkpt>
      <trkpt lat="43.69565" lon="3.02284">
        <ele>818.7</ele>
        <time>2015-07-18T15:20:14Z</time>
      </trkpt>
      <trkpt lat="43.69557" lon="3.02272">
        <ele>818.7</ele>
        <time>2015-07-18T15:20:15Z</time>
      </trkpt>
      <trkpt lat="43.6953" lon="3.02242">
        <ele>817.26</ele>
        <time>2015-07-18T15:20:18Z</time>
      </trkpt>
      <trkpt lat="43.69521" lon="3.02236">
        <ele>816.78</ele>
        <time>2015-07-18T15:20:19Z</time>
      </trkpt>
      <trkpt lat="43.69512" lon="3.02234">
        <ele>816.78</ele>
        <time>2015-07-18T15:20:20Z</time>
      </trkpt>
      <trkpt lat="43.69502" lon="3.02242">
        <ele>815.82</ele>
        <time>2015-07-18T15:20:21Z</time>
      </trkpt>
      <trkpt lat="43.69496" lon="3.02256">
        <ele>815.34</ele>
        <time>2015-07-18T15:20:22Z</time>
      </trkpt>
      <trkpt lat="43.69492" lon="3.02271">
        <ele>815.34</ele>
        <time>2015-07-18T15:20:23Z</time>
      </trkpt>
      <trkpt lat="43.6949" lon="3.02287">
        <ele>814.85</ele>
        <time>2015-07-18T15:20:24Z</time>
      </trkpt>
      <trkpt lat="43.6949" lon="3.02305">
        <ele>814.37</ele>
        <time>2015-07-18T15:20:25Z</time>
      </trkpt>
      <trkpt lat="43.69493" lon="3.02322">
        <ele>813.89</ele>
        <time>2015-07-18T15:20:26Z</time>
      </trkpt>
      <trkpt lat="43.69497" lon="3.02338">
        <ele>812.93</ele>
        <time>2015-07-18T15:20:27Z</time>
      </trkpt>
      <trkpt lat="43.69501" lon="3.02354">
        <ele>811.97</ele>
        <time>2015-07-18T15:20:28Z</time>
      </trkpt>
      <trkpt lat="43.69502" lon="3.02371">
        <ele>811.97</ele>
        <time>2015-07-18T15:20:29Z</time>
      </trkpt>
      <trkpt lat="43.695" lon="3.02388">
        <ele>811.01</ele>
        <time>2015-07-18T15:20:30Z</time>
      </trkpt>
      <trkpt lat="43.69497" lon="3.02404">
        <ele>809.57</ele>
        <time>2015-07-18T15:20:31Z</time>
      </trkpt>
      <trkpt lat="43.69492" lon="3.02419">
        <ele>809.57</ele>
        <time>2015-07-18T15:20:32Z</time>
      </trkpt>
      <trkpt lat="43.69486" lon="3.02432">
        <ele>809.09</ele>
        <time>2015-07-18T15:20:33Z</time>
      </trkpt>
      <trkpt lat="43.69478" lon="3.02441">
        <ele>808.61</ele>
        <time>2015-07-18T15:20:34Z</time>
      </trkpt>
      <trkpt lat="43.69468" lon="3.02448">
        <ele>808.13</ele>
        <time>2015-07-18T15:20:35Z</time>
      </trkpt>
      <trkpt lat="43.69461" lon="3.02457">
        <ele>808.13</ele>
        <time>2015-07-18T15:20:36Z</time>
      </trkpt>
      <trkpt lat="43.69455" lon="3.02468">
        <ele>807.16</ele>
        <time>2015-07-18T15:20:37Z</time>
      </trkpt>
      <trkpt lat="43.69451" lon="3.02481">
        <ele>806.2</ele>
        <time>2015-07-18T15:20:38Z</time>
      </trkpt>
      <trkpt lat="43.69451" lon="3.02496">
        <ele>805.24</ele>
        <time>2015-07-18T15:20:39Z</time>
      </trkpt>
      <trkpt lat="43.69452" lon="3.02513">
        <ele>804.76</ele>
        <time>2015-07-18T15:20:40Z</time>
      </trkpt>
      <trkpt lat="43.69453" lon="3.0253">
        <ele>803.8</ele>
        <time>2015-07-18T15:20:41Z</time>
      </trkpt>
      <trkpt lat="43.69453" lon="3.02588">
        <ele>802.36</ele>
        <time>2015-07-18T15:20:45Z</time>
      </trkpt>
      <trkpt lat="43.69451" lon="3.026">
        <ele>801.88</ele>
        <time>2015-07-18T15:20:46Z</time>
      </trkpt>
      <trkpt lat="43.69448" lon="3.02613">
        <ele>801.88</ele>
        <time>2015-07-18T15:20:47Z</time>
      </trkpt>
      <trkpt lat="43.69444" lon="3.02625">
        <ele>801.4</ele>
        <time>2015-07-18T15:20:48Z</time>
      </trkpt>
      <trkpt lat="43.69439" lon="3.02637">
        <ele>801.4</ele>
        <time>2015-07-18T15:20:49Z</time>
      </trkpt>
      <trkpt lat="43.69433" lon="3.02647">
        <ele>801.4</ele>
        <time>2015-07-18T15:20:50Z</time>
      </trkpt>
      <trkpt lat="43.69426" lon="3.02655">
        <ele>801.4</ele>
        <time>2015-07-18T15:20:51Z</time>
      </trkpt>
      <trkpt lat="43.69417" lon="3.02658">
        <ele>801.88</ele>
        <time>2015-07-18T15:20:52Z</time>
      </trkpt>
      <trkpt lat="43.69407" lon="3.02656">
        <ele>801.88</ele>
        <time>2015-07-18T15:20:53Z</time>
      </trkpt>
      <trkpt lat="43.69398" lon="3.02652">
        <ele>801.4</ele>
        <time>2015-07-18T15:20:54Z</time>
      </trkpt>
      <trkpt lat="43.69388" lon="3.02644">
        <ele>800.92</ele>
        <time>2015-07-18T15:20:55Z</time>
      </trkpt>
      <trkpt lat="43.69379" lon="3.02635">
        <ele>800.92</ele>
        <time>2015-07-18T15:20:56Z</time>
      </trkpt>
      <trkpt lat="43.69372" lon="3.02625">
        <ele>800.92</ele>
        <time>2015-07-18T15:20:57Z</time>
      </trkpt>
      <trkpt lat="43.69367" lon="3.02613">
        <ele>800.92</ele>
        <time>2015-07-18T15:20:58Z</time>
      </trkpt>
      <trkpt lat="43.69363" lon="3.02601">
        <ele>800.92</ele>
        <time>2015-07-18T15:20:59Z</time>
      </trkpt>
      <trkpt lat="43.69358" lon="3.0259">
        <ele>800.92</ele>
        <time>2015-07-18T15:21:00Z</time>
      </trkpt>
      <trkpt lat="43.69352" lon="3.0258">
        <ele>799.95</ele>
        <time>2015-07-18T15:21:01Z</time>
      </trkpt>
      <trkpt lat="43.69345" lon="3.02572">
        <ele>799.47</ele>
        <time>2015-07-18T15:21:02Z</time>
      </trkpt>
      <trkpt lat="43.69336" lon="3.02569">
        <ele>798.51</ele>
        <time>2015-07-18T15:21:03Z</time>
      </trkpt>
      <trkpt lat="43.69326" lon="3.02573">
        <ele>798.51</ele>
        <time>2015-07-18T15:21:04Z</time>
      </trkpt>
      <trkpt lat="43.69318" lon="3.02583">
        <ele>798.99</ele>
        <time>2015-07-18T15:21:05Z</time>
      </trkpt>
      <trkpt lat="43.69314" lon="3.02595">
        <ele>799.47</ele>
        <time>2015-07-18T15:21:06Z</time>
      </trkpt>
      <trkpt lat="43.69311" lon="3.02609">
        <ele>798.99</ele>
        <time>2015-07-18T15:21:07Z</time>
      </trkpt>
      <trkpt lat="43.69309" lon="3.02622">
        <ele>798.51</ele>
        <time>2015-07-18T15:21:08Z</time>
      </trkpt>
      <trkpt lat="43.69307" lon="3.02637">
        <ele>798.03</ele>
        <time>2015-07-18T15:21:09Z</time>
      </trkpt>
      <trkpt lat="43.69305" lon="3.02652">
        <ele>798.03</ele>
        <time>2015-07-18T15:21:10Z</time>
      </trkpt>
      <trkpt lat="43.693" lon="3.02695">
        <ele>797.07</ele>
        <time>2015-07-18T15:21:13Z</time>
      </trkpt>
      <trkpt lat="43.69302" lon="3.02709">
        <ele>796.59</ele>
        <time>2015-07-18T15:21:14Z</time>
      </trkpt>
      <trkpt lat="43.69309" lon="3.02721">
        <ele>795.63</ele>
        <time>2015-07-18T15:21:15Z</time>
      </trkpt>
      <trkpt lat="43.69318" lon="3.02733">
        <ele>795.15</ele>
        <time>2015-07-18T15:21:16Z</time>
      </trkpt>
      <trkpt lat="43.69329" lon="3.02745">
        <ele>794.67</ele>
        <time>2015-07-18T15:21:17Z</time>
      </trkpt>
      <trkpt lat="43.6934" lon="3.02757">
        <ele>794.19</ele>
        <time>2015-07-18T15:21:18Z</time>
      </trkpt>
      <trkpt lat="43.69427" lon="3.02863">
        <ele>790.34</ele>
        <time>2015-07-18T15:21:26Z</time>
      </trkpt>
      <trkpt lat="43.6943" lon="3.02884">
        <ele>790.34</ele>
        <time>2015-07-18T15:21:27Z</time>
      </trkpt>
      <trkpt lat="43.69429" lon="3.02906">
        <ele>790.34</ele>
        <time>2015-07-18T15:21:28Z</time>
      </trkpt>
      <trkpt lat="43.69429" lon="3.02963">
        <ele>789.86</ele>
        <time>2015-07-18T15:21:31Z</time>
      </trkpt>
      <trkpt lat="43.69425" lon="3.0298">
        <ele>789.38</ele>
        <time>2015-07-18T15:21:32Z</time>
      </trkpt>
      <trkpt lat="43.69417" lon="3.02993">
        <ele>788.9</ele>
        <time>2015-07-18T15:21:33Z</time>
      </trkpt>
      <trkpt lat="43.69411" lon="3.03006">
        <ele>788.9</ele>
        <time>2015-07-18T15:21:34Z</time>
      </trkpt>
      <trkpt lat="43.69405" lon="3.03018">
        <ele>788.42</ele>
        <time>2015-07-18T15:21:35Z</time>
      </trkpt>
      <trkpt lat="43.69403" lon="3.03032">
        <ele>787.94</ele>
        <time>2015-07-18T15:21:36Z</time>
      </trkpt>
      <trkpt lat="43.69412" lon="3.03049">
        <ele>788.42</ele>
        <time>2015-07-18T15:21:37Z</time>
      </trkpt>
      <trkpt lat="43.69422" lon="3.03064">
        <ele>787.46</ele>
        <time>2015-07-18T15:21:38Z</time>
      </trkpt>
      <trkpt lat="43.69433" lon="3.03081">
        <ele>786.98</ele>
        <time>2015-07-18T15:21:39Z</time>
      </trkpt>
      <trkpt lat="43.69481" lon="3.03141">
        <ele>785.53</ele>
        <time>2015-07-18T15:21:43Z</time>
      </trkpt>
      <trkpt lat="43.69494" lon="3.03152">
        <ele>785.05</ele>
        <time>2015-07-18T15:21:44Z</time>
      </trkpt>
      <trkpt lat="43.69509" lon="3.03157">
        <ele>785.05</ele>
        <time>2015-07-18T15:21:45Z</time>
      </trkpt>
      <trkpt lat="43.69525" lon="3.0316">
        <ele>785.05</ele>
        <time>2015-07-18T15:21:46Z</time>
      </trkpt>
      <trkpt lat="43.69541" lon="3.0316">
        <ele>785.05</ele>
        <time>2015-07-18T15:21:47Z</time>
      </trkpt>
      <trkpt lat="43.69558" lon="3.03158">
        <ele>785.05</ele>
        <time>2015-07-18T15:21:48Z</time>
      </trkpt>
      <trkpt lat="43.69573" lon="3.03155">
        <ele>785.05</ele>
        <time>2015-07-18T15:21:49Z</time>
      </trkpt>
      <trkpt lat="43.6961" lon="3.03151">
        <ele>784.57</ele>
        <time>2015-07-18T15:21:52Z</time>
      </trkpt>
      <trkpt lat="43.69617" lon="3.03156">
        <ele>783.61</ele>
        <time>2015-07-18T15:21:53Z</time>
      </trkpt>
      <trkpt lat="43.69621" lon="3.03169">
        <ele>783.61</ele>
        <time>2015-07-18T15:21:54Z</time>
      </trkpt>
      <trkpt lat="43.69624" lon="3.03186">
        <ele>783.13</ele>
        <time>2015-07-18T15:21:55Z</time>
      </trkpt>
      <trkpt lat="43.69627" lon="3.03205">
        <ele>783.13</ele>
        <time>2015-07-18T15:21:56Z</time>
      </trkpt>
      <trkpt lat="43.6963" lon="3.03241">
        <ele>782.65</ele>
        <time>2015-07-18T15:21:58Z</time>
      </trkpt>
      <trkpt lat="43.69628" lon="3.03258">
        <ele>782.17</ele>
        <time>2015-07-18T15:21:59Z</time>
      </trkpt>
      <trkpt lat="43.69623" lon="3.03271">
        <ele>781.69</ele>
        <time>2015-07-18T15:22:00Z</time>
      </trkpt>
      <trkpt lat="43.69614" lon="3.03282">
        <ele>781.69</ele>
        <time>2015-07-18T15:22:01Z</time>
      </trkpt>
      <trkpt lat="43.69603" lon="3.03287">
        <ele>782.17</ele>
        <time>2015-07-18T15:22:02Z</time>
      </trkpt>
      <trkpt lat="43.6959" lon="3.03289">
        <ele>782.17</ele>
        <time>2015-07-18T15:22:03Z</time>
      </trkpt>
      <trkpt lat="43.69577" lon="3.0329">
        <ele>782.17</ele>
        <time>2015-07-18T15:22:04Z</time>
      </trkpt>
      <trkpt lat="43.69565" lon="3.03292">
        <ele>781.69</ele>
        <time>2015-07-18T15:22:05Z</time>
      </trkpt>
      <trkpt lat="43.69554" lon="3.03298">
        <ele>781.21</ele>
        <time>2015-07-18T15:22:06Z</time>
      </trkpt>
      <trkpt lat="43.69543" lon="3.03307">
        <ele>781.21</ele>
        <time>2015-07-18T15:22:07Z</time>
      </trkpt>
      <trkpt lat="43.69533" lon="3.0332">
        <ele>780.73</ele>
        <time>2015-07-18T15:22:08Z</time>
      </trkpt>
      <trkpt lat="43.69523" lon="3.03333">
        <ele>780.73</ele>
        <time>2015-07-18T15:22:09Z</time>
      </trkpt>
      <trkpt lat="43.69515" lon="3.03345">
        <ele>780.25</ele>
        <time>2015-07-18T15:22:10Z</time>
      </trkpt>
      <trkpt lat="43.69502" lon="3.03368">
        <ele>779.29</ele>
        <time>2015-07-18T15:22:12Z</time>
      </trkpt>
      <trkpt lat="43.695" lon="3.03378">
        <ele>777.84</ele>
        <time>2015-07-18T15:22:13Z</time>
      </trkpt>
      <trkpt lat="43.69503" lon="3.03389">
        <ele>777.36</ele>
        <time>2015-07-18T15:22:14Z</time>
      </trkpt>
      <trkpt lat="43.69513" lon="3.03401">
        <ele>776.88</ele>
        <time>2015-07-18T15:22:15Z</time>
      </trkpt>
      <trkpt lat="43.69524" lon="3.03409">
        <ele>776.88</ele>
        <time>2015-07-18T15:22:16Z</time>
      </trkpt>
      <trkpt lat="43.69537" lon="3.03418">
        <ele>776.4</ele>
        <time>2015-07-18T15:22:17Z</time>
      </trkpt>
      <trkpt lat="43.69616" lon="3.0349">
        <ele>775.44</ele>
        <time>2015-07-18T15:22:24Z</time>
      </trkpt>
      <trkpt lat="43.69623" lon="3.03502">
        <ele>775.44</ele>
        <time>2015-07-18T15:22:25Z</time>
      </trkpt>
      <trkpt lat="43.69624" lon="3.03519">
        <ele>775.44</ele>
        <time>2015-07-18T15:22:26Z</time>
      </trkpt>
      <trkpt lat="43.69619" lon="3.03535">
        <ele>774.96</ele>
        <time>2015-07-18T15:22:27Z</time>
      </trkpt>
      <trkpt lat="43.69609" lon="3.03553">
        <ele>773.52</ele>
        <time>2015-07-18T15:22:28Z</time>
      </trkpt>
      <trkpt lat="43.69603" lon="3.03568">
        <ele>773.52</ele>
        <time>2015-07-18T15:22:29Z</time>
      </trkpt>
      <trkpt lat="43.69595" lon="3.03582">
        <ele>774</ele>
        <time>2015-07-18T15:22:30Z</time>
      </trkpt>
      <trkpt lat="43.69584" lon="3.03597">
        <ele>774.96</ele>
        <time>2015-07-18T15:22:31Z</time>
      </trkpt>
      <trkpt lat="43.69572" lon="3.03612">
        <ele>775.44</ele>
        <time>2015-07-18T15:22:32Z</time>
      </trkpt>
      <trkpt lat="43.69562" lon="3.03628">
        <ele>774.96</ele>
        <time>2015-07-18T15:22:33Z</time>
      </trkpt>
      <trkpt lat="43.69486" lon="3.03752">
        <ele>772.08</ele>
        <time>2015-07-18T15:22:42Z</time>
      </trkpt>
      <trkpt lat="43.69458" lon="3.03788">
        <ele>772.08</ele>
        <time>2015-07-18T15:22:45Z</time>
      </trkpt>
      <trkpt lat="43.69445" lon="3.03796">
        <ele>772.08</ele>
        <time>2015-07-18T15:22:46Z</time>
      </trkpt>
      <trkpt lat="43.69431" lon="3.03803">
        <ele>771.11</ele>
        <time>2015-07-18T15:22:47Z</time>
      </trkpt>
      <trkpt lat="43.69372" lon="3.03838">
        <ele>771.11</ele>
        <time>2015-07-18T15:22:52Z</time>
      </trkpt>
      <trkpt lat="43.69368" lon="3.03847">
        <ele>771.11</ele>
        <time>2015-07-18T15:22:53Z</time>
      </trkpt>
      <trkpt lat="43.69367" lon="3.03859">
        <ele>770.63</ele>
        <time>2015-07-18T15:22:54Z</time>
      </trkpt>
      <trkpt lat="43.69372" lon="3.03875">
        <ele>770.63</ele>
        <time>2015-07-18T15:22:55Z</time>
      </trkpt>
      <trkpt lat="43.69375" lon="3.0389">
        <ele>771.6</ele>
        <time>2015-07-18T15:22:56Z</time>
      </trkpt>
      <trkpt lat="43.69379" lon="3.03904">
        <ele>771.6</ele>
        <time>2015-07-18T15:22:57Z</time>
      </trkpt>
      <trkpt lat="43.69383" lon="3.03918">
        <ele>772.56</ele>
        <time>2015-07-18T15:22:58Z</time>
      </trkpt>
      <trkpt lat="43.69388" lon="3.03932">
        <ele>773.04</ele>
        <time>2015-07-18T15:22:59Z</time>
      </trkpt>
      <trkpt lat="43.69395" lon="3.03947">
        <ele>773.04</ele>
        <time>2015-07-18T15:23:00Z</time>
      </trkpt>
      <trkpt lat="43.69404" lon="3.03962">
        <ele>774</ele>
        <time>2015-07-18T15:23:01Z</time>
      </trkpt>
      <trkpt lat="43.69414" lon="3.03975">
        <ele>774.96</ele>
        <time>2015-07-18T15:23:02Z</time>
      </trkpt>
      <trkpt lat="43.69426" lon="3.03989">
        <ele>776.4</ele>
        <time>2015-07-18T15:23:03Z</time>
      </trkpt>
      <trkpt lat="43.69439" lon="3.04001">
        <ele>777.36</ele>
        <time>2015-07-18T15:23:04Z</time>
      </trkpt>
      <trkpt lat="43.69523" lon="3.04078">
        <ele>786.98</ele>
        <time>2015-07-18T15:23:11Z</time>
      </trkpt>
      <trkpt lat="43.69532" lon="3.04095">
        <ele>788.42</ele>
        <time>2015-07-18T15:23:12Z</time>
      </trkpt>
      <trkpt lat="43.69538" lon="3.04113">
        <ele>789.38</ele>
        <time>2015-07-18T15:23:13Z</time>
      </trkpt>
      <trkpt lat="43.69566" lon="3.04182">
        <ele>794.67</ele>
        <time>2015-07-18T15:23:17Z</time>
      </trkpt>
      <trkpt lat="43.69571" lon="3.04201">
        <ele>796.59</ele>
        <time>2015-07-18T15:23:18Z</time>
      </trkpt>
      <trkpt lat="43.69573" lon="3.04224">
        <ele>800.44</ele>
        <time>2015-07-18T15:23:20Z</time>
      </trkpt>
      <trkpt lat="43.69576" lon="3.04223">
        <ele>801.88</ele>
        <time>2015-07-18T15:23:21Z</time>
      </trkpt>
      <trkpt lat="43.69582" lon="3.04214">
        <ele>801.88</ele>
        <time>2015-07-18T15:23:22Z</time>
      </trkpt>
      <trkpt lat="43.69595" lon="3.04212">
        <ele>803.8</ele>
        <time>2015-07-18T15:23:23Z</time>
      </trkpt>
      <trkpt lat="43.69608" lon="3.04213">
        <ele>804.76</ele>
        <time>2015-07-18T15:23:24Z</time>
      </trkpt>
      <trkpt lat="43.69625" lon="3.04219">
        <ele>807.64</ele>
        <time>2015-07-18T15:23:25Z</time>
      </trkpt>
      <trkpt lat="43.69641" lon="3.04221">
        <ele>808.13</ele>
        <time>2015-07-18T15:23:26Z</time>
      </trkpt>
      <trkpt lat="43.69735" lon="3.04252">
        <ele>816.78</ele>
        <time>2015-07-18T15:23:33Z</time>
      </trkpt>
      <trkpt lat="43.69745" lon="3.04264">
        <ele>818.22</ele>
        <time>2015-07-18T15:23:34Z</time>
      </trkpt>
      <trkpt lat="43.69754" lon="3.04278">
        <ele>819.18</ele>
        <time>2015-07-18T15:23:35Z</time>
      </trkpt>
      <trkpt lat="43.69761" lon="3.04297">
        <ele>820.62</ele>
        <time>2015-07-18T15:23:36Z</time>
      </trkpt>
      <trkpt lat="43.69767" lon="3.04317">
        <ele>823.03</ele>
        <time>2015-07-18T15:23:37Z</time>
      </trkpt>
      <trkpt lat="43.69773" lon="3.04334">
        <ele>824.47</ele>
        <time>2015-07-18T15:23:38Z</time>
      </trkpt>
      <trkpt lat="43.69781" lon="3.04373">
        <ele>825.91</ele>
        <time>2015-07-18T15:23:41Z</time>
      </trkpt>
      <trkpt lat="43.69781" lon="3.04381">
        <ele>826.87</ele>
        <time>2015-07-18T15:23:42Z</time>
      </trkpt>
      <trkpt lat="43.69779" lon="3.04387">
        <ele>827.35</ele>
        <time>2015-07-18T15:23:43Z</time>
      </trkpt>
      <trkpt lat="43.69772" lon="3.04384">
        <ele>824.47</ele>
        <time>2015-07-18T15:23:44Z</time>
      </trkpt>
      <trkpt lat="43.69763" lon="3.04368">
        <ele>822.06</ele>
        <time>2015-07-18T15:23:46Z</time>
      </trkpt>
      <trkpt lat="43.69759" lon="3.04355">
        <ele>821.58</ele>
        <time>2015-07-18T15:23:47Z</time>
      </trkpt>
      <trkpt lat="43.69753" lon="3.04343">
        <ele>821.1</ele>
        <time>2015-07-18T15:23:48Z</time>
      </trkpt>
      <trkpt lat="43.69749" lon="3.04328">
        <ele>823.03</ele>
        <time>2015-07-18T15:23:49Z</time>
      </trkpt>
      <trkpt lat="43.69739" lon="3.04318">
        <ele>823.51</ele>
        <time>2015-07-18T15:23:50Z</time>
      </trkpt>
      <trkpt lat="43.69724" lon="3.04308">
        <ele>824.95</ele>
        <time>2015-07-18T15:23:51Z</time>
      </trkpt>
      <trkpt lat="43.69708" lon="3.04303">
        <ele>823.51</ele>
        <time>2015-07-18T15:23:52Z</time>
      </trkpt>
      <trkpt lat="43.69693" lon="3.04299">
        <ele>823.99</ele>
        <time>2015-07-18T15:23:53Z</time>
      </trkpt>
      <trkpt lat="43.69678" lon="3.04295">
        <ele>823.99</ele>
        <time>2015-07-18T15:23:54Z</time>
      </trkpt>
      <trkpt lat="43.69662" lon="3.04297">
        <ele>824.47</ele>
        <time>2015-07-18T15:23:55Z</time>
      </trkpt>
      <trkpt lat="43.69645" lon="3.04302">
        <ele>825.43</ele>
        <time>2015-07-18T15:23:56Z</time>
      </trkpt>
      <trkpt lat="43.69628" lon="3.04309">
        <ele>827.35</ele>
        <time>2015-07-18T15:23:57Z</time>
      </trkpt>
      <trkpt lat="43.6961" lon="3.04316">
        <ele>829.27</ele>
        <time>2015-07-18T15:23:58Z</time>
      </trkpt>
      <trkpt lat="43.6951" lon="3.04367">
        <ele>834.08</ele>
        <time>2015-07-18T15:24:05Z</time>
      </trkpt>
      <trkpt lat="43.69506" lon="3.04382">
        <ele>834.56</ele>
        <time>2015-07-18T15:24:06Z</time>
      </trkpt>
      <trkpt lat="43.69506" lon="3.04398">
        <ele>835.04</ele>
        <time>2015-07-18T15:24:07Z</time>
      </trkpt>
      <trkpt lat="43.69507" lon="3.04415">
        <ele>835.52</ele>
        <time>2015-07-18T15:24:08Z</time>
      </trkpt>
      <trkpt lat="43.6951" lon="3.04433">
        <ele>835.52</ele>
        <time>2015-07-18T15:24:09Z</time>
      </trkpt>
      <trkpt lat="43.69515" lon="3.0445">
        <ele>836</ele>
        <time>2015-07-18T15:24:10Z</time>
      </trkpt>
      <trkpt lat="43.6952" lon="3.04469">
        <ele>836.48</ele>
        <time>2015-07-18T15:24:11Z</time>
      </trkpt>
      <trkpt lat="43.69523" lon="3.04488">
        <ele>836.96</ele>
        <time>2015-07-18T15:24:12Z</time>
      </trkpt>
      <trkpt lat="43.69525" lon="3.04508">
        <ele>836.96</ele>
        <time>2015-07-18T15:24:13Z</time>
      </trkpt>
      <trkpt lat="43.69521" lon="3.04658">
        <ele>839.85</ele>
        <time>2015-07-18T15:24:21Z</time>
      </trkpt>
      <trkpt lat="43.69522" lon="3.04763">
        <ele>841.29</ele>
        <time>2015-07-18T15:24:26Z</time>
      </trkpt>
      <trkpt lat="43.69526" lon="3.04783">
        <ele>841.29</ele>
        <time>2015-07-18T15:24:27Z</time>
      </trkpt>
      <trkpt lat="43.69532" lon="3.04801">
        <ele>840.81</ele>
        <time>2015-07-18T15:24:28Z</time>
      </trkpt>
      <trkpt lat="43.69543" lon="3.04818">
        <ele>841.77</ele>
        <time>2015-07-18T15:24:29Z</time>
      </trkpt>
      <trkpt lat="43.69553" lon="3.04835">
        <ele>842.73</ele>
        <time>2015-07-18T15:24:30Z</time>
      </trkpt>
      <trkpt lat="43.69563" lon="3.04854">
        <ele>843.21</ele>
        <time>2015-07-18T15:24:31Z</time>
      </trkpt>
      <trkpt lat="43.69572" lon="3.04874">
        <ele>843.69</ele>
        <time>2015-07-18T15:24:32Z</time>
      </trkpt>
      <trkpt lat="43.69579" lon="3.04896">
        <ele>844.18</ele>
        <time>2015-07-18T15:24:33Z</time>
      </trkpt>
      <trkpt lat="43.69585" lon="3.04917">
        <ele>844.66</ele>
        <time>2015-07-18T15:24:34Z</time>
      </trkpt>
      <trkpt lat="43.69589" lon="3.0494">
        <ele>844.66</ele>
        <time>2015-07-18T15:24:35Z</time>
      </trkpt>
      <trkpt lat="43.6959" lon="3.04963">
        <ele>845.14</ele>
        <time>2015-07-18T15:24:36Z</time>
      </trkpt>
      <trkpt lat="43.69587" lon="3.04986">
        <ele>845.14</ele>
        <time>2015-07-18T15:24:37Z</time>
      </trkpt>
      <trkpt lat="43.69579" lon="3.05007">
        <ele>845.62</ele>
        <time>2015-07-18T15:24:38Z</time>
      </trkpt>
      <trkpt lat="43.6957" lon="3.05029">
        <ele>845.62</ele>
        <time>2015-07-18T15:24:39Z</time>
      </trkpt>
      <trkpt lat="43.69526" lon="3.05134">
        <ele>847.06</ele>
        <time>2015-07-18T15:24:44Z</time>
      </trkpt>
      <trkpt lat="43.69521" lon="3.05154">
        <ele>847.06</ele>
        <time>2015-07-18T15:24:45Z</time>
      </trkpt>
      <trkpt lat="43.69516" lon="3.05174">
        <ele>847.54</ele>
        <time>2015-07-18T15:24:46Z</time>
      </trkpt>
      <trkpt lat="43.69509" lon="3.05191">
        <ele>847.54</ele>
        <time>2015-07-18T15:24:47Z</time>
      </trkpt>
      <trkpt lat="43.69498" lon="3.05205">
        <ele>848.5</ele>
        <time>2015-07-18T15:24:48Z</time>
      </trkpt>
      <trkpt lat="43.69486" lon="3.05216">
        <ele>849.46</ele>
        <time>2015-07-18T15:24:49Z</time>
      </trkpt>
      <trkpt lat="43.69475" lon="3.05229">
        <ele>850.42</ele>
        <time>2015-07-18T15:24:50Z</time>
      </trkpt>
      <trkpt lat="43.69465" lon="3.05244">
        <ele>850.9</ele>
        <time>2015-07-18T15:24:51Z</time>
      </trkpt>
      <trkpt lat="43.69458" lon="3.05259">
        <ele>850.9</ele>
        <time>2015-07-18T15:24:52Z</time>
      </trkpt>
      <trkpt lat="43.69456" lon="3.05275">
        <ele>850.9</ele>
        <time>2015-07-18T15:24:53Z</time>
      </trkpt>
      <trkpt lat="43.69457" lon="3.05292">
        <ele>850.9</ele>
        <time>2015-07-18T15:24:54Z</time>
      </trkpt>
      <trkpt lat="43.69458" lon="3.05309">
        <ele>850.42</ele>
        <time>2015-07-18T15:24:55Z</time>
      </trkpt>
      <trkpt lat="43.69457" lon="3.05327">
        <ele>850.9</ele>
        <time>2015-07-18T15:24:56Z</time>
      </trkpt>
      <trkpt lat="43.69452" lon="3.05345">
        <ele>850.9</ele>
        <time>2015-07-18T15:24:57Z</time>
      </trkpt>
      <trkpt lat="43.69443" lon="3.05361">
        <ele>850.42</ele>
        <time>2015-07-18T15:24:58Z</time>
      </trkpt>
      <trkpt lat="43.69431" lon="3.05373">
        <ele>850.9</ele>
        <time>2015-07-18T15:24:59Z</time>
      </trkpt>
      <trkpt lat="43.69416" lon="3.0538">
        <ele>849.94</ele>
        <time>2015-07-18T15:25:00Z</time>
      </trkpt>
      <trkpt lat="43.694" lon="3.05384">
        <ele>848.02</ele>
        <time>2015-07-18T15:25:01Z</time>
      </trkpt>
      <trkpt lat="43.69385" lon="3.05389">
        <ele>847.06</ele>
        <time>2015-07-18T15:25:02Z</time>
      </trkpt>
      <trkpt lat="43.69286" lon="3.05477">
        <ele>840.81</ele>
        <time>2015-07-18T15:25:10Z</time>
      </trkpt>
      <trkpt lat="43.69265" lon="3.05505">
        <ele>838.89</ele>
        <time>2015-07-18T15:25:12Z</time>
      </trkpt>
      <trkpt lat="43.69256" lon="3.05523">
        <ele>837.93</ele>
        <time>2015-07-18T15:25:13Z</time>
      </trkpt>
      <trkpt lat="43.69248" lon="3.05543">
        <ele>836.96</ele>
        <time>2015-07-18T15:25:14Z</time>
      </trkpt>
      <trkpt lat="43.69242" lon="3.05566">
        <ele>836</ele>
        <time>2015-07-18T15:25:15Z</time>
      </trkpt>
      <trkpt lat="43.69236" lon="3.05591">
        <ele>835.04</ele>
        <time>2015-07-18T15:25:16Z</time>
      </trkpt>
      <trkpt lat="43.6917" lon="3.05781">
        <ele>827.35</ele>
        <time>2015-07-18T15:25:25Z</time>
      </trkpt>
      <trkpt lat="43.69137" lon="3.05878">
        <ele>822.55</ele>
        <time>2015-07-18T15:25:30Z</time>
      </trkpt>
      <trkpt lat="43.69126" lon="3.05891">
        <ele>821.58</ele>
        <time>2015-07-18T15:25:31Z</time>
      </trkpt>
      <trkpt lat="43.691" lon="3.05917">
        <ele>820.14</ele>
        <time>2015-07-18T15:25:33Z</time>
      </trkpt>
      <trkpt lat="43.69085" lon="3.05924">
        <ele>819.66</ele>
        <time>2015-07-18T15:25:34Z</time>
      </trkpt>
      <trkpt lat="43.69068" lon="3.05922">
        <ele>817.26</ele>
        <time>2015-07-18T15:25:35Z</time>
      </trkpt>
      <trkpt lat="43.69052" lon="3.05917">
        <ele>816.3</ele>
        <time>2015-07-18T15:25:36Z</time>
      </trkpt>
      <trkpt lat="43.69037" lon="3.0591">
        <ele>815.82</ele>
        <time>2015-07-18T15:25:37Z</time>
      </trkpt>
      <trkpt lat="43.69023" lon="3.05901">
        <ele>814.85</ele>
        <time>2015-07-18T15:25:38Z</time>
      </trkpt>
      <trkpt lat="43.69009" lon="3.05894">
        <ele>814.37</ele>
        <time>2015-07-18T15:25:39Z</time>
      </trkpt>
      <trkpt lat="43.68995" lon="3.05889">
        <ele>813.89</ele>
        <time>2015-07-18T15:25:40Z</time>
      </trkpt>
      <trkpt lat="43.6898" lon="3.05886">
        <ele>812.93</ele>
        <time>2015-07-18T15:25:41Z</time>
      </trkpt>
      <trkpt lat="43.68865" lon="3.05867">
        <ele>807.16</ele>
        <time>2015-07-18T15:25:49Z</time>
      </trkpt>
      <trkpt lat="43.68845" lon="3.05868">
        <ele>805.24</ele>
        <time>2015-07-18T15:25:51Z</time>
      </trkpt>
      <trkpt lat="43.68838" lon="3.05871">
        <ele>804.76</ele>
        <time>2015-07-18T15:25:52Z</time>
      </trkpt>
      <trkpt lat="43.68833" lon="3.05874">
        <ele>804.28</ele>
        <time>2015-07-18T15:25:53Z</time>
      </trkpt>
      <trkpt lat="43.68824" lon="3.05884">
        <ele>802.84</ele>
        <time>2015-07-18T15:26:01Z</time>
      </trkpt>
      <trkpt lat="43.68829" lon="3.05884">
        <ele>803.32</ele>
        <time>2015-07-18T15:27:23Z</time>
      </trkpt>
      <trkpt lat="43.68829" lon="3.05886">
        <ele>805.72</ele>
        <time>2015-07-18T15:34:43Z</time>
      </trkpt>
      <trkpt lat="43.68827" lon="3.05889">
        <ele>806.2</ele>
        <time>2015-07-18T15:35:03Z</time>
      </trkpt>
      <trkpt lat="43.68827" lon="3.05893">
        <ele>805.72</ele>
        <time>2015-07-18T15:35:04Z</time>
      </trkpt>
      <trkpt lat="43.68829" lon="3.05966">
        <ele>800.92</ele>
        <time>2015-07-18T15:35:12Z</time>
      </trkpt>
      <trkpt lat="43.68834" lon="3.06009">
        <ele>798.03</ele>
        <time>2015-07-18T15:35:15Z</time>
      </trkpt>
      <trkpt lat="43.68838" lon="3.06022">
        <ele>797.07</ele>
        <time>2015-07-18T15:35:16Z</time>
      </trkpt>
      <trkpt lat="43.68844" lon="3.06033">
        <ele>796.11</ele>
        <time>2015-07-18T15:35:17Z</time>
      </trkpt>
      <trkpt lat="43.68851" lon="3.06042">
        <ele>795.63</ele>
        <time>2015-07-18T15:35:18Z</time>
      </trkpt>
      <trkpt lat="43.68857" lon="3.0605">
        <ele>795.15</ele>
        <time>2015-07-18T15:35:19Z</time>
      </trkpt>
      <trkpt lat="43.68859" lon="3.06057">
        <ele>794.19</ele>
        <time>2015-07-18T15:35:20Z</time>
      </trkpt>
      <trkpt lat="43.68859" lon="3.06064">
        <ele>793.71</ele>
        <time>2015-07-18T15:35:21Z</time>
      </trkpt>
      <trkpt lat="43.68854" lon="3.06067">
        <ele>792.74</ele>
        <time>2015-07-18T15:35:22Z</time>
      </trkpt>
      <trkpt lat="43.68848" lon="3.06064">
        <ele>792.26</ele>
        <time>2015-07-18T15:35:23Z</time>
      </trkpt>
      <trkpt lat="43.68842" lon="3.06059">
        <ele>791.78</ele>
        <time>2015-07-18T15:35:24Z</time>
      </trkpt>
      <trkpt lat="43.68836" lon="3.0605">
        <ele>791.3</ele>
        <time>2015-07-18T15:35:25Z</time>
      </trkpt>
      <trkpt lat="43.68828" lon="3.06039">
        <ele>790.34</ele>
        <time>2015-07-18T15:35:26Z</time>
      </trkpt>
      <trkpt lat="43.68807" lon="3.06003">
        <ele>786.98</ele>
        <time>2015-07-18T15:35:29Z</time>
      </trkpt>
      <trkpt lat="43.68803" lon="3.05989">
        <ele>786.5</ele>
        <time>2015-07-18T15:35:30Z</time>
      </trkpt>
      <trkpt lat="43.68801" lon="3.05975">
        <ele>785.53</ele>
        <time>2015-07-18T15:35:31Z</time>
      </trkpt>
      <trkpt lat="43.68799" lon="3.05963">
        <ele>784.57</ele>
        <time>2015-07-18T15:35:32Z</time>
      </trkpt>
      <trkpt lat="43.68795" lon="3.05956">
        <ele>784.09</ele>
        <time>2015-07-18T15:35:33Z</time>
      </trkpt>
      <trkpt lat="43.68786" lon="3.05959">
        <ele>781.21</ele>
        <time>2015-07-18T15:35:35Z</time>
      </trkpt>
      <trkpt lat="43.68783" lon="3.05968">
        <ele>780.25</ele>
        <time>2015-07-18T15:35:36Z</time>
      </trkpt>
      <trkpt lat="43.68782" lon="3.05979">
        <ele>780.25</ele>
        <time>2015-07-18T15:35:37Z</time>
      </trkpt>
      <trkpt lat="43.68784" lon="3.05994">
        <ele>779.29</ele>
        <time>2015-07-18T15:35:38Z</time>
      </trkpt>
      <trkpt lat="43.68786" lon="3.06009">
        <ele>779.29</ele>
        <time>2015-07-18T15:35:39Z</time>
      </trkpt>
      <trkpt lat="43.68788" lon="3.06024">
        <ele>778.32</ele>
        <time>2015-07-18T15:35:40Z</time>
      </trkpt>
      <trkpt lat="43.68793" lon="3.06039">
        <ele>776.88</ele>
        <time>2015-07-18T15:35:41Z</time>
      </trkpt>
      <trkpt lat="43.68798" lon="3.06053">
        <ele>775.92</ele>
        <time>2015-07-18T15:35:42Z</time>
      </trkpt>
      <trkpt lat="43.68806" lon="3.06064">
        <ele>774.96</ele>
        <time>2015-07-18T15:35:43Z</time>
      </trkpt>
      <trkpt lat="43.68814" lon="3.06074">
        <ele>774.48</ele>
        <time>2015-07-18T15:35:44Z</time>
      </trkpt>
      <trkpt lat="43.6882" lon="3.06082">
        <ele>774.48</ele>
        <time>2015-07-18T15:35:45Z</time>
      </trkpt>
      <trkpt lat="43.68824" lon="3.0609">
        <ele>774</ele>
        <time>2015-07-18T15:35:46Z</time>
      </trkpt>
      <trkpt lat="43.68825" lon="3.06097">
        <ele>773.52</ele>
        <time>2015-07-18T15:35:47Z</time>
      </trkpt>
      <trkpt lat="43.68822" lon="3.06103">
        <ele>772.56</ele>
        <time>2015-07-18T15:35:48Z</time>
      </trkpt>
      <trkpt lat="43.68815" lon="3.06103">
        <ele>772.08</ele>
        <time>2015-07-18T15:35:49Z</time>
      </trkpt>
      <trkpt lat="43.68808" lon="3.06099">
        <ele>772.08</ele>
        <time>2015-07-18T15:35:50Z</time>
      </trkpt>
      <trkpt lat="43.68801" lon="3.06091">
        <ele>771.6</ele>
        <time>2015-07-18T15:35:51Z</time>
      </trkpt>
      <trkpt lat="43.68793" lon="3.06081">
        <ele>771.11</ele>
        <time>2015-07-18T15:35:52Z</time>
      </trkpt>
      <trkpt lat="43.68784" lon="3.0607">
        <ele>770.15</ele>
        <time>2015-07-18T15:35:53Z</time>
      </trkpt>
      <trkpt lat="43.68756" lon="3.06034">
        <ele>768.23</ele>
        <time>2015-07-18T15:35:56Z</time>
      </trkpt>
      <trkpt lat="43.68748" lon="3.06021">
        <ele>767.27</ele>
        <time>2015-07-18T15:35:57Z</time>
      </trkpt>
      <trkpt lat="43.68743" lon="3.06006">
        <ele>766.31</ele>
        <time>2015-07-18T15:35:58Z</time>
      </trkpt>
      <trkpt lat="43.68741" lon="3.0599">
        <ele>764.87</ele>
        <time>2015-07-18T15:35:59Z</time>
      </trkpt>
      <trkpt lat="43.68741" lon="3.05972">
        <ele>763.9</ele>
        <time>2015-07-18T15:36:00Z</time>
      </trkpt>
      <trkpt lat="43.6874" lon="3.05955">
        <ele>762.94</ele>
        <time>2015-07-18T15:36:01Z</time>
      </trkpt>
      <trkpt lat="43.68737" lon="3.05939">
        <ele>761.98</ele>
        <time>2015-07-18T15:36:02Z</time>
      </trkpt>
      <trkpt lat="43.68732" lon="3.05922">
        <ele>761.02</ele>
        <time>2015-07-18T15:36:03Z</time>
      </trkpt>
      <trkpt lat="43.68725" lon="3.05905">
        <ele>760.06</ele>
        <time>2015-07-18T15:36:04Z</time>
      </trkpt>
      <trkpt lat="43.68686" lon="3.05801">
        <ele>753.81</ele>
        <time>2015-07-18T15:36:11Z</time>
      </trkpt>
      <trkpt lat="43.68681" lon="3.05796">
        <ele>752.37</ele>
        <time>2015-07-18T15:36:12Z</time>
      </trkpt>
      <trkpt lat="43.68676" lon="3.05798">
        <ele>751.41</ele>
        <time>2015-07-18T15:36:13Z</time>
      </trkpt>
      <trkpt lat="43.68673" lon="3.05804">
        <ele>749.97</ele>
        <time>2015-07-18T15:36:14Z</time>
      </trkpt>
      <trkpt lat="43.68672" lon="3.05814">
        <ele>748.52</ele>
        <time>2015-07-18T15:36:15Z</time>
      </trkpt>
      <trkpt lat="43.68674" lon="3.05826">
        <ele>749</ele>
        <time>2015-07-18T15:36:16Z</time>
      </trkpt>
      <trkpt lat="43.68679" lon="3.0584">
        <ele>749</ele>
        <time>2015-07-18T15:36:17Z</time>
      </trkpt>
      <trkpt lat="43.68684" lon="3.05857">
        <ele>748.04</ele>
        <time>2015-07-18T15:36:18Z</time>
      </trkpt>
      <trkpt lat="43.68687" lon="3.05877">
        <ele>747.08</ele>
        <time>2015-07-18T15:36:19Z</time>
      </trkpt>
      <trkpt lat="43.6869" lon="3.05898">
        <ele>746.12</ele>
        <time>2015-07-18T15:36:20Z</time>
      </trkpt>
      <trkpt lat="43.68691" lon="3.05919">
        <ele>745.16</ele>
        <time>2015-07-18T15:36:21Z</time>
      </trkpt>
      <trkpt lat="43.68691" lon="3.05961">
        <ele>742.76</ele>
        <time>2015-07-18T15:36:23Z</time>
      </trkpt>
      <trkpt lat="43.68688" lon="3.05981">
        <ele>741.79</ele>
        <time>2015-07-18T15:36:24Z</time>
      </trkpt>
      <trkpt lat="43.68682" lon="3.06022">
        <ele>739.39</ele>
        <time>2015-07-18T15:36:26Z</time>
      </trkpt>
      <trkpt lat="43.68681" lon="3.06044">
        <ele>737.95</ele>
        <time>2015-07-18T15:36:27Z</time>
      </trkpt>
      <trkpt lat="43.68682" lon="3.06066">
        <ele>736.99</ele>
        <time>2015-07-18T15:36:28Z</time>
      </trkpt>
      <trkpt lat="43.68684" lon="3.06088">
        <ele>736.03</ele>
        <time>2015-07-18T15:36:29Z</time>
      </trkpt>
      <trkpt lat="43.68687" lon="3.0611">
        <ele>734.58</ele>
        <time>2015-07-18T15:36:30Z</time>
      </trkpt>
      <trkpt lat="43.6869" lon="3.06131">
        <ele>733.62</ele>
        <time>2015-07-18T15:36:31Z</time>
      </trkpt>
      <trkpt lat="43.68698" lon="3.06194">
        <ele>730.26</ele>
        <time>2015-07-18T15:36:34Z</time>
      </trkpt>
      <trkpt lat="43.68697" lon="3.06215">
        <ele>728.82</ele>
        <time>2015-07-18T15:36:35Z</time>
      </trkpt>
      <trkpt lat="43.68696" lon="3.06255">
        <ele>726.89</ele>
        <time>2015-07-18T15:36:37Z</time>
      </trkpt>
      <trkpt lat="43.68701" lon="3.06274">
        <ele>725.93</ele>
        <time>2015-07-18T15:36:38Z</time>
      </trkpt>
      <trkpt lat="43.68707" lon="3.06293">
        <ele>724.97</ele>
        <time>2015-07-18T15:36:39Z</time>
      </trkpt>
      <trkpt lat="43.68729" lon="3.06401">
        <ele>718.24</ele>
        <time>2015-07-18T15:36:44Z</time>
      </trkpt>
      <trkpt lat="43.68729" lon="3.06425">
        <ele>716.8</ele>
        <time>2015-07-18T15:36:45Z</time>
      </trkpt>
      <trkpt lat="43.68727" lon="3.0645">
        <ele>715.36</ele>
        <time>2015-07-18T15:36:46Z</time>
      </trkpt>
      <trkpt lat="43.68713" lon="3.06608">
        <ele>705.26</ele>
        <time>2015-07-18T15:36:53Z</time>
      </trkpt>
      <trkpt lat="43.68708" lon="3.06627">
        <ele>703.34</ele>
        <time>2015-07-18T15:36:54Z</time>
      </trkpt>
      <trkpt lat="43.68699" lon="3.06642">
        <ele>702.38</ele>
        <time>2015-07-18T15:36:55Z</time>
      </trkpt>
      <trkpt lat="43.68687" lon="3.06654">
        <ele>700.94</ele>
        <time>2015-07-18T15:36:56Z</time>
      </trkpt>
      <trkpt lat="43.68673" lon="3.06664">
        <ele>699.98</ele>
        <time>2015-07-18T15:36:57Z</time>
      </trkpt>
      <trkpt lat="43.68657" lon="3.06674">
        <ele>698.53</ele>
        <time>2015-07-18T15:36:58Z</time>
      </trkpt>
      <trkpt lat="43.68642" lon="3.06686">
        <ele>697.09</ele>
        <time>2015-07-18T15:36:59Z</time>
      </trkpt>
      <trkpt lat="43.68549" lon="3.06742">
        <ele>688.92</ele>
        <time>2015-07-18T15:37:05Z</time>
      </trkpt>
      <trkpt lat="43.68433" lon="3.06796">
        <ele>678.35</ele>
        <time>2015-07-18T15:37:12Z</time>
      </trkpt>
      <trkpt lat="43.68418" lon="3.06808">
        <ele>676.42</ele>
        <time>2015-07-18T15:37:13Z</time>
      </trkpt>
      <trkpt lat="43.68404" lon="3.06823">
        <ele>674.98</ele>
        <time>2015-07-18T15:37:14Z</time>
      </trkpt>
      <trkpt lat="43.68393" lon="3.06844">
        <ele>673.54</ele>
        <time>2015-07-18T15:37:15Z</time>
      </trkpt>
      <trkpt lat="43.68383" lon="3.06866">
        <ele>672.1</ele>
        <time>2015-07-18T15:37:16Z</time>
      </trkpt>
      <trkpt lat="43.68373" lon="3.06889">
        <ele>670.66</ele>
        <time>2015-07-18T15:37:17Z</time>
      </trkpt>
      <trkpt lat="43.68291" lon="3.0703">
        <ele>657.68</ele>
        <time>2015-07-18T15:37:24Z</time>
      </trkpt>
      <trkpt lat="43.68283" lon="3.07052">
        <ele>655.76</ele>
        <time>2015-07-18T15:37:25Z</time>
      </trkpt>
      <trkpt lat="43.68225" lon="3.07244">
        <ele>640.86</ele>
        <time>2015-07-18T15:37:33Z</time>
      </trkpt>
      <trkpt lat="43.68219" lon="3.07268">
        <ele>638.93</ele>
        <time>2015-07-18T15:37:34Z</time>
      </trkpt>
      <trkpt lat="43.68211" lon="3.0729">
        <ele>637.01</ele>
        <time>2015-07-18T15:37:35Z</time>
      </trkpt>
      <trkpt lat="43.68202" lon="3.07312">
        <ele>635.57</ele>
        <time>2015-07-18T15:37:36Z</time>
      </trkpt>
      <trkpt lat="43.68159" lon="3.07418">
        <ele>626.92</ele>
        <time>2015-07-18T15:37:41Z</time>
      </trkpt>
      <trkpt lat="43.68154" lon="3.0744">
        <ele>625.47</ele>
        <time>2015-07-18T15:37:42Z</time>
      </trkpt>
      <trkpt lat="43.68151" lon="3.07463">
        <ele>624.03</ele>
        <time>2015-07-18T15:37:43Z</time>
      </trkpt>
      <trkpt lat="43.68149" lon="3.07487">
        <ele>622.59</ele>
        <time>2015-07-18T15:37:44Z</time>
      </trkpt>
      <trkpt lat="43.68149" lon="3.07511">
        <ele>621.15</ele>
        <time>2015-07-18T15:37:45Z</time>
      </trkpt>
      <trkpt lat="43.6815" lon="3.07535">
        <ele>618.75</ele>
        <time>2015-07-18T15:37:46Z</time>
      </trkpt>
      <trkpt lat="43.68151" lon="3.07602">
        <ele>614.42</ele>
        <time>2015-07-18T15:37:49Z</time>
      </trkpt>
      <trkpt lat="43.68148" lon="3.07623">
        <ele>612.98</ele>
        <time>2015-07-18T15:37:50Z</time>
      </trkpt>
      <trkpt lat="43.68144" lon="3.07644">
        <ele>611.54</ele>
        <time>2015-07-18T15:37:51Z</time>
      </trkpt>
      <trkpt lat="43.68117" lon="3.07776">
        <ele>602.88</ele>
        <time>2015-07-18T15:37:57Z</time>
      </trkpt>
      <trkpt lat="43.68109" lon="3.07797">
        <ele>601.44</ele>
        <time>2015-07-18T15:37:58Z</time>
      </trkpt>
      <trkpt lat="43.68094" lon="3.07837">
        <ele>598.56</ele>
        <time>2015-07-18T15:38:00Z</time>
      </trkpt>
      <trkpt lat="43.68089" lon="3.07859">
        <ele>596.64</ele>
        <time>2015-07-18T15:38:01Z</time>
      </trkpt>
      <trkpt lat="43.68086" lon="3.07882">
        <ele>595.19</ele>
        <time>2015-07-18T15:38:02Z</time>
      </trkpt>
      <trkpt lat="43.68083" lon="3.07906">
        <ele>593.27</ele>
        <time>2015-07-18T15:38:03Z</time>
      </trkpt>
      <trkpt lat="43.68079" lon="3.07929">
        <ele>591.83</ele>
        <time>2015-07-18T15:38:04Z</time>
      </trkpt>
      <trkpt lat="43.68074" lon="3.07952">
        <ele>590.39</ele>
        <time>2015-07-18T15:38:05Z</time>
      </trkpt>
      <trkpt lat="43.68058" lon="3.08036">
        <ele>585.1</ele>
        <time>2015-07-18T15:38:09Z</time>
      </trkpt>
      <trkpt lat="43.68052" lon="3.08048">
        <ele>584.14</ele>
        <time>2015-07-18T15:38:10Z</time>
      </trkpt>
      <trkpt lat="43.68043" lon="3.08054">
        <ele>583.18</ele>
        <time>2015-07-18T15:38:11Z</time>
      </trkpt>
      <trkpt lat="43.68033" lon="3.08055">
        <ele>582.7</ele>
        <time>2015-07-18T15:38:12Z</time>
      </trkpt>
      <trkpt lat="43.68023" lon="3.08049">
        <ele>581.73</ele>
        <time>2015-07-18T15:38:13Z</time>
      </trkpt>
      <trkpt lat="43.68015" lon="3.0804">
        <ele>581.25</ele>
        <time>2015-07-18T15:38:14Z</time>
      </trkpt>
      <trkpt lat="43.68008" lon="3.08027">
        <ele>579.81</ele>
        <time>2015-07-18T15:38:15Z</time>
      </trkpt>
      <trkpt lat="43.68002" lon="3.08012">
        <ele>579.33</ele>
        <time>2015-07-18T15:38:16Z</time>
      </trkpt>
      <trkpt lat="43.67998" lon="3.07996">
        <ele>578.85</ele>
        <time>2015-07-18T15:38:17Z</time>
      </trkpt>
      <trkpt lat="43.67992" lon="3.07982">
        <ele>577.89</ele>
        <time>2015-07-18T15:38:18Z</time>
      </trkpt>
      <trkpt lat="43.67984" lon="3.07974">
        <ele>577.89</ele>
        <time>2015-07-18T15:38:19Z</time>
      </trkpt>
      <trkpt lat="43.67974" lon="3.07973">
        <ele>576.45</ele>
        <time>2015-07-18T15:38:20Z</time>
      </trkpt>
      <trkpt lat="43.67966" lon="3.07978">
        <ele>575.01</ele>
        <time>2015-07-18T15:38:21Z</time>
      </trkpt>
      <trkpt lat="43.67961" lon="3.07988">
        <ele>574.53</ele>
        <time>2015-07-18T15:38:22Z</time>
      </trkpt>
      <trkpt lat="43.67961" lon="3.08004">
        <ele>575.49</ele>
        <time>2015-07-18T15:38:23Z</time>
      </trkpt>
      <trkpt lat="43.67964" lon="3.0802">
        <ele>575.49</ele>
        <time>2015-07-18T15:38:24Z</time>
      </trkpt>
      <trkpt lat="43.6797" lon="3.08037">
        <ele>575.01</ele>
        <time>2015-07-18T15:38:25Z</time>
      </trkpt>
      <trkpt lat="43.67978" lon="3.08054">
        <ele>574.04</ele>
        <time>2015-07-18T15:38:26Z</time>
      </trkpt>
      <trkpt lat="43.67988" lon="3.0807">
        <ele>573.08</ele>
        <time>2015-07-18T15:38:27Z</time>
      </trkpt>
      <trkpt lat="43.67999" lon="3.08084">
        <ele>572.12</ele>
        <time>2015-07-18T15:38:28Z</time>
      </trkpt>
      <trkpt lat="43.68012" lon="3.08094">
        <ele>571.16</ele>
        <time>2015-07-18T15:38:29Z</time>
      </trkpt>
      <trkpt lat="43.68024" lon="3.08101">
        <ele>571.64</ele>
        <time>2015-07-18T15:38:30Z</time>
      </trkpt>
      <trkpt lat="43.68036" lon="3.08104">
        <ele>571.64</ele>
        <time>2015-07-18T15:38:31Z</time>
      </trkpt>
      <trkpt lat="43.68048" lon="3.08102">
        <ele>571.16</ele>
        <time>2015-07-18T15:38:32Z</time>
      </trkpt>
      <trkpt lat="43.6806" lon="3.08095">
        <ele>570.2</ele>
        <time>2015-07-18T15:38:33Z</time>
      </trkpt>
      <trkpt lat="43.68073" lon="3.08083">
        <ele>569.24</ele>
        <time>2015-07-18T15:38:34Z</time>
      </trkpt>
      <trkpt lat="43.68086" lon="3.08068">
        <ele>565.39</ele>
        <time>2015-07-18T15:38:35Z</time>
      </trkpt>
      <trkpt lat="43.68096" lon="3.08054">
        <ele>563.47</ele>
        <time>2015-07-18T15:38:36Z</time>
      </trkpt>
      <trkpt lat="43.68105" lon="3.08038">
        <ele>562.03</ele>
        <time>2015-07-18T15:38:37Z</time>
      </trkpt>
      <trkpt lat="43.68113" lon="3.0802">
        <ele>560.59</ele>
        <time>2015-07-18T15:38:38Z</time>
      </trkpt>
      <trkpt lat="43.68118" lon="3.08">
        <ele>559.62</ele>
        <time>2015-07-18T15:38:39Z</time>
      </trkpt>
      <trkpt lat="43.68123" lon="3.07979">
        <ele>558.66</ele>
        <time>2015-07-18T15:38:40Z</time>
      </trkpt>
      <trkpt lat="43.68163" lon="3.0786">
        <ele>552.41</ele>
        <time>2015-07-18T15:38:46Z</time>
      </trkpt>
      <trkpt lat="43.68173" lon="3.07842">
        <ele>550.97</ele>
        <time>2015-07-18T15:38:47Z</time>
      </trkpt>
      <trkpt lat="43.68184" lon="3.07826">
        <ele>550.01</ele>
        <time>2015-07-18T15:38:48Z</time>
      </trkpt>
      <trkpt lat="43.68206" lon="3.07796">
        <ele>547.61</ele>
        <time>2015-07-18T15:38:50Z</time>
      </trkpt>
      <trkpt lat="43.68215" lon="3.07778">
        <ele>546.65</ele>
        <time>2015-07-18T15:38:51Z</time>
      </trkpt>
      <trkpt lat="43.68275" lon="3.07643">
        <ele>538.96</ele>
        <time>2015-07-18T15:38:58Z</time>
      </trkpt>
      <trkpt lat="43.68279" lon="3.07627">
        <ele>538.48</ele>
        <time>2015-07-18T15:38:59Z</time>
      </trkpt>
      <trkpt lat="43.68285" lon="3.07603">
        <ele>537.51</ele>
        <time>2015-07-18T15:39:01Z</time>
      </trkpt>
      <trkpt lat="43.6829" lon="3.07597">
        <ele>536.07</ele>
        <time>2015-07-18T15:39:02Z</time>
      </trkpt>
      <trkpt lat="43.68304" lon="3.07607">
        <ele>534.15</ele>
        <time>2015-07-18T15:39:04Z</time>
      </trkpt>
      <trkpt lat="43.68306" lon="3.07633">
        <ele>532.71</ele>
        <time>2015-07-18T15:39:06Z</time>
      </trkpt>
      <trkpt lat="43.68302" lon="3.0765">
        <ele>531.27</ele>
        <time>2015-07-18T15:39:07Z</time>
      </trkpt>
      <trkpt lat="43.68296" lon="3.07667">
        <ele>530.3</ele>
        <time>2015-07-18T15:39:08Z</time>
      </trkpt>
      <trkpt lat="43.68285" lon="3.07683">
        <ele>528.86</ele>
        <time>2015-07-18T15:39:09Z</time>
      </trkpt>
      <trkpt lat="43.68277" lon="3.07702">
        <ele>527.42</ele>
        <time>2015-07-18T15:39:10Z</time>
      </trkpt>
      <trkpt lat="43.6827" lon="3.0772">
        <ele>526.46</ele>
        <time>2015-07-18T15:39:11Z</time>
      </trkpt>
      <trkpt lat="43.68265" lon="3.07743">
        <ele>525.5</ele>
        <time>2015-07-18T15:39:12Z</time>
      </trkpt>
      <trkpt lat="43.68263" lon="3.07765">
        <ele>524.54</ele>
        <time>2015-07-18T15:39:13Z</time>
      </trkpt>
      <trkpt lat="43.68262" lon="3.07786">
        <ele>523.58</ele>
        <time>2015-07-18T15:39:14Z</time>
      </trkpt>
      <trkpt lat="43.68262" lon="3.07805">
        <ele>522.13</ele>
        <time>2015-07-18T15:39:15Z</time>
      </trkpt>
      <trkpt lat="43.6826" lon="3.07824">
        <ele>520.21</ele>
        <time>2015-07-18T15:39:16Z</time>
      </trkpt>
      <trkpt lat="43.68255" lon="3.07841">
        <ele>518.77</ele>
        <time>2015-07-18T15:39:17Z</time>
      </trkpt>
      <trkpt lat="43.68247" lon="3.07859">
        <ele>517.33</ele>
        <time>2015-07-18T15:39:18Z</time>
      </trkpt>
      <trkpt lat="43.68238" lon="3.07876">
        <ele>516.37</ele>
        <time>2015-07-18T15:39:19Z</time>
      </trkpt>
      <trkpt lat="43.6823" lon="3.07894">
        <ele>514.92</ele>
        <time>2015-07-18T15:39:20Z</time>
      </trkpt>
      <trkpt lat="43.68223" lon="3.07915">
        <ele>513.96</ele>
        <time>2015-07-18T15:39:21Z</time>
      </trkpt>
      <trkpt lat="43.68219" lon="3.07938">
        <ele>512.04</ele>
        <time>2015-07-18T15:39:22Z</time>
      </trkpt>
      <trkpt lat="43.68215" lon="3.07961">
        <ele>510.12</ele>
        <time>2015-07-18T15:39:23Z</time>
      </trkpt>
      <trkpt lat="43.68208" lon="3.08032">
        <ele>505.79</ele>
        <time>2015-07-18T15:39:26Z</time>
      </trkpt>
      <trkpt lat="43.68206" lon="3.081">
        <ele>500.5</ele>
        <time>2015-07-18T15:39:29Z</time>
      </trkpt>
      <trkpt lat="43.68202" lon="3.08122">
        <ele>499.06</ele>
        <time>2015-07-18T15:39:30Z</time>
      </trkpt>
      <trkpt lat="43.68196" lon="3.08144">
        <ele>497.62</ele>
        <time>2015-07-18T15:39:31Z</time>
      </trkpt>
      <trkpt lat="43.68155" lon="3.08241">
        <ele>490.41</ele>
        <time>2015-07-18T15:39:36Z</time>
      </trkpt>
      <trkpt lat="43.68143" lon="3.08255">
        <ele>488.97</ele>
        <time>2015-07-18T15:39:37Z</time>
      </trkpt>
      <trkpt lat="43.68128" lon="3.08266">
        <ele>487.53</ele>
        <time>2015-07-18T15:39:38Z</time>
      </trkpt>
      <trkpt lat="43.68111" lon="3.08276">
        <ele>486.08</ele>
        <time>2015-07-18T15:39:39Z</time>
      </trkpt>
      <trkpt lat="43.68095" lon="3.08287">
        <ele>484.64</ele>
        <time>2015-07-18T15:39:40Z</time>
      </trkpt>
      <trkpt lat="43.68025" lon="3.0832">
        <ele>478.87</ele>
        <time>2015-07-18T15:39:44Z</time>
      </trkpt>
      <trkpt lat="43.67922" lon="3.08362">
        <ele>469.26</ele>
        <time>2015-07-18T15:39:50Z</time>
      </trkpt>
      <trkpt lat="43.67913" lon="3.0838">
        <ele>467.34</ele>
        <time>2015-07-18T15:39:51Z</time>
      </trkpt>
      <trkpt lat="43.67907" lon="3.084">
        <ele>464.93</ele>
        <time>2015-07-18T15:39:52Z</time>
      </trkpt>
      <trkpt lat="43.67905" lon="3.08423">
        <ele>463.49</ele>
        <time>2015-07-18T15:39:53Z</time>
      </trkpt>
      <trkpt lat="43.67906" lon="3.08448">
        <ele>462.53</ele>
        <time>2015-07-18T15:39:54Z</time>
      </trkpt>
      <trkpt lat="43.67909" lon="3.08474">
        <ele>460.61</ele>
        <time>2015-07-18T15:39:55Z</time>
      </trkpt>
      <trkpt lat="43.67913" lon="3.08501">
        <ele>457.24</ele>
        <time>2015-07-18T15:39:56Z</time>
      </trkpt>
      <trkpt lat="43.67934" lon="3.08604">
        <ele>449.55</ele>
        <time>2015-07-18T15:40:00Z</time>
      </trkpt>
      <trkpt lat="43.67942" lon="3.08626">
        <ele>447.63</ele>
        <time>2015-07-18T15:40:01Z</time>
      </trkpt>
      <trkpt lat="43.67955" lon="3.08644">
        <ele>446.67</ele>
        <time>2015-07-18T15:40:02Z</time>
      </trkpt>
      <trkpt lat="43.67969" lon="3.08656">
        <ele>445.23</ele>
        <time>2015-07-18T15:40:03Z</time>
      </trkpt>
      <trkpt lat="43.67984" lon="3.08663">
        <ele>444.27</ele>
        <time>2015-07-18T15:40:04Z</time>
      </trkpt>
      <trkpt lat="43.67997" lon="3.08667">
        <ele>443.31</ele>
        <time>2015-07-18T15:40:05Z</time>
      </trkpt>
      <trkpt lat="43.68009" lon="3.0867">
        <ele>441.86</ele>
        <time>2015-07-18T15:40:06Z</time>
      </trkpt>
      <trkpt lat="43.68016" lon="3.08676">
        <ele>440.9</ele>
        <time>2015-07-18T15:40:07Z</time>
      </trkpt>
      <trkpt lat="43.68019" lon="3.08686">
        <ele>439.94</ele>
        <time>2015-07-18T15:40:08Z</time>
      </trkpt>
      <trkpt lat="43.6802" lon="3.087">
        <ele>438.5</ele>
        <time>2015-07-18T15:40:09Z</time>
      </trkpt>
      <trkpt lat="43.68018" lon="3.08713">
        <ele>437.06</ele>
        <time>2015-07-18T15:40:10Z</time>
      </trkpt>
      <trkpt lat="43.68013" lon="3.08728">
        <ele>436.1</ele>
        <time>2015-07-18T15:40:11Z</time>
      </trkpt>
      <trkpt lat="43.68006" lon="3.08743">
        <ele>434.65</ele>
        <time>2015-07-18T15:40:12Z</time>
      </trkpt>
      <trkpt lat="43.67999" lon="3.08758">
        <ele>433.21</ele>
        <time>2015-07-18T15:40:13Z</time>
      </trkpt>
      <trkpt lat="43.67989" lon="3.0877">
        <ele>431.77</ele>
        <time>2015-07-18T15:40:14Z</time>
      </trkpt>
      <trkpt lat="43.67977" lon="3.08775">
        <ele>430.81</ele>
        <time>2015-07-18T15:40:15Z</time>
      </trkpt>
      <trkpt lat="43.67963" lon="3.08773">
        <ele>429.37</ele>
        <time>2015-07-18T15:40:16Z</time>
      </trkpt>
      <trkpt lat="43.67951" lon="3.08772">
        <ele>427.44</ele>
        <time>2015-07-18T15:40:17Z</time>
      </trkpt>
      <trkpt lat="43.67939" lon="3.08772">
        <ele>426</ele>
        <time>2015-07-18T15:40:18Z</time>
      </trkpt>
      <trkpt lat="43.67928" lon="3.08776">
        <ele>424.56</ele>
        <time>2015-07-18T15:40:19Z</time>
      </trkpt>
      <trkpt lat="43.67918" lon="3.08785">
        <ele>423.12</ele>
        <time>2015-07-18T15:40:20Z</time>
      </trkpt>
      <trkpt lat="43.67908" lon="3.08798">
        <ele>421.68</ele>
        <time>2015-07-18T15:40:21Z</time>
      </trkpt>
      <trkpt lat="43.67898" lon="3.08816">
        <ele>420.23</ele>
        <time>2015-07-18T15:40:22Z</time>
      </trkpt>
      <trkpt lat="43.67889" lon="3.08834">
        <ele>419.27</ele>
        <time>2015-07-18T15:40:23Z</time>
      </trkpt>
      <trkpt lat="43.6788" lon="3.08854">
        <ele>418.31</ele>
        <time>2015-07-18T15:40:24Z</time>
      </trkpt>
      <trkpt lat="43.67873" lon="3.08874">
        <ele>417.83</ele>
        <time>2015-07-18T15:40:25Z</time>
      </trkpt>
      <trkpt lat="43.67842" lon="3.08968">
        <ele>412.06</ele>
        <time>2015-07-18T15:40:30Z</time>
      </trkpt>
      <trkpt lat="43.67836" lon="3.0898">
        <ele>411.1</ele>
        <time>2015-07-18T15:40:31Z</time>
      </trkpt>
      <trkpt lat="43.67828" lon="3.08998">
        <ele>408.7</ele>
        <time>2015-07-18T15:40:33Z</time>
      </trkpt>
      <trkpt lat="43.6783" lon="3.09006">
        <ele>407.26</ele>
        <time>2015-07-18T15:40:34Z</time>
      </trkpt>
      <trkpt lat="43.67837" lon="3.09012">
        <ele>406.29</ele>
        <time>2015-07-18T15:40:35Z</time>
      </trkpt>
      <trkpt lat="43.67845" lon="3.09012">
        <ele>404.37</ele>
        <time>2015-07-18T15:40:36Z</time>
      </trkpt>
      <trkpt lat="43.67854" lon="3.0901">
        <ele>402.93</ele>
        <time>2015-07-18T15:40:37Z</time>
      </trkpt>
      <trkpt lat="43.67864" lon="3.09006">
        <ele>401.01</ele>
        <time>2015-07-18T15:40:38Z</time>
      </trkpt>
      <trkpt lat="43.67876" lon="3.08997">
        <ele>400.53</ele>
        <time>2015-07-18T15:40:39Z</time>
      </trkpt>
      <trkpt lat="43.67886" lon="3.08986">
        <ele>399.57</ele>
        <time>2015-07-18T15:40:40Z</time>
      </trkpt>
      <trkpt lat="43.67894" lon="3.08974">
        <ele>399.57</ele>
        <time>2015-07-18T15:40:41Z</time>
      </trkpt>
      <trkpt lat="43.67901" lon="3.08961">
        <ele>400.05</ele>
        <time>2015-07-18T15:40:42Z</time>
      </trkpt>
      <trkpt lat="43.67907" lon="3.08949">
        <ele>400.05</ele>
        <time>2015-07-18T15:40:43Z</time>
      </trkpt>
      <trkpt lat="43.67913" lon="3.08941">
        <ele>399.57</ele>
        <time>2015-07-18T15:40:44Z</time>
      </trkpt>
      <trkpt lat="43.6792" lon="3.08935">
        <ele>398.6</ele>
        <time>2015-07-18T15:40:45Z</time>
      </trkpt>
      <trkpt lat="43.67927" lon="3.08937">
        <ele>397.64</ele>
        <time>2015-07-18T15:40:46Z</time>
      </trkpt>
      <trkpt lat="43.67931" lon="3.08945">
        <ele>396.68</ele>
        <time>2015-07-18T15:40:47Z</time>
      </trkpt>
      <trkpt lat="43.67933" lon="3.08959">
        <ele>396.2</ele>
        <time>2015-07-18T15:40:48Z</time>
      </trkpt>
      <trkpt lat="43.67933" lon="3.08976">
        <ele>397.16</ele>
        <time>2015-07-18T15:40:49Z</time>
      </trkpt>
      <trkpt lat="43.67934" lon="3.08995">
        <ele>397.16</ele>
        <time>2015-07-18T15:40:50Z</time>
      </trkpt>
      <trkpt lat="43.67935" lon="3.09084">
        <ele>393.8</ele>
        <time>2015-07-18T15:40:55Z</time>
      </trkpt>
      <trkpt lat="43.67932" lon="3.091">
        <ele>393.32</ele>
        <time>2015-07-18T15:40:56Z</time>
      </trkpt>
      <trkpt lat="43.67927" lon="3.09115">
        <ele>391.87</ele>
        <time>2015-07-18T15:40:57Z</time>
      </trkpt>
      <trkpt lat="43.67917" lon="3.09125">
        <ele>391.39</ele>
        <time>2015-07-18T15:40:58Z</time>
      </trkpt>
      <trkpt lat="43.67905" lon="3.09129">
        <ele>390.43</ele>
        <time>2015-07-18T15:40:59Z</time>
      </trkpt>
      <trkpt lat="43.67893" lon="3.09134">
        <ele>389.95</ele>
        <time>2015-07-18T15:41:00Z</time>
      </trkpt>
      <trkpt lat="43.67881" lon="3.0914">
        <ele>388.99</ele>
        <time>2015-07-18T15:41:01Z</time>
      </trkpt>
      <trkpt lat="43.67824" lon="3.09186">
        <ele>385.15</ele>
        <time>2015-07-18T15:41:07Z</time>
      </trkpt>
      <trkpt lat="43.67825" lon="3.09193">
        <ele>384.66</ele>
        <time>2015-07-18T15:41:08Z</time>
      </trkpt>
      <trkpt lat="43.67829" lon="3.092">
        <ele>383.22</ele>
        <time>2015-07-18T15:41:09Z</time>
      </trkpt>
      <trkpt lat="43.67836" lon="3.09203">
        <ele>381.78</ele>
        <time>2015-07-18T15:41:10Z</time>
      </trkpt>
      <trkpt lat="43.67843" lon="3.09203">
        <ele>380.34</ele>
        <time>2015-07-18T15:41:11Z</time>
      </trkpt>
      <trkpt lat="43.67852" lon="3.09199">
        <ele>379.86</ele>
        <time>2015-07-18T15:41:12Z</time>
      </trkpt>
      <trkpt lat="43.67866" lon="3.09194">
        <ele>378.9</ele>
        <time>2015-07-18T15:41:13Z</time>
      </trkpt>
      <trkpt lat="43.67879" lon="3.09189">
        <ele>377.45</ele>
        <time>2015-07-18T15:41:14Z</time>
      </trkpt>
      <trkpt lat="43.67905" lon="3.09177">
        <ele>377.94</ele>
        <time>2015-07-18T15:41:16Z</time>
      </trkpt>
      <trkpt lat="43.67916" lon="3.09168">
        <ele>377.45</ele>
        <time>2015-07-18T15:41:17Z</time>
      </trkpt>
      <trkpt lat="43.67926" lon="3.09158">
        <ele>376.49</ele>
        <time>2015-07-18T15:41:18Z</time>
      </trkpt>
      <trkpt lat="43.67936" lon="3.09146">
        <ele>376.01</ele>
        <time>2015-07-18T15:41:19Z</time>
      </trkpt>
      <trkpt lat="43.67946" lon="3.09133">
        <ele>373.13</ele>
        <time>2015-07-18T15:41:20Z</time>
      </trkpt>
      <trkpt lat="43.68002" lon="3.09044">
        <ele>367.84</ele>
        <time>2015-07-18T15:41:26Z</time>
      </trkpt>
      <trkpt lat="43.68009" lon="3.09026">
        <ele>367.36</ele>
        <time>2015-07-18T15:41:27Z</time>
      </trkpt>
      <trkpt lat="43.68044" lon="3.08937">
        <ele>366.4</ele>
        <time>2015-07-18T15:41:32Z</time>
      </trkpt>
      <trkpt lat="43.68053" lon="3.08924">
        <ele>365.92</ele>
        <time>2015-07-18T15:41:33Z</time>
      </trkpt>
      <trkpt lat="43.68063" lon="3.08913">
        <ele>365.92</ele>
        <time>2015-07-18T15:41:34Z</time>
      </trkpt>
      <trkpt lat="43.68075" lon="3.08903">
        <ele>365.44</ele>
        <time>2015-07-18T15:41:35Z</time>
      </trkpt>
      <trkpt lat="43.68086" lon="3.08893">
        <ele>364.48</ele>
        <time>2015-07-18T15:41:36Z</time>
      </trkpt>
      <trkpt lat="43.68178" lon="3.08779">
        <ele>355.34</ele>
        <time>2015-07-18T15:41:45Z</time>
      </trkpt>
      <trkpt lat="43.68213" lon="3.08721">
        <ele>349.58</ele>
        <time>2015-07-18T15:41:50Z</time>
      </trkpt>
      <trkpt lat="43.68218" lon="3.08717">
        <ele>348.13</ele>
        <time>2015-07-18T15:41:51Z</time>
      </trkpt>
      <trkpt lat="43.68222" lon="3.08715">
        <ele>347.17</ele>
        <time>2015-07-18T15:41:52Z</time>
      </trkpt>
      <trkpt lat="43.68226" lon="3.08715">
        <ele>344.77</ele>
        <time>2015-07-18T15:41:54Z</time>
      </trkpt>
      <trkpt lat="43.68225" lon="3.08724">
        <ele>361.11</ele>
        <time>2015-07-18T15:42:11Z</time>
      </trkpt>
      <trkpt lat="43.68225" lon="3.08721">
        <ele>352.94</ele>
        <time>2015-07-18T15:42:39Z</time>
      </trkpt>
      <trkpt lat="43.68227" lon="3.08723">
        <ele>353.42</ele>
        <time>2015-07-18T15:42:40Z</time>
      </trkpt>
      <trkpt lat="43.6823" lon="3.08727">
        <ele>352.94</ele>
        <time>2015-07-18T15:42:41Z</time>
      </trkpt>
      <trkpt lat="43.68245" lon="3.08745">
        <ele>351.98</ele>
        <time>2015-07-18T15:42:44Z</time>
      </trkpt>
      <trkpt lat="43.68274" lon="3.08772">
        <ele>351.02</ele>
        <time>2015-07-18T15:42:49Z</time>
      </trkpt>
      <trkpt lat="43.68277" lon="3.08778">
        <ele>350.54</ele>
        <time>2015-07-18T15:42:50Z</time>
      </trkpt>
      <trkpt lat="43.68279" lon="3.08785">
        <ele>350.54</ele>
        <time>2015-07-18T15:42:51Z</time>
      </trkpt>
      <trkpt lat="43.68279" lon="3.08793">
        <ele>350.54</ele>
        <time>2015-07-18T15:42:52Z</time>
      </trkpt>
      <trkpt lat="43.68278" lon="3.08802">
        <ele>350.54</ele>
        <time>2015-07-18T15:42:53Z</time>
      </trkpt>
      <trkpt lat="43.68275" lon="3.08811">
        <ele>351.02</ele>
        <time>2015-07-18T15:42:54Z</time>
      </trkpt>
      <trkpt lat="43.68271" lon="3.08821">
        <ele>350.54</ele>
        <time>2015-07-18T15:42:55Z</time>
      </trkpt>
      <trkpt lat="43.68266" lon="3.08832">
        <ele>350.54</ele>
        <time>2015-07-18T15:42:56Z</time>
      </trkpt>
      <trkpt lat="43.68201" lon="3.08974">
        <ele>342.37</ele>
        <time>2015-07-18T15:43:08Z</time>
      </trkpt>
      <trkpt lat="43.68151" lon="3.09087">
        <ele>336.6</ele>
        <time>2015-07-18T15:43:18Z</time>
      </trkpt>
      <trkpt lat="43.68148" lon="3.09099">
        <ele>335.64</ele>
        <time>2015-07-18T15:43:19Z</time>
      </trkpt>
      <trkpt lat="43.68146" lon="3.09109">
        <ele>334.2</ele>
        <time>2015-07-18T15:43:20Z</time>
      </trkpt>
      <trkpt lat="43.68142" lon="3.09118">
        <ele>333.71</ele>
        <time>2015-07-18T15:43:21Z</time>
      </trkpt>
      <trkpt lat="43.68137" lon="3.09123">
        <ele>333.23</ele>
        <time>2015-07-18T15:43:22Z</time>
      </trkpt>
      <trkpt lat="43.6813" lon="3.09126">
        <ele>332.27</ele>
        <time>2015-07-18T15:43:23Z</time>
      </trkpt>
      <trkpt lat="43.68122" lon="3.0913">
        <ele>333.23</ele>
        <time>2015-07-18T15:43:24Z</time>
      </trkpt>
      <trkpt lat="43.68058" lon="3.09155">
        <ele>333.23</ele>
        <time>2015-07-18T15:43:31Z</time>
      </trkpt>
      <trkpt lat="43.6805" lon="3.0916">
        <ele>333.23</ele>
        <time>2015-07-18T15:43:32Z</time>
      </trkpt>
      <trkpt lat="43.68042" lon="3.09168">
        <ele>332.75</ele>
        <time>2015-07-18T15:43:33Z</time>
      </trkpt>
      <trkpt lat="43.68037" lon="3.09179">
        <ele>331.79</ele>
        <time>2015-07-18T15:43:34Z</time>
      </trkpt>
      <trkpt lat="43.68031" lon="3.0919">
        <ele>331.31</ele>
        <time>2015-07-18T15:43:35Z</time>
      </trkpt>
      <trkpt lat="43.68027" lon="3.09202">
        <ele>331.31</ele>
        <time>2015-07-18T15:43:36Z</time>
      </trkpt>
      <trkpt lat="43.68022" lon="3.09215">
        <ele>330.83</ele>
        <time>2015-07-18T15:43:37Z</time>
      </trkpt>
      <trkpt lat="43.67972" lon="3.09374">
        <ele>330.83</ele>
        <time>2015-07-18T15:43:50Z</time>
      </trkpt>
      <trkpt lat="43.67968" lon="3.09395">
        <ele>331.31</ele>
        <time>2015-07-18T15:43:52Z</time>
      </trkpt>
      <trkpt lat="43.67964" lon="3.09403">
        <ele>331.31</ele>
        <time>2015-07-18T15:43:53Z</time>
      </trkpt>
      <trkpt lat="43.6796" lon="3.09411">
        <ele>332.27</ele>
        <time>2015-07-18T15:43:54Z</time>
      </trkpt>
      <trkpt lat="43.67955" lon="3.09417">
        <ele>332.27</ele>
        <time>2015-07-18T15:43:55Z</time>
      </trkpt>
      <trkpt lat="43.67951" lon="3.09422">
        <ele>331.79</ele>
        <time>2015-07-18T15:43:56Z</time>
      </trkpt>
      <trkpt lat="43.67891" lon="3.09479">
        <ele>331.79</ele>
        <time>2015-07-18T15:44:06Z</time>
      </trkpt>
      <trkpt lat="43.67868" lon="3.09492">
        <ele>332.27</ele>
        <time>2015-07-18T15:44:09Z</time>
      </trkpt>
      <trkpt lat="43.67848" lon="3.09503">
        <ele>331.79</ele>
        <time>2015-07-18T15:44:12Z</time>
      </trkpt>
      <trkpt lat="43.67841" lon="3.09502">
        <ele>329.87</ele>
        <time>2015-07-18T15:44:13Z</time>
      </trkpt>
      <trkpt lat="43.67833" lon="3.09502">
        <ele>329.87</ele>
        <time>2015-07-18T15:44:14Z</time>
      </trkpt>
      <trkpt lat="43.67813" lon="3.09503">
        <ele>329.39</ele>
        <time>2015-07-18T15:44:16Z</time>
      </trkpt>
      <trkpt lat="43.67803" lon="3.09506">
        <ele>328.91</ele>
        <time>2015-07-18T15:44:17Z</time>
      </trkpt>
      <trkpt lat="43.67793" lon="3.09511">
        <ele>327.95</ele>
        <time>2015-07-18T15:44:18Z</time>
      </trkpt>
      <trkpt lat="43.67785" lon="3.09517">
        <ele>327.47</ele>
        <time>2015-07-18T15:44:19Z</time>
      </trkpt>
      <trkpt lat="43.67777" lon="3.09523">
        <ele>327.47</ele>
        <time>2015-07-18T15:44:20Z</time>
      </trkpt>
      <trkpt lat="43.6777" lon="3.09527">
        <ele>327.47</ele>
        <time>2015-07-18T15:44:21Z</time>
      </trkpt>
      <trkpt lat="43.67765" lon="3.09527">
        <ele>326.99</ele>
        <time>2015-07-18T15:44:22Z</time>
      </trkpt>
      <trkpt lat="43.6776" lon="3.09523">
        <ele>327.47</ele>
        <time>2015-07-18T15:44:23Z</time>
      </trkpt>
      <trkpt lat="43.67756" lon="3.09517">
        <ele>327.47</ele>
        <time>2015-07-18T15:44:24Z</time>
      </trkpt>
      <trkpt lat="43.67753" lon="3.09511">
        <ele>327.47</ele>
        <time>2015-07-18T15:44:25Z</time>
      </trkpt>
      <trkpt lat="43.6775" lon="3.09504">
        <ele>326.99</ele>
        <time>2015-07-18T15:44:26Z</time>
      </trkpt>
      <trkpt lat="43.67745" lon="3.09498">
        <ele>325.54</ele>
        <time>2015-07-18T15:44:27Z</time>
      </trkpt>
      <trkpt lat="43.67737" lon="3.09497">
        <ele>324.1</ele>
        <time>2015-07-18T15:44:28Z</time>
      </trkpt>
      <trkpt lat="43.67727" lon="3.09499">
        <ele>322.66</ele>
        <time>2015-07-18T15:44:29Z</time>
      </trkpt>
      <trkpt lat="43.67715" lon="3.09501">
        <ele>321.22</ele>
        <time>2015-07-18T15:44:30Z</time>
      </trkpt>
      <trkpt lat="43.67704" lon="3.09503">
        <ele>320.26</ele>
        <time>2015-07-18T15:44:31Z</time>
      </trkpt>
      <trkpt lat="43.67582" lon="3.09551">
        <ele>320.74</ele>
        <time>2015-07-18T15:44:42Z</time>
      </trkpt>
      <trkpt lat="43.67573" lon="3.0956">
        <ele>320.26</ele>
        <time>2015-07-18T15:44:43Z</time>
      </trkpt>
      <trkpt lat="43.67564" lon="3.09579">
        <ele>321.7</ele>
        <time>2015-07-18T15:44:44Z</time>
      </trkpt>
      <trkpt lat="43.67561" lon="3.09598">
        <ele>321.22</ele>
        <time>2015-07-18T15:44:45Z</time>
      </trkpt>
      <trkpt lat="43.6756" lon="3.09618">
        <ele>320.26</ele>
        <time>2015-07-18T15:44:46Z</time>
      </trkpt>
      <trkpt lat="43.67559" lon="3.0964">
        <ele>320.26</ele>
        <time>2015-07-18T15:44:47Z</time>
      </trkpt>
      <trkpt lat="43.67559" lon="3.09664">
        <ele>319.78</ele>
        <time>2015-07-18T15:44:48Z</time>
      </trkpt>
      <trkpt lat="43.67547" lon="3.09766">
        <ele>319.78</ele>
        <time>2015-07-18T15:44:53Z</time>
      </trkpt>
      <trkpt lat="43.67541" lon="3.09782">
        <ele>319.78</ele>
        <time>2015-07-18T15:44:54Z</time>
      </trkpt>
      <trkpt lat="43.67532" lon="3.09797">
        <ele>319.78</ele>
        <time>2015-07-18T15:44:55Z</time>
      </trkpt>
      <trkpt lat="43.67519" lon="3.09806">
        <ele>320.26</ele>
        <time>2015-07-18T15:44:56Z</time>
      </trkpt>
      <trkpt lat="43.67505" lon="3.09812">
        <ele>319.78</ele>
        <time>2015-07-18T15:44:57Z</time>
      </trkpt>
      <trkpt lat="43.6749" lon="3.09816">
        <ele>319.78</ele>
        <time>2015-07-18T15:44:58Z</time>
      </trkpt>
      <trkpt lat="43.67475" lon="3.0982">
        <ele>319.3</ele>
        <time>2015-07-18T15:44:59Z</time>
      </trkpt>
      <trkpt lat="43.67389" lon="3.0986">
        <ele>315.45</ele>
        <time>2015-07-18T15:45:05Z</time>
      </trkpt>
      <trkpt lat="43.67377" lon="3.09871">
        <ele>314.97</ele>
        <time>2015-07-18T15:45:06Z</time>
      </trkpt>
      <trkpt lat="43.67366" lon="3.09883">
        <ele>314.49</ele>
        <time>2015-07-18T15:45:07Z</time>
      </trkpt>
      <trkpt lat="43.6733" lon="3.09927">
        <ele>311.6</ele>
        <time>2015-07-18T15:45:12Z</time>
      </trkpt>
      <trkpt lat="43.67311" lon="3.09944">
        <ele>309.2</ele>
        <time>2015-07-18T15:45:14Z</time>
      </trkpt>
      <trkpt lat="43.673" lon="3.0995">
        <ele>308.24</ele>
        <time>2015-07-18T15:45:15Z</time>
      </trkpt>
      <trkpt lat="43.67289" lon="3.09955">
        <ele>308.24</ele>
        <time>2015-07-18T15:45:16Z</time>
      </trkpt>
      <trkpt lat="43.67185" lon="3.10019">
        <ele>305.84</ele>
        <time>2015-07-18T15:45:25Z</time>
      </trkpt>
      <trkpt lat="43.67071" lon="3.10078">
        <ele>300.55</ele>
        <time>2015-07-18T15:45:34Z</time>
      </trkpt>
      <trkpt lat="43.67058" lon="3.10086">
        <ele>299.59</ele>
        <time>2015-07-18T15:45:35Z</time>
      </trkpt>
      <trkpt lat="43.67046" lon="3.10097">
        <ele>299.11</ele>
        <time>2015-07-18T15:45:36Z</time>
      </trkpt>
      <trkpt lat="43.67036" lon="3.10113">
        <ele>298.15</ele>
        <time>2015-07-18T15:45:37Z</time>
      </trkpt>
      <trkpt lat="43.67029" lon="3.10131">
        <ele>297.18</ele>
        <time>2015-07-18T15:45:38Z</time>
      </trkpt>
      <trkpt lat="43.67023" lon="3.10148">
        <ele>295.74</ele>
        <time>2015-07-18T15:45:39Z</time>
      </trkpt>
      <trkpt lat="43.67015" lon="3.10165">
        <ele>294.78</ele>
        <time>2015-07-18T15:45:40Z</time>
      </trkpt>
      <trkpt lat="43.67007" lon="3.1018">
        <ele>294.3</ele>
        <time>2015-07-18T15:45:41Z</time>
      </trkpt>
      <trkpt lat="43.66996" lon="3.10191">
        <ele>294.3</ele>
        <time>2015-07-18T15:45:42Z</time>
      </trkpt>
      <trkpt lat="43.66984" lon="3.10198">
        <ele>294.3</ele>
        <time>2015-07-18T15:45:43Z</time>
      </trkpt>
      <trkpt lat="43.66972" lon="3.10202">
        <ele>293.82</ele>
        <time>2015-07-18T15:45:44Z</time>
      </trkpt>
      <trkpt lat="43.6696" lon="3.10206">
        <ele>293.34</ele>
        <time>2015-07-18T15:45:45Z</time>
      </trkpt>
      <trkpt lat="43.66949" lon="3.10211">
        <ele>292.86</ele>
        <time>2015-07-18T15:45:46Z</time>
      </trkpt>
      <trkpt lat="43.66941" lon="3.10218">
        <ele>292.38</ele>
        <time>2015-07-18T15:45:47Z</time>
      </trkpt>
      <trkpt lat="43.66935" lon="3.10224">
        <ele>291.9</ele>
        <time>2015-07-18T15:45:48Z</time>
      </trkpt>
      <trkpt lat="43.6693" lon="3.10231">
        <ele>291.42</ele>
        <time>2015-07-18T15:45:49Z</time>
      </trkpt>
      <trkpt lat="43.66926" lon="3.10238">
        <ele>290.94</ele>
        <time>2015-07-18T15:45:50Z</time>
      </trkpt>
      <trkpt lat="43.66922" lon="3.10246">
        <ele>289.97</ele>
        <time>2015-07-18T15:45:51Z</time>
      </trkpt>
      <trkpt lat="43.66918" lon="3.10255">
        <ele>290.46</ele>
        <time>2015-07-18T15:45:52Z</time>
      </trkpt>
      <trkpt lat="43.66914" lon="3.10265">
        <ele>289.97</ele>
        <time>2015-07-18T15:45:53Z</time>
      </trkpt>
      <trkpt lat="43.66871" lon="3.10357">
        <ele>286.13</ele>
        <time>2015-07-18T15:46:00Z</time>
      </trkpt>
      <trkpt lat="43.66863" lon="3.1037">
        <ele>285.65</ele>
        <time>2015-07-18T15:46:01Z</time>
      </trkpt>
      <trkpt lat="43.66836" lon="3.10402">
        <ele>284.69</ele>
        <time>2015-07-18T15:46:04Z</time>
      </trkpt>
      <trkpt lat="43.66825" lon="3.1041">
        <ele>284.69</ele>
        <time>2015-07-18T15:46:05Z</time>
      </trkpt>
      <trkpt lat="43.66814" lon="3.10416">
        <ele>284.21</ele>
        <time>2015-07-18T15:46:06Z</time>
      </trkpt>
      <trkpt lat="43.66751" lon="3.10463">
        <ele>280.84</ele>
        <time>2015-07-18T15:46:12Z</time>
      </trkpt>
      <trkpt lat="43.66744" lon="3.10478">
        <ele>280.36</ele>
        <time>2015-07-18T15:46:13Z</time>
      </trkpt>
      <trkpt lat="43.66666" lon="3.10639">
        <ele>278.92</ele>
        <time>2015-07-18T15:46:23Z</time>
      </trkpt>
      <trkpt lat="43.66661" lon="3.10653">
        <ele>278.92</ele>
        <time>2015-07-18T15:46:24Z</time>
      </trkpt>
      <trkpt lat="43.66657" lon="3.10667">
        <ele>279.88</ele>
        <time>2015-07-18T15:46:25Z</time>
      </trkpt>
      <trkpt lat="43.66654" lon="3.1068">
        <ele>278.92</ele>
        <time>2015-07-18T15:46:26Z</time>
      </trkpt>
      <trkpt lat="43.66631" lon="3.10735">
        <ele>276.52</ele>
        <time>2015-07-18T15:46:30Z</time>
      </trkpt>
      <trkpt lat="43.66623" lon="3.10746">
        <ele>276.04</ele>
        <time>2015-07-18T15:46:31Z</time>
      </trkpt>
      <trkpt lat="43.66612" lon="3.10755">
        <ele>276.04</ele>
        <time>2015-07-18T15:46:32Z</time>
      </trkpt>
      <trkpt lat="43.666" lon="3.10763">
        <ele>275.07</ele>
        <time>2015-07-18T15:46:33Z</time>
      </trkpt>
      <trkpt lat="43.66587" lon="3.1077">
        <ele>274.59</ele>
        <time>2015-07-18T15:46:34Z</time>
      </trkpt>
      <trkpt lat="43.66573" lon="3.10777">
        <ele>274.59</ele>
        <time>2015-07-18T15:46:35Z</time>
      </trkpt>
      <trkpt lat="43.66493" lon="3.10797">
        <ele>272.19</ele>
        <time>2015-07-18T15:46:41Z</time>
      </trkpt>
      <trkpt lat="43.66482" lon="3.10802">
        <ele>271.23</ele>
        <time>2015-07-18T15:46:42Z</time>
      </trkpt>
      <trkpt lat="43.66472" lon="3.1081">
        <ele>270.75</ele>
        <time>2015-07-18T15:46:43Z</time>
      </trkpt>
      <trkpt lat="43.66414" lon="3.10848">
        <ele>266.42</ele>
        <time>2015-07-18T15:46:51Z</time>
      </trkpt>
      <trkpt lat="43.66411" lon="3.1085">
        <ele>266.42</ele>
        <time>2015-07-18T15:46:53Z</time>
      </trkpt>
      <trkpt lat="43.6641" lon="3.10854">
        <ele>266.42</ele>
        <time>2015-07-18T15:46:54Z</time>
      </trkpt>
      <trkpt lat="43.66413" lon="3.10861">
        <ele>266.42</ele>
        <time>2015-07-18T15:46:55Z</time>
      </trkpt>
      <trkpt lat="43.66417" lon="3.10873">
        <ele>266.9</ele>
        <time>2015-07-18T15:46:56Z</time>
      </trkpt>
      <trkpt lat="43.6642" lon="3.10887">
        <ele>267.38</ele>
        <time>2015-07-18T15:46:57Z</time>
      </trkpt>
      <trkpt lat="43.66432" lon="3.10949">
        <ele>267.86</ele>
        <time>2015-07-18T15:47:01Z</time>
      </trkpt>
      <trkpt lat="43.66432" lon="3.10964">
        <ele>267.86</ele>
        <time>2015-07-18T15:47:02Z</time>
      </trkpt>
      <trkpt lat="43.66426" lon="3.10981">
        <ele>267.86</ele>
        <time>2015-07-18T15:47:03Z</time>
      </trkpt>
      <trkpt lat="43.66415" lon="3.10995">
        <ele>267.86</ele>
        <time>2015-07-18T15:47:04Z</time>
      </trkpt>
      <trkpt lat="43.66401" lon="3.11006">
        <ele>268.35</ele>
        <time>2015-07-18T15:47:05Z</time>
      </trkpt>
      <trkpt lat="43.66384" lon="3.11017">
        <ele>268.35</ele>
        <time>2015-07-18T15:47:06Z</time>
      </trkpt>
      <trkpt lat="43.66367" lon="3.1103">
        <ele>267.86</ele>
        <time>2015-07-18T15:47:07Z</time>
      </trkpt>
      <trkpt lat="43.66208" lon="3.11144">
        <ele>267.38</ele>
        <time>2015-07-18T15:47:15Z</time>
      </trkpt>
      <trkpt lat="43.66113" lon="3.11172">
        <ele>265.94</ele>
        <time>2015-07-18T15:47:20Z</time>
      </trkpt>
      <trkpt lat="43.66097" lon="3.1117">
        <ele>265.46</ele>
        <time>2015-07-18T15:47:21Z</time>
      </trkpt>
      <trkpt lat="43.66081" lon="3.11164">
        <ele>265.46</ele>
        <time>2015-07-18T15:47:22Z</time>
      </trkpt>
      <trkpt lat="43.66044" lon="3.11152">
        <ele>265.94</ele>
        <time>2015-07-18T15:47:24Z</time>
      </trkpt>
      <trkpt lat="43.66004" lon="3.11137">
        <ele>266.42</ele>
        <time>2015-07-18T15:47:26Z</time>
      </trkpt>
      <trkpt lat="43.65985" lon="3.11125">
        <ele>266.9</ele>
        <time>2015-07-18T15:47:27Z</time>
      </trkpt>
      <trkpt lat="43.65967" lon="3.11111">
        <ele>266.9</ele>
        <time>2015-07-18T15:47:28Z</time>
      </trkpt>
      <trkpt lat="43.6595" lon="3.11097">
        <ele>267.38</ele>
        <time>2015-07-18T15:47:29Z</time>
      </trkpt>
      <trkpt lat="43.65936" lon="3.11079">
        <ele>267.86</ele>
        <time>2015-07-18T15:47:30Z</time>
      </trkpt>
      <trkpt lat="43.65926" lon="3.11057">
        <ele>267.38</ele>
        <time>2015-07-18T15:47:31Z</time>
      </trkpt>
      <trkpt lat="43.65919" lon="3.11034">
        <ele>266.9</ele>
        <time>2015-07-18T15:47:32Z</time>
      </trkpt>
      <trkpt lat="43.65916" lon="3.1101">
        <ele>266.42</ele>
        <time>2015-07-18T15:47:33Z</time>
      </trkpt>
      <trkpt lat="43.65915" lon="3.10984">
        <ele>266.9</ele>
        <time>2015-07-18T15:47:34Z</time>
      </trkpt>
      <trkpt lat="43.65913" lon="3.1096">
        <ele>266.9</ele>
        <time>2015-07-18T15:47:35Z</time>
      </trkpt>
      <trkpt lat="43.65906" lon="3.10941">
        <ele>266.9</ele>
        <time>2015-07-18T15:47:36Z</time>
      </trkpt>
      <trkpt lat="43.65895" lon="3.10925">
        <ele>266.9</ele>
        <time>2015-07-18T15:47:37Z</time>
      </trkpt>
      <trkpt lat="43.65884" lon="3.10908">
        <ele>267.86</ele>
        <time>2015-07-18T15:47:38Z</time>
      </trkpt>
      <trkpt lat="43.65866" lon="3.10892">
        <ele>267.86</ele>
        <time>2015-07-18T15:47:39Z</time>
      </trkpt>
      <trkpt lat="43.6585" lon="3.10875">
        <ele>268.35</ele>
        <time>2015-07-18T15:47:40Z</time>
      </trkpt>
      <trkpt lat="43.65836" lon="3.10858">
        <ele>268.83</ele>
        <time>2015-07-18T15:47:41Z</time>
      </trkpt>
      <trkpt lat="43.65821" lon="3.10839">
        <ele>267.38</ele>
        <time>2015-07-18T15:47:42Z</time>
      </trkpt>
      <trkpt lat="43.65802" lon="3.10798">
        <ele>267.38</ele>
        <time>2015-07-18T15:47:44Z</time>
      </trkpt>
      <trkpt lat="43.65794" lon="3.10777">
        <ele>266.42</ele>
        <time>2015-07-18T15:47:45Z</time>
      </trkpt>
      <trkpt lat="43.6579" lon="3.10756">
        <ele>265.94</ele>
        <time>2015-07-18T15:47:46Z</time>
      </trkpt>
      <trkpt lat="43.65764" lon="3.1073">
        <ele>262.58</ele>
        <time>2015-07-18T15:47:49Z</time>
      </trkpt>
      <trkpt lat="43.65749" lon="3.10735">
        <ele>260.65</ele>
        <time>2015-07-18T15:47:50Z</time>
      </trkpt>
      <trkpt lat="43.65732" lon="3.10747">
        <ele>259.69</ele>
        <time>2015-07-18T15:47:51Z</time>
      </trkpt>
      <trkpt lat="43.65715" lon="3.10766">
        <ele>259.69</ele>
        <time>2015-07-18T15:47:52Z</time>
      </trkpt>
      <trkpt lat="43.657" lon="3.10783">
        <ele>257.77</ele>
        <time>2015-07-18T15:47:53Z</time>
      </trkpt>
      <trkpt lat="43.65685" lon="3.10806">
        <ele>256.33</ele>
        <time>2015-07-18T15:47:54Z</time>
      </trkpt>
      <trkpt lat="43.6567" lon="3.10829">
        <ele>255.37</ele>
        <time>2015-07-18T15:47:55Z</time>
      </trkpt>
      <trkpt lat="43.65655" lon="3.10852">
        <ele>254.89</ele>
        <time>2015-07-18T15:47:56Z</time>
      </trkpt>
      <trkpt lat="43.65475" lon="3.1107">
        <ele>249.12</ele>
        <time>2015-07-18T15:48:07Z</time>
      </trkpt>
      <trkpt lat="43.65435" lon="3.1109">
        <ele>249.6</ele>
        <time>2015-07-18T15:48:09Z</time>
      </trkpt>
      <trkpt lat="43.65417" lon="3.11095">
        <ele>248.16</ele>
        <time>2015-07-18T15:48:10Z</time>
      </trkpt>
      <trkpt lat="43.65399" lon="3.11094">
        <ele>245.75</ele>
        <time>2015-07-18T15:48:11Z</time>
      </trkpt>
      <trkpt lat="43.65382" lon="3.11091">
        <ele>243.83</ele>
        <time>2015-07-18T15:48:12Z</time>
      </trkpt>
      <trkpt lat="43.65363" lon="3.11082">
        <ele>241.43</ele>
        <time>2015-07-18T15:48:13Z</time>
      </trkpt>
      <trkpt lat="43.65341" lon="3.11055">
        <ele>242.87</ele>
        <time>2015-07-18T15:48:14Z</time>
      </trkpt>
      <trkpt lat="43.65314" lon="3.11017">
        <ele>246.72</ele>
        <time>2015-07-18T15:48:15Z</time>
      </trkpt>
      <trkpt lat="43.65293" lon="3.10997">
        <ele>247.68</ele>
        <time>2015-07-18T15:48:16Z</time>
      </trkpt>
      <trkpt lat="43.65141" lon="3.10863">
        <ele>248.16</ele>
        <time>2015-07-18T15:48:24Z</time>
      </trkpt>
      <trkpt lat="43.65128" lon="3.1084">
        <ele>248.16</ele>
        <time>2015-07-18T15:48:25Z</time>
      </trkpt>
      <trkpt lat="43.65116" lon="3.10815">
        <ele>247.68</ele>
        <time>2015-07-18T15:48:26Z</time>
      </trkpt>
      <trkpt lat="43.65107" lon="3.10792">
        <ele>247.2</ele>
        <time>2015-07-18T15:48:27Z</time>
      </trkpt>
      <trkpt lat="43.651" lon="3.10769">
        <ele>246.72</ele>
        <time>2015-07-18T15:48:28Z</time>
      </trkpt>
      <trkpt lat="43.65092" lon="3.10747">
        <ele>247.2</ele>
        <time>2015-07-18T15:48:29Z</time>
      </trkpt>
      <trkpt lat="43.65083" lon="3.10726">
        <ele>246.72</ele>
        <time>2015-07-18T15:48:30Z</time>
      </trkpt>
      <trkpt lat="43.65071" lon="3.10707">
        <ele>246.72</ele>
        <time>2015-07-18T15:48:31Z</time>
      </trkpt>
      <trkpt lat="43.65056" lon="3.1069">
        <ele>246.72</ele>
        <time>2015-07-18T15:48:32Z</time>
      </trkpt>
      <trkpt lat="43.6504" lon="3.10679">
        <ele>246.72</ele>
        <time>2015-07-18T15:48:33Z</time>
      </trkpt>
      <trkpt lat="43.65023" lon="3.10676">
        <ele>246.72</ele>
        <time>2015-07-18T15:48:34Z</time>
      </trkpt>
      <trkpt lat="43.65005" lon="3.10679">
        <ele>246.72</ele>
        <time>2015-07-18T15:48:35Z</time>
      </trkpt>
      <trkpt lat="43.64988" lon="3.10685">
        <ele>247.68</ele>
        <time>2015-07-18T15:48:36Z</time>
      </trkpt>
      <trkpt lat="43.64971" lon="3.10702">
        <ele>248.16</ele>
        <time>2015-07-18T15:48:37Z</time>
      </trkpt>
      <trkpt lat="43.64957" lon="3.10723">
        <ele>245.75</ele>
        <time>2015-07-18T15:48:38Z</time>
      </trkpt>
      <trkpt lat="43.64945" lon="3.10749">
        <ele>244.79</ele>
        <time>2015-07-18T15:48:39Z</time>
      </trkpt>
      <trkpt lat="43.64937" lon="3.10778">
        <ele>244.31</ele>
        <time>2015-07-18T15:48:40Z</time>
      </trkpt>
      <trkpt lat="43.64938" lon="3.10812">
        <ele>242.87</ele>
        <time>2015-07-18T15:48:41Z</time>
      </trkpt>
      <trkpt lat="43.6494" lon="3.10845">
        <ele>244.79</ele>
        <time>2015-07-18T15:48:42Z</time>
      </trkpt>
      <trkpt lat="43.64946" lon="3.10875">
        <ele>245.75</ele>
        <time>2015-07-18T15:48:43Z</time>
      </trkpt>
      <trkpt lat="43.64953" lon="3.10906">
        <ele>245.27</ele>
        <time>2015-07-18T15:48:44Z</time>
      </trkpt>
      <trkpt lat="43.64955" lon="3.10939">
        <ele>247.2</ele>
        <time>2015-07-18T15:48:45Z</time>
      </trkpt>
      <trkpt lat="43.64956" lon="3.10969">
        <ele>247.68</ele>
        <time>2015-07-18T15:48:46Z</time>
      </trkpt>
      <trkpt lat="43.64957" lon="3.10997">
        <ele>247.68</ele>
        <time>2015-07-18T15:48:47Z</time>
      </trkpt>
      <trkpt lat="43.64962" lon="3.11026">
        <ele>248.64</ele>
        <time>2015-07-18T15:48:48Z</time>
      </trkpt>
      <trkpt lat="43.6497" lon="3.11056">
        <ele>248.64</ele>
        <time>2015-07-18T15:48:49Z</time>
      </trkpt>
      <trkpt lat="43.6498" lon="3.11086">
        <ele>248.64</ele>
        <time>2015-07-18T15:48:50Z</time>
      </trkpt>
      <trkpt lat="43.65013" lon="3.11198">
        <ele>248.64</ele>
        <time>2015-07-18T15:48:54Z</time>
      </trkpt>
      <trkpt lat="43.65015" lon="3.11229">
        <ele>249.12</ele>
        <time>2015-07-18T15:48:55Z</time>
      </trkpt>
      <trkpt lat="43.65013" lon="3.11263">
        <ele>248.64</ele>
        <time>2015-07-18T15:48:56Z</time>
      </trkpt>
      <trkpt lat="43.65007" lon="3.11296">
        <ele>248.64</ele>
        <time>2015-07-18T15:48:57Z</time>
      </trkpt>
      <trkpt lat="43.64999" lon="3.11328">
        <ele>248.64</ele>
        <time>2015-07-18T15:48:58Z</time>
      </trkpt>
      <trkpt lat="43.6499" lon="3.1136">
        <ele>248.64</ele>
        <time>2015-07-18T15:48:59Z</time>
      </trkpt>
      <trkpt lat="43.6498" lon="3.11391">
        <ele>248.64</ele>
        <time>2015-07-18T15:49:00Z</time>
      </trkpt>
      <trkpt lat="43.64956" lon="3.11449">
        <ele>248.16</ele>
        <time>2015-07-18T15:49:02Z</time>
      </trkpt>
      <trkpt lat="43.6494" lon="3.11475">
        <ele>248.16</ele>
        <time>2015-07-18T15:49:03Z</time>
      </trkpt>
      <trkpt lat="43.64921" lon="3.11498">
        <ele>247.68</ele>
        <time>2015-07-18T15:49:04Z</time>
      </trkpt>
      <trkpt lat="43.64901" lon="3.1152">
        <ele>247.68</ele>
        <time>2015-07-18T15:49:05Z</time>
      </trkpt>
      <trkpt lat="43.6488" lon="3.11539">
        <ele>247.68</ele>
        <time>2015-07-18T15:49:06Z</time>
      </trkpt>
      <trkpt lat="43.64858" lon="3.11558">
        <ele>247.68</ele>
        <time>2015-07-18T15:49:07Z</time>
      </trkpt>
      <trkpt lat="43.64837" lon="3.11576">
        <ele>247.2</ele>
        <time>2015-07-18T15:49:08Z</time>
      </trkpt>
      <trkpt lat="43.64814" lon="3.11591">
        <ele>247.2</ele>
        <time>2015-07-18T15:49:09Z</time>
      </trkpt>
      <trkpt lat="43.6479" lon="3.11606">
        <ele>246.72</ele>
        <time>2015-07-18T15:49:10Z</time>
      </trkpt>
      <trkpt lat="43.64766" lon="3.11618">
        <ele>246.72</ele>
        <time>2015-07-18T15:49:11Z</time>
      </trkpt>
      <trkpt lat="43.64693" lon="3.1164">
        <ele>245.75</ele>
        <time>2015-07-18T15:49:14Z</time>
      </trkpt>
      <trkpt lat="43.64668" lon="3.11636">
        <ele>245.75</ele>
        <time>2015-07-18T15:49:15Z</time>
      </trkpt>
      <trkpt lat="43.64644" lon="3.11627">
        <ele>246.23</ele>
        <time>2015-07-18T15:49:16Z</time>
      </trkpt>
      <trkpt lat="43.64621" lon="3.11611">
        <ele>245.27</ele>
        <time>2015-07-18T15:49:17Z</time>
      </trkpt>
      <trkpt lat="43.64599" lon="3.11595">
        <ele>246.72</ele>
        <time>2015-07-18T15:49:18Z</time>
      </trkpt>
      <trkpt lat="43.6458" lon="3.11576">
        <ele>246.72</ele>
        <time>2015-07-18T15:49:19Z</time>
      </trkpt>
      <trkpt lat="43.64562" lon="3.11557">
        <ele>246.72</ele>
        <time>2015-07-18T15:49:20Z</time>
      </trkpt>
      <trkpt lat="43.64544" lon="3.1154">
        <ele>247.2</ele>
        <time>2015-07-18T15:49:21Z</time>
      </trkpt>
      <trkpt lat="43.64524" lon="3.11526">
        <ele>247.2</ele>
        <time>2015-07-18T15:49:22Z</time>
      </trkpt>
      <trkpt lat="43.64506" lon="3.11508">
        <ele>246.72</ele>
        <time>2015-07-18T15:49:23Z</time>
      </trkpt>
      <trkpt lat="43.64489" lon="3.11483">
        <ele>247.2</ele>
        <time>2015-07-18T15:49:24Z</time>
      </trkpt>
      <trkpt lat="43.64473" lon="3.11455">
        <ele>245.75</ele>
        <time>2015-07-18T15:49:25Z</time>
      </trkpt>
      <trkpt lat="43.64459" lon="3.11425">
        <ele>245.27</ele>
        <time>2015-07-18T15:49:26Z</time>
      </trkpt>
      <trkpt lat="43.64445" lon="3.11395">
        <ele>244.31</ele>
        <time>2015-07-18T15:49:27Z</time>
      </trkpt>
      <trkpt lat="43.64434" lon="3.11364">
        <ele>243.83</ele>
        <time>2015-07-18T15:49:28Z</time>
      </trkpt>
      <trkpt lat="43.64425" lon="3.11332">
        <ele>242.87</ele>
        <time>2015-07-18T15:49:29Z</time>
      </trkpt>
      <trkpt lat="43.64419" lon="3.11301">
        <ele>242.39</ele>
        <time>2015-07-18T15:49:30Z</time>
      </trkpt>
      <trkpt lat="43.64419" lon="3.1127">
        <ele>241.91</ele>
        <time>2015-07-18T15:49:31Z</time>
      </trkpt>
      <trkpt lat="43.64424" lon="3.11239">
        <ele>242.87</ele>
        <time>2015-07-18T15:49:32Z</time>
      </trkpt>
      <trkpt lat="43.6444" lon="3.11219">
        <ele>243.35</ele>
        <time>2015-07-18T15:49:33Z</time>
      </trkpt>
      <trkpt lat="43.6446" lon="3.11199">
        <ele>243.35</ele>
        <time>2015-07-18T15:49:34Z</time>
      </trkpt>
      <trkpt lat="43.64479" lon="3.1118">
        <ele>242.87</ele>
        <time>2015-07-18T15:49:35Z</time>
      </trkpt>
      <trkpt lat="43.64498" lon="3.1116">
        <ele>242.87</ele>
        <time>2015-07-18T15:49:36Z</time>
      </trkpt>
      <trkpt lat="43.64531" lon="3.11119">
        <ele>242.39</ele>
        <time>2015-07-18T15:49:38Z</time>
      </trkpt>
      <trkpt lat="43.64542" lon="3.11096">
        <ele>241.91</ele>
        <time>2015-07-18T15:49:39Z</time>
      </trkpt>
      <trkpt lat="43.64547" lon="3.11067">
        <ele>241.91</ele>
        <time>2015-07-18T15:49:40Z</time>
      </trkpt>
      <trkpt lat="43.64552" lon="3.11038">
        <ele>242.39</ele>
        <time>2015-07-18T15:49:41Z</time>
      </trkpt>
      <trkpt lat="43.64549" lon="3.11003">
        <ele>243.35</ele>
        <time>2015-07-18T15:49:42Z</time>
      </trkpt>
      <trkpt lat="43.64546" lon="3.10969">
        <ele>242.87</ele>
        <time>2015-07-18T15:49:43Z</time>
      </trkpt>
      <trkpt lat="43.64541" lon="3.10937">
        <ele>243.35</ele>
        <time>2015-07-18T15:49:44Z</time>
      </trkpt>
      <trkpt lat="43.64535" lon="3.10906">
        <ele>242.87</ele>
        <time>2015-07-18T15:49:45Z</time>
      </trkpt>
      <trkpt lat="43.64528" lon="3.10876">
        <ele>242.87</ele>
        <time>2015-07-18T15:49:46Z</time>
      </trkpt>
      <trkpt lat="43.64497" lon="3.10809">
        <ele>241.43</ele>
        <time>2015-07-18T15:49:49Z</time>
      </trkpt>
      <trkpt lat="43.64481" lon="3.10793">
        <ele>239.99</ele>
        <time>2015-07-18T15:49:50Z</time>
      </trkpt>
      <trkpt lat="43.6446" lon="3.10782">
        <ele>239.51</ele>
        <time>2015-07-18T15:49:51Z</time>
      </trkpt>
      <trkpt lat="43.64367" lon="3.1074">
        <ele>235.66</ele>
        <time>2015-07-18T15:49:55Z</time>
      </trkpt>
      <trkpt lat="43.64341" lon="3.10739">
        <ele>234.7</ele>
        <time>2015-07-18T15:49:56Z</time>
      </trkpt>
      <trkpt lat="43.64315" lon="3.10742">
        <ele>233.74</ele>
        <time>2015-07-18T15:49:57Z</time>
      </trkpt>
      <trkpt lat="43.64289" lon="3.10749">
        <ele>233.26</ele>
        <time>2015-07-18T15:49:58Z</time>
      </trkpt>
      <trkpt lat="43.64263" lon="3.10758">
        <ele>235.18</ele>
        <time>2015-07-18T15:49:59Z</time>
      </trkpt>
      <trkpt lat="43.63998" lon="3.10815">
        <ele>231.81</ele>
        <time>2015-07-18T15:50:10Z</time>
      </trkpt>
      <trkpt lat="43.63807" lon="3.10876">
        <ele>229.89</ele>
        <time>2015-07-18T15:50:19Z</time>
      </trkpt>
      <trkpt lat="43.63686" lon="3.10912">
        <ele>228.45</ele>
        <time>2015-07-18T15:50:26Z</time>
      </trkpt>
      <trkpt lat="43.6362" lon="3.10937">
        <ele>227.01</ele>
        <time>2015-07-18T15:50:33Z</time>
      </trkpt>
      <trkpt lat="43.63543" lon="3.10943">
        <ele>226.05</ele>
        <time>2015-07-18T15:50:41Z</time>
      </trkpt>
      <trkpt lat="43.63445" lon="3.10956">
        <ele>226.05</ele>
        <time>2015-07-18T15:50:51Z</time>
      </trkpt>
      <trkpt lat="43.63285" lon="3.10973">
        <ele>226.05</ele>
        <time>2015-07-18T15:51:08Z</time>
      </trkpt>
      <trkpt lat="43.63136" lon="3.10982">
        <ele>226.53</ele>
        <time>2015-07-18T15:51:21Z</time>
      </trkpt>
      <trkpt lat="43.6303" lon="3.11029">
        <ele>226.05</ele>
        <time>2015-07-18T15:51:28Z</time>
      </trkpt>
      <trkpt lat="43.62948" lon="3.11079">
        <ele>226.05</ele>
        <time>2015-07-18T15:51:35Z</time>
      </trkpt>
      <trkpt lat="43.62833" lon="3.11115">
        <ele>225.57</ele>
        <time>2015-07-18T15:51:45Z</time>
      </trkpt>
      <trkpt lat="43.62731" lon="3.11144">
        <ele>225.09</ele>
        <time>2015-07-18T15:51:54Z</time>
      </trkpt>
      <trkpt lat="43.62699" lon="3.11158">
        <ele>224.12</ele>
        <time>2015-07-18T15:51:57Z</time>
      </trkpt>
      <trkpt lat="43.62689" lon="3.11159">
        <ele>224.12</ele>
        <time>2015-07-18T15:51:58Z</time>
      </trkpt>
      <trkpt lat="43.62681" lon="3.11154">
        <ele>223.64</ele>
        <time>2015-07-18T15:51:59Z</time>
      </trkpt>
      <trkpt lat="43.62673" lon="3.11145">
        <ele>224.12</ele>
        <time>2015-07-18T15:52:00Z</time>
      </trkpt>
      <trkpt lat="43.62667" lon="3.11132">
        <ele>223.64</ele>
        <time>2015-07-18T15:52:01Z</time>
      </trkpt>
      <trkpt lat="43.62661" lon="3.11122">
        <ele>223.16</ele>
        <time>2015-07-18T15:52:02Z</time>
      </trkpt>
      <trkpt lat="43.62639" lon="3.11087">
        <ele>222.68</ele>
        <time>2015-07-18T15:52:06Z</time>
      </trkpt>
      <trkpt lat="43.62628" lon="3.11079">
        <ele>221.72</ele>
        <time>2015-07-18T15:52:07Z</time>
      </trkpt>
      <trkpt lat="43.62613" lon="3.11076">
        <ele>221.24</ele>
        <time>2015-07-18T15:52:08Z</time>
      </trkpt>
      <trkpt lat="43.62597" lon="3.11079">
        <ele>220.76</ele>
        <time>2015-07-18T15:52:09Z</time>
      </trkpt>
      <trkpt lat="43.62582" lon="3.11089">
        <ele>220.28</ele>
        <time>2015-07-18T15:52:10Z</time>
      </trkpt>
      <trkpt lat="43.62566" lon="3.111">
        <ele>219.8</ele>
        <time>2015-07-18T15:52:11Z</time>
      </trkpt>
      <trkpt lat="43.6255" lon="3.11114">
        <ele>219.32</ele>
        <time>2015-07-18T15:52:12Z</time>
      </trkpt>
      <trkpt lat="43.62425" lon="3.1123">
        <ele>218.36</ele>
        <time>2015-07-18T15:52:20Z</time>
      </trkpt>
      <trkpt lat="43.62413" lon="3.11248">
        <ele>218.36</ele>
        <time>2015-07-18T15:52:21Z</time>
      </trkpt>
      <trkpt lat="43.62404" lon="3.1127">
        <ele>217.88</ele>
        <time>2015-07-18T15:52:22Z</time>
      </trkpt>
      <trkpt lat="43.62398" lon="3.11295">
        <ele>217.4</ele>
        <time>2015-07-18T15:52:23Z</time>
      </trkpt>
      <trkpt lat="43.62398" lon="3.11326">
        <ele>217.4</ele>
        <time>2015-07-18T15:52:24Z</time>
      </trkpt>
      <trkpt lat="43.62398" lon="3.11357">
        <ele>217.88</ele>
        <time>2015-07-18T15:52:25Z</time>
      </trkpt>
      <trkpt lat="43.624" lon="3.11389">
        <ele>218.84</ele>
        <time>2015-07-18T15:52:26Z</time>
      </trkpt>
      <trkpt lat="43.62403" lon="3.11421">
        <ele>219.8</ele>
        <time>2015-07-18T15:52:27Z</time>
      </trkpt>
      <trkpt lat="43.62414" lon="3.11485">
        <ele>220.76</ele>
        <time>2015-07-18T15:52:29Z</time>
      </trkpt>
      <trkpt lat="43.62425" lon="3.11516">
        <ele>222.2</ele>
        <time>2015-07-18T15:52:30Z</time>
      </trkpt>
      <trkpt lat="43.62461" lon="3.11632">
        <ele>224.12</ele>
        <time>2015-07-18T15:52:34Z</time>
      </trkpt>
      <trkpt lat="43.62465" lon="3.11659">
        <ele>224.12</ele>
        <time>2015-07-18T15:52:35Z</time>
      </trkpt>
      <trkpt lat="43.62467" lon="3.11686">
        <ele>224.12</ele>
        <time>2015-07-18T15:52:36Z</time>
      </trkpt>
      <trkpt lat="43.62467" lon="3.11713">
        <ele>223.16</ele>
        <time>2015-07-18T15:52:37Z</time>
      </trkpt>
      <trkpt lat="43.62464" lon="3.1174">
        <ele>223.16</ele>
        <time>2015-07-18T15:52:38Z</time>
      </trkpt>
      <trkpt lat="43.62458" lon="3.11768">
        <ele>222.2</ele>
        <time>2015-07-18T15:52:39Z</time>
      </trkpt>
      <trkpt lat="43.62451" lon="3.11795">
        <ele>221.24</ele>
        <time>2015-07-18T15:52:40Z</time>
      </trkpt>
      <trkpt lat="43.62441" lon="3.11821">
        <ele>220.28</ele>
        <time>2015-07-18T15:52:41Z</time>
      </trkpt>
      <trkpt lat="43.6243" lon="3.11845">
        <ele>219.32</ele>
        <time>2015-07-18T15:52:42Z</time>
      </trkpt>
      <trkpt lat="43.6238" lon="3.12015">
        <ele>213.07</ele>
        <time>2015-07-18T15:52:48Z</time>
      </trkpt>
      <trkpt lat="43.62349" lon="3.12118">
        <ele>210.67</ele>
        <time>2015-07-18T15:52:52Z</time>
      </trkpt>
      <trkpt lat="43.62337" lon="3.12141">
        <ele>209.7</ele>
        <time>2015-07-18T15:52:53Z</time>
      </trkpt>
      <trkpt lat="43.62323" lon="3.12163">
        <ele>209.22</ele>
        <time>2015-07-18T15:52:54Z</time>
      </trkpt>
      <trkpt lat="43.62307" lon="3.12183">
        <ele>208.74</ele>
        <time>2015-07-18T15:52:55Z</time>
      </trkpt>
      <trkpt lat="43.62288" lon="3.12202">
        <ele>208.26</ele>
        <time>2015-07-18T15:52:56Z</time>
      </trkpt>
      <trkpt lat="43.62268" lon="3.12218">
        <ele>207.78</ele>
        <time>2015-07-18T15:52:57Z</time>
      </trkpt>
      <trkpt lat="43.62243" lon="3.1223">
        <ele>206.82</ele>
        <time>2015-07-18T15:52:58Z</time>
      </trkpt>
      <trkpt lat="43.62218" lon="3.12239">
        <ele>206.34</ele>
        <time>2015-07-18T15:52:59Z</time>
      </trkpt>
      <trkpt lat="43.62192" lon="3.12245">
        <ele>205.38</ele>
        <time>2015-07-18T15:53:00Z</time>
      </trkpt>
      <trkpt lat="43.62166" lon="3.12251">
        <ele>204.9</ele>
        <time>2015-07-18T15:53:01Z</time>
      </trkpt>
      <trkpt lat="43.62087" lon="3.12256">
        <ele>203.46</ele>
        <time>2015-07-18T15:53:04Z</time>
      </trkpt>
      <trkpt lat="43.62061" lon="3.12249">
        <ele>202.98</ele>
        <time>2015-07-18T15:53:05Z</time>
      </trkpt>
      <trkpt lat="43.62035" lon="3.12238">
        <ele>202.98</ele>
        <time>2015-07-18T15:53:06Z</time>
      </trkpt>
      <trkpt lat="43.62011" lon="3.12226">
        <ele>202.98</ele>
        <time>2015-07-18T15:53:07Z</time>
      </trkpt>
      <trkpt lat="43.61988" lon="3.12212">
        <ele>202.98</ele>
        <time>2015-07-18T15:53:08Z</time>
      </trkpt>
      <trkpt lat="43.61907" lon="3.12164">
        <ele>202.01</ele>
        <time>2015-07-18T15:53:13Z</time>
      </trkpt>
      <trkpt lat="43.61871" lon="3.12137">
        <ele>201.53</ele>
        <time>2015-07-18T15:53:18Z</time>
      </trkpt>
      <trkpt lat="43.61865" lon="3.1213">
        <ele>201.05</ele>
        <time>2015-07-18T15:53:19Z</time>
      </trkpt>
      <trkpt lat="43.6186" lon="3.12121">
        <ele>201.05</ele>
        <time>2015-07-18T15:53:20Z</time>
      </trkpt>
      <trkpt lat="43.61855" lon="3.12111">
        <ele>200.57</ele>
        <time>2015-07-18T15:53:21Z</time>
      </trkpt>
      <trkpt lat="43.61852" lon="3.121">
        <ele>200.57</ele>
        <time>2015-07-18T15:53:22Z</time>
      </trkpt>
      <trkpt lat="43.61849" lon="3.12088">
        <ele>200.09</ele>
        <time>2015-07-18T15:53:23Z</time>
      </trkpt>
      <trkpt lat="43.61847" lon="3.12075">
        <ele>199.61</ele>
        <time>2015-07-18T15:53:24Z</time>
      </trkpt>
      <trkpt lat="43.61828" lon="3.11962">
        <ele>199.61</ele>
        <time>2015-07-18T15:53:35Z</time>
      </trkpt>
      <trkpt lat="43.6181" lon="3.11867">
        <ele>200.57</ele>
        <time>2015-07-18T15:53:43Z</time>
      </trkpt>
      <trkpt lat="43.61778" lon="3.1175">
        <ele>199.13</ele>
        <time>2015-07-18T15:53:51Z</time>
      </trkpt>
      <trkpt lat="43.61769" lon="3.11744">
        <ele>198.65</ele>
        <time>2015-07-18T15:53:52Z</time>
      </trkpt>
      <trkpt lat="43.61756" lon="3.11745">
        <ele>198.65</ele>
        <time>2015-07-18T15:53:53Z</time>
      </trkpt>
      <trkpt lat="43.61741" lon="3.11748">
        <ele>198.17</ele>
        <time>2015-07-18T15:53:54Z</time>
      </trkpt>
      <trkpt lat="43.61725" lon="3.11751">
        <ele>198.17</ele>
        <time>2015-07-18T15:53:55Z</time>
      </trkpt>
      <trkpt lat="43.6161" lon="3.11771">
        <ele>197.69</ele>
        <time>2015-07-18T15:54:02Z</time>
      </trkpt>
      <trkpt lat="43.61592" lon="3.11778">
        <ele>197.21</ele>
        <time>2015-07-18T15:54:03Z</time>
      </trkpt>
      <trkpt lat="43.61574" lon="3.11789">
        <ele>197.21</ele>
        <time>2015-07-18T15:54:04Z</time>
      </trkpt>
      <trkpt lat="43.61388" lon="3.11895">
        <ele>197.21</ele>
        <time>2015-07-18T15:54:14Z</time>
      </trkpt>
      <trkpt lat="43.61193" lon="3.11981">
        <ele>196.73</ele>
        <time>2015-07-18T15:54:23Z</time>
      </trkpt>
      <trkpt lat="43.61129" lon="3.12014">
        <ele>197.21</ele>
        <time>2015-07-18T15:54:26Z</time>
      </trkpt>
      <trkpt lat="43.61106" lon="3.12021">
        <ele>197.69</ele>
        <time>2015-07-18T15:54:27Z</time>
      </trkpt>
      <trkpt lat="43.61083" lon="3.12025">
        <ele>198.17</ele>
        <time>2015-07-18T15:54:28Z</time>
      </trkpt>
      <trkpt lat="43.60915" lon="3.12027">
        <ele>198.17</ele>
        <time>2015-07-18T15:54:35Z</time>
      </trkpt>
      <trkpt lat="43.60892" lon="3.12014">
        <ele>198.17</ele>
        <time>2015-07-18T15:54:36Z</time>
      </trkpt>
      <trkpt lat="43.60868" lon="3.12">
        <ele>198.65</ele>
        <time>2015-07-18T15:54:37Z</time>
      </trkpt>
      <trkpt lat="43.60844" lon="3.11985">
        <ele>198.65</ele>
        <time>2015-07-18T15:54:38Z</time>
      </trkpt>
      <trkpt lat="43.60821" lon="3.11969">
        <ele>199.13</ele>
        <time>2015-07-18T15:54:39Z</time>
      </trkpt>
      <trkpt lat="43.6073" lon="3.11925">
        <ele>198.65</ele>
        <time>2015-07-18T15:54:43Z</time>
      </trkpt>
      <trkpt lat="43.60525" lon="3.11898">
        <ele>194.8</ele>
        <time>2015-07-18T15:54:51Z</time>
      </trkpt>
      <trkpt lat="43.60217" lon="3.11854">
        <ele>192.4</ele>
        <time>2015-07-18T15:55:02Z</time>
      </trkpt>
      <trkpt lat="43.60026" lon="3.11808">
        <ele>191.92</ele>
        <time>2015-07-18T15:55:10Z</time>
      </trkpt>
      <trkpt lat="43.59906" lon="3.11774">
        <ele>191.92</ele>
        <time>2015-07-18T15:55:17Z</time>
      </trkpt>
      <trkpt lat="43.59781" lon="3.11691">
        <ele>193.36</ele>
        <time>2015-07-18T15:55:27Z</time>
      </trkpt>
      <trkpt lat="43.59656" lon="3.11618">
        <ele>193.84</ele>
        <time>2015-07-18T15:55:38Z</time>
      </trkpt>
      <trkpt lat="43.59537" lon="3.11578">
        <ele>196.73</ele>
        <time>2015-07-18T15:55:50Z</time>
      </trkpt>
      <trkpt lat="43.59495" lon="3.11565">
        <ele>196.73</ele>
        <time>2015-07-18T15:55:55Z</time>
      </trkpt>
      <trkpt lat="43.59489" lon="3.1156">
        <ele>196.73</ele>
        <time>2015-07-18T15:55:56Z</time>
      </trkpt>
      <trkpt lat="43.59484" lon="3.11554">
        <ele>196.73</ele>
        <time>2015-07-18T15:55:57Z</time>
      </trkpt>
      <trkpt lat="43.59479" lon="3.11547">
        <ele>196.73</ele>
        <time>2015-07-18T15:55:58Z</time>
      </trkpt>
      <trkpt lat="43.59474" lon="3.11539">
        <ele>197.21</ele>
        <time>2015-07-18T15:55:59Z</time>
      </trkpt>
      <trkpt lat="43.59423" lon="3.11469">
        <ele>198.65</ele>
        <time>2015-07-18T15:56:11Z</time>
      </trkpt>
      <trkpt lat="43.59388" lon="3.11422">
        <ele>198.17</ele>
        <time>2015-07-18T15:56:21Z</time>
      </trkpt>
      <trkpt lat="43.59387" lon="3.11421">
        <ele>198.17</ele>
        <time>2015-07-18T15:56:22Z</time>
      </trkpt>
      <trkpt lat="43.59385" lon="3.11421">
        <ele>197.69</ele>
        <time>2015-07-18T15:56:23Z</time>
      </trkpt>
      <trkpt lat="43.59384" lon="3.11422">
        <ele>197.21</ele>
        <time>2015-07-18T15:56:24Z</time>
      </trkpt>
      <trkpt lat="43.59383" lon="3.11423">
        <ele>197.21</ele>
        <time>2015-07-18T15:56:25Z</time>
      </trkpt>
      <trkpt lat="43.59381" lon="3.11423">
        <ele>196.73</ele>
        <time>2015-07-18T15:56:28Z</time>
      </trkpt>
      <trkpt lat="43.5938" lon="3.11422">
        <ele>196.25</ele>
        <time>2015-07-18T15:56:29Z</time>
      </trkpt>
      <trkpt lat="43.59378" lon="3.11421">
        <ele>195.77</ele>
        <time>2015-07-18T15:56:30Z</time>
      </trkpt>
      <trkpt lat="43.59379" lon="3.11422">
        <ele>194.8</ele>
        <time>2015-07-18T15:56:47Z</time>
      </trkpt>
      <trkpt lat="43.59381" lon="3.11421">
        <ele>193.36</ele>
        <time>2015-07-18T16:31:47Z</time>
      </trkpt>
      <trkpt lat="43.59377" lon="3.11424">
        <ele>194.32</ele>
        <time>2015-07-18T16:34:00Z</time>
      </trkpt>
      <trkpt lat="43.59368" lon="3.11423">
        <ele>192.88</ele>
        <time>2015-07-18T16:34:12Z</time>
      </trkpt>
      <trkpt lat="43.59359" lon="3.1143">
        <ele>193.84</ele>
        <time>2015-07-18T16:34:15Z</time>
      </trkpt>
      <trkpt lat="43.59357" lon="3.11435">
        <ele>193.84</ele>
        <time>2015-07-18T16:34:16Z</time>
      </trkpt>
      <trkpt lat="43.59355" lon="3.1144">
        <ele>193.36</ele>
        <time>2015-07-18T16:34:17Z</time>
      </trkpt>
      <trkpt lat="43.59355" lon="3.11447">
        <ele>193.36</ele>
        <time>2015-07-18T16:34:18Z</time>
      </trkpt>
      <trkpt lat="43.59357" lon="3.11455">
        <ele>193.36</ele>
        <time>2015-07-18T16:34:19Z</time>
      </trkpt>
      <trkpt lat="43.59359" lon="3.11464">
        <ele>193.36</ele>
        <time>2015-07-18T16:34:20Z</time>
      </trkpt>
      <trkpt lat="43.5936" lon="3.11471">
        <ele>192.88</ele>
        <time>2015-07-18T16:34:21Z</time>
      </trkpt>
      <trkpt lat="43.59373" lon="3.11579">
        <ele>191.92</ele>
        <time>2015-07-18T16:34:33Z</time>
      </trkpt>
      <trkpt lat="43.59385" lon="3.11696">
        <ele>190.48</ele>
        <time>2015-07-18T16:34:42Z</time>
      </trkpt>
      <trkpt lat="43.59403" lon="3.11854">
        <ele>188.56</ele>
        <time>2015-07-18T16:34:52Z</time>
      </trkpt>
      <trkpt lat="43.59404" lon="3.11868">
        <ele>188.56</ele>
        <time>2015-07-18T16:34:53Z</time>
      </trkpt>
      <trkpt lat="43.59403" lon="3.11882">
        <ele>188.56</ele>
        <time>2015-07-18T16:34:54Z</time>
      </trkpt>
      <trkpt lat="43.594" lon="3.11894">
        <ele>188.56</ele>
        <time>2015-07-18T16:34:55Z</time>
      </trkpt>
      <trkpt lat="43.59396" lon="3.11904">
        <ele>188.08</ele>
        <time>2015-07-18T16:34:56Z</time>
      </trkpt>
      <trkpt lat="43.59392" lon="3.11913">
        <ele>188.08</ele>
        <time>2015-07-18T16:34:57Z</time>
      </trkpt>
      <trkpt lat="43.59391" lon="3.11922">
        <ele>188.08</ele>
        <time>2015-07-18T16:34:58Z</time>
      </trkpt>
      <trkpt lat="43.59394" lon="3.11931">
        <ele>187.59</ele>
        <time>2015-07-18T16:34:59Z</time>
      </trkpt>
      <trkpt lat="43.59401" lon="3.11942">
        <ele>188.08</ele>
        <time>2015-07-18T16:35:00Z</time>
      </trkpt>
      <trkpt lat="43.59408" lon="3.11953">
        <ele>188.08</ele>
        <time>2015-07-18T16:35:01Z</time>
      </trkpt>
      <trkpt lat="43.59414" lon="3.11968">
        <ele>188.56</ele>
        <time>2015-07-18T16:35:02Z</time>
      </trkpt>
      <trkpt lat="43.59418" lon="3.11984">
        <ele>189.04</ele>
        <time>2015-07-18T16:35:03Z</time>
      </trkpt>
      <trkpt lat="43.5942" lon="3.12001">
        <ele>189.04</ele>
        <time>2015-07-18T16:35:04Z</time>
      </trkpt>
      <trkpt lat="43.59439" lon="3.12172">
        <ele>190.96</ele>
        <time>2015-07-18T16:35:12Z</time>
      </trkpt>
      <trkpt lat="43.59469" lon="3.12435">
        <ele>190</ele>
        <time>2015-07-18T16:35:24Z</time>
      </trkpt>
      <trkpt lat="43.59509" lon="3.12752">
        <ele>191.44</ele>
        <time>2015-07-18T16:35:37Z</time>
      </trkpt>
      <trkpt lat="43.59513" lon="3.12794">
        <ele>191.44</ele>
        <time>2015-07-18T16:35:39Z</time>
      </trkpt>
      <trkpt lat="43.59513" lon="3.12812">
        <ele>191.44</ele>
        <time>2015-07-18T16:35:40Z</time>
      </trkpt>
      <trkpt lat="43.59511" lon="3.12829">
        <ele>191.44</ele>
        <time>2015-07-18T16:35:41Z</time>
      </trkpt>
      <trkpt lat="43.59509" lon="3.12845">
        <ele>191.44</ele>
        <time>2015-07-18T16:35:42Z</time>
      </trkpt>
      <trkpt lat="43.59511" lon="3.12856">
        <ele>191.92</ele>
        <time>2015-07-18T16:35:43Z</time>
      </trkpt>
      <trkpt lat="43.59517" lon="3.12867">
        <ele>191.44</ele>
        <time>2015-07-18T16:35:44Z</time>
      </trkpt>
      <trkpt lat="43.59527" lon="3.12879">
        <ele>191.44</ele>
        <time>2015-07-18T16:35:45Z</time>
      </trkpt>
      <trkpt lat="43.59537" lon="3.12897">
        <ele>191.44</ele>
        <time>2015-07-18T16:35:46Z</time>
      </trkpt>
      <trkpt lat="43.59545" lon="3.12918">
        <ele>191.92</ele>
        <time>2015-07-18T16:35:47Z</time>
      </trkpt>
      <trkpt lat="43.59552" lon="3.12942">
        <ele>192.4</ele>
        <time>2015-07-18T16:35:48Z</time>
      </trkpt>
      <trkpt lat="43.59619" lon="3.13203">
        <ele>194.8</ele>
        <time>2015-07-18T16:35:59Z</time>
      </trkpt>
      <trkpt lat="43.59688" lon="3.13476">
        <ele>198.17</ele>
        <time>2015-07-18T16:36:12Z</time>
      </trkpt>
      <trkpt lat="43.59715" lon="3.13587">
        <ele>198.17</ele>
        <time>2015-07-18T16:36:19Z</time>
      </trkpt>
      <trkpt lat="43.59758" lon="3.13755">
        <ele>197.69</ele>
        <time>2015-07-18T16:36:26Z</time>
      </trkpt>
      <trkpt lat="43.59806" lon="3.13913">
        <ele>196.73</ele>
        <time>2015-07-18T16:36:33Z</time>
      </trkpt>
      <trkpt lat="43.59807" lon="3.13928">
        <ele>196.73</ele>
        <time>2015-07-18T16:36:34Z</time>
      </trkpt>
      <trkpt lat="43.59806" lon="3.13942">
        <ele>196.25</ele>
        <time>2015-07-18T16:36:35Z</time>
      </trkpt>
      <trkpt lat="43.598" lon="3.13952">
        <ele>195.77</ele>
        <time>2015-07-18T16:36:36Z</time>
      </trkpt>
      <trkpt lat="43.59793" lon="3.13961">
        <ele>195.28</ele>
        <time>2015-07-18T16:36:37Z</time>
      </trkpt>
      <trkpt lat="43.59787" lon="3.13971">
        <ele>195.28</ele>
        <time>2015-07-18T16:36:38Z</time>
      </trkpt>
      <trkpt lat="43.59784" lon="3.13983">
        <ele>194.8</ele>
        <time>2015-07-18T16:36:39Z</time>
      </trkpt>
      <trkpt lat="43.59786" lon="3.13997">
        <ele>194.32</ele>
        <time>2015-07-18T16:36:40Z</time>
      </trkpt>
      <trkpt lat="43.59791" lon="3.14009">
        <ele>194.32</ele>
        <time>2015-07-18T16:36:41Z</time>
      </trkpt>
      <trkpt lat="43.59799" lon="3.14015">
        <ele>193.84</ele>
        <time>2015-07-18T16:36:42Z</time>
      </trkpt>
      <trkpt lat="43.59811" lon="3.14014">
        <ele>193.36</ele>
        <time>2015-07-18T16:36:43Z</time>
      </trkpt>
      <trkpt lat="43.59823" lon="3.14011">
        <ele>193.36</ele>
        <time>2015-07-18T16:36:44Z</time>
      </trkpt>
      <trkpt lat="43.59835" lon="3.14009">
        <ele>193.84</ele>
        <time>2015-07-18T16:36:45Z</time>
      </trkpt>
      <trkpt lat="43.59848" lon="3.14011">
        <ele>193.36</ele>
        <time>2015-07-18T16:36:46Z</time>
      </trkpt>
      <trkpt lat="43.5986" lon="3.14018">
        <ele>193.36</ele>
        <time>2015-07-18T16:36:47Z</time>
      </trkpt>
      <trkpt lat="43.59871" lon="3.14032">
        <ele>193.36</ele>
        <time>2015-07-18T16:36:48Z</time>
      </trkpt>
      <trkpt lat="43.59881" lon="3.14048">
        <ele>193.84</ele>
        <time>2015-07-18T16:36:49Z</time>
      </trkpt>
      <trkpt lat="43.59891" lon="3.14067">
        <ele>194.32</ele>
        <time>2015-07-18T16:36:50Z</time>
      </trkpt>
      <trkpt lat="43.59901" lon="3.14085">
        <ele>194.32</ele>
        <time>2015-07-18T16:36:51Z</time>
      </trkpt>
      <trkpt lat="43.59928" lon="3.14139">
        <ele>194.8</ele>
        <time>2015-07-18T16:36:54Z</time>
      </trkpt>
      <trkpt lat="43.60036" lon="3.14337">
        <ele>195.77</ele>
        <time>2015-07-18T16:37:04Z</time>
      </trkpt>
      <trkpt lat="43.60187" lon="3.14566">
        <ele>196.25</ele>
        <time>2015-07-18T16:37:16Z</time>
      </trkpt>
      <trkpt lat="43.6031" lon="3.14667">
        <ele>194.32</ele>
        <time>2015-07-18T16:37:24Z</time>
      </trkpt>
      <trkpt lat="43.60424" lon="3.14759">
        <ele>194.8</ele>
        <time>2015-07-18T16:37:33Z</time>
      </trkpt>
      <trkpt lat="43.6055" lon="3.14865">
        <ele>195.77</ele>
        <time>2015-07-18T16:37:45Z</time>
      </trkpt>
      <trkpt lat="43.60598" lon="3.14904">
        <ele>197.21</ele>
        <time>2015-07-18T16:37:53Z</time>
      </trkpt>
      <trkpt lat="43.60615" lon="3.1493">
        <ele>197.21</ele>
        <time>2015-07-18T16:38:00Z</time>
      </trkpt>
      <trkpt lat="43.60621" lon="3.14933">
        <ele>197.69</ele>
        <time>2015-07-18T16:38:01Z</time>
      </trkpt>
      <trkpt lat="43.60628" lon="3.14935">
        <ele>197.69</ele>
        <time>2015-07-18T16:38:02Z</time>
      </trkpt>
      <trkpt lat="43.60637" lon="3.14937">
        <ele>197.69</ele>
        <time>2015-07-18T16:38:03Z</time>
      </trkpt>
      <trkpt lat="43.60648" lon="3.14941">
        <ele>197.69</ele>
        <time>2015-07-18T16:38:04Z</time>
      </trkpt>
      <trkpt lat="43.60658" lon="3.14946">
        <ele>197.69</ele>
        <time>2015-07-18T16:38:05Z</time>
      </trkpt>
      <trkpt lat="43.60667" lon="3.14952">
        <ele>198.17</ele>
        <time>2015-07-18T16:38:06Z</time>
      </trkpt>
      <trkpt lat="43.60775" lon="3.1501">
        <ele>199.13</ele>
        <time>2015-07-18T16:38:18Z</time>
      </trkpt>
      <trkpt lat="43.6085" lon="3.15043">
        <ele>200.09</ele>
        <time>2015-07-18T16:38:28Z</time>
      </trkpt>
      <trkpt lat="43.60932" lon="3.15088">
        <ele>199.61</ele>
        <time>2015-07-18T16:38:38Z</time>
      </trkpt>
      <trkpt lat="43.61005" lon="3.15118">
        <ele>199.61</ele>
        <time>2015-07-18T16:38:48Z</time>
      </trkpt>
      <trkpt lat="43.6109" lon="3.15151">
        <ele>200.09</ele>
        <time>2015-07-18T16:38:59Z</time>
      </trkpt>
      <trkpt lat="43.61198" lon="3.15192">
        <ele>203.46</ele>
        <time>2015-07-18T16:39:11Z</time>
      </trkpt>
      <trkpt lat="43.61244" lon="3.15226">
        <ele>204.42</ele>
        <time>2015-07-18T16:39:19Z</time>
      </trkpt>
      <trkpt lat="43.61287" lon="3.15261">
        <ele>206.34</ele>
        <time>2015-07-18T16:39:27Z</time>
      </trkpt>
      <trkpt lat="43.61366" lon="3.15326">
        <ele>204.42</ele>
        <time>2015-07-18T16:39:37Z</time>
      </trkpt>
      <trkpt lat="43.61467" lon="3.15411">
        <ele>208.74</ele>
        <time>2015-07-18T16:39:49Z</time>
      </trkpt>
      <trkpt lat="43.61566" lon="3.15474">
        <ele>208.26</ele>
        <time>2015-07-18T16:40:01Z</time>
      </trkpt>
      <trkpt lat="43.61595" lon="3.15487">
        <ele>210.67</ele>
        <time>2015-07-18T16:40:06Z</time>
      </trkpt>
      <trkpt lat="43.61599" lon="3.15491">
        <ele>211.15</ele>
        <time>2015-07-18T16:40:07Z</time>
      </trkpt>
      <trkpt lat="43.61603" lon="3.15493">
        <ele>212.11</ele>
        <time>2015-07-18T16:40:08Z</time>
      </trkpt>
      <trkpt lat="43.61607" lon="3.15494">
        <ele>213.55</ele>
        <time>2015-07-18T16:40:09Z</time>
      </trkpt>
      <trkpt lat="43.61611" lon="3.15496">
        <ele>214.99</ele>
        <time>2015-07-18T16:40:10Z</time>
      </trkpt>
      <trkpt lat="43.61617" lon="3.15499">
        <ele>214.99</ele>
        <time>2015-07-18T16:40:11Z</time>
      </trkpt>
      <trkpt lat="43.61623" lon="3.15501">
        <ele>214.51</ele>
        <time>2015-07-18T16:40:12Z</time>
      </trkpt>
      <trkpt lat="43.6163" lon="3.15503">
        <ele>215.47</ele>
        <time>2015-07-18T16:40:13Z</time>
      </trkpt>
      <trkpt lat="43.61637" lon="3.15504">
        <ele>215.47</ele>
        <time>2015-07-18T16:40:14Z</time>
      </trkpt>
      <trkpt lat="43.61696" lon="3.15517">
        <ele>219.8</ele>
        <time>2015-07-18T16:40:22Z</time>
      </trkpt>
      <trkpt lat="43.61777" lon="3.15537">
        <ele>216.43</ele>
        <time>2015-07-18T16:40:32Z</time>
      </trkpt>
      <trkpt lat="43.6188" lon="3.15558">
        <ele>215.47</ele>
        <time>2015-07-18T16:40:43Z</time>
      </trkpt>
      <trkpt lat="43.6189" lon="3.15563">
        <ele>214.51</ele>
        <time>2015-07-18T16:40:44Z</time>
      </trkpt>
      <trkpt lat="43.619" lon="3.15569">
        <ele>213.07</ele>
        <time>2015-07-18T16:40:45Z</time>
      </trkpt>
      <trkpt lat="43.61908" lon="3.15574">
        <ele>212.11</ele>
        <time>2015-07-18T16:40:46Z</time>
      </trkpt>
      <trkpt lat="43.61915" lon="3.15582">
        <ele>211.63</ele>
        <time>2015-07-18T16:40:47Z</time>
      </trkpt>
      <trkpt lat="43.61922" lon="3.15589">
        <ele>211.63</ele>
        <time>2015-07-18T16:40:48Z</time>
      </trkpt>
      <trkpt lat="43.61931" lon="3.15601">
        <ele>209.7</ele>
        <time>2015-07-18T16:40:50Z</time>
      </trkpt>
      <trkpt lat="43.61933" lon="3.15606">
        <ele>209.22</ele>
        <time>2015-07-18T16:40:51Z</time>
      </trkpt>
      <trkpt lat="43.61936" lon="3.1561">
        <ele>209.22</ele>
        <time>2015-07-18T16:40:52Z</time>
      </trkpt>
      <trkpt lat="43.61939" lon="3.15613">
        <ele>208.26</ele>
        <time>2015-07-18T16:40:53Z</time>
      </trkpt>
      <trkpt lat="43.61943" lon="3.15614">
        <ele>208.26</ele>
        <time>2015-07-18T16:40:54Z</time>
      </trkpt>
      <trkpt lat="43.61945" lon="3.15609">
        <ele>207.78</ele>
        <time>2015-07-18T16:40:55Z</time>
      </trkpt>
      <trkpt lat="43.61944" lon="3.15603">
        <ele>207.3</ele>
        <time>2015-07-18T16:40:56Z</time>
      </trkpt>
      <trkpt lat="43.61939" lon="3.15599">
        <ele>206.82</ele>
        <time>2015-07-18T16:40:57Z</time>
      </trkpt>
      <trkpt lat="43.61931" lon="3.15594">
        <ele>206.82</ele>
        <time>2015-07-18T16:40:58Z</time>
      </trkpt>
      <trkpt lat="43.61922" lon="3.15587">
        <ele>206.34</ele>
        <time>2015-07-18T16:40:59Z</time>
      </trkpt>
      <trkpt lat="43.61912" lon="3.15579">
        <ele>205.86</ele>
        <time>2015-07-18T16:41:00Z</time>
      </trkpt>
      <trkpt lat="43.6189" lon="3.15563">
        <ele>205.86</ele>
        <time>2015-07-18T16:41:02Z</time>
      </trkpt>
      <trkpt lat="43.61878" lon="3.15558">
        <ele>205.38</ele>
        <time>2015-07-18T16:41:03Z</time>
      </trkpt>
      <trkpt lat="43.61865" lon="3.15554">
        <ele>204.9</ele>
        <time>2015-07-18T16:41:04Z</time>
      </trkpt>
      <trkpt lat="43.61737" lon="3.15524">
        <ele>204.42</ele>
        <time>2015-07-18T16:41:15Z</time>
      </trkpt>
      <trkpt lat="43.61635" lon="3.15503">
        <ele>211.15</ele>
        <time>2015-07-18T16:41:25Z</time>
      </trkpt>
      <trkpt lat="43.61626" lon="3.15499">
        <ele>212.11</ele>
        <time>2015-07-18T16:41:27Z</time>
      </trkpt>
      <trkpt lat="43.61622" lon="3.15501">
        <ele>214.99</ele>
        <time>2015-07-18T16:41:28Z</time>
      </trkpt>
      <trkpt lat="43.61621" lon="3.15508">
        <ele>216.91</ele>
        <time>2015-07-18T16:41:29Z</time>
      </trkpt>
      <trkpt lat="43.61624" lon="3.15517">
        <ele>216.43</ele>
        <time>2015-07-18T16:41:30Z</time>
      </trkpt>
      <trkpt lat="43.61624" lon="3.15529">
        <ele>216.43</ele>
        <time>2015-07-18T16:41:31Z</time>
      </trkpt>
      <trkpt lat="43.61624" lon="3.15541">
        <ele>216.43</ele>
        <time>2015-07-18T16:41:32Z</time>
      </trkpt>
      <trkpt lat="43.61625" lon="3.15556">
        <ele>215.95</ele>
        <time>2015-07-18T16:41:33Z</time>
      </trkpt>
      <trkpt lat="43.61625" lon="3.1557">
        <ele>215.47</ele>
        <time>2015-07-18T16:41:34Z</time>
      </trkpt>
      <trkpt lat="43.61625" lon="3.1564">
        <ele>214.99</ele>
        <time>2015-07-18T16:41:42Z</time>
      </trkpt>
      <trkpt lat="43.61623" lon="3.15706">
        <ele>213.07</ele>
        <time>2015-07-18T16:41:49Z</time>
      </trkpt>
      <trkpt lat="43.61625" lon="3.15715">
        <ele>213.07</ele>
        <time>2015-07-18T16:41:50Z</time>
      </trkpt>
      <trkpt lat="43.61629" lon="3.15719">
        <ele>212.11</ele>
        <time>2015-07-18T16:41:51Z</time>
      </trkpt>
      <trkpt lat="43.61635" lon="3.1572">
        <ele>211.15</ele>
        <time>2015-07-18T16:41:52Z</time>
      </trkpt>
      <trkpt lat="43.61642" lon="3.15718">
        <ele>209.7</ele>
        <time>2015-07-18T16:41:53Z</time>
      </trkpt>
      <trkpt lat="43.61648" lon="3.15719">
        <ele>209.22</ele>
        <time>2015-07-18T16:41:54Z</time>
      </trkpt>
      <trkpt lat="43.61654" lon="3.15722">
        <ele>208.26</ele>
        <time>2015-07-18T16:41:55Z</time>
      </trkpt>
      <trkpt lat="43.61656" lon="3.15727">
        <ele>206.82</ele>
        <time>2015-07-18T16:41:56Z</time>
      </trkpt>
      <trkpt lat="43.61656" lon="3.15737">
        <ele>207.3</ele>
        <time>2015-07-18T16:41:57Z</time>
      </trkpt>
      <trkpt lat="43.61654" lon="3.15742">
        <ele>207.3</ele>
        <time>2015-07-18T16:41:58Z</time>
      </trkpt>
      <trkpt lat="43.6165" lon="3.15751">
        <ele>208.74</ele>
        <time>2015-07-18T16:41:59Z</time>
      </trkpt>
      <trkpt lat="43.61645" lon="3.15762">
        <ele>210.19</ele>
        <time>2015-07-18T16:42:00Z</time>
      </trkpt>
      <trkpt lat="43.61606" lon="3.1586">
        <ele>221.24</ele>
        <time>2015-07-18T16:42:10Z</time>
      </trkpt>
      <trkpt lat="43.61602" lon="3.15869">
        <ele>221.24</ele>
        <time>2015-07-18T16:42:11Z</time>
      </trkpt>
      <trkpt lat="43.61567" lon="3.15941">
        <ele>225.09</ele>
        <time>2015-07-18T16:42:20Z</time>
      </trkpt>
      <trkpt lat="43.6156" lon="3.15947">
        <ele>224.12</ele>
        <time>2015-07-18T16:42:22Z</time>
      </trkpt>
      <trkpt lat="43.61556" lon="3.15947">
        <ele>224.12</ele>
        <time>2015-07-18T16:42:23Z</time>
      </trkpt>
      <trkpt lat="43.61551" lon="3.15947">
        <ele>224.12</ele>
        <time>2015-07-18T16:42:24Z</time>
      </trkpt>
      <trkpt lat="43.61546" lon="3.15942">
        <ele>223.16</ele>
        <time>2015-07-18T16:42:25Z</time>
      </trkpt>
      <trkpt lat="43.61538" lon="3.15934">
        <ele>223.64</ele>
        <time>2015-07-18T16:42:26Z</time>
      </trkpt>
      <trkpt lat="43.61529" lon="3.15925">
        <ele>222.68</ele>
        <time>2015-07-18T16:42:27Z</time>
      </trkpt>
      <trkpt lat="43.61475" lon="3.15862">
        <ele>214.03</ele>
        <time>2015-07-18T16:42:35Z</time>
      </trkpt>
      <trkpt lat="43.61469" lon="3.15858">
        <ele>214.03</ele>
        <time>2015-07-18T16:42:36Z</time>
      </trkpt>
      <trkpt lat="43.61461" lon="3.15862">
        <ele>215.47</ele>
        <time>2015-07-18T16:42:37Z</time>
      </trkpt>
      <trkpt lat="43.61454" lon="3.15863">
        <ele>215.95</ele>
        <time>2015-07-18T16:42:38Z</time>
      </trkpt>
      <trkpt lat="43.61446" lon="3.15866">
        <ele>216.91</ele>
        <time>2015-07-18T16:42:39Z</time>
      </trkpt>
      <trkpt lat="43.61439" lon="3.15869">
        <ele>218.36</ele>
        <time>2015-07-18T16:42:40Z</time>
      </trkpt>
      <trkpt lat="43.61432" lon="3.15875">
        <ele>220.28</ele>
        <time>2015-07-18T16:42:41Z</time>
      </trkpt>
      <trkpt lat="43.61424" lon="3.15884">
        <ele>221.72</ele>
        <time>2015-07-18T16:42:42Z</time>
      </trkpt>
      <trkpt lat="43.61416" lon="3.15894">
        <ele>219.8</ele>
        <time>2015-07-18T16:42:43Z</time>
      </trkpt>
      <trkpt lat="43.61355" lon="3.15961">
        <ele>221.24</ele>
        <time>2015-07-18T16:42:51Z</time>
      </trkpt>
      <trkpt lat="43.61343" lon="3.15981">
        <ele>221.72</ele>
        <time>2015-07-18T16:42:53Z</time>
      </trkpt>
      <trkpt lat="43.61332" lon="3.16009">
        <ele>219.8</ele>
        <time>2015-07-18T16:42:55Z</time>
      </trkpt>
      <trkpt lat="43.61304" lon="3.16085">
        <ele>222.68</ele>
        <time>2015-07-18T16:43:01Z</time>
      </trkpt>
      <trkpt lat="43.6125" lon="3.16211">
        <ele>227.97</ele>
        <time>2015-07-18T16:43:11Z</time>
      </trkpt>
      <trkpt lat="43.61218" lon="3.16278">
        <ele>221.24</ele>
        <time>2015-07-18T16:43:17Z</time>
      </trkpt>
      <trkpt lat="43.61209" lon="3.16287">
        <ele>220.28</ele>
        <time>2015-07-18T16:43:18Z</time>
      </trkpt>
      <trkpt lat="43.612" lon="3.16296">
        <ele>219.8</ele>
        <time>2015-07-18T16:43:19Z</time>
      </trkpt>
      <trkpt lat="43.61125" lon="3.1636">
        <ele>218.84</ele>
        <time>2015-07-18T16:43:27Z</time>
      </trkpt>
      <trkpt lat="43.61114" lon="3.16366">
        <ele>218.84</ele>
        <time>2015-07-18T16:43:28Z</time>
      </trkpt>
      <trkpt lat="43.6101" lon="3.16399">
        <ele>219.8</ele>
        <time>2015-07-18T16:43:37Z</time>
      </trkpt>
      <trkpt lat="43.60954" lon="3.16408">
        <ele>220.76</ele>
        <time>2015-07-18T16:43:43Z</time>
      </trkpt>
      <trkpt lat="43.60944" lon="3.16413">
        <ele>221.24</ele>
        <time>2015-07-18T16:43:44Z</time>
      </trkpt>
      <trkpt lat="43.60935" lon="3.16419">
        <ele>221.24</ele>
        <time>2015-07-18T16:43:45Z</time>
      </trkpt>
      <trkpt lat="43.6089" lon="3.16459">
        <ele>220.76</ele>
        <time>2015-07-18T16:43:53Z</time>
      </trkpt>
      <trkpt lat="43.60888" lon="3.16467">
        <ele>220.76</ele>
        <time>2015-07-18T16:43:54Z</time>
      </trkpt>
      <trkpt lat="43.6089" lon="3.16475">
        <ele>220.28</ele>
        <time>2015-07-18T16:43:55Z</time>
      </trkpt>
      <trkpt lat="43.60897" lon="3.16483">
        <ele>219.8</ele>
        <time>2015-07-18T16:43:56Z</time>
      </trkpt>
      <trkpt lat="43.60906" lon="3.1649">
        <ele>219.8</ele>
        <time>2015-07-18T16:43:57Z</time>
      </trkpt>
      <trkpt lat="43.60916" lon="3.16501">
        <ele>219.8</ele>
        <time>2015-07-18T16:43:58Z</time>
      </trkpt>
      <trkpt lat="43.60999" lon="3.16582">
        <ele>222.68</ele>
        <time>2015-07-18T16:44:04Z</time>
      </trkpt>
      <trkpt lat="43.611" lon="3.16626">
        <ele>226.05</ele>
        <time>2015-07-18T16:44:10Z</time>
      </trkpt>
      <trkpt lat="43.61209" lon="3.16654">
        <ele>228.93</ele>
        <time>2015-07-18T16:44:17Z</time>
      </trkpt>
      <trkpt lat="43.61218" lon="3.16663">
        <ele>228.93</ele>
        <time>2015-07-18T16:44:18Z</time>
      </trkpt>
      <trkpt lat="43.61225" lon="3.16676">
        <ele>229.41</ele>
        <time>2015-07-18T16:44:19Z</time>
      </trkpt>
      <trkpt lat="43.61226" lon="3.16695">
        <ele>229.41</ele>
        <time>2015-07-18T16:44:20Z</time>
      </trkpt>
      <trkpt lat="43.61226" lon="3.16716">
        <ele>229.89</ele>
        <time>2015-07-18T16:44:21Z</time>
      </trkpt>
      <trkpt lat="43.61225" lon="3.16739">
        <ele>230.37</ele>
        <time>2015-07-18T16:44:22Z</time>
      </trkpt>
      <trkpt lat="43.61223" lon="3.16764">
        <ele>230.85</ele>
        <time>2015-07-18T16:44:23Z</time>
      </trkpt>
      <trkpt lat="43.61221" lon="3.16883">
        <ele>233.26</ele>
        <time>2015-07-18T16:44:28Z</time>
      </trkpt>
      <trkpt lat="43.61225" lon="3.16903">
        <ele>233.74</ele>
        <time>2015-07-18T16:44:29Z</time>
      </trkpt>
      <trkpt lat="43.61234" lon="3.16956">
        <ele>234.7</ele>
        <time>2015-07-18T16:44:32Z</time>
      </trkpt>
      <trkpt lat="43.61232" lon="3.1697">
        <ele>235.18</ele>
        <time>2015-07-18T16:44:33Z</time>
      </trkpt>
      <trkpt lat="43.61229" lon="3.16984">
        <ele>235.66</ele>
        <time>2015-07-18T16:44:34Z</time>
      </trkpt>
      <trkpt lat="43.61224" lon="3.16998">
        <ele>235.66</ele>
        <time>2015-07-18T16:44:35Z</time>
      </trkpt>
      <trkpt lat="43.61218" lon="3.17013">
        <ele>235.66</ele>
        <time>2015-07-18T16:44:36Z</time>
      </trkpt>
      <trkpt lat="43.61211" lon="3.17028">
        <ele>235.66</ele>
        <time>2015-07-18T16:44:37Z</time>
      </trkpt>
      <trkpt lat="43.61201" lon="3.17042">
        <ele>234.7</ele>
        <time>2015-07-18T16:44:38Z</time>
      </trkpt>
      <trkpt lat="43.61189" lon="3.17056">
        <ele>234.22</ele>
        <time>2015-07-18T16:44:39Z</time>
      </trkpt>
      <trkpt lat="43.61074" lon="3.17176">
        <ele>236.14</ele>
        <time>2015-07-18T16:44:49Z</time>
      </trkpt>
      <trkpt lat="43.61065" lon="3.17181">
        <ele>236.14</ele>
        <time>2015-07-18T16:44:50Z</time>
      </trkpt>
      <trkpt lat="43.61057" lon="3.17183">
        <ele>236.62</ele>
        <time>2015-07-18T16:44:51Z</time>
      </trkpt>
      <trkpt lat="43.61039" lon="3.17188">
        <ele>238.06</ele>
        <time>2015-07-18T16:44:53Z</time>
      </trkpt>
      <trkpt lat="43.61033" lon="3.17195">
        <ele>238.54</ele>
        <time>2015-07-18T16:44:54Z</time>
      </trkpt>
      <trkpt lat="43.61029" lon="3.17207">
        <ele>239.02</ele>
        <time>2015-07-18T16:44:55Z</time>
      </trkpt>
      <trkpt lat="43.61031" lon="3.1722">
        <ele>239.02</ele>
        <time>2015-07-18T16:44:56Z</time>
      </trkpt>
      <trkpt lat="43.61037" lon="3.17232">
        <ele>238.54</ele>
        <time>2015-07-18T16:44:57Z</time>
      </trkpt>
      <trkpt lat="43.61045" lon="3.17239">
        <ele>238.54</ele>
        <time>2015-07-18T16:44:58Z</time>
      </trkpt>
      <trkpt lat="43.61054" lon="3.17245">
        <ele>238.06</ele>
        <time>2015-07-18T16:44:59Z</time>
      </trkpt>
      <trkpt lat="43.61067" lon="3.17255">
        <ele>237.58</ele>
        <time>2015-07-18T16:45:00Z</time>
      </trkpt>
      <trkpt lat="43.61078" lon="3.1727">
        <ele>237.1</ele>
        <time>2015-07-18T16:45:01Z</time>
      </trkpt>
      <trkpt lat="43.61087" lon="3.17288">
        <ele>237.58</ele>
        <time>2015-07-18T16:45:02Z</time>
      </trkpt>
      <trkpt lat="43.61181" lon="3.17517">
        <ele>240.47</ele>
        <time>2015-07-18T16:45:13Z</time>
      </trkpt>
      <trkpt lat="43.61211" lon="3.17676">
        <ele>247.2</ele>
        <time>2015-07-18T16:45:20Z</time>
      </trkpt>
      <trkpt lat="43.61202" lon="3.17936">
        <ele>253.44</ele>
        <time>2015-07-18T16:45:30Z</time>
      </trkpt>
      <trkpt lat="43.61221" lon="3.18094">
        <ele>254.89</ele>
        <time>2015-07-18T16:45:35Z</time>
      </trkpt>
      <trkpt lat="43.61231" lon="3.18126">
        <ele>255.37</ele>
        <time>2015-07-18T16:45:36Z</time>
      </trkpt>
      <trkpt lat="43.61244" lon="3.18157">
        <ele>255.85</ele>
        <time>2015-07-18T16:45:37Z</time>
      </trkpt>
      <trkpt lat="43.61259" lon="3.18187">
        <ele>256.33</ele>
        <time>2015-07-18T16:45:38Z</time>
      </trkpt>
      <trkpt lat="43.61276" lon="3.18217">
        <ele>257.29</ele>
        <time>2015-07-18T16:45:39Z</time>
      </trkpt>
      <trkpt lat="43.61502" lon="3.18628">
        <ele>278.92</ele>
        <time>2015-07-18T16:45:52Z</time>
      </trkpt>
      <trkpt lat="43.61584" lon="3.189">
        <ele>289.49</ele>
        <time>2015-07-18T16:45:59Z</time>
      </trkpt>
      <trkpt lat="43.61695" lon="3.19164">
        <ele>292.86</ele>
        <time>2015-07-18T16:46:06Z</time>
      </trkpt>
      <trkpt lat="43.61831" lon="3.19588">
        <ele>289.49</ele>
        <time>2015-07-18T16:46:17Z</time>
      </trkpt>
      <trkpt lat="43.61871" lon="3.19948">
        <ele>290.46</ele>
        <time>2015-07-18T16:46:26Z</time>
      </trkpt>
      <trkpt lat="43.61906" lon="3.2021">
        <ele>295.74</ele>
        <time>2015-07-18T16:46:33Z</time>
      </trkpt>
      <trkpt lat="43.61917" lon="3.20246">
        <ele>296.22</ele>
        <time>2015-07-18T16:46:34Z</time>
      </trkpt>
      <trkpt lat="43.61931" lon="3.2028">
        <ele>297.18</ele>
        <time>2015-07-18T16:46:35Z</time>
      </trkpt>
      <trkpt lat="43.62064" lon="3.20557">
        <ele>303.43</ele>
        <time>2015-07-18T16:46:44Z</time>
      </trkpt>
      <trkpt lat="43.62155" lon="3.20658">
        <ele>305.36</ele>
        <time>2015-07-18T16:46:49Z</time>
      </trkpt>
      <trkpt lat="43.62328" lon="3.20787">
        <ele>308.72</ele>
        <time>2015-07-18T16:46:56Z</time>
      </trkpt>
      <trkpt lat="43.62423" lon="3.20865">
        <ele>310.16</ele>
        <time>2015-07-18T16:47:00Z</time>
      </trkpt>
      <trkpt lat="43.62443" lon="3.20892">
        <ele>310.64</ele>
        <time>2015-07-18T16:47:01Z</time>
      </trkpt>
      <trkpt lat="43.62459" lon="3.20926">
        <ele>311.12</ele>
        <time>2015-07-18T16:47:02Z</time>
      </trkpt>
      <trkpt lat="43.62471" lon="3.20962">
        <ele>311.6</ele>
        <time>2015-07-18T16:47:03Z</time>
      </trkpt>
      <trkpt lat="43.62478" lon="3.21001">
        <ele>312.09</ele>
        <time>2015-07-18T16:47:04Z</time>
      </trkpt>
      <trkpt lat="43.62481" lon="3.21042">
        <ele>312.57</ele>
        <time>2015-07-18T16:47:05Z</time>
      </trkpt>
      <trkpt lat="43.62482" lon="3.21082">
        <ele>313.53</ele>
        <time>2015-07-18T16:47:06Z</time>
      </trkpt>
      <trkpt lat="43.62499" lon="3.21357">
        <ele>317.37</ele>
        <time>2015-07-18T16:47:13Z</time>
      </trkpt>
      <trkpt lat="43.62508" lon="3.21393">
        <ele>318.33</ele>
        <time>2015-07-18T16:47:14Z</time>
      </trkpt>
      <trkpt lat="43.6252" lon="3.21427">
        <ele>318.81</ele>
        <time>2015-07-18T16:47:15Z</time>
      </trkpt>
      <trkpt lat="43.62535" lon="3.21461">
        <ele>319.78</ele>
        <time>2015-07-18T16:47:16Z</time>
      </trkpt>
      <trkpt lat="43.6255" lon="3.21494">
        <ele>320.26</ele>
        <time>2015-07-18T16:47:17Z</time>
      </trkpt>
      <trkpt lat="43.62584" lon="3.21556">
        <ele>322.18</ele>
        <time>2015-07-18T16:47:19Z</time>
      </trkpt>
      <trkpt lat="43.62603" lon="3.21583">
        <ele>322.66</ele>
        <time>2015-07-18T16:47:20Z</time>
      </trkpt>
      <trkpt lat="43.62627" lon="3.21604">
        <ele>323.62</ele>
        <time>2015-07-18T16:47:21Z</time>
      </trkpt>
      <trkpt lat="43.62652" lon="3.21622">
        <ele>324.58</ele>
        <time>2015-07-18T16:47:22Z</time>
      </trkpt>
      <trkpt lat="43.62681" lon="3.21636">
        <ele>325.06</ele>
        <time>2015-07-18T16:47:23Z</time>
      </trkpt>
      <trkpt lat="43.62708" lon="3.21652">
        <ele>325.54</ele>
        <time>2015-07-18T16:47:24Z</time>
      </trkpt>
      <trkpt lat="43.62758" lon="3.21691">
        <ele>326.99</ele>
        <time>2015-07-18T16:47:26Z</time>
      </trkpt>
      <trkpt lat="43.62781" lon="3.21717">
        <ele>327.95</ele>
        <time>2015-07-18T16:47:27Z</time>
      </trkpt>
      <trkpt lat="43.628" lon="3.21749">
        <ele>328.43</ele>
        <time>2015-07-18T16:47:28Z</time>
      </trkpt>
      <trkpt lat="43.62818" lon="3.21783">
        <ele>329.87</ele>
        <time>2015-07-18T16:47:29Z</time>
      </trkpt>
      <trkpt lat="43.62835" lon="3.21818">
        <ele>331.79</ele>
        <time>2015-07-18T16:47:30Z</time>
      </trkpt>
      <trkpt lat="43.62984" lon="3.22122">
        <ele>348.13</ele>
        <time>2015-07-18T16:47:39Z</time>
      </trkpt>
      <trkpt lat="43.62993" lon="3.2216">
        <ele>349.58</ele>
        <time>2015-07-18T16:47:40Z</time>
      </trkpt>
      <trkpt lat="43.62997" lon="3.222">
        <ele>351.5</ele>
        <time>2015-07-18T16:47:41Z</time>
      </trkpt>
      <trkpt lat="43.62998" lon="3.22241">
        <ele>353.42</ele>
        <time>2015-07-18T16:47:42Z</time>
      </trkpt>
      <trkpt lat="43.62992" lon="3.22281">
        <ele>355.34</ele>
        <time>2015-07-18T16:47:43Z</time>
      </trkpt>
      <trkpt lat="43.62982" lon="3.22321">
        <ele>357.27</ele>
        <time>2015-07-18T16:47:44Z</time>
      </trkpt>
      <trkpt lat="43.62968" lon="3.22358">
        <ele>359.19</ele>
        <time>2015-07-18T16:47:45Z</time>
      </trkpt>
      <trkpt lat="43.62952" lon="3.22391">
        <ele>360.15</ele>
        <time>2015-07-18T16:47:46Z</time>
      </trkpt>
      <trkpt lat="43.62933" lon="3.22425">
        <ele>361.59</ele>
        <time>2015-07-18T16:47:47Z</time>
      </trkpt>
      <trkpt lat="43.62915" lon="3.22457">
        <ele>363.52</ele>
        <time>2015-07-18T16:47:48Z</time>
      </trkpt>
      <trkpt lat="43.62806" lon="3.22641">
        <ele>374.09</ele>
        <time>2015-07-18T16:47:54Z</time>
      </trkpt>
      <trkpt lat="43.62783" lon="3.22663">
        <ele>375.53</ele>
        <time>2015-07-18T16:47:55Z</time>
      </trkpt>
      <trkpt lat="43.6276" lon="3.22683">
        <ele>377.45</ele>
        <time>2015-07-18T16:47:56Z</time>
      </trkpt>
      <trkpt lat="43.62716" lon="3.22725">
        <ele>380.34</ele>
        <time>2015-07-18T16:47:58Z</time>
      </trkpt>
      <trkpt lat="43.62697" lon="3.22749">
        <ele>382.26</ele>
        <time>2015-07-18T16:47:59Z</time>
      </trkpt>
      <trkpt lat="43.62681" lon="3.22779">
        <ele>383.7</ele>
        <time>2015-07-18T16:48:00Z</time>
      </trkpt>
      <trkpt lat="43.62668" lon="3.2281">
        <ele>385.63</ele>
        <time>2015-07-18T16:48:01Z</time>
      </trkpt>
      <trkpt lat="43.62655" lon="3.22844">
        <ele>387.07</ele>
        <time>2015-07-18T16:48:02Z</time>
      </trkpt>
      <trkpt lat="43.62643" lon="3.22878">
        <ele>388.99</ele>
        <time>2015-07-18T16:48:03Z</time>
      </trkpt>
      <trkpt lat="43.62535" lon="3.23141">
        <ele>403.89</ele>
        <time>2015-07-18T16:48:11Z</time>
      </trkpt>
      <trkpt lat="43.62513" lon="3.23164">
        <ele>406.29</ele>
        <time>2015-07-18T16:48:12Z</time>
      </trkpt>
      <trkpt lat="43.62491" lon="3.23186">
        <ele>408.22</ele>
        <time>2015-07-18T16:48:13Z</time>
      </trkpt>
      <trkpt lat="43.62337" lon="3.23337">
        <ele>420.23</ele>
        <time>2015-07-18T16:48:20Z</time>
      </trkpt>
      <trkpt lat="43.62321" lon="3.23363">
        <ele>421.68</ele>
        <time>2015-07-18T16:48:21Z</time>
      </trkpt>
      <trkpt lat="43.62308" lon="3.23392">
        <ele>422.64</ele>
        <time>2015-07-18T16:48:22Z</time>
      </trkpt>
      <trkpt lat="43.62301" lon="3.23424">
        <ele>424.08</ele>
        <time>2015-07-18T16:48:23Z</time>
      </trkpt>
      <trkpt lat="43.62296" lon="3.23457">
        <ele>425.04</ele>
        <time>2015-07-18T16:48:24Z</time>
      </trkpt>
      <trkpt lat="43.62292" lon="3.23492">
        <ele>426</ele>
        <time>2015-07-18T16:48:25Z</time>
      </trkpt>
      <trkpt lat="43.62291" lon="3.23528">
        <ele>426</ele>
        <time>2015-07-18T16:48:26Z</time>
      </trkpt>
      <trkpt lat="43.62293" lon="3.23565">
        <ele>425.04</ele>
        <time>2015-07-18T16:48:27Z</time>
      </trkpt>
      <trkpt lat="43.62295" lon="3.23604">
        <ele>423.6</ele>
        <time>2015-07-18T16:48:28Z</time>
      </trkpt>
      <trkpt lat="43.62293" lon="3.23721">
        <ele>420.23</ele>
        <time>2015-07-18T16:48:31Z</time>
      </trkpt>
      <trkpt lat="43.62285" lon="3.23758">
        <ele>419.27</ele>
        <time>2015-07-18T16:48:32Z</time>
      </trkpt>
      <trkpt lat="43.62275" lon="3.23794">
        <ele>418.79</ele>
        <time>2015-07-18T16:48:33Z</time>
      </trkpt>
      <trkpt lat="43.62262" lon="3.23826">
        <ele>417.83</ele>
        <time>2015-07-18T16:48:34Z</time>
      </trkpt>
      <trkpt lat="43.62246" lon="3.23857">
        <ele>416.87</ele>
        <time>2015-07-18T16:48:35Z</time>
      </trkpt>
      <trkpt lat="43.62231" lon="3.23887">
        <ele>415.91</ele>
        <time>2015-07-18T16:48:36Z</time>
      </trkpt>
      <trkpt lat="43.62145" lon="3.24087">
        <ele>411.58</ele>
        <time>2015-07-18T16:48:43Z</time>
      </trkpt>
      <trkpt lat="43.62053" lon="3.24436">
        <ele>410.14</ele>
        <time>2015-07-18T16:48:54Z</time>
      </trkpt>
      <trkpt lat="43.61998" lon="3.24624">
        <ele>410.62</ele>
        <time>2015-07-18T16:49:01Z</time>
      </trkpt>
      <trkpt lat="43.61898" lon="3.24804">
        <ele>413.5</ele>
        <time>2015-07-18T16:49:08Z</time>
      </trkpt>
      <trkpt lat="43.61621" lon="3.25246">
        <ele>422.16</ele>
        <time>2015-07-18T16:49:25Z</time>
      </trkpt>
      <trkpt lat="43.61477" lon="3.25424">
        <ele>424.56</ele>
        <time>2015-07-18T16:49:32Z</time>
      </trkpt>
      <trkpt lat="43.61267" lon="3.25669">
        <ele>423.12</ele>
        <time>2015-07-18T16:49:42Z</time>
      </trkpt>
      <trkpt lat="43.61252" lon="3.257">
        <ele>423.12</ele>
        <time>2015-07-18T16:49:43Z</time>
      </trkpt>
      <trkpt lat="43.61239" lon="3.25733">
        <ele>422.64</ele>
        <time>2015-07-18T16:49:44Z</time>
      </trkpt>
      <trkpt lat="43.6123" lon="3.25769">
        <ele>422.16</ele>
        <time>2015-07-18T16:49:45Z</time>
      </trkpt>
      <trkpt lat="43.61224" lon="3.25808">
        <ele>421.68</ele>
        <time>2015-07-18T16:49:46Z</time>
      </trkpt>
      <trkpt lat="43.61221" lon="3.25847">
        <ele>420.71</ele>
        <time>2015-07-18T16:49:47Z</time>
      </trkpt>
      <trkpt lat="43.61223" lon="3.25888">
        <ele>419.27</ele>
        <time>2015-07-18T16:49:48Z</time>
      </trkpt>
      <trkpt lat="43.61228" lon="3.25929">
        <ele>418.31</ele>
        <time>2015-07-18T16:49:49Z</time>
      </trkpt>
      <trkpt lat="43.61235" lon="3.25971">
        <ele>417.35</ele>
        <time>2015-07-18T16:49:50Z</time>
      </trkpt>
      <trkpt lat="43.613" lon="3.26401">
        <ele>411.1</ele>
        <time>2015-07-18T16:50:00Z</time>
      </trkpt>
      <trkpt lat="43.61308" lon="3.26525">
        <ele>408.7</ele>
        <time>2015-07-18T16:50:03Z</time>
      </trkpt>
      <trkpt lat="43.61304" lon="3.26567">
        <ele>408.22</ele>
        <time>2015-07-18T16:50:04Z</time>
      </trkpt>
      <trkpt lat="43.61294" lon="3.26608">
        <ele>407.26</ele>
        <time>2015-07-18T16:50:05Z</time>
      </trkpt>
      <trkpt lat="43.61281" lon="3.26646">
        <ele>406.77</ele>
        <time>2015-07-18T16:50:06Z</time>
      </trkpt>
      <trkpt lat="43.61264" lon="3.26682">
        <ele>406.29</ele>
        <time>2015-07-18T16:50:07Z</time>
      </trkpt>
      <trkpt lat="43.61244" lon="3.26712">
        <ele>405.33</ele>
        <time>2015-07-18T16:50:08Z</time>
      </trkpt>
      <trkpt lat="43.6122" lon="3.2674">
        <ele>404.85</ele>
        <time>2015-07-18T16:50:09Z</time>
      </trkpt>
      <trkpt lat="43.61194" lon="3.26763">
        <ele>404.85</ele>
        <time>2015-07-18T16:50:10Z</time>
      </trkpt>
      <trkpt lat="43.61167" lon="3.26786">
        <ele>404.37</ele>
        <time>2015-07-18T16:50:11Z</time>
      </trkpt>
      <trkpt lat="43.61139" lon="3.26806">
        <ele>403.89</ele>
        <time>2015-07-18T16:50:12Z</time>
      </trkpt>
      <trkpt lat="43.60942" lon="3.2694">
        <ele>402.93</ele>
        <time>2015-07-18T16:50:19Z</time>
      </trkpt>
      <trkpt lat="43.60776" lon="3.27125">
        <ele>401.01</ele>
        <time>2015-07-18T16:50:26Z</time>
      </trkpt>
      <trkpt lat="43.6076" lon="3.27155">
        <ele>400.53</ele>
        <time>2015-07-18T16:50:27Z</time>
      </trkpt>
      <trkpt lat="43.60748" lon="3.27187">
        <ele>400.05</ele>
        <time>2015-07-18T16:50:28Z</time>
      </trkpt>
      <trkpt lat="43.60739" lon="3.2722">
        <ele>399.08</ele>
        <time>2015-07-18T16:50:29Z</time>
      </trkpt>
      <trkpt lat="43.60734" lon="3.27258">
        <ele>398.6</ele>
        <time>2015-07-18T16:50:30Z</time>
      </trkpt>
      <trkpt lat="43.60733" lon="3.27296">
        <ele>398.12</ele>
        <time>2015-07-18T16:50:31Z</time>
      </trkpt>
      <trkpt lat="43.60734" lon="3.27334">
        <ele>397.64</ele>
        <time>2015-07-18T16:50:32Z</time>
      </trkpt>
      <trkpt lat="43.60737" lon="3.27373">
        <ele>397.16</ele>
        <time>2015-07-18T16:50:33Z</time>
      </trkpt>
      <trkpt lat="43.60743" lon="3.27412">
        <ele>396.68</ele>
        <time>2015-07-18T16:50:34Z</time>
      </trkpt>
      <trkpt lat="43.60752" lon="3.27451">
        <ele>396.2</ele>
        <time>2015-07-18T16:50:35Z</time>
      </trkpt>
      <trkpt lat="43.60763" lon="3.2749">
        <ele>395.72</ele>
        <time>2015-07-18T16:50:36Z</time>
      </trkpt>
      <trkpt lat="43.60775" lon="3.27528">
        <ele>395.24</ele>
        <time>2015-07-18T16:50:37Z</time>
      </trkpt>
      <trkpt lat="43.60927" lon="3.28009">
        <ele>379.38</ele>
        <time>2015-07-18T16:50:49Z</time>
      </trkpt>
      <trkpt lat="43.61089" lon="3.28551">
        <ele>372.65</ele>
        <time>2015-07-18T16:51:03Z</time>
      </trkpt>
      <trkpt lat="43.61098" lon="3.2875">
        <ele>374.09</ele>
        <time>2015-07-18T16:51:08Z</time>
      </trkpt>
      <trkpt lat="43.61101" lon="3.29232">
        <ele>380.34</ele>
        <time>2015-07-18T16:51:22Z</time>
      </trkpt>
      <trkpt lat="43.61105" lon="3.29777">
        <ele>392.84</ele>
        <time>2015-07-18T16:51:37Z</time>
      </trkpt>
      <trkpt lat="43.61113" lon="3.29809">
        <ele>392.84</ele>
        <time>2015-07-18T16:51:38Z</time>
      </trkpt>
      <trkpt lat="43.61125" lon="3.29841">
        <ele>392.84</ele>
        <time>2015-07-18T16:51:39Z</time>
      </trkpt>
      <trkpt lat="43.61141" lon="3.29872">
        <ele>392.84</ele>
        <time>2015-07-18T16:51:40Z</time>
      </trkpt>
      <trkpt lat="43.6116" lon="3.29901">
        <ele>392.84</ele>
        <time>2015-07-18T16:51:41Z</time>
      </trkpt>
      <trkpt lat="43.61181" lon="3.29927">
        <ele>393.32</ele>
        <time>2015-07-18T16:51:42Z</time>
      </trkpt>
      <trkpt lat="43.61201" lon="3.29951">
        <ele>392.84</ele>
        <time>2015-07-18T16:51:43Z</time>
      </trkpt>
      <trkpt lat="43.61238" lon="3.30006">
        <ele>392.36</ele>
        <time>2015-07-18T16:51:45Z</time>
      </trkpt>
      <trkpt lat="43.61252" lon="3.3004">
        <ele>392.36</ele>
        <time>2015-07-18T16:51:46Z</time>
      </trkpt>
      <trkpt lat="43.61259" lon="3.30077">
        <ele>392.36</ele>
        <time>2015-07-18T16:51:47Z</time>
      </trkpt>
      <trkpt lat="43.61262" lon="3.30116">
        <ele>391.87</ele>
        <time>2015-07-18T16:51:48Z</time>
      </trkpt>
      <trkpt lat="43.61261" lon="3.30156">
        <ele>391.87</ele>
        <time>2015-07-18T16:51:49Z</time>
      </trkpt>
      <trkpt lat="43.61257" lon="3.30196">
        <ele>391.87</ele>
        <time>2015-07-18T16:51:50Z</time>
      </trkpt>
      <trkpt lat="43.61247" lon="3.30234">
        <ele>391.39</ele>
        <time>2015-07-18T16:51:51Z</time>
      </trkpt>
      <trkpt lat="43.61235" lon="3.30272">
        <ele>391.39</ele>
        <time>2015-07-18T16:51:52Z</time>
      </trkpt>
      <trkpt lat="43.61214" lon="3.30304">
        <ele>390.43</ele>
        <time>2015-07-18T16:51:53Z</time>
      </trkpt>
      <trkpt lat="43.61192" lon="3.30331">
        <ele>389.95</ele>
        <time>2015-07-18T16:51:54Z</time>
      </trkpt>
      <trkpt lat="43.61164" lon="3.30353">
        <ele>389.95</ele>
        <time>2015-07-18T16:51:55Z</time>
      </trkpt>
      <trkpt lat="43.61136" lon="3.30369">
        <ele>389.47</ele>
        <time>2015-07-18T16:51:56Z</time>
      </trkpt>
      <trkpt lat="43.61105" lon="3.30379">
        <ele>389.47</ele>
        <time>2015-07-18T16:51:57Z</time>
      </trkpt>
      <trkpt lat="43.61074" lon="3.30382">
        <ele>388.99</ele>
        <time>2015-07-18T16:51:58Z</time>
      </trkpt>
      <trkpt lat="43.61043" lon="3.30378">
        <ele>388.99</ele>
        <time>2015-07-18T16:51:59Z</time>
      </trkpt>
      <trkpt lat="43.61012" lon="3.30364">
        <ele>388.99</ele>
        <time>2015-07-18T16:52:00Z</time>
      </trkpt>
      <trkpt lat="43.60982" lon="3.30352">
        <ele>388.51</ele>
        <time>2015-07-18T16:52:01Z</time>
      </trkpt>
      <trkpt lat="43.60924" lon="3.30337">
        <ele>387.55</ele>
        <time>2015-07-18T16:52:03Z</time>
      </trkpt>
      <trkpt lat="43.60898" lon="3.30336">
        <ele>387.07</ele>
        <time>2015-07-18T16:52:04Z</time>
      </trkpt>
      <trkpt lat="43.60872" lon="3.30342">
        <ele>386.11</ele>
        <time>2015-07-18T16:52:05Z</time>
      </trkpt>
      <trkpt lat="43.60848" lon="3.30353">
        <ele>385.63</ele>
        <time>2015-07-18T16:52:06Z</time>
      </trkpt>
      <trkpt lat="43.60826" lon="3.3037">
        <ele>385.15</ele>
        <time>2015-07-18T16:52:07Z</time>
      </trkpt>
      <trkpt lat="43.60805" lon="3.30394">
        <ele>384.66</ele>
        <time>2015-07-18T16:52:08Z</time>
      </trkpt>
      <trkpt lat="43.60788" lon="3.30423">
        <ele>384.18</ele>
        <time>2015-07-18T16:52:09Z</time>
      </trkpt>
      <trkpt lat="43.60773" lon="3.30454">
        <ele>383.7</ele>
        <time>2015-07-18T16:52:10Z</time>
      </trkpt>
      <trkpt lat="43.60764" lon="3.3049">
        <ele>383.22</ele>
        <time>2015-07-18T16:52:11Z</time>
      </trkpt>
      <trkpt lat="43.6076" lon="3.30534">
        <ele>381.78</ele>
        <time>2015-07-18T16:52:12Z</time>
      </trkpt>
      <trkpt lat="43.60761" lon="3.30571">
        <ele>379.86</ele>
        <time>2015-07-18T16:52:13Z</time>
      </trkpt>
      <trkpt lat="43.60775" lon="3.30609">
        <ele>379.38</ele>
        <time>2015-07-18T16:52:14Z</time>
      </trkpt>
      <trkpt lat="43.60788" lon="3.30645">
        <ele>379.38</ele>
        <time>2015-07-18T16:52:15Z</time>
      </trkpt>
      <trkpt lat="43.60804" lon="3.30681">
        <ele>379.38</ele>
        <time>2015-07-18T16:52:16Z</time>
      </trkpt>
      <trkpt lat="43.60822" lon="3.30714">
        <ele>378.42</ele>
        <time>2015-07-18T16:52:17Z</time>
      </trkpt>
      <trkpt lat="43.60841" lon="3.30747">
        <ele>377.94</ele>
        <time>2015-07-18T16:52:18Z</time>
      </trkpt>
      <trkpt lat="43.60857" lon="3.30779">
        <ele>376.97</ele>
        <time>2015-07-18T16:52:19Z</time>
      </trkpt>
      <trkpt lat="43.60869" lon="3.30812">
        <ele>376.49</ele>
        <time>2015-07-18T16:52:20Z</time>
      </trkpt>
      <trkpt lat="43.60878" lon="3.30848">
        <ele>375.53</ele>
        <time>2015-07-18T16:52:21Z</time>
      </trkpt>
      <trkpt lat="43.60883" lon="3.30885">
        <ele>375.05</ele>
        <time>2015-07-18T16:52:22Z</time>
      </trkpt>
      <trkpt lat="43.60879" lon="3.30926">
        <ele>374.09</ele>
        <time>2015-07-18T16:52:23Z</time>
      </trkpt>
      <trkpt lat="43.6087" lon="3.30965">
        <ele>373.13</ele>
        <time>2015-07-18T16:52:24Z</time>
      </trkpt>
      <trkpt lat="43.60856" lon="3.31002">
        <ele>372.17</ele>
        <time>2015-07-18T16:52:25Z</time>
      </trkpt>
      <trkpt lat="43.60841" lon="3.31037">
        <ele>371.21</ele>
        <time>2015-07-18T16:52:26Z</time>
      </trkpt>
      <trkpt lat="43.60818" lon="3.31065">
        <ele>369.28</ele>
        <time>2015-07-18T16:52:27Z</time>
      </trkpt>
      <trkpt lat="43.60796" lon="3.31092">
        <ele>368.32</ele>
        <time>2015-07-18T16:52:28Z</time>
      </trkpt>
      <trkpt lat="43.60772" lon="3.31117">
        <ele>366.88</ele>
        <time>2015-07-18T16:52:29Z</time>
      </trkpt>
      <trkpt lat="43.60749" lon="3.31139">
        <ele>365.44</ele>
        <time>2015-07-18T16:52:30Z</time>
      </trkpt>
      <trkpt lat="43.60673" lon="3.31222">
        <ele>358.23</ele>
        <time>2015-07-18T16:52:34Z</time>
      </trkpt>
      <trkpt lat="43.6066" lon="3.31246">
        <ele>356.31</ele>
        <time>2015-07-18T16:52:35Z</time>
      </trkpt>
      <trkpt lat="43.6065" lon="3.31271">
        <ele>354.38</ele>
        <time>2015-07-18T16:52:36Z</time>
      </trkpt>
      <trkpt lat="43.60642" lon="3.31298">
        <ele>351.98</ele>
        <time>2015-07-18T16:52:37Z</time>
      </trkpt>
      <trkpt lat="43.60638" lon="3.31327">
        <ele>349.58</ele>
        <time>2015-07-18T16:52:38Z</time>
      </trkpt>
      <trkpt lat="43.60639" lon="3.31359">
        <ele>346.69</ele>
        <time>2015-07-18T16:52:39Z</time>
      </trkpt>
      <trkpt lat="43.60641" lon="3.3139">
        <ele>344.77</ele>
        <time>2015-07-18T16:52:40Z</time>
      </trkpt>
      <trkpt lat="43.60646" lon="3.31421">
        <ele>342.37</ele>
        <time>2015-07-18T16:52:41Z</time>
      </trkpt>
      <trkpt lat="43.60654" lon="3.31451">
        <ele>340.92</ele>
        <time>2015-07-18T16:52:42Z</time>
      </trkpt>
      <trkpt lat="43.60665" lon="3.31478">
        <ele>339</ele>
        <time>2015-07-18T16:52:43Z</time>
      </trkpt>
      <trkpt lat="43.60678" lon="3.31503">
        <ele>337.56</ele>
        <time>2015-07-18T16:52:44Z</time>
      </trkpt>
      <trkpt lat="43.60694" lon="3.31524">
        <ele>336.12</ele>
        <time>2015-07-18T16:52:45Z</time>
      </trkpt>
      <trkpt lat="43.60711" lon="3.31542">
        <ele>334.2</ele>
        <time>2015-07-18T16:52:46Z</time>
      </trkpt>
      <trkpt lat="43.60729" lon="3.31556">
        <ele>331.79</ele>
        <time>2015-07-18T16:52:47Z</time>
      </trkpt>
      <trkpt lat="43.60748" lon="3.31567">
        <ele>329.87</ele>
        <time>2015-07-18T16:52:48Z</time>
      </trkpt>
      <trkpt lat="43.60767" lon="3.31575">
        <ele>327.95</ele>
        <time>2015-07-18T16:52:49Z</time>
      </trkpt>
      <trkpt lat="43.60788" lon="3.31579">
        <ele>326.02</ele>
        <time>2015-07-18T16:52:50Z</time>
      </trkpt>
      <trkpt lat="43.6081" lon="3.31578">
        <ele>324.1</ele>
        <time>2015-07-18T16:52:51Z</time>
      </trkpt>
      <trkpt lat="43.60832" lon="3.31572">
        <ele>322.66</ele>
        <time>2015-07-18T16:52:52Z</time>
      </trkpt>
      <trkpt lat="43.60854" lon="3.31565">
        <ele>321.22</ele>
        <time>2015-07-18T16:52:53Z</time>
      </trkpt>
      <trkpt lat="43.60875" lon="3.31557">
        <ele>319.3</ele>
        <time>2015-07-18T16:52:54Z</time>
      </trkpt>
      <trkpt lat="43.6098" lon="3.31524">
        <ele>311.12</ele>
        <time>2015-07-18T16:52:59Z</time>
      </trkpt>
      <trkpt lat="43.61002" lon="3.31525">
        <ele>309.68</ele>
        <time>2015-07-18T16:53:00Z</time>
      </trkpt>
      <trkpt lat="43.61026" lon="3.31529">
        <ele>308.24</ele>
        <time>2015-07-18T16:53:01Z</time>
      </trkpt>
      <trkpt lat="43.61049" lon="3.3154">
        <ele>306.8</ele>
        <time>2015-07-18T16:53:02Z</time>
      </trkpt>
      <trkpt lat="43.6107" lon="3.31554">
        <ele>305.36</ele>
        <time>2015-07-18T16:53:03Z</time>
      </trkpt>
      <trkpt lat="43.6109" lon="3.31572">
        <ele>303.43</ele>
        <time>2015-07-18T16:53:04Z</time>
      </trkpt>
      <trkpt lat="43.61107" lon="3.31595">
        <ele>301.99</ele>
        <time>2015-07-18T16:53:05Z</time>
      </trkpt>
      <trkpt lat="43.61121" lon="3.31621">
        <ele>300.07</ele>
        <time>2015-07-18T16:53:06Z</time>
      </trkpt>
      <trkpt lat="43.61133" lon="3.31651">
        <ele>299.11</ele>
        <time>2015-07-18T16:53:07Z</time>
      </trkpt>
      <trkpt lat="43.61142" lon="3.31683">
        <ele>297.67</ele>
        <time>2015-07-18T16:53:08Z</time>
      </trkpt>
      <trkpt lat="43.61147" lon="3.31716">
        <ele>296.7</ele>
        <time>2015-07-18T16:53:09Z</time>
      </trkpt>
      <trkpt lat="43.6115" lon="3.31748">
        <ele>295.74</ele>
        <time>2015-07-18T16:53:10Z</time>
      </trkpt>
      <trkpt lat="43.61151" lon="3.31779">
        <ele>294.78</ele>
        <time>2015-07-18T16:53:11Z</time>
      </trkpt>
      <trkpt lat="43.61154" lon="3.32098">
        <ele>284.69</ele>
        <time>2015-07-18T16:53:22Z</time>
      </trkpt>
      <trkpt lat="43.6115" lon="3.32125">
        <ele>284.21</ele>
        <time>2015-07-18T16:53:23Z</time>
      </trkpt>
      <trkpt lat="43.61145" lon="3.3215">
        <ele>283.73</ele>
        <time>2015-07-18T16:53:24Z</time>
      </trkpt>
      <trkpt lat="43.61138" lon="3.32176">
        <ele>282.77</ele>
        <time>2015-07-18T16:53:25Z</time>
      </trkpt>
      <trkpt lat="43.61128" lon="3.322">
        <ele>282.28</ele>
        <time>2015-07-18T16:53:26Z</time>
      </trkpt>
      <trkpt lat="43.61111" lon="3.32221">
        <ele>281.8</ele>
        <time>2015-07-18T16:53:27Z</time>
      </trkpt>
      <trkpt lat="43.61091" lon="3.32238">
        <ele>281.8</ele>
        <time>2015-07-18T16:53:28Z</time>
      </trkpt>
      <trkpt lat="43.61071" lon="3.32251">
        <ele>281.32</ele>
        <time>2015-07-18T16:53:29Z</time>
      </trkpt>
      <trkpt lat="43.61052" lon="3.3226">
        <ele>281.32</ele>
        <time>2015-07-18T16:53:30Z</time>
      </trkpt>
      <trkpt lat="43.61033" lon="3.32264">
        <ele>280.84</ele>
        <time>2015-07-18T16:53:31Z</time>
      </trkpt>
      <trkpt lat="43.61015" lon="3.32265">
        <ele>281.32</ele>
        <time>2015-07-18T16:53:32Z</time>
      </trkpt>
      <trkpt lat="43.60997" lon="3.32262">
        <ele>281.32</ele>
        <time>2015-07-18T16:53:33Z</time>
      </trkpt>
      <trkpt lat="43.60981" lon="3.32258">
        <ele>280.84</ele>
        <time>2015-07-18T16:53:34Z</time>
      </trkpt>
      <trkpt lat="43.60965" lon="3.32252">
        <ele>280.84</ele>
        <time>2015-07-18T16:53:35Z</time>
      </trkpt>
      <trkpt lat="43.60913" lon="3.3224">
        <ele>280.36</ele>
        <time>2015-07-18T16:53:38Z</time>
      </trkpt>
      <trkpt lat="43.60894" lon="3.32241">
        <ele>280.36</ele>
        <time>2015-07-18T16:53:39Z</time>
      </trkpt>
      <trkpt lat="43.60876" lon="3.32246">
        <ele>280.36</ele>
        <time>2015-07-18T16:53:40Z</time>
      </trkpt>
      <trkpt lat="43.60857" lon="3.32255">
        <ele>279.88</ele>
        <time>2015-07-18T16:53:41Z</time>
      </trkpt>
      <trkpt lat="43.60838" lon="3.32267">
        <ele>279.88</ele>
        <time>2015-07-18T16:53:42Z</time>
      </trkpt>
      <trkpt lat="43.60822" lon="3.32284">
        <ele>279.88</ele>
        <time>2015-07-18T16:53:43Z</time>
      </trkpt>
      <trkpt lat="43.60807" lon="3.32304">
        <ele>280.36</ele>
        <time>2015-07-18T16:53:44Z</time>
      </trkpt>
      <trkpt lat="43.60793" lon="3.32325">
        <ele>280.36</ele>
        <time>2015-07-18T16:53:45Z</time>
      </trkpt>
      <trkpt lat="43.60779" lon="3.32348">
        <ele>280.36</ele>
        <time>2015-07-18T16:53:46Z</time>
      </trkpt>
      <trkpt lat="43.60695" lon="3.32519">
        <ele>280.84</ele>
        <time>2015-07-18T16:53:53Z</time>
      </trkpt>
      <trkpt lat="43.60689" lon="3.32549">
        <ele>280.84</ele>
        <time>2015-07-18T16:53:54Z</time>
      </trkpt>
      <trkpt lat="43.60684" lon="3.3258">
        <ele>280.36</ele>
        <time>2015-07-18T16:53:55Z</time>
      </trkpt>
      <trkpt lat="43.60681" lon="3.32611">
        <ele>279.88</ele>
        <time>2015-07-18T16:53:56Z</time>
      </trkpt>
      <trkpt lat="43.60681" lon="3.32643">
        <ele>279.4</ele>
        <time>2015-07-18T16:53:57Z</time>
      </trkpt>
      <trkpt lat="43.60684" lon="3.32676">
        <ele>278.92</ele>
        <time>2015-07-18T16:53:58Z</time>
      </trkpt>
      <trkpt lat="43.60689" lon="3.32709">
        <ele>278.92</ele>
        <time>2015-07-18T16:53:59Z</time>
      </trkpt>
      <trkpt lat="43.60696" lon="3.32742">
        <ele>278.92</ele>
        <time>2015-07-18T16:54:00Z</time>
      </trkpt>
      <trkpt lat="43.60705" lon="3.32777">
        <ele>278.92</ele>
        <time>2015-07-18T16:54:01Z</time>
      </trkpt>
      <trkpt lat="43.60716" lon="3.32813">
        <ele>278.92</ele>
        <time>2015-07-18T16:54:02Z</time>
      </trkpt>
      <trkpt lat="43.60728" lon="3.3285">
        <ele>279.4</ele>
        <time>2015-07-18T16:54:03Z</time>
      </trkpt>
      <trkpt lat="43.60836" lon="3.33183">
        <ele>281.32</ele>
        <time>2015-07-18T16:54:11Z</time>
      </trkpt>
      <trkpt lat="43.60943" lon="3.33529">
        <ele>283.25</ele>
        <time>2015-07-18T16:54:19Z</time>
      </trkpt>
      <trkpt lat="43.60949" lon="3.33575">
        <ele>283.73</ele>
        <time>2015-07-18T16:54:20Z</time>
      </trkpt>
      <trkpt lat="43.60951" lon="3.33621">
        <ele>284.21</ele>
        <time>2015-07-18T16:54:21Z</time>
      </trkpt>
      <trkpt lat="43.60965" lon="3.33891">
        <ele>285.17</ele>
        <time>2015-07-18T16:54:27Z</time>
      </trkpt>
      <trkpt lat="43.60954" lon="3.34149">
        <ele>285.65</ele>
        <time>2015-07-18T16:54:33Z</time>
      </trkpt>
      <trkpt lat="43.60959" lon="3.3419">
        <ele>285.65</ele>
        <time>2015-07-18T16:54:34Z</time>
      </trkpt>
      <trkpt lat="43.60966" lon="3.3423">
        <ele>285.17</ele>
        <time>2015-07-18T16:54:35Z</time>
      </trkpt>
      <trkpt lat="43.60977" lon="3.34311">
        <ele>284.21</ele>
        <time>2015-07-18T16:54:37Z</time>
      </trkpt>
      <trkpt lat="43.60978" lon="3.34353">
        <ele>284.21</ele>
        <time>2015-07-18T16:54:38Z</time>
      </trkpt>
      <trkpt lat="43.60977" lon="3.34396">
        <ele>283.73</ele>
        <time>2015-07-18T16:54:39Z</time>
      </trkpt>
      <trkpt lat="43.60936" lon="3.34781">
        <ele>279.4</ele>
        <time>2015-07-18T16:54:48Z</time>
      </trkpt>
      <trkpt lat="43.60924" lon="3.34821">
        <ele>278.92</ele>
        <time>2015-07-18T16:54:49Z</time>
      </trkpt>
      <trkpt lat="43.60909" lon="3.34859">
        <ele>278.92</ele>
        <time>2015-07-18T16:54:50Z</time>
      </trkpt>
      <trkpt lat="43.60892" lon="3.34895">
        <ele>278.92</ele>
        <time>2015-07-18T16:54:51Z</time>
      </trkpt>
      <trkpt lat="43.60874" lon="3.3493">
        <ele>278.44</ele>
        <time>2015-07-18T16:54:52Z</time>
      </trkpt>
      <trkpt lat="43.60854" lon="3.34964">
        <ele>277.96</ele>
        <time>2015-07-18T16:54:53Z</time>
      </trkpt>
      <trkpt lat="43.60789" lon="3.35055">
        <ele>276.04</ele>
        <time>2015-07-18T16:54:56Z</time>
      </trkpt>
      <trkpt lat="43.60764" lon="3.3508">
        <ele>275.56</ele>
        <time>2015-07-18T16:54:57Z</time>
      </trkpt>
      <trkpt lat="43.60654" lon="3.35209">
        <ele>269.31</ele>
        <time>2015-07-18T16:55:02Z</time>
      </trkpt>
      <trkpt lat="43.6064" lon="3.3524">
        <ele>268.35</ele>
        <time>2015-07-18T16:55:03Z</time>
      </trkpt>
      <trkpt lat="43.60632" lon="3.35278">
        <ele>266.9</ele>
        <time>2015-07-18T16:55:04Z</time>
      </trkpt>
      <trkpt lat="43.60624" lon="3.35318">
        <ele>265.46</ele>
        <time>2015-07-18T16:55:05Z</time>
      </trkpt>
      <trkpt lat="43.60628" lon="3.35358">
        <ele>264.02</ele>
        <time>2015-07-18T16:55:06Z</time>
      </trkpt>
      <trkpt lat="43.60633" lon="3.35402">
        <ele>263.06</ele>
        <time>2015-07-18T16:55:07Z</time>
      </trkpt>
      <trkpt lat="43.60637" lon="3.35444">
        <ele>261.62</ele>
        <time>2015-07-18T16:55:08Z</time>
      </trkpt>
      <trkpt lat="43.60638" lon="3.35486">
        <ele>260.17</ele>
        <time>2015-07-18T16:55:09Z</time>
      </trkpt>
      <trkpt lat="43.60635" lon="3.35526">
        <ele>258.73</ele>
        <time>2015-07-18T16:55:10Z</time>
      </trkpt>
      <trkpt lat="43.60626" lon="3.35565">
        <ele>257.77</ele>
        <time>2015-07-18T16:55:11Z</time>
      </trkpt>
      <trkpt lat="43.60615" lon="3.35603">
        <ele>256.81</ele>
        <time>2015-07-18T16:55:12Z</time>
      </trkpt>
      <trkpt lat="43.60602" lon="3.3564">
        <ele>255.37</ele>
        <time>2015-07-18T16:55:13Z</time>
      </trkpt>
      <trkpt lat="43.60589" lon="3.35679">
        <ele>254.41</ele>
        <time>2015-07-18T16:55:14Z</time>
      </trkpt>
      <trkpt lat="43.60532" lon="3.35859">
        <ele>248.64</ele>
        <time>2015-07-18T16:55:19Z</time>
      </trkpt>
      <trkpt lat="43.60529" lon="3.35895">
        <ele>247.2</ele>
        <time>2015-07-18T16:55:20Z</time>
      </trkpt>
      <trkpt lat="43.60534" lon="3.35935">
        <ele>245.75</ele>
        <time>2015-07-18T16:55:21Z</time>
      </trkpt>
      <trkpt lat="43.6054" lon="3.35975">
        <ele>244.79</ele>
        <time>2015-07-18T16:55:22Z</time>
      </trkpt>
      <trkpt lat="43.60546" lon="3.36017">
        <ele>243.35</ele>
        <time>2015-07-18T16:55:23Z</time>
      </trkpt>
      <trkpt lat="43.60575" lon="3.36298">
        <ele>236.62</ele>
        <time>2015-07-18T16:55:30Z</time>
      </trkpt>
      <trkpt lat="43.60569" lon="3.36336">
        <ele>235.66</ele>
        <time>2015-07-18T16:55:31Z</time>
      </trkpt>
      <trkpt lat="43.60561" lon="3.36375">
        <ele>235.18</ele>
        <time>2015-07-18T16:55:32Z</time>
      </trkpt>
      <trkpt lat="43.60549" lon="3.36412">
        <ele>234.22</ele>
        <time>2015-07-18T16:55:33Z</time>
      </trkpt>
      <trkpt lat="43.60535" lon="3.36446">
        <ele>233.74</ele>
        <time>2015-07-18T16:55:34Z</time>
      </trkpt>
      <trkpt lat="43.60523" lon="3.36478">
        <ele>232.3</ele>
        <time>2015-07-18T16:55:35Z</time>
      </trkpt>
      <trkpt lat="43.60493" lon="3.36598">
        <ele>228.93</ele>
        <time>2015-07-18T16:55:39Z</time>
      </trkpt>
      <trkpt lat="43.60499" lon="3.36628">
        <ele>227.97</ele>
        <time>2015-07-18T16:55:40Z</time>
      </trkpt>
      <trkpt lat="43.60511" lon="3.36655">
        <ele>227.01</ele>
        <time>2015-07-18T16:55:41Z</time>
      </trkpt>
      <trkpt lat="43.60527" lon="3.36678">
        <ele>226.05</ele>
        <time>2015-07-18T16:55:42Z</time>
      </trkpt>
      <trkpt lat="43.60543" lon="3.36701">
        <ele>225.57</ele>
        <time>2015-07-18T16:55:43Z</time>
      </trkpt>
      <trkpt lat="43.60561" lon="3.36723">
        <ele>225.09</ele>
        <time>2015-07-18T16:55:44Z</time>
      </trkpt>
      <trkpt lat="43.60576" lon="3.36748">
        <ele>224.61</ele>
        <time>2015-07-18T16:55:45Z</time>
      </trkpt>
      <trkpt lat="43.60585" lon="3.36778">
        <ele>224.12</ele>
        <time>2015-07-18T16:55:46Z</time>
      </trkpt>
      <trkpt lat="43.60586" lon="3.36812">
        <ele>222.68</ele>
        <time>2015-07-18T16:55:47Z</time>
      </trkpt>
      <trkpt lat="43.60585" lon="3.36848">
        <ele>221.72</ele>
        <time>2015-07-18T16:55:48Z</time>
      </trkpt>
      <trkpt lat="43.60579" lon="3.36882">
        <ele>221.24</ele>
        <time>2015-07-18T16:55:49Z</time>
      </trkpt>
      <trkpt lat="43.60575" lon="3.36914">
        <ele>220.28</ele>
        <time>2015-07-18T16:55:50Z</time>
      </trkpt>
      <trkpt lat="43.60575" lon="3.36973">
        <ele>219.32</ele>
        <time>2015-07-18T16:55:52Z</time>
      </trkpt>
      <trkpt lat="43.60581" lon="3.36999">
        <ele>217.88</ele>
        <time>2015-07-18T16:55:53Z</time>
      </trkpt>
      <trkpt lat="43.60593" lon="3.37022">
        <ele>216.43</ele>
        <time>2015-07-18T16:55:54Z</time>
      </trkpt>
      <trkpt lat="43.60611" lon="3.3704">
        <ele>215.95</ele>
        <time>2015-07-18T16:55:55Z</time>
      </trkpt>
      <trkpt lat="43.6063" lon="3.37057">
        <ele>214.99</ele>
        <time>2015-07-18T16:55:56Z</time>
      </trkpt>
      <trkpt lat="43.60651" lon="3.37074">
        <ele>214.03</ele>
        <time>2015-07-18T16:55:57Z</time>
      </trkpt>
      <trkpt lat="43.60667" lon="3.37096">
        <ele>213.55</ele>
        <time>2015-07-18T16:55:58Z</time>
      </trkpt>
      <trkpt lat="43.60678" lon="3.37124">
        <ele>213.07</ele>
        <time>2015-07-18T16:55:59Z</time>
      </trkpt>
      <trkpt lat="43.6068" lon="3.37157">
        <ele>212.11</ele>
        <time>2015-07-18T16:56:00Z</time>
      </trkpt>
      <trkpt lat="43.60676" lon="3.37192">
        <ele>210.67</ele>
        <time>2015-07-18T16:56:01Z</time>
      </trkpt>
      <trkpt lat="43.60673" lon="3.37228">
        <ele>209.7</ele>
        <time>2015-07-18T16:56:02Z</time>
      </trkpt>
      <trkpt lat="43.60671" lon="3.37262">
        <ele>208.74</ele>
        <time>2015-07-18T16:56:03Z</time>
      </trkpt>
      <trkpt lat="43.60653" lon="3.37352">
        <ele>206.34</ele>
        <time>2015-07-18T16:56:06Z</time>
      </trkpt>
      <trkpt lat="43.60644" lon="3.37377">
        <ele>205.38</ele>
        <time>2015-07-18T16:56:07Z</time>
      </trkpt>
      <trkpt lat="43.60631" lon="3.37401">
        <ele>204.9</ele>
        <time>2015-07-18T16:56:08Z</time>
      </trkpt>
      <trkpt lat="43.60616" lon="3.37424">
        <ele>203.94</ele>
        <time>2015-07-18T16:56:09Z</time>
      </trkpt>
      <trkpt lat="43.60603" lon="3.37446">
        <ele>203.46</ele>
        <time>2015-07-18T16:56:10Z</time>
      </trkpt>
      <trkpt lat="43.60551" lon="3.37549">
        <ele>200.57</ele>
        <time>2015-07-18T16:56:15Z</time>
      </trkpt>
      <trkpt lat="43.60547" lon="3.37573">
        <ele>199.61</ele>
        <time>2015-07-18T16:56:16Z</time>
      </trkpt>
      <trkpt lat="43.60548" lon="3.37598">
        <ele>199.13</ele>
        <time>2015-07-18T16:56:17Z</time>
      </trkpt>
      <trkpt lat="43.60552" lon="3.37622">
        <ele>198.65</ele>
        <time>2015-07-18T16:56:18Z</time>
      </trkpt>
      <trkpt lat="43.60563" lon="3.37645">
        <ele>197.69</ele>
        <time>2015-07-18T16:56:19Z</time>
      </trkpt>
      <trkpt lat="43.60578" lon="3.37661">
        <ele>196.73</ele>
        <time>2015-07-18T16:56:20Z</time>
      </trkpt>
      <trkpt lat="43.60594" lon="3.37672">
        <ele>195.77</ele>
        <time>2015-07-18T16:56:21Z</time>
      </trkpt>
      <trkpt lat="43.60608" lon="3.37681">
        <ele>194.8</ele>
        <time>2015-07-18T16:56:22Z</time>
      </trkpt>
      <trkpt lat="43.60625" lon="3.37689">
        <ele>194.32</ele>
        <time>2015-07-18T16:56:23Z</time>
      </trkpt>
      <trkpt lat="43.60641" lon="3.37699">
        <ele>193.36</ele>
        <time>2015-07-18T16:56:24Z</time>
      </trkpt>
      <trkpt lat="43.60657" lon="3.37712">
        <ele>192.88</ele>
        <time>2015-07-18T16:56:25Z</time>
      </trkpt>
      <trkpt lat="43.60671" lon="3.3773">
        <ele>191.92</ele>
        <time>2015-07-18T16:56:26Z</time>
      </trkpt>
      <trkpt lat="43.60682" lon="3.37752">
        <ele>191.44</ele>
        <time>2015-07-18T16:56:27Z</time>
      </trkpt>
      <trkpt lat="43.60687" lon="3.37777">
        <ele>190.96</ele>
        <time>2015-07-18T16:56:28Z</time>
      </trkpt>
      <trkpt lat="43.60689" lon="3.37802">
        <ele>190</ele>
        <time>2015-07-18T16:56:29Z</time>
      </trkpt>
      <trkpt lat="43.60691" lon="3.37827">
        <ele>189.04</ele>
        <time>2015-07-18T16:56:30Z</time>
      </trkpt>
      <trkpt lat="43.60693" lon="3.37851">
        <ele>188.56</ele>
        <time>2015-07-18T16:56:31Z</time>
      </trkpt>
      <trkpt lat="43.60697" lon="3.37875">
        <ele>188.08</ele>
        <time>2015-07-18T16:56:32Z</time>
      </trkpt>
      <trkpt lat="43.60704" lon="3.37896">
        <ele>187.11</ele>
        <time>2015-07-18T16:56:33Z</time>
      </trkpt>
      <trkpt lat="43.60716" lon="3.37913">
        <ele>186.15</ele>
        <time>2015-07-18T16:56:34Z</time>
      </trkpt>
      <trkpt lat="43.60731" lon="3.37925">
        <ele>185.67</ele>
        <time>2015-07-18T16:56:35Z</time>
      </trkpt>
      <trkpt lat="43.60745" lon="3.37935">
        <ele>184.23</ele>
        <time>2015-07-18T16:56:36Z</time>
      </trkpt>
      <trkpt lat="43.60762" lon="3.37943">
        <ele>183.75</ele>
        <time>2015-07-18T16:56:37Z</time>
      </trkpt>
      <trkpt lat="43.60779" lon="3.37952">
        <ele>183.27</ele>
        <time>2015-07-18T16:56:38Z</time>
      </trkpt>
      <trkpt lat="43.60811" lon="3.37973">
        <ele>181.35</ele>
        <time>2015-07-18T16:56:40Z</time>
      </trkpt>
      <trkpt lat="43.60826" lon="3.37988">
        <ele>180.38</ele>
        <time>2015-07-18T16:56:41Z</time>
      </trkpt>
      <trkpt lat="43.60839" lon="3.38008">
        <ele>179.9</ele>
        <time>2015-07-18T16:56:42Z</time>
      </trkpt>
      <trkpt lat="43.60849" lon="3.38031">
        <ele>179.42</ele>
        <time>2015-07-18T16:56:43Z</time>
      </trkpt>
      <trkpt lat="43.60856" lon="3.38056">
        <ele>179.42</ele>
        <time>2015-07-18T16:56:44Z</time>
      </trkpt>
      <trkpt lat="43.60855" lon="3.38085">
        <ele>177.98</ele>
        <time>2015-07-18T16:56:45Z</time>
      </trkpt>
      <trkpt lat="43.60852" lon="3.38113">
        <ele>177.5</ele>
        <time>2015-07-18T16:56:46Z</time>
      </trkpt>
      <trkpt lat="43.60849" lon="3.38139">
        <ele>177.02</ele>
        <time>2015-07-18T16:56:47Z</time>
      </trkpt>
      <trkpt lat="43.6085" lon="3.38165">
        <ele>177.02</ele>
        <time>2015-07-18T16:56:48Z</time>
      </trkpt>
      <trkpt lat="43.60853" lon="3.38191">
        <ele>176.54</ele>
        <time>2015-07-18T16:56:49Z</time>
      </trkpt>
      <trkpt lat="43.60858" lon="3.38216">
        <ele>175.1</ele>
        <time>2015-07-18T16:56:50Z</time>
      </trkpt>
      <trkpt lat="43.60867" lon="3.38239">
        <ele>174.14</ele>
        <time>2015-07-18T16:56:51Z</time>
      </trkpt>
      <trkpt lat="43.60878" lon="3.38258">
        <ele>173.17</ele>
        <time>2015-07-18T16:56:52Z</time>
      </trkpt>
      <trkpt lat="43.60892" lon="3.38275">
        <ele>171.73</ele>
        <time>2015-07-18T16:56:53Z</time>
      </trkpt>
      <trkpt lat="43.60906" lon="3.38289">
        <ele>170.77</ele>
        <time>2015-07-18T16:56:54Z</time>
      </trkpt>
      <trkpt lat="43.60947" lon="3.38339">
        <ele>168.37</ele>
        <time>2015-07-18T16:56:57Z</time>
      </trkpt>
      <trkpt lat="43.60958" lon="3.3836">
        <ele>167.41</ele>
        <time>2015-07-18T16:56:58Z</time>
      </trkpt>
      <trkpt lat="43.60966" lon="3.38384">
        <ele>166.93</ele>
        <time>2015-07-18T16:56:59Z</time>
      </trkpt>
      <trkpt lat="43.60972" lon="3.3841">
        <ele>166.45</ele>
        <time>2015-07-18T16:57:00Z</time>
      </trkpt>
      <trkpt lat="43.60973" lon="3.3844">
        <ele>165.48</ele>
        <time>2015-07-18T16:57:01Z</time>
      </trkpt>
      <trkpt lat="43.60968" lon="3.38469">
        <ele>165.48</ele>
        <time>2015-07-18T16:57:02Z</time>
      </trkpt>
      <trkpt lat="43.60959" lon="3.38495">
        <ele>165</ele>
        <time>2015-07-18T16:57:03Z</time>
      </trkpt>
      <trkpt lat="43.60949" lon="3.38519">
        <ele>164.52</ele>
        <time>2015-07-18T16:57:04Z</time>
      </trkpt>
      <trkpt lat="43.6094" lon="3.38542">
        <ele>163.56</ele>
        <time>2015-07-18T16:57:05Z</time>
      </trkpt>
      <trkpt lat="43.60916" lon="3.38674">
        <ele>162.12</ele>
        <time>2015-07-18T16:57:11Z</time>
      </trkpt>
      <trkpt lat="43.60919" lon="3.38698">
        <ele>161.16</ele>
        <time>2015-07-18T16:57:12Z</time>
      </trkpt>
      <trkpt lat="43.60926" lon="3.38719">
        <ele>160.2</ele>
        <time>2015-07-18T16:57:13Z</time>
      </trkpt>
      <trkpt lat="43.60933" lon="3.38737">
        <ele>159.72</ele>
        <time>2015-07-18T16:57:14Z</time>
      </trkpt>
      <trkpt lat="43.60941" lon="3.38751">
        <ele>159.24</ele>
        <time>2015-07-18T16:57:15Z</time>
      </trkpt>
      <trkpt lat="43.60954" lon="3.3876">
        <ele>158.75</ele>
        <time>2015-07-18T16:57:16Z</time>
      </trkpt>
      <trkpt lat="43.60969" lon="3.38766">
        <ele>158.75</ele>
        <time>2015-07-18T16:57:17Z</time>
      </trkpt>
      <trkpt lat="43.60983" lon="3.38771">
        <ele>158.27</ele>
        <time>2015-07-18T16:57:18Z</time>
      </trkpt>
      <trkpt lat="43.60998" lon="3.38776">
        <ele>158.75</ele>
        <time>2015-07-18T16:57:19Z</time>
      </trkpt>
      <trkpt lat="43.61026" lon="3.38788">
        <ele>158.27</ele>
        <time>2015-07-18T16:57:21Z</time>
      </trkpt>
      <trkpt lat="43.6104" lon="3.38799">
        <ele>158.27</ele>
        <time>2015-07-18T16:57:22Z</time>
      </trkpt>
      <trkpt lat="43.61051" lon="3.38814">
        <ele>158.27</ele>
        <time>2015-07-18T16:57:23Z</time>
      </trkpt>
      <trkpt lat="43.61059" lon="3.38832">
        <ele>158.27</ele>
        <time>2015-07-18T16:57:24Z</time>
      </trkpt>
      <trkpt lat="43.61065" lon="3.38853">
        <ele>158.27</ele>
        <time>2015-07-18T16:57:25Z</time>
      </trkpt>
      <trkpt lat="43.61069" lon="3.38877">
        <ele>157.79</ele>
        <time>2015-07-18T16:57:26Z</time>
      </trkpt>
      <trkpt lat="43.61072" lon="3.38902">
        <ele>157.79</ele>
        <time>2015-07-18T16:57:27Z</time>
      </trkpt>
      <trkpt lat="43.61074" lon="3.38927">
        <ele>157.31</ele>
        <time>2015-07-18T16:57:28Z</time>
      </trkpt>
      <trkpt lat="43.61104" lon="3.3908">
        <ele>155.87</ele>
        <time>2015-07-18T16:57:35Z</time>
      </trkpt>
      <trkpt lat="43.61106" lon="3.39096">
        <ele>155.39</ele>
        <time>2015-07-18T16:57:36Z</time>
      </trkpt>
      <trkpt lat="43.61106" lon="3.39112">
        <ele>155.39</ele>
        <time>2015-07-18T16:57:37Z</time>
      </trkpt>
      <trkpt lat="43.61104" lon="3.39127">
        <ele>155.39</ele>
        <time>2015-07-18T16:57:38Z</time>
      </trkpt>
      <trkpt lat="43.61101" lon="3.39142">
        <ele>154.91</ele>
        <time>2015-07-18T16:57:39Z</time>
      </trkpt>
      <trkpt lat="43.61098" lon="3.39158">
        <ele>154.91</ele>
        <time>2015-07-18T16:57:40Z</time>
      </trkpt>
      <trkpt lat="43.61094" lon="3.39193">
        <ele>154.43</ele>
        <time>2015-07-18T16:57:42Z</time>
      </trkpt>
      <trkpt lat="43.61094" lon="3.39213">
        <ele>153.95</ele>
        <time>2015-07-18T16:57:43Z</time>
      </trkpt>
      <trkpt lat="43.61095" lon="3.39234">
        <ele>153.47</ele>
        <time>2015-07-18T16:57:44Z</time>
      </trkpt>
      <trkpt lat="43.61103" lon="3.39408">
        <ele>150.58</ele>
        <time>2015-07-18T16:57:53Z</time>
      </trkpt>
      <trkpt lat="43.611" lon="3.39427">
        <ele>150.1</ele>
        <time>2015-07-18T16:57:54Z</time>
      </trkpt>
      <trkpt lat="43.61095" lon="3.39445">
        <ele>149.62</ele>
        <time>2015-07-18T16:57:55Z</time>
      </trkpt>
      <trkpt lat="43.61087" lon="3.39461">
        <ele>149.14</ele>
        <time>2015-07-18T16:57:56Z</time>
      </trkpt>
      <trkpt lat="43.61078" lon="3.39477">
        <ele>149.14</ele>
        <time>2015-07-18T16:57:57Z</time>
      </trkpt>
      <trkpt lat="43.61067" lon="3.39491">
        <ele>149.14</ele>
        <time>2015-07-18T16:57:58Z</time>
      </trkpt>
      <trkpt lat="43.61056" lon="3.39504">
        <ele>148.66</ele>
        <time>2015-07-18T16:57:59Z</time>
      </trkpt>
      <trkpt lat="43.61043" lon="3.39516">
        <ele>148.18</ele>
        <time>2015-07-18T16:58:00Z</time>
      </trkpt>
      <trkpt lat="43.61031" lon="3.39528">
        <ele>148.66</ele>
        <time>2015-07-18T16:58:01Z</time>
      </trkpt>
      <trkpt lat="43.60937" lon="3.39604">
        <ele>146.74</ele>
        <time>2015-07-18T16:58:09Z</time>
      </trkpt>
      <trkpt lat="43.60898" lon="3.39644">
        <ele>146.26</ele>
        <time>2015-07-18T16:58:13Z</time>
      </trkpt>
      <trkpt lat="43.60892" lon="3.39659">
        <ele>145.78</ele>
        <time>2015-07-18T16:58:14Z</time>
      </trkpt>
      <trkpt lat="43.60887" lon="3.39674">
        <ele>145.3</ele>
        <time>2015-07-18T16:58:15Z</time>
      </trkpt>
      <trkpt lat="43.60885" lon="3.39692">
        <ele>144.82</ele>
        <time>2015-07-18T16:58:16Z</time>
      </trkpt>
      <trkpt lat="43.60882" lon="3.39711">
        <ele>144.34</ele>
        <time>2015-07-18T16:58:17Z</time>
      </trkpt>
      <trkpt lat="43.6088" lon="3.39735">
        <ele>143.85</ele>
        <time>2015-07-18T16:58:18Z</time>
      </trkpt>
      <trkpt lat="43.6088" lon="3.3976">
        <ele>144.34</ele>
        <time>2015-07-18T16:58:19Z</time>
      </trkpt>
      <trkpt lat="43.60881" lon="3.39784">
        <ele>145.3</ele>
        <time>2015-07-18T16:58:20Z</time>
      </trkpt>
      <trkpt lat="43.60874" lon="3.39865">
        <ele>143.85</ele>
        <time>2015-07-18T16:58:24Z</time>
      </trkpt>
      <trkpt lat="43.60875" lon="3.39883">
        <ele>143.37</ele>
        <time>2015-07-18T16:58:25Z</time>
      </trkpt>
      <trkpt lat="43.60878" lon="3.39901">
        <ele>142.89</ele>
        <time>2015-07-18T16:58:26Z</time>
      </trkpt>
      <trkpt lat="43.60905" lon="3.40022">
        <ele>138.09</ele>
        <time>2015-07-18T16:58:33Z</time>
      </trkpt>
      <trkpt lat="43.60906" lon="3.40037">
        <ele>137.13</ele>
        <time>2015-07-18T16:58:34Z</time>
      </trkpt>
      <trkpt lat="43.60906" lon="3.40052">
        <ele>137.13</ele>
        <time>2015-07-18T16:58:35Z</time>
      </trkpt>
      <trkpt lat="43.609" lon="3.40095">
        <ele>134.72</ele>
        <time>2015-07-18T16:58:38Z</time>
      </trkpt>
      <trkpt lat="43.60899" lon="3.40109">
        <ele>134.24</ele>
        <time>2015-07-18T16:58:39Z</time>
      </trkpt>
      <trkpt lat="43.60899" lon="3.40123">
        <ele>133.76</ele>
        <time>2015-07-18T16:58:40Z</time>
      </trkpt>
      <trkpt lat="43.60901" lon="3.40136">
        <ele>132.8</ele>
        <time>2015-07-18T16:58:41Z</time>
      </trkpt>
      <trkpt lat="43.60903" lon="3.40149">
        <ele>132.32</ele>
        <time>2015-07-18T16:58:42Z</time>
      </trkpt>
      <trkpt lat="43.60907" lon="3.40156">
        <ele>132.32</ele>
        <time>2015-07-18T16:58:43Z</time>
      </trkpt>
      <trkpt lat="43.6091" lon="3.40163">
        <ele>131.84</ele>
        <time>2015-07-18T16:58:44Z</time>
      </trkpt>
      <trkpt lat="43.60922" lon="3.40179">
        <ele>129.43</ele>
        <time>2015-07-18T16:58:47Z</time>
      </trkpt>
      <trkpt lat="43.60928" lon="3.40183">
        <ele>128.95</ele>
        <time>2015-07-18T16:58:48Z</time>
      </trkpt>
      <trkpt lat="43.60936" lon="3.40185">
        <ele>129.43</ele>
        <time>2015-07-18T16:58:49Z</time>
      </trkpt>
      <trkpt lat="43.60954" lon="3.40191">
        <ele>130.4</ele>
        <time>2015-07-18T16:58:51Z</time>
      </trkpt>
      <trkpt lat="43.60963" lon="3.40197">
        <ele>130.4</ele>
        <time>2015-07-18T16:58:52Z</time>
      </trkpt>
      <trkpt lat="43.60972" lon="3.40206">
        <ele>131.36</ele>
        <time>2015-07-18T16:58:53Z</time>
      </trkpt>
      <trkpt lat="43.60981" lon="3.40217">
        <ele>131.84</ele>
        <time>2015-07-18T16:58:54Z</time>
      </trkpt>
      <trkpt lat="43.60989" lon="3.40228">
        <ele>132.32</ele>
        <time>2015-07-18T16:58:55Z</time>
      </trkpt>
      <trkpt lat="43.61071" lon="3.40334">
        <ele>134.24</ele>
        <time>2015-07-18T16:59:02Z</time>
      </trkpt>
      <trkpt lat="43.61189" lon="3.40496">
        <ele>133.76</ele>
        <time>2015-07-18T16:59:08Z</time>
      </trkpt>
      <trkpt lat="43.61383" lon="3.40751">
        <ele>141.93</ele>
        <time>2015-07-18T16:59:17Z</time>
      </trkpt>
      <trkpt lat="43.61407" lon="3.40772">
        <ele>142.41</ele>
        <time>2015-07-18T16:59:18Z</time>
      </trkpt>
      <trkpt lat="43.61653" lon="3.40933">
        <ele>153.47</ele>
        <time>2015-07-18T16:59:27Z</time>
      </trkpt>
      <trkpt lat="43.61841" lon="3.41051">
        <ele>163.08</ele>
        <time>2015-07-18T16:59:35Z</time>
      </trkpt>
      <trkpt lat="43.62022" lon="3.41161">
        <ele>165.48</ele>
        <time>2015-07-18T16:59:45Z</time>
      </trkpt>
      <trkpt lat="43.62144" lon="3.41267">
        <ele>159.72</ele>
        <time>2015-07-18T16:59:53Z</time>
      </trkpt>
      <trkpt lat="43.62224" lon="3.41405">
        <ele>153.95</ele>
        <time>2015-07-18T17:00:01Z</time>
      </trkpt>
      <trkpt lat="43.62332" lon="3.41598">
        <ele>146.74</ele>
        <time>2015-07-18T17:00:13Z</time>
      </trkpt>
      <trkpt lat="43.62346" lon="3.41626">
        <ele>145.78</ele>
        <time>2015-07-18T17:00:15Z</time>
      </trkpt>
      <trkpt lat="43.62351" lon="3.41639">
        <ele>145.3</ele>
        <time>2015-07-18T17:00:16Z</time>
      </trkpt>
      <trkpt lat="43.62354" lon="3.41652">
        <ele>144.82</ele>
        <time>2015-07-18T17:00:17Z</time>
      </trkpt>
      <trkpt lat="43.6236" lon="3.41672">
        <ele>144.34</ele>
        <time>2015-07-18T17:00:19Z</time>
      </trkpt>
      <trkpt lat="43.62365" lon="3.41678">
        <ele>143.85</ele>
        <time>2015-07-18T17:00:20Z</time>
      </trkpt>
      <trkpt lat="43.62373" lon="3.41682">
        <ele>143.37</ele>
        <time>2015-07-18T17:00:21Z</time>
      </trkpt>
      <trkpt lat="43.62381" lon="3.41687">
        <ele>142.89</ele>
        <time>2015-07-18T17:00:22Z</time>
      </trkpt>
      <trkpt lat="43.6239" lon="3.41696">
        <ele>142.41</ele>
        <time>2015-07-18T17:00:23Z</time>
      </trkpt>
      <trkpt lat="43.62397" lon="3.41708">
        <ele>142.41</ele>
        <time>2015-07-18T17:00:24Z</time>
      </trkpt>
      <trkpt lat="43.62403" lon="3.41721">
        <ele>141.93</ele>
        <time>2015-07-18T17:00:25Z</time>
      </trkpt>
      <trkpt lat="43.62456" lon="3.41849">
        <ele>138.09</ele>
        <time>2015-07-18T17:00:33Z</time>
      </trkpt>
      <trkpt lat="43.62473" lon="3.41993">
        <ele>134.24</ele>
        <time>2015-07-18T17:00:41Z</time>
      </trkpt>
      <trkpt lat="43.62513" lon="3.42123">
        <ele>129.92</ele>
        <time>2015-07-18T17:00:48Z</time>
      </trkpt>
      <trkpt lat="43.62561" lon="3.42236">
        <ele>125.59</ele>
        <time>2015-07-18T17:00:55Z</time>
      </trkpt>
      <trkpt lat="43.62565" lon="3.42254">
        <ele>125.11</ele>
        <time>2015-07-18T17:00:56Z</time>
      </trkpt>
      <trkpt lat="43.62569" lon="3.42274">
        <ele>125.11</ele>
        <time>2015-07-18T17:00:57Z</time>
      </trkpt>
      <trkpt lat="43.62571" lon="3.42293">
        <ele>124.63</ele>
        <time>2015-07-18T17:00:58Z</time>
      </trkpt>
      <trkpt lat="43.62572" lon="3.42312">
        <ele>123.67</ele>
        <time>2015-07-18T17:00:59Z</time>
      </trkpt>
      <trkpt lat="43.62572" lon="3.42331">
        <ele>122.71</ele>
        <time>2015-07-18T17:01:00Z</time>
      </trkpt>
      <trkpt lat="43.62573" lon="3.42549">
        <ele>115.98</ele>
        <time>2015-07-18T17:01:13Z</time>
      </trkpt>
      <trkpt lat="43.62573" lon="3.42557">
        <ele>115.5</ele>
        <time>2015-07-18T17:01:18Z</time>
      </trkpt>
      <trkpt lat="43.62574" lon="3.42617">
        <ele>115.5</ele>
        <time>2015-07-18T17:01:23Z</time>
      </trkpt>
      <trkpt lat="43.62583" lon="3.42752">
        <ele>113.09</ele>
        <time>2015-07-18T17:01:33Z</time>
      </trkpt>
      <trkpt lat="43.62599" lon="3.42966">
        <ele>109.73</ele>
        <time>2015-07-18T17:01:45Z</time>
      </trkpt>
      <trkpt lat="43.62594" lon="3.4313">
        <ele>108.29</ele>
        <time>2015-07-18T17:01:56Z</time>
      </trkpt>
      <trkpt lat="43.62561" lon="3.43256">
        <ele>112.13</ele>
        <time>2015-07-18T17:02:06Z</time>
      </trkpt>
      <trkpt lat="43.62546" lon="3.43284">
        <ele>115.01</ele>
        <time>2015-07-18T17:02:10Z</time>
      </trkpt>
      <trkpt lat="43.62544" lon="3.43287">
        <ele>115.98</ele>
        <time>2015-07-18T17:02:11Z</time>
      </trkpt>
      <trkpt lat="43.62543" lon="3.43288">
        <ele>117.42</ele>
        <time>2015-07-18T17:02:12Z</time>
      </trkpt>
      <trkpt lat="43.62542" lon="3.43289">
        <ele>118.38</ele>
        <time>2015-07-18T17:02:13Z</time>
      </trkpt>
      <trkpt lat="43.62542" lon="3.43291">
        <ele>119.34</ele>
        <time>2015-07-18T17:02:14Z</time>
      </trkpt>
      <trkpt lat="43.62541" lon="3.43293">
        <ele>120.78</ele>
        <time>2015-07-18T17:02:15Z</time>
      </trkpt>
      <trkpt lat="43.62541" lon="3.43296">
        <ele>120.78</ele>
        <time>2015-07-18T17:02:16Z</time>
      </trkpt>
      <trkpt lat="43.62541" lon="3.43299">
        <ele>121.74</ele>
        <time>2015-07-18T17:02:17Z</time>
      </trkpt>
      <trkpt lat="43.62531" lon="3.43332">
        <ele>124.15</ele>
        <time>2015-07-18T17:02:25Z</time>
      </trkpt>
      <trkpt lat="43.62491" lon="3.43408">
        <ele>118.86</ele>
        <time>2015-07-18T17:02:35Z</time>
      </trkpt>
      <trkpt lat="43.62407" lon="3.43531">
        <ele>111.65</ele>
        <time>2015-07-18T17:02:47Z</time>
      </trkpt>
      <trkpt lat="43.62378" lon="3.4357">
        <ele>110.69</ele>
        <time>2015-07-18T17:02:54Z</time>
      </trkpt>
      <trkpt lat="43.62366" lon="3.43583">
        <ele>111.17</ele>
        <time>2015-07-18T17:02:56Z</time>
      </trkpt>
      <trkpt lat="43.62358" lon="3.43589">
        <ele>110.69</ele>
        <time>2015-07-18T17:02:57Z</time>
      </trkpt>
      <trkpt lat="43.62339" lon="3.43603">
        <ele>111.17</ele>
        <time>2015-07-18T17:02:59Z</time>
      </trkpt>
      <trkpt lat="43.6233" lon="3.43608">
        <ele>111.65</ele>
        <time>2015-07-18T17:03:00Z</time>
      </trkpt>
      <trkpt lat="43.6223" lon="3.43639">
        <ele>115.01</ele>
        <time>2015-07-18T17:03:10Z</time>
      </trkpt>
      <trkpt lat="43.6212" lon="3.43658">
        <ele>117.42</ele>
        <time>2015-07-18T17:03:18Z</time>
      </trkpt>
      <trkpt lat="43.61947" lon="3.43668">
        <ele>115.5</ele>
        <time>2015-07-18T17:03:29Z</time>
      </trkpt>
      <trkpt lat="43.61939" lon="3.43673">
        <ele>115.98</ele>
        <time>2015-07-18T17:03:30Z</time>
      </trkpt>
      <trkpt lat="43.61932" lon="3.4368">
        <ele>115.5</ele>
        <time>2015-07-18T17:03:31Z</time>
      </trkpt>
      <trkpt lat="43.6192" lon="3.43694">
        <ele>114.53</ele>
        <time>2015-07-18T17:03:35Z</time>
      </trkpt>
      <trkpt lat="43.61915" lon="3.43697">
        <ele>114.53</ele>
        <time>2015-07-18T17:03:36Z</time>
      </trkpt>
      <trkpt lat="43.61909" lon="3.43702">
        <ele>114.05</ele>
        <time>2015-07-18T17:03:37Z</time>
      </trkpt>
      <trkpt lat="43.61904" lon="3.43713">
        <ele>114.05</ele>
        <time>2015-07-18T17:03:38Z</time>
      </trkpt>
      <trkpt lat="43.61903" lon="3.43724">
        <ele>113.57</ele>
        <time>2015-07-18T17:03:39Z</time>
      </trkpt>
      <trkpt lat="43.61904" lon="3.43736">
        <ele>113.09</ele>
        <time>2015-07-18T17:03:40Z</time>
      </trkpt>
      <trkpt lat="43.61906" lon="3.43747">
        <ele>113.09</ele>
        <time>2015-07-18T17:03:41Z</time>
      </trkpt>
      <trkpt lat="43.61907" lon="3.43759">
        <ele>112.61</ele>
        <time>2015-07-18T17:03:42Z</time>
      </trkpt>
      <trkpt lat="43.61905" lon="3.43773">
        <ele>112.61</ele>
        <time>2015-07-18T17:03:43Z</time>
      </trkpt>
      <trkpt lat="43.61902" lon="3.43789">
        <ele>112.13</ele>
        <time>2015-07-18T17:03:44Z</time>
      </trkpt>
      <trkpt lat="43.61895" lon="3.43842">
        <ele>110.21</ele>
        <time>2015-07-18T17:03:47Z</time>
      </trkpt>
      <trkpt lat="43.61895" lon="3.43862">
        <ele>109.73</ele>
        <time>2015-07-18T17:03:48Z</time>
      </trkpt>
      <trkpt lat="43.61897" lon="3.43883">
        <ele>108.77</ele>
        <time>2015-07-18T17:03:49Z</time>
      </trkpt>
      <trkpt lat="43.61901" lon="3.43905">
        <ele>107.32</ele>
        <time>2015-07-18T17:03:50Z</time>
      </trkpt>
      <trkpt lat="43.61905" lon="3.43928">
        <ele>106.36</ele>
        <time>2015-07-18T17:03:51Z</time>
      </trkpt>
      <trkpt lat="43.61946" lon="3.44211">
        <ele>96.75</ele>
        <time>2015-07-18T17:04:03Z</time>
      </trkpt>
      <trkpt lat="43.61945" lon="3.44238">
        <ele>95.79</ele>
        <time>2015-07-18T17:04:04Z</time>
      </trkpt>
      <trkpt lat="43.61942" lon="3.44265">
        <ele>94.83</ele>
        <time>2015-07-18T17:04:05Z</time>
      </trkpt>
      <trkpt lat="43.61937" lon="3.44293">
        <ele>93.87</ele>
        <time>2015-07-18T17:04:06Z</time>
      </trkpt>
      <trkpt lat="43.61931" lon="3.4432">
        <ele>92.9</ele>
        <time>2015-07-18T17:04:07Z</time>
      </trkpt>
      <trkpt lat="43.61924" lon="3.44346">
        <ele>91.94</ele>
        <time>2015-07-18T17:04:08Z</time>
      </trkpt>
      <trkpt lat="43.61849" lon="3.44607">
        <ele>86.18</ele>
        <time>2015-07-18T17:04:19Z</time>
      </trkpt>
      <trkpt lat="43.61798" lon="3.44818">
        <ele>84.25</ele>
        <time>2015-07-18T17:04:29Z</time>
      </trkpt>
      <trkpt lat="43.61753" lon="3.45006">
        <ele>82.33</ele>
        <time>2015-07-18T17:04:41Z</time>
      </trkpt>
      <trkpt lat="43.61728" lon="3.451">
        <ele>80.41</ele>
        <time>2015-07-18T17:04:49Z</time>
      </trkpt>
      <trkpt lat="43.61722" lon="3.45114">
        <ele>80.41</ele>
        <time>2015-07-18T17:04:53Z</time>
      </trkpt>
      <trkpt lat="43.61719" lon="3.4512">
        <ele>79.93</ele>
        <time>2015-07-18T17:04:54Z</time>
      </trkpt>
      <trkpt lat="43.61717" lon="3.45129">
        <ele>79.45</ele>
        <time>2015-07-18T17:04:55Z</time>
      </trkpt>
      <trkpt lat="43.61715" lon="3.45143">
        <ele>78.97</ele>
        <time>2015-07-18T17:04:56Z</time>
      </trkpt>
      <trkpt lat="43.61713" lon="3.45159">
        <ele>78.48</ele>
        <time>2015-07-18T17:04:57Z</time>
      </trkpt>
      <trkpt lat="43.61675" lon="3.45336">
        <ele>76.56</ele>
        <time>2015-07-18T17:05:06Z</time>
      </trkpt>
      <trkpt lat="43.61624" lon="3.45433">
        <ele>76.08</ele>
        <time>2015-07-18T17:05:12Z</time>
      </trkpt>
      <trkpt lat="43.61544" lon="3.45501">
        <ele>75.12</ele>
        <time>2015-07-18T17:05:19Z</time>
      </trkpt>
      <trkpt lat="43.61537" lon="3.4551">
        <ele>75.12</ele>
        <time>2015-07-18T17:05:20Z</time>
      </trkpt>
      <trkpt lat="43.61519" lon="3.45538">
        <ele>74.64</ele>
        <time>2015-07-18T17:05:26Z</time>
      </trkpt>
      <trkpt lat="43.6151" lon="3.45551">
        <ele>74.64</ele>
        <time>2015-07-18T17:05:30Z</time>
      </trkpt>
      <trkpt lat="43.61504" lon="3.45556">
        <ele>74.64</ele>
        <time>2015-07-18T17:05:31Z</time>
      </trkpt>
      <trkpt lat="43.6149" lon="3.45568">
        <ele>74.64</ele>
        <time>2015-07-18T17:05:33Z</time>
      </trkpt>
      <trkpt lat="43.61484" lon="3.45577">
        <ele>74.16</ele>
        <time>2015-07-18T17:05:34Z</time>
      </trkpt>
      <trkpt lat="43.61481" lon="3.45588">
        <ele>74.16</ele>
        <time>2015-07-18T17:05:35Z</time>
      </trkpt>
      <trkpt lat="43.61481" lon="3.45601">
        <ele>73.68</ele>
        <time>2015-07-18T17:05:36Z</time>
      </trkpt>
      <trkpt lat="43.61483" lon="3.45614">
        <ele>73.68</ele>
        <time>2015-07-18T17:05:37Z</time>
      </trkpt>
      <trkpt lat="43.61486" lon="3.45627">
        <ele>73.2</ele>
        <time>2015-07-18T17:05:38Z</time>
      </trkpt>
      <trkpt lat="43.61487" lon="3.45642">
        <ele>73.2</ele>
        <time>2015-07-18T17:05:39Z</time>
      </trkpt>
      <trkpt lat="43.61486" lon="3.45659">
        <ele>73.2</ele>
        <time>2015-07-18T17:05:40Z</time>
      </trkpt>
      <trkpt lat="43.61483" lon="3.45677">
        <ele>72.72</ele>
        <time>2015-07-18T17:05:41Z</time>
      </trkpt>
      <trkpt lat="43.6148" lon="3.45695">
        <ele>72.72</ele>
        <time>2015-07-18T17:05:42Z</time>
      </trkpt>
      <trkpt lat="43.61432" lon="3.45891">
        <ele>72.72</ele>
        <time>2015-07-18T17:05:51Z</time>
      </trkpt>
      <trkpt lat="43.6137" lon="3.46138">
        <ele>76.08</ele>
        <time>2015-07-18T17:06:01Z</time>
      </trkpt>
      <trkpt lat="43.61311" lon="3.46303">
        <ele>71.27</ele>
        <time>2015-07-18T17:06:10Z</time>
      </trkpt>
      <trkpt lat="43.61238" lon="3.46445">
        <ele>68.39</ele>
        <time>2015-07-18T17:06:19Z</time>
      </trkpt>
      <trkpt lat="43.61197" lon="3.46497">
        <ele>67.91</ele>
        <time>2015-07-18T17:06:26Z</time>
      </trkpt>
      <trkpt lat="43.61192" lon="3.46503">
        <ele>68.39</ele>
        <time>2015-07-18T17:06:27Z</time>
      </trkpt>
      <trkpt lat="43.61186" lon="3.46508">
        <ele>68.39</ele>
        <time>2015-07-18T17:06:28Z</time>
      </trkpt>
      <trkpt lat="43.61179" lon="3.46512">
        <ele>68.39</ele>
        <time>2015-07-18T17:06:29Z</time>
      </trkpt>
      <trkpt lat="43.61172" lon="3.46516">
        <ele>68.39</ele>
        <time>2015-07-18T17:06:30Z</time>
      </trkpt>
      <trkpt lat="43.61165" lon="3.46523">
        <ele>68.39</ele>
        <time>2015-07-18T17:06:31Z</time>
      </trkpt>
      <trkpt lat="43.61161" lon="3.46532">
        <ele>68.39</ele>
        <time>2015-07-18T17:06:32Z</time>
      </trkpt>
      <trkpt lat="43.6116" lon="3.46542">
        <ele>67.91</ele>
        <time>2015-07-18T17:06:33Z</time>
      </trkpt>
      <trkpt lat="43.61162" lon="3.46551">
        <ele>67.91</ele>
        <time>2015-07-18T17:06:34Z</time>
      </trkpt>
      <trkpt lat="43.61166" lon="3.46557">
        <ele>67.43</ele>
        <time>2015-07-18T17:06:35Z</time>
      </trkpt>
      <trkpt lat="43.61171" lon="3.46561">
        <ele>67.43</ele>
        <time>2015-07-18T17:06:36Z</time>
      </trkpt>
      <trkpt lat="43.61176" lon="3.46564">
        <ele>66.95</ele>
        <time>2015-07-18T17:06:37Z</time>
      </trkpt>
      <trkpt lat="43.61181" lon="3.46564">
        <ele>66.47</ele>
        <time>2015-07-18T17:06:38Z</time>
      </trkpt>
      <trkpt lat="43.61186" lon="3.46563">
        <ele>66.47</ele>
        <time>2015-07-18T17:06:39Z</time>
      </trkpt>
      <trkpt lat="43.61191" lon="3.4656">
        <ele>66.47</ele>
        <time>2015-07-18T17:06:40Z</time>
      </trkpt>
      <trkpt lat="43.61196" lon="3.46555">
        <ele>66.47</ele>
        <time>2015-07-18T17:06:41Z</time>
      </trkpt>
      <trkpt lat="43.61199" lon="3.46548">
        <ele>66.47</ele>
        <time>2015-07-18T17:06:42Z</time>
      </trkpt>
      <trkpt lat="43.61201" lon="3.4654">
        <ele>66.47</ele>
        <time>2015-07-18T17:06:43Z</time>
      </trkpt>
      <trkpt lat="43.61201" lon="3.46532">
        <ele>65.99</ele>
        <time>2015-07-18T17:06:44Z</time>
      </trkpt>
      <trkpt lat="43.61202" lon="3.46523">
        <ele>65.99</ele>
        <time>2015-07-18T17:06:45Z</time>
      </trkpt>
      <trkpt lat="43.61204" lon="3.46512">
        <ele>65.99</ele>
        <time>2015-07-18T17:06:46Z</time>
      </trkpt>
      <trkpt lat="43.61208" lon="3.46501">
        <ele>65.99</ele>
        <time>2015-07-18T17:06:47Z</time>
      </trkpt>
      <trkpt lat="43.61213" lon="3.46489">
        <ele>65.51</ele>
        <time>2015-07-18T17:06:48Z</time>
      </trkpt>
      <trkpt lat="43.6122" lon="3.46477">
        <ele>65.51</ele>
        <time>2015-07-18T17:06:49Z</time>
      </trkpt>
      <trkpt lat="43.61228" lon="3.46465">
        <ele>65.51</ele>
        <time>2015-07-18T17:06:50Z</time>
      </trkpt>
      <trkpt lat="43.61304" lon="3.46338">
        <ele>66.47</ele>
        <time>2015-07-18T17:06:58Z</time>
      </trkpt>
      <trkpt lat="43.6144" lon="3.46114">
        <ele>68.39</ele>
        <time>2015-07-18T17:07:09Z</time>
      </trkpt>
      <trkpt lat="43.61569" lon="3.45999">
        <ele>69.83</ele>
        <time>2015-07-18T17:07:17Z</time>
      </trkpt>
      <trkpt lat="43.61702" lon="3.4592">
        <ele>71.27</ele>
        <time>2015-07-18T17:07:23Z</time>
      </trkpt>
      <trkpt lat="43.61949" lon="3.45748">
        <ele>71.76</ele>
        <time>2015-07-18T17:07:33Z</time>
      </trkpt>
      <trkpt lat="43.62181" lon="3.45522">
        <ele>74.64</ele>
        <time>2015-07-18T17:07:44Z</time>
      </trkpt>
      <trkpt lat="43.62362" lon="3.45333">
        <ele>77.52</ele>
        <time>2015-07-18T17:07:51Z</time>
      </trkpt>
      <trkpt lat="43.62582" lon="3.45138">
        <ele>79.93</ele>
        <time>2015-07-18T17:07:58Z</time>
      </trkpt>
      <trkpt lat="43.62885" lon="3.44943">
        <ele>84.73</ele>
        <time>2015-07-18T17:08:07Z</time>
      </trkpt>
      <trkpt lat="43.63182" lon="3.44818">
        <ele>86.66</ele>
        <time>2015-07-18T17:08:15Z</time>
      </trkpt>
      <trkpt lat="43.63593" lon="3.44713">
        <ele>83.77</ele>
        <time>2015-07-18T17:08:25Z</time>
      </trkpt>
      <trkpt lat="43.64049" lon="3.44626">
        <ele>76.56</ele>
        <time>2015-07-18T17:08:36Z</time>
      </trkpt>
      <trkpt lat="43.64245" lon="3.44667">
        <ele>71.76</ele>
        <time>2015-07-18T17:08:41Z</time>
      </trkpt>
      <trkpt lat="43.6443" lon="3.44782">
        <ele>66.47</ele>
        <time>2015-07-18T17:08:46Z</time>
      </trkpt>
      <trkpt lat="43.64678" lon="3.44954">
        <ele>64.55</ele>
        <time>2015-07-18T17:08:53Z</time>
      </trkpt>
      <trkpt lat="43.64871" lon="3.44985">
        <ele>68.87</ele>
        <time>2015-07-18T17:08:58Z</time>
      </trkpt>
      <trkpt lat="43.65048" lon="3.44937">
        <ele>78</ele>
        <time>2015-07-18T17:09:03Z</time>
      </trkpt>
      <trkpt lat="43.65258" lon="3.44865">
        <ele>83.77</ele>
        <time>2015-07-18T17:09:10Z</time>
      </trkpt>
      <trkpt lat="43.65284" lon="3.44862">
        <ele>83.77</ele>
        <time>2015-07-18T17:09:11Z</time>
      </trkpt>
      <trkpt lat="43.65311" lon="3.44863">
        <ele>84.25</ele>
        <time>2015-07-18T17:09:12Z</time>
      </trkpt>
      <trkpt lat="43.65337" lon="3.44872">
        <ele>84.25</ele>
        <time>2015-07-18T17:09:13Z</time>
      </trkpt>
      <trkpt lat="43.65364" lon="3.44884">
        <ele>84.73</ele>
        <time>2015-07-18T17:09:14Z</time>
      </trkpt>
      <trkpt lat="43.6539" lon="3.44902">
        <ele>84.73</ele>
        <time>2015-07-18T17:09:15Z</time>
      </trkpt>
      <trkpt lat="43.65416" lon="3.44924">
        <ele>84.73</ele>
        <time>2015-07-18T17:09:16Z</time>
      </trkpt>
      <trkpt lat="43.65438" lon="3.44951">
        <ele>84.73</ele>
        <time>2015-07-18T17:09:17Z</time>
      </trkpt>
      <trkpt lat="43.65458" lon="3.44982">
        <ele>84.73</ele>
        <time>2015-07-18T17:09:18Z</time>
      </trkpt>
      <trkpt lat="43.65475" lon="3.45017">
        <ele>85.21</ele>
        <time>2015-07-18T17:09:19Z</time>
      </trkpt>
      <trkpt lat="43.65486" lon="3.45055">
        <ele>85.69</ele>
        <time>2015-07-18T17:09:20Z</time>
      </trkpt>
      <trkpt lat="43.65495" lon="3.45096">
        <ele>85.69</ele>
        <time>2015-07-18T17:09:21Z</time>
      </trkpt>
      <trkpt lat="43.65502" lon="3.45138">
        <ele>85.69</ele>
        <time>2015-07-18T17:09:22Z</time>
      </trkpt>
      <trkpt lat="43.65508" lon="3.45182">
        <ele>85.69</ele>
        <time>2015-07-18T17:09:23Z</time>
      </trkpt>
      <trkpt lat="43.65601" lon="3.45715">
        <ele>88.1</ele>
        <time>2015-07-18T17:09:35Z</time>
      </trkpt>
      <trkpt lat="43.657" lon="3.46296">
        <ele>87.62</ele>
        <time>2015-07-18T17:09:48Z</time>
      </trkpt>
      <trkpt lat="43.65797" lon="3.46922">
        <ele>88.58</ele>
        <time>2015-07-18T17:10:01Z</time>
      </trkpt>
      <trkpt lat="43.65857" lon="3.47335">
        <ele>90.98</ele>
        <time>2015-07-18T17:10:10Z</time>
      </trkpt>
      <trkpt lat="43.65902" lon="3.47722">
        <ele>93.39</ele>
        <time>2015-07-18T17:10:19Z</time>
      </trkpt>
      <trkpt lat="43.65922" lon="3.48206">
        <ele>94.35</ele>
        <time>2015-07-18T17:10:29Z</time>
      </trkpt>
      <trkpt lat="43.65908" lon="3.48601">
        <ele>93.39</ele>
        <time>2015-07-18T17:10:36Z</time>
      </trkpt>
      <trkpt lat="43.6586" lon="3.49108">
        <ele>92.9</ele>
        <time>2015-07-18T17:10:44Z</time>
      </trkpt>
      <trkpt lat="43.65857" lon="3.49487">
        <ele>91.94</ele>
        <time>2015-07-18T17:10:50Z</time>
      </trkpt>
      <trkpt lat="43.65911" lon="3.4993">
        <ele>90.5</ele>
        <time>2015-07-18T17:10:57Z</time>
      </trkpt>
      <trkpt lat="43.65981" lon="3.50508">
        <ele>88.1</ele>
        <time>2015-07-18T17:11:06Z</time>
      </trkpt>
      <trkpt lat="43.6597" lon="3.50899">
        <ele>86.66</ele>
        <time>2015-07-18T17:11:12Z</time>
      </trkpt>
      <trkpt lat="43.65912" lon="3.51281">
        <ele>84.73</ele>
        <time>2015-07-18T17:11:18Z</time>
      </trkpt>
      <trkpt lat="43.65809" lon="3.5163">
        <ele>83.29</ele>
        <time>2015-07-18T17:11:24Z</time>
      </trkpt>
      <trkpt lat="43.65684" lon="3.5191">
        <ele>80.41</ele>
        <time>2015-07-18T17:11:30Z</time>
      </trkpt>
      <trkpt lat="43.6553" lon="3.52222">
        <ele>73.68</ele>
        <time>2015-07-18T17:11:38Z</time>
      </trkpt>
      <trkpt lat="43.65365" lon="3.52587">
        <ele>68.39</ele>
        <time>2015-07-18T17:11:46Z</time>
      </trkpt>
      <trkpt lat="43.65261" lon="3.52942">
        <ele>65.03</ele>
        <time>2015-07-18T17:11:53Z</time>
      </trkpt>
      <trkpt lat="43.652" lon="3.53329">
        <ele>59.26</ele>
        <time>2015-07-18T17:12:00Z</time>
      </trkpt>
      <trkpt lat="43.65114" lon="3.54007">
        <ele>55.89</ele>
        <time>2015-07-18T17:12:12Z</time>
      </trkpt>
      <trkpt lat="43.65025" lon="3.54263">
        <ele>57.82</ele>
        <time>2015-07-18T17:12:17Z</time>
      </trkpt>
      <trkpt lat="43.64896" lon="3.54479">
        <ele>60.22</ele>
        <time>2015-07-18T17:12:22Z</time>
      </trkpt>
      <trkpt lat="43.6472" lon="3.54697">
        <ele>67.43</ele>
        <time>2015-07-18T17:12:28Z</time>
      </trkpt>
      <trkpt lat="43.64585" lon="3.54968">
        <ele>77.52</ele>
        <time>2015-07-18T17:12:34Z</time>
      </trkpt>
      <trkpt lat="43.64505" lon="3.55288">
        <ele>81.85</ele>
        <time>2015-07-18T17:12:40Z</time>
      </trkpt>
      <trkpt lat="43.64476" lon="3.55649">
        <ele>85.21</ele>
        <time>2015-07-18T17:12:46Z</time>
      </trkpt>
      <trkpt lat="43.64421" lon="3.56258">
        <ele>105.88</ele>
        <time>2015-07-18T17:12:56Z</time>
      </trkpt>
      <trkpt lat="43.64345" lon="3.56531">
        <ele>113.09</ele>
        <time>2015-07-18T17:13:01Z</time>
      </trkpt>
      <trkpt lat="43.6419" lon="3.5689">
        <ele>119.34</ele>
        <time>2015-07-18T17:13:08Z</time>
      </trkpt>
      <trkpt lat="43.64074" lon="3.57282">
        <ele>125.59</ele>
        <time>2015-07-18T17:13:15Z</time>
      </trkpt>
      <trkpt lat="43.63879" lon="3.57887">
        <ele>126.55</ele>
        <time>2015-07-18T17:13:26Z</time>
      </trkpt>
      <trkpt lat="43.63737" lon="3.58117">
        <ele>126.07</ele>
        <time>2015-07-18T17:13:31Z</time>
      </trkpt>
      <trkpt lat="43.6334" lon="3.58648">
        <ele>133.76</ele>
        <time>2015-07-18T17:13:44Z</time>
      </trkpt>
      <trkpt lat="43.62919" lon="3.59229">
        <ele>159.24</ele>
        <time>2015-07-18T17:13:58Z</time>
      </trkpt>
      <trkpt lat="43.62776" lon="3.59526">
        <ele>173.17</ele>
        <time>2015-07-18T17:14:04Z</time>
      </trkpt>
      <trkpt lat="43.62696" lon="3.59815">
        <ele>181.83</ele>
        <time>2015-07-18T17:14:09Z</time>
      </trkpt>
      <trkpt lat="43.62665" lon="3.60128">
        <ele>188.56</ele>
        <time>2015-07-18T17:14:14Z</time>
      </trkpt>
      <trkpt lat="43.62666" lon="3.60571">
        <ele>202.01</ele>
        <time>2015-07-18T17:14:21Z</time>
      </trkpt>
      <trkpt lat="43.62626" lon="3.60868">
        <ele>212.11</ele>
        <time>2015-07-18T17:14:26Z</time>
      </trkpt>
      <trkpt lat="43.62564" lon="3.61202">
        <ele>223.64</ele>
        <time>2015-07-18T17:14:32Z</time>
      </trkpt>
      <trkpt lat="43.62524" lon="3.61648">
        <ele>233.74</ele>
        <time>2015-07-18T17:14:40Z</time>
      </trkpt>
      <trkpt lat="43.62449" lon="3.62025">
        <ele>234.22</ele>
        <time>2015-07-18T17:14:47Z</time>
      </trkpt>
      <trkpt lat="43.62352" lon="3.6245">
        <ele>228.93</ele>
        <time>2015-07-18T17:14:55Z</time>
      </trkpt>
      <trkpt lat="43.62327" lon="3.62785">
        <ele>223.64</ele>
        <time>2015-07-18T17:15:01Z</time>
      </trkpt>
      <trkpt lat="43.6234" lon="3.6308">
        <ele>219.8</ele>
        <time>2015-07-18T17:15:07Z</time>
      </trkpt>
      <trkpt lat="43.62392" lon="3.63477">
        <ele>214.51</ele>
        <time>2015-07-18T17:15:15Z</time>
      </trkpt>
      <trkpt lat="43.62472" lon="3.64127">
        <ele>206.82</ele>
        <time>2015-07-18T17:15:27Z</time>
      </trkpt>
      <trkpt lat="43.62554" lon="3.64807">
        <ele>191.92</ele>
        <time>2015-07-18T17:15:38Z</time>
      </trkpt>
      <trkpt lat="43.62553" lon="3.65129">
        <ele>183.27</ele>
        <time>2015-07-18T17:15:43Z</time>
      </trkpt>
      <trkpt lat="43.62565" lon="3.65432">
        <ele>174.62</ele>
        <time>2015-07-18T17:15:48Z</time>
      </trkpt>
      <trkpt lat="43.62634" lon="3.65713">
        <ele>165</ele>
        <time>2015-07-18T17:15:53Z</time>
      </trkpt>
      <trkpt lat="43.62674" lon="3.66006">
        <ele>159.24</ele>
        <time>2015-07-18T17:15:58Z</time>
      </trkpt>
      <trkpt lat="43.62671" lon="3.66271">
        <ele>157.31</ele>
        <time>2015-07-18T17:16:03Z</time>
      </trkpt>
      <trkpt lat="43.62691" lon="3.66619">
        <ele>169.33</ele>
        <time>2015-07-18T17:16:10Z</time>
      </trkpt>
      <trkpt lat="43.62772" lon="3.67029">
        <ele>184.23</ele>
        <time>2015-07-18T17:16:18Z</time>
      </trkpt>
      <trkpt lat="43.62911" lon="3.67597">
        <ele>192.4</ele>
        <time>2015-07-18T17:16:29Z</time>
      </trkpt>
      <trkpt lat="43.63045" lon="3.67948">
        <ele>186.63</ele>
        <time>2015-07-18T17:16:36Z</time>
      </trkpt>
      <trkpt lat="43.63102" lon="3.68212">
        <ele>177.5</ele>
        <time>2015-07-18T17:16:41Z</time>
      </trkpt>
      <trkpt lat="43.6311" lon="3.6848">
        <ele>166.93</ele>
        <time>2015-07-18T17:16:46Z</time>
      </trkpt>
      <trkpt lat="43.63079" lon="3.68714">
        <ele>157.79</ele>
        <time>2015-07-18T17:16:51Z</time>
      </trkpt>
      <trkpt lat="43.62989" lon="3.69125">
        <ele>145.78</ele>
        <time>2015-07-18T17:17:01Z</time>
      </trkpt>
      <trkpt lat="43.62879" lon="3.69616">
        <ele>145.3</ele>
        <time>2015-07-18T17:17:13Z</time>
      </trkpt>
      <trkpt lat="43.62809" lon="3.70047">
        <ele>148.18</ele>
        <time>2015-07-18T17:17:22Z</time>
      </trkpt>
      <trkpt lat="43.62799" lon="3.70399">
        <ele>149.62</ele>
        <time>2015-07-18T17:17:29Z</time>
      </trkpt>
      <trkpt lat="43.62833" lon="3.70788">
        <ele>152.03</ele>
        <time>2015-07-18T17:17:36Z</time>
      </trkpt>
      <trkpt lat="43.62924" lon="3.71214">
        <ele>154.43</ele>
        <time>2015-07-18T17:17:43Z</time>
      </trkpt>
      <trkpt lat="43.63102" lon="3.71924">
        <ele>158.27</ele>
        <time>2015-07-18T17:17:54Z</time>
      </trkpt>
      <trkpt lat="43.63223" lon="3.72409">
        <ele>160.68</ele>
        <time>2015-07-18T17:18:02Z</time>
      </trkpt>
      <trkpt lat="43.63276" lon="3.72705">
        <ele>162.12</ele>
        <time>2015-07-18T17:18:08Z</time>
      </trkpt>
      <trkpt lat="43.63301" lon="3.73082">
        <ele>164.52</ele>
        <time>2015-07-18T17:18:16Z</time>
      </trkpt>
      <trkpt lat="43.63285" lon="3.73469">
        <ele>165.96</ele>
        <time>2015-07-18T17:18:23Z</time>
      </trkpt>
      <trkpt lat="43.6324" lon="3.74248">
        <ele>164.52</ele>
        <time>2015-07-18T17:18:36Z</time>
      </trkpt>
      <trkpt lat="43.63254" lon="3.74527">
        <ele>161.64</ele>
        <time>2015-07-18T17:18:41Z</time>
      </trkpt>
      <trkpt lat="43.63304" lon="3.74797">
        <ele>156.83</ele>
        <time>2015-07-18T17:18:47Z</time>
      </trkpt>
      <trkpt lat="43.634" lon="3.75261">
        <ele>146.26</ele>
        <time>2015-07-18T17:18:57Z</time>
      </trkpt>
      <trkpt lat="43.63399" lon="3.75555">
        <ele>139.53</ele>
        <time>2015-07-18T17:19:03Z</time>
      </trkpt>
      <trkpt lat="43.63342" lon="3.75835">
        <ele>134.24</ele>
        <time>2015-07-18T17:19:09Z</time>
      </trkpt>
      <trkpt lat="43.63219" lon="3.76136">
        <ele>129.92</ele>
        <time>2015-07-18T17:19:16Z</time>
      </trkpt>
      <trkpt lat="43.63105" lon="3.7649">
        <ele>124.63</ele>
        <time>2015-07-18T17:19:24Z</time>
      </trkpt>
      <trkpt lat="43.63" lon="3.76931">
        <ele>113.09</ele>
        <time>2015-07-18T17:19:34Z</time>
      </trkpt>
      <trkpt lat="43.62891" lon="3.77426">
        <ele>106.84</ele>
        <time>2015-07-18T17:19:45Z</time>
      </trkpt>
      <trkpt lat="43.62892" lon="3.7767">
        <ele>105.88</ele>
        <time>2015-07-18T17:19:50Z</time>
      </trkpt>
      <trkpt lat="43.62904" lon="3.7796">
        <ele>106.36</ele>
        <time>2015-07-18T17:19:56Z</time>
      </trkpt>
      <trkpt lat="43.62896" lon="3.78007">
        <ele>106.36</ele>
        <time>2015-07-18T17:19:57Z</time>
      </trkpt>
      <trkpt lat="43.62885" lon="3.78053">
        <ele>106.36</ele>
        <time>2015-07-18T17:19:58Z</time>
      </trkpt>
      <trkpt lat="43.6287" lon="3.78097">
        <ele>105.88</ele>
        <time>2015-07-18T17:19:59Z</time>
      </trkpt>
      <trkpt lat="43.62852" lon="3.78138">
        <ele>105.4</ele>
        <time>2015-07-18T17:20:00Z</time>
      </trkpt>
      <trkpt lat="43.6283" lon="3.78179">
        <ele>104.92</ele>
        <time>2015-07-18T17:20:01Z</time>
      </trkpt>
      <trkpt lat="43.62805" lon="3.78218">
        <ele>104.44</ele>
        <time>2015-07-18T17:20:02Z</time>
      </trkpt>
      <trkpt lat="43.62779" lon="3.78255">
        <ele>103.96</ele>
        <time>2015-07-18T17:20:03Z</time>
      </trkpt>
      <trkpt lat="43.62526" lon="3.78593">
        <ele>96.75</ele>
        <time>2015-07-18T17:20:13Z</time>
      </trkpt>
      <trkpt lat="43.62291" lon="3.78897">
        <ele>87.14</ele>
        <time>2015-07-18T17:20:23Z</time>
      </trkpt>
      <trkpt lat="43.62134" lon="3.79038">
        <ele>80.89</ele>
        <time>2015-07-18T17:20:29Z</time>
      </trkpt>
      <trkpt lat="43.61918" lon="3.79226">
        <ele>75.12</ele>
        <time>2015-07-18T17:20:38Z</time>
      </trkpt>
      <trkpt lat="43.61817" lon="3.79378">
        <ele>71.27</ele>
        <time>2015-07-18T17:20:43Z</time>
      </trkpt>
      <trkpt lat="43.61591" lon="3.79802">
        <ele>68.87</ele>
        <time>2015-07-18T17:20:55Z</time>
      </trkpt>
      <trkpt lat="43.61455" lon="3.79917">
        <ele>70.31</ele>
        <time>2015-07-18T17:21:00Z</time>
      </trkpt>
      <trkpt lat="43.61203" lon="3.80106">
        <ele>64.07</ele>
        <time>2015-07-18T17:21:09Z</time>
      </trkpt>
      <trkpt lat="43.61045" lon="3.80328">
        <ele>52.53</ele>
        <time>2015-07-18T17:21:16Z</time>
      </trkpt>
      <trkpt lat="43.60852" lon="3.80573">
        <ele>43.88</ele>
        <time>2015-07-18T17:21:24Z</time>
      </trkpt>
      <trkpt lat="43.60765" lon="3.80772">
        <ele>40.03</ele>
        <time>2015-07-18T17:21:29Z</time>
      </trkpt>
      <trkpt lat="43.60664" lon="3.81019">
        <ele>38.11</ele>
        <time>2015-07-18T17:21:35Z</time>
      </trkpt>
      <trkpt lat="43.60539" lon="3.8128">
        <ele>36.19</ele>
        <time>2015-07-18T17:21:42Z</time>
      </trkpt>
      <trkpt lat="43.6053" lon="3.81324">
        <ele>35.71</ele>
        <time>2015-07-18T17:21:43Z</time>
      </trkpt>
      <trkpt lat="43.60525" lon="3.8137">
        <ele>35.71</ele>
        <time>2015-07-18T17:21:44Z</time>
      </trkpt>
      <trkpt lat="43.60521" lon="3.81417">
        <ele>35.23</ele>
        <time>2015-07-18T17:21:45Z</time>
      </trkpt>
      <trkpt lat="43.60521" lon="3.81465">
        <ele>34.74</ele>
        <time>2015-07-18T17:21:46Z</time>
      </trkpt>
      <trkpt lat="43.60524" lon="3.81513">
        <ele>34.26</ele>
        <time>2015-07-18T17:21:47Z</time>
      </trkpt>
      <trkpt lat="43.60537" lon="3.8156">
        <ele>34.26</ele>
        <time>2015-07-18T17:21:48Z</time>
      </trkpt>
      <trkpt lat="43.60551" lon="3.81605">
        <ele>34.26</ele>
        <time>2015-07-18T17:21:49Z</time>
      </trkpt>
      <trkpt lat="43.60567" lon="3.8165">
        <ele>34.26</ele>
        <time>2015-07-18T17:21:50Z</time>
      </trkpt>
      <trkpt lat="43.60586" lon="3.81692">
        <ele>34.26</ele>
        <time>2015-07-18T17:21:51Z</time>
      </trkpt>
      <trkpt lat="43.60607" lon="3.81733">
        <ele>34.26</ele>
        <time>2015-07-18T17:21:52Z</time>
      </trkpt>
      <trkpt lat="43.60628" lon="3.81774">
        <ele>34.74</ele>
        <time>2015-07-18T17:21:53Z</time>
      </trkpt>
      <trkpt lat="43.60817" lon="3.82107">
        <ele>39.07</ele>
        <time>2015-07-18T17:22:02Z</time>
      </trkpt>
      <trkpt lat="43.60947" lon="3.82228">
        <ele>40.03</ele>
        <time>2015-07-18T17:22:07Z</time>
      </trkpt>
      <trkpt lat="43.61034" lon="3.82267">
        <ele>39.55</ele>
        <time>2015-07-18T17:22:10Z</time>
      </trkpt>
      <trkpt lat="43.61064" lon="3.82273">
        <ele>39.07</ele>
        <time>2015-07-18T17:22:11Z</time>
      </trkpt>
      <trkpt lat="43.61177" lon="3.82278">
        <ele>38.11</ele>
        <time>2015-07-18T17:22:16Z</time>
      </trkpt>
      <trkpt lat="43.61241" lon="3.82308">
        <ele>39.07</ele>
        <time>2015-07-18T17:22:20Z</time>
      </trkpt>
      <trkpt lat="43.61255" lon="3.8232">
        <ele>39.55</ele>
        <time>2015-07-18T17:22:21Z</time>
      </trkpt>
      <trkpt lat="43.61288" lon="3.82366">
        <ele>40.51</ele>
        <time>2015-07-18T17:22:24Z</time>
      </trkpt>
      <trkpt lat="43.61293" lon="3.82384">
        <ele>40.99</ele>
        <time>2015-07-18T17:22:25Z</time>
      </trkpt>
      <trkpt lat="43.61295" lon="3.82403">
        <ele>41.95</ele>
        <time>2015-07-18T17:22:26Z</time>
      </trkpt>
      <trkpt lat="43.61295" lon="3.82422">
        <ele>42.92</ele>
        <time>2015-07-18T17:22:27Z</time>
      </trkpt>
      <trkpt lat="43.61292" lon="3.82438">
        <ele>44.36</ele>
        <time>2015-07-18T17:22:28Z</time>
      </trkpt>
      <trkpt lat="43.61286" lon="3.82452">
        <ele>44.84</ele>
        <time>2015-07-18T17:22:29Z</time>
      </trkpt>
      <trkpt lat="43.61278" lon="3.82464">
        <ele>46.28</ele>
        <time>2015-07-18T17:22:30Z</time>
      </trkpt>
      <trkpt lat="43.61269" lon="3.82473">
        <ele>46.28</ele>
        <time>2015-07-18T17:22:31Z</time>
      </trkpt>
      <trkpt lat="43.61256" lon="3.82477">
        <ele>46.76</ele>
        <time>2015-07-18T17:22:32Z</time>
      </trkpt>
      <trkpt lat="43.61244" lon="3.82476">
        <ele>47.72</ele>
        <time>2015-07-18T17:22:33Z</time>
      </trkpt>
      <trkpt lat="43.61233" lon="3.82468">
        <ele>49.16</ele>
        <time>2015-07-18T17:22:34Z</time>
      </trkpt>
      <trkpt lat="43.61225" lon="3.82454">
        <ele>49.16</ele>
        <time>2015-07-18T17:22:35Z</time>
      </trkpt>
      <trkpt lat="43.61221" lon="3.82438">
        <ele>49.65</ele>
        <time>2015-07-18T17:22:36Z</time>
      </trkpt>
      <trkpt lat="43.61222" lon="3.82422">
        <ele>49.65</ele>
        <time>2015-07-18T17:22:37Z</time>
      </trkpt>
      <trkpt lat="43.61226" lon="3.82406">
        <ele>49.16</ele>
        <time>2015-07-18T17:22:38Z</time>
      </trkpt>
      <trkpt lat="43.61233" lon="3.82389">
        <ele>48.2</ele>
        <time>2015-07-18T17:22:39Z</time>
      </trkpt>
      <trkpt lat="43.61242" lon="3.8237">
        <ele>48.2</ele>
        <time>2015-07-18T17:22:40Z</time>
      </trkpt>
      <trkpt lat="43.61301" lon="3.82276">
        <ele>46.76</ele>
        <time>2015-07-18T17:22:44Z</time>
      </trkpt>
      <trkpt lat="43.61322" lon="3.82252">
        <ele>46.76</ele>
        <time>2015-07-18T17:22:45Z</time>
      </trkpt>
      <trkpt lat="43.61349" lon="3.8223">
        <ele>47.24</ele>
        <time>2015-07-18T17:22:46Z</time>
      </trkpt>
      <trkpt lat="43.61376" lon="3.82211">
        <ele>47.72</ele>
        <time>2015-07-18T17:22:47Z</time>
      </trkpt>
      <trkpt lat="43.61402" lon="3.82191">
        <ele>48.68</ele>
        <time>2015-07-18T17:22:48Z</time>
      </trkpt>
      <trkpt lat="43.61656" lon="3.82023">
        <ele>52.05</ele>
        <time>2015-07-18T17:22:58Z</time>
      </trkpt>
      <trkpt lat="43.61678" lon="3.82018">
        <ele>52.05</ele>
        <time>2015-07-18T17:22:59Z</time>
      </trkpt>
      <trkpt lat="43.61701" lon="3.8202">
        <ele>51.09</ele>
        <time>2015-07-18T17:23:00Z</time>
      </trkpt>
      <trkpt lat="43.61721" lon="3.82025">
        <ele>51.09</ele>
        <time>2015-07-18T17:23:01Z</time>
      </trkpt>
      <trkpt lat="43.61742" lon="3.82034">
        <ele>51.09</ele>
        <time>2015-07-18T17:23:02Z</time>
      </trkpt>
      <trkpt lat="43.6176" lon="3.82046">
        <ele>50.61</ele>
        <time>2015-07-18T17:23:03Z</time>
      </trkpt>
      <trkpt lat="43.61778" lon="3.82059">
        <ele>50.61</ele>
        <time>2015-07-18T17:23:04Z</time>
      </trkpt>
      <trkpt lat="43.61796" lon="3.82073">
        <ele>50.13</ele>
        <time>2015-07-18T17:23:05Z</time>
      </trkpt>
      <trkpt lat="43.61998" lon="3.82227">
        <ele>52.53</ele>
        <time>2015-07-18T17:23:15Z</time>
      </trkpt>
      <trkpt lat="43.62112" lon="3.82271">
        <ele>53.97</ele>
        <time>2015-07-18T17:23:21Z</time>
      </trkpt>
      <trkpt lat="43.62185" lon="3.82283">
        <ele>53.01</ele>
        <time>2015-07-18T17:23:26Z</time>
      </trkpt>
      <trkpt lat="43.62193" lon="3.82287">
        <ele>52.53</ele>
        <time>2015-07-18T17:23:27Z</time>
      </trkpt>
      <trkpt lat="43.62201" lon="3.82294">
        <ele>53.01</ele>
        <time>2015-07-18T17:23:28Z</time>
      </trkpt>
      <trkpt lat="43.62208" lon="3.82299">
        <ele>52.53</ele>
        <time>2015-07-18T17:23:29Z</time>
      </trkpt>
      <trkpt lat="43.62217" lon="3.82297">
        <ele>53.01</ele>
        <time>2015-07-18T17:23:30Z</time>
      </trkpt>
      <trkpt lat="43.62226" lon="3.82293">
        <ele>53.01</ele>
        <time>2015-07-18T17:23:31Z</time>
      </trkpt>
      <trkpt lat="43.62235" lon="3.82291">
        <ele>52.53</ele>
        <time>2015-07-18T17:23:32Z</time>
      </trkpt>
      <trkpt lat="43.62247" lon="3.82292">
        <ele>53.01</ele>
        <time>2015-07-18T17:23:33Z</time>
      </trkpt>
      <trkpt lat="43.62259" lon="3.823">
        <ele>53.01</ele>
        <time>2015-07-18T17:23:34Z</time>
      </trkpt>
      <trkpt lat="43.62274" lon="3.82316">
        <ele>53.01</ele>
        <time>2015-07-18T17:23:35Z</time>
      </trkpt>
      <trkpt lat="43.62289" lon="3.82338">
        <ele>54.45</ele>
        <time>2015-07-18T17:23:36Z</time>
      </trkpt>
      <trkpt lat="43.62305" lon="3.8236">
        <ele>55.89</ele>
        <time>2015-07-18T17:23:37Z</time>
      </trkpt>
      <trkpt lat="43.62425" lon="3.82539">
        <ele>61.18</ele>
        <time>2015-07-18T17:23:45Z</time>
      </trkpt>
      <trkpt lat="43.62435" lon="3.82559">
        <ele>61.66</ele>
        <time>2015-07-18T17:23:46Z</time>
      </trkpt>
      <trkpt lat="43.62444" lon="3.82579">
        <ele>61.66</ele>
        <time>2015-07-18T17:23:47Z</time>
      </trkpt>
      <trkpt lat="43.62449" lon="3.82598">
        <ele>61.66</ele>
        <time>2015-07-18T17:23:48Z</time>
      </trkpt>
      <trkpt lat="43.62453" lon="3.82617">
        <ele>62.14</ele>
        <time>2015-07-18T17:23:49Z</time>
      </trkpt>
      <trkpt lat="43.62455" lon="3.82633">
        <ele>62.62</ele>
        <time>2015-07-18T17:23:50Z</time>
      </trkpt>
      <trkpt lat="43.62455" lon="3.82649">
        <ele>63.1</ele>
        <time>2015-07-18T17:23:51Z</time>
      </trkpt>
      <trkpt lat="43.62456" lon="3.82663">
        <ele>63.58</ele>
        <time>2015-07-18T17:23:52Z</time>
      </trkpt>
      <trkpt lat="43.62459" lon="3.82674">
        <ele>63.58</ele>
        <time>2015-07-18T17:23:53Z</time>
      </trkpt>
      <trkpt lat="43.62465" lon="3.82687">
        <ele>63.58</ele>
        <time>2015-07-18T17:23:54Z</time>
      </trkpt>
      <trkpt lat="43.62471" lon="3.82703">
        <ele>63.58</ele>
        <time>2015-07-18T17:23:55Z</time>
      </trkpt>
      <trkpt lat="43.62472" lon="3.82723">
        <ele>64.07</ele>
        <time>2015-07-18T17:23:56Z</time>
      </trkpt>
      <trkpt lat="43.62469" lon="3.82745">
        <ele>64.55</ele>
        <time>2015-07-18T17:23:57Z</time>
      </trkpt>
      <trkpt lat="43.62463" lon="3.82767">
        <ele>65.03</ele>
        <time>2015-07-18T17:23:58Z</time>
      </trkpt>
      <trkpt lat="43.62454" lon="3.8279">
        <ele>65.51</ele>
        <time>2015-07-18T17:23:59Z</time>
      </trkpt>
      <trkpt lat="43.6244" lon="3.82814">
        <ele>65.51</ele>
        <time>2015-07-18T17:24:00Z</time>
      </trkpt>
      <trkpt lat="43.62426" lon="3.82839">
        <ele>65.99</ele>
        <time>2015-07-18T17:24:01Z</time>
      </trkpt>
      <trkpt lat="43.62334" lon="3.83087">
        <ele>69.83</ele>
        <time>2015-07-18T17:24:10Z</time>
      </trkpt>
      <trkpt lat="43.62302" lon="3.83211">
        <ele>71.27</ele>
        <time>2015-07-18T17:24:15Z</time>
      </trkpt>
      <trkpt lat="43.623" lon="3.83234">
        <ele>71.76</ele>
        <time>2015-07-18T17:24:16Z</time>
      </trkpt>
      <trkpt lat="43.623" lon="3.83255">
        <ele>72.24</ele>
        <time>2015-07-18T17:24:17Z</time>
      </trkpt>
      <trkpt lat="43.623" lon="3.83274">
        <ele>72.72</ele>
        <time>2015-07-18T17:24:18Z</time>
      </trkpt>
      <trkpt lat="43.62302" lon="3.83291">
        <ele>73.2</ele>
        <time>2015-07-18T17:24:19Z</time>
      </trkpt>
      <trkpt lat="43.62304" lon="3.83305">
        <ele>73.68</ele>
        <time>2015-07-18T17:24:20Z</time>
      </trkpt>
      <trkpt lat="43.62304" lon="3.83317">
        <ele>74.16</ele>
        <time>2015-07-18T17:24:21Z</time>
      </trkpt>
      <trkpt lat="43.62304" lon="3.83328">
        <ele>74.16</ele>
        <time>2015-07-18T17:24:22Z</time>
      </trkpt>
      <trkpt lat="43.623" lon="3.83338">
        <ele>75.12</ele>
        <time>2015-07-18T17:24:23Z</time>
      </trkpt>
      <trkpt lat="43.62295" lon="3.83347">
        <ele>75.6</ele>
        <time>2015-07-18T17:24:24Z</time>
      </trkpt>
      <trkpt lat="43.62291" lon="3.83358">
        <ele>76.08</ele>
        <time>2015-07-18T17:24:25Z</time>
      </trkpt>
      <trkpt lat="43.62288" lon="3.8337">
        <ele>76.56</ele>
        <time>2015-07-18T17:24:26Z</time>
      </trkpt>
      <trkpt lat="43.62288" lon="3.83383">
        <ele>77.52</ele>
        <time>2015-07-18T17:24:27Z</time>
      </trkpt>
      <trkpt lat="43.6229" lon="3.83395">
        <ele>77.52</ele>
        <time>2015-07-18T17:24:28Z</time>
      </trkpt>
      <trkpt lat="43.62291" lon="3.8341">
        <ele>77.52</ele>
        <time>2015-07-18T17:24:29Z</time>
      </trkpt>
      <trkpt lat="43.62289" lon="3.83427">
        <ele>78</ele>
        <time>2015-07-18T17:24:30Z</time>
      </trkpt>
      <trkpt lat="43.62285" lon="3.83443">
        <ele>78.48</ele>
        <time>2015-07-18T17:24:31Z</time>
      </trkpt>
      <trkpt lat="43.6228" lon="3.83456">
        <ele>79.45</ele>
        <time>2015-07-18T17:24:32Z</time>
      </trkpt>
      <trkpt lat="43.62275" lon="3.83469">
        <ele>79.93</ele>
        <time>2015-07-18T17:24:33Z</time>
      </trkpt>
      <trkpt lat="43.62256" lon="3.83513">
        <ele>81.85</ele>
        <time>2015-07-18T17:24:40Z</time>
      </trkpt>
      <trkpt lat="43.62256" lon="3.83511">
        <ele>83.29</ele>
        <time>2015-07-18T17:24:59Z</time>
      </trkpt>
      <trkpt lat="43.62254" lon="3.83515">
        <ele>81.85</ele>
        <time>2015-07-18T17:25:14Z</time>
      </trkpt>
      <trkpt lat="43.62235" lon="3.83554">
        <ele>82.81</ele>
        <time>2015-07-18T17:25:17Z</time>
      </trkpt>
      <trkpt lat="43.62226" lon="3.83568">
        <ele>82.33</ele>
        <time>2015-07-18T17:25:18Z</time>
      </trkpt>
      <trkpt lat="43.62215" lon="3.83582">
        <ele>82.33</ele>
        <time>2015-07-18T17:25:19Z</time>
      </trkpt>
      <trkpt lat="43.62202" lon="3.83596">
        <ele>82.33</ele>
        <time>2015-07-18T17:25:20Z</time>
      </trkpt>
      <trkpt lat="43.62189" lon="3.83607">
        <ele>82.33</ele>
        <time>2015-07-18T17:25:21Z</time>
      </trkpt>
      <trkpt lat="43.62178" lon="3.83616">
        <ele>82.33</ele>
        <time>2015-07-18T17:25:22Z</time>
      </trkpt>
      <trkpt lat="43.62145" lon="3.83639">
        <ele>82.33</ele>
        <time>2015-07-18T17:25:27Z</time>
      </trkpt>
      <trkpt lat="43.62085" lon="3.83686">
        <ele>82.33</ele>
        <time>2015-07-18T17:25:34Z</time>
      </trkpt>
      <trkpt lat="43.62022" lon="3.8374">
        <ele>82.81</ele>
        <time>2015-07-18T17:25:42Z</time>
      </trkpt>
      <trkpt lat="43.61987" lon="3.83769">
        <ele>82.33</ele>
        <time>2015-07-18T17:25:49Z</time>
      </trkpt>
      <trkpt lat="43.61983" lon="3.83773">
        <ele>81.85</ele>
        <time>2015-07-18T17:26:04Z</time>
      </trkpt>
      <trkpt lat="43.61979" lon="3.83779">
        <ele>81.85</ele>
        <time>2015-07-18T17:26:05Z</time>
      </trkpt>
      <trkpt lat="43.61977" lon="3.83787">
        <ele>81.85</ele>
        <time>2015-07-18T17:26:06Z</time>
      </trkpt>
      <trkpt lat="43.61977" lon="3.83795">
        <ele>81.37</ele>
        <time>2015-07-18T17:26:07Z</time>
      </trkpt>
      <trkpt lat="43.61979" lon="3.83804">
        <ele>80.89</ele>
        <time>2015-07-18T17:26:08Z</time>
      </trkpt>
      <trkpt lat="43.61984" lon="3.83812">
        <ele>80.41</ele>
        <time>2015-07-18T17:26:09Z</time>
      </trkpt>
      <trkpt lat="43.61992" lon="3.83822">
        <ele>80.41</ele>
        <time>2015-07-18T17:26:10Z</time>
      </trkpt>
      <trkpt lat="43.62058" lon="3.83895">
        <ele>79.93</ele>
        <time>2015-07-18T17:26:17Z</time>
      </trkpt>
      <trkpt lat="43.62095" lon="3.83948">
        <ele>76.08</ele>
        <time>2015-07-18T17:26:22Z</time>
      </trkpt>
      <trkpt lat="43.62099" lon="3.8396">
        <ele>75.6</ele>
        <time>2015-07-18T17:26:23Z</time>
      </trkpt>
      <trkpt lat="43.62102" lon="3.83972">
        <ele>74.64</ele>
        <time>2015-07-18T17:26:24Z</time>
      </trkpt>
      <trkpt lat="43.62111" lon="3.84031">
        <ele>69.35</ele>
        <time>2015-07-18T17:26:29Z</time>
      </trkpt>
      <trkpt lat="43.62111" lon="3.84039">
        <ele>68.87</ele>
        <time>2015-07-18T17:26:30Z</time>
      </trkpt>
      <trkpt lat="43.62108" lon="3.84044">
        <ele>68.39</ele>
        <time>2015-07-18T17:26:31Z</time>
      </trkpt>
      <trkpt lat="43.62103" lon="3.84047">
        <ele>67.91</ele>
        <time>2015-07-18T17:26:32Z</time>
      </trkpt>
      <trkpt lat="43.62098" lon="3.84049">
        <ele>68.39</ele>
        <time>2015-07-18T17:26:33Z</time>
      </trkpt>
      <trkpt lat="43.62094" lon="3.8405">
        <ele>68.39</ele>
        <time>2015-07-18T17:26:34Z</time>
      </trkpt>
      <trkpt lat="43.62089" lon="3.8405">
        <ele>68.39</ele>
        <time>2015-07-18T17:26:35Z</time>
      </trkpt>
      <trkpt lat="43.62086" lon="3.84049">
        <ele>68.39</ele>
        <time>2015-07-18T17:26:36Z</time>
      </trkpt>
      <trkpt lat="43.62084" lon="3.84038">
        <ele>68.87</ele>
        <time>2015-07-18T17:26:42Z</time>
      </trkpt>
      <trkpt lat="43.62089" lon="3.84026">
        <ele>71.27</ele>
        <time>2015-07-18T17:27:47Z</time>
      </trkpt>
      <trkpt lat="43.62081" lon="3.84013">
        <ele>71.27</ele>
        <time>2015-07-18T17:27:51Z</time>
      </trkpt>
    </trkseg>
  </trk>
</gpx>